<?xml version="1.0" encoding="UTF-8"?>
<gpx version="1.1" creator="https://www.youtrack.es" xsi:schemaLocation="http://www.topografix.com/GPX/1/1 http://www.topografix.com/GPX/1/1/gpx.xsd http://www.garmin.com/xmlschemas/GpxExtensions/v3 http://www.garmin.com/xmlschemas/GpxExtensionsv3.xsd http://www.garmin.com/xmlschemas/TrackPointExtension/v1 http://www.garmin.com/xmlschemas/TrackPointExtensionv1.xsd" xmlns:gpxtpx="http://www.garmin.com/xmlschemas/TrackPointExtension/v1" xmlns:gpxx="http://www.garmin.com/xmlschemas/GpxExtensions/v3" xmlns:xsi="http://www.w3.org/2001/XMLSchema-instance">
  <metadata>
    <link href="https://www.youtrack.es">
      <text>YouTrack.es</text>
    </link>
    <time>2026-05-08T05:05:15Z</time>
  </metadata>
  <trk>
    <src>https://www.youtrack.es</src>
    <link href="https://www.youtrack.es/ruta/20229-transcadi">
      <text>YouTrack.es</text>
    </link>
    <trkseg>
      <trkpt lat="42.3170620" lon="1.9210940">
        <ele>2039.0</ele>
        <time>2015-08-12T07:17:19Z</time>
      </trkpt>
      <trkpt lat="42.3170450" lon="1.9211320">
        <ele>2038.0</ele>
        <time>2015-08-12T07:17:32Z</time>
      </trkpt>
      <trkpt lat="42.3170460" lon="1.9210940">
        <ele>2038.8</ele>
        <time>2015-08-12T07:17:48Z</time>
      </trkpt>
      <trkpt lat="42.3170390" lon="1.9211400">
        <ele>2037.8</ele>
        <time>2015-08-12T07:18:51Z</time>
      </trkpt>
      <trkpt lat="42.3170060" lon="1.9211270">
        <ele>2037.7</ele>
        <time>2015-08-12T07:18:55Z</time>
      </trkpt>
      <trkpt lat="42.3169700" lon="1.9211160">
        <ele>2037.6</ele>
        <time>2015-08-12T07:18:57Z</time>
      </trkpt>
      <trkpt lat="42.3169400" lon="1.9211140">
        <ele>2037.3</ele>
        <time>2015-08-12T07:19:00Z</time>
      </trkpt>
      <trkpt lat="42.3169230" lon="1.9210630">
        <ele>2038.0</ele>
        <time>2015-08-12T07:19:02Z</time>
      </trkpt>
      <trkpt lat="42.3169000" lon="1.9210320">
        <ele>2038.3</ele>
        <time>2015-08-12T07:19:04Z</time>
      </trkpt>
      <trkpt lat="42.3168680" lon="1.9210020">
        <ele>2038.5</ele>
        <time>2015-08-12T07:19:06Z</time>
      </trkpt>
      <trkpt lat="42.3168440" lon="1.9210390">
        <ele>2037.6</ele>
        <time>2015-08-12T07:19:08Z</time>
      </trkpt>
      <trkpt lat="42.3168300" lon="1.9210060">
        <ele>2038.0</ele>
        <time>2015-08-12T07:19:10Z</time>
      </trkpt>
      <trkpt lat="42.3168810" lon="1.9210290">
        <ele>2038.2</ele>
        <time>2015-08-12T07:19:14Z</time>
      </trkpt>
      <trkpt lat="42.3169040" lon="1.9210520">
        <ele>2038.0</ele>
        <time>2015-08-12T07:19:15Z</time>
      </trkpt>
      <trkpt lat="42.3169360" lon="1.9210800">
        <ele>2037.9</ele>
        <time>2015-08-12T07:19:17Z</time>
      </trkpt>
      <trkpt lat="42.3169600" lon="1.9211020">
        <ele>2037.7</ele>
        <time>2015-08-12T07:19:18Z</time>
      </trkpt>
      <trkpt lat="42.3169850" lon="1.9211200">
        <ele>2037.6</ele>
        <time>2015-08-12T07:19:19Z</time>
      </trkpt>
      <trkpt lat="42.3170240" lon="1.9211420">
        <ele>2037.6</ele>
        <time>2015-08-12T07:19:21Z</time>
      </trkpt>
      <trkpt lat="42.3170620" lon="1.9211280">
        <ele>2038.3</ele>
        <time>2015-08-12T07:20:14Z</time>
      </trkpt>
      <trkpt lat="42.3170650" lon="1.9210920">
        <ele>2039.0</ele>
        <time>2015-08-12T07:20:59Z</time>
      </trkpt>
      <trkpt lat="42.3170910" lon="1.9211050">
        <ele>2038.9</ele>
        <time>2015-08-12T07:21:14Z</time>
      </trkpt>
      <trkpt lat="42.3171160" lon="1.9211450">
        <ele>2037.9</ele>
        <time>2015-08-12T07:21:16Z</time>
      </trkpt>
      <trkpt lat="42.3171600" lon="1.9211880">
        <ele>2036.6</ele>
        <time>2015-08-12T07:21:18Z</time>
      </trkpt>
      <trkpt lat="42.3171920" lon="1.9211920">
        <ele>2036.3</ele>
        <time>2015-08-12T07:21:19Z</time>
      </trkpt>
      <trkpt lat="42.3172340" lon="1.9212360">
        <ele>2035.0</ele>
        <time>2015-08-12T07:21:21Z</time>
      </trkpt>
      <trkpt lat="42.3173000" lon="1.9212260">
        <ele>2034.7</ele>
        <time>2015-08-12T07:21:22Z</time>
      </trkpt>
      <trkpt lat="42.3173510" lon="1.9212050">
        <ele>2034.7</ele>
        <time>2015-08-12T07:21:23Z</time>
      </trkpt>
      <trkpt lat="42.3173890" lon="1.9211950">
        <ele>2034.6</ele>
        <time>2015-08-12T07:21:24Z</time>
      </trkpt>
      <trkpt lat="42.3174450" lon="1.9211310">
        <ele>2035.4</ele>
        <time>2015-08-12T07:21:25Z</time>
      </trkpt>
      <trkpt lat="42.3174950" lon="1.9210870">
        <ele>2035.9</ele>
        <time>2015-08-12T07:21:26Z</time>
      </trkpt>
      <trkpt lat="42.3175510" lon="1.9210300">
        <ele>2036.6</ele>
        <time>2015-08-12T07:21:27Z</time>
      </trkpt>
      <trkpt lat="42.3175980" lon="1.9209660">
        <ele>2037.5</ele>
        <time>2015-08-12T07:21:28Z</time>
      </trkpt>
      <trkpt lat="42.3176520" lon="1.9209180">
        <ele>2038.0</ele>
        <time>2015-08-12T07:21:29Z</time>
      </trkpt>
      <trkpt lat="42.3177140" lon="1.9208760">
        <ele>2038.3</ele>
        <time>2015-08-12T07:21:30Z</time>
      </trkpt>
      <trkpt lat="42.3177730" lon="1.9208360">
        <ele>2038.7</ele>
        <time>2015-08-12T07:21:31Z</time>
      </trkpt>
      <trkpt lat="42.3178470" lon="1.9208220">
        <ele>2038.3</ele>
        <time>2015-08-12T07:21:32Z</time>
      </trkpt>
      <trkpt lat="42.3179320" lon="1.9208190">
        <ele>2037.6</ele>
        <time>2015-08-12T07:21:33Z</time>
      </trkpt>
      <trkpt lat="42.3180100" lon="1.9208300">
        <ele>2036.1</ele>
        <time>2015-08-12T07:21:34Z</time>
      </trkpt>
      <trkpt lat="42.3180840" lon="1.9208600">
        <ele>2034.3</ele>
        <time>2015-08-12T07:21:35Z</time>
      </trkpt>
      <trkpt lat="42.3181550" lon="1.9208990">
        <ele>2032.4</ele>
        <time>2015-08-12T07:21:36Z</time>
      </trkpt>
      <trkpt lat="42.3182260" lon="1.9209410">
        <ele>2030.5</ele>
        <time>2015-08-12T07:21:37Z</time>
      </trkpt>
      <trkpt lat="42.3182970" lon="1.9209900">
        <ele>2028.4</ele>
        <time>2015-08-12T07:21:38Z</time>
      </trkpt>
      <trkpt lat="42.3183700" lon="1.9210510">
        <ele>2026.0</ele>
        <time>2015-08-12T07:21:39Z</time>
      </trkpt>
      <trkpt lat="42.3184380" lon="1.9211020">
        <ele>2023.9</ele>
        <time>2015-08-12T07:21:40Z</time>
      </trkpt>
      <trkpt lat="42.3185120" lon="1.9210770">
        <ele>2023.2</ele>
        <time>2015-08-12T07:21:41Z</time>
      </trkpt>
      <trkpt lat="42.3186000" lon="1.9210650">
        <ele>2022.1</ele>
        <time>2015-08-12T07:21:42Z</time>
      </trkpt>
      <trkpt lat="42.3186740" lon="1.9210400">
        <ele>2021.5</ele>
        <time>2015-08-12T07:21:43Z</time>
      </trkpt>
      <trkpt lat="42.3187550" lon="1.9210550">
        <ele>2020.0</ele>
        <time>2015-08-12T07:21:44Z</time>
      </trkpt>
      <trkpt lat="42.3188250" lon="1.9210670">
        <ele>2020.0</ele>
        <time>2015-08-12T07:21:45Z</time>
      </trkpt>
      <trkpt lat="42.3188740" lon="1.9211150">
        <ele>2019.1</ele>
        <time>2015-08-12T07:21:46Z</time>
      </trkpt>
      <trkpt lat="42.3189280" lon="1.9211460">
        <ele>2018.6</ele>
        <time>2015-08-12T07:21:47Z</time>
      </trkpt>
      <trkpt lat="42.3189770" lon="1.9211490">
        <ele>2018.7</ele>
        <time>2015-08-12T07:21:49Z</time>
      </trkpt>
      <trkpt lat="42.3190040" lon="1.9211630">
        <ele>2018.4</ele>
        <time>2015-08-12T07:21:50Z</time>
      </trkpt>
      <trkpt lat="42.3190390" lon="1.9212150">
        <ele>2017.4</ele>
        <time>2015-08-12T07:21:52Z</time>
      </trkpt>
      <trkpt lat="42.3190240" lon="1.9211840">
        <ele>2018.1</ele>
        <time>2015-08-12T07:21:58Z</time>
      </trkpt>
      <trkpt lat="42.3190880" lon="1.9212030">
        <ele>2017.8</ele>
        <time>2015-08-12T07:23:37Z</time>
      </trkpt>
      <trkpt lat="42.3191480" lon="1.9211780">
        <ele>2018.5</ele>
        <time>2015-08-12T07:23:39Z</time>
      </trkpt>
      <trkpt lat="42.3191890" lon="1.9211820">
        <ele>2018.5</ele>
        <time>2015-08-12T07:23:40Z</time>
      </trkpt>
      <trkpt lat="42.3192330" lon="1.9211880">
        <ele>2018.5</ele>
        <time>2015-08-12T07:23:41Z</time>
      </trkpt>
      <trkpt lat="42.3193060" lon="1.9212060">
        <ele>2018.3</ele>
        <time>2015-08-12T07:23:42Z</time>
      </trkpt>
      <trkpt lat="42.3193650" lon="1.9211980">
        <ele>2018.6</ele>
        <time>2015-08-12T07:23:43Z</time>
      </trkpt>
      <trkpt lat="42.3194190" lon="1.9211990">
        <ele>2018.7</ele>
        <time>2015-08-12T07:23:44Z</time>
      </trkpt>
      <trkpt lat="42.3194830" lon="1.9212220">
        <ele>2018.4</ele>
        <time>2015-08-12T07:23:45Z</time>
      </trkpt>
      <trkpt lat="42.3195390" lon="1.9212430">
        <ele>2018.1</ele>
        <time>2015-08-12T07:23:46Z</time>
      </trkpt>
      <trkpt lat="42.3195940" lon="1.9212610">
        <ele>2017.7</ele>
        <time>2015-08-12T07:23:47Z</time>
      </trkpt>
      <trkpt lat="42.3196630" lon="1.9212630">
        <ele>2017.5</ele>
        <time>2015-08-12T07:23:48Z</time>
      </trkpt>
      <trkpt lat="42.3197230" lon="1.9212940">
        <ele>2016.6</ele>
        <time>2015-08-12T07:23:49Z</time>
      </trkpt>
      <trkpt lat="42.3198020" lon="1.9212910">
        <ele>2016.6</ele>
        <time>2015-08-12T07:23:50Z</time>
      </trkpt>
      <trkpt lat="42.3198670" lon="1.9213110">
        <ele>2015.9</ele>
        <time>2015-08-12T07:23:51Z</time>
      </trkpt>
      <trkpt lat="42.3199410" lon="1.9213220">
        <ele>2015.5</ele>
        <time>2015-08-12T07:23:52Z</time>
      </trkpt>
      <trkpt lat="42.3200020" lon="1.9213130">
        <ele>2015.7</ele>
        <time>2015-08-12T07:23:53Z</time>
      </trkpt>
      <trkpt lat="42.3200710" lon="1.9212970">
        <ele>2016.1</ele>
        <time>2015-08-12T07:23:54Z</time>
      </trkpt>
      <trkpt lat="42.3201050" lon="1.9212880">
        <ele>2016.3</ele>
        <time>2015-08-12T07:23:55Z</time>
      </trkpt>
      <trkpt lat="42.3201710" lon="1.9212860">
        <ele>2016.2</ele>
        <time>2015-08-12T07:23:56Z</time>
      </trkpt>
      <trkpt lat="42.3202170" lon="1.9212800">
        <ele>2016.4</ele>
        <time>2015-08-12T07:23:57Z</time>
      </trkpt>
      <trkpt lat="42.3202880" lon="1.9212700">
        <ele>2016.6</ele>
        <time>2015-08-12T07:23:58Z</time>
      </trkpt>
      <trkpt lat="42.3203500" lon="1.9212380">
        <ele>2017.3</ele>
        <time>2015-08-12T07:23:59Z</time>
      </trkpt>
      <trkpt lat="42.3203970" lon="1.9211970">
        <ele>2018.2</ele>
        <time>2015-08-12T07:24:00Z</time>
      </trkpt>
      <trkpt lat="42.3204470" lon="1.9211960">
        <ele>2018.2</ele>
        <time>2015-08-12T07:24:01Z</time>
      </trkpt>
      <trkpt lat="42.3204910" lon="1.9211590">
        <ele>2019.2</ele>
        <time>2015-08-12T07:24:02Z</time>
      </trkpt>
      <trkpt lat="42.3205500" lon="1.9211450">
        <ele>2019.7</ele>
        <time>2015-08-12T07:24:03Z</time>
      </trkpt>
      <trkpt lat="42.3206190" lon="1.9211440">
        <ele>2019.9</ele>
        <time>2015-08-12T07:24:04Z</time>
      </trkpt>
      <trkpt lat="42.3206870" lon="1.9211700">
        <ele>2019.5</ele>
        <time>2015-08-12T07:24:05Z</time>
      </trkpt>
      <trkpt lat="42.3207240" lon="1.9211830">
        <ele>2019.3</ele>
        <time>2015-08-12T07:24:06Z</time>
      </trkpt>
      <trkpt lat="42.3207820" lon="1.9212020">
        <ele>2019.0</ele>
        <time>2015-08-12T07:24:07Z</time>
      </trkpt>
      <trkpt lat="42.3208370" lon="1.9212330">
        <ele>2018.4</ele>
        <time>2015-08-12T07:24:08Z</time>
      </trkpt>
      <trkpt lat="42.3209010" lon="1.9212640">
        <ele>2017.7</ele>
        <time>2015-08-12T07:24:09Z</time>
      </trkpt>
      <trkpt lat="42.3209650" lon="1.9212860">
        <ele>2017.2</ele>
        <time>2015-08-12T07:24:10Z</time>
      </trkpt>
      <trkpt lat="42.3210310" lon="1.9213200">
        <ele>2016.3</ele>
        <time>2015-08-12T07:24:11Z</time>
      </trkpt>
      <trkpt lat="42.3211170" lon="1.9213650">
        <ele>2015.0</ele>
        <time>2015-08-12T07:24:12Z</time>
      </trkpt>
      <trkpt lat="42.3211880" lon="1.9213970">
        <ele>2014.1</ele>
        <time>2015-08-12T07:24:13Z</time>
      </trkpt>
      <trkpt lat="42.3212760" lon="1.9214150">
        <ele>2013.5</ele>
        <time>2015-08-12T07:24:14Z</time>
      </trkpt>
      <trkpt lat="42.3213480" lon="1.9214320">
        <ele>2012.7</ele>
        <time>2015-08-12T07:24:15Z</time>
      </trkpt>
      <trkpt lat="42.3214210" lon="1.9214250">
        <ele>2012.6</ele>
        <time>2015-08-12T07:24:16Z</time>
      </trkpt>
      <trkpt lat="42.3214760" lon="1.9214270">
        <ele>2012.3</ele>
        <time>2015-08-12T07:24:17Z</time>
      </trkpt>
      <trkpt lat="42.3215170" lon="1.9214060">
        <ele>2012.8</ele>
        <time>2015-08-12T07:24:18Z</time>
      </trkpt>
      <trkpt lat="42.3216060" lon="1.9213950">
        <ele>2012.7</ele>
        <time>2015-08-12T07:24:19Z</time>
      </trkpt>
      <trkpt lat="42.3216640" lon="1.9213960">
        <ele>2012.5</ele>
        <time>2015-08-12T07:24:20Z</time>
      </trkpt>
      <trkpt lat="42.3217450" lon="1.9214090">
        <ele>2011.7</ele>
        <time>2015-08-12T07:24:21Z</time>
      </trkpt>
      <trkpt lat="42.3218150" lon="1.9214290">
        <ele>2010.8</ele>
        <time>2015-08-12T07:24:22Z</time>
      </trkpt>
      <trkpt lat="42.3218730" lon="1.9214830">
        <ele>2008.9</ele>
        <time>2015-08-12T07:24:23Z</time>
      </trkpt>
      <trkpt lat="42.3219440" lon="1.9215260">
        <ele>2007.3</ele>
        <time>2015-08-12T07:24:24Z</time>
      </trkpt>
      <trkpt lat="42.3220190" lon="1.9215900">
        <ele>2005.0</ele>
        <time>2015-08-12T07:24:25Z</time>
      </trkpt>
      <trkpt lat="42.3220870" lon="1.9216610">
        <ele>2002.7</ele>
        <time>2015-08-12T07:24:26Z</time>
      </trkpt>
      <trkpt lat="42.3221530" lon="1.9217200">
        <ele>2001.3</ele>
        <time>2015-08-12T07:24:27Z</time>
      </trkpt>
      <trkpt lat="42.3222000" lon="1.9218200">
        <ele>1998.8</ele>
        <time>2015-08-12T07:24:28Z</time>
      </trkpt>
      <trkpt lat="42.3222600" lon="1.9218870">
        <ele>1997.5</ele>
        <time>2015-08-12T07:24:29Z</time>
      </trkpt>
      <trkpt lat="42.3223160" lon="1.9219890">
        <ele>1995.5</ele>
        <time>2015-08-12T07:24:30Z</time>
      </trkpt>
      <trkpt lat="42.3223550" lon="1.9220740">
        <ele>1993.8</ele>
        <time>2015-08-12T07:24:31Z</time>
      </trkpt>
      <trkpt lat="42.3223970" lon="1.9221760">
        <ele>1990.7</ele>
        <time>2015-08-12T07:24:32Z</time>
      </trkpt>
      <trkpt lat="42.3224470" lon="1.9222590">
        <ele>1988.4</ele>
        <time>2015-08-12T07:24:33Z</time>
      </trkpt>
      <trkpt lat="42.3225100" lon="1.9223090">
        <ele>1987.4</ele>
        <time>2015-08-12T07:24:34Z</time>
      </trkpt>
      <trkpt lat="42.3225730" lon="1.9223380">
        <ele>1987.2</ele>
        <time>2015-08-12T07:24:35Z</time>
      </trkpt>
      <trkpt lat="42.3226130" lon="1.9223620">
        <ele>1986.8</ele>
        <time>2015-08-12T07:24:36Z</time>
      </trkpt>
      <trkpt lat="42.3227000" lon="1.9223350">
        <ele>1989.0</ele>
        <time>2015-08-12T07:24:37Z</time>
      </trkpt>
      <trkpt lat="42.3227730" lon="1.9223270">
        <ele>1990.3</ele>
        <time>2015-08-12T07:24:38Z</time>
      </trkpt>
      <trkpt lat="42.3228470" lon="1.9223120">
        <ele>1991.8</ele>
        <time>2015-08-12T07:24:39Z</time>
      </trkpt>
      <trkpt lat="42.3229110" lon="1.9222700">
        <ele>1994.2</ele>
        <time>2015-08-12T07:24:40Z</time>
      </trkpt>
      <trkpt lat="42.3229820" lon="1.9222230">
        <ele>1995.1</ele>
        <time>2015-08-12T07:24:41Z</time>
      </trkpt>
      <trkpt lat="42.3230440" lon="1.9222120">
        <ele>1994.7</ele>
        <time>2015-08-12T07:24:42Z</time>
      </trkpt>
      <trkpt lat="42.3230910" lon="1.9221710">
        <ele>1995.4</ele>
        <time>2015-08-12T07:24:43Z</time>
      </trkpt>
      <trkpt lat="42.3231460" lon="1.9221690">
        <ele>1994.7</ele>
        <time>2015-08-12T07:24:44Z</time>
      </trkpt>
      <trkpt lat="42.3232120" lon="1.9221350">
        <ele>1994.8</ele>
        <time>2015-08-12T07:24:45Z</time>
      </trkpt>
      <trkpt lat="42.3232810" lon="1.9220980">
        <ele>1994.9</ele>
        <time>2015-08-12T07:24:46Z</time>
      </trkpt>
      <trkpt lat="42.3233460" lon="1.9220670">
        <ele>1994.4</ele>
        <time>2015-08-12T07:24:47Z</time>
      </trkpt>
      <trkpt lat="42.3234140" lon="1.9220210">
        <ele>1993.8</ele>
        <time>2015-08-12T07:24:48Z</time>
      </trkpt>
      <trkpt lat="42.3234840" lon="1.9219860">
        <ele>1992.9</ele>
        <time>2015-08-12T07:24:49Z</time>
      </trkpt>
      <trkpt lat="42.3235520" lon="1.9219490">
        <ele>1992.0</ele>
        <time>2015-08-12T07:24:50Z</time>
      </trkpt>
      <trkpt lat="42.3236190" lon="1.9219210">
        <ele>1991.0</ele>
        <time>2015-08-12T07:24:51Z</time>
      </trkpt>
      <trkpt lat="42.3236910" lon="1.9218810">
        <ele>1990.0</ele>
        <time>2015-08-12T07:24:52Z</time>
      </trkpt>
      <trkpt lat="42.3237580" lon="1.9218380">
        <ele>1989.0</ele>
        <time>2015-08-12T07:24:53Z</time>
      </trkpt>
      <trkpt lat="42.3238250" lon="1.9217890">
        <ele>1987.4</ele>
        <time>2015-08-12T07:24:54Z</time>
      </trkpt>
      <trkpt lat="42.3238830" lon="1.9217160">
        <ele>1986.1</ele>
        <time>2015-08-12T07:24:55Z</time>
      </trkpt>
      <trkpt lat="42.3238970" lon="1.9216320">
        <ele>1986.0</ele>
        <time>2015-08-12T07:24:56Z</time>
      </trkpt>
      <trkpt lat="42.3239060" lon="1.9215280">
        <ele>1986.0</ele>
        <time>2015-08-12T07:24:57Z</time>
      </trkpt>
      <trkpt lat="42.3238840" lon="1.9214220">
        <ele>1987.0</ele>
        <time>2015-08-12T07:24:58Z</time>
      </trkpt>
      <trkpt lat="42.3238880" lon="1.9213200">
        <ele>1987.2</ele>
        <time>2015-08-12T07:24:59Z</time>
      </trkpt>
      <trkpt lat="42.3239180" lon="1.9212120">
        <ele>1986.7</ele>
        <time>2015-08-12T07:25:00Z</time>
      </trkpt>
      <trkpt lat="42.3239260" lon="1.9211160">
        <ele>1987.2</ele>
        <time>2015-08-12T07:25:01Z</time>
      </trkpt>
      <trkpt lat="42.3239360" lon="1.9210070">
        <ele>1987.7</ele>
        <time>2015-08-12T07:25:02Z</time>
      </trkpt>
      <trkpt lat="42.3239440" lon="1.9209170">
        <ele>1988.1</ele>
        <time>2015-08-12T07:25:03Z</time>
      </trkpt>
      <trkpt lat="42.3239990" lon="1.9208400">
        <ele>1986.7</ele>
        <time>2015-08-12T07:25:04Z</time>
      </trkpt>
      <trkpt lat="42.3240240" lon="1.9207600">
        <ele>1986.3</ele>
        <time>2015-08-12T07:25:05Z</time>
      </trkpt>
      <trkpt lat="42.3239950" lon="1.9206720">
        <ele>1988.1</ele>
        <time>2015-08-12T07:25:06Z</time>
      </trkpt>
      <trkpt lat="42.3239730" lon="1.9205720">
        <ele>1989.7</ele>
        <time>2015-08-12T07:25:07Z</time>
      </trkpt>
      <trkpt lat="42.3239910" lon="1.9204640">
        <ele>1989.8</ele>
        <time>2015-08-12T07:25:08Z</time>
      </trkpt>
      <trkpt lat="42.3240040" lon="1.9203620">
        <ele>1990.3</ele>
        <time>2015-08-12T07:25:09Z</time>
      </trkpt>
      <trkpt lat="42.3240190" lon="1.9202560">
        <ele>1990.9</ele>
        <time>2015-08-12T07:25:10Z</time>
      </trkpt>
      <trkpt lat="42.3240240" lon="1.9201640">
        <ele>1991.8</ele>
        <time>2015-08-12T07:25:11Z</time>
      </trkpt>
      <trkpt lat="42.3240190" lon="1.9200530">
        <ele>1993.3</ele>
        <time>2015-08-12T07:25:12Z</time>
      </trkpt>
      <trkpt lat="42.3239890" lon="1.9199470">
        <ele>1996.0</ele>
        <time>2015-08-12T07:25:13Z</time>
      </trkpt>
      <trkpt lat="42.3239600" lon="1.9198300">
        <ele>1998.8</ele>
        <time>2015-08-12T07:25:14Z</time>
      </trkpt>
      <trkpt lat="42.3239530" lon="1.9197210">
        <ele>2000.5</ele>
        <time>2015-08-12T07:25:15Z</time>
      </trkpt>
      <trkpt lat="42.3239530" lon="1.9196040">
        <ele>2002.0</ele>
        <time>2015-08-12T07:25:16Z</time>
      </trkpt>
      <trkpt lat="42.3239310" lon="1.9194930">
        <ele>2005.0</ele>
        <time>2015-08-12T07:25:17Z</time>
      </trkpt>
      <trkpt lat="42.3239260" lon="1.9193890">
        <ele>2007.1</ele>
        <time>2015-08-12T07:25:18Z</time>
      </trkpt>
      <trkpt lat="42.3239000" lon="1.9192950">
        <ele>2010.0</ele>
        <time>2015-08-12T07:25:19Z</time>
      </trkpt>
      <trkpt lat="42.3238870" lon="1.9192040">
        <ele>2012.2</ele>
        <time>2015-08-12T07:25:20Z</time>
      </trkpt>
      <trkpt lat="42.3238770" lon="1.9191090">
        <ele>2014.3</ele>
        <time>2015-08-12T07:25:21Z</time>
      </trkpt>
      <trkpt lat="42.3239180" lon="1.9190120">
        <ele>2014.0</ele>
        <time>2015-08-12T07:25:22Z</time>
      </trkpt>
      <trkpt lat="42.3238920" lon="1.9188970">
        <ele>2017.2</ele>
        <time>2015-08-12T07:25:23Z</time>
      </trkpt>
      <trkpt lat="42.3238700" lon="1.9188050">
        <ele>2019.7</ele>
        <time>2015-08-12T07:25:24Z</time>
      </trkpt>
      <trkpt lat="42.3239060" lon="1.9188090">
        <ele>2018.1</ele>
        <time>2015-08-12T07:25:25Z</time>
      </trkpt>
      <trkpt lat="42.3239270" lon="1.9187750">
        <ele>2017.7</ele>
        <time>2015-08-12T07:25:26Z</time>
      </trkpt>
      <trkpt lat="42.3240040" lon="1.9187600">
        <ele>2014.5</ele>
        <time>2015-08-12T07:25:27Z</time>
      </trkpt>
      <trkpt lat="42.3240630" lon="1.9187490">
        <ele>2012.1</ele>
        <time>2015-08-12T07:25:28Z</time>
      </trkpt>
      <trkpt lat="42.3241060" lon="1.9187210">
        <ele>2011.1</ele>
        <time>2015-08-12T07:25:29Z</time>
      </trkpt>
      <trkpt lat="42.3241350" lon="1.9186900">
        <ele>2010.8</ele>
        <time>2015-08-12T07:25:30Z</time>
      </trkpt>
      <trkpt lat="42.3241860" lon="1.9186720">
        <ele>2009.2</ele>
        <time>2015-08-12T07:25:31Z</time>
      </trkpt>
      <trkpt lat="42.3242160" lon="1.9186360">
        <ele>2009.1</ele>
        <time>2015-08-12T07:25:32Z</time>
      </trkpt>
      <trkpt lat="42.3242310" lon="1.9185930">
        <ele>2009.8</ele>
        <time>2015-08-12T07:25:33Z</time>
      </trkpt>
      <trkpt lat="42.3242680" lon="1.9185630">
        <ele>2009.3</ele>
        <time>2015-08-12T07:25:34Z</time>
      </trkpt>
      <trkpt lat="42.3243030" lon="1.9185580">
        <ele>2008.0</ele>
        <time>2015-08-12T07:25:35Z</time>
      </trkpt>
      <trkpt lat="42.3243330" lon="1.9185510">
        <ele>2006.9</ele>
        <time>2015-08-12T07:25:36Z</time>
      </trkpt>
      <trkpt lat="42.3243800" lon="1.9185140">
        <ele>2006.3</ele>
        <time>2015-08-12T07:25:38Z</time>
      </trkpt>
      <trkpt lat="42.3244140" lon="1.9185240">
        <ele>2004.5</ele>
        <time>2015-08-12T07:25:39Z</time>
      </trkpt>
      <trkpt lat="42.3244430" lon="1.9185030">
        <ele>2004.0</ele>
        <time>2015-08-12T07:25:40Z</time>
      </trkpt>
      <trkpt lat="42.3244930" lon="1.9185040">
        <ele>2001.9</ele>
        <time>2015-08-12T07:25:41Z</time>
      </trkpt>
      <trkpt lat="42.3245350" lon="1.9185000">
        <ele>2000.3</ele>
        <time>2015-08-12T07:25:42Z</time>
      </trkpt>
      <trkpt lat="42.3245660" lon="1.9184690">
        <ele>2000.2</ele>
        <time>2015-08-12T07:25:43Z</time>
      </trkpt>
      <trkpt lat="42.3245980" lon="1.9184250">
        <ele>2000.5</ele>
        <time>2015-08-12T07:25:44Z</time>
      </trkpt>
      <trkpt lat="42.3246350" lon="1.9183920">
        <ele>2000.3</ele>
        <time>2015-08-12T07:25:45Z</time>
      </trkpt>
      <trkpt lat="42.3246650" lon="1.9183380">
        <ele>2001.1</ele>
        <time>2015-08-12T07:25:46Z</time>
      </trkpt>
      <trkpt lat="42.3246730" lon="1.9182700">
        <ele>2003.2</ele>
        <time>2015-08-12T07:25:47Z</time>
      </trkpt>
      <trkpt lat="42.3247090" lon="1.9182060">
        <ele>2004.1</ele>
        <time>2015-08-12T07:25:48Z</time>
      </trkpt>
      <trkpt lat="42.3247380" lon="1.9181480">
        <ele>2004.9</ele>
        <time>2015-08-12T07:25:49Z</time>
      </trkpt>
      <trkpt lat="42.3247610" lon="1.9180850">
        <ele>2006.2</ele>
        <time>2015-08-12T07:25:50Z</time>
      </trkpt>
      <trkpt lat="42.3247840" lon="1.9180340">
        <ele>2007.0</ele>
        <time>2015-08-12T07:25:51Z</time>
      </trkpt>
      <trkpt lat="42.3248160" lon="1.9179890">
        <ele>2007.2</ele>
        <time>2015-08-12T07:25:52Z</time>
      </trkpt>
      <trkpt lat="42.3248730" lon="1.9179280">
        <ele>2006.8</ele>
        <time>2015-08-12T07:25:53Z</time>
      </trkpt>
      <trkpt lat="42.3249170" lon="1.9179110">
        <ele>2005.4</ele>
        <time>2015-08-12T07:25:54Z</time>
      </trkpt>
      <trkpt lat="42.3249910" lon="1.9178880">
        <ele>2002.8</ele>
        <time>2015-08-12T07:25:55Z</time>
      </trkpt>
      <trkpt lat="42.3250850" lon="1.9178720">
        <ele>1999.1</ele>
        <time>2015-08-12T07:25:56Z</time>
      </trkpt>
      <trkpt lat="42.3251690" lon="1.9178510">
        <ele>1996.0</ele>
        <time>2015-08-12T07:25:57Z</time>
      </trkpt>
      <trkpt lat="42.3252540" lon="1.9178040">
        <ele>1993.6</ele>
        <time>2015-08-12T07:25:58Z</time>
      </trkpt>
      <trkpt lat="42.3253270" lon="1.9177920">
        <ele>1990.7</ele>
        <time>2015-08-12T07:25:59Z</time>
      </trkpt>
      <trkpt lat="42.3253830" lon="1.9177730">
        <ele>1988.7</ele>
        <time>2015-08-12T07:26:00Z</time>
      </trkpt>
      <trkpt lat="42.3254310" lon="1.9177540">
        <ele>1987.3</ele>
        <time>2015-08-12T07:26:01Z</time>
      </trkpt>
      <trkpt lat="42.3254150" lon="1.9177240">
        <ele>1988.6</ele>
        <time>2015-08-12T07:26:02Z</time>
      </trkpt>
      <trkpt lat="42.3254410" lon="1.9177120">
        <ele>1988.2</ele>
        <time>2015-08-12T07:26:03Z</time>
      </trkpt>
      <trkpt lat="42.3254810" lon="1.9176980">
        <ele>1987.6</ele>
        <time>2015-08-12T07:26:04Z</time>
      </trkpt>
      <trkpt lat="42.3255130" lon="1.9176820">
        <ele>1987.2</ele>
        <time>2015-08-12T07:26:05Z</time>
      </trkpt>
      <trkpt lat="42.3255490" lon="1.9176440">
        <ele>1987.3</ele>
        <time>2015-08-12T07:26:07Z</time>
      </trkpt>
      <trkpt lat="42.3255630" lon="1.9175650">
        <ele>1989.1</ele>
        <time>2015-08-12T07:26:10Z</time>
      </trkpt>
      <trkpt lat="42.3255700" lon="1.9175350">
        <ele>1989.8</ele>
        <time>2015-08-12T07:26:13Z</time>
      </trkpt>
      <trkpt lat="42.3255770" lon="1.9175050">
        <ele>1990.4</ele>
        <time>2015-08-12T07:27:07Z</time>
      </trkpt>
      <trkpt lat="42.3255840" lon="1.9174750">
        <ele>1991.1</ele>
        <time>2015-08-12T07:27:08Z</time>
      </trkpt>
      <trkpt lat="42.3256550" lon="1.9174200">
        <ele>1990.7</ele>
        <time>2015-08-12T07:27:10Z</time>
      </trkpt>
      <trkpt lat="42.3256850" lon="1.9173800">
        <ele>1991.0</ele>
        <time>2015-08-12T07:27:12Z</time>
      </trkpt>
      <trkpt lat="42.3256970" lon="1.9173170">
        <ele>1992.4</ele>
        <time>2015-08-12T07:27:14Z</time>
      </trkpt>
      <trkpt lat="42.3257280" lon="1.9172980">
        <ele>1992.0</ele>
        <time>2015-08-12T07:27:15Z</time>
      </trkpt>
      <trkpt lat="42.3257550" lon="1.9172320">
        <ele>1993.1</ele>
        <time>2015-08-12T07:27:17Z</time>
      </trkpt>
      <trkpt lat="42.3257550" lon="1.9171940">
        <ele>1994.2</ele>
        <time>2015-08-12T07:27:18Z</time>
      </trkpt>
      <trkpt lat="42.3257490" lon="1.9171130">
        <ele>1996.6</ele>
        <time>2015-08-12T07:27:20Z</time>
      </trkpt>
      <trkpt lat="42.3257750" lon="1.9170710">
        <ele>1997.0</ele>
        <time>2015-08-12T07:27:22Z</time>
      </trkpt>
      <trkpt lat="42.3258060" lon="1.9170200">
        <ele>1997.4</ele>
        <time>2015-08-12T07:27:24Z</time>
      </trkpt>
      <trkpt lat="42.3258560" lon="1.9169700">
        <ele>1997.3</ele>
        <time>2015-08-12T07:27:27Z</time>
      </trkpt>
      <trkpt lat="42.3258930" lon="1.9169350">
        <ele>1997.0</ele>
        <time>2015-08-12T07:27:29Z</time>
      </trkpt>
      <trkpt lat="42.3259250" lon="1.9169290">
        <ele>1996.2</ele>
        <time>2015-08-12T07:27:30Z</time>
      </trkpt>
      <trkpt lat="42.3259580" lon="1.9169330">
        <ele>1995.2</ele>
        <time>2015-08-12T07:27:32Z</time>
      </trkpt>
      <trkpt lat="42.3259930" lon="1.9169190">
        <ele>1994.5</ele>
        <time>2015-08-12T07:27:35Z</time>
      </trkpt>
      <trkpt lat="42.3260320" lon="1.9169380">
        <ele>1992.8</ele>
        <time>2015-08-12T07:27:37Z</time>
      </trkpt>
      <trkpt lat="42.3260870" lon="1.9169950">
        <ele>1989.8</ele>
        <time>2015-08-12T07:27:39Z</time>
      </trkpt>
      <trkpt lat="42.3261350" lon="1.9170290">
        <ele>1987.6</ele>
        <time>2015-08-12T07:27:40Z</time>
      </trkpt>
      <trkpt lat="42.3261830" lon="1.9170440">
        <ele>1985.8</ele>
        <time>2015-08-12T07:27:41Z</time>
      </trkpt>
      <trkpt lat="42.3262240" lon="1.9170580">
        <ele>1984.3</ele>
        <time>2015-08-12T07:27:43Z</time>
      </trkpt>
      <trkpt lat="42.3262530" lon="1.9170880">
        <ele>1982.9</ele>
        <time>2015-08-12T07:27:44Z</time>
      </trkpt>
      <trkpt lat="42.3262960" lon="1.9171110">
        <ele>1982.5</ele>
        <time>2015-08-12T07:27:45Z</time>
      </trkpt>
      <trkpt lat="42.3263200" lon="1.9171470">
        <ele>1981.6</ele>
        <time>2015-08-12T07:27:46Z</time>
      </trkpt>
      <trkpt lat="42.3263390" lon="1.9171890">
        <ele>1980.6</ele>
        <time>2015-08-12T07:27:47Z</time>
      </trkpt>
      <trkpt lat="42.3263620" lon="1.9172120">
        <ele>1980.1</ele>
        <time>2015-08-12T07:27:48Z</time>
      </trkpt>
      <trkpt lat="42.3264010" lon="1.9172560">
        <ele>1979.1</ele>
        <time>2015-08-12T07:27:49Z</time>
      </trkpt>
      <trkpt lat="42.3264200" lon="1.9173100">
        <ele>1977.8</ele>
        <time>2015-08-12T07:27:51Z</time>
      </trkpt>
      <trkpt lat="42.3264450" lon="1.9173480">
        <ele>1976.9</ele>
        <time>2015-08-12T07:27:52Z</time>
      </trkpt>
      <trkpt lat="42.3264660" lon="1.9173800">
        <ele>1976.1</ele>
        <time>2015-08-12T07:27:53Z</time>
      </trkpt>
      <trkpt lat="42.3264870" lon="1.9174130">
        <ele>1975.3</ele>
        <time>2015-08-12T07:27:54Z</time>
      </trkpt>
      <trkpt lat="42.3265140" lon="1.9174850">
        <ele>1973.5</ele>
        <time>2015-08-12T07:27:56Z</time>
      </trkpt>
      <trkpt lat="42.3265320" lon="1.9175220">
        <ele>1972.6</ele>
        <time>2015-08-12T07:27:57Z</time>
      </trkpt>
      <trkpt lat="42.3265620" lon="1.9175480">
        <ele>1972.0</ele>
        <time>2015-08-12T07:27:58Z</time>
      </trkpt>
      <trkpt lat="42.3265850" lon="1.9175820">
        <ele>1971.2</ele>
        <time>2015-08-12T07:27:59Z</time>
      </trkpt>
      <trkpt lat="42.3266090" lon="1.9176280">
        <ele>1970.1</ele>
        <time>2015-08-12T07:28:00Z</time>
      </trkpt>
      <trkpt lat="42.3266420" lon="1.9176400">
        <ele>1969.9</ele>
        <time>2015-08-12T07:28:01Z</time>
      </trkpt>
      <trkpt lat="42.3267160" lon="1.9175830">
        <ele>1971.7</ele>
        <time>2015-08-12T07:28:02Z</time>
      </trkpt>
      <trkpt lat="42.3267580" lon="1.9175770">
        <ele>1972.0</ele>
        <time>2015-08-12T07:28:03Z</time>
      </trkpt>
      <trkpt lat="42.3268030" lon="1.9175640">
        <ele>1972.6</ele>
        <time>2015-08-12T07:28:04Z</time>
      </trkpt>
      <trkpt lat="42.3268440" lon="1.9175260">
        <ele>1973.8</ele>
        <time>2015-08-12T07:28:05Z</time>
      </trkpt>
      <trkpt lat="42.3268870" lon="1.9175040">
        <ele>1974.6</ele>
        <time>2015-08-12T07:28:06Z</time>
      </trkpt>
      <trkpt lat="42.3269240" lon="1.9174730">
        <ele>1975.6</ele>
        <time>2015-08-12T07:28:07Z</time>
      </trkpt>
      <trkpt lat="42.3269610" lon="1.9174600">
        <ele>1976.1</ele>
        <time>2015-08-12T07:28:08Z</time>
      </trkpt>
      <trkpt lat="42.3269810" lon="1.9174320">
        <ele>1976.9</ele>
        <time>2015-08-12T07:28:09Z</time>
      </trkpt>
      <trkpt lat="42.3270180" lon="1.9174120">
        <ele>1977.6</ele>
        <time>2015-08-12T07:28:10Z</time>
      </trkpt>
      <trkpt lat="42.3270540" lon="1.9173910">
        <ele>1978.4</ele>
        <time>2015-08-12T07:28:11Z</time>
      </trkpt>
      <trkpt lat="42.3271140" lon="1.9173650">
        <ele>1978.7</ele>
        <time>2015-08-12T07:28:12Z</time>
      </trkpt>
      <trkpt lat="42.3271540" lon="1.9173160">
        <ele>1979.3</ele>
        <time>2015-08-12T07:28:14Z</time>
      </trkpt>
      <trkpt lat="42.3271810" lon="1.9172710">
        <ele>1980.1</ele>
        <time>2015-08-12T07:28:15Z</time>
      </trkpt>
      <trkpt lat="42.3272150" lon="1.9172300">
        <ele>1980.7</ele>
        <time>2015-08-12T07:28:16Z</time>
      </trkpt>
      <trkpt lat="42.3272460" lon="1.9172040">
        <ele>1981.0</ele>
        <time>2015-08-12T07:28:17Z</time>
      </trkpt>
      <trkpt lat="42.3273040" lon="1.9171670">
        <ele>1981.1</ele>
        <time>2015-08-12T07:28:18Z</time>
      </trkpt>
      <trkpt lat="42.3273380" lon="1.9171430">
        <ele>1981.2</ele>
        <time>2015-08-12T07:28:19Z</time>
      </trkpt>
      <trkpt lat="42.3273940" lon="1.9170560">
        <ele>1983.0</ele>
        <time>2015-08-12T07:28:20Z</time>
      </trkpt>
      <trkpt lat="42.3274280" lon="1.9169980">
        <ele>1984.3</ele>
        <time>2015-08-12T07:28:21Z</time>
      </trkpt>
      <trkpt lat="42.3274640" lon="1.9169390">
        <ele>1985.6</ele>
        <time>2015-08-12T07:28:22Z</time>
      </trkpt>
      <trkpt lat="42.3275420" lon="1.9168590">
        <ele>1987.3</ele>
        <time>2015-08-12T07:28:23Z</time>
      </trkpt>
      <trkpt lat="42.3276310" lon="1.9168100">
        <ele>1988.0</ele>
        <time>2015-08-12T07:28:24Z</time>
      </trkpt>
      <trkpt lat="42.3276990" lon="1.9167550">
        <ele>1989.4</ele>
        <time>2015-08-12T07:28:25Z</time>
      </trkpt>
      <trkpt lat="42.3277620" lon="1.9167100">
        <ele>1990.5</ele>
        <time>2015-08-12T07:28:26Z</time>
      </trkpt>
      <trkpt lat="42.3278140" lon="1.9167010">
        <ele>1990.4</ele>
        <time>2015-08-12T07:28:27Z</time>
      </trkpt>
      <trkpt lat="42.3278800" lon="1.9167190">
        <ele>1989.2</ele>
        <time>2015-08-12T07:28:28Z</time>
      </trkpt>
      <trkpt lat="42.3279300" lon="1.9167580">
        <ele>1987.1</ele>
        <time>2015-08-12T07:28:29Z</time>
      </trkpt>
      <trkpt lat="42.3279960" lon="1.9168200">
        <ele>1983.7</ele>
        <time>2015-08-12T07:28:30Z</time>
      </trkpt>
      <trkpt lat="42.3280330" lon="1.9168760">
        <ele>1981.0</ele>
        <time>2015-08-12T07:28:31Z</time>
      </trkpt>
      <trkpt lat="42.3280620" lon="1.9169380">
        <ele>1978.2</ele>
        <time>2015-08-12T07:28:32Z</time>
      </trkpt>
      <trkpt lat="42.3281090" lon="1.9169750">
        <ele>1976.3</ele>
        <time>2015-08-12T07:28:33Z</time>
      </trkpt>
      <trkpt lat="42.3281450" lon="1.9169960">
        <ele>1975.1</ele>
        <time>2015-08-12T07:28:34Z</time>
      </trkpt>
      <trkpt lat="42.3281980" lon="1.9170210">
        <ele>1973.6</ele>
        <time>2015-08-12T07:28:35Z</time>
      </trkpt>
      <trkpt lat="42.3282870" lon="1.9170320">
        <ele>1972.3</ele>
        <time>2015-08-12T07:28:37Z</time>
      </trkpt>
      <trkpt lat="42.3283440" lon="1.9170420">
        <ele>1971.3</ele>
        <time>2015-08-12T07:28:38Z</time>
      </trkpt>
      <trkpt lat="42.3283950" lon="1.9170420">
        <ele>1970.8</ele>
        <time>2015-08-12T07:28:39Z</time>
      </trkpt>
      <trkpt lat="42.3284430" lon="1.9170510">
        <ele>1970.0</ele>
        <time>2015-08-12T07:28:40Z</time>
      </trkpt>
      <trkpt lat="42.3285070" lon="1.9170620">
        <ele>1969.0</ele>
        <time>2015-08-12T07:28:41Z</time>
      </trkpt>
      <trkpt lat="42.3285660" lon="1.9170500">
        <ele>1968.8</ele>
        <time>2015-08-12T07:28:42Z</time>
      </trkpt>
      <trkpt lat="42.3286310" lon="1.9170360">
        <ele>1968.6</ele>
        <time>2015-08-12T07:28:43Z</time>
      </trkpt>
      <trkpt lat="42.3286740" lon="1.9170160">
        <ele>1968.7</ele>
        <time>2015-08-12T07:28:44Z</time>
      </trkpt>
      <trkpt lat="42.3287250" lon="1.9170080">
        <ele>1968.4</ele>
        <time>2015-08-12T07:28:45Z</time>
      </trkpt>
      <trkpt lat="42.3287640" lon="1.9169920">
        <ele>1968.7</ele>
        <time>2015-08-12T07:28:46Z</time>
      </trkpt>
      <trkpt lat="42.3287960" lon="1.9169990">
        <ele>1968.5</ele>
        <time>2015-08-12T07:28:47Z</time>
      </trkpt>
      <trkpt lat="42.3288300" lon="1.9169970">
        <ele>1968.7</ele>
        <time>2015-08-12T07:28:48Z</time>
      </trkpt>
      <trkpt lat="42.3288620" lon="1.9170070">
        <ele>1968.5</ele>
        <time>2015-08-12T07:28:49Z</time>
      </trkpt>
      <trkpt lat="42.3288980" lon="1.9170020">
        <ele>1968.7</ele>
        <time>2015-08-12T07:28:50Z</time>
      </trkpt>
      <trkpt lat="42.3289250" lon="1.9169890">
        <ele>1969.2</ele>
        <time>2015-08-12T07:28:51Z</time>
      </trkpt>
      <trkpt lat="42.3289940" lon="1.9170170">
        <ele>1968.5</ele>
        <time>2015-08-12T07:28:53Z</time>
      </trkpt>
      <trkpt lat="42.3290350" lon="1.9170280">
        <ele>1968.3</ele>
        <time>2015-08-12T07:28:54Z</time>
      </trkpt>
      <trkpt lat="42.3290680" lon="1.9170300">
        <ele>1968.3</ele>
        <time>2015-08-12T07:28:55Z</time>
      </trkpt>
      <trkpt lat="42.3291120" lon="1.9170250">
        <ele>1968.6</ele>
        <time>2015-08-12T07:28:56Z</time>
      </trkpt>
      <trkpt lat="42.3291590" lon="1.9170190">
        <ele>1968.9</ele>
        <time>2015-08-12T07:28:57Z</time>
      </trkpt>
      <trkpt lat="42.3292100" lon="1.9170270">
        <ele>1968.8</ele>
        <time>2015-08-12T07:28:58Z</time>
      </trkpt>
      <trkpt lat="42.3292480" lon="1.9170360">
        <ele>1968.6</ele>
        <time>2015-08-12T07:28:59Z</time>
      </trkpt>
      <trkpt lat="42.3293090" lon="1.9170590">
        <ele>1968.1</ele>
        <time>2015-08-12T07:29:00Z</time>
      </trkpt>
      <trkpt lat="42.3293580" lon="1.9170760">
        <ele>1967.7</ele>
        <time>2015-08-12T07:29:01Z</time>
      </trkpt>
      <trkpt lat="42.3294040" lon="1.9170980">
        <ele>1967.1</ele>
        <time>2015-08-12T07:29:02Z</time>
      </trkpt>
      <trkpt lat="42.3294390" lon="1.9171250">
        <ele>1966.3</ele>
        <time>2015-08-12T07:29:03Z</time>
      </trkpt>
      <trkpt lat="42.3294770" lon="1.9171820">
        <ele>1964.5</ele>
        <time>2015-08-12T07:29:04Z</time>
      </trkpt>
      <trkpt lat="42.3294910" lon="1.9172200">
        <ele>1963.3</ele>
        <time>2015-08-12T07:29:05Z</time>
      </trkpt>
      <trkpt lat="42.3295210" lon="1.9172950">
        <ele>1960.9</ele>
        <time>2015-08-12T07:29:07Z</time>
      </trkpt>
      <trkpt lat="42.3296060" lon="1.9173470">
        <ele>1960.1</ele>
        <time>2015-08-12T07:29:08Z</time>
      </trkpt>
      <trkpt lat="42.3296480" lon="1.9173920">
        <ele>1959.7</ele>
        <time>2015-08-12T07:29:09Z</time>
      </trkpt>
      <trkpt lat="42.3296810" lon="1.9174320">
        <ele>1959.3</ele>
        <time>2015-08-12T07:29:10Z</time>
      </trkpt>
      <trkpt lat="42.3297100" lon="1.9174740">
        <ele>1958.6</ele>
        <time>2015-08-12T07:29:11Z</time>
      </trkpt>
      <trkpt lat="42.3297580" lon="1.9175170">
        <ele>1958.4</ele>
        <time>2015-08-12T07:29:12Z</time>
      </trkpt>
      <trkpt lat="42.3298110" lon="1.9175150">
        <ele>1959.9</ele>
        <time>2015-08-12T07:29:13Z</time>
      </trkpt>
      <trkpt lat="42.3298460" lon="1.9175430">
        <ele>1959.8</ele>
        <time>2015-08-12T07:29:14Z</time>
      </trkpt>
      <trkpt lat="42.3298860" lon="1.9175990">
        <ele>1958.9</ele>
        <time>2015-08-12T07:29:16Z</time>
      </trkpt>
      <trkpt lat="42.3299260" lon="1.9176240">
        <ele>1959.0</ele>
        <time>2015-08-12T07:29:18Z</time>
      </trkpt>
      <trkpt lat="42.3299630" lon="1.9176540">
        <ele>1958.9</ele>
        <time>2015-08-12T07:29:20Z</time>
      </trkpt>
      <trkpt lat="42.3299890" lon="1.9176740">
        <ele>1958.8</ele>
        <time>2015-08-12T07:29:21Z</time>
      </trkpt>
      <trkpt lat="42.3300280" lon="1.9176970">
        <ele>1959.0</ele>
        <time>2015-08-12T07:29:23Z</time>
      </trkpt>
      <trkpt lat="42.3300600" lon="1.9176980">
        <ele>1959.7</ele>
        <time>2015-08-12T07:29:24Z</time>
      </trkpt>
      <trkpt lat="42.3300960" lon="1.9177160">
        <ele>1959.9</ele>
        <time>2015-08-12T07:29:25Z</time>
      </trkpt>
      <trkpt lat="42.3301240" lon="1.9177190">
        <ele>1960.5</ele>
        <time>2015-08-12T07:29:26Z</time>
      </trkpt>
      <trkpt lat="42.3301540" lon="1.9177250">
        <ele>1961.0</ele>
        <time>2015-08-12T07:29:27Z</time>
      </trkpt>
      <trkpt lat="42.3301870" lon="1.9177150">
        <ele>1962.2</ele>
        <time>2015-08-12T07:29:28Z</time>
      </trkpt>
      <trkpt lat="42.3302190" lon="1.9177310">
        <ele>1962.4</ele>
        <time>2015-08-12T07:29:29Z</time>
      </trkpt>
      <trkpt lat="42.3302530" lon="1.9177410">
        <ele>1962.8</ele>
        <time>2015-08-12T07:29:30Z</time>
      </trkpt>
      <trkpt lat="42.3302940" lon="1.9177780">
        <ele>1962.4</ele>
        <time>2015-08-12T07:29:32Z</time>
      </trkpt>
      <trkpt lat="42.3303250" lon="1.9178050">
        <ele>1962.1</ele>
        <time>2015-08-12T07:29:33Z</time>
      </trkpt>
      <trkpt lat="42.3303440" lon="1.9178350">
        <ele>1961.4</ele>
        <time>2015-08-12T07:29:34Z</time>
      </trkpt>
      <trkpt lat="42.3303730" lon="1.9178540">
        <ele>1961.4</ele>
        <time>2015-08-12T07:29:35Z</time>
      </trkpt>
      <trkpt lat="42.3303930" lon="1.9178810">
        <ele>1960.8</ele>
        <time>2015-08-12T07:29:36Z</time>
      </trkpt>
      <trkpt lat="42.3304180" lon="1.9179200">
        <ele>1959.9</ele>
        <time>2015-08-12T07:29:38Z</time>
      </trkpt>
      <trkpt lat="42.3304460" lon="1.9179540">
        <ele>1959.2</ele>
        <time>2015-08-12T07:29:40Z</time>
      </trkpt>
      <trkpt lat="42.3304710" lon="1.9179800">
        <ele>1958.7</ele>
        <time>2015-08-12T07:29:42Z</time>
      </trkpt>
      <trkpt lat="42.3304970" lon="1.9180190">
        <ele>1957.8</ele>
        <time>2015-08-12T07:29:44Z</time>
      </trkpt>
      <trkpt lat="42.3305270" lon="1.9180650">
        <ele>1956.8</ele>
        <time>2015-08-12T07:29:46Z</time>
      </trkpt>
      <trkpt lat="42.3305510" lon="1.9180820">
        <ele>1956.7</ele>
        <time>2015-08-12T07:29:47Z</time>
      </trkpt>
      <trkpt lat="42.3305730" lon="1.9181120">
        <ele>1956.0</ele>
        <time>2015-08-12T07:29:48Z</time>
      </trkpt>
      <trkpt lat="42.3306090" lon="1.9181280">
        <ele>1956.2</ele>
        <time>2015-08-12T07:29:50Z</time>
      </trkpt>
      <trkpt lat="42.3306390" lon="1.9181570">
        <ele>1955.8</ele>
        <time>2015-08-12T07:29:52Z</time>
      </trkpt>
      <trkpt lat="42.3306680" lon="1.9181780">
        <ele>1955.6</ele>
        <time>2015-08-12T07:29:54Z</time>
      </trkpt>
      <trkpt lat="42.3307050" lon="1.9181890">
        <ele>1955.9</ele>
        <time>2015-08-12T07:29:57Z</time>
      </trkpt>
      <trkpt lat="42.3307400" lon="1.9182020">
        <ele>1956.2</ele>
        <time>2015-08-12T07:29:59Z</time>
      </trkpt>
      <trkpt lat="42.3307760" lon="1.9182290">
        <ele>1956.0</ele>
        <time>2015-08-12T07:30:02Z</time>
      </trkpt>
      <trkpt lat="42.3307950" lon="1.9182640">
        <ele>1955.2</ele>
        <time>2015-08-12T07:30:05Z</time>
      </trkpt>
      <trkpt lat="42.3308240" lon="1.9182900">
        <ele>1954.9</ele>
        <time>2015-08-12T07:30:07Z</time>
      </trkpt>
      <trkpt lat="42.3308490" lon="1.9183050">
        <ele>1955.0</ele>
        <time>2015-08-12T07:30:10Z</time>
      </trkpt>
      <trkpt lat="42.3308770" lon="1.9183180">
        <ele>1955.1</ele>
        <time>2015-08-12T07:30:12Z</time>
      </trkpt>
      <trkpt lat="42.3308940" lon="1.9183520">
        <ele>1954.4</ele>
        <time>2015-08-12T07:30:49Z</time>
      </trkpt>
      <trkpt lat="42.3309170" lon="1.9183790">
        <ele>1954.0</ele>
        <time>2015-08-12T07:31:01Z</time>
      </trkpt>
      <trkpt lat="42.3309460" lon="1.9184080">
        <ele>1953.7</ele>
        <time>2015-08-12T07:31:04Z</time>
      </trkpt>
      <trkpt lat="42.3309610" lon="1.9184400">
        <ele>1953.0</ele>
        <time>2015-08-12T07:31:05Z</time>
      </trkpt>
      <trkpt lat="42.3309920" lon="1.9184960">
        <ele>1951.9</ele>
        <time>2015-08-12T07:31:07Z</time>
      </trkpt>
      <trkpt lat="42.3310160" lon="1.9185280">
        <ele>1951.4</ele>
        <time>2015-08-12T07:31:09Z</time>
      </trkpt>
      <trkpt lat="42.3310420" lon="1.9185760">
        <ele>1950.5</ele>
        <time>2015-08-12T07:31:11Z</time>
      </trkpt>
      <trkpt lat="42.3310700" lon="1.9185890">
        <ele>1950.7</ele>
        <time>2015-08-12T07:31:12Z</time>
      </trkpt>
      <trkpt lat="42.3311040" lon="1.9186290">
        <ele>1950.3</ele>
        <time>2015-08-12T07:31:14Z</time>
      </trkpt>
      <trkpt lat="42.3311340" lon="1.9186540">
        <ele>1950.2</ele>
        <time>2015-08-12T07:31:16Z</time>
      </trkpt>
      <trkpt lat="42.3312090" lon="1.9186870">
        <ele>1950.9</ele>
        <time>2015-08-12T07:31:19Z</time>
      </trkpt>
      <trkpt lat="42.3312490" lon="1.9186880">
        <ele>1951.8</ele>
        <time>2015-08-12T07:31:21Z</time>
      </trkpt>
      <trkpt lat="42.3312840" lon="1.9186990">
        <ele>1951.6</ele>
        <time>2015-08-12T07:31:22Z</time>
      </trkpt>
      <trkpt lat="42.3313300" lon="1.9186950">
        <ele>1952.0</ele>
        <time>2015-08-12T07:31:24Z</time>
      </trkpt>
      <trkpt lat="42.3313650" lon="1.9187000">
        <ele>1952.0</ele>
        <time>2015-08-12T07:31:25Z</time>
      </trkpt>
      <trkpt lat="42.3314080" lon="1.9186880">
        <ele>1952.5</ele>
        <time>2015-08-12T07:31:27Z</time>
      </trkpt>
      <trkpt lat="42.3314400" lon="1.9186850">
        <ele>1952.8</ele>
        <time>2015-08-12T07:31:28Z</time>
      </trkpt>
      <trkpt lat="42.3314720" lon="1.9186650">
        <ele>1953.5</ele>
        <time>2015-08-12T07:31:29Z</time>
      </trkpt>
      <trkpt lat="42.3315150" lon="1.9186370">
        <ele>1954.5</ele>
        <time>2015-08-12T07:31:31Z</time>
      </trkpt>
      <trkpt lat="42.3315520" lon="1.9186070">
        <ele>1955.6</ele>
        <time>2015-08-12T07:31:33Z</time>
      </trkpt>
      <trkpt lat="42.3315930" lon="1.9185680">
        <ele>1956.9</ele>
        <time>2015-08-12T07:31:35Z</time>
      </trkpt>
      <trkpt lat="42.3316330" lon="1.9185620">
        <ele>1957.3</ele>
        <time>2015-08-12T07:31:37Z</time>
      </trkpt>
      <trkpt lat="42.3316670" lon="1.9185310">
        <ele>1958.3</ele>
        <time>2015-08-12T07:31:40Z</time>
      </trkpt>
      <trkpt lat="42.3316990" lon="1.9184950">
        <ele>1959.5</ele>
        <time>2015-08-12T07:31:42Z</time>
      </trkpt>
      <trkpt lat="42.3317240" lon="1.9184760">
        <ele>1960.2</ele>
        <time>2015-08-12T07:31:44Z</time>
      </trkpt>
      <trkpt lat="42.3317540" lon="1.9184170">
        <ele>1962.0</ele>
        <time>2015-08-12T07:31:46Z</time>
      </trkpt>
      <trkpt lat="42.3317810" lon="1.9183650">
        <ele>1963.6</ele>
        <time>2015-08-12T07:31:48Z</time>
      </trkpt>
      <trkpt lat="42.3318160" lon="1.9183220">
        <ele>1965.0</ele>
        <time>2015-08-12T07:31:50Z</time>
      </trkpt>
      <trkpt lat="42.3318390" lon="1.9182930">
        <ele>1966.0</ele>
        <time>2015-08-12T07:31:51Z</time>
      </trkpt>
      <trkpt lat="42.3318620" lon="1.9182710">
        <ele>1966.7</ele>
        <time>2015-08-12T07:31:52Z</time>
      </trkpt>
      <trkpt lat="42.3318880" lon="1.9182550">
        <ele>1967.3</ele>
        <time>2015-08-12T07:31:53Z</time>
      </trkpt>
      <trkpt lat="42.3319020" lon="1.9182150">
        <ele>1968.5</ele>
        <time>2015-08-12T07:31:54Z</time>
      </trkpt>
      <trkpt lat="42.3319240" lon="1.9181850">
        <ele>1969.5</ele>
        <time>2015-08-12T07:31:55Z</time>
      </trkpt>
      <trkpt lat="42.3319480" lon="1.9181580">
        <ele>1970.4</ele>
        <time>2015-08-12T07:31:56Z</time>
      </trkpt>
      <trkpt lat="42.3319730" lon="1.9181380">
        <ele>1971.1</ele>
        <time>2015-08-12T07:31:57Z</time>
      </trkpt>
      <trkpt lat="42.3320000" lon="1.9181140">
        <ele>1971.9</ele>
        <time>2015-08-12T07:31:58Z</time>
      </trkpt>
      <trkpt lat="42.3320250" lon="1.9180880">
        <ele>1972.8</ele>
        <time>2015-08-12T07:31:59Z</time>
      </trkpt>
      <trkpt lat="42.3320650" lon="1.9180380">
        <ele>1974.4</ele>
        <time>2015-08-12T07:32:01Z</time>
      </trkpt>
      <trkpt lat="42.3320980" lon="1.9180140">
        <ele>1974.9</ele>
        <time>2015-08-12T07:32:03Z</time>
      </trkpt>
      <trkpt lat="42.3321330" lon="1.9179560">
        <ele>1975.7</ele>
        <time>2015-08-12T07:32:05Z</time>
      </trkpt>
      <trkpt lat="42.3321640" lon="1.9179320">
        <ele>1975.7</ele>
        <time>2015-08-12T07:32:06Z</time>
      </trkpt>
      <trkpt lat="42.3321920" lon="1.9179060">
        <ele>1975.8</ele>
        <time>2015-08-12T07:32:07Z</time>
      </trkpt>
      <trkpt lat="42.3322140" lon="1.9178850">
        <ele>1976.0</ele>
        <time>2015-08-12T07:32:08Z</time>
      </trkpt>
      <trkpt lat="42.3322390" lon="1.9178640">
        <ele>1976.0</ele>
        <time>2015-08-12T07:32:09Z</time>
      </trkpt>
      <trkpt lat="42.3322820" lon="1.9178320">
        <ele>1976.0</ele>
        <time>2015-08-12T07:32:11Z</time>
      </trkpt>
      <trkpt lat="42.3323150" lon="1.9177980">
        <ele>1976.2</ele>
        <time>2015-08-12T07:32:13Z</time>
      </trkpt>
      <trkpt lat="42.3323610" lon="1.9177960">
        <ele>1975.2</ele>
        <time>2015-08-12T07:32:15Z</time>
      </trkpt>
      <trkpt lat="42.3324100" lon="1.9177530">
        <ele>1975.3</ele>
        <time>2015-08-12T07:32:17Z</time>
      </trkpt>
      <trkpt lat="42.3324570" lon="1.9177130">
        <ele>1975.3</ele>
        <time>2015-08-12T07:32:18Z</time>
      </trkpt>
      <trkpt lat="42.3324940" lon="1.9176510">
        <ele>1976.1</ele>
        <time>2015-08-12T07:32:19Z</time>
      </trkpt>
      <trkpt lat="42.3325700" lon="1.9176600">
        <ele>1974.0</ele>
        <time>2015-08-12T07:32:20Z</time>
      </trkpt>
      <trkpt lat="42.3326000" lon="1.9176330">
        <ele>1974.0</ele>
        <time>2015-08-12T07:32:21Z</time>
      </trkpt>
      <trkpt lat="42.3325730" lon="1.9175710">
        <ele>1976.4</ele>
        <time>2015-08-12T07:32:22Z</time>
      </trkpt>
      <trkpt lat="42.3326080" lon="1.9175170">
        <ele>1977.0</ele>
        <time>2015-08-12T07:32:23Z</time>
      </trkpt>
      <trkpt lat="42.3326020" lon="1.9174670">
        <ele>1978.5</ele>
        <time>2015-08-12T07:32:24Z</time>
      </trkpt>
      <trkpt lat="42.3326010" lon="1.9174010">
        <ele>1980.4</ele>
        <time>2015-08-12T07:32:26Z</time>
      </trkpt>
      <trkpt lat="42.3326350" lon="1.9173460">
        <ele>1981.0</ele>
        <time>2015-08-12T07:32:28Z</time>
      </trkpt>
      <trkpt lat="42.3326730" lon="1.9173390">
        <ele>1980.1</ele>
        <time>2015-08-12T07:32:29Z</time>
      </trkpt>
      <trkpt lat="42.3327070" lon="1.9173140">
        <ele>1979.9</ele>
        <time>2015-08-12T07:32:30Z</time>
      </trkpt>
      <trkpt lat="42.3327410" lon="1.9172900">
        <ele>1979.6</ele>
        <time>2015-08-12T07:32:31Z</time>
      </trkpt>
      <trkpt lat="42.3327760" lon="1.9172760">
        <ele>1979.0</ele>
        <time>2015-08-12T07:32:32Z</time>
      </trkpt>
      <trkpt lat="42.3328050" lon="1.9172640">
        <ele>1978.5</ele>
        <time>2015-08-12T07:32:33Z</time>
      </trkpt>
      <trkpt lat="42.3328390" lon="1.9172540">
        <ele>1977.8</ele>
        <time>2015-08-12T07:32:34Z</time>
      </trkpt>
      <trkpt lat="42.3327920" lon="1.9171730">
        <ele>1981.3</ele>
        <time>2015-08-12T07:32:35Z</time>
      </trkpt>
      <trkpt lat="42.3327990" lon="1.9171210">
        <ele>1982.4</ele>
        <time>2015-08-12T07:32:37Z</time>
      </trkpt>
      <trkpt lat="42.3328180" lon="1.9170860">
        <ele>1982.8</ele>
        <time>2015-08-12T07:32:38Z</time>
      </trkpt>
      <trkpt lat="42.3327740" lon="1.9170430">
        <ele>1985.5</ele>
        <time>2015-08-12T07:32:39Z</time>
      </trkpt>
      <trkpt lat="42.3327480" lon="1.9169650">
        <ele>1988.9</ele>
        <time>2015-08-12T07:32:41Z</time>
      </trkpt>
      <trkpt lat="42.3328150" lon="1.9169510">
        <ele>1987.4</ele>
        <time>2015-08-12T07:32:42Z</time>
      </trkpt>
      <trkpt lat="42.3328330" lon="1.9169080">
        <ele>1988.3</ele>
        <time>2015-08-12T07:32:43Z</time>
      </trkpt>
      <trkpt lat="42.3328840" lon="1.9168500">
        <ele>1988.8</ele>
        <time>2015-08-12T07:32:45Z</time>
      </trkpt>
      <trkpt lat="42.3329220" lon="1.9167950">
        <ele>1989.5</ele>
        <time>2015-08-12T07:32:47Z</time>
      </trkpt>
      <trkpt lat="42.3329420" lon="1.9167690">
        <ele>1989.9</ele>
        <time>2015-08-12T07:32:48Z</time>
      </trkpt>
      <trkpt lat="42.3329710" lon="1.9167470">
        <ele>1989.8</ele>
        <time>2015-08-12T07:32:49Z</time>
      </trkpt>
      <trkpt lat="42.3330200" lon="1.9167010">
        <ele>1990.0</ele>
        <time>2015-08-12T07:32:51Z</time>
      </trkpt>
      <trkpt lat="42.3330420" lon="1.9166780">
        <ele>1990.2</ele>
        <time>2015-08-12T07:32:52Z</time>
      </trkpt>
      <trkpt lat="42.3330600" lon="1.9166500">
        <ele>1990.6</ele>
        <time>2015-08-12T07:32:53Z</time>
      </trkpt>
      <trkpt lat="42.3331090" lon="1.9166510">
        <ele>1989.2</ele>
        <time>2015-08-12T07:32:55Z</time>
      </trkpt>
      <trkpt lat="42.3331420" lon="1.9166350">
        <ele>1988.9</ele>
        <time>2015-08-12T07:32:57Z</time>
      </trkpt>
      <trkpt lat="42.3331850" lon="1.9166240">
        <ele>1988.1</ele>
        <time>2015-08-12T07:32:59Z</time>
      </trkpt>
      <trkpt lat="42.3332310" lon="1.9165950">
        <ele>1987.8</ele>
        <time>2015-08-12T07:33:01Z</time>
      </trkpt>
      <trkpt lat="42.3332810" lon="1.9165910">
        <ele>1986.6</ele>
        <time>2015-08-12T07:33:03Z</time>
      </trkpt>
      <trkpt lat="42.3332830" lon="1.9165490">
        <ele>1988.0</ele>
        <time>2015-08-12T07:33:06Z</time>
      </trkpt>
      <trkpt lat="42.3333170" lon="1.9165220">
        <ele>1988.0</ele>
        <time>2015-08-12T07:33:07Z</time>
      </trkpt>
      <trkpt lat="42.3332910" lon="1.9164970">
        <ele>1989.6</ele>
        <time>2015-08-12T07:33:08Z</time>
      </trkpt>
      <trkpt lat="42.3333250" lon="1.9164420">
        <ele>1990.5</ele>
        <time>2015-08-12T07:33:11Z</time>
      </trkpt>
      <trkpt lat="42.3333450" lon="1.9164210">
        <ele>1990.7</ele>
        <time>2015-08-12T07:33:13Z</time>
      </trkpt>
      <trkpt lat="42.3333640" lon="1.9164000">
        <ele>1991.0</ele>
        <time>2015-08-12T07:33:15Z</time>
      </trkpt>
      <trkpt lat="42.3333830" lon="1.9163790">
        <ele>1991.2</ele>
        <time>2015-08-12T07:33:16Z</time>
      </trkpt>
      <trkpt lat="42.3334150" lon="1.9163450">
        <ele>1991.5</ele>
        <time>2015-08-12T07:33:18Z</time>
      </trkpt>
      <trkpt lat="42.3334530" lon="1.9163240">
        <ele>1991.2</ele>
        <time>2015-08-12T07:33:21Z</time>
      </trkpt>
      <trkpt lat="42.3334820" lon="1.9163210">
        <ele>1990.6</ele>
        <time>2015-08-12T07:33:22Z</time>
      </trkpt>
      <trkpt lat="42.3334820" lon="1.9162800">
        <ele>1992.0</ele>
        <time>2015-08-12T07:33:24Z</time>
      </trkpt>
      <trkpt lat="42.3335210" lon="1.9162660">
        <ele>1991.5</ele>
        <time>2015-08-12T07:33:27Z</time>
      </trkpt>
      <trkpt lat="42.3335470" lon="1.9162440">
        <ele>1991.6</ele>
        <time>2015-08-12T07:33:28Z</time>
      </trkpt>
      <trkpt lat="42.3336340" lon="1.9162380">
        <ele>1989.5</ele>
        <time>2015-08-12T07:33:30Z</time>
      </trkpt>
      <trkpt lat="42.3336940" lon="1.9162200">
        <ele>1988.5</ele>
        <time>2015-08-12T07:33:33Z</time>
      </trkpt>
      <trkpt lat="42.3337180" lon="1.9162010">
        <ele>1988.5</ele>
        <time>2015-08-12T07:33:35Z</time>
      </trkpt>
      <trkpt lat="42.3337470" lon="1.9161770">
        <ele>1988.5</ele>
        <time>2015-08-12T07:33:38Z</time>
      </trkpt>
      <trkpt lat="42.3337970" lon="1.9161720">
        <ele>1988.0</ele>
        <time>2015-08-12T07:33:41Z</time>
      </trkpt>
      <trkpt lat="42.3338270" lon="1.9161660">
        <ele>1987.8</ele>
        <time>2015-08-12T07:33:43Z</time>
      </trkpt>
      <trkpt lat="42.3338580" lon="1.9161500">
        <ele>1987.9</ele>
        <time>2015-08-12T07:33:47Z</time>
      </trkpt>
      <trkpt lat="42.3338990" lon="1.9161400">
        <ele>1987.7</ele>
        <time>2015-08-12T07:33:49Z</time>
      </trkpt>
      <trkpt lat="42.3339280" lon="1.9161290">
        <ele>1987.7</ele>
        <time>2015-08-12T07:33:52Z</time>
      </trkpt>
      <trkpt lat="42.3339540" lon="1.9161140">
        <ele>1987.8</ele>
        <time>2015-08-12T07:33:55Z</time>
      </trkpt>
      <trkpt lat="42.3339880" lon="1.9160790">
        <ele>1988.4</ele>
        <time>2015-08-12T07:33:57Z</time>
      </trkpt>
      <trkpt lat="42.3340200" lon="1.9160480">
        <ele>1988.8</ele>
        <time>2015-08-12T07:33:59Z</time>
      </trkpt>
      <trkpt lat="42.3340350" lon="1.9160170">
        <ele>1989.5</ele>
        <time>2015-08-12T07:34:02Z</time>
      </trkpt>
      <trkpt lat="42.3340600" lon="1.9159880">
        <ele>1990.0</ele>
        <time>2015-08-12T07:34:04Z</time>
      </trkpt>
      <trkpt lat="42.3340890" lon="1.9159640">
        <ele>1990.3</ele>
        <time>2015-08-12T07:34:05Z</time>
      </trkpt>
      <trkpt lat="42.3341200" lon="1.9159140">
        <ele>1991.2</ele>
        <time>2015-08-12T07:34:07Z</time>
      </trkpt>
      <trkpt lat="42.3341460" lon="1.9158910">
        <ele>1991.5</ele>
        <time>2015-08-12T07:34:09Z</time>
      </trkpt>
      <trkpt lat="42.3341640" lon="1.9158480">
        <ele>1992.4</ele>
        <time>2015-08-12T07:34:11Z</time>
      </trkpt>
      <trkpt lat="42.3341980" lon="1.9158450">
        <ele>1991.9</ele>
        <time>2015-08-12T07:34:13Z</time>
      </trkpt>
      <trkpt lat="42.3342130" lon="1.9157990">
        <ele>1992.9</ele>
        <time>2015-08-12T07:34:16Z</time>
      </trkpt>
      <trkpt lat="42.3342570" lon="1.9157880">
        <ele>1992.4</ele>
        <time>2015-08-12T07:34:19Z</time>
      </trkpt>
      <trkpt lat="42.3342840" lon="1.9157730">
        <ele>1992.3</ele>
        <time>2015-08-12T07:34:21Z</time>
      </trkpt>
      <trkpt lat="42.3343220" lon="1.9157530">
        <ele>1992.2</ele>
        <time>2015-08-12T07:34:23Z</time>
      </trkpt>
      <trkpt lat="42.3343680" lon="1.9157370">
        <ele>1991.7</ele>
        <time>2015-08-12T07:34:25Z</time>
      </trkpt>
      <trkpt lat="42.3344070" lon="1.9157060">
        <ele>1991.8</ele>
        <time>2015-08-12T07:34:28Z</time>
      </trkpt>
      <trkpt lat="42.3344360" lon="1.9156940">
        <ele>1991.5</ele>
        <time>2015-08-12T07:34:30Z</time>
      </trkpt>
      <trkpt lat="42.3344670" lon="1.9156780">
        <ele>1991.3</ele>
        <time>2015-08-12T07:34:32Z</time>
      </trkpt>
      <trkpt lat="42.3345100" lon="1.9156730">
        <ele>1990.6</ele>
        <time>2015-08-12T07:34:34Z</time>
      </trkpt>
      <trkpt lat="42.3345350" lon="1.9156550">
        <ele>1990.5</ele>
        <time>2015-08-12T07:34:36Z</time>
      </trkpt>
      <trkpt lat="42.3345730" lon="1.9156400">
        <ele>1990.1</ele>
        <time>2015-08-12T07:34:38Z</time>
      </trkpt>
      <trkpt lat="42.3346020" lon="1.9156320">
        <ele>1990.0</ele>
        <time>2015-08-12T07:34:39Z</time>
      </trkpt>
      <trkpt lat="42.3346540" lon="1.9156080">
        <ele>1990.3</ele>
        <time>2015-08-12T07:34:41Z</time>
      </trkpt>
      <trkpt lat="42.3346920" lon="1.9155280">
        <ele>1991.8</ele>
        <time>2015-08-12T07:34:43Z</time>
      </trkpt>
      <trkpt lat="42.3347400" lon="1.9155490">
        <ele>1991.1</ele>
        <time>2015-08-12T07:34:47Z</time>
      </trkpt>
      <trkpt lat="42.3347700" lon="1.9155510">
        <ele>1990.8</ele>
        <time>2015-08-12T07:34:49Z</time>
      </trkpt>
      <trkpt lat="42.3348180" lon="1.9155330">
        <ele>1990.9</ele>
        <time>2015-08-12T07:34:51Z</time>
      </trkpt>
      <trkpt lat="42.3348580" lon="1.9155230">
        <ele>1990.8</ele>
        <time>2015-08-12T07:34:53Z</time>
      </trkpt>
      <trkpt lat="42.3349000" lon="1.9155310">
        <ele>1990.4</ele>
        <time>2015-08-12T07:34:55Z</time>
      </trkpt>
      <trkpt lat="42.3349270" lon="1.9155390">
        <ele>1990.1</ele>
        <time>2015-08-12T07:34:58Z</time>
      </trkpt>
      <trkpt lat="42.3349730" lon="1.9155190">
        <ele>1990.1</ele>
        <time>2015-08-12T07:35:00Z</time>
      </trkpt>
      <trkpt lat="42.3350110" lon="1.9155230">
        <ele>1989.8</ele>
        <time>2015-08-12T07:35:02Z</time>
      </trkpt>
      <trkpt lat="42.3350540" lon="1.9155250">
        <ele>1989.5</ele>
        <time>2015-08-12T07:35:04Z</time>
      </trkpt>
      <trkpt lat="42.3350910" lon="1.9155330">
        <ele>1989.2</ele>
        <time>2015-08-12T07:35:06Z</time>
      </trkpt>
      <trkpt lat="42.3351170" lon="1.9155460">
        <ele>1988.9</ele>
        <time>2015-08-12T07:35:08Z</time>
      </trkpt>
      <trkpt lat="42.3351600" lon="1.9155580">
        <ele>1988.5</ele>
        <time>2015-08-12T07:35:10Z</time>
      </trkpt>
      <trkpt lat="42.3351950" lon="1.9155690">
        <ele>1988.1</ele>
        <time>2015-08-12T07:35:12Z</time>
      </trkpt>
      <trkpt lat="42.3352300" lon="1.9155750">
        <ele>1987.9</ele>
        <time>2015-08-12T07:35:14Z</time>
      </trkpt>
      <trkpt lat="42.3352820" lon="1.9155850">
        <ele>1987.5</ele>
        <time>2015-08-12T07:35:16Z</time>
      </trkpt>
      <trkpt lat="42.3353200" lon="1.9155910">
        <ele>1987.2</ele>
        <time>2015-08-12T07:35:18Z</time>
      </trkpt>
      <trkpt lat="42.3353620" lon="1.9155590">
        <ele>1987.3</ele>
        <time>2015-08-12T07:35:20Z</time>
      </trkpt>
      <trkpt lat="42.3353940" lon="1.9155480">
        <ele>1987.2</ele>
        <time>2015-08-12T07:35:22Z</time>
      </trkpt>
      <trkpt lat="42.3354420" lon="1.9155500">
        <ele>1986.8</ele>
        <time>2015-08-12T07:35:24Z</time>
      </trkpt>
      <trkpt lat="42.3354800" lon="1.9155610">
        <ele>1986.4</ele>
        <time>2015-08-12T07:35:26Z</time>
      </trkpt>
      <trkpt lat="42.3355130" lon="1.9155560">
        <ele>1986.2</ele>
        <time>2015-08-12T07:35:29Z</time>
      </trkpt>
      <trkpt lat="42.3355410" lon="1.9155500">
        <ele>1986.0</ele>
        <time>2015-08-12T07:35:31Z</time>
      </trkpt>
      <trkpt lat="42.3355760" lon="1.9155400">
        <ele>1985.7</ele>
        <time>2015-08-12T07:35:34Z</time>
      </trkpt>
      <trkpt lat="42.3356170" lon="1.9155330">
        <ele>1985.4</ele>
        <time>2015-08-12T07:35:36Z</time>
      </trkpt>
      <trkpt lat="42.3356510" lon="1.9155100">
        <ele>1985.2</ele>
        <time>2015-08-12T07:35:39Z</time>
      </trkpt>
      <trkpt lat="42.3356920" lon="1.9154940">
        <ele>1984.8</ele>
        <time>2015-08-12T07:35:41Z</time>
      </trkpt>
      <trkpt lat="42.3357190" lon="1.9154750">
        <ele>1984.6</ele>
        <time>2015-08-12T07:35:44Z</time>
      </trkpt>
      <trkpt lat="42.3357110" lon="1.9154210">
        <ele>1984.8</ele>
        <time>2015-08-12T07:35:46Z</time>
      </trkpt>
      <trkpt lat="42.3357020" lon="1.9153790">
        <ele>1985.3</ele>
        <time>2015-08-12T07:35:48Z</time>
      </trkpt>
      <trkpt lat="42.3356810" lon="1.9153480">
        <ele>1985.9</ele>
        <time>2015-08-12T07:35:50Z</time>
      </trkpt>
      <trkpt lat="42.3356670" lon="1.9153060">
        <ele>1986.5</ele>
        <time>2015-08-12T07:35:52Z</time>
      </trkpt>
      <trkpt lat="42.3356540" lon="1.9152700">
        <ele>1987.0</ele>
        <time>2015-08-12T07:35:54Z</time>
      </trkpt>
      <trkpt lat="42.3356260" lon="1.9152400">
        <ele>1987.7</ele>
        <time>2015-08-12T07:35:56Z</time>
      </trkpt>
      <trkpt lat="42.3355840" lon="1.9152240">
        <ele>1988.5</ele>
        <time>2015-08-12T07:35:58Z</time>
      </trkpt>
      <trkpt lat="42.3355620" lon="1.9151950">
        <ele>1989.2</ele>
        <time>2015-08-12T07:36:00Z</time>
      </trkpt>
      <trkpt lat="42.3355410" lon="1.9151560">
        <ele>1990.1</ele>
        <time>2015-08-12T07:36:02Z</time>
      </trkpt>
      <trkpt lat="42.3355130" lon="1.9151260">
        <ele>1990.9</ele>
        <time>2015-08-12T07:36:04Z</time>
      </trkpt>
      <trkpt lat="42.3354920" lon="1.9150880">
        <ele>1991.8</ele>
        <time>2015-08-12T07:36:06Z</time>
      </trkpt>
      <trkpt lat="42.3354770" lon="1.9150480">
        <ele>1992.7</ele>
        <time>2015-08-12T07:36:08Z</time>
      </trkpt>
      <trkpt lat="42.3354410" lon="1.9150090">
        <ele>1993.9</ele>
        <time>2015-08-12T07:36:11Z</time>
      </trkpt>
      <trkpt lat="42.3354140" lon="1.9149710">
        <ele>1995.0</ele>
        <time>2015-08-12T07:36:13Z</time>
      </trkpt>
      <trkpt lat="42.3353830" lon="1.9149380">
        <ele>1996.1</ele>
        <time>2015-08-12T07:36:15Z</time>
      </trkpt>
      <trkpt lat="42.3353590" lon="1.9149160">
        <ele>1996.9</ele>
        <time>2015-08-12T07:36:16Z</time>
      </trkpt>
      <trkpt lat="42.3353310" lon="1.9148970">
        <ele>1997.7</ele>
        <time>2015-08-12T07:36:19Z</time>
      </trkpt>
      <trkpt lat="42.3353020" lon="1.9148610">
        <ele>1998.9</ele>
        <time>2015-08-12T07:36:22Z</time>
      </trkpt>
      <trkpt lat="42.3352800" lon="1.9148360">
        <ele>1999.8</ele>
        <time>2015-08-12T07:36:25Z</time>
      </trkpt>
      <trkpt lat="42.3352730" lon="1.9147880">
        <ele>2000.8</ele>
        <time>2015-08-12T07:37:37Z</time>
      </trkpt>
      <trkpt lat="42.3352580" lon="1.9147430">
        <ele>2002.0</ele>
        <time>2015-08-12T07:37:39Z</time>
      </trkpt>
      <trkpt lat="42.3352180" lon="1.9147100">
        <ele>2003.5</ele>
        <time>2015-08-12T07:37:41Z</time>
      </trkpt>
      <trkpt lat="42.3351820" lon="1.9146820">
        <ele>2004.9</ele>
        <time>2015-08-12T07:37:43Z</time>
      </trkpt>
      <trkpt lat="42.3351520" lon="1.9146820">
        <ele>2005.6</ele>
        <time>2015-08-12T07:37:45Z</time>
      </trkpt>
      <trkpt lat="42.3351350" lon="1.9146510">
        <ele>2006.7</ele>
        <time>2015-08-12T07:37:48Z</time>
      </trkpt>
      <trkpt lat="42.3351070" lon="1.9146260">
        <ele>2007.9</ele>
        <time>2015-08-12T07:37:51Z</time>
      </trkpt>
      <trkpt lat="42.3350830" lon="1.9146060">
        <ele>2008.9</ele>
        <time>2015-08-12T07:37:53Z</time>
      </trkpt>
      <trkpt lat="42.3350650" lon="1.9145780">
        <ele>2010.0</ele>
        <time>2015-08-12T07:37:54Z</time>
      </trkpt>
      <trkpt lat="42.3350420" lon="1.9145400">
        <ele>2011.8</ele>
        <time>2015-08-12T07:37:56Z</time>
      </trkpt>
      <trkpt lat="42.3350130" lon="1.9145190">
        <ele>2013.2</ele>
        <time>2015-08-12T07:37:58Z</time>
      </trkpt>
      <trkpt lat="42.3349810" lon="1.9144860">
        <ele>2015.0</ele>
        <time>2015-08-12T07:38:00Z</time>
      </trkpt>
      <trkpt lat="42.3349740" lon="1.9144490">
        <ele>2016.4</ele>
        <time>2015-08-12T07:38:02Z</time>
      </trkpt>
      <trkpt lat="42.3349640" lon="1.9144060">
        <ele>2018.0</ele>
        <time>2015-08-12T07:38:04Z</time>
      </trkpt>
      <trkpt lat="42.3349590" lon="1.9143470">
        <ele>2020.0</ele>
        <time>2015-08-12T07:38:06Z</time>
      </trkpt>
      <trkpt lat="42.3349730" lon="1.9143140">
        <ele>2020.6</ele>
        <time>2015-08-12T07:38:07Z</time>
      </trkpt>
      <trkpt lat="42.3349670" lon="1.9142760">
        <ele>2022.0</ele>
        <time>2015-08-12T07:38:09Z</time>
      </trkpt>
      <trkpt lat="42.3349640" lon="1.9142140">
        <ele>2024.0</ele>
        <time>2015-08-12T07:38:11Z</time>
      </trkpt>
      <trkpt lat="42.3349670" lon="1.9141370">
        <ele>2026.4</ele>
        <time>2015-08-12T07:38:13Z</time>
      </trkpt>
      <trkpt lat="42.3349760" lon="1.9140990">
        <ele>2027.3</ele>
        <time>2015-08-12T07:38:14Z</time>
      </trkpt>
      <trkpt lat="42.3349920" lon="1.9140670">
        <ele>2027.8</ele>
        <time>2015-08-12T07:38:17Z</time>
      </trkpt>
      <trkpt lat="42.3350180" lon="1.9140340">
        <ele>2028.1</ele>
        <time>2015-08-12T07:38:19Z</time>
      </trkpt>
      <trkpt lat="42.3350480" lon="1.9139960">
        <ele>2028.4</ele>
        <time>2015-08-12T07:38:21Z</time>
      </trkpt>
      <trkpt lat="42.3350700" lon="1.9139580">
        <ele>2028.9</ele>
        <time>2015-08-12T07:38:24Z</time>
      </trkpt>
      <trkpt lat="42.3350890" lon="1.9139250">
        <ele>2029.3</ele>
        <time>2015-08-12T07:38:26Z</time>
      </trkpt>
      <trkpt lat="42.3351070" lon="1.9138960">
        <ele>2029.6</ele>
        <time>2015-08-12T07:38:28Z</time>
      </trkpt>
      <trkpt lat="42.3351270" lon="1.9138590">
        <ele>2030.1</ele>
        <time>2015-08-12T07:38:30Z</time>
      </trkpt>
      <trkpt lat="42.3351590" lon="1.9138370">
        <ele>2029.8</ele>
        <time>2015-08-12T07:38:32Z</time>
      </trkpt>
      <trkpt lat="42.3351920" lon="1.9138210">
        <ele>2029.2</ele>
        <time>2015-08-12T07:38:34Z</time>
      </trkpt>
      <trkpt lat="42.3351950" lon="1.9137690">
        <ele>2030.6</ele>
        <time>2015-08-12T07:38:36Z</time>
      </trkpt>
      <trkpt lat="42.3352230" lon="1.9137360">
        <ele>2030.7</ele>
        <time>2015-08-12T07:38:38Z</time>
      </trkpt>
      <trkpt lat="42.3352570" lon="1.9137010">
        <ele>2030.6</ele>
        <time>2015-08-12T07:38:40Z</time>
      </trkpt>
      <trkpt lat="42.3352910" lon="1.9136630">
        <ele>2030.5</ele>
        <time>2015-08-12T07:38:42Z</time>
      </trkpt>
      <trkpt lat="42.3353250" lon="1.9136380">
        <ele>2030.1</ele>
        <time>2015-08-12T07:38:44Z</time>
      </trkpt>
      <trkpt lat="42.3353520" lon="1.9136170">
        <ele>2029.7</ele>
        <time>2015-08-12T07:38:46Z</time>
      </trkpt>
      <trkpt lat="42.3354230" lon="1.9135810">
        <ele>2028.2</ele>
        <time>2015-08-12T07:38:48Z</time>
      </trkpt>
      <trkpt lat="42.3354490" lon="1.9135890">
        <ele>2027.1</ele>
        <time>2015-08-12T07:38:49Z</time>
      </trkpt>
      <trkpt lat="42.3354610" lon="1.9135410">
        <ele>2027.9</ele>
        <time>2015-08-12T07:38:50Z</time>
      </trkpt>
      <trkpt lat="42.3354880" lon="1.9135150">
        <ele>2027.5</ele>
        <time>2015-08-12T07:38:51Z</time>
      </trkpt>
      <trkpt lat="42.3355240" lon="1.9135220">
        <ele>2026.0</ele>
        <time>2015-08-12T07:38:52Z</time>
      </trkpt>
      <trkpt lat="42.3355480" lon="1.9134960">
        <ele>2025.8</ele>
        <time>2015-08-12T07:38:54Z</time>
      </trkpt>
      <trkpt lat="42.3355920" lon="1.9134770">
        <ele>2024.6</ele>
        <time>2015-08-12T07:38:56Z</time>
      </trkpt>
      <trkpt lat="42.3356050" lon="1.9134050">
        <ele>2025.8</ele>
        <time>2015-08-12T07:38:57Z</time>
      </trkpt>
      <trkpt lat="42.3356270" lon="1.9133740">
        <ele>2025.7</ele>
        <time>2015-08-12T07:38:58Z</time>
      </trkpt>
      <trkpt lat="42.3356560" lon="1.9133200">
        <ele>2025.8</ele>
        <time>2015-08-12T07:39:00Z</time>
      </trkpt>
      <trkpt lat="42.3356310" lon="1.9133010">
        <ele>2027.3</ele>
        <time>2015-08-12T07:39:01Z</time>
      </trkpt>
      <trkpt lat="42.3356430" lon="1.9132630">
        <ele>2027.7</ele>
        <time>2015-08-12T07:39:03Z</time>
      </trkpt>
      <trkpt lat="42.3356070" lon="1.9132450">
        <ele>2029.6</ele>
        <time>2015-08-12T07:39:06Z</time>
      </trkpt>
      <trkpt lat="42.3356140" lon="1.9132070">
        <ele>2030.2</ele>
        <time>2015-08-12T07:39:16Z</time>
      </trkpt>
      <trkpt lat="42.3356410" lon="1.9131960">
        <ele>2029.4</ele>
        <time>2015-08-12T07:39:18Z</time>
      </trkpt>
      <trkpt lat="42.3356350" lon="1.9131550">
        <ele>2030.6</ele>
        <time>2015-08-12T07:39:25Z</time>
      </trkpt>
      <trkpt lat="42.3356260" lon="1.9131080">
        <ele>2032.1</ele>
        <time>2015-08-12T07:39:35Z</time>
      </trkpt>
      <trkpt lat="42.3356540" lon="1.9131040">
        <ele>2031.0</ele>
        <time>2015-08-12T07:39:39Z</time>
      </trkpt>
      <trkpt lat="42.3356890" lon="1.9131070">
        <ele>2029.5</ele>
        <time>2015-08-12T07:39:41Z</time>
      </trkpt>
      <trkpt lat="42.3357120" lon="1.9130790">
        <ele>2029.2</ele>
        <time>2015-08-12T07:39:44Z</time>
      </trkpt>
      <trkpt lat="42.3357030" lon="1.9130280">
        <ele>2030.7</ele>
        <time>2015-08-12T07:39:48Z</time>
      </trkpt>
      <trkpt lat="42.3357210" lon="1.9129960">
        <ele>2030.7</ele>
        <time>2015-08-12T07:39:49Z</time>
      </trkpt>
      <trkpt lat="42.3357120" lon="1.9129580">
        <ele>2031.9</ele>
        <time>2015-08-12T07:39:52Z</time>
      </trkpt>
      <trkpt lat="42.3357020" lon="1.9129020">
        <ele>2033.5</ele>
        <time>2015-08-12T07:39:54Z</time>
      </trkpt>
      <trkpt lat="42.3356670" lon="1.9128830">
        <ele>2035.4</ele>
        <time>2015-08-12T07:39:56Z</time>
      </trkpt>
      <trkpt lat="42.3356440" lon="1.9128520">
        <ele>2036.8</ele>
        <time>2015-08-12T07:40:01Z</time>
      </trkpt>
      <trkpt lat="42.3356200" lon="1.9128070">
        <ele>2038.6</ele>
        <time>2015-08-12T07:40:05Z</time>
      </trkpt>
      <trkpt lat="42.3356040" lon="1.9127770">
        <ele>2039.8</ele>
        <time>2015-08-12T07:40:10Z</time>
      </trkpt>
      <trkpt lat="42.3355920" lon="1.9127420">
        <ele>2040.9</ele>
        <time>2015-08-12T07:40:17Z</time>
      </trkpt>
      <trkpt lat="42.3355900" lon="1.9126940">
        <ele>2041.7</ele>
        <time>2015-08-12T07:40:20Z</time>
      </trkpt>
      <trkpt lat="42.3356220" lon="1.9126580">
        <ele>2040.7</ele>
        <time>2015-08-12T07:40:24Z</time>
      </trkpt>
      <trkpt lat="42.3356060" lon="1.9126260">
        <ele>2042.0</ele>
        <time>2015-08-12T07:40:27Z</time>
      </trkpt>
      <trkpt lat="42.3356180" lon="1.9125860">
        <ele>2042.0</ele>
        <time>2015-08-12T07:40:47Z</time>
      </trkpt>
      <trkpt lat="42.3356460" lon="1.9125460">
        <ele>2041.1</ele>
        <time>2015-08-12T07:40:50Z</time>
      </trkpt>
      <trkpt lat="42.3356690" lon="1.9125130">
        <ele>2040.4</ele>
        <time>2015-08-12T07:40:52Z</time>
      </trkpt>
      <trkpt lat="42.3356290" lon="1.9124700">
        <ele>2043.1</ele>
        <time>2015-08-12T07:40:56Z</time>
      </trkpt>
      <trkpt lat="42.3355980" lon="1.9124560">
        <ele>2044.9</ele>
        <time>2015-08-12T07:40:57Z</time>
      </trkpt>
      <trkpt lat="42.3356230" lon="1.9124020">
        <ele>2044.4</ele>
        <time>2015-08-12T07:41:00Z</time>
      </trkpt>
      <trkpt lat="42.3356180" lon="1.9123680">
        <ele>2045.2</ele>
        <time>2015-08-12T07:41:05Z</time>
      </trkpt>
      <trkpt lat="42.3356140" lon="1.9123350">
        <ele>2045.9</ele>
        <time>2015-08-12T07:41:10Z</time>
      </trkpt>
      <trkpt lat="42.3356090" lon="1.9123010">
        <ele>2046.7</ele>
        <time>2015-08-12T07:41:15Z</time>
      </trkpt>
      <trkpt lat="42.3356040" lon="1.9122680">
        <ele>2047.4</ele>
        <time>2015-08-12T07:41:16Z</time>
      </trkpt>
      <trkpt lat="42.3355950" lon="1.9122040">
        <ele>2048.9</ele>
        <time>2015-08-12T07:41:18Z</time>
      </trkpt>
      <trkpt lat="42.3356460" lon="1.9121710">
        <ele>2046.5</ele>
        <time>2015-08-12T07:41:21Z</time>
      </trkpt>
      <trkpt lat="42.3356680" lon="1.9121170">
        <ele>2046.1</ele>
        <time>2015-08-12T07:41:24Z</time>
      </trkpt>
      <trkpt lat="42.3356530" lon="1.9120720">
        <ele>2047.4</ele>
        <time>2015-08-12T07:41:26Z</time>
      </trkpt>
      <trkpt lat="42.3356350" lon="1.9120270">
        <ele>2048.7</ele>
        <time>2015-08-12T07:41:28Z</time>
      </trkpt>
      <trkpt lat="42.3356670" lon="1.9120150">
        <ele>2046.9</ele>
        <time>2015-08-12T07:41:32Z</time>
      </trkpt>
      <trkpt lat="42.3356270" lon="1.9120050">
        <ele>2049.2</ele>
        <time>2015-08-12T07:41:35Z</time>
      </trkpt>
      <trkpt lat="42.3356400" lon="1.9119610">
        <ele>2048.7</ele>
        <time>2015-08-12T07:41:42Z</time>
      </trkpt>
      <trkpt lat="42.3356060" lon="1.9119290">
        <ele>2050.8</ele>
        <time>2015-08-12T07:41:47Z</time>
      </trkpt>
      <trkpt lat="42.3355380" lon="1.9118810">
        <ele>2055.0</ele>
        <time>2015-08-12T07:41:49Z</time>
      </trkpt>
      <trkpt lat="42.3355730" lon="1.9119090">
        <ele>2052.8</ele>
        <time>2015-08-12T07:41:52Z</time>
      </trkpt>
      <trkpt lat="42.3355810" lon="1.9118700">
        <ele>2052.6</ele>
        <time>2015-08-12T07:42:02Z</time>
      </trkpt>
      <trkpt lat="42.3356060" lon="1.9118510">
        <ele>2051.2</ele>
        <time>2015-08-12T07:42:08Z</time>
      </trkpt>
      <trkpt lat="42.3356240" lon="1.9117990">
        <ele>2050.3</ele>
        <time>2015-08-12T07:42:15Z</time>
      </trkpt>
      <trkpt lat="42.3355960" lon="1.9118140">
        <ele>2051.9</ele>
        <time>2015-08-12T07:42:17Z</time>
      </trkpt>
      <trkpt lat="42.3355670" lon="1.9117900">
        <ele>2053.8</ele>
        <time>2015-08-12T07:42:21Z</time>
      </trkpt>
      <trkpt lat="42.3355550" lon="1.9117560">
        <ele>2054.7</ele>
        <time>2015-08-12T07:42:23Z</time>
      </trkpt>
      <trkpt lat="42.3355690" lon="1.9117230">
        <ele>2054.0</ele>
        <time>2015-08-12T07:42:24Z</time>
      </trkpt>
      <trkpt lat="42.3355710" lon="1.9116690">
        <ele>2054.1</ele>
        <time>2015-08-12T07:42:26Z</time>
      </trkpt>
      <trkpt lat="42.3355430" lon="1.9116430">
        <ele>2056.0</ele>
        <time>2015-08-12T07:42:29Z</time>
      </trkpt>
      <trkpt lat="42.3355770" lon="1.9116180">
        <ele>2054.0</ele>
        <time>2015-08-12T07:42:31Z</time>
      </trkpt>
      <trkpt lat="42.3355460" lon="1.9115910">
        <ele>2056.0</ele>
        <time>2015-08-12T07:42:32Z</time>
      </trkpt>
      <trkpt lat="42.3355200" lon="1.9115590">
        <ele>2057.8</ele>
        <time>2015-08-12T07:42:38Z</time>
      </trkpt>
      <trkpt lat="42.3355160" lon="1.9114890">
        <ele>2058.4</ele>
        <time>2015-08-12T07:42:43Z</time>
      </trkpt>
      <trkpt lat="42.3354900" lon="1.9114590">
        <ele>2060.2</ele>
        <time>2015-08-12T07:42:47Z</time>
      </trkpt>
      <trkpt lat="42.3354980" lon="1.9114140">
        <ele>2059.9</ele>
        <time>2015-08-12T07:42:50Z</time>
      </trkpt>
      <trkpt lat="42.3354980" lon="1.9113750">
        <ele>2060.2</ele>
        <time>2015-08-12T07:42:57Z</time>
      </trkpt>
      <trkpt lat="42.3355020" lon="1.9113260">
        <ele>2060.2</ele>
        <time>2015-08-12T07:43:07Z</time>
      </trkpt>
      <trkpt lat="42.3355000" lon="1.9112890">
        <ele>2060.5</ele>
        <time>2015-08-12T07:43:09Z</time>
      </trkpt>
      <trkpt lat="42.3355000" lon="1.9112520">
        <ele>2060.7</ele>
        <time>2015-08-12T07:43:12Z</time>
      </trkpt>
      <trkpt lat="42.3354890" lon="1.9112070">
        <ele>2061.3</ele>
        <time>2015-08-12T07:43:15Z</time>
      </trkpt>
      <trkpt lat="42.3354830" lon="1.9111630">
        <ele>2061.5</ele>
        <time>2015-08-12T07:43:20Z</time>
      </trkpt>
      <trkpt lat="42.3354860" lon="1.9111190">
        <ele>2061.2</ele>
        <time>2015-08-12T07:43:24Z</time>
      </trkpt>
      <trkpt lat="42.3354940" lon="1.9110690">
        <ele>2060.6</ele>
        <time>2015-08-12T07:43:27Z</time>
      </trkpt>
      <trkpt lat="42.3355070" lon="1.9110340">
        <ele>2059.7</ele>
        <time>2015-08-12T07:43:29Z</time>
      </trkpt>
      <trkpt lat="42.3354980" lon="1.9109910">
        <ele>2060.1</ele>
        <time>2015-08-12T07:43:32Z</time>
      </trkpt>
      <trkpt lat="42.3354720" lon="1.9109760">
        <ele>2061.6</ele>
        <time>2015-08-12T07:43:36Z</time>
      </trkpt>
      <trkpt lat="42.3354990" lon="1.9109790">
        <ele>2060.0</ele>
        <time>2015-08-12T07:44:21Z</time>
      </trkpt>
      <trkpt lat="42.3354780" lon="1.9110020">
        <ele>2061.4</ele>
        <time>2015-08-12T07:45:59Z</time>
      </trkpt>
      <trkpt lat="42.3354610" lon="1.9110460">
        <ele>2062.5</ele>
        <time>2015-08-12T07:46:01Z</time>
      </trkpt>
      <trkpt lat="42.3354490" lon="1.9110900">
        <ele>2063.4</ele>
        <time>2015-08-12T07:46:03Z</time>
      </trkpt>
      <trkpt lat="42.3354430" lon="1.9111470">
        <ele>2064.0</ele>
        <time>2015-08-12T07:46:06Z</time>
      </trkpt>
      <trkpt lat="42.3354250" lon="1.9111850">
        <ele>2065.2</ele>
        <time>2015-08-12T07:46:09Z</time>
      </trkpt>
      <trkpt lat="42.3354160" lon="1.9112290">
        <ele>2066.0</ele>
        <time>2015-08-12T07:46:12Z</time>
      </trkpt>
      <trkpt lat="42.3353980" lon="1.9112820">
        <ele>2066.9</ele>
        <time>2015-08-12T07:46:15Z</time>
      </trkpt>
      <trkpt lat="42.3353890" lon="1.9113210">
        <ele>2067.2</ele>
        <time>2015-08-12T07:46:17Z</time>
      </trkpt>
      <trkpt lat="42.3353710" lon="1.9113750">
        <ele>2067.9</ele>
        <time>2015-08-12T07:46:20Z</time>
      </trkpt>
      <trkpt lat="42.3353500" lon="1.9114220">
        <ele>2068.9</ele>
        <time>2015-08-12T07:46:23Z</time>
      </trkpt>
      <trkpt lat="42.3353380" lon="1.9114620">
        <ele>2069.3</ele>
        <time>2015-08-12T07:46:25Z</time>
      </trkpt>
      <trkpt lat="42.3353260" lon="1.9114980">
        <ele>2069.8</ele>
        <time>2015-08-12T07:46:27Z</time>
      </trkpt>
      <trkpt lat="42.3353310" lon="1.9115540">
        <ele>2069.1</ele>
        <time>2015-08-12T07:46:30Z</time>
      </trkpt>
      <trkpt lat="42.3353340" lon="1.9116010">
        <ele>2068.7</ele>
        <time>2015-08-12T07:46:34Z</time>
      </trkpt>
      <trkpt lat="42.3353260" lon="1.9116460">
        <ele>2068.9</ele>
        <time>2015-08-12T07:46:37Z</time>
      </trkpt>
      <trkpt lat="42.3353250" lon="1.9116830">
        <ele>2068.7</ele>
        <time>2015-08-12T07:46:40Z</time>
      </trkpt>
      <trkpt lat="42.3353150" lon="1.9117340">
        <ele>2068.9</ele>
        <time>2015-08-12T07:46:43Z</time>
      </trkpt>
      <trkpt lat="42.3353110" lon="1.9117800">
        <ele>2068.9</ele>
        <time>2015-08-12T07:46:45Z</time>
      </trkpt>
      <trkpt lat="42.3352950" lon="1.9118190">
        <ele>2069.5</ele>
        <time>2015-08-12T07:46:47Z</time>
      </trkpt>
      <trkpt lat="42.3352900" lon="1.9118670">
        <ele>2069.5</ele>
        <time>2015-08-12T07:46:49Z</time>
      </trkpt>
      <trkpt lat="42.3352790" lon="1.9119090">
        <ele>2069.9</ele>
        <time>2015-08-12T07:46:51Z</time>
      </trkpt>
      <trkpt lat="42.3352730" lon="1.9119510">
        <ele>2070.0</ele>
        <time>2015-08-12T07:46:54Z</time>
      </trkpt>
      <trkpt lat="42.3352700" lon="1.9120070">
        <ele>2069.8</ele>
        <time>2015-08-12T07:46:57Z</time>
      </trkpt>
      <trkpt lat="42.3352630" lon="1.9120450">
        <ele>2069.9</ele>
        <time>2015-08-12T07:46:59Z</time>
      </trkpt>
      <trkpt lat="42.3352560" lon="1.9120850">
        <ele>2070.0</ele>
        <time>2015-08-12T07:47:01Z</time>
      </trkpt>
      <trkpt lat="42.3352380" lon="1.9121290">
        <ele>2070.1</ele>
        <time>2015-08-12T07:47:04Z</time>
      </trkpt>
      <trkpt lat="42.3352070" lon="1.9121600">
        <ele>2071.2</ele>
        <time>2015-08-12T07:47:07Z</time>
      </trkpt>
      <trkpt lat="42.3351870" lon="1.9122050">
        <ele>2071.4</ele>
        <time>2015-08-12T07:47:10Z</time>
      </trkpt>
      <trkpt lat="42.3351880" lon="1.9122430">
        <ele>2070.5</ele>
        <time>2015-08-12T07:47:12Z</time>
      </trkpt>
      <trkpt lat="42.3351640" lon="1.9122800">
        <ele>2071.0</ele>
        <time>2015-08-12T07:47:15Z</time>
      </trkpt>
      <trkpt lat="42.3351400" lon="1.9123070">
        <ele>2071.7</ele>
        <time>2015-08-12T07:47:17Z</time>
      </trkpt>
      <trkpt lat="42.3351290" lon="1.9123490">
        <ele>2071.3</ele>
        <time>2015-08-12T07:47:19Z</time>
      </trkpt>
      <trkpt lat="42.3351120" lon="1.9123820">
        <ele>2071.5</ele>
        <time>2015-08-12T07:47:22Z</time>
      </trkpt>
      <trkpt lat="42.3350890" lon="1.9124050">
        <ele>2072.2</ele>
        <time>2015-08-12T07:47:24Z</time>
      </trkpt>
      <trkpt lat="42.3350520" lon="1.9124130">
        <ele>2073.9</ele>
        <time>2015-08-12T07:47:27Z</time>
      </trkpt>
      <trkpt lat="42.3350150" lon="1.9124360">
        <ele>2075.3</ele>
        <time>2015-08-12T07:47:29Z</time>
      </trkpt>
      <trkpt lat="42.3349830" lon="1.9124230">
        <ele>2077.2</ele>
        <time>2015-08-12T07:47:31Z</time>
      </trkpt>
      <trkpt lat="42.3349520" lon="1.9124110">
        <ele>2079.1</ele>
        <time>2015-08-12T07:47:33Z</time>
      </trkpt>
      <trkpt lat="42.3349130" lon="1.9124420">
        <ele>2080.3</ele>
        <time>2015-08-12T07:47:36Z</time>
      </trkpt>
      <trkpt lat="42.3348860" lon="1.9124630">
        <ele>2081.2</ele>
        <time>2015-08-12T07:47:38Z</time>
      </trkpt>
      <trkpt lat="42.3348630" lon="1.9124890">
        <ele>2081.7</ele>
        <time>2015-08-12T07:47:40Z</time>
      </trkpt>
      <trkpt lat="42.3348420" lon="1.9125210">
        <ele>2081.9</ele>
        <time>2015-08-12T07:47:42Z</time>
      </trkpt>
      <trkpt lat="42.3348170" lon="1.9125500">
        <ele>2082.4</ele>
        <time>2015-08-12T07:47:44Z</time>
      </trkpt>
      <trkpt lat="42.3348000" lon="1.9125790">
        <ele>2082.5</ele>
        <time>2015-08-12T07:47:46Z</time>
      </trkpt>
      <trkpt lat="42.3347620" lon="1.9126000">
        <ele>2083.8</ele>
        <time>2015-08-12T07:47:49Z</time>
      </trkpt>
      <trkpt lat="42.3347350" lon="1.9126230">
        <ele>2084.4</ele>
        <time>2015-08-12T07:47:52Z</time>
      </trkpt>
      <trkpt lat="42.3347040" lon="1.9126420">
        <ele>2085.4</ele>
        <time>2015-08-12T07:47:55Z</time>
      </trkpt>
      <trkpt lat="42.3346730" lon="1.9126740">
        <ele>2086.0</ele>
        <time>2015-08-12T07:47:58Z</time>
      </trkpt>
      <trkpt lat="42.3346410" lon="1.9126990">
        <ele>2086.8</ele>
        <time>2015-08-12T07:48:01Z</time>
      </trkpt>
      <trkpt lat="42.3346140" lon="1.9127140">
        <ele>2087.6</ele>
        <time>2015-08-12T07:48:03Z</time>
      </trkpt>
      <trkpt lat="42.3345810" lon="1.9127440">
        <ele>2088.2</ele>
        <time>2015-08-12T07:48:06Z</time>
      </trkpt>
      <trkpt lat="42.3345560" lon="1.9127570">
        <ele>2088.6</ele>
        <time>2015-08-12T07:48:08Z</time>
      </trkpt>
      <trkpt lat="42.3345370" lon="1.9127850">
        <ele>2088.3</ele>
        <time>2015-08-12T07:48:11Z</time>
      </trkpt>
      <trkpt lat="42.3345110" lon="1.9128170">
        <ele>2088.1</ele>
        <time>2015-08-12T07:48:14Z</time>
      </trkpt>
      <trkpt lat="42.3344860" lon="1.9128410">
        <ele>2088.1</ele>
        <time>2015-08-12T07:48:16Z</time>
      </trkpt>
      <trkpt lat="42.3344610" lon="1.9128630">
        <ele>2088.2</ele>
        <time>2015-08-12T07:48:18Z</time>
      </trkpt>
      <trkpt lat="42.3344320" lon="1.9128810">
        <ele>2088.5</ele>
        <time>2015-08-12T07:48:20Z</time>
      </trkpt>
      <trkpt lat="42.3344050" lon="1.9128950">
        <ele>2088.8</ele>
        <time>2015-08-12T07:48:22Z</time>
      </trkpt>
      <trkpt lat="42.3343790" lon="1.9129170">
        <ele>2088.9</ele>
        <time>2015-08-12T07:48:24Z</time>
      </trkpt>
      <trkpt lat="42.3343470" lon="1.9129330">
        <ele>2089.2</ele>
        <time>2015-08-12T07:48:26Z</time>
      </trkpt>
      <trkpt lat="42.3343140" lon="1.9129590">
        <ele>2089.1</ele>
        <time>2015-08-12T07:48:28Z</time>
      </trkpt>
      <trkpt lat="42.3342860" lon="1.9129750">
        <ele>2089.3</ele>
        <time>2015-08-12T07:48:30Z</time>
      </trkpt>
      <trkpt lat="42.3342540" lon="1.9129930">
        <ele>2089.6</ele>
        <time>2015-08-12T07:48:33Z</time>
      </trkpt>
      <trkpt lat="42.3342220" lon="1.9130220">
        <ele>2089.4</ele>
        <time>2015-08-12T07:48:35Z</time>
      </trkpt>
      <trkpt lat="42.3341890" lon="1.9130350">
        <ele>2089.9</ele>
        <time>2015-08-12T07:48:37Z</time>
      </trkpt>
      <trkpt lat="42.3341540" lon="1.9130470">
        <ele>2090.4</ele>
        <time>2015-08-12T07:48:39Z</time>
      </trkpt>
      <trkpt lat="42.3341300" lon="1.9130710">
        <ele>2090.2</ele>
        <time>2015-08-12T07:48:41Z</time>
      </trkpt>
      <trkpt lat="42.3341040" lon="1.9131090">
        <ele>2089.6</ele>
        <time>2015-08-12T07:48:43Z</time>
      </trkpt>
      <trkpt lat="42.3340580" lon="1.9131170">
        <ele>2090.6</ele>
        <time>2015-08-12T07:48:45Z</time>
      </trkpt>
      <trkpt lat="42.3340280" lon="1.9131350">
        <ele>2090.8</ele>
        <time>2015-08-12T07:48:47Z</time>
      </trkpt>
      <trkpt lat="42.3340140" lon="1.9131670">
        <ele>2090.0</ele>
        <time>2015-08-12T07:48:49Z</time>
      </trkpt>
      <trkpt lat="42.3339880" lon="1.9131940">
        <ele>2089.7</ele>
        <time>2015-08-12T07:48:51Z</time>
      </trkpt>
      <trkpt lat="42.3339570" lon="1.9132090">
        <ele>2090.1</ele>
        <time>2015-08-12T07:48:53Z</time>
      </trkpt>
      <trkpt lat="42.3339120" lon="1.9132340">
        <ele>2090.5</ele>
        <time>2015-08-12T07:48:56Z</time>
      </trkpt>
      <trkpt lat="42.3338860" lon="1.9132440">
        <ele>2090.8</ele>
        <time>2015-08-12T07:48:58Z</time>
      </trkpt>
      <trkpt lat="42.3338550" lon="1.9132470">
        <ele>2091.6</ele>
        <time>2015-08-12T07:49:00Z</time>
      </trkpt>
      <trkpt lat="42.3338170" lon="1.9132510">
        <ele>2092.6</ele>
        <time>2015-08-12T07:49:03Z</time>
      </trkpt>
      <trkpt lat="42.3337830" lon="1.9132570">
        <ele>2093.4</ele>
        <time>2015-08-12T07:49:05Z</time>
      </trkpt>
      <trkpt lat="42.3337530" lon="1.9132710">
        <ele>2093.7</ele>
        <time>2015-08-12T07:49:07Z</time>
      </trkpt>
      <trkpt lat="42.3337220" lon="1.9132790">
        <ele>2093.8</ele>
        <time>2015-08-12T07:49:09Z</time>
      </trkpt>
      <trkpt lat="42.3336920" lon="1.9132960">
        <ele>2093.5</ele>
        <time>2015-08-12T07:49:11Z</time>
      </trkpt>
      <trkpt lat="42.3336550" lon="1.9133060">
        <ele>2093.5</ele>
        <time>2015-08-12T07:49:14Z</time>
      </trkpt>
      <trkpt lat="42.3336290" lon="1.9133160">
        <ele>2093.4</ele>
        <time>2015-08-12T07:49:16Z</time>
      </trkpt>
      <trkpt lat="42.3335970" lon="1.9133170">
        <ele>2093.7</ele>
        <time>2015-08-12T07:49:18Z</time>
      </trkpt>
      <trkpt lat="42.3335690" lon="1.9133000">
        <ele>2094.5</ele>
        <time>2015-08-12T07:49:20Z</time>
      </trkpt>
      <trkpt lat="42.3335400" lon="1.9132790">
        <ele>2095.5</ele>
        <time>2015-08-12T07:49:23Z</time>
      </trkpt>
      <trkpt lat="42.3335110" lon="1.9132920">
        <ele>2095.4</ele>
        <time>2015-08-12T07:49:26Z</time>
      </trkpt>
      <trkpt lat="42.3334790" lon="1.9132870">
        <ele>2095.8</ele>
        <time>2015-08-12T07:49:29Z</time>
      </trkpt>
      <trkpt lat="42.3334500" lon="1.9132930">
        <ele>2095.9</ele>
        <time>2015-08-12T07:49:31Z</time>
      </trkpt>
      <trkpt lat="42.3334330" lon="1.9133350">
        <ele>2094.9</ele>
        <time>2015-08-12T07:49:34Z</time>
      </trkpt>
      <trkpt lat="42.3334050" lon="1.9133500">
        <ele>2094.8</ele>
        <time>2015-08-12T07:49:36Z</time>
      </trkpt>
      <trkpt lat="42.3333730" lon="1.9133330">
        <ele>2095.6</ele>
        <time>2015-08-12T07:49:38Z</time>
      </trkpt>
      <trkpt lat="42.3333380" lon="1.9133310">
        <ele>2096.0</ele>
        <time>2015-08-12T07:49:40Z</time>
      </trkpt>
      <trkpt lat="42.3332970" lon="1.9133290">
        <ele>2096.5</ele>
        <time>2015-08-12T07:49:42Z</time>
      </trkpt>
      <trkpt lat="42.3332600" lon="1.9133160">
        <ele>2097.2</ele>
        <time>2015-08-12T07:49:44Z</time>
      </trkpt>
      <trkpt lat="42.3332240" lon="1.9133010">
        <ele>2097.9</ele>
        <time>2015-08-12T07:49:46Z</time>
      </trkpt>
      <trkpt lat="42.3331920" lon="1.9132870">
        <ele>2098.6</ele>
        <time>2015-08-12T07:49:48Z</time>
      </trkpt>
      <trkpt lat="42.3331640" lon="1.9132720">
        <ele>2099.2</ele>
        <time>2015-08-12T07:49:50Z</time>
      </trkpt>
      <trkpt lat="42.3331250" lon="1.9132640">
        <ele>2099.7</ele>
        <time>2015-08-12T07:49:53Z</time>
      </trkpt>
      <trkpt lat="42.3330970" lon="1.9132480">
        <ele>2100.3</ele>
        <time>2015-08-12T07:49:55Z</time>
      </trkpt>
      <trkpt lat="42.3330650" lon="1.9132350">
        <ele>2100.8</ele>
        <time>2015-08-12T07:49:57Z</time>
      </trkpt>
      <trkpt lat="42.3330360" lon="1.9132320">
        <ele>2101.1</ele>
        <time>2015-08-12T07:49:59Z</time>
      </trkpt>
      <trkpt lat="42.3330170" lon="1.9131910">
        <ele>2102.0</ele>
        <time>2015-08-12T07:50:02Z</time>
      </trkpt>
      <trkpt lat="42.3330050" lon="1.9131580">
        <ele>2102.7</ele>
        <time>2015-08-12T07:50:21Z</time>
      </trkpt>
      <trkpt lat="42.3329930" lon="1.9131230">
        <ele>2103.4</ele>
        <time>2015-08-12T07:50:35Z</time>
      </trkpt>
      <trkpt lat="42.3329810" lon="1.9130900">
        <ele>2104.0</ele>
        <time>2015-08-12T07:50:38Z</time>
      </trkpt>
      <trkpt lat="42.3329630" lon="1.9130610">
        <ele>2104.6</ele>
        <time>2015-08-12T07:51:00Z</time>
      </trkpt>
      <trkpt lat="42.3329380" lon="1.9130310">
        <ele>2105.2</ele>
        <time>2015-08-12T07:51:18Z</time>
      </trkpt>
      <trkpt lat="42.3329110" lon="1.9130020">
        <ele>2105.8</ele>
        <time>2015-08-12T07:51:24Z</time>
      </trkpt>
      <trkpt lat="42.3328840" lon="1.9129770">
        <ele>2106.7</ele>
        <time>2015-08-12T07:51:35Z</time>
      </trkpt>
      <trkpt lat="42.3328460" lon="1.9129550">
        <ele>2107.9</ele>
        <time>2015-08-12T07:51:51Z</time>
      </trkpt>
      <trkpt lat="42.3328180" lon="1.9129270">
        <ele>2108.9</ele>
        <time>2015-08-12T07:51:53Z</time>
      </trkpt>
      <trkpt lat="42.3327940" lon="1.9129000">
        <ele>2110.1</ele>
        <time>2015-08-12T07:51:55Z</time>
      </trkpt>
      <trkpt lat="42.3327770" lon="1.9128700">
        <ele>2111.4</ele>
        <time>2015-08-12T07:51:57Z</time>
      </trkpt>
      <trkpt lat="42.3327450" lon="1.9128510">
        <ele>2112.6</ele>
        <time>2015-08-12T07:52:00Z</time>
      </trkpt>
      <trkpt lat="42.3327190" lon="1.9128380">
        <ele>2113.6</ele>
        <time>2015-08-12T07:52:02Z</time>
      </trkpt>
      <trkpt lat="42.3326850" lon="1.9128240">
        <ele>2114.7</ele>
        <time>2015-08-12T07:52:04Z</time>
      </trkpt>
      <trkpt lat="42.3326550" lon="1.9128200">
        <ele>2115.4</ele>
        <time>2015-08-12T07:52:06Z</time>
      </trkpt>
      <trkpt lat="42.3326250" lon="1.9128160">
        <ele>2116.2</ele>
        <time>2015-08-12T07:52:10Z</time>
      </trkpt>
      <trkpt lat="42.3325890" lon="1.9128060">
        <ele>2117.2</ele>
        <time>2015-08-12T07:52:14Z</time>
      </trkpt>
      <trkpt lat="42.3325580" lon="1.9127920">
        <ele>2118.2</ele>
        <time>2015-08-12T07:52:17Z</time>
      </trkpt>
      <trkpt lat="42.3325270" lon="1.9127850">
        <ele>2119.1</ele>
        <time>2015-08-12T07:52:20Z</time>
      </trkpt>
      <trkpt lat="42.3324980" lon="1.9127990">
        <ele>2119.2</ele>
        <time>2015-08-12T07:52:22Z</time>
      </trkpt>
      <trkpt lat="42.3324720" lon="1.9128090">
        <ele>2119.4</ele>
        <time>2015-08-12T07:52:24Z</time>
      </trkpt>
      <trkpt lat="42.3324430" lon="1.9128310">
        <ele>2119.3</ele>
        <time>2015-08-12T07:52:27Z</time>
      </trkpt>
      <trkpt lat="42.3324060" lon="1.9128320">
        <ele>2120.0</ele>
        <time>2015-08-12T07:52:30Z</time>
      </trkpt>
      <trkpt lat="42.3323760" lon="1.9128350">
        <ele>2120.5</ele>
        <time>2015-08-12T07:52:32Z</time>
      </trkpt>
      <trkpt lat="42.3323400" lon="1.9128450">
        <ele>2120.9</ele>
        <time>2015-08-12T07:52:34Z</time>
      </trkpt>
      <trkpt lat="42.3323100" lon="1.9128650">
        <ele>2120.9</ele>
        <time>2015-08-12T07:52:37Z</time>
      </trkpt>
      <trkpt lat="42.3322760" lon="1.9128680">
        <ele>2121.5</ele>
        <time>2015-08-12T07:52:40Z</time>
      </trkpt>
      <trkpt lat="42.3322440" lon="1.9129040">
        <ele>2121.1</ele>
        <time>2015-08-12T07:52:42Z</time>
      </trkpt>
      <trkpt lat="42.3322160" lon="1.9129150">
        <ele>2121.3</ele>
        <time>2015-08-12T07:52:44Z</time>
      </trkpt>
      <trkpt lat="42.3321930" lon="1.9129370">
        <ele>2121.5</ele>
        <time>2015-08-12T07:52:46Z</time>
      </trkpt>
      <trkpt lat="42.3321650" lon="1.9129590">
        <ele>2121.9</ele>
        <time>2015-08-12T07:52:49Z</time>
      </trkpt>
      <trkpt lat="42.3321430" lon="1.9129850">
        <ele>2122.0</ele>
        <time>2015-08-12T07:52:51Z</time>
      </trkpt>
      <trkpt lat="42.3321180" lon="1.9130060">
        <ele>2122.3</ele>
        <time>2015-08-12T07:52:53Z</time>
      </trkpt>
      <trkpt lat="42.3320900" lon="1.9130210">
        <ele>2122.7</ele>
        <time>2015-08-12T07:52:55Z</time>
      </trkpt>
      <trkpt lat="42.3320600" lon="1.9130240">
        <ele>2123.1</ele>
        <time>2015-08-12T07:52:57Z</time>
      </trkpt>
      <trkpt lat="42.3320240" lon="1.9130490">
        <ele>2123.1</ele>
        <time>2015-08-12T07:53:00Z</time>
      </trkpt>
      <trkpt lat="42.3319980" lon="1.9130900">
        <ele>2122.9</ele>
        <time>2015-08-12T07:53:03Z</time>
      </trkpt>
      <trkpt lat="42.3319900" lon="1.9131300">
        <ele>2122.5</ele>
        <time>2015-08-12T07:53:05Z</time>
      </trkpt>
      <trkpt lat="42.3319650" lon="1.9131650">
        <ele>2122.3</ele>
        <time>2015-08-12T07:53:08Z</time>
      </trkpt>
      <trkpt lat="42.3319430" lon="1.9131980">
        <ele>2122.1</ele>
        <time>2015-08-12T07:53:11Z</time>
      </trkpt>
      <trkpt lat="42.3319270" lon="1.9132470">
        <ele>2121.7</ele>
        <time>2015-08-12T07:53:14Z</time>
      </trkpt>
      <trkpt lat="42.3319080" lon="1.9132760">
        <ele>2121.5</ele>
        <time>2015-08-12T07:53:17Z</time>
      </trkpt>
      <trkpt lat="42.3318760" lon="1.9132770">
        <ele>2121.7</ele>
        <time>2015-08-12T07:53:19Z</time>
      </trkpt>
      <trkpt lat="42.3318500" lon="1.9132590">
        <ele>2122.1</ele>
        <time>2015-08-12T07:53:22Z</time>
      </trkpt>
      <trkpt lat="42.3318280" lon="1.9132190">
        <ele>2122.8</ele>
        <time>2015-08-12T07:53:25Z</time>
      </trkpt>
      <trkpt lat="42.3318160" lon="1.9131850">
        <ele>2123.4</ele>
        <time>2015-08-12T07:53:27Z</time>
      </trkpt>
      <trkpt lat="42.3317820" lon="1.9131830">
        <ele>2123.7</ele>
        <time>2015-08-12T07:53:29Z</time>
      </trkpt>
      <trkpt lat="42.3317940" lon="1.9131420">
        <ele>2124.1</ele>
        <time>2015-08-12T07:53:31Z</time>
      </trkpt>
      <trkpt lat="42.3317990" lon="1.9130940">
        <ele>2124.7</ele>
        <time>2015-08-12T07:53:34Z</time>
      </trkpt>
      <trkpt lat="42.3318020" lon="1.9130520">
        <ele>2125.2</ele>
        <time>2015-08-12T07:53:36Z</time>
      </trkpt>
      <trkpt lat="42.3318060" lon="1.9130030">
        <ele>2125.9</ele>
        <time>2015-08-12T07:53:39Z</time>
      </trkpt>
      <trkpt lat="42.3317950" lon="1.9129610">
        <ele>2126.5</ele>
        <time>2015-08-12T07:53:41Z</time>
      </trkpt>
      <trkpt lat="42.3318120" lon="1.9129280">
        <ele>2126.8</ele>
        <time>2015-08-12T07:53:44Z</time>
      </trkpt>
      <trkpt lat="42.3318210" lon="1.9128860">
        <ele>2127.8</ele>
        <time>2015-08-12T07:53:47Z</time>
      </trkpt>
      <trkpt lat="42.3318120" lon="1.9128320">
        <ele>2129.5</ele>
        <time>2015-08-12T07:53:50Z</time>
      </trkpt>
      <trkpt lat="42.3318490" lon="1.9128080">
        <ele>2129.8</ele>
        <time>2015-08-12T07:53:53Z</time>
      </trkpt>
      <trkpt lat="42.3318380" lon="1.9127630">
        <ele>2131.3</ele>
        <time>2015-08-12T07:53:55Z</time>
      </trkpt>
      <trkpt lat="42.3318250" lon="1.9127110">
        <ele>2133.0</ele>
        <time>2015-08-12T07:53:58Z</time>
      </trkpt>
      <trkpt lat="42.3318290" lon="1.9126630">
        <ele>2134.4</ele>
        <time>2015-08-12T07:54:01Z</time>
      </trkpt>
      <trkpt lat="42.3318270" lon="1.9126070">
        <ele>2136.1</ele>
        <time>2015-08-12T07:54:03Z</time>
      </trkpt>
      <trkpt lat="42.3318340" lon="1.9125550">
        <ele>2137.6</ele>
        <time>2015-08-12T07:54:07Z</time>
      </trkpt>
      <trkpt lat="42.3318520" lon="1.9125030">
        <ele>2139.0</ele>
        <time>2015-08-12T07:54:09Z</time>
      </trkpt>
      <trkpt lat="42.3318590" lon="1.9124670">
        <ele>2140.0</ele>
        <time>2015-08-12T07:54:11Z</time>
      </trkpt>
      <trkpt lat="42.3318790" lon="1.9124030">
        <ele>2141.6</ele>
        <time>2015-08-12T07:54:13Z</time>
      </trkpt>
      <trkpt lat="42.3319050" lon="1.9123770">
        <ele>2142.0</ele>
        <time>2015-08-12T07:54:15Z</time>
      </trkpt>
      <trkpt lat="42.3319070" lon="1.9123260">
        <ele>2143.5</ele>
        <time>2015-08-12T07:54:18Z</time>
      </trkpt>
      <trkpt lat="42.3319230" lon="1.9122840">
        <ele>2144.5</ele>
        <time>2015-08-12T07:54:22Z</time>
      </trkpt>
      <trkpt lat="42.3319320" lon="1.9122380">
        <ele>2145.8</ele>
        <time>2015-08-12T07:54:26Z</time>
      </trkpt>
      <trkpt lat="42.3319420" lon="1.9121880">
        <ele>2147.1</ele>
        <time>2015-08-12T07:54:29Z</time>
      </trkpt>
      <trkpt lat="42.3319630" lon="1.9121460">
        <ele>2148.0</ele>
        <time>2015-08-12T07:54:32Z</time>
      </trkpt>
      <trkpt lat="42.3319790" lon="1.9121140">
        <ele>2148.7</ele>
        <time>2015-08-12T07:54:34Z</time>
      </trkpt>
      <trkpt lat="42.3319910" lon="1.9120780">
        <ele>2149.6</ele>
        <time>2015-08-12T07:54:36Z</time>
      </trkpt>
      <trkpt lat="42.3320030" lon="1.9120300">
        <ele>2151.2</ele>
        <time>2015-08-12T07:54:40Z</time>
      </trkpt>
      <trkpt lat="42.3320360" lon="1.9120150">
        <ele>2151.2</ele>
        <time>2015-08-12T07:54:43Z</time>
      </trkpt>
      <trkpt lat="42.3320570" lon="1.9119790">
        <ele>2152.2</ele>
        <time>2015-08-12T07:54:46Z</time>
      </trkpt>
      <trkpt lat="42.3320720" lon="1.9119370">
        <ele>2153.4</ele>
        <time>2015-08-12T07:54:48Z</time>
      </trkpt>
      <trkpt lat="42.3320940" lon="1.9119150">
        <ele>2153.9</ele>
        <time>2015-08-12T07:54:50Z</time>
      </trkpt>
      <trkpt lat="42.3321070" lon="1.9118800">
        <ele>2155.0</ele>
        <time>2015-08-12T07:54:52Z</time>
      </trkpt>
      <trkpt lat="42.3321400" lon="1.9118460">
        <ele>2155.8</ele>
        <time>2015-08-12T07:54:55Z</time>
      </trkpt>
      <trkpt lat="42.3321720" lon="1.9118540">
        <ele>2155.1</ele>
        <time>2015-08-12T07:54:58Z</time>
      </trkpt>
      <trkpt lat="42.3322100" lon="1.9118370">
        <ele>2155.2</ele>
        <time>2015-08-12T07:55:00Z</time>
      </trkpt>
      <trkpt lat="42.3322380" lon="1.9118340">
        <ele>2155.0</ele>
        <time>2015-08-12T07:55:03Z</time>
      </trkpt>
      <trkpt lat="42.3322700" lon="1.9118000">
        <ele>2155.8</ele>
        <time>2015-08-12T07:55:05Z</time>
      </trkpt>
      <trkpt lat="42.3323000" lon="1.9117790">
        <ele>2156.2</ele>
        <time>2015-08-12T07:55:07Z</time>
      </trkpt>
      <trkpt lat="42.3323370" lon="1.9117560">
        <ele>2156.7</ele>
        <time>2015-08-12T07:55:09Z</time>
      </trkpt>
      <trkpt lat="42.3323750" lon="1.9117340">
        <ele>2157.1</ele>
        <time>2015-08-12T07:55:11Z</time>
      </trkpt>
      <trkpt lat="42.3324140" lon="1.9117320">
        <ele>2156.7</ele>
        <time>2015-08-12T07:55:14Z</time>
      </trkpt>
      <trkpt lat="42.3324470" lon="1.9117150">
        <ele>2156.9</ele>
        <time>2015-08-12T07:55:16Z</time>
      </trkpt>
      <trkpt lat="42.3324830" lon="1.9116990">
        <ele>2157.1</ele>
        <time>2015-08-12T07:55:18Z</time>
      </trkpt>
      <trkpt lat="42.3325180" lon="1.9117000">
        <ele>2156.7</ele>
        <time>2015-08-12T07:55:20Z</time>
      </trkpt>
      <trkpt lat="42.3325590" lon="1.9116920">
        <ele>2156.5</ele>
        <time>2015-08-12T07:55:22Z</time>
      </trkpt>
      <trkpt lat="42.3325890" lon="1.9117150">
        <ele>2155.2</ele>
        <time>2015-08-12T07:55:24Z</time>
      </trkpt>
      <trkpt lat="42.3326330" lon="1.9117280">
        <ele>2154.2</ele>
        <time>2015-08-12T07:55:26Z</time>
      </trkpt>
      <trkpt lat="42.3326660" lon="1.9117320">
        <ele>2153.6</ele>
        <time>2015-08-12T07:55:28Z</time>
      </trkpt>
      <trkpt lat="42.3326990" lon="1.9117300">
        <ele>2153.3</ele>
        <time>2015-08-12T07:55:30Z</time>
      </trkpt>
      <trkpt lat="42.3327310" lon="1.9117320">
        <ele>2152.8</ele>
        <time>2015-08-12T07:55:32Z</time>
      </trkpt>
      <trkpt lat="42.3327620" lon="1.9117320">
        <ele>2152.5</ele>
        <time>2015-08-12T07:55:33Z</time>
      </trkpt>
      <trkpt lat="42.3328030" lon="1.9117610">
        <ele>2150.7</ele>
        <time>2015-08-12T07:55:38Z</time>
      </trkpt>
      <trkpt lat="42.3328390" lon="1.9117700">
        <ele>2149.9</ele>
        <time>2015-08-12T07:55:40Z</time>
      </trkpt>
      <trkpt lat="42.3328750" lon="1.9117440">
        <ele>2150.6</ele>
        <time>2015-08-12T07:55:42Z</time>
      </trkpt>
      <trkpt lat="42.3329010" lon="1.9117570">
        <ele>2149.7</ele>
        <time>2015-08-12T07:55:44Z</time>
      </trkpt>
      <trkpt lat="42.3329330" lon="1.9117500">
        <ele>2149.6</ele>
        <time>2015-08-12T07:55:45Z</time>
      </trkpt>
      <trkpt lat="42.3329660" lon="1.9117520">
        <ele>2149.3</ele>
        <time>2015-08-12T07:55:48Z</time>
      </trkpt>
      <trkpt lat="42.3330070" lon="1.9117710">
        <ele>2148.1</ele>
        <time>2015-08-12T07:55:50Z</time>
      </trkpt>
      <trkpt lat="42.3330350" lon="1.9117910">
        <ele>2147.0</ele>
        <time>2015-08-12T07:55:51Z</time>
      </trkpt>
      <trkpt lat="42.3330850" lon="1.9117790">
        <ele>2147.1</ele>
        <time>2015-08-12T07:55:52Z</time>
      </trkpt>
      <trkpt lat="42.3331160" lon="1.9117700">
        <ele>2147.2</ele>
        <time>2015-08-12T07:55:55Z</time>
      </trkpt>
      <trkpt lat="42.3331480" lon="1.9117320">
        <ele>2148.3</ele>
        <time>2015-08-12T07:55:56Z</time>
      </trkpt>
      <trkpt lat="42.3331770" lon="1.9117090">
        <ele>2148.8</ele>
        <time>2015-08-12T07:55:58Z</time>
      </trkpt>
      <trkpt lat="42.3332030" lon="1.9116880">
        <ele>2149.3</ele>
        <time>2015-08-12T07:56:00Z</time>
      </trkpt>
      <trkpt lat="42.3332260" lon="1.9116610">
        <ele>2150.0</ele>
        <time>2015-08-12T07:56:05Z</time>
      </trkpt>
      <trkpt lat="42.3332550" lon="1.9116380">
        <ele>2150.4</ele>
        <time>2015-08-12T07:56:08Z</time>
      </trkpt>
      <trkpt lat="42.3332760" lon="1.9115870">
        <ele>2151.8</ele>
        <time>2015-08-12T07:56:11Z</time>
      </trkpt>
      <trkpt lat="42.3333040" lon="1.9115590">
        <ele>2152.3</ele>
        <time>2015-08-12T07:56:13Z</time>
      </trkpt>
      <trkpt lat="42.3333260" lon="1.9115210">
        <ele>2153.2</ele>
        <time>2015-08-12T07:56:16Z</time>
      </trkpt>
      <trkpt lat="42.3333510" lon="1.9114870">
        <ele>2153.8</ele>
        <time>2015-08-12T07:56:18Z</time>
      </trkpt>
      <trkpt lat="42.3333640" lon="1.9114380">
        <ele>2155.0</ele>
        <time>2015-08-12T07:56:21Z</time>
      </trkpt>
      <trkpt lat="42.3333860" lon="1.9114010">
        <ele>2155.7</ele>
        <time>2015-08-12T07:56:23Z</time>
      </trkpt>
      <trkpt lat="42.3334140" lon="1.9113670">
        <ele>2156.1</ele>
        <time>2015-08-12T07:56:25Z</time>
      </trkpt>
      <trkpt lat="42.3334360" lon="1.9113470">
        <ele>2156.2</ele>
        <time>2015-08-12T07:56:27Z</time>
      </trkpt>
      <trkpt lat="42.3334560" lon="1.9113060">
        <ele>2156.9</ele>
        <time>2015-08-12T07:56:30Z</time>
      </trkpt>
      <trkpt lat="42.3334930" lon="1.9112750">
        <ele>2156.8</ele>
        <time>2015-08-12T07:56:32Z</time>
      </trkpt>
      <trkpt lat="42.3334710" lon="1.9112510">
        <ele>2158.0</ele>
        <time>2015-08-12T07:56:42Z</time>
      </trkpt>
      <trkpt lat="42.3334940" lon="1.9112200">
        <ele>2158.2</ele>
        <time>2015-08-12T07:57:36Z</time>
      </trkpt>
      <trkpt lat="42.3335180" lon="1.9111860">
        <ele>2158.4</ele>
        <time>2015-08-12T07:57:37Z</time>
      </trkpt>
      <trkpt lat="42.3335210" lon="1.9111260">
        <ele>2159.8</ele>
        <time>2015-08-12T07:57:39Z</time>
      </trkpt>
      <trkpt lat="42.3335200" lon="1.9110590">
        <ele>2161.5</ele>
        <time>2015-08-12T07:57:41Z</time>
      </trkpt>
      <trkpt lat="42.3335310" lon="1.9110100">
        <ele>2162.4</ele>
        <time>2015-08-12T07:57:43Z</time>
      </trkpt>
      <trkpt lat="42.3335230" lon="1.9109610">
        <ele>2163.9</ele>
        <time>2015-08-12T07:57:45Z</time>
      </trkpt>
      <trkpt lat="42.3335450" lon="1.9109060">
        <ele>2164.6</ele>
        <time>2015-08-12T07:57:48Z</time>
      </trkpt>
      <trkpt lat="42.3335540" lon="1.9108640">
        <ele>2165.4</ele>
        <time>2015-08-12T07:57:50Z</time>
      </trkpt>
      <trkpt lat="42.3335540" lon="1.9108150">
        <ele>2166.6</ele>
        <time>2015-08-12T07:57:53Z</time>
      </trkpt>
      <trkpt lat="42.3335750" lon="1.9107750">
        <ele>2167.0</ele>
        <time>2015-08-12T07:57:56Z</time>
      </trkpt>
      <trkpt lat="42.3335710" lon="1.9107310">
        <ele>2168.1</ele>
        <time>2015-08-12T07:57:58Z</time>
      </trkpt>
      <trkpt lat="42.3335720" lon="1.9106910">
        <ele>2169.1</ele>
        <time>2015-08-12T07:58:00Z</time>
      </trkpt>
      <trkpt lat="42.3335760" lon="1.9106470">
        <ele>2170.0</ele>
        <time>2015-08-12T07:58:01Z</time>
      </trkpt>
      <trkpt lat="42.3335640" lon="1.9105890">
        <ele>2171.8</ele>
        <time>2015-08-12T07:58:04Z</time>
      </trkpt>
      <trkpt lat="42.3335720" lon="1.9105380">
        <ele>2172.8</ele>
        <time>2015-08-12T07:58:06Z</time>
      </trkpt>
      <trkpt lat="42.3335950" lon="1.9105170">
        <ele>2172.6</ele>
        <time>2015-08-12T07:58:09Z</time>
      </trkpt>
      <trkpt lat="42.3336010" lon="1.9104790">
        <ele>2173.3</ele>
        <time>2015-08-12T07:58:11Z</time>
      </trkpt>
      <trkpt lat="42.3336300" lon="1.9104400">
        <ele>2173.3</ele>
        <time>2015-08-12T07:58:13Z</time>
      </trkpt>
      <trkpt lat="42.3336480" lon="1.9104060">
        <ele>2173.5</ele>
        <time>2015-08-12T07:58:15Z</time>
      </trkpt>
      <trkpt lat="42.3336560" lon="1.9103690">
        <ele>2173.9</ele>
        <time>2015-08-12T07:58:18Z</time>
      </trkpt>
      <trkpt lat="42.3336660" lon="1.9103240">
        <ele>2174.4</ele>
        <time>2015-08-12T07:58:21Z</time>
      </trkpt>
      <trkpt lat="42.3336670" lon="1.9102760">
        <ele>2175.3</ele>
        <time>2015-08-12T07:58:24Z</time>
      </trkpt>
      <trkpt lat="42.3336600" lon="1.9102160">
        <ele>2176.7</ele>
        <time>2015-08-12T07:58:27Z</time>
      </trkpt>
      <trkpt lat="42.3336470" lon="1.9101770">
        <ele>2177.8</ele>
        <time>2015-08-12T07:58:29Z</time>
      </trkpt>
      <trkpt lat="42.3336480" lon="1.9101380">
        <ele>2178.5</ele>
        <time>2015-08-12T07:58:31Z</time>
      </trkpt>
      <trkpt lat="42.3336520" lon="1.9100950">
        <ele>2179.2</ele>
        <time>2015-08-12T07:58:33Z</time>
      </trkpt>
      <trkpt lat="42.3336580" lon="1.9100480">
        <ele>2179.9</ele>
        <time>2015-08-12T07:58:35Z</time>
      </trkpt>
      <trkpt lat="42.3336640" lon="1.9099970">
        <ele>2180.6</ele>
        <time>2015-08-12T07:58:38Z</time>
      </trkpt>
      <trkpt lat="42.3336620" lon="1.9099600">
        <ele>2181.4</ele>
        <time>2015-08-12T07:58:39Z</time>
      </trkpt>
      <trkpt lat="42.3336590" lon="1.9099170">
        <ele>2182.3</ele>
        <time>2015-08-12T07:58:41Z</time>
      </trkpt>
      <trkpt lat="42.3336690" lon="1.9098740">
        <ele>2182.7</ele>
        <time>2015-08-12T07:58:43Z</time>
      </trkpt>
      <trkpt lat="42.3336820" lon="1.9098390">
        <ele>2182.9</ele>
        <time>2015-08-12T07:58:45Z</time>
      </trkpt>
      <trkpt lat="42.3336720" lon="1.9097880">
        <ele>2184.2</ele>
        <time>2015-08-12T07:58:48Z</time>
      </trkpt>
      <trkpt lat="42.3337080" lon="1.9097830">
        <ele>2183.0</ele>
        <time>2015-08-12T07:58:52Z</time>
      </trkpt>
      <trkpt lat="42.3337240" lon="1.9097370">
        <ele>2183.2</ele>
        <time>2015-08-12T07:58:55Z</time>
      </trkpt>
      <trkpt lat="42.3337310" lon="1.9096940">
        <ele>2183.7</ele>
        <time>2015-08-12T07:58:57Z</time>
      </trkpt>
      <trkpt lat="42.3336930" lon="1.9096760">
        <ele>2185.5</ele>
        <time>2015-08-12T07:58:59Z</time>
      </trkpt>
      <trkpt lat="42.3336660" lon="1.9096830">
        <ele>2186.4</ele>
        <time>2015-08-12T07:59:01Z</time>
      </trkpt>
      <trkpt lat="42.3336390" lon="1.9097150">
        <ele>2186.8</ele>
        <time>2015-08-12T07:59:03Z</time>
      </trkpt>
      <trkpt lat="42.3336340" lon="1.9097570">
        <ele>2186.2</ele>
        <time>2015-08-12T07:59:05Z</time>
      </trkpt>
      <trkpt lat="42.3336240" lon="1.9098140">
        <ele>2185.5</ele>
        <time>2015-08-12T07:59:08Z</time>
      </trkpt>
      <trkpt lat="42.3336250" lon="1.9098560">
        <ele>2184.6</ele>
        <time>2015-08-12T07:59:10Z</time>
      </trkpt>
      <trkpt lat="42.3336140" lon="1.9099000">
        <ele>2184.2</ele>
        <time>2015-08-12T07:59:12Z</time>
      </trkpt>
      <trkpt lat="42.3336220" lon="1.9099470">
        <ele>2183.0</ele>
        <time>2015-08-12T07:59:14Z</time>
      </trkpt>
      <trkpt lat="42.3336200" lon="1.9099860">
        <ele>2182.4</ele>
        <time>2015-08-12T07:59:16Z</time>
      </trkpt>
      <trkpt lat="42.3336130" lon="1.9100380">
        <ele>2181.6</ele>
        <time>2015-08-12T07:59:19Z</time>
      </trkpt>
      <trkpt lat="42.3336110" lon="1.9100780">
        <ele>2180.9</ele>
        <time>2015-08-12T07:59:21Z</time>
      </trkpt>
      <trkpt lat="42.3336050" lon="1.9101150">
        <ele>2180.4</ele>
        <time>2015-08-12T07:59:23Z</time>
      </trkpt>
      <trkpt lat="42.3335840" lon="1.9101450">
        <ele>2180.6</ele>
        <time>2015-08-12T07:59:25Z</time>
      </trkpt>
      <trkpt lat="42.3335560" lon="1.9101790">
        <ele>2180.9</ele>
        <time>2015-08-12T07:59:29Z</time>
      </trkpt>
      <trkpt lat="42.3335380" lon="1.9102070">
        <ele>2181.0</ele>
        <time>2015-08-12T07:59:31Z</time>
      </trkpt>
      <trkpt lat="42.3335220" lon="1.9102450">
        <ele>2180.8</ele>
        <time>2015-08-12T07:59:33Z</time>
      </trkpt>
      <trkpt lat="42.3334980" lon="1.9102790">
        <ele>2180.9</ele>
        <time>2015-08-12T07:59:35Z</time>
      </trkpt>
      <trkpt lat="42.3334720" lon="1.9103030">
        <ele>2181.3</ele>
        <time>2015-08-12T07:59:37Z</time>
      </trkpt>
      <trkpt lat="42.3334350" lon="1.9103250">
        <ele>2182.1</ele>
        <time>2015-08-12T07:59:39Z</time>
      </trkpt>
      <trkpt lat="42.3334170" lon="1.9103560">
        <ele>2182.0</ele>
        <time>2015-08-12T07:59:41Z</time>
      </trkpt>
      <trkpt lat="42.3333970" lon="1.9104120">
        <ele>2181.5</ele>
        <time>2015-08-12T07:59:44Z</time>
      </trkpt>
      <trkpt lat="42.3333740" lon="1.9104400">
        <ele>2181.6</ele>
        <time>2015-08-12T07:59:46Z</time>
      </trkpt>
      <trkpt lat="42.3333480" lon="1.9104540">
        <ele>2182.0</ele>
        <time>2015-08-12T07:59:47Z</time>
      </trkpt>
      <trkpt lat="42.3333180" lon="1.9104860">
        <ele>2182.2</ele>
        <time>2015-08-12T07:59:49Z</time>
      </trkpt>
      <trkpt lat="42.3332410" lon="1.9105490">
        <ele>2182.9</ele>
        <time>2015-08-12T07:59:54Z</time>
      </trkpt>
      <trkpt lat="42.3321860" lon="1.9108390">
        <ele>2191.8</ele>
        <time>2015-08-12T08:01:05Z</time>
      </trkpt>
      <trkpt lat="42.3321730" lon="1.9108000">
        <ele>2193.3</ele>
        <time>2015-08-12T08:01:06Z</time>
      </trkpt>
      <trkpt lat="42.3321480" lon="1.9107580">
        <ele>2195.0</ele>
        <time>2015-08-12T08:01:08Z</time>
      </trkpt>
      <trkpt lat="42.3320860" lon="1.9107610">
        <ele>2195.6</ele>
        <time>2015-08-12T08:01:12Z</time>
      </trkpt>
      <trkpt lat="42.3320580" lon="1.9107940">
        <ele>2194.8</ele>
        <time>2015-08-12T08:01:14Z</time>
      </trkpt>
      <trkpt lat="42.3320540" lon="1.9107580">
        <ele>2196.2</ele>
        <time>2015-08-12T08:01:15Z</time>
      </trkpt>
      <trkpt lat="42.3320260" lon="1.9107470">
        <ele>2197.1</ele>
        <time>2015-08-12T08:01:19Z</time>
      </trkpt>
      <trkpt lat="42.3319980" lon="1.9107210">
        <ele>2198.4</ele>
        <time>2015-08-12T08:01:21Z</time>
      </trkpt>
      <trkpt lat="42.3319690" lon="1.9107210">
        <ele>2198.9</ele>
        <time>2015-08-12T08:01:23Z</time>
      </trkpt>
      <trkpt lat="42.3319270" lon="1.9107160">
        <ele>2199.8</ele>
        <time>2015-08-12T08:01:26Z</time>
      </trkpt>
      <trkpt lat="42.3318820" lon="1.9107190">
        <ele>2200.4</ele>
        <time>2015-08-12T08:01:29Z</time>
      </trkpt>
      <trkpt lat="42.3318430" lon="1.9107400">
        <ele>2200.3</ele>
        <time>2015-08-12T08:01:31Z</time>
      </trkpt>
      <trkpt lat="42.3318100" lon="1.9107460">
        <ele>2200.7</ele>
        <time>2015-08-12T08:01:33Z</time>
      </trkpt>
      <trkpt lat="42.3317750" lon="1.9107680">
        <ele>2200.5</ele>
        <time>2015-08-12T08:01:35Z</time>
      </trkpt>
      <trkpt lat="42.3317420" lon="1.9107910">
        <ele>2200.2</ele>
        <time>2015-08-12T08:01:37Z</time>
      </trkpt>
      <trkpt lat="42.3317070" lon="1.9107860">
        <ele>2201.0</ele>
        <time>2015-08-12T08:01:40Z</time>
      </trkpt>
      <trkpt lat="42.3316840" lon="1.9107470">
        <ele>2202.7</ele>
        <time>2015-08-12T08:01:42Z</time>
      </trkpt>
      <trkpt lat="42.3317090" lon="1.9106890">
        <ele>2204.3</ele>
        <time>2015-08-12T08:01:46Z</time>
      </trkpt>
      <trkpt lat="42.3317260" lon="1.9106390">
        <ele>2205.8</ele>
        <time>2015-08-12T08:01:49Z</time>
      </trkpt>
      <trkpt lat="42.3317670" lon="1.9106250">
        <ele>2205.6</ele>
        <time>2015-08-12T08:01:54Z</time>
      </trkpt>
      <trkpt lat="42.3317920" lon="1.9105990">
        <ele>2206.1</ele>
        <time>2015-08-12T08:01:56Z</time>
      </trkpt>
      <trkpt lat="42.3318260" lon="1.9105880">
        <ele>2206.0</ele>
        <time>2015-08-12T08:01:57Z</time>
      </trkpt>
      <trkpt lat="42.3318550" lon="1.9105730">
        <ele>2206.0</ele>
        <time>2015-08-12T08:01:58Z</time>
      </trkpt>
      <trkpt lat="42.3318860" lon="1.9105610">
        <ele>2206.0</ele>
        <time>2015-08-12T08:01:59Z</time>
      </trkpt>
      <trkpt lat="42.3319150" lon="1.9105510">
        <ele>2205.9</ele>
        <time>2015-08-12T08:02:01Z</time>
      </trkpt>
      <trkpt lat="42.3319430" lon="1.9105280">
        <ele>2206.2</ele>
        <time>2015-08-12T08:02:03Z</time>
      </trkpt>
      <trkpt lat="42.3319850" lon="1.9105110">
        <ele>2206.2</ele>
        <time>2015-08-12T08:02:05Z</time>
      </trkpt>
      <trkpt lat="42.3320230" lon="1.9104960">
        <ele>2206.1</ele>
        <time>2015-08-12T08:02:08Z</time>
      </trkpt>
      <trkpt lat="42.3320550" lon="1.9105020">
        <ele>2205.4</ele>
        <time>2015-08-12T08:02:10Z</time>
      </trkpt>
      <trkpt lat="42.3320940" lon="1.9104940">
        <ele>2205.1</ele>
        <time>2015-08-12T08:02:12Z</time>
      </trkpt>
      <trkpt lat="42.3321220" lon="1.9104740">
        <ele>2205.4</ele>
        <time>2015-08-12T08:02:17Z</time>
      </trkpt>
      <trkpt lat="42.3321650" lon="1.9104770">
        <ele>2204.8</ele>
        <time>2015-08-12T08:02:19Z</time>
      </trkpt>
      <trkpt lat="42.3321980" lon="1.9104540">
        <ele>2205.2</ele>
        <time>2015-08-12T08:02:21Z</time>
      </trkpt>
      <trkpt lat="42.3322320" lon="1.9104390">
        <ele>2205.3</ele>
        <time>2015-08-12T08:02:24Z</time>
      </trkpt>
      <trkpt lat="42.3322730" lon="1.9104390">
        <ele>2204.7</ele>
        <time>2015-08-12T08:02:27Z</time>
      </trkpt>
      <trkpt lat="42.3323010" lon="1.9104160">
        <ele>2205.1</ele>
        <time>2015-08-12T08:02:29Z</time>
      </trkpt>
      <trkpt lat="42.3323290" lon="1.9103850">
        <ele>2205.7</ele>
        <time>2015-08-12T08:02:31Z</time>
      </trkpt>
      <trkpt lat="42.3323740" lon="1.9103690">
        <ele>2205.5</ele>
        <time>2015-08-12T08:02:33Z</time>
      </trkpt>
      <trkpt lat="42.3324050" lon="1.9103600">
        <ele>2205.3</ele>
        <time>2015-08-12T08:02:36Z</time>
      </trkpt>
      <trkpt lat="42.3324270" lon="1.9103280">
        <ele>2205.9</ele>
        <time>2015-08-12T08:02:38Z</time>
      </trkpt>
      <trkpt lat="42.3324530" lon="1.9102970">
        <ele>2206.4</ele>
        <time>2015-08-12T08:02:41Z</time>
      </trkpt>
      <trkpt lat="42.3324690" lon="1.9102610">
        <ele>2207.1</ele>
        <time>2015-08-12T08:02:44Z</time>
      </trkpt>
      <trkpt lat="42.3325020" lon="1.9102490">
        <ele>2207.0</ele>
        <time>2015-08-12T08:02:47Z</time>
      </trkpt>
      <trkpt lat="42.3325400" lon="1.9102330">
        <ele>2206.9</ele>
        <time>2015-08-12T08:02:51Z</time>
      </trkpt>
      <trkpt lat="42.3325670" lon="1.9102080">
        <ele>2207.1</ele>
        <time>2015-08-12T08:02:53Z</time>
      </trkpt>
      <trkpt lat="42.3326020" lon="1.9101830">
        <ele>2207.3</ele>
        <time>2015-08-12T08:02:55Z</time>
      </trkpt>
      <trkpt lat="42.3326370" lon="1.9101570">
        <ele>2207.4</ele>
        <time>2015-08-12T08:02:57Z</time>
      </trkpt>
      <trkpt lat="42.3326620" lon="1.9101200">
        <ele>2208.0</ele>
        <time>2015-08-12T08:03:00Z</time>
      </trkpt>
      <trkpt lat="42.3326910" lon="1.9101080">
        <ele>2207.9</ele>
        <time>2015-08-12T08:03:02Z</time>
      </trkpt>
      <trkpt lat="42.3327310" lon="1.9100940">
        <ele>2207.6</ele>
        <time>2015-08-12T08:03:04Z</time>
      </trkpt>
      <trkpt lat="42.3327610" lon="1.9100560">
        <ele>2208.1</ele>
        <time>2015-08-12T08:03:06Z</time>
      </trkpt>
      <trkpt lat="42.3327860" lon="1.9100360">
        <ele>2208.2</ele>
        <time>2015-08-12T08:03:07Z</time>
      </trkpt>
      <trkpt lat="42.3328190" lon="1.9100050">
        <ele>2208.5</ele>
        <time>2015-08-12T08:03:09Z</time>
      </trkpt>
      <trkpt lat="42.3328440" lon="1.9099770">
        <ele>2208.7</ele>
        <time>2015-08-12T08:03:11Z</time>
      </trkpt>
      <trkpt lat="42.3328710" lon="1.9099670">
        <ele>2208.5</ele>
        <time>2015-08-12T08:03:13Z</time>
      </trkpt>
      <trkpt lat="42.3329060" lon="1.9099440">
        <ele>2208.5</ele>
        <time>2015-08-12T08:03:15Z</time>
      </trkpt>
      <trkpt lat="42.3329330" lon="1.9099110">
        <ele>2208.5</ele>
        <time>2015-08-12T08:03:17Z</time>
      </trkpt>
      <trkpt lat="42.3329520" lon="1.9098820">
        <ele>2208.6</ele>
        <time>2015-08-12T08:03:19Z</time>
      </trkpt>
      <trkpt lat="42.3329340" lon="1.9098430">
        <ele>2210.1</ele>
        <time>2015-08-12T08:03:22Z</time>
      </trkpt>
      <trkpt lat="42.3328950" lon="1.9098430">
        <ele>2211.1</ele>
        <time>2015-08-12T08:03:24Z</time>
      </trkpt>
      <trkpt lat="42.3328520" lon="1.9098600">
        <ele>2211.5</ele>
        <time>2015-08-12T08:03:26Z</time>
      </trkpt>
      <trkpt lat="42.3328210" lon="1.9098790">
        <ele>2211.5</ele>
        <time>2015-08-12T08:03:29Z</time>
      </trkpt>
      <trkpt lat="42.3328050" lon="1.9099110">
        <ele>2211.0</ele>
        <time>2015-08-12T08:03:31Z</time>
      </trkpt>
      <trkpt lat="42.3327820" lon="1.9099360">
        <ele>2210.8</ele>
        <time>2015-08-12T08:03:33Z</time>
      </trkpt>
      <trkpt lat="42.3327440" lon="1.9099770">
        <ele>2210.4</ele>
        <time>2015-08-12T08:03:36Z</time>
      </trkpt>
      <trkpt lat="42.3327140" lon="1.9099810">
        <ele>2210.8</ele>
        <time>2015-08-12T08:03:38Z</time>
      </trkpt>
      <trkpt lat="42.3326800" lon="1.9099980">
        <ele>2210.9</ele>
        <time>2015-08-12T08:03:40Z</time>
      </trkpt>
      <trkpt lat="42.3326510" lon="1.9099940">
        <ele>2211.5</ele>
        <time>2015-08-12T08:03:42Z</time>
      </trkpt>
      <trkpt lat="42.3326150" lon="1.9099890">
        <ele>2212.2</ele>
        <time>2015-08-12T08:03:45Z</time>
      </trkpt>
      <trkpt lat="42.3325790" lon="1.9100050">
        <ele>2212.3</ele>
        <time>2015-08-12T08:03:47Z</time>
      </trkpt>
      <trkpt lat="42.3325500" lon="1.9099960">
        <ele>2213.0</ele>
        <time>2015-08-12T08:03:49Z</time>
      </trkpt>
      <trkpt lat="42.3325220" lon="1.9099790">
        <ele>2214.0</ele>
        <time>2015-08-12T08:03:51Z</time>
      </trkpt>
      <trkpt lat="42.3324910" lon="1.9099460">
        <ele>2215.4</ele>
        <time>2015-08-12T08:03:55Z</time>
      </trkpt>
      <trkpt lat="42.3324530" lon="1.9099390">
        <ele>2216.2</ele>
        <time>2015-08-12T08:03:58Z</time>
      </trkpt>
      <trkpt lat="42.3324270" lon="1.9099270">
        <ele>2216.9</ele>
        <time>2015-08-12T08:04:00Z</time>
      </trkpt>
      <trkpt lat="42.3323930" lon="1.9099160">
        <ele>2217.8</ele>
        <time>2015-08-12T08:04:03Z</time>
      </trkpt>
      <trkpt lat="42.3323620" lon="1.9099020">
        <ele>2218.7</ele>
        <time>2015-08-12T08:04:05Z</time>
      </trkpt>
      <trkpt lat="42.3323240" lon="1.9098940">
        <ele>2219.6</ele>
        <time>2015-08-12T08:04:08Z</time>
      </trkpt>
      <trkpt lat="42.3322940" lon="1.9098930">
        <ele>2220.1</ele>
        <time>2015-08-12T08:04:10Z</time>
      </trkpt>
      <trkpt lat="42.3322660" lon="1.9098810">
        <ele>2221.0</ele>
        <time>2015-08-12T08:04:14Z</time>
      </trkpt>
      <trkpt lat="42.3322330" lon="1.9098560">
        <ele>2222.2</ele>
        <time>2015-08-12T08:04:17Z</time>
      </trkpt>
      <trkpt lat="42.3321960" lon="1.9098580">
        <ele>2222.8</ele>
        <time>2015-08-12T08:04:20Z</time>
      </trkpt>
      <trkpt lat="42.3321680" lon="1.9098630">
        <ele>2223.2</ele>
        <time>2015-08-12T08:04:22Z</time>
      </trkpt>
      <trkpt lat="42.3321410" lon="1.9098700">
        <ele>2223.4</ele>
        <time>2015-08-12T08:04:24Z</time>
      </trkpt>
      <trkpt lat="42.3321090" lon="1.9098780">
        <ele>2223.7</ele>
        <time>2015-08-12T08:04:27Z</time>
      </trkpt>
      <trkpt lat="42.3320800" lon="1.9098980">
        <ele>2223.6</ele>
        <time>2015-08-12T08:04:30Z</time>
      </trkpt>
      <trkpt lat="42.3320530" lon="1.9099010">
        <ele>2223.8</ele>
        <time>2015-08-12T08:04:32Z</time>
      </trkpt>
      <trkpt lat="42.3320120" lon="1.9098980">
        <ele>2224.4</ele>
        <time>2015-08-12T08:04:35Z</time>
      </trkpt>
      <trkpt lat="42.3319800" lon="1.9099050">
        <ele>2224.6</ele>
        <time>2015-08-12T08:04:37Z</time>
      </trkpt>
      <trkpt lat="42.3319450" lon="1.9098850">
        <ele>2225.6</ele>
        <time>2015-08-12T08:04:40Z</time>
      </trkpt>
      <trkpt lat="42.3319040" lon="1.9098870">
        <ele>2226.0</ele>
        <time>2015-08-12T08:04:43Z</time>
      </trkpt>
      <trkpt lat="42.3318610" lon="1.9098880">
        <ele>2226.5</ele>
        <time>2015-08-12T08:04:46Z</time>
      </trkpt>
      <trkpt lat="42.3318330" lon="1.9099050">
        <ele>2226.3</ele>
        <time>2015-08-12T08:04:48Z</time>
      </trkpt>
      <trkpt lat="42.3318050" lon="1.9098980">
        <ele>2226.9</ele>
        <time>2015-08-12T08:04:50Z</time>
      </trkpt>
      <trkpt lat="42.3317630" lon="1.9099140">
        <ele>2226.9</ele>
        <time>2015-08-12T08:04:54Z</time>
      </trkpt>
      <trkpt lat="42.3317360" lon="1.9099250">
        <ele>2226.9</ele>
        <time>2015-08-12T08:04:56Z</time>
      </trkpt>
      <trkpt lat="42.3317020" lon="1.9099310">
        <ele>2227.2</ele>
        <time>2015-08-12T08:04:59Z</time>
      </trkpt>
      <trkpt lat="42.3316670" lon="1.9099540">
        <ele>2227.0</ele>
        <time>2015-08-12T08:05:01Z</time>
      </trkpt>
      <trkpt lat="42.3316370" lon="1.9099590">
        <ele>2227.2</ele>
        <time>2015-08-12T08:05:03Z</time>
      </trkpt>
      <trkpt lat="42.3316070" lon="1.9099850">
        <ele>2226.9</ele>
        <time>2015-08-12T08:05:05Z</time>
      </trkpt>
      <trkpt lat="42.3315820" lon="1.9100090">
        <ele>2226.6</ele>
        <time>2015-08-12T08:05:07Z</time>
      </trkpt>
      <trkpt lat="42.3315590" lon="1.9100340">
        <ele>2226.2</ele>
        <time>2015-08-12T08:05:09Z</time>
      </trkpt>
      <trkpt lat="42.3315300" lon="1.9100650">
        <ele>2225.8</ele>
        <time>2015-08-12T08:05:11Z</time>
      </trkpt>
      <trkpt lat="42.3315030" lon="1.9101070">
        <ele>2225.0</ele>
        <time>2015-08-12T08:05:14Z</time>
      </trkpt>
      <trkpt lat="42.3314680" lon="1.9101260">
        <ele>2225.0</ele>
        <time>2015-08-12T08:05:17Z</time>
      </trkpt>
      <trkpt lat="42.3314370" lon="1.9101520">
        <ele>2224.8</ele>
        <time>2015-08-12T08:05:19Z</time>
      </trkpt>
      <trkpt lat="42.3314070" lon="1.9101840">
        <ele>2224.4</ele>
        <time>2015-08-12T08:05:21Z</time>
      </trkpt>
      <trkpt lat="42.3313850" lon="1.9102050">
        <ele>2224.2</ele>
        <time>2015-08-12T08:05:23Z</time>
      </trkpt>
      <trkpt lat="42.3313480" lon="1.9102110">
        <ele>2224.6</ele>
        <time>2015-08-12T08:05:26Z</time>
      </trkpt>
      <trkpt lat="42.3313200" lon="1.9102180">
        <ele>2224.8</ele>
        <time>2015-08-12T08:05:28Z</time>
      </trkpt>
      <trkpt lat="42.3312930" lon="1.9101870">
        <ele>2225.9</ele>
        <time>2015-08-12T08:05:31Z</time>
      </trkpt>
      <trkpt lat="42.3312550" lon="1.9101880">
        <ele>2226.4</ele>
        <time>2015-08-12T08:05:33Z</time>
      </trkpt>
      <trkpt lat="42.3312150" lon="1.9101900">
        <ele>2226.6</ele>
        <time>2015-08-12T08:05:35Z</time>
      </trkpt>
      <trkpt lat="42.3311890" lon="1.9101680">
        <ele>2227.2</ele>
        <time>2015-08-12T08:05:38Z</time>
      </trkpt>
      <trkpt lat="42.3311540" lon="1.9101640">
        <ele>2227.4</ele>
        <time>2015-08-12T08:05:41Z</time>
      </trkpt>
      <trkpt lat="42.3311320" lon="1.9101430">
        <ele>2227.9</ele>
        <time>2015-08-12T08:05:43Z</time>
      </trkpt>
      <trkpt lat="42.3311050" lon="1.9101400">
        <ele>2228.1</ele>
        <time>2015-08-12T08:05:46Z</time>
      </trkpt>
      <trkpt lat="42.3310780" lon="1.9101330">
        <ele>2228.4</ele>
        <time>2015-08-12T08:05:48Z</time>
      </trkpt>
      <trkpt lat="42.3310440" lon="1.9101230">
        <ele>2228.7</ele>
        <time>2015-08-12T08:05:52Z</time>
      </trkpt>
      <trkpt lat="42.3310150" lon="1.9101150">
        <ele>2229.0</ele>
        <time>2015-08-12T08:05:55Z</time>
      </trkpt>
      <trkpt lat="42.3309890" lon="1.9100970">
        <ele>2229.5</ele>
        <time>2015-08-12T08:05:58Z</time>
      </trkpt>
      <trkpt lat="42.3309550" lon="1.9100830">
        <ele>2229.9</ele>
        <time>2015-08-12T08:06:01Z</time>
      </trkpt>
      <trkpt lat="42.3309180" lon="1.9100840">
        <ele>2230.0</ele>
        <time>2015-08-12T08:06:04Z</time>
      </trkpt>
      <trkpt lat="42.3308830" lon="1.9100500">
        <ele>2230.9</ele>
        <time>2015-08-12T08:06:07Z</time>
      </trkpt>
      <trkpt lat="42.3308580" lon="1.9100270">
        <ele>2231.5</ele>
        <time>2015-08-12T08:06:11Z</time>
      </trkpt>
      <trkpt lat="42.3308280" lon="1.9100090">
        <ele>2232.1</ele>
        <time>2015-08-12T08:06:14Z</time>
      </trkpt>
      <trkpt lat="42.3308050" lon="1.9099690">
        <ele>2233.1</ele>
        <time>2015-08-12T08:06:17Z</time>
      </trkpt>
      <trkpt lat="42.3307760" lon="1.9099510">
        <ele>2233.6</ele>
        <time>2015-08-12T08:06:19Z</time>
      </trkpt>
      <trkpt lat="42.3307440" lon="1.9099320">
        <ele>2234.1</ele>
        <time>2015-08-12T08:06:22Z</time>
      </trkpt>
      <trkpt lat="42.3307130" lon="1.9099260">
        <ele>2234.3</ele>
        <time>2015-08-12T08:06:25Z</time>
      </trkpt>
      <trkpt lat="42.3306930" lon="1.9098900">
        <ele>2235.2</ele>
        <time>2015-08-12T08:06:29Z</time>
      </trkpt>
      <trkpt lat="42.3306630" lon="1.9098670">
        <ele>2235.8</ele>
        <time>2015-08-12T08:06:31Z</time>
      </trkpt>
      <trkpt lat="42.3306460" lon="1.9098270">
        <ele>2236.8</ele>
        <time>2015-08-12T08:11:14Z</time>
      </trkpt>
      <trkpt lat="42.3306320" lon="1.9097900">
        <ele>2237.7</ele>
        <time>2015-08-12T08:11:15Z</time>
      </trkpt>
      <trkpt lat="42.3306130" lon="1.9097490">
        <ele>2238.7</ele>
        <time>2015-08-12T08:11:17Z</time>
      </trkpt>
      <trkpt lat="42.3305940" lon="1.9097130">
        <ele>2239.6</ele>
        <time>2015-08-12T08:11:19Z</time>
      </trkpt>
      <trkpt lat="42.3305640" lon="1.9096800">
        <ele>2240.4</ele>
        <time>2015-08-12T08:11:21Z</time>
      </trkpt>
      <trkpt lat="42.3305480" lon="1.9096420">
        <ele>2241.3</ele>
        <time>2015-08-12T08:11:24Z</time>
      </trkpt>
      <trkpt lat="42.3305300" lon="1.9096090">
        <ele>2242.1</ele>
        <time>2015-08-12T08:11:26Z</time>
      </trkpt>
      <trkpt lat="42.3305000" lon="1.9095730">
        <ele>2243.0</ele>
        <time>2015-08-12T08:11:28Z</time>
      </trkpt>
      <trkpt lat="42.3304770" lon="1.9095280">
        <ele>2243.9</ele>
        <time>2015-08-12T08:11:30Z</time>
      </trkpt>
      <trkpt lat="42.3304770" lon="1.9094900">
        <ele>2244.6</ele>
        <time>2015-08-12T08:11:32Z</time>
      </trkpt>
      <trkpt lat="42.3304590" lon="1.9094470">
        <ele>2245.4</ele>
        <time>2015-08-12T08:11:35Z</time>
      </trkpt>
      <trkpt lat="42.3304540" lon="1.9094030">
        <ele>2246.2</ele>
        <time>2015-08-12T08:11:38Z</time>
      </trkpt>
      <trkpt lat="42.3304430" lon="1.9093520">
        <ele>2247.1</ele>
        <time>2015-08-12T08:11:41Z</time>
      </trkpt>
      <trkpt lat="42.3304190" lon="1.9093240">
        <ele>2247.7</ele>
        <time>2015-08-12T08:11:44Z</time>
      </trkpt>
      <trkpt lat="42.3304100" lon="1.9092700">
        <ele>2248.7</ele>
        <time>2015-08-12T08:11:48Z</time>
      </trkpt>
      <trkpt lat="42.3303810" lon="1.9092440">
        <ele>2249.5</ele>
        <time>2015-08-12T08:11:51Z</time>
      </trkpt>
      <trkpt lat="42.3303670" lon="1.9092100">
        <ele>2250.2</ele>
        <time>2015-08-12T08:11:53Z</time>
      </trkpt>
      <trkpt lat="42.3303520" lon="1.9091730">
        <ele>2251.0</ele>
        <time>2015-08-12T08:11:55Z</time>
      </trkpt>
      <trkpt lat="42.3303260" lon="1.9091320">
        <ele>2252.0</ele>
        <time>2015-08-12T08:11:58Z</time>
      </trkpt>
      <trkpt lat="42.3303070" lon="1.9090890">
        <ele>2253.0</ele>
        <time>2015-08-12T08:12:01Z</time>
      </trkpt>
      <trkpt lat="42.3302840" lon="1.9090710">
        <ele>2253.5</ele>
        <time>2015-08-12T08:12:04Z</time>
      </trkpt>
      <trkpt lat="42.3302520" lon="1.9090410">
        <ele>2254.4</ele>
        <time>2015-08-12T08:12:07Z</time>
      </trkpt>
      <trkpt lat="42.3302280" lon="1.9090040">
        <ele>2255.2</ele>
        <time>2015-08-12T08:12:11Z</time>
      </trkpt>
      <trkpt lat="42.3302030" lon="1.9089860">
        <ele>2255.8</ele>
        <time>2015-08-12T08:12:14Z</time>
      </trkpt>
      <trkpt lat="42.3301710" lon="1.9089720">
        <ele>2256.3</ele>
        <time>2015-08-12T08:12:16Z</time>
      </trkpt>
      <trkpt lat="42.3301520" lon="1.9089450">
        <ele>2256.9</ele>
        <time>2015-08-12T08:12:19Z</time>
      </trkpt>
      <trkpt lat="42.3301340" lon="1.9089130">
        <ele>2257.6</ele>
        <time>2015-08-12T08:12:23Z</time>
      </trkpt>
      <trkpt lat="42.3301080" lon="1.9088830">
        <ele>2258.4</ele>
        <time>2015-08-12T08:12:26Z</time>
      </trkpt>
      <trkpt lat="42.3300790" lon="1.9088590">
        <ele>2259.0</ele>
        <time>2015-08-12T08:12:30Z</time>
      </trkpt>
      <trkpt lat="42.3300570" lon="1.9088330">
        <ele>2259.7</ele>
        <time>2015-08-12T08:12:33Z</time>
      </trkpt>
      <trkpt lat="42.3300320" lon="1.9088100">
        <ele>2260.3</ele>
        <time>2015-08-12T08:12:36Z</time>
      </trkpt>
      <trkpt lat="42.3300070" lon="1.9087850">
        <ele>2260.9</ele>
        <time>2015-08-12T08:12:39Z</time>
      </trkpt>
      <trkpt lat="42.3299860" lon="1.9087540">
        <ele>2261.6</ele>
        <time>2015-08-12T08:12:43Z</time>
      </trkpt>
      <trkpt lat="42.3299610" lon="1.9087390">
        <ele>2262.0</ele>
        <time>2015-08-12T08:12:46Z</time>
      </trkpt>
      <trkpt lat="42.3299260" lon="1.9087390">
        <ele>2262.3</ele>
        <time>2015-08-12T08:12:50Z</time>
      </trkpt>
      <trkpt lat="42.3299250" lon="1.9086960">
        <ele>2262.9</ele>
        <time>2015-08-12T08:12:52Z</time>
      </trkpt>
      <trkpt lat="42.3298990" lon="1.9086530">
        <ele>2263.7</ele>
        <time>2015-08-12T08:12:55Z</time>
      </trkpt>
      <trkpt lat="42.3298700" lon="1.9086300">
        <ele>2264.2</ele>
        <time>2015-08-12T08:12:57Z</time>
      </trkpt>
      <trkpt lat="42.3298490" lon="1.9085990">
        <ele>2264.7</ele>
        <time>2015-08-12T08:13:00Z</time>
      </trkpt>
      <trkpt lat="42.3298250" lon="1.9085730">
        <ele>2265.3</ele>
        <time>2015-08-12T08:13:03Z</time>
      </trkpt>
      <trkpt lat="42.3298010" lon="1.9085580">
        <ele>2265.6</ele>
        <time>2015-08-12T08:13:06Z</time>
      </trkpt>
      <trkpt lat="42.3297940" lon="1.9085080">
        <ele>2266.3</ele>
        <time>2015-08-12T08:15:53Z</time>
      </trkpt>
      <trkpt lat="42.3297710" lon="1.9084740">
        <ele>2266.9</ele>
        <time>2015-08-12T08:15:56Z</time>
      </trkpt>
      <trkpt lat="42.3297430" lon="1.9084410">
        <ele>2267.4</ele>
        <time>2015-08-12T08:15:59Z</time>
      </trkpt>
      <trkpt lat="42.3297200" lon="1.9084120">
        <ele>2267.9</ele>
        <time>2015-08-12T08:16:02Z</time>
      </trkpt>
      <trkpt lat="42.3296970" lon="1.9083780">
        <ele>2268.4</ele>
        <time>2015-08-12T08:16:05Z</time>
      </trkpt>
      <trkpt lat="42.3296690" lon="1.9083350">
        <ele>2269.1</ele>
        <time>2015-08-12T08:16:08Z</time>
      </trkpt>
      <trkpt lat="42.3296510" lon="1.9083000">
        <ele>2269.6</ele>
        <time>2015-08-12T08:16:11Z</time>
      </trkpt>
      <trkpt lat="42.3296440" lon="1.9082610">
        <ele>2270.0</ele>
        <time>2015-08-12T08:16:14Z</time>
      </trkpt>
      <trkpt lat="42.3296150" lon="1.9082340">
        <ele>2270.4</ele>
        <time>2015-08-12T08:16:17Z</time>
      </trkpt>
      <trkpt lat="42.3295960" lon="1.9081980">
        <ele>2270.9</ele>
        <time>2015-08-12T08:16:20Z</time>
      </trkpt>
      <trkpt lat="42.3295800" lon="1.9081680">
        <ele>2271.3</ele>
        <time>2015-08-12T08:16:23Z</time>
      </trkpt>
      <trkpt lat="42.3295560" lon="1.9081250">
        <ele>2272.1</ele>
        <time>2015-08-12T08:16:26Z</time>
      </trkpt>
      <trkpt lat="42.3295360" lon="1.9080980">
        <ele>2272.6</ele>
        <time>2015-08-12T08:16:28Z</time>
      </trkpt>
      <trkpt lat="42.3295170" lon="1.9080610">
        <ele>2273.2</ele>
        <time>2015-08-12T08:16:30Z</time>
      </trkpt>
      <trkpt lat="42.3294970" lon="1.9080200">
        <ele>2273.8</ele>
        <time>2015-08-12T08:16:32Z</time>
      </trkpt>
      <trkpt lat="42.3294810" lon="1.9079800">
        <ele>2274.3</ele>
        <time>2015-08-12T08:16:34Z</time>
      </trkpt>
      <trkpt lat="42.3294600" lon="1.9079430">
        <ele>2274.8</ele>
        <time>2015-08-12T08:16:37Z</time>
      </trkpt>
      <trkpt lat="42.3294390" lon="1.9079100">
        <ele>2275.3</ele>
        <time>2015-08-12T08:16:40Z</time>
      </trkpt>
      <trkpt lat="42.3294140" lon="1.9078750">
        <ele>2275.8</ele>
        <time>2015-08-12T08:16:43Z</time>
      </trkpt>
      <trkpt lat="42.3293860" lon="1.9078260">
        <ele>2276.5</ele>
        <time>2015-08-12T08:16:45Z</time>
      </trkpt>
      <trkpt lat="42.3293660" lon="1.9077780">
        <ele>2277.1</ele>
        <time>2015-08-12T08:16:47Z</time>
      </trkpt>
      <trkpt lat="42.3293510" lon="1.9077430">
        <ele>2277.5</ele>
        <time>2015-08-12T08:16:50Z</time>
      </trkpt>
      <trkpt lat="42.3293350" lon="1.9077040">
        <ele>2277.9</ele>
        <time>2015-08-12T08:16:58Z</time>
      </trkpt>
      <trkpt lat="42.3293150" lon="1.9076710">
        <ele>2278.3</ele>
        <time>2015-08-12T08:17:07Z</time>
      </trkpt>
      <trkpt lat="42.3293010" lon="1.9076380">
        <ele>2278.7</ele>
        <time>2015-08-12T08:17:16Z</time>
      </trkpt>
      <trkpt lat="42.3292790" lon="1.9076110">
        <ele>2279.1</ele>
        <time>2015-08-12T08:17:20Z</time>
      </trkpt>
      <trkpt lat="42.3292600" lon="1.9075820">
        <ele>2279.4</ele>
        <time>2015-08-12T08:17:25Z</time>
      </trkpt>
      <trkpt lat="42.3292380" lon="1.9075550">
        <ele>2279.7</ele>
        <time>2015-08-12T08:17:34Z</time>
      </trkpt>
      <trkpt lat="42.3292220" lon="1.9075230">
        <ele>2280.1</ele>
        <time>2015-08-12T08:17:40Z</time>
      </trkpt>
      <trkpt lat="42.3292070" lon="1.9074910">
        <ele>2280.4</ele>
        <time>2015-08-12T08:17:45Z</time>
      </trkpt>
      <trkpt lat="42.3291870" lon="1.9074560">
        <ele>2280.7</ele>
        <time>2015-08-12T08:17:50Z</time>
      </trkpt>
      <trkpt lat="42.3291620" lon="1.9074240">
        <ele>2281.1</ele>
        <time>2015-08-12T08:17:57Z</time>
      </trkpt>
      <trkpt lat="42.3291400" lon="1.9073910">
        <ele>2281.4</ele>
        <time>2015-08-12T08:18:02Z</time>
      </trkpt>
      <trkpt lat="42.3291270" lon="1.9073540">
        <ele>2281.7</ele>
        <time>2015-08-12T08:18:07Z</time>
      </trkpt>
      <trkpt lat="42.3291030" lon="1.9073220">
        <ele>2282.0</ele>
        <time>2015-08-12T08:18:11Z</time>
      </trkpt>
      <trkpt lat="42.3290840" lon="1.9072930">
        <ele>2282.2</ele>
        <time>2015-08-12T08:18:16Z</time>
      </trkpt>
      <trkpt lat="42.3290650" lon="1.9072620">
        <ele>2282.5</ele>
        <time>2015-08-12T08:18:22Z</time>
      </trkpt>
      <trkpt lat="42.3290450" lon="1.9072300">
        <ele>2282.7</ele>
        <time>2015-08-12T08:18:26Z</time>
      </trkpt>
      <trkpt lat="42.3290250" lon="1.9071930">
        <ele>2283.0</ele>
        <time>2015-08-12T08:18:33Z</time>
      </trkpt>
      <trkpt lat="42.3290060" lon="1.9071610">
        <ele>2283.2</ele>
        <time>2015-08-12T08:18:38Z</time>
      </trkpt>
      <trkpt lat="42.3289860" lon="1.9071290">
        <ele>2283.5</ele>
        <time>2015-08-12T08:18:44Z</time>
      </trkpt>
      <trkpt lat="42.3289790" lon="1.9070930">
        <ele>2283.7</ele>
        <time>2015-08-12T08:18:49Z</time>
      </trkpt>
      <trkpt lat="42.3289660" lon="1.9070510">
        <ele>2284.0</ele>
        <time>2015-08-12T08:18:53Z</time>
      </trkpt>
      <trkpt lat="42.3289420" lon="1.9070300">
        <ele>2284.2</ele>
        <time>2015-08-12T08:19:07Z</time>
      </trkpt>
      <trkpt lat="42.3289320" lon="1.9069950">
        <ele>2284.5</ele>
        <time>2015-08-12T08:19:11Z</time>
      </trkpt>
      <trkpt lat="42.3289070" lon="1.9069700">
        <ele>2284.7</ele>
        <time>2015-08-12T08:19:16Z</time>
      </trkpt>
      <trkpt lat="42.3288880" lon="1.9069400">
        <ele>2285.0</ele>
        <time>2015-08-12T08:19:20Z</time>
      </trkpt>
      <trkpt lat="42.3288720" lon="1.9069060">
        <ele>2285.3</ele>
        <time>2015-08-12T08:19:25Z</time>
      </trkpt>
      <trkpt lat="42.3288550" lon="1.9068620">
        <ele>2285.7</ele>
        <time>2015-08-12T08:19:32Z</time>
      </trkpt>
      <trkpt lat="42.3288360" lon="1.9068340">
        <ele>2286.0</ele>
        <time>2015-08-12T08:19:36Z</time>
      </trkpt>
      <trkpt lat="42.3288240" lon="1.9067950">
        <ele>2286.3</ele>
        <time>2015-08-12T08:19:42Z</time>
      </trkpt>
      <trkpt lat="42.3288260" lon="1.9067530">
        <ele>2286.6</ele>
        <time>2015-08-12T08:19:45Z</time>
      </trkpt>
      <trkpt lat="42.3288250" lon="1.9067090">
        <ele>2287.0</ele>
        <time>2015-08-12T08:19:49Z</time>
      </trkpt>
      <trkpt lat="42.3287870" lon="1.9066810">
        <ele>2287.3</ele>
        <time>2015-08-12T08:20:23Z</time>
      </trkpt>
      <trkpt lat="42.3287920" lon="1.9066270">
        <ele>2287.8</ele>
        <time>2015-08-12T08:20:28Z</time>
      </trkpt>
      <trkpt lat="42.3287690" lon="1.9065820">
        <ele>2288.2</ele>
        <time>2015-08-12T08:20:30Z</time>
      </trkpt>
      <trkpt lat="42.3287640" lon="1.9065380">
        <ele>2288.6</ele>
        <time>2015-08-12T08:20:33Z</time>
      </trkpt>
      <trkpt lat="42.3287490" lon="1.9065030">
        <ele>2288.9</ele>
        <time>2015-08-12T08:20:35Z</time>
      </trkpt>
      <trkpt lat="42.3287250" lon="1.9064640">
        <ele>2289.4</ele>
        <time>2015-08-12T08:20:38Z</time>
      </trkpt>
      <trkpt lat="42.3287030" lon="1.9064300">
        <ele>2289.8</ele>
        <time>2015-08-12T08:20:41Z</time>
      </trkpt>
      <trkpt lat="42.3287000" lon="1.9063920">
        <ele>2290.2</ele>
        <time>2015-08-12T08:20:44Z</time>
      </trkpt>
      <trkpt lat="42.3286680" lon="1.9063700">
        <ele>2290.6</ele>
        <time>2015-08-12T08:20:46Z</time>
      </trkpt>
      <trkpt lat="42.3286520" lon="1.9063370">
        <ele>2291.0</ele>
        <time>2015-08-12T08:20:49Z</time>
      </trkpt>
      <trkpt lat="42.3286400" lon="1.9062970">
        <ele>2291.5</ele>
        <time>2015-08-12T08:20:53Z</time>
      </trkpt>
      <trkpt lat="42.3286160" lon="1.9062630">
        <ele>2292.0</ele>
        <time>2015-08-12T08:20:56Z</time>
      </trkpt>
      <trkpt lat="42.3285970" lon="1.9062290">
        <ele>2292.2</ele>
        <time>2015-08-12T08:20:59Z</time>
      </trkpt>
      <trkpt lat="42.3285750" lon="1.9062040">
        <ele>2292.4</ele>
        <time>2015-08-12T08:21:01Z</time>
      </trkpt>
      <trkpt lat="42.3285540" lon="1.9061720">
        <ele>2292.5</ele>
        <time>2015-08-12T08:21:03Z</time>
      </trkpt>
      <trkpt lat="42.3285280" lon="1.9061410">
        <ele>2292.8</ele>
        <time>2015-08-12T08:21:06Z</time>
      </trkpt>
      <trkpt lat="42.3285310" lon="1.9060940">
        <ele>2292.7</ele>
        <time>2015-08-12T08:21:08Z</time>
      </trkpt>
      <trkpt lat="42.3285140" lon="1.9060400">
        <ele>2292.8</ele>
        <time>2015-08-12T08:21:11Z</time>
      </trkpt>
      <trkpt lat="42.3284780" lon="1.9060030">
        <ele>2293.3</ele>
        <time>2015-08-12T08:21:15Z</time>
      </trkpt>
      <trkpt lat="42.3284600" lon="1.9059700">
        <ele>2293.5</ele>
        <time>2015-08-12T08:21:17Z</time>
      </trkpt>
      <trkpt lat="42.3284600" lon="1.9059260">
        <ele>2293.5</ele>
        <time>2015-08-12T08:21:36Z</time>
      </trkpt>
      <trkpt lat="42.3284780" lon="1.9058940">
        <ele>2293.2</ele>
        <time>2015-08-12T08:23:42Z</time>
      </trkpt>
      <trkpt lat="42.3284510" lon="1.9059010">
        <ele>2293.6</ele>
        <time>2015-08-12T08:27:02Z</time>
      </trkpt>
      <trkpt lat="42.3284800" lon="1.9058910">
        <ele>2293.2</ele>
        <time>2015-08-12T08:29:24Z</time>
      </trkpt>
      <trkpt lat="42.3284550" lon="1.9059050">
        <ele>2293.6</ele>
        <time>2015-08-12T08:42:07Z</time>
      </trkpt>
      <trkpt lat="42.3284440" lon="1.9058570">
        <ele>2293.8</ele>
        <time>2015-08-12T08:42:40Z</time>
      </trkpt>
      <trkpt lat="42.3284230" lon="1.9058330">
        <ele>2294.1</ele>
        <time>2015-08-12T08:43:08Z</time>
      </trkpt>
      <trkpt lat="42.3284050" lon="1.9057880">
        <ele>2294.4</ele>
        <time>2015-08-12T08:43:48Z</time>
      </trkpt>
      <trkpt lat="42.3284020" lon="1.9057510">
        <ele>2294.5</ele>
        <time>2015-08-12T08:43:51Z</time>
      </trkpt>
      <trkpt lat="42.3283790" lon="1.9057200">
        <ele>2295.0</ele>
        <time>2015-08-12T08:43:53Z</time>
      </trkpt>
      <trkpt lat="42.3283460" lon="1.9056740">
        <ele>2295.6</ele>
        <time>2015-08-12T08:43:55Z</time>
      </trkpt>
      <trkpt lat="42.3283110" lon="1.9056200">
        <ele>2296.4</ele>
        <time>2015-08-12T08:43:57Z</time>
      </trkpt>
      <trkpt lat="42.3282840" lon="1.9056120">
        <ele>2297.0</ele>
        <time>2015-08-12T08:43:58Z</time>
      </trkpt>
      <trkpt lat="42.3282900" lon="1.9056480">
        <ele>2296.8</ele>
        <time>2015-08-12T08:44:00Z</time>
      </trkpt>
      <trkpt lat="42.3282780" lon="1.9056110">
        <ele>2297.1</ele>
        <time>2015-08-12T08:44:02Z</time>
      </trkpt>
      <trkpt lat="42.3282760" lon="1.9055630">
        <ele>2297.3</ele>
        <time>2015-08-12T08:44:04Z</time>
      </trkpt>
      <trkpt lat="42.3282860" lon="1.9055120">
        <ele>2297.3</ele>
        <time>2015-08-12T08:44:06Z</time>
      </trkpt>
      <trkpt lat="42.3282500" lon="1.9054950">
        <ele>2298.1</ele>
        <time>2015-08-12T08:44:08Z</time>
      </trkpt>
      <trkpt lat="42.3282280" lon="1.9054560">
        <ele>2298.7</ele>
        <time>2015-08-12T08:44:10Z</time>
      </trkpt>
      <trkpt lat="42.3281990" lon="1.9054190">
        <ele>2299.6</ele>
        <time>2015-08-12T08:44:13Z</time>
      </trkpt>
      <trkpt lat="42.3281660" lon="1.9053980">
        <ele>2300.2</ele>
        <time>2015-08-12T08:44:16Z</time>
      </trkpt>
      <trkpt lat="42.3281370" lon="1.9053640">
        <ele>2300.7</ele>
        <time>2015-08-12T08:44:19Z</time>
      </trkpt>
      <trkpt lat="42.3281080" lon="1.9053330">
        <ele>2301.3</ele>
        <time>2015-08-12T08:44:22Z</time>
      </trkpt>
      <trkpt lat="42.3280490" lon="1.9053240">
        <ele>2302.6</ele>
        <time>2015-08-12T08:44:25Z</time>
      </trkpt>
      <trkpt lat="42.3280080" lon="1.9053030">
        <ele>2303.4</ele>
        <time>2015-08-12T08:44:27Z</time>
      </trkpt>
      <trkpt lat="42.3280120" lon="1.9052640">
        <ele>2303.1</ele>
        <time>2015-08-12T08:44:28Z</time>
      </trkpt>
      <trkpt lat="42.3279990" lon="1.9052270">
        <ele>2303.2</ele>
        <time>2015-08-12T08:44:29Z</time>
      </trkpt>
      <trkpt lat="42.3279690" lon="1.9051830">
        <ele>2303.7</ele>
        <time>2015-08-12T08:44:32Z</time>
      </trkpt>
      <trkpt lat="42.3279520" lon="1.9051470">
        <ele>2303.9</ele>
        <time>2015-08-12T08:44:34Z</time>
      </trkpt>
      <trkpt lat="42.3279240" lon="1.9051330">
        <ele>2304.5</ele>
        <time>2015-08-12T08:44:37Z</time>
      </trkpt>
      <trkpt lat="42.3278920" lon="1.9051150">
        <ele>2305.2</ele>
        <time>2015-08-12T08:44:41Z</time>
      </trkpt>
      <trkpt lat="42.3278640" lon="1.9051100">
        <ele>2305.8</ele>
        <time>2015-08-12T08:44:44Z</time>
      </trkpt>
      <trkpt lat="42.3278440" lon="1.9050750">
        <ele>2306.2</ele>
        <time>2015-08-12T08:44:47Z</time>
      </trkpt>
      <trkpt lat="42.3278090" lon="1.9050460">
        <ele>2306.9</ele>
        <time>2015-08-12T08:44:51Z</time>
      </trkpt>
      <trkpt lat="42.3277790" lon="1.9050380">
        <ele>2307.7</ele>
        <time>2015-08-12T08:44:55Z</time>
      </trkpt>
      <trkpt lat="42.3277520" lon="1.9050140">
        <ele>2308.3</ele>
        <time>2015-08-12T08:44:58Z</time>
      </trkpt>
      <trkpt lat="42.3277330" lon="1.9049760">
        <ele>2308.7</ele>
        <time>2015-08-12T08:45:01Z</time>
      </trkpt>
      <trkpt lat="42.3277250" lon="1.9049360">
        <ele>2308.8</ele>
        <time>2015-08-12T08:45:03Z</time>
      </trkpt>
      <trkpt lat="42.3276980" lon="1.9049130">
        <ele>2309.4</ele>
        <time>2015-08-12T08:45:06Z</time>
      </trkpt>
      <trkpt lat="42.3276770" lon="1.9048760">
        <ele>2309.9</ele>
        <time>2015-08-12T08:45:13Z</time>
      </trkpt>
      <trkpt lat="42.3276540" lon="1.9048440">
        <ele>2310.4</ele>
        <time>2015-08-12T08:45:16Z</time>
      </trkpt>
      <trkpt lat="42.3276170" lon="1.9048310">
        <ele>2311.4</ele>
        <time>2015-08-12T08:45:19Z</time>
      </trkpt>
      <trkpt lat="42.3276010" lon="1.9048010">
        <ele>2311.8</ele>
        <time>2015-08-12T08:45:23Z</time>
      </trkpt>
      <trkpt lat="42.3275800" lon="1.9047720">
        <ele>2312.4</ele>
        <time>2015-08-12T08:45:27Z</time>
      </trkpt>
      <trkpt lat="42.3275620" lon="1.9047410">
        <ele>2312.8</ele>
        <time>2015-08-12T08:45:30Z</time>
      </trkpt>
      <trkpt lat="42.3275370" lon="1.9047110">
        <ele>2313.5</ele>
        <time>2015-08-12T08:45:33Z</time>
      </trkpt>
      <trkpt lat="42.3275220" lon="1.9046790">
        <ele>2313.9</ele>
        <time>2015-08-12T08:45:36Z</time>
      </trkpt>
      <trkpt lat="42.3274950" lon="1.9046590">
        <ele>2314.7</ele>
        <time>2015-08-12T08:45:39Z</time>
      </trkpt>
      <trkpt lat="42.3274720" lon="1.9046410">
        <ele>2315.4</ele>
        <time>2015-08-12T08:45:41Z</time>
      </trkpt>
      <trkpt lat="42.3274500" lon="1.9046000">
        <ele>2316.0</ele>
        <time>2015-08-12T08:45:45Z</time>
      </trkpt>
      <trkpt lat="42.3274170" lon="1.9045760">
        <ele>2317.0</ele>
        <time>2015-08-12T08:45:48Z</time>
      </trkpt>
      <trkpt lat="42.3273910" lon="1.9045550">
        <ele>2317.7</ele>
        <time>2015-08-12T08:45:51Z</time>
      </trkpt>
      <trkpt lat="42.3273580" lon="1.9045260">
        <ele>2318.7</ele>
        <time>2015-08-12T08:45:55Z</time>
      </trkpt>
      <trkpt lat="42.3273360" lon="1.9045010">
        <ele>2319.3</ele>
        <time>2015-08-12T08:45:58Z</time>
      </trkpt>
      <trkpt lat="42.3273150" lon="1.9044740">
        <ele>2319.8</ele>
        <time>2015-08-12T08:46:01Z</time>
      </trkpt>
      <trkpt lat="42.3272940" lon="1.9044450">
        <ele>2320.4</ele>
        <time>2015-08-12T08:46:04Z</time>
      </trkpt>
      <trkpt lat="42.3272750" lon="1.9044130">
        <ele>2320.8</ele>
        <time>2015-08-12T08:46:08Z</time>
      </trkpt>
      <trkpt lat="42.3272500" lon="1.9043730">
        <ele>2321.4</ele>
        <time>2015-08-12T08:46:55Z</time>
      </trkpt>
      <trkpt lat="42.3272110" lon="1.9043530">
        <ele>2322.4</ele>
        <time>2015-08-12T08:47:01Z</time>
      </trkpt>
      <trkpt lat="42.3271820" lon="1.9043150">
        <ele>2323.1</ele>
        <time>2015-08-12T08:47:04Z</time>
      </trkpt>
      <trkpt lat="42.3271470" lon="1.9042940">
        <ele>2323.9</ele>
        <time>2015-08-12T08:47:07Z</time>
      </trkpt>
      <trkpt lat="42.3271140" lon="1.9042630">
        <ele>2324.7</ele>
        <time>2015-08-12T08:47:10Z</time>
      </trkpt>
      <trkpt lat="42.3270890" lon="1.9042290">
        <ele>2325.2</ele>
        <time>2015-08-12T08:47:14Z</time>
      </trkpt>
      <trkpt lat="42.3270580" lon="1.9042120">
        <ele>2325.5</ele>
        <time>2015-08-12T08:47:17Z</time>
      </trkpt>
      <trkpt lat="42.3270290" lon="1.9041930">
        <ele>2325.8</ele>
        <time>2015-08-12T08:47:21Z</time>
      </trkpt>
      <trkpt lat="42.3269990" lon="1.9041630">
        <ele>2326.0</ele>
        <time>2015-08-12T08:47:24Z</time>
      </trkpt>
      <trkpt lat="42.3269750" lon="1.9041250">
        <ele>2326.2</ele>
        <time>2015-08-12T08:47:28Z</time>
      </trkpt>
      <trkpt lat="42.3269560" lon="1.9041000">
        <ele>2326.3</ele>
        <time>2015-08-12T08:47:30Z</time>
      </trkpt>
      <trkpt lat="42.3269270" lon="1.9040830">
        <ele>2326.6</ele>
        <time>2015-08-12T08:47:33Z</time>
      </trkpt>
      <trkpt lat="42.3268960" lon="1.9040550">
        <ele>2326.9</ele>
        <time>2015-08-12T08:47:36Z</time>
      </trkpt>
      <trkpt lat="42.3268640" lon="1.9040420">
        <ele>2327.3</ele>
        <time>2015-08-12T08:47:39Z</time>
      </trkpt>
      <trkpt lat="42.3268370" lon="1.9040150">
        <ele>2327.5</ele>
        <time>2015-08-12T08:47:42Z</time>
      </trkpt>
      <trkpt lat="42.3268180" lon="1.9039810">
        <ele>2327.7</ele>
        <time>2015-08-12T08:47:45Z</time>
      </trkpt>
      <trkpt lat="42.3267920" lon="1.9039480">
        <ele>2327.9</ele>
        <time>2015-08-12T08:47:48Z</time>
      </trkpt>
      <trkpt lat="42.3267640" lon="1.9039160">
        <ele>2328.2</ele>
        <time>2015-08-12T08:47:51Z</time>
      </trkpt>
      <trkpt lat="42.3267340" lon="1.9039040">
        <ele>2328.5</ele>
        <time>2015-08-12T08:47:53Z</time>
      </trkpt>
      <trkpt lat="42.3267070" lon="1.9038950">
        <ele>2328.9</ele>
        <time>2015-08-12T08:47:58Z</time>
      </trkpt>
      <trkpt lat="42.3266850" lon="1.9038700">
        <ele>2329.1</ele>
        <time>2015-08-12T08:48:01Z</time>
      </trkpt>
      <trkpt lat="42.3266520" lon="1.9038510">
        <ele>2329.5</ele>
        <time>2015-08-12T08:48:06Z</time>
      </trkpt>
      <trkpt lat="42.3266190" lon="1.9038340">
        <ele>2329.9</ele>
        <time>2015-08-12T08:48:11Z</time>
      </trkpt>
      <trkpt lat="42.3265860" lon="1.9038110">
        <ele>2330.3</ele>
        <time>2015-08-12T08:48:15Z</time>
      </trkpt>
      <trkpt lat="42.3265570" lon="1.9037980">
        <ele>2330.7</ele>
        <time>2015-08-12T08:48:19Z</time>
      </trkpt>
      <trkpt lat="42.3265260" lon="1.9037800">
        <ele>2331.1</ele>
        <time>2015-08-12T08:48:23Z</time>
      </trkpt>
      <trkpt lat="42.3264960" lon="1.9037680">
        <ele>2331.5</ele>
        <time>2015-08-12T08:48:27Z</time>
      </trkpt>
      <trkpt lat="42.3264610" lon="1.9037440">
        <ele>2331.9</ele>
        <time>2015-08-12T08:48:31Z</time>
      </trkpt>
      <trkpt lat="42.3264450" lon="1.9037000">
        <ele>2331.8</ele>
        <time>2015-08-12T08:48:33Z</time>
      </trkpt>
      <trkpt lat="42.3264150" lon="1.9036920">
        <ele>2332.3</ele>
        <time>2015-08-12T08:48:37Z</time>
      </trkpt>
      <trkpt lat="42.3263840" lon="1.9036830">
        <ele>2332.7</ele>
        <time>2015-08-12T08:48:40Z</time>
      </trkpt>
      <trkpt lat="42.3263610" lon="1.9036590">
        <ele>2333.0</ele>
        <time>2015-08-12T08:48:43Z</time>
      </trkpt>
      <trkpt lat="42.3263380" lon="1.9036380">
        <ele>2333.2</ele>
        <time>2015-08-12T08:48:45Z</time>
      </trkpt>
      <trkpt lat="42.3263070" lon="1.9036180">
        <ele>2333.7</ele>
        <time>2015-08-12T08:48:49Z</time>
      </trkpt>
      <trkpt lat="42.3262780" lon="1.9036130">
        <ele>2334.2</ele>
        <time>2015-08-12T08:48:53Z</time>
      </trkpt>
      <trkpt lat="42.3262490" lon="1.9036140">
        <ele>2334.7</ele>
        <time>2015-08-12T08:48:56Z</time>
      </trkpt>
      <trkpt lat="42.3262170" lon="1.9035950">
        <ele>2335.1</ele>
        <time>2015-08-12T08:48:59Z</time>
      </trkpt>
      <trkpt lat="42.3261910" lon="1.9035800">
        <ele>2335.5</ele>
        <time>2015-08-12T08:49:01Z</time>
      </trkpt>
      <trkpt lat="42.3261610" lon="1.9035720">
        <ele>2335.9</ele>
        <time>2015-08-12T08:49:03Z</time>
      </trkpt>
      <trkpt lat="42.3261330" lon="1.9035700">
        <ele>2336.3</ele>
        <time>2015-08-12T08:49:05Z</time>
      </trkpt>
      <trkpt lat="42.3261020" lon="1.9035680">
        <ele>2336.8</ele>
        <time>2015-08-12T08:49:08Z</time>
      </trkpt>
      <trkpt lat="42.3260710" lon="1.9035730">
        <ele>2337.3</ele>
        <time>2015-08-12T08:49:10Z</time>
      </trkpt>
      <trkpt lat="42.3260360" lon="1.9035960">
        <ele>2337.8</ele>
        <time>2015-08-12T08:49:12Z</time>
      </trkpt>
      <trkpt lat="42.3260200" lon="1.9035560">
        <ele>2338.0</ele>
        <time>2015-08-12T08:49:14Z</time>
      </trkpt>
      <trkpt lat="42.3259920" lon="1.9035550">
        <ele>2338.4</ele>
        <time>2015-08-12T08:49:16Z</time>
      </trkpt>
      <trkpt lat="42.3259530" lon="1.9035630">
        <ele>2339.0</ele>
        <time>2015-08-12T08:49:19Z</time>
      </trkpt>
      <trkpt lat="42.3259130" lon="1.9035760">
        <ele>2339.6</ele>
        <time>2015-08-12T08:49:22Z</time>
      </trkpt>
      <trkpt lat="42.3258830" lon="1.9035880">
        <ele>2340.1</ele>
        <time>2015-08-12T08:49:24Z</time>
      </trkpt>
      <trkpt lat="42.3258610" lon="1.9035660">
        <ele>2340.4</ele>
        <time>2015-08-12T08:49:27Z</time>
      </trkpt>
      <trkpt lat="42.3258440" lon="1.9035320">
        <ele>2340.7</ele>
        <time>2015-08-12T08:49:33Z</time>
      </trkpt>
      <trkpt lat="42.3258060" lon="1.9035420">
        <ele>2341.3</ele>
        <time>2015-08-12T08:49:38Z</time>
      </trkpt>
      <trkpt lat="42.3257880" lon="1.9035780">
        <ele>2341.5</ele>
        <time>2015-08-12T08:49:40Z</time>
      </trkpt>
      <trkpt lat="42.3257710" lon="1.9035460">
        <ele>2341.8</ele>
        <time>2015-08-12T08:49:42Z</time>
      </trkpt>
      <trkpt lat="42.3257410" lon="1.9035390">
        <ele>2342.3</ele>
        <time>2015-08-12T08:49:46Z</time>
      </trkpt>
      <trkpt lat="42.3257120" lon="1.9035550">
        <ele>2342.7</ele>
        <time>2015-08-12T08:49:49Z</time>
      </trkpt>
      <trkpt lat="42.3256700" lon="1.9035560">
        <ele>2343.3</ele>
        <time>2015-08-12T08:49:52Z</time>
      </trkpt>
      <trkpt lat="42.3256300" lon="1.9035410">
        <ele>2344.0</ele>
        <time>2015-08-12T08:49:55Z</time>
      </trkpt>
      <trkpt lat="42.3256050" lon="1.9035230">
        <ele>2344.4</ele>
        <time>2015-08-12T08:49:59Z</time>
      </trkpt>
      <trkpt lat="42.3255740" lon="1.9035190">
        <ele>2344.9</ele>
        <time>2015-08-12T08:50:02Z</time>
      </trkpt>
      <trkpt lat="42.3255460" lon="1.9035070">
        <ele>2345.4</ele>
        <time>2015-08-12T08:50:05Z</time>
      </trkpt>
      <trkpt lat="42.3255130" lon="1.9035110">
        <ele>2345.9</ele>
        <time>2015-08-12T08:50:08Z</time>
      </trkpt>
      <trkpt lat="42.3254770" lon="1.9034830">
        <ele>2346.6</ele>
        <time>2015-08-12T08:50:11Z</time>
      </trkpt>
      <trkpt lat="42.3254450" lon="1.9034750">
        <ele>2347.2</ele>
        <time>2015-08-12T08:50:15Z</time>
      </trkpt>
      <trkpt lat="42.3254160" lon="1.9035020">
        <ele>2347.5</ele>
        <time>2015-08-12T08:50:18Z</time>
      </trkpt>
      <trkpt lat="42.3253680" lon="1.9035350">
        <ele>2348.2</ele>
        <time>2015-08-12T08:50:21Z</time>
      </trkpt>
      <trkpt lat="42.3253470" lon="1.9035590">
        <ele>2348.5</ele>
        <time>2015-08-12T08:50:23Z</time>
      </trkpt>
      <trkpt lat="42.3253490" lon="1.9035630">
        <ele>2348.4</ele>
        <time>2015-08-12T08:50:26Z</time>
      </trkpt>
      <trkpt lat="42.3253510" lon="1.9035660">
        <ele>2348.4</ele>
        <time>2015-08-12T08:50:30Z</time>
      </trkpt>
      <trkpt lat="42.3253530" lon="1.9035700">
        <ele>2348.3</ele>
        <time>2015-08-12T08:50:33Z</time>
      </trkpt>
      <trkpt lat="42.3253560" lon="1.9035730">
        <ele>2348.2</ele>
        <time>2015-08-12T08:50:36Z</time>
      </trkpt>
      <trkpt lat="42.3253580" lon="1.9035770">
        <ele>2348.2</ele>
        <time>2015-08-12T08:50:40Z</time>
      </trkpt>
      <trkpt lat="42.3253600" lon="1.9035800">
        <ele>2348.1</ele>
        <time>2015-08-12T08:50:59Z</time>
      </trkpt>
      <trkpt lat="42.3253620" lon="1.9035840">
        <ele>2348.0</ele>
        <time>2015-08-12T08:53:52Z</time>
      </trkpt>
      <trkpt lat="42.3253640" lon="1.9035870">
        <ele>2348.0</ele>
        <time>2015-08-12T08:54:22Z</time>
      </trkpt>
      <trkpt lat="42.3253660" lon="1.9035910">
        <ele>2347.9</ele>
        <time>2015-08-12T08:54:23Z</time>
      </trkpt>
      <trkpt lat="42.3253710" lon="1.9035470">
        <ele>2348.1</ele>
        <time>2015-08-12T08:54:24Z</time>
      </trkpt>
      <trkpt lat="42.3253840" lon="1.9034960">
        <ele>2348.2</ele>
        <time>2015-08-12T08:54:25Z</time>
      </trkpt>
      <trkpt lat="42.3253840" lon="1.9034580">
        <ele>2348.4</ele>
        <time>2015-08-12T08:54:26Z</time>
      </trkpt>
      <trkpt lat="42.3253380" lon="1.9033990">
        <ele>2349.8</ele>
        <time>2015-08-12T08:54:29Z</time>
      </trkpt>
      <trkpt lat="42.3253160" lon="1.9033800">
        <ele>2350.4</ele>
        <time>2015-08-12T08:54:30Z</time>
      </trkpt>
      <trkpt lat="42.3252840" lon="1.9033490">
        <ele>2351.3</ele>
        <time>2015-08-12T08:54:32Z</time>
      </trkpt>
      <trkpt lat="42.3252600" lon="1.9033140">
        <ele>2352.1</ele>
        <time>2015-08-12T08:54:34Z</time>
      </trkpt>
      <trkpt lat="42.3252550" lon="1.9032690">
        <ele>2352.6</ele>
        <time>2015-08-12T08:54:36Z</time>
      </trkpt>
      <trkpt lat="42.3252390" lon="1.9032290">
        <ele>2353.3</ele>
        <time>2015-08-12T08:54:38Z</time>
      </trkpt>
      <trkpt lat="42.3252490" lon="1.9031900">
        <ele>2353.4</ele>
        <time>2015-08-12T08:54:40Z</time>
      </trkpt>
      <trkpt lat="42.3252430" lon="1.9031330">
        <ele>2354.0</ele>
        <time>2015-08-12T08:54:42Z</time>
      </trkpt>
      <trkpt lat="42.3252310" lon="1.9030790">
        <ele>2354.8</ele>
        <time>2015-08-12T08:54:44Z</time>
      </trkpt>
      <trkpt lat="42.3252160" lon="1.9030240">
        <ele>2355.6</ele>
        <time>2015-08-12T08:54:46Z</time>
      </trkpt>
      <trkpt lat="42.3251960" lon="1.9029770">
        <ele>2356.6</ele>
        <time>2015-08-12T08:54:48Z</time>
      </trkpt>
      <trkpt lat="42.3251780" lon="1.9029330">
        <ele>2357.4</ele>
        <time>2015-08-12T08:54:50Z</time>
      </trkpt>
      <trkpt lat="42.3251690" lon="1.9028740">
        <ele>2358.5</ele>
        <time>2015-08-12T08:54:52Z</time>
      </trkpt>
      <trkpt lat="42.3251520" lon="1.9028370">
        <ele>2359.6</ele>
        <time>2015-08-12T08:54:54Z</time>
      </trkpt>
      <trkpt lat="42.3251500" lon="1.9027870">
        <ele>2360.5</ele>
        <time>2015-08-12T08:54:57Z</time>
      </trkpt>
      <trkpt lat="42.3251330" lon="1.9027520">
        <ele>2361.5</ele>
        <time>2015-08-12T08:54:59Z</time>
      </trkpt>
      <trkpt lat="42.3251090" lon="1.9027130">
        <ele>2362.7</ele>
        <time>2015-08-12T08:55:02Z</time>
      </trkpt>
      <trkpt lat="42.3250830" lon="1.9026980">
        <ele>2363.6</ele>
        <time>2015-08-12T08:55:04Z</time>
      </trkpt>
      <trkpt lat="42.3250500" lon="1.9026690">
        <ele>2364.8</ele>
        <time>2015-08-12T08:55:06Z</time>
      </trkpt>
      <trkpt lat="42.3250140" lon="1.9026620">
        <ele>2365.8</ele>
        <time>2015-08-12T08:55:08Z</time>
      </trkpt>
      <trkpt lat="42.3249780" lon="1.9026530">
        <ele>2366.8</ele>
        <time>2015-08-12T08:55:10Z</time>
      </trkpt>
      <trkpt lat="42.3249500" lon="1.9026470">
        <ele>2367.6</ele>
        <time>2015-08-12T08:55:12Z</time>
      </trkpt>
      <trkpt lat="42.3249130" lon="1.9026460">
        <ele>2368.5</ele>
        <time>2015-08-12T08:55:14Z</time>
      </trkpt>
      <trkpt lat="42.3248830" lon="1.9026490">
        <ele>2369.2</ele>
        <time>2015-08-12T08:55:16Z</time>
      </trkpt>
      <trkpt lat="42.3248410" lon="1.9026510">
        <ele>2370.2</ele>
        <time>2015-08-12T08:55:18Z</time>
      </trkpt>
      <trkpt lat="42.3248030" lon="1.9026670">
        <ele>2371.0</ele>
        <time>2015-08-12T08:55:21Z</time>
      </trkpt>
      <trkpt lat="42.3247750" lon="1.9026810">
        <ele>2371.5</ele>
        <time>2015-08-12T08:55:23Z</time>
      </trkpt>
      <trkpt lat="42.3247410" lon="1.9027040">
        <ele>2372.1</ele>
        <time>2015-08-12T08:55:26Z</time>
      </trkpt>
      <trkpt lat="42.3247110" lon="1.9027170">
        <ele>2372.7</ele>
        <time>2015-08-12T08:55:29Z</time>
      </trkpt>
      <trkpt lat="42.3246930" lon="1.9027440">
        <ele>2372.8</ele>
        <time>2015-08-12T08:57:53Z</time>
      </trkpt>
      <trkpt lat="42.3246620" lon="1.9027690">
        <ele>2373.4</ele>
        <time>2015-08-12T08:57:59Z</time>
      </trkpt>
      <trkpt lat="42.3246230" lon="1.9027800">
        <ele>2374.3</ele>
        <time>2015-08-12T08:58:01Z</time>
      </trkpt>
      <trkpt lat="42.3246020" lon="1.9028050">
        <ele>2374.6</ele>
        <time>2015-08-12T08:58:03Z</time>
      </trkpt>
      <trkpt lat="42.3245800" lon="1.9028400">
        <ele>2374.8</ele>
        <time>2015-08-12T08:58:05Z</time>
      </trkpt>
      <trkpt lat="42.3245720" lon="1.9028810">
        <ele>2374.7</ele>
        <time>2015-08-12T08:58:07Z</time>
      </trkpt>
      <trkpt lat="42.3245560" lon="1.9029140">
        <ele>2374.8</ele>
        <time>2015-08-12T08:58:09Z</time>
      </trkpt>
      <trkpt lat="42.3245370" lon="1.9029610">
        <ele>2374.5</ele>
        <time>2015-08-12T08:58:12Z</time>
      </trkpt>
      <trkpt lat="42.3245200" lon="1.9029960">
        <ele>2374.4</ele>
        <time>2015-08-12T08:58:14Z</time>
      </trkpt>
      <trkpt lat="42.3245000" lon="1.9030380">
        <ele>2374.1</ele>
        <time>2015-08-12T08:58:16Z</time>
      </trkpt>
      <trkpt lat="42.3244940" lon="1.9030770">
        <ele>2373.6</ele>
        <time>2015-08-12T08:58:18Z</time>
      </trkpt>
      <trkpt lat="42.3244740" lon="1.9031130">
        <ele>2373.5</ele>
        <time>2015-08-12T08:58:21Z</time>
      </trkpt>
      <trkpt lat="42.3244500" lon="1.9031310">
        <ele>2373.7</ele>
        <time>2015-08-12T08:58:24Z</time>
      </trkpt>
      <trkpt lat="42.3244330" lon="1.9031670">
        <ele>2373.5</ele>
        <time>2015-08-12T08:58:27Z</time>
      </trkpt>
      <trkpt lat="42.3244270" lon="1.9032100">
        <ele>2372.9</ele>
        <time>2015-08-12T08:58:30Z</time>
      </trkpt>
      <trkpt lat="42.3243940" lon="1.9032450">
        <ele>2373.0</ele>
        <time>2015-08-12T08:58:33Z</time>
      </trkpt>
      <trkpt lat="42.3243680" lon="1.9032730">
        <ele>2373.1</ele>
        <time>2015-08-12T08:58:36Z</time>
      </trkpt>
      <trkpt lat="42.3243360" lon="1.9032980">
        <ele>2373.3</ele>
        <time>2015-08-12T08:58:39Z</time>
      </trkpt>
      <trkpt lat="42.3243030" lon="1.9032730">
        <ele>2374.6</ele>
        <time>2015-08-12T08:58:41Z</time>
      </trkpt>
      <trkpt lat="42.3242770" lon="1.9032500">
        <ele>2375.7</ele>
        <time>2015-08-12T08:58:44Z</time>
      </trkpt>
      <trkpt lat="42.3242710" lon="1.9032060">
        <ele>2376.7</ele>
        <time>2015-08-12T08:58:48Z</time>
      </trkpt>
      <trkpt lat="42.3242580" lon="1.9031720">
        <ele>2377.7</ele>
        <time>2015-08-12T08:59:41Z</time>
      </trkpt>
      <trkpt lat="42.3242300" lon="1.9031530">
        <ele>2378.8</ele>
        <time>2015-08-12T08:59:49Z</time>
      </trkpt>
      <trkpt lat="42.3242200" lon="1.9031120">
        <ele>2379.9</ele>
        <time>2015-08-12T09:00:00Z</time>
      </trkpt>
      <trkpt lat="42.3242090" lon="1.9030720">
        <ele>2381.1</ele>
        <time>2015-08-12T09:00:05Z</time>
      </trkpt>
      <trkpt lat="42.3241920" lon="1.9030320">
        <ele>2382.3</ele>
        <time>2015-08-12T09:00:40Z</time>
      </trkpt>
      <trkpt lat="42.3241750" lon="1.9030030">
        <ele>2383.4</ele>
        <time>2015-08-12T09:00:42Z</time>
      </trkpt>
      <trkpt lat="42.3241550" lon="1.9029690">
        <ele>2384.7</ele>
        <time>2015-08-12T09:00:44Z</time>
      </trkpt>
      <trkpt lat="42.3241270" lon="1.9029360">
        <ele>2386.2</ele>
        <time>2015-08-12T09:00:46Z</time>
      </trkpt>
      <trkpt lat="42.3241080" lon="1.9028980">
        <ele>2387.3</ele>
        <time>2015-08-12T09:00:48Z</time>
      </trkpt>
      <trkpt lat="42.3240870" lon="1.9028680">
        <ele>2388.1</ele>
        <time>2015-08-12T09:00:50Z</time>
      </trkpt>
      <trkpt lat="42.3240690" lon="1.9028370">
        <ele>2388.9</ele>
        <time>2015-08-12T09:00:53Z</time>
      </trkpt>
      <trkpt lat="42.3240390" lon="1.9028230">
        <ele>2389.8</ele>
        <time>2015-08-12T09:00:55Z</time>
      </trkpt>
      <trkpt lat="42.3240260" lon="1.9027880">
        <ele>2390.5</ele>
        <time>2015-08-12T09:00:58Z</time>
      </trkpt>
      <trkpt lat="42.3239940" lon="1.9027750">
        <ele>2391.5</ele>
        <time>2015-08-12T09:01:12Z</time>
      </trkpt>
      <trkpt lat="42.3239880" lon="1.9027360">
        <ele>2392.0</ele>
        <time>2015-08-12T09:01:20Z</time>
      </trkpt>
      <trkpt lat="42.3239750" lon="1.9026880">
        <ele>2392.8</ele>
        <time>2015-08-12T09:01:30Z</time>
      </trkpt>
      <trkpt lat="42.3239480" lon="1.9026780">
        <ele>2393.6</ele>
        <time>2015-08-12T09:01:34Z</time>
      </trkpt>
      <trkpt lat="42.3239220" lon="1.9026430">
        <ele>2394.6</ele>
        <time>2015-08-12T09:01:38Z</time>
      </trkpt>
      <trkpt lat="42.3238900" lon="1.9026390">
        <ele>2395.5</ele>
        <time>2015-08-12T09:01:43Z</time>
      </trkpt>
      <trkpt lat="42.3238600" lon="1.9026620">
        <ele>2396.1</ele>
        <time>2015-08-12T09:01:47Z</time>
      </trkpt>
      <trkpt lat="42.3238380" lon="1.9026950">
        <ele>2396.5</ele>
        <time>2015-08-12T09:01:51Z</time>
      </trkpt>
      <trkpt lat="42.3238170" lon="1.9027220">
        <ele>2396.8</ele>
        <time>2015-08-12T09:02:04Z</time>
      </trkpt>
      <trkpt lat="42.3237970" lon="1.9027510">
        <ele>2397.1</ele>
        <time>2015-08-12T09:02:11Z</time>
      </trkpt>
      <trkpt lat="42.3237760" lon="1.9027820">
        <ele>2397.4</ele>
        <time>2015-08-12T09:02:17Z</time>
      </trkpt>
      <trkpt lat="42.3237610" lon="1.9028150">
        <ele>2397.6</ele>
        <time>2015-08-12T09:02:21Z</time>
      </trkpt>
      <trkpt lat="42.3237410" lon="1.9028530">
        <ele>2397.7</ele>
        <time>2015-08-12T09:02:25Z</time>
      </trkpt>
      <trkpt lat="42.3237220" lon="1.9028800">
        <ele>2397.7</ele>
        <time>2015-08-12T09:02:29Z</time>
      </trkpt>
      <trkpt lat="42.3236910" lon="1.9028790">
        <ele>2398.1</ele>
        <time>2015-08-12T09:02:34Z</time>
      </trkpt>
      <trkpt lat="42.3236640" lon="1.9028700">
        <ele>2398.5</ele>
        <time>2015-08-12T09:02:38Z</time>
      </trkpt>
      <trkpt lat="42.3236360" lon="1.9028500">
        <ele>2399.1</ele>
        <time>2015-08-12T09:02:44Z</time>
      </trkpt>
      <trkpt lat="42.3236280" lon="1.9028140">
        <ele>2399.5</ele>
        <time>2015-08-12T09:02:48Z</time>
      </trkpt>
      <trkpt lat="42.3236230" lon="1.9027700">
        <ele>2400.0</ele>
        <time>2015-08-12T09:02:54Z</time>
      </trkpt>
      <trkpt lat="42.3236140" lon="1.9027240">
        <ele>2400.5</ele>
        <time>2015-08-12T09:03:14Z</time>
      </trkpt>
      <trkpt lat="42.3235960" lon="1.9026950">
        <ele>2401.0</ele>
        <time>2015-08-12T09:03:17Z</time>
      </trkpt>
      <trkpt lat="42.3235880" lon="1.9026440">
        <ele>2401.6</ele>
        <time>2015-08-12T09:03:19Z</time>
      </trkpt>
      <trkpt lat="42.3236000" lon="1.9026040">
        <ele>2401.7</ele>
        <time>2015-08-12T09:03:21Z</time>
      </trkpt>
      <trkpt lat="42.3236270" lon="1.9025670">
        <ele>2401.7</ele>
        <time>2015-08-12T09:03:23Z</time>
      </trkpt>
      <trkpt lat="42.3236030" lon="1.9025260">
        <ele>2402.4</ele>
        <time>2015-08-12T09:03:25Z</time>
      </trkpt>
      <trkpt lat="42.3235990" lon="1.9024830">
        <ele>2402.8</ele>
        <time>2015-08-12T09:03:27Z</time>
      </trkpt>
      <trkpt lat="42.3236060" lon="1.9024300">
        <ele>2403.2</ele>
        <time>2015-08-12T09:03:30Z</time>
      </trkpt>
      <trkpt lat="42.3236040" lon="1.9023930">
        <ele>2403.5</ele>
        <time>2015-08-12T09:03:32Z</time>
      </trkpt>
      <trkpt lat="42.3235900" lon="1.9023510">
        <ele>2404.1</ele>
        <time>2015-08-12T09:03:34Z</time>
      </trkpt>
      <trkpt lat="42.3235590" lon="1.9022980">
        <ele>2405.1</ele>
        <time>2015-08-12T09:03:37Z</time>
      </trkpt>
      <trkpt lat="42.3235410" lon="1.9022550">
        <ele>2405.7</ele>
        <time>2015-08-12T09:03:40Z</time>
      </trkpt>
      <trkpt lat="42.3235300" lon="1.9022040">
        <ele>2406.3</ele>
        <time>2015-08-12T09:03:43Z</time>
      </trkpt>
      <trkpt lat="42.3235190" lon="1.9021680">
        <ele>2406.8</ele>
        <time>2015-08-12T09:03:46Z</time>
      </trkpt>
      <trkpt lat="42.3235100" lon="1.9021290">
        <ele>2407.3</ele>
        <time>2015-08-12T09:03:50Z</time>
      </trkpt>
      <trkpt lat="42.3234970" lon="1.9020830">
        <ele>2407.9</ele>
        <time>2015-08-12T09:07:30Z</time>
      </trkpt>
      <trkpt lat="42.3234900" lon="1.9020310">
        <ele>2408.1</ele>
        <time>2015-08-12T09:07:32Z</time>
      </trkpt>
      <trkpt lat="42.3234650" lon="1.9019800">
        <ele>2408.5</ele>
        <time>2015-08-12T09:07:34Z</time>
      </trkpt>
      <trkpt lat="42.3234590" lon="1.9019310">
        <ele>2408.6</ele>
        <time>2015-08-12T09:07:36Z</time>
      </trkpt>
      <trkpt lat="42.3234500" lon="1.9018840">
        <ele>2408.8</ele>
        <time>2015-08-12T09:07:39Z</time>
      </trkpt>
      <trkpt lat="42.3234530" lon="1.9018320">
        <ele>2408.8</ele>
        <time>2015-08-12T09:07:42Z</time>
      </trkpt>
      <trkpt lat="42.3234500" lon="1.9017820">
        <ele>2408.9</ele>
        <time>2015-08-12T09:07:45Z</time>
      </trkpt>
      <trkpt lat="42.3234210" lon="1.9017400">
        <ele>2409.4</ele>
        <time>2015-08-12T09:07:48Z</time>
      </trkpt>
      <trkpt lat="42.3234100" lon="1.9017020">
        <ele>2409.7</ele>
        <time>2015-08-12T09:07:50Z</time>
      </trkpt>
      <trkpt lat="42.3234070" lon="1.9016530">
        <ele>2409.8</ele>
        <time>2015-08-12T09:07:53Z</time>
      </trkpt>
      <trkpt lat="42.3233860" lon="1.9016180">
        <ele>2410.3</ele>
        <time>2015-08-12T09:07:56Z</time>
      </trkpt>
      <trkpt lat="42.3233960" lon="1.9015820">
        <ele>2410.1</ele>
        <time>2015-08-12T09:07:58Z</time>
      </trkpt>
      <trkpt lat="42.3234120" lon="1.9015430">
        <ele>2409.8</ele>
        <time>2015-08-12T09:08:00Z</time>
      </trkpt>
      <trkpt lat="42.3234090" lon="1.9015010">
        <ele>2409.9</ele>
        <time>2015-08-12T09:08:02Z</time>
      </trkpt>
      <trkpt lat="42.3234240" lon="1.9014640">
        <ele>2409.6</ele>
        <time>2015-08-12T09:08:04Z</time>
      </trkpt>
      <trkpt lat="42.3234330" lon="1.9014150">
        <ele>2409.5</ele>
        <time>2015-08-12T09:08:07Z</time>
      </trkpt>
      <trkpt lat="42.3234240" lon="1.9013680">
        <ele>2409.7</ele>
        <time>2015-08-12T09:08:09Z</time>
      </trkpt>
      <trkpt lat="42.3234190" lon="1.9013290">
        <ele>2409.9</ele>
        <time>2015-08-12T09:08:11Z</time>
      </trkpt>
      <trkpt lat="42.3234130" lon="1.9012920">
        <ele>2410.0</ele>
        <time>2015-08-12T09:08:14Z</time>
      </trkpt>
      <trkpt lat="42.3234090" lon="1.9012520">
        <ele>2410.2</ele>
        <time>2015-08-12T09:08:16Z</time>
      </trkpt>
      <trkpt lat="42.3234140" lon="1.9012120">
        <ele>2410.0</ele>
        <time>2015-08-12T09:08:18Z</time>
      </trkpt>
      <trkpt lat="42.3234090" lon="1.9011640">
        <ele>2410.0</ele>
        <time>2015-08-12T09:08:23Z</time>
      </trkpt>
      <trkpt lat="42.3233920" lon="1.9011310">
        <ele>2410.3</ele>
        <time>2015-08-12T09:08:25Z</time>
      </trkpt>
      <trkpt lat="42.3233920" lon="1.9010890">
        <ele>2410.2</ele>
        <time>2015-08-12T09:08:27Z</time>
      </trkpt>
      <trkpt lat="42.3233820" lon="1.9010540">
        <ele>2410.5</ele>
        <time>2015-08-12T09:08:28Z</time>
      </trkpt>
      <trkpt lat="42.3233830" lon="1.9010130">
        <ele>2410.3</ele>
        <time>2015-08-12T09:08:32Z</time>
      </trkpt>
      <trkpt lat="42.3233700" lon="1.9009790">
        <ele>2410.7</ele>
        <time>2015-08-12T09:08:35Z</time>
      </trkpt>
      <trkpt lat="42.3233540" lon="1.9009460">
        <ele>2411.1</ele>
        <time>2015-08-12T09:08:37Z</time>
      </trkpt>
      <trkpt lat="42.3233230" lon="1.9009830">
        <ele>2412.2</ele>
        <time>2015-08-12T09:08:39Z</time>
      </trkpt>
      <trkpt lat="42.3232810" lon="1.9010060">
        <ele>2413.5</ele>
        <time>2015-08-12T09:08:42Z</time>
      </trkpt>
      <trkpt lat="42.3232520" lon="1.9010210">
        <ele>2414.3</ele>
        <time>2015-08-12T09:08:44Z</time>
      </trkpt>
      <trkpt lat="42.3232330" lon="1.9010630">
        <ele>2414.8</ele>
        <time>2015-08-12T09:08:47Z</time>
      </trkpt>
      <trkpt lat="42.3232130" lon="1.9010900">
        <ele>2415.3</ele>
        <time>2015-08-12T09:08:51Z</time>
      </trkpt>
      <trkpt lat="42.3231940" lon="1.9011250">
        <ele>2415.7</ele>
        <time>2015-08-12T09:08:54Z</time>
      </trkpt>
      <trkpt lat="42.3231800" lon="1.9011580">
        <ele>2416.0</ele>
        <time>2015-08-12T09:08:56Z</time>
      </trkpt>
      <trkpt lat="42.3231560" lon="1.9011950">
        <ele>2416.5</ele>
        <time>2015-08-12T09:08:59Z</time>
      </trkpt>
      <trkpt lat="42.3231310" lon="1.9012100">
        <ele>2417.1</ele>
        <time>2015-08-12T09:09:02Z</time>
      </trkpt>
      <trkpt lat="42.3230990" lon="1.9012110">
        <ele>2417.9</ele>
        <time>2015-08-12T09:09:05Z</time>
      </trkpt>
      <trkpt lat="42.3230770" lon="1.9012340">
        <ele>2418.3</ele>
        <time>2015-08-12T09:09:07Z</time>
      </trkpt>
      <trkpt lat="42.3230450" lon="1.9012270">
        <ele>2419.1</ele>
        <time>2015-08-12T09:09:19Z</time>
      </trkpt>
      <trkpt lat="42.3230180" lon="1.9012130">
        <ele>2419.9</ele>
        <time>2015-08-12T09:09:25Z</time>
      </trkpt>
      <trkpt lat="42.3229880" lon="1.9012130">
        <ele>2420.6</ele>
        <time>2015-08-12T09:09:29Z</time>
      </trkpt>
      <trkpt lat="42.3229590" lon="1.9012070">
        <ele>2421.4</ele>
        <time>2015-08-12T09:09:33Z</time>
      </trkpt>
      <trkpt lat="42.3229320" lon="1.9012070">
        <ele>2422.1</ele>
        <time>2015-08-12T09:09:37Z</time>
      </trkpt>
      <trkpt lat="42.3229000" lon="1.9011980">
        <ele>2422.8</ele>
        <time>2015-08-12T09:09:42Z</time>
      </trkpt>
      <trkpt lat="42.3228670" lon="1.9011990">
        <ele>2423.3</ele>
        <time>2015-08-12T09:09:49Z</time>
      </trkpt>
      <trkpt lat="42.3228320" lon="1.9011900">
        <ele>2423.9</ele>
        <time>2015-08-12T09:09:56Z</time>
      </trkpt>
      <trkpt lat="42.3228040" lon="1.9011790">
        <ele>2424.5</ele>
        <time>2015-08-12T09:10:02Z</time>
      </trkpt>
      <trkpt lat="42.3227720" lon="1.9011830">
        <ele>2424.9</ele>
        <time>2015-08-12T09:10:07Z</time>
      </trkpt>
      <trkpt lat="42.3227420" lon="1.9011600">
        <ele>2425.6</ele>
        <time>2015-08-12T09:10:11Z</time>
      </trkpt>
      <trkpt lat="42.3227130" lon="1.9011570">
        <ele>2426.0</ele>
        <time>2015-08-12T09:10:16Z</time>
      </trkpt>
      <trkpt lat="42.3226970" lon="1.9011180">
        <ele>2426.6</ele>
        <time>2015-08-12T09:10:31Z</time>
      </trkpt>
      <trkpt lat="42.3226700" lon="1.9010980">
        <ele>2427.2</ele>
        <time>2015-08-12T09:10:34Z</time>
      </trkpt>
      <trkpt lat="42.3226390" lon="1.9011050">
        <ele>2427.6</ele>
        <time>2015-08-12T09:10:39Z</time>
      </trkpt>
      <trkpt lat="42.3226060" lon="1.9011020">
        <ele>2428.1</ele>
        <time>2015-08-12T09:10:40Z</time>
      </trkpt>
      <trkpt lat="42.3225650" lon="1.9011010">
        <ele>2428.7</ele>
        <time>2015-08-12T09:10:42Z</time>
      </trkpt>
      <trkpt lat="42.3225320" lon="1.9011200">
        <ele>2429.0</ele>
        <time>2015-08-12T09:10:44Z</time>
      </trkpt>
      <trkpt lat="42.3225010" lon="1.9011310">
        <ele>2429.4</ele>
        <time>2015-08-12T09:10:45Z</time>
      </trkpt>
      <trkpt lat="42.3225000" lon="1.9010910">
        <ele>2429.7</ele>
        <time>2015-08-12T09:10:46Z</time>
      </trkpt>
      <trkpt lat="42.3224620" lon="1.9010670">
        <ele>2430.5</ele>
        <time>2015-08-12T09:10:49Z</time>
      </trkpt>
      <trkpt lat="42.3224410" lon="1.9010440">
        <ele>2430.9</ele>
        <time>2015-08-12T09:10:51Z</time>
      </trkpt>
      <trkpt lat="42.3224030" lon="1.9010090">
        <ele>2431.7</ele>
        <time>2015-08-12T09:10:55Z</time>
      </trkpt>
      <trkpt lat="42.3223700" lon="1.9010020">
        <ele>2432.2</ele>
        <time>2015-08-12T09:10:57Z</time>
      </trkpt>
      <trkpt lat="42.3223380" lon="1.9010120">
        <ele>2432.6</ele>
        <time>2015-08-12T09:10:59Z</time>
      </trkpt>
      <trkpt lat="42.3223250" lon="1.9009680">
        <ele>2433.1</ele>
        <time>2015-08-12T09:11:01Z</time>
      </trkpt>
      <trkpt lat="42.3222880" lon="1.9009420">
        <ele>2433.7</ele>
        <time>2015-08-12T09:11:04Z</time>
      </trkpt>
      <trkpt lat="42.3222630" lon="1.9008980">
        <ele>2434.3</ele>
        <time>2015-08-12T09:11:07Z</time>
      </trkpt>
      <trkpt lat="42.3222420" lon="1.9008750">
        <ele>2434.8</ele>
        <time>2015-08-12T09:11:09Z</time>
      </trkpt>
      <trkpt lat="42.3222220" lon="1.9008440">
        <ele>2435.2</ele>
        <time>2015-08-12T09:11:12Z</time>
      </trkpt>
      <trkpt lat="42.3221950" lon="1.9008130">
        <ele>2435.7</ele>
        <time>2015-08-12T09:11:15Z</time>
      </trkpt>
      <trkpt lat="42.3221630" lon="1.9007720">
        <ele>2436.3</ele>
        <time>2015-08-12T09:11:20Z</time>
      </trkpt>
      <trkpt lat="42.3221370" lon="1.9007470">
        <ele>2436.8</ele>
        <time>2015-08-12T09:11:23Z</time>
      </trkpt>
      <trkpt lat="42.3221370" lon="1.9007100">
        <ele>2437.0</ele>
        <time>2015-08-12T09:11:26Z</time>
      </trkpt>
      <trkpt lat="42.3221080" lon="1.9006770">
        <ele>2437.5</ele>
        <time>2015-08-12T09:11:29Z</time>
      </trkpt>
      <trkpt lat="42.3220820" lon="1.9006450">
        <ele>2437.9</ele>
        <time>2015-08-12T09:11:32Z</time>
      </trkpt>
      <trkpt lat="42.3220520" lon="1.9006140">
        <ele>2438.7</ele>
        <time>2015-08-12T09:11:35Z</time>
      </trkpt>
      <trkpt lat="42.3220340" lon="1.9005760">
        <ele>2439.3</ele>
        <time>2015-08-12T09:11:39Z</time>
      </trkpt>
      <trkpt lat="42.3220170" lon="1.9005410">
        <ele>2439.8</ele>
        <time>2015-08-12T09:11:42Z</time>
      </trkpt>
      <trkpt lat="42.3219970" lon="1.9005020">
        <ele>2440.4</ele>
        <time>2015-08-12T09:11:44Z</time>
      </trkpt>
      <trkpt lat="42.3219820" lon="1.9004710">
        <ele>2440.9</ele>
        <time>2015-08-12T09:11:48Z</time>
      </trkpt>
      <trkpt lat="42.3219740" lon="1.9004270">
        <ele>2441.3</ele>
        <time>2015-08-12T09:11:51Z</time>
      </trkpt>
      <trkpt lat="42.3219690" lon="1.9003800">
        <ele>2441.7</ele>
        <time>2015-08-12T09:11:54Z</time>
      </trkpt>
      <trkpt lat="42.3219820" lon="1.9003390">
        <ele>2441.6</ele>
        <time>2015-08-12T09:11:57Z</time>
      </trkpt>
      <trkpt lat="42.3219750" lon="1.9003020">
        <ele>2442.0</ele>
        <time>2015-08-12T09:11:59Z</time>
      </trkpt>
      <trkpt lat="42.3219570" lon="1.9002580">
        <ele>2442.6</ele>
        <time>2015-08-12T09:12:02Z</time>
      </trkpt>
      <trkpt lat="42.3219440" lon="1.9002250">
        <ele>2443.0</ele>
        <time>2015-08-12T09:12:04Z</time>
      </trkpt>
      <trkpt lat="42.3219130" lon="1.9001800">
        <ele>2443.9</ele>
        <time>2015-08-12T09:12:06Z</time>
      </trkpt>
      <trkpt lat="42.3219150" lon="1.9001390">
        <ele>2444.0</ele>
        <time>2015-08-12T09:12:09Z</time>
      </trkpt>
      <trkpt lat="42.3218940" lon="1.9001090">
        <ele>2444.6</ele>
        <time>2015-08-12T09:12:11Z</time>
      </trkpt>
      <trkpt lat="42.3218730" lon="1.9000650">
        <ele>2445.2</ele>
        <time>2015-08-12T09:12:14Z</time>
      </trkpt>
      <trkpt lat="42.3218520" lon="1.9000180">
        <ele>2445.9</ele>
        <time>2015-08-12T09:12:17Z</time>
      </trkpt>
      <trkpt lat="42.3218490" lon="1.8999780">
        <ele>2446.1</ele>
        <time>2015-08-12T09:12:20Z</time>
      </trkpt>
      <trkpt lat="42.3218630" lon="1.8999360">
        <ele>2446.0</ele>
        <time>2015-08-12T09:12:23Z</time>
      </trkpt>
      <trkpt lat="42.3218620" lon="1.8998840">
        <ele>2446.3</ele>
        <time>2015-08-12T09:12:26Z</time>
      </trkpt>
      <trkpt lat="42.3218450" lon="1.8998360">
        <ele>2446.8</ele>
        <time>2015-08-12T09:12:30Z</time>
      </trkpt>
      <trkpt lat="42.3218430" lon="1.8997890">
        <ele>2447.1</ele>
        <time>2015-08-12T09:12:32Z</time>
      </trkpt>
      <trkpt lat="42.3218430" lon="1.8997430">
        <ele>2447.3</ele>
        <time>2015-08-12T09:12:34Z</time>
      </trkpt>
      <trkpt lat="42.3218290" lon="1.8997000">
        <ele>2447.7</ele>
        <time>2015-08-12T09:12:38Z</time>
      </trkpt>
      <trkpt lat="42.3218080" lon="1.8996590">
        <ele>2448.3</ele>
        <time>2015-08-12T09:12:42Z</time>
      </trkpt>
      <trkpt lat="42.3217850" lon="1.8996280">
        <ele>2448.8</ele>
        <time>2015-08-12T09:12:44Z</time>
      </trkpt>
      <trkpt lat="42.3217650" lon="1.8995850">
        <ele>2449.3</ele>
        <time>2015-08-12T09:12:46Z</time>
      </trkpt>
      <trkpt lat="42.3217520" lon="1.8995420">
        <ele>2450.1</ele>
        <time>2015-08-12T09:12:49Z</time>
      </trkpt>
      <trkpt lat="42.3217350" lon="1.8995020">
        <ele>2450.8</ele>
        <time>2015-08-12T09:12:51Z</time>
      </trkpt>
      <trkpt lat="42.3217200" lon="1.8994650">
        <ele>2451.5</ele>
        <time>2015-08-12T09:12:53Z</time>
      </trkpt>
      <trkpt lat="42.3216920" lon="1.8994300">
        <ele>2452.3</ele>
        <time>2015-08-12T09:12:56Z</time>
      </trkpt>
      <trkpt lat="42.3216880" lon="1.8993890">
        <ele>2452.8</ele>
        <time>2015-08-12T09:12:59Z</time>
      </trkpt>
      <trkpt lat="42.3216620" lon="1.8993650">
        <ele>2453.4</ele>
        <time>2015-08-12T09:13:03Z</time>
      </trkpt>
      <trkpt lat="42.3216430" lon="1.8993220">
        <ele>2454.1</ele>
        <time>2015-08-12T09:13:06Z</time>
      </trkpt>
      <trkpt lat="42.3216250" lon="1.8992850">
        <ele>2454.7</ele>
        <time>2015-08-12T09:13:08Z</time>
      </trkpt>
      <trkpt lat="42.3216120" lon="1.8992510">
        <ele>2455.2</ele>
        <time>2015-08-12T09:13:11Z</time>
      </trkpt>
      <trkpt lat="42.3215910" lon="1.8992090">
        <ele>2455.8</ele>
        <time>2015-08-12T09:13:14Z</time>
      </trkpt>
      <trkpt lat="42.3215730" lon="1.8991620">
        <ele>2456.4</ele>
        <time>2015-08-12T09:13:17Z</time>
      </trkpt>
      <trkpt lat="42.3215640" lon="1.8991240">
        <ele>2456.9</ele>
        <time>2015-08-12T09:13:20Z</time>
      </trkpt>
      <trkpt lat="42.3215500" lon="1.8990850">
        <ele>2457.3</ele>
        <time>2015-08-12T09:13:25Z</time>
      </trkpt>
      <trkpt lat="42.3215290" lon="1.8990270">
        <ele>2458.0</ele>
        <time>2015-08-12T09:13:29Z</time>
      </trkpt>
      <trkpt lat="42.3215140" lon="1.8989940">
        <ele>2458.4</ele>
        <time>2015-08-12T09:13:31Z</time>
      </trkpt>
      <trkpt lat="42.3214970" lon="1.8989630">
        <ele>2458.7</ele>
        <time>2015-08-12T09:13:33Z</time>
      </trkpt>
      <trkpt lat="42.3214780" lon="1.8989260">
        <ele>2459.1</ele>
        <time>2015-08-12T09:13:37Z</time>
      </trkpt>
      <trkpt lat="42.3214700" lon="1.8988830">
        <ele>2459.5</ele>
        <time>2015-08-12T09:13:41Z</time>
      </trkpt>
      <trkpt lat="42.3214540" lon="1.8988420">
        <ele>2459.9</ele>
        <time>2015-08-12T09:13:43Z</time>
      </trkpt>
      <trkpt lat="42.3214370" lon="1.8988090">
        <ele>2460.1</ele>
        <time>2015-08-12T09:13:46Z</time>
      </trkpt>
      <trkpt lat="42.3214360" lon="1.8987620">
        <ele>2460.5</ele>
        <time>2015-08-12T09:13:49Z</time>
      </trkpt>
      <trkpt lat="42.3214410" lon="1.8987250">
        <ele>2460.8</ele>
        <time>2015-08-12T09:13:51Z</time>
      </trkpt>
      <trkpt lat="42.3214210" lon="1.8986880">
        <ele>2461.3</ele>
        <time>2015-08-12T09:13:54Z</time>
      </trkpt>
      <trkpt lat="42.3214010" lon="1.8986500">
        <ele>2461.7</ele>
        <time>2015-08-12T09:13:57Z</time>
      </trkpt>
      <trkpt lat="42.3213720" lon="1.8986190">
        <ele>2462.1</ele>
        <time>2015-08-12T09:14:00Z</time>
      </trkpt>
      <trkpt lat="42.3213660" lon="1.8985790">
        <ele>2462.5</ele>
        <time>2015-08-12T09:14:03Z</time>
      </trkpt>
      <trkpt lat="42.3213600" lon="1.8985230">
        <ele>2463.1</ele>
        <time>2015-08-12T09:14:06Z</time>
      </trkpt>
      <trkpt lat="42.3213550" lon="1.8984850">
        <ele>2463.5</ele>
        <time>2015-08-12T09:14:08Z</time>
      </trkpt>
      <trkpt lat="42.3213400" lon="1.8984330">
        <ele>2464.1</ele>
        <time>2015-08-12T09:14:11Z</time>
      </trkpt>
      <trkpt lat="42.3213280" lon="1.8983910">
        <ele>2464.5</ele>
        <time>2015-08-12T09:14:13Z</time>
      </trkpt>
      <trkpt lat="42.3213440" lon="1.8983600">
        <ele>2464.8</ele>
        <time>2015-08-12T09:14:15Z</time>
      </trkpt>
      <trkpt lat="42.3213250" lon="1.8983230">
        <ele>2465.2</ele>
        <time>2015-08-12T09:14:18Z</time>
      </trkpt>
      <trkpt lat="42.3213150" lon="1.8982720">
        <ele>2465.7</ele>
        <time>2015-08-12T09:14:22Z</time>
      </trkpt>
      <trkpt lat="42.3213160" lon="1.8982270">
        <ele>2466.2</ele>
        <time>2015-08-12T09:14:25Z</time>
      </trkpt>
      <trkpt lat="42.3213260" lon="1.8981880">
        <ele>2466.6</ele>
        <time>2015-08-12T09:14:29Z</time>
      </trkpt>
      <trkpt lat="42.3213260" lon="1.8981480">
        <ele>2467.0</ele>
        <time>2015-08-12T09:14:31Z</time>
      </trkpt>
      <trkpt lat="42.3213100" lon="1.8981190">
        <ele>2467.2</ele>
        <time>2015-08-12T09:14:35Z</time>
      </trkpt>
      <trkpt lat="42.3213090" lon="1.8980700">
        <ele>2467.7</ele>
        <time>2015-08-12T09:14:38Z</time>
      </trkpt>
      <trkpt lat="42.3212970" lon="1.8980160">
        <ele>2468.2</ele>
        <time>2015-08-12T09:14:41Z</time>
      </trkpt>
      <trkpt lat="42.3212830" lon="1.8979820">
        <ele>2468.5</ele>
        <time>2015-08-12T09:14:45Z</time>
      </trkpt>
      <trkpt lat="42.3212540" lon="1.8979670">
        <ele>2468.5</ele>
        <time>2015-08-12T09:14:47Z</time>
      </trkpt>
      <trkpt lat="42.3212410" lon="1.8979220">
        <ele>2469.2</ele>
        <time>2015-08-12T09:14:50Z</time>
      </trkpt>
      <trkpt lat="42.3212480" lon="1.8978810">
        <ele>2469.5</ele>
        <time>2015-08-12T09:14:53Z</time>
      </trkpt>
      <trkpt lat="42.3212260" lon="1.8978440">
        <ele>2470.5</ele>
        <time>2015-08-12T09:14:57Z</time>
      </trkpt>
      <trkpt lat="42.3212200" lon="1.8977960">
        <ele>2471.2</ele>
        <time>2015-08-12T09:15:00Z</time>
      </trkpt>
      <trkpt lat="42.3211990" lon="1.8977690">
        <ele>2471.9</ele>
        <time>2015-08-12T09:15:02Z</time>
      </trkpt>
      <trkpt lat="42.3211820" lon="1.8977290">
        <ele>2472.8</ele>
        <time>2015-08-12T09:15:04Z</time>
      </trkpt>
      <trkpt lat="42.3211750" lon="1.8976750">
        <ele>2473.5</ele>
        <time>2015-08-12T09:15:07Z</time>
      </trkpt>
      <trkpt lat="42.3211740" lon="1.8976360">
        <ele>2474.0</ele>
        <time>2015-08-12T09:15:10Z</time>
      </trkpt>
      <trkpt lat="42.3211720" lon="1.8975920">
        <ele>2474.5</ele>
        <time>2015-08-12T09:15:14Z</time>
      </trkpt>
      <trkpt lat="42.3211490" lon="1.8975560">
        <ele>2475.3</ele>
        <time>2015-08-12T09:15:17Z</time>
      </trkpt>
      <trkpt lat="42.3211220" lon="1.8975050">
        <ele>2476.4</ele>
        <time>2015-08-12T09:15:21Z</time>
      </trkpt>
      <trkpt lat="42.3211240" lon="1.8974570">
        <ele>2476.9</ele>
        <time>2015-08-12T09:15:26Z</time>
      </trkpt>
      <trkpt lat="42.3211290" lon="1.8974180">
        <ele>2477.2</ele>
        <time>2015-08-12T09:15:29Z</time>
      </trkpt>
      <trkpt lat="42.3210970" lon="1.8973960">
        <ele>2478.0</ele>
        <time>2015-08-12T09:15:33Z</time>
      </trkpt>
      <trkpt lat="42.3210710" lon="1.8973610">
        <ele>2478.7</ele>
        <time>2015-08-12T09:15:36Z</time>
      </trkpt>
      <trkpt lat="42.3210470" lon="1.8973320">
        <ele>2479.4</ele>
        <time>2015-08-12T09:15:38Z</time>
      </trkpt>
      <trkpt lat="42.3210260" lon="1.8973060">
        <ele>2480.0</ele>
        <time>2015-08-12T09:15:40Z</time>
      </trkpt>
      <trkpt lat="42.3210170" lon="1.8972550">
        <ele>2480.6</ele>
        <time>2015-08-12T09:15:43Z</time>
      </trkpt>
      <trkpt lat="42.3210030" lon="1.8972200">
        <ele>2481.1</ele>
        <time>2015-08-12T09:15:46Z</time>
      </trkpt>
      <trkpt lat="42.3209730" lon="1.8972070">
        <ele>2481.7</ele>
        <time>2015-08-12T09:15:49Z</time>
      </trkpt>
      <trkpt lat="42.3209490" lon="1.8971660">
        <ele>2482.3</ele>
        <time>2015-08-12T09:15:53Z</time>
      </trkpt>
      <trkpt lat="42.3209340" lon="1.8971280">
        <ele>2482.8</ele>
        <time>2015-08-12T09:15:56Z</time>
      </trkpt>
      <trkpt lat="42.3209200" lon="1.8970760">
        <ele>2483.5</ele>
        <time>2015-08-12T09:16:00Z</time>
      </trkpt>
      <trkpt lat="42.3209250" lon="1.8970310">
        <ele>2484.0</ele>
        <time>2015-08-12T09:16:03Z</time>
      </trkpt>
      <trkpt lat="42.3209090" lon="1.8969950">
        <ele>2484.7</ele>
        <time>2015-08-12T09:16:06Z</time>
      </trkpt>
      <trkpt lat="42.3208900" lon="1.8969630">
        <ele>2485.4</ele>
        <time>2015-08-12T09:16:10Z</time>
      </trkpt>
      <trkpt lat="42.3208750" lon="1.8969130">
        <ele>2486.2</ele>
        <time>2015-08-12T09:16:14Z</time>
      </trkpt>
      <trkpt lat="42.3208590" lon="1.8968760">
        <ele>2486.9</ele>
        <time>2015-08-12T09:16:16Z</time>
      </trkpt>
      <trkpt lat="42.3208380" lon="1.8968460">
        <ele>2487.4</ele>
        <time>2015-08-12T09:16:18Z</time>
      </trkpt>
      <trkpt lat="42.3208190" lon="1.8968020">
        <ele>2488.2</ele>
        <time>2015-08-12T09:16:22Z</time>
      </trkpt>
      <trkpt lat="42.3208010" lon="1.8967740">
        <ele>2488.7</ele>
        <time>2015-08-12T09:16:25Z</time>
      </trkpt>
      <trkpt lat="42.3207770" lon="1.8967480">
        <ele>2489.2</ele>
        <time>2015-08-12T09:16:28Z</time>
      </trkpt>
      <trkpt lat="42.3207590" lon="1.8967170">
        <ele>2489.7</ele>
        <time>2015-08-12T09:16:31Z</time>
      </trkpt>
      <trkpt lat="42.3207440" lon="1.8966810">
        <ele>2490.2</ele>
        <time>2015-08-12T09:16:34Z</time>
      </trkpt>
      <trkpt lat="42.3207190" lon="1.8966400">
        <ele>2490.8</ele>
        <time>2015-08-12T09:16:37Z</time>
      </trkpt>
      <trkpt lat="42.3206930" lon="1.8966200">
        <ele>2491.2</ele>
        <time>2015-08-12T09:16:39Z</time>
      </trkpt>
      <trkpt lat="42.3206770" lon="1.8965830">
        <ele>2491.6</ele>
        <time>2015-08-12T09:16:42Z</time>
      </trkpt>
      <trkpt lat="42.3206590" lon="1.8965540">
        <ele>2492.0</ele>
        <time>2015-08-12T09:16:45Z</time>
      </trkpt>
      <trkpt lat="42.3206440" lon="1.8965220">
        <ele>2492.4</ele>
        <time>2015-08-12T09:16:48Z</time>
      </trkpt>
      <trkpt lat="42.3206210" lon="1.8964770">
        <ele>2492.9</ele>
        <time>2015-08-12T09:16:52Z</time>
      </trkpt>
      <trkpt lat="42.3206060" lon="1.8964460">
        <ele>2493.2</ele>
        <time>2015-08-12T09:16:55Z</time>
      </trkpt>
      <trkpt lat="42.3205970" lon="1.8964100">
        <ele>2493.6</ele>
        <time>2015-08-12T09:16:58Z</time>
      </trkpt>
      <trkpt lat="42.3205740" lon="1.8963690">
        <ele>2494.0</ele>
        <time>2015-08-12T09:17:02Z</time>
      </trkpt>
      <trkpt lat="42.3205570" lon="1.8963310">
        <ele>2494.3</ele>
        <time>2015-08-12T09:17:06Z</time>
      </trkpt>
      <trkpt lat="42.3205290" lon="1.8962910">
        <ele>2494.7</ele>
        <time>2015-08-12T09:17:09Z</time>
      </trkpt>
      <trkpt lat="42.3205080" lon="1.8962630">
        <ele>2494.9</ele>
        <time>2015-08-12T09:17:12Z</time>
      </trkpt>
      <trkpt lat="42.3204850" lon="1.8962340">
        <ele>2495.2</ele>
        <time>2015-08-12T09:17:16Z</time>
      </trkpt>
      <trkpt lat="42.3204550" lon="1.8962110">
        <ele>2495.4</ele>
        <time>2015-08-12T09:17:20Z</time>
      </trkpt>
      <trkpt lat="42.3204360" lon="1.8961630">
        <ele>2496.0</ele>
        <time>2015-08-12T09:17:23Z</time>
      </trkpt>
      <trkpt lat="42.3204080" lon="1.8961310">
        <ele>2496.3</ele>
        <time>2015-08-12T09:17:25Z</time>
      </trkpt>
      <trkpt lat="42.3203940" lon="1.8960930">
        <ele>2496.8</ele>
        <time>2015-08-12T09:17:27Z</time>
      </trkpt>
      <trkpt lat="42.3203620" lon="1.8960660">
        <ele>2497.2</ele>
        <time>2015-08-12T09:17:30Z</time>
      </trkpt>
      <trkpt lat="42.3203430" lon="1.8960290">
        <ele>2497.6</ele>
        <time>2015-08-12T09:17:32Z</time>
      </trkpt>
      <trkpt lat="42.3203100" lon="1.8960060">
        <ele>2498.0</ele>
        <time>2015-08-12T09:17:34Z</time>
      </trkpt>
      <trkpt lat="42.3202810" lon="1.8959650">
        <ele>2498.5</ele>
        <time>2015-08-12T09:17:37Z</time>
      </trkpt>
      <trkpt lat="42.3202560" lon="1.8959310">
        <ele>2498.8</ele>
        <time>2015-08-12T09:17:39Z</time>
      </trkpt>
      <trkpt lat="42.3202280" lon="1.8959040">
        <ele>2499.2</ele>
        <time>2015-08-12T09:17:41Z</time>
      </trkpt>
      <trkpt lat="42.3202050" lon="1.8958840">
        <ele>2499.4</ele>
        <time>2015-08-12T09:17:43Z</time>
      </trkpt>
      <trkpt lat="42.3201910" lon="1.8958530">
        <ele>2499.7</ele>
        <time>2015-08-12T09:17:45Z</time>
      </trkpt>
      <trkpt lat="42.3201670" lon="1.8958240">
        <ele>2500.0</ele>
        <time>2015-08-12T09:17:47Z</time>
      </trkpt>
      <trkpt lat="42.3201580" lon="1.8957900">
        <ele>2500.4</ele>
        <time>2015-08-12T09:17:49Z</time>
      </trkpt>
      <trkpt lat="42.3201390" lon="1.8957550">
        <ele>2500.7</ele>
        <time>2015-08-12T09:17:52Z</time>
      </trkpt>
      <trkpt lat="42.3201150" lon="1.8957110">
        <ele>2501.1</ele>
        <time>2015-08-12T09:17:55Z</time>
      </trkpt>
      <trkpt lat="42.3200950" lon="1.8956730">
        <ele>2501.4</ele>
        <time>2015-08-12T09:17:58Z</time>
      </trkpt>
      <trkpt lat="42.3200710" lon="1.8956480">
        <ele>2501.7</ele>
        <time>2015-08-12T09:18:02Z</time>
      </trkpt>
      <trkpt lat="42.3200580" lon="1.8956130">
        <ele>2502.0</ele>
        <time>2015-08-12T09:18:05Z</time>
      </trkpt>
      <trkpt lat="42.3200490" lon="1.8955730">
        <ele>2502.3</ele>
        <time>2015-08-12T09:18:08Z</time>
      </trkpt>
      <trkpt lat="42.3200370" lon="1.8955370">
        <ele>2502.6</ele>
        <time>2015-08-12T09:18:11Z</time>
      </trkpt>
      <trkpt lat="42.3200060" lon="1.8955180">
        <ele>2502.7</ele>
        <time>2015-08-12T09:18:16Z</time>
      </trkpt>
      <trkpt lat="42.3199740" lon="1.8954770">
        <ele>2503.0</ele>
        <time>2015-08-12T09:18:19Z</time>
      </trkpt>
      <trkpt lat="42.3199470" lon="1.8954520">
        <ele>2503.2</ele>
        <time>2015-08-12T09:18:22Z</time>
      </trkpt>
      <trkpt lat="42.3199250" lon="1.8954170">
        <ele>2503.4</ele>
        <time>2015-08-12T09:18:25Z</time>
      </trkpt>
      <trkpt lat="42.3198990" lon="1.8953760">
        <ele>2503.8</ele>
        <time>2015-08-12T09:18:28Z</time>
      </trkpt>
      <trkpt lat="42.3198740" lon="1.8953350">
        <ele>2504.1</ele>
        <time>2015-08-12T09:18:31Z</time>
      </trkpt>
      <trkpt lat="42.3198490" lon="1.8953020">
        <ele>2504.3</ele>
        <time>2015-08-12T09:18:34Z</time>
      </trkpt>
      <trkpt lat="42.3198220" lon="1.8952700">
        <ele>2504.5</ele>
        <time>2015-08-12T09:18:36Z</time>
      </trkpt>
      <trkpt lat="42.3198030" lon="1.8952340">
        <ele>2504.8</ele>
        <time>2015-08-12T09:18:39Z</time>
      </trkpt>
      <trkpt lat="42.3197710" lon="1.8952040">
        <ele>2504.9</ele>
        <time>2015-08-12T09:18:42Z</time>
      </trkpt>
      <trkpt lat="42.3197450" lon="1.8951660">
        <ele>2505.1</ele>
        <time>2015-08-12T09:18:45Z</time>
      </trkpt>
      <trkpt lat="42.3197200" lon="1.8951350">
        <ele>2505.2</ele>
        <time>2015-08-12T09:18:48Z</time>
      </trkpt>
      <trkpt lat="42.3196960" lon="1.8951070">
        <ele>2505.3</ele>
        <time>2015-08-12T09:18:50Z</time>
      </trkpt>
      <trkpt lat="42.3196630" lon="1.8950700">
        <ele>2505.5</ele>
        <time>2015-08-12T09:18:53Z</time>
      </trkpt>
      <trkpt lat="42.3196320" lon="1.8950310">
        <ele>2505.6</ele>
        <time>2015-08-12T09:18:56Z</time>
      </trkpt>
      <trkpt lat="42.3196060" lon="1.8949840">
        <ele>2505.7</ele>
        <time>2015-08-12T09:18:59Z</time>
      </trkpt>
      <trkpt lat="42.3195870" lon="1.8949540">
        <ele>2505.8</ele>
        <time>2015-08-12T09:19:01Z</time>
      </trkpt>
      <trkpt lat="42.3195670" lon="1.8949280">
        <ele>2505.7</ele>
        <time>2015-08-12T09:19:03Z</time>
      </trkpt>
      <trkpt lat="42.3195430" lon="1.8949020">
        <ele>2505.6</ele>
        <time>2015-08-12T09:19:05Z</time>
      </trkpt>
      <trkpt lat="42.3195220" lon="1.8948790">
        <ele>2505.5</ele>
        <time>2015-08-12T09:19:07Z</time>
      </trkpt>
      <trkpt lat="42.3194940" lon="1.8948540">
        <ele>2505.3</ele>
        <time>2015-08-12T09:19:09Z</time>
      </trkpt>
      <trkpt lat="42.3194740" lon="1.8948250">
        <ele>2505.3</ele>
        <time>2015-08-12T09:19:11Z</time>
      </trkpt>
      <trkpt lat="42.3194510" lon="1.8947980">
        <ele>2505.1</ele>
        <time>2015-08-12T09:19:13Z</time>
      </trkpt>
      <trkpt lat="42.3194290" lon="1.8947600">
        <ele>2505.1</ele>
        <time>2015-08-12T09:19:16Z</time>
      </trkpt>
      <trkpt lat="42.3194090" lon="1.8947230">
        <ele>2505.0</ele>
        <time>2015-08-12T09:19:19Z</time>
      </trkpt>
      <trkpt lat="42.3193860" lon="1.8947010">
        <ele>2504.8</ele>
        <time>2015-08-12T09:19:21Z</time>
      </trkpt>
      <trkpt lat="42.3193660" lon="1.8946730">
        <ele>2504.7</ele>
        <time>2015-08-12T09:19:24Z</time>
      </trkpt>
      <trkpt lat="42.3193620" lon="1.8946310">
        <ele>2504.9</ele>
        <time>2015-08-12T09:19:27Z</time>
      </trkpt>
      <trkpt lat="42.3193580" lon="1.8945920">
        <ele>2505.0</ele>
        <time>2015-08-12T09:19:30Z</time>
      </trkpt>
      <trkpt lat="42.3193430" lon="1.8945390">
        <ele>2505.2</ele>
        <time>2015-08-12T09:19:33Z</time>
      </trkpt>
      <trkpt lat="42.3193280" lon="1.8944970">
        <ele>2505.3</ele>
        <time>2015-08-12T09:19:37Z</time>
      </trkpt>
      <trkpt lat="42.3193070" lon="1.8944660">
        <ele>2505.3</ele>
        <time>2015-08-12T09:19:39Z</time>
      </trkpt>
      <trkpt lat="42.3193060" lon="1.8944120">
        <ele>2505.7</ele>
        <time>2015-08-12T09:19:42Z</time>
      </trkpt>
      <trkpt lat="42.3193310" lon="1.8943930">
        <ele>2506.2</ele>
        <time>2015-08-12T09:19:44Z</time>
      </trkpt>
      <trkpt lat="42.3193310" lon="1.8943420">
        <ele>2506.6</ele>
        <time>2015-08-12T09:19:49Z</time>
      </trkpt>
      <trkpt lat="42.3193260" lon="1.8942920">
        <ele>2506.9</ele>
        <time>2015-08-12T09:19:52Z</time>
      </trkpt>
      <trkpt lat="42.3193210" lon="1.8942470">
        <ele>2507.2</ele>
        <time>2015-08-12T09:19:55Z</time>
      </trkpt>
      <trkpt lat="42.3193160" lon="1.8942060">
        <ele>2507.5</ele>
        <time>2015-08-12T09:19:58Z</time>
      </trkpt>
      <trkpt lat="42.3192880" lon="1.8941870">
        <ele>2507.3</ele>
        <time>2015-08-12T09:20:01Z</time>
      </trkpt>
      <trkpt lat="42.3192810" lon="1.8941430">
        <ele>2507.5</ele>
        <time>2015-08-12T09:20:05Z</time>
      </trkpt>
      <trkpt lat="42.3192620" lon="1.8941050">
        <ele>2507.6</ele>
        <time>2015-08-12T09:20:07Z</time>
      </trkpt>
      <trkpt lat="42.3192420" lon="1.8940740">
        <ele>2507.5</ele>
        <time>2015-08-12T09:20:09Z</time>
      </trkpt>
      <trkpt lat="42.3192240" lon="1.8940450">
        <ele>2507.5</ele>
        <time>2015-08-12T09:20:11Z</time>
      </trkpt>
      <trkpt lat="42.3192040" lon="1.8940170">
        <ele>2507.4</ele>
        <time>2015-08-12T09:20:13Z</time>
      </trkpt>
      <trkpt lat="42.3191790" lon="1.8939790">
        <ele>2507.4</ele>
        <time>2015-08-12T09:20:16Z</time>
      </trkpt>
      <trkpt lat="42.3191550" lon="1.8939470">
        <ele>2507.3</ele>
        <time>2015-08-12T09:20:19Z</time>
      </trkpt>
      <trkpt lat="42.3191390" lon="1.8939090">
        <ele>2507.4</ele>
        <time>2015-08-12T09:20:21Z</time>
      </trkpt>
      <trkpt lat="42.3191230" lon="1.8938720">
        <ele>2507.4</ele>
        <time>2015-08-12T09:20:24Z</time>
      </trkpt>
      <trkpt lat="42.3191060" lon="1.8938410">
        <ele>2507.4</ele>
        <time>2015-08-12T09:20:26Z</time>
      </trkpt>
      <trkpt lat="42.3190840" lon="1.8937880">
        <ele>2507.5</ele>
        <time>2015-08-12T09:20:28Z</time>
      </trkpt>
      <trkpt lat="42.3190580" lon="1.8937420">
        <ele>2507.3</ele>
        <time>2015-08-12T09:20:30Z</time>
      </trkpt>
      <trkpt lat="42.3190280" lon="1.8937110">
        <ele>2506.5</ele>
        <time>2015-08-12T09:20:32Z</time>
      </trkpt>
      <trkpt lat="42.3190090" lon="1.8936650">
        <ele>2505.7</ele>
        <time>2015-08-12T09:20:34Z</time>
      </trkpt>
      <trkpt lat="42.3189980" lon="1.8936250">
        <ele>2505.0</ele>
        <time>2015-08-12T09:20:36Z</time>
      </trkpt>
      <trkpt lat="42.3189710" lon="1.8935750">
        <ele>2504.0</ele>
        <time>2015-08-12T09:20:38Z</time>
      </trkpt>
      <trkpt lat="42.3189530" lon="1.8935100">
        <ele>2503.0</ele>
        <time>2015-08-12T09:20:40Z</time>
      </trkpt>
      <trkpt lat="42.3189460" lon="1.8934870">
        <ele>2502.6</ele>
        <time>2015-08-12T09:20:43Z</time>
      </trkpt>
      <trkpt lat="42.3189390" lon="1.8934640">
        <ele>2502.2</ele>
        <time>2015-08-12T09:20:46Z</time>
      </trkpt>
      <trkpt lat="42.3189330" lon="1.8934410">
        <ele>2501.9</ele>
        <time>2015-08-12T09:20:50Z</time>
      </trkpt>
      <trkpt lat="42.3189260" lon="1.8934190">
        <ele>2501.5</ele>
        <time>2015-08-12T09:20:53Z</time>
      </trkpt>
      <trkpt lat="42.3189190" lon="1.8933960">
        <ele>2501.2</ele>
        <time>2015-08-12T09:20:56Z</time>
      </trkpt>
      <trkpt lat="42.3189120" lon="1.8933730">
        <ele>2500.8</ele>
        <time>2015-08-12T09:20:59Z</time>
      </trkpt>
      <trkpt lat="42.3189050" lon="1.8933500">
        <ele>2500.5</ele>
        <time>2015-08-12T09:21:02Z</time>
      </trkpt>
      <trkpt lat="42.3188980" lon="1.8933270">
        <ele>2500.1</ele>
        <time>2015-08-12T09:21:06Z</time>
      </trkpt>
      <trkpt lat="42.3188910" lon="1.8933040">
        <ele>2499.8</ele>
        <time>2015-08-12T09:21:09Z</time>
      </trkpt>
      <trkpt lat="42.3188840" lon="1.8932810">
        <ele>2499.4</ele>
        <time>2015-08-12T09:21:11Z</time>
      </trkpt>
      <trkpt lat="42.3188780" lon="1.8932580">
        <ele>2499.1</ele>
        <time>2015-08-12T09:21:14Z</time>
      </trkpt>
      <trkpt lat="42.3188710" lon="1.8932360">
        <ele>2498.7</ele>
        <time>2015-08-12T09:21:17Z</time>
      </trkpt>
      <trkpt lat="42.3188640" lon="1.8932130">
        <ele>2498.4</ele>
        <time>2015-08-12T09:21:19Z</time>
      </trkpt>
      <trkpt lat="42.3188570" lon="1.8931900">
        <ele>2498.1</ele>
        <time>2015-08-12T09:25:42Z</time>
      </trkpt>
      <trkpt lat="42.3188500" lon="1.8931670">
        <ele>2497.7</ele>
        <time>2015-08-12T09:25:43Z</time>
      </trkpt>
      <trkpt lat="42.3188670" lon="1.8931140">
        <ele>2497.3</ele>
        <time>2015-08-12T09:25:45Z</time>
      </trkpt>
      <trkpt lat="42.3188690" lon="1.8930990">
        <ele>2497.1</ele>
        <time>2015-08-12T09:25:47Z</time>
      </trkpt>
      <trkpt lat="42.3188710" lon="1.8930830">
        <ele>2497.0</ele>
        <time>2015-08-12T09:25:50Z</time>
      </trkpt>
      <trkpt lat="42.3188740" lon="1.8930680">
        <ele>2496.8</ele>
        <time>2015-08-12T09:26:38Z</time>
      </trkpt>
      <trkpt lat="42.3188760" lon="1.8930520">
        <ele>2496.6</ele>
        <time>2015-08-12T09:28:52Z</time>
      </trkpt>
      <trkpt lat="42.3188780" lon="1.8930360">
        <ele>2496.5</ele>
        <time>2015-08-12T09:29:01Z</time>
      </trkpt>
      <trkpt lat="42.3188800" lon="1.8930210">
        <ele>2496.3</ele>
        <time>2015-08-12T09:29:12Z</time>
      </trkpt>
      <trkpt lat="42.3188820" lon="1.8930050">
        <ele>2496.1</ele>
        <time>2015-08-12T09:30:18Z</time>
      </trkpt>
      <trkpt lat="42.3188840" lon="1.8929890">
        <ele>2496.0</ele>
        <time>2015-08-12T09:37:23Z</time>
      </trkpt>
      <trkpt lat="42.3188860" lon="1.8929740">
        <ele>2495.8</ele>
        <time>2015-08-12T09:43:46Z</time>
      </trkpt>
      <trkpt lat="42.3188880" lon="1.8929580">
        <ele>2495.6</ele>
        <time>2015-08-12T09:44:32Z</time>
      </trkpt>
      <trkpt lat="42.3188910" lon="1.8929430">
        <ele>2495.5</ele>
        <time>2015-08-12T09:47:02Z</time>
      </trkpt>
      <trkpt lat="42.3188930" lon="1.8929270">
        <ele>2495.3</ele>
        <time>2015-08-12T09:50:35Z</time>
      </trkpt>
      <trkpt lat="42.3188950" lon="1.8929110">
        <ele>2495.0</ele>
        <time>2015-08-12T09:51:09Z</time>
      </trkpt>
      <trkpt lat="42.3188970" lon="1.8928960">
        <ele>2494.4</ele>
        <time>2015-08-12T09:53:21Z</time>
      </trkpt>
      <trkpt lat="42.3188990" lon="1.8928800">
        <ele>2493.8</ele>
        <time>2015-08-12T09:53:22Z</time>
      </trkpt>
      <trkpt lat="42.3189080" lon="1.8928060">
        <ele>2491.1</ele>
        <time>2015-08-12T09:53:23Z</time>
      </trkpt>
      <trkpt lat="42.3189100" lon="1.8927370">
        <ele>2488.4</ele>
        <time>2015-08-12T09:53:24Z</time>
      </trkpt>
      <trkpt lat="42.3189070" lon="1.8926560">
        <ele>2485.3</ele>
        <time>2015-08-12T09:53:25Z</time>
      </trkpt>
      <trkpt lat="42.3189280" lon="1.8925750">
        <ele>2482.3</ele>
        <time>2015-08-12T09:53:26Z</time>
      </trkpt>
      <trkpt lat="42.3189240" lon="1.8925350">
        <ele>2480.7</ele>
        <time>2015-08-12T09:53:27Z</time>
      </trkpt>
      <trkpt lat="42.3189180" lon="1.8924960">
        <ele>2479.2</ele>
        <time>2015-08-12T09:53:28Z</time>
      </trkpt>
      <trkpt lat="42.3188980" lon="1.8924310">
        <ele>2476.6</ele>
        <time>2015-08-12T09:53:30Z</time>
      </trkpt>
      <trkpt lat="42.3188650" lon="1.8924120">
        <ele>2475.7</ele>
        <time>2015-08-12T09:53:31Z</time>
      </trkpt>
      <trkpt lat="42.3188450" lon="1.8923770">
        <ele>2474.3</ele>
        <time>2015-08-12T09:53:33Z</time>
      </trkpt>
      <trkpt lat="42.3188190" lon="1.8923540">
        <ele>2473.3</ele>
        <time>2015-08-12T09:53:35Z</time>
      </trkpt>
      <trkpt lat="42.3188580" lon="1.8923540">
        <ele>2473.5</ele>
        <time>2015-08-12T09:53:44Z</time>
      </trkpt>
      <trkpt lat="42.3188550" lon="1.8923170">
        <ele>2472.0</ele>
        <time>2015-08-12T09:53:48Z</time>
      </trkpt>
      <trkpt lat="42.3188780" lon="1.8922940">
        <ele>2471.2</ele>
        <time>2015-08-12T09:53:51Z</time>
      </trkpt>
      <trkpt lat="42.3189020" lon="1.8922640">
        <ele>2470.1</ele>
        <time>2015-08-12T09:53:58Z</time>
      </trkpt>
      <trkpt lat="42.3189020" lon="1.8922230">
        <ele>2468.6</ele>
        <time>2015-08-12T09:54:14Z</time>
      </trkpt>
      <trkpt lat="42.3188770" lon="1.8922060">
        <ele>2467.9</ele>
        <time>2015-08-12T09:54:23Z</time>
      </trkpt>
      <trkpt lat="42.3188580" lon="1.8921800">
        <ele>2466.8</ele>
        <time>2015-08-12T09:54:48Z</time>
      </trkpt>
      <trkpt lat="42.3188260" lon="1.8921730">
        <ele>2466.5</ele>
        <time>2015-08-12T09:55:29Z</time>
      </trkpt>
      <trkpt lat="42.3188010" lon="1.8921260">
        <ele>2464.7</ele>
        <time>2015-08-12T09:55:31Z</time>
      </trkpt>
      <trkpt lat="42.3187370" lon="1.8921110">
        <ele>2463.7</ele>
        <time>2015-08-12T09:55:33Z</time>
      </trkpt>
      <trkpt lat="42.3187100" lon="1.8920900">
        <ele>2462.3</ele>
        <time>2015-08-12T09:55:34Z</time>
      </trkpt>
      <trkpt lat="42.3186930" lon="1.8920580">
        <ele>2460.5</ele>
        <time>2015-08-12T09:55:35Z</time>
      </trkpt>
      <trkpt lat="42.3186760" lon="1.8920300">
        <ele>2458.9</ele>
        <time>2015-08-12T09:55:36Z</time>
      </trkpt>
      <trkpt lat="42.3186450" lon="1.8920090">
        <ele>2457.3</ele>
        <time>2015-08-12T09:55:37Z</time>
      </trkpt>
      <trkpt lat="42.3186110" lon="1.8919860">
        <ele>2455.7</ele>
        <time>2015-08-12T09:55:38Z</time>
      </trkpt>
      <trkpt lat="42.3185720" lon="1.8919470">
        <ele>2453.3</ele>
        <time>2015-08-12T09:55:39Z</time>
      </trkpt>
      <trkpt lat="42.3185360" lon="1.8919010">
        <ele>2450.8</ele>
        <time>2015-08-12T09:55:40Z</time>
      </trkpt>
      <trkpt lat="42.3184950" lon="1.8918720">
        <ele>2449.0</ele>
        <time>2015-08-12T09:55:41Z</time>
      </trkpt>
      <trkpt lat="42.3184620" lon="1.8918340">
        <ele>2447.0</ele>
        <time>2015-08-12T09:55:42Z</time>
      </trkpt>
      <trkpt lat="42.3184420" lon="1.8918080">
        <ele>2445.7</ele>
        <time>2015-08-12T09:55:44Z</time>
      </trkpt>
      <trkpt lat="42.3184220" lon="1.8917800">
        <ele>2444.4</ele>
        <time>2015-08-12T09:55:45Z</time>
      </trkpt>
      <trkpt lat="42.3184010" lon="1.8917470">
        <ele>2443.0</ele>
        <time>2015-08-12T09:55:46Z</time>
      </trkpt>
      <trkpt lat="42.3183770" lon="1.8917190">
        <ele>2441.7</ele>
        <time>2015-08-12T09:55:48Z</time>
      </trkpt>
      <trkpt lat="42.3183450" lon="1.8916560">
        <ele>2439.3</ele>
        <time>2015-08-12T09:55:50Z</time>
      </trkpt>
      <trkpt lat="42.3183230" lon="1.8916220">
        <ele>2438.0</ele>
        <time>2015-08-12T09:55:51Z</time>
      </trkpt>
      <trkpt lat="42.3183030" lon="1.8915880">
        <ele>2436.7</ele>
        <time>2015-08-12T09:55:52Z</time>
      </trkpt>
      <trkpt lat="42.3182820" lon="1.8915430">
        <ele>2435.1</ele>
        <time>2015-08-12T09:55:53Z</time>
      </trkpt>
      <trkpt lat="42.3182550" lon="1.8914860">
        <ele>2433.2</ele>
        <time>2015-08-12T09:55:55Z</time>
      </trkpt>
      <trkpt lat="42.3182230" lon="1.8914800">
        <ele>2432.9</ele>
        <time>2015-08-12T09:55:56Z</time>
      </trkpt>
      <trkpt lat="42.3182340" lon="1.8914310">
        <ele>2431.5</ele>
        <time>2015-08-12T09:55:58Z</time>
      </trkpt>
      <trkpt lat="42.3182430" lon="1.8913940">
        <ele>2430.5</ele>
        <time>2015-08-12T09:56:01Z</time>
      </trkpt>
      <trkpt lat="42.3182500" lon="1.8913570">
        <ele>2429.4</ele>
        <time>2015-08-12T09:56:07Z</time>
      </trkpt>
      <trkpt lat="42.3182720" lon="1.8913330">
        <ele>2428.7</ele>
        <time>2015-08-12T09:58:16Z</time>
      </trkpt>
      <trkpt lat="42.3182740" lon="1.8913750">
        <ele>2430.0</ele>
        <time>2015-08-12T09:58:23Z</time>
      </trkpt>
      <trkpt lat="42.3182420" lon="1.8914060">
        <ele>2430.8</ele>
        <time>2015-08-12T09:58:30Z</time>
      </trkpt>
      <trkpt lat="42.3182360" lon="1.8913670">
        <ele>2429.7</ele>
        <time>2015-08-12T09:58:32Z</time>
      </trkpt>
      <trkpt lat="42.3182080" lon="1.8913950">
        <ele>2430.4</ele>
        <time>2015-08-12T09:58:49Z</time>
      </trkpt>
      <trkpt lat="42.3181730" lon="1.8914170">
        <ele>2430.9</ele>
        <time>2015-08-12T09:59:37Z</time>
      </trkpt>
      <trkpt lat="42.3181320" lon="1.8913930">
        <ele>2430.2</ele>
        <time>2015-08-12T09:59:39Z</time>
      </trkpt>
      <trkpt lat="42.3180980" lon="1.8913760">
        <ele>2429.7</ele>
        <time>2015-08-12T09:59:40Z</time>
      </trkpt>
      <trkpt lat="42.3180670" lon="1.8913450">
        <ele>2428.9</ele>
        <time>2015-08-12T09:59:41Z</time>
      </trkpt>
      <trkpt lat="42.3180420" lon="1.8913210">
        <ele>2428.3</ele>
        <time>2015-08-12T09:59:42Z</time>
      </trkpt>
      <trkpt lat="42.3180240" lon="1.8912910">
        <ele>2427.7</ele>
        <time>2015-08-12T09:59:43Z</time>
      </trkpt>
      <trkpt lat="42.3180070" lon="1.8912570">
        <ele>2426.9</ele>
        <time>2015-08-12T09:59:44Z</time>
      </trkpt>
      <trkpt lat="42.3179840" lon="1.8912140">
        <ele>2426.0</ele>
        <time>2015-08-12T09:59:47Z</time>
      </trkpt>
      <trkpt lat="42.3179440" lon="1.8911820">
        <ele>2425.4</ele>
        <time>2015-08-12T09:59:49Z</time>
      </trkpt>
      <trkpt lat="42.3179030" lon="1.8911410">
        <ele>2424.3</ele>
        <time>2015-08-12T09:59:51Z</time>
      </trkpt>
      <trkpt lat="42.3178810" lon="1.8911100">
        <ele>2423.0</ele>
        <time>2015-08-12T09:59:52Z</time>
      </trkpt>
      <trkpt lat="42.3178430" lon="1.8910580">
        <ele>2421.0</ele>
        <time>2015-08-12T09:59:54Z</time>
      </trkpt>
      <trkpt lat="42.3178130" lon="1.8910350">
        <ele>2419.7</ele>
        <time>2015-08-12T09:59:55Z</time>
      </trkpt>
      <trkpt lat="42.3177840" lon="1.8910060">
        <ele>2418.4</ele>
        <time>2015-08-12T09:59:56Z</time>
      </trkpt>
      <trkpt lat="42.3177570" lon="1.8909700">
        <ele>2417.1</ele>
        <time>2015-08-12T09:59:57Z</time>
      </trkpt>
      <trkpt lat="42.3177500" lon="1.8909240">
        <ele>2416.0</ele>
        <time>2015-08-12T09:59:58Z</time>
      </trkpt>
      <trkpt lat="42.3177320" lon="1.8908900">
        <ele>2415.0</ele>
        <time>2015-08-12T09:59:59Z</time>
      </trkpt>
      <trkpt lat="42.3176980" lon="1.8908500">
        <ele>2413.4</ele>
        <time>2015-08-12T10:00:00Z</time>
      </trkpt>
      <trkpt lat="42.3176640" lon="1.8908060">
        <ele>2411.9</ele>
        <time>2015-08-12T10:00:01Z</time>
      </trkpt>
      <trkpt lat="42.3176230" lon="1.8907580">
        <ele>2410.2</ele>
        <time>2015-08-12T10:00:02Z</time>
      </trkpt>
      <trkpt lat="42.3175860" lon="1.8907130">
        <ele>2408.7</ele>
        <time>2015-08-12T10:00:03Z</time>
      </trkpt>
      <trkpt lat="42.3175470" lon="1.8906680">
        <ele>2407.2</ele>
        <time>2015-08-12T10:00:04Z</time>
      </trkpt>
      <trkpt lat="42.3175170" lon="1.8906030">
        <ele>2405.6</ele>
        <time>2015-08-12T10:00:05Z</time>
      </trkpt>
      <trkpt lat="42.3174830" lon="1.8905480">
        <ele>2404.2</ele>
        <time>2015-08-12T10:00:06Z</time>
      </trkpt>
      <trkpt lat="42.3174550" lon="1.8905000">
        <ele>2403.0</ele>
        <time>2015-08-12T10:00:07Z</time>
      </trkpt>
      <trkpt lat="42.3174400" lon="1.8904490">
        <ele>2402.0</ele>
        <time>2015-08-12T10:00:08Z</time>
      </trkpt>
      <trkpt lat="42.3174580" lon="1.8903910">
        <ele>2401.5</ele>
        <time>2015-08-12T10:00:10Z</time>
      </trkpt>
      <trkpt lat="42.3174880" lon="1.8903540">
        <ele>2401.5</ele>
        <time>2015-08-12T10:00:21Z</time>
      </trkpt>
      <trkpt lat="42.3175010" lon="1.8903220">
        <ele>2401.3</ele>
        <time>2015-08-12T10:00:22Z</time>
      </trkpt>
      <trkpt lat="42.3175200" lon="1.8902920">
        <ele>2401.2</ele>
        <time>2015-08-12T10:00:23Z</time>
      </trkpt>
      <trkpt lat="42.3175430" lon="1.8902690">
        <ele>2401.2</ele>
        <time>2015-08-12T10:00:24Z</time>
      </trkpt>
      <trkpt lat="42.3175660" lon="1.8902500">
        <ele>2401.4</ele>
        <time>2015-08-12T10:00:27Z</time>
      </trkpt>
      <trkpt lat="42.3175820" lon="1.8901770">
        <ele>2400.7</ele>
        <time>2015-08-12T10:00:30Z</time>
      </trkpt>
      <trkpt lat="42.3175940" lon="1.8901160">
        <ele>2400.1</ele>
        <time>2015-08-12T10:00:32Z</time>
      </trkpt>
      <trkpt lat="42.3176010" lon="1.8900440">
        <ele>2399.3</ele>
        <time>2015-08-12T10:00:34Z</time>
      </trkpt>
      <trkpt lat="42.3176070" lon="1.8899790">
        <ele>2398.5</ele>
        <time>2015-08-12T10:00:36Z</time>
      </trkpt>
      <trkpt lat="42.3176060" lon="1.8899310">
        <ele>2397.9</ele>
        <time>2015-08-12T10:00:37Z</time>
      </trkpt>
      <trkpt lat="42.3176250" lon="1.8898500">
        <ele>2397.2</ele>
        <time>2015-08-12T10:00:39Z</time>
      </trkpt>
      <trkpt lat="42.3176430" lon="1.8897940">
        <ele>2396.8</ele>
        <time>2015-08-12T10:00:40Z</time>
      </trkpt>
      <trkpt lat="42.3176560" lon="1.8897530">
        <ele>2396.5</ele>
        <time>2015-08-12T10:00:41Z</time>
      </trkpt>
      <trkpt lat="42.3176670" lon="1.8897130">
        <ele>2396.2</ele>
        <time>2015-08-12T10:00:42Z</time>
      </trkpt>
      <trkpt lat="42.3176810" lon="1.8896630">
        <ele>2395.8</ele>
        <time>2015-08-12T10:00:44Z</time>
      </trkpt>
      <trkpt lat="42.3177090" lon="1.8896790">
        <ele>2396.5</ele>
        <time>2015-08-12T10:00:45Z</time>
      </trkpt>
      <trkpt lat="42.3177530" lon="1.8896810">
        <ele>2397.3</ele>
        <time>2015-08-12T10:00:47Z</time>
      </trkpt>
      <trkpt lat="42.3177690" lon="1.8897150">
        <ele>2398.0</ele>
        <time>2015-08-12T10:00:50Z</time>
      </trkpt>
      <trkpt lat="42.3178020" lon="1.8897280">
        <ele>2398.7</ele>
        <time>2015-08-12T10:00:51Z</time>
      </trkpt>
      <trkpt lat="42.3178490" lon="1.8897500">
        <ele>2399.8</ele>
        <time>2015-08-12T10:00:53Z</time>
      </trkpt>
      <trkpt lat="42.3178790" lon="1.8897230">
        <ele>2400.0</ele>
        <time>2015-08-12T10:00:55Z</time>
      </trkpt>
      <trkpt lat="42.3179020" lon="1.8896890">
        <ele>2400.0</ele>
        <time>2015-08-12T10:00:57Z</time>
      </trkpt>
      <trkpt lat="42.3178780" lon="1.8896710">
        <ele>2399.4</ele>
        <time>2015-08-12T10:01:05Z</time>
      </trkpt>
      <trkpt lat="42.3179190" lon="1.8896790">
        <ele>2400.1</ele>
        <time>2015-08-12T10:01:14Z</time>
      </trkpt>
      <trkpt lat="42.3179530" lon="1.8896520">
        <ele>2398.3</ele>
        <time>2015-08-12T10:01:17Z</time>
      </trkpt>
      <trkpt lat="42.3179900" lon="1.8896450">
        <ele>2396.6</ele>
        <time>2015-08-12T10:01:19Z</time>
      </trkpt>
      <trkpt lat="42.3180360" lon="1.8896640">
        <ele>2394.9</ele>
        <time>2015-08-12T10:01:21Z</time>
      </trkpt>
      <trkpt lat="42.3180620" lon="1.8896480">
        <ele>2393.6</ele>
        <time>2015-08-12T10:01:25Z</time>
      </trkpt>
      <trkpt lat="42.3180650" lon="1.8895990">
        <ele>2392.7</ele>
        <time>2015-08-12T10:01:28Z</time>
      </trkpt>
      <trkpt lat="42.3180760" lon="1.8895510">
        <ele>2391.1</ele>
        <time>2015-08-12T10:01:31Z</time>
      </trkpt>
      <trkpt lat="42.3180850" lon="1.8895120">
        <ele>2389.8</ele>
        <time>2015-08-12T10:01:33Z</time>
      </trkpt>
      <trkpt lat="42.3180960" lon="1.8894670">
        <ele>2388.2</ele>
        <time>2015-08-12T10:01:35Z</time>
      </trkpt>
      <trkpt lat="42.3181100" lon="1.8894330">
        <ele>2386.7</ele>
        <time>2015-08-12T10:01:36Z</time>
      </trkpt>
      <trkpt lat="42.3181230" lon="1.8893950">
        <ele>2385.2</ele>
        <time>2015-08-12T10:01:37Z</time>
      </trkpt>
      <trkpt lat="42.3181630" lon="1.8893480">
        <ele>2382.1</ele>
        <time>2015-08-12T10:01:40Z</time>
      </trkpt>
      <trkpt lat="42.3182010" lon="1.8893130">
        <ele>2379.4</ele>
        <time>2015-08-12T10:01:42Z</time>
      </trkpt>
      <trkpt lat="42.3182220" lon="1.8892600">
        <ele>2377.1</ele>
        <time>2015-08-12T10:01:43Z</time>
      </trkpt>
      <trkpt lat="42.3182590" lon="1.8892230">
        <ele>2374.3</ele>
        <time>2015-08-12T10:01:45Z</time>
      </trkpt>
      <trkpt lat="42.3182660" lon="1.8891500">
        <ele>2372.1</ele>
        <time>2015-08-12T10:01:47Z</time>
      </trkpt>
      <trkpt lat="42.3182770" lon="1.8891100">
        <ele>2370.5</ele>
        <time>2015-08-12T10:01:48Z</time>
      </trkpt>
      <trkpt lat="42.3182680" lon="1.8890650">
        <ele>2369.7</ele>
        <time>2015-08-12T10:01:49Z</time>
      </trkpt>
      <trkpt lat="42.3183470" lon="1.8890720">
        <ele>2366.0</ele>
        <time>2015-08-12T10:01:50Z</time>
      </trkpt>
      <trkpt lat="42.3183990" lon="1.8890650">
        <ele>2363.2</ele>
        <time>2015-08-12T10:01:53Z</time>
      </trkpt>
      <trkpt lat="42.3183740" lon="1.8890770">
        <ele>2364.8</ele>
        <time>2015-08-12T10:01:54Z</time>
      </trkpt>
      <trkpt lat="42.3183460" lon="1.8890790">
        <ele>2366.3</ele>
        <time>2015-08-12T10:01:55Z</time>
      </trkpt>
      <trkpt lat="42.3183030" lon="1.8890970">
        <ele>2368.9</ele>
        <time>2015-08-12T10:01:58Z</time>
      </trkpt>
      <trkpt lat="42.3183770" lon="1.8891300">
        <ele>2366.1</ele>
        <time>2015-08-12T10:02:00Z</time>
      </trkpt>
      <trkpt lat="42.3183520" lon="1.8891440">
        <ele>2367.7</ele>
        <time>2015-08-12T10:02:38Z</time>
      </trkpt>
      <trkpt lat="42.3184770" lon="1.8889270">
        <ele>2355.4</ele>
        <time>2015-08-12T10:03:34Z</time>
      </trkpt>
      <trkpt lat="42.3184180" lon="1.8889010">
        <ele>2357.7</ele>
        <time>2015-08-12T10:03:36Z</time>
      </trkpt>
      <trkpt lat="42.3184950" lon="1.8886440">
        <ele>2346.2</ele>
        <time>2015-08-12T10:04:55Z</time>
      </trkpt>
      <trkpt lat="42.3182040" lon="1.8885410">
        <ele>2356.9</ele>
        <time>2015-08-12T10:04:58Z</time>
      </trkpt>
      <trkpt lat="42.3181670" lon="1.8885370">
        <ele>2358.5</ele>
        <time>2015-08-12T10:04:59Z</time>
      </trkpt>
      <trkpt lat="42.3181220" lon="1.8885350">
        <ele>2360.5</ele>
        <time>2015-08-12T10:05:02Z</time>
      </trkpt>
      <trkpt lat="42.3180930" lon="1.8885220">
        <ele>2361.3</ele>
        <time>2015-08-12T10:05:05Z</time>
      </trkpt>
      <trkpt lat="42.3180690" lon="1.8885020">
        <ele>2361.6</ele>
        <time>2015-08-12T10:05:12Z</time>
      </trkpt>
      <trkpt lat="42.3180520" lon="1.8884600">
        <ele>2360.6</ele>
        <time>2015-08-12T10:05:13Z</time>
      </trkpt>
      <trkpt lat="42.3180620" lon="1.8883630">
        <ele>2356.1</ele>
        <time>2015-08-12T10:05:15Z</time>
      </trkpt>
      <trkpt lat="42.3180750" lon="1.8882990">
        <ele>2352.9</ele>
        <time>2015-08-12T10:05:16Z</time>
      </trkpt>
      <trkpt lat="42.3180640" lon="1.8882150">
        <ele>2349.9</ele>
        <time>2015-08-12T10:05:18Z</time>
      </trkpt>
      <trkpt lat="42.3180360" lon="1.8881440">
        <ele>2347.9</ele>
        <time>2015-08-12T10:05:20Z</time>
      </trkpt>
      <trkpt lat="42.3180600" lon="1.8880840">
        <ele>2344.5</ele>
        <time>2015-08-12T10:05:22Z</time>
      </trkpt>
      <trkpt lat="42.3180280" lon="1.8880310">
        <ele>2343.4</ele>
        <time>2015-08-12T10:05:24Z</time>
      </trkpt>
      <trkpt lat="42.3180400" lon="1.8879880">
        <ele>2341.2</ele>
        <time>2015-08-12T10:05:27Z</time>
      </trkpt>
      <trkpt lat="42.3180460" lon="1.8879420">
        <ele>2339.0</ele>
        <time>2015-08-12T10:05:29Z</time>
      </trkpt>
      <trkpt lat="42.3180730" lon="1.8879070">
        <ele>2336.8</ele>
        <time>2015-08-12T10:05:31Z</time>
      </trkpt>
      <trkpt lat="42.3180630" lon="1.8878380">
        <ele>2334.9</ele>
        <time>2015-08-12T10:05:33Z</time>
      </trkpt>
      <trkpt lat="42.3180580" lon="1.8877770">
        <ele>2333.1</ele>
        <time>2015-08-12T10:05:35Z</time>
      </trkpt>
      <trkpt lat="42.3180860" lon="1.8877930">
        <ele>2332.8</ele>
        <time>2015-08-12T10:05:42Z</time>
      </trkpt>
      <trkpt lat="42.3180800" lon="1.8877520">
        <ele>2331.6</ele>
        <time>2015-08-12T10:05:45Z</time>
      </trkpt>
      <trkpt lat="42.3181070" lon="1.8877360">
        <ele>2330.4</ele>
        <time>2015-08-12T10:05:46Z</time>
      </trkpt>
      <trkpt lat="42.3181420" lon="1.8877010">
        <ele>2328.3</ele>
        <time>2015-08-12T10:05:47Z</time>
      </trkpt>
      <trkpt lat="42.3181420" lon="1.8876560">
        <ele>2326.9</ele>
        <time>2015-08-12T10:05:50Z</time>
      </trkpt>
      <trkpt lat="42.3181520" lon="1.8876150">
        <ele>2325.4</ele>
        <time>2015-08-12T10:05:52Z</time>
      </trkpt>
      <trkpt lat="42.3181410" lon="1.8875360">
        <ele>2323.2</ele>
        <time>2015-08-12T10:05:54Z</time>
      </trkpt>
      <trkpt lat="42.3181280" lon="1.8875020">
        <ele>2322.5</ele>
        <time>2015-08-12T10:05:55Z</time>
      </trkpt>
      <trkpt lat="42.3181230" lon="1.8874610">
        <ele>2321.3</ele>
        <time>2015-08-12T10:05:56Z</time>
      </trkpt>
      <trkpt lat="42.3181210" lon="1.8874120">
        <ele>2319.8</ele>
        <time>2015-08-12T10:05:57Z</time>
      </trkpt>
      <trkpt lat="42.3181000" lon="1.8873730">
        <ele>2319.1</ele>
        <time>2015-08-12T10:05:58Z</time>
      </trkpt>
      <trkpt lat="42.3180860" lon="1.8873130">
        <ele>2317.5</ele>
        <time>2015-08-12T10:05:59Z</time>
      </trkpt>
      <trkpt lat="42.3180660" lon="1.8872800">
        <ele>2316.8</ele>
        <time>2015-08-12T10:06:00Z</time>
      </trkpt>
      <trkpt lat="42.3180540" lon="1.8872430">
        <ele>2315.9</ele>
        <time>2015-08-12T10:06:01Z</time>
      </trkpt>
      <trkpt lat="42.3180320" lon="1.8871870">
        <ele>2314.5</ele>
        <time>2015-08-12T10:06:03Z</time>
      </trkpt>
      <trkpt lat="42.3180430" lon="1.8871400">
        <ele>2312.7</ele>
        <time>2015-08-12T10:06:06Z</time>
      </trkpt>
      <trkpt lat="42.3180300" lon="1.8870990">
        <ele>2311.6</ele>
        <time>2015-08-12T10:06:08Z</time>
      </trkpt>
      <trkpt lat="42.3180190" lon="1.8870600">
        <ele>2310.4</ele>
        <time>2015-08-12T10:06:09Z</time>
      </trkpt>
      <trkpt lat="42.3180120" lon="1.8869970">
        <ele>2308.3</ele>
        <time>2015-08-12T10:06:11Z</time>
      </trkpt>
      <trkpt lat="42.3180230" lon="1.8869160">
        <ele>2305.1</ele>
        <time>2015-08-12T10:06:12Z</time>
      </trkpt>
      <trkpt lat="42.3180010" lon="1.8868780">
        <ele>2304.1</ele>
        <time>2015-08-12T10:06:13Z</time>
      </trkpt>
      <trkpt lat="42.3179990" lon="1.8868160">
        <ele>2301.9</ele>
        <time>2015-08-12T10:06:16Z</time>
      </trkpt>
      <trkpt lat="42.3179770" lon="1.8867780">
        <ele>2300.8</ele>
        <time>2015-08-12T10:06:18Z</time>
      </trkpt>
      <trkpt lat="42.3179540" lon="1.8867190">
        <ele>2298.9</ele>
        <time>2015-08-12T10:06:20Z</time>
      </trkpt>
      <trkpt lat="42.3179090" lon="1.8867090">
        <ele>2298.7</ele>
        <time>2015-08-12T10:06:23Z</time>
      </trkpt>
      <trkpt lat="42.3178780" lon="1.8866960">
        <ele>2296.6</ele>
        <time>2015-08-12T10:06:24Z</time>
      </trkpt>
      <trkpt lat="42.3178530" lon="1.8866750">
        <ele>2294.5</ele>
        <time>2015-08-12T10:06:25Z</time>
      </trkpt>
      <trkpt lat="42.3178240" lon="1.8866570">
        <ele>2292.2</ele>
        <time>2015-08-12T10:06:26Z</time>
      </trkpt>
      <trkpt lat="42.3178030" lon="1.8866330">
        <ele>2290.2</ele>
        <time>2015-08-12T10:06:28Z</time>
      </trkpt>
      <trkpt lat="42.3178220" lon="1.8865960">
        <ele>2289.8</ele>
        <time>2015-08-12T10:06:34Z</time>
      </trkpt>
      <trkpt lat="42.3178140" lon="1.8865560">
        <ele>2287.9</ele>
        <time>2015-08-12T10:06:39Z</time>
      </trkpt>
      <trkpt lat="42.3178040" lon="1.8865180">
        <ele>2285.9</ele>
        <time>2015-08-12T10:06:40Z</time>
      </trkpt>
      <trkpt lat="42.3177840" lon="1.8864700">
        <ele>2283.0</ele>
        <time>2015-08-12T10:06:41Z</time>
      </trkpt>
      <trkpt lat="42.3177630" lon="1.8864320">
        <ele>2280.4</ele>
        <time>2015-08-12T10:06:42Z</time>
      </trkpt>
      <trkpt lat="42.3177390" lon="1.8863830">
        <ele>2277.3</ele>
        <time>2015-08-12T10:06:43Z</time>
      </trkpt>
      <trkpt lat="42.3177230" lon="1.8863330">
        <ele>2274.5</ele>
        <time>2015-08-12T10:06:44Z</time>
      </trkpt>
      <trkpt lat="42.3177030" lon="1.8862840">
        <ele>2271.5</ele>
        <time>2015-08-12T10:06:45Z</time>
      </trkpt>
      <trkpt lat="42.3176850" lon="1.8862340">
        <ele>2269.3</ele>
        <time>2015-08-12T10:06:46Z</time>
      </trkpt>
      <trkpt lat="42.3176750" lon="1.8861790">
        <ele>2268.9</ele>
        <time>2015-08-12T10:06:47Z</time>
      </trkpt>
      <trkpt lat="42.3176570" lon="1.8861220">
        <ele>2268.1</ele>
        <time>2015-08-12T10:06:48Z</time>
      </trkpt>
      <trkpt lat="42.3176550" lon="1.8860470">
        <ele>2268.3</ele>
        <time>2015-08-12T10:06:49Z</time>
      </trkpt>
      <trkpt lat="42.3176250" lon="1.8860040">
        <ele>2266.9</ele>
        <time>2015-08-12T10:06:50Z</time>
      </trkpt>
      <trkpt lat="42.3176190" lon="1.8859290">
        <ele>2266.9</ele>
        <time>2015-08-12T10:06:51Z</time>
      </trkpt>
      <trkpt lat="42.3176020" lon="1.8858730">
        <ele>2266.3</ele>
        <time>2015-08-12T10:06:52Z</time>
      </trkpt>
      <trkpt lat="42.3176010" lon="1.8858310">
        <ele>2266.5</ele>
        <time>2015-08-12T10:06:53Z</time>
      </trkpt>
      <trkpt lat="42.3175840" lon="1.8857820">
        <ele>2265.9</ele>
        <time>2015-08-12T10:06:54Z</time>
      </trkpt>
      <trkpt lat="42.3175750" lon="1.8857390">
        <ele>2265.7</ele>
        <time>2015-08-12T10:06:55Z</time>
      </trkpt>
      <trkpt lat="42.3176050" lon="1.8857610">
        <ele>2267.0</ele>
        <time>2015-08-12T10:07:08Z</time>
      </trkpt>
      <trkpt lat="42.3176500" lon="1.8857610">
        <ele>2269.2</ele>
        <time>2015-08-12T10:07:48Z</time>
      </trkpt>
      <trkpt lat="42.3176950" lon="1.8857230">
        <ele>2271.4</ele>
        <time>2015-08-12T10:07:50Z</time>
      </trkpt>
      <trkpt lat="42.3177170" lon="1.8856570">
        <ele>2272.7</ele>
        <time>2015-08-12T10:07:52Z</time>
      </trkpt>
      <trkpt lat="42.3177310" lon="1.8856130">
        <ele>2273.5</ele>
        <time>2015-08-12T10:07:54Z</time>
      </trkpt>
      <trkpt lat="42.3177310" lon="1.8855710">
        <ele>2273.6</ele>
        <time>2015-08-12T10:07:55Z</time>
      </trkpt>
      <trkpt lat="42.3177390" lon="1.8855300">
        <ele>2274.0</ele>
        <time>2015-08-12T10:07:56Z</time>
      </trkpt>
      <trkpt lat="42.3177500" lon="1.8854940">
        <ele>2274.6</ele>
        <time>2015-08-12T10:07:57Z</time>
      </trkpt>
      <trkpt lat="42.3177500" lon="1.8854480">
        <ele>2274.7</ele>
        <time>2015-08-12T10:07:58Z</time>
      </trkpt>
      <trkpt lat="42.3177600" lon="1.8854140">
        <ele>2275.3</ele>
        <time>2015-08-12T10:07:59Z</time>
      </trkpt>
      <trkpt lat="42.3177680" lon="1.8853560">
        <ele>2276.7</ele>
        <time>2015-08-12T10:08:00Z</time>
      </trkpt>
      <trkpt lat="42.3177780" lon="1.8853000">
        <ele>2278.2</ele>
        <time>2015-08-12T10:08:01Z</time>
      </trkpt>
      <trkpt lat="42.3177360" lon="1.8852660">
        <ele>2277.1</ele>
        <time>2015-08-12T10:08:02Z</time>
      </trkpt>
      <trkpt lat="42.3177120" lon="1.8852210">
        <ele>2277.1</ele>
        <time>2015-08-12T10:08:03Z</time>
      </trkpt>
      <trkpt lat="42.3176940" lon="1.8851750">
        <ele>2277.3</ele>
        <time>2015-08-12T10:08:04Z</time>
      </trkpt>
      <trkpt lat="42.3177130" lon="1.8851380">
        <ele>2278.8</ele>
        <time>2015-08-12T10:08:05Z</time>
      </trkpt>
      <trkpt lat="42.3177320" lon="1.8850970">
        <ele>2280.3</ele>
        <time>2015-08-12T10:08:06Z</time>
      </trkpt>
      <trkpt lat="42.3177220" lon="1.8850500">
        <ele>2280.9</ele>
        <time>2015-08-12T10:08:07Z</time>
      </trkpt>
      <trkpt lat="42.3177010" lon="1.8850240">
        <ele>2280.6</ele>
        <time>2015-08-12T10:08:08Z</time>
      </trkpt>
      <trkpt lat="42.3177190" lon="1.8849940">
        <ele>2281.9</ele>
        <time>2015-08-12T10:08:24Z</time>
      </trkpt>
      <trkpt lat="42.3177400" lon="1.8850240">
        <ele>2282.0</ele>
        <time>2015-08-12T10:08:27Z</time>
      </trkpt>
      <trkpt lat="42.3177250" lon="1.8849850">
        <ele>2282.2</ele>
        <time>2015-08-12T10:09:10Z</time>
      </trkpt>
      <trkpt lat="42.3177310" lon="1.8849330">
        <ele>2283.5</ele>
        <time>2015-08-12T10:09:13Z</time>
      </trkpt>
      <trkpt lat="42.3177000" lon="1.8849390">
        <ele>2282.3</ele>
        <time>2015-08-12T10:09:20Z</time>
      </trkpt>
      <trkpt lat="42.3176760" lon="1.8849190">
        <ele>2282.0</ele>
        <time>2015-08-12T10:09:23Z</time>
      </trkpt>
      <trkpt lat="42.3176720" lon="1.8848790">
        <ele>2282.7</ele>
        <time>2015-08-12T10:09:31Z</time>
      </trkpt>
      <trkpt lat="42.3176860" lon="1.8848420">
        <ele>2283.9</ele>
        <time>2015-08-12T10:09:34Z</time>
      </trkpt>
      <trkpt lat="42.3176700" lon="1.8848010">
        <ele>2284.2</ele>
        <time>2015-08-12T10:09:38Z</time>
      </trkpt>
      <trkpt lat="42.3176650" lon="1.8847630">
        <ele>2284.9</ele>
        <time>2015-08-12T10:09:44Z</time>
      </trkpt>
      <trkpt lat="42.3176720" lon="1.8847200">
        <ele>2286.0</ele>
        <time>2015-08-12T10:10:09Z</time>
      </trkpt>
      <trkpt lat="42.3176840" lon="1.8846800">
        <ele>2287.1</ele>
        <time>2015-08-12T10:10:11Z</time>
      </trkpt>
      <trkpt lat="42.3176960" lon="1.8846450">
        <ele>2288.2</ele>
        <time>2015-08-12T10:10:16Z</time>
      </trkpt>
      <trkpt lat="42.3176940" lon="1.8845890">
        <ele>2289.3</ele>
        <time>2015-08-12T10:10:21Z</time>
      </trkpt>
      <trkpt lat="42.3176980" lon="1.8845500">
        <ele>2289.9</ele>
        <time>2015-08-12T10:10:26Z</time>
      </trkpt>
      <trkpt lat="42.3177100" lon="1.8845130">
        <ele>2290.6</ele>
        <time>2015-08-12T10:10:28Z</time>
      </trkpt>
      <trkpt lat="42.3177080" lon="1.8844750">
        <ele>2291.0</ele>
        <time>2015-08-12T10:10:32Z</time>
      </trkpt>
      <trkpt lat="42.3177020" lon="1.8844350">
        <ele>2291.4</ele>
        <time>2015-08-12T10:10:36Z</time>
      </trkpt>
      <trkpt lat="42.3176950" lon="1.8843860">
        <ele>2291.8</ele>
        <time>2015-08-12T10:10:40Z</time>
      </trkpt>
      <trkpt lat="42.3177090" lon="1.8843410">
        <ele>2292.6</ele>
        <time>2015-08-12T10:10:45Z</time>
      </trkpt>
      <trkpt lat="42.3177010" lon="1.8842950">
        <ele>2293.0</ele>
        <time>2015-08-12T10:10:49Z</time>
      </trkpt>
      <trkpt lat="42.3176780" lon="1.8842700">
        <ele>2293.1</ele>
        <time>2015-08-12T10:10:52Z</time>
      </trkpt>
      <trkpt lat="42.3176760" lon="1.8842320">
        <ele>2293.6</ele>
        <time>2015-08-12T10:10:55Z</time>
      </trkpt>
      <trkpt lat="42.3176500" lon="1.8841920">
        <ele>2293.9</ele>
        <time>2015-08-12T10:10:58Z</time>
      </trkpt>
      <trkpt lat="42.3176290" lon="1.8841660">
        <ele>2294.1</ele>
        <time>2015-08-12T10:11:01Z</time>
      </trkpt>
      <trkpt lat="42.3176290" lon="1.8841190">
        <ele>2294.8</ele>
        <time>2015-08-12T10:11:10Z</time>
      </trkpt>
      <trkpt lat="42.3176310" lon="1.8840740">
        <ele>2295.5</ele>
        <time>2015-08-12T10:11:21Z</time>
      </trkpt>
      <trkpt lat="42.3176340" lon="1.8840360">
        <ele>2296.1</ele>
        <time>2015-08-12T10:11:25Z</time>
      </trkpt>
      <trkpt lat="42.3176620" lon="1.8840080">
        <ele>2296.5</ele>
        <time>2015-08-12T10:11:27Z</time>
      </trkpt>
      <trkpt lat="42.3176520" lon="1.8839730">
        <ele>2297.0</ele>
        <time>2015-08-12T10:11:36Z</time>
      </trkpt>
      <trkpt lat="42.3176190" lon="1.8839440">
        <ele>2297.5</ele>
        <time>2015-08-12T10:11:46Z</time>
      </trkpt>
      <trkpt lat="42.3176250" lon="1.8839030">
        <ele>2298.1</ele>
        <time>2015-08-12T10:12:00Z</time>
      </trkpt>
      <trkpt lat="42.3176290" lon="1.8838630">
        <ele>2298.7</ele>
        <time>2015-08-12T10:12:03Z</time>
      </trkpt>
      <trkpt lat="42.3176130" lon="1.8838290">
        <ele>2299.4</ele>
        <time>2015-08-12T10:12:06Z</time>
      </trkpt>
      <trkpt lat="42.3176050" lon="1.8837770">
        <ele>2300.3</ele>
        <time>2015-08-12T10:12:09Z</time>
      </trkpt>
      <trkpt lat="42.3175830" lon="1.8837370">
        <ele>2300.8</ele>
        <time>2015-08-12T10:12:12Z</time>
      </trkpt>
      <trkpt lat="42.3175920" lon="1.8836980">
        <ele>2300.2</ele>
        <time>2015-08-12T10:12:17Z</time>
      </trkpt>
      <trkpt lat="42.3175780" lon="1.8836600">
        <ele>2299.8</ele>
        <time>2015-08-12T10:12:20Z</time>
      </trkpt>
      <trkpt lat="42.3175950" lon="1.8836230">
        <ele>2299.1</ele>
        <time>2015-08-12T10:12:52Z</time>
      </trkpt>
      <trkpt lat="42.3175640" lon="1.8835990">
        <ele>2299.2</ele>
        <time>2015-08-12T10:12:54Z</time>
      </trkpt>
      <trkpt lat="42.3176150" lon="1.8835850">
        <ele>2298.3</ele>
        <time>2015-08-12T10:12:57Z</time>
      </trkpt>
      <trkpt lat="42.3175830" lon="1.8835570">
        <ele>2298.3</ele>
        <time>2015-08-12T10:12:59Z</time>
      </trkpt>
      <trkpt lat="42.3175820" lon="1.8835100">
        <ele>2297.7</ele>
        <time>2015-08-12T10:13:07Z</time>
      </trkpt>
      <trkpt lat="42.3175950" lon="1.8834730">
        <ele>2297.0</ele>
        <time>2015-08-12T10:13:10Z</time>
      </trkpt>
      <trkpt lat="42.3175600" lon="1.8834390">
        <ele>2297.0</ele>
        <time>2015-08-12T10:13:11Z</time>
      </trkpt>
      <trkpt lat="42.3175380" lon="1.8834040">
        <ele>2296.9</ele>
        <time>2015-08-12T10:13:14Z</time>
      </trkpt>
      <trkpt lat="42.3175130" lon="1.8833900">
        <ele>2297.1</ele>
        <time>2015-08-12T10:13:17Z</time>
      </trkpt>
      <trkpt lat="42.3174950" lon="1.8833460">
        <ele>2296.7</ele>
        <time>2015-08-12T10:13:32Z</time>
      </trkpt>
      <trkpt lat="42.3174800" lon="1.8833080">
        <ele>2296.5</ele>
        <time>2015-08-12T10:13:34Z</time>
      </trkpt>
      <trkpt lat="42.3174700" lon="1.8832730">
        <ele>2296.2</ele>
        <time>2015-08-12T10:13:38Z</time>
      </trkpt>
      <trkpt lat="42.3174380" lon="1.8832730">
        <ele>2296.7</ele>
        <time>2015-08-12T10:13:41Z</time>
      </trkpt>
      <trkpt lat="42.3174600" lon="1.8832400">
        <ele>2295.9</ele>
        <time>2015-08-12T10:13:43Z</time>
      </trkpt>
      <trkpt lat="42.3174450" lon="1.8832090">
        <ele>2295.8</ele>
        <time>2015-08-12T10:14:07Z</time>
      </trkpt>
      <trkpt lat="42.3174290" lon="1.8831710">
        <ele>2295.6</ele>
        <time>2015-08-12T10:14:11Z</time>
      </trkpt>
      <trkpt lat="42.3174280" lon="1.8831300">
        <ele>2295.1</ele>
        <time>2015-08-12T10:14:18Z</time>
      </trkpt>
      <trkpt lat="42.3174100" lon="1.8830980">
        <ele>2295.0</ele>
        <time>2015-08-12T10:14:49Z</time>
      </trkpt>
      <trkpt lat="42.3173700" lon="1.8830500">
        <ele>2295.1</ele>
        <time>2015-08-12T10:14:51Z</time>
      </trkpt>
      <trkpt lat="42.3173490" lon="1.8830210">
        <ele>2295.1</ele>
        <time>2015-08-12T10:14:52Z</time>
      </trkpt>
      <trkpt lat="42.3173330" lon="1.8829880">
        <ele>2295.0</ele>
        <time>2015-08-12T10:14:53Z</time>
      </trkpt>
      <trkpt lat="42.3173190" lon="1.8829530">
        <ele>2294.9</ele>
        <time>2015-08-12T10:14:54Z</time>
      </trkpt>
      <trkpt lat="42.3173030" lon="1.8829130">
        <ele>2294.7</ele>
        <time>2015-08-12T10:14:55Z</time>
      </trkpt>
      <trkpt lat="42.3172680" lon="1.8828630">
        <ele>2293.8</ele>
        <time>2015-08-12T10:14:57Z</time>
      </trkpt>
      <trkpt lat="42.3172430" lon="1.8828290">
        <ele>2293.2</ele>
        <time>2015-08-12T10:14:59Z</time>
      </trkpt>
      <trkpt lat="42.3172170" lon="1.8827940">
        <ele>2292.6</ele>
        <time>2015-08-12T10:15:00Z</time>
      </trkpt>
      <trkpt lat="42.3171930" lon="1.8827590">
        <ele>2292.0</ele>
        <time>2015-08-12T10:15:01Z</time>
      </trkpt>
      <trkpt lat="42.3171600" lon="1.8827140">
        <ele>2291.3</ele>
        <time>2015-08-12T10:15:02Z</time>
      </trkpt>
      <trkpt lat="42.3171350" lon="1.8826740">
        <ele>2290.6</ele>
        <time>2015-08-12T10:15:03Z</time>
      </trkpt>
      <trkpt lat="42.3171210" lon="1.8826420">
        <ele>2289.9</ele>
        <time>2015-08-12T10:15:08Z</time>
      </trkpt>
      <trkpt lat="42.3170980" lon="1.8826230">
        <ele>2289.9</ele>
        <time>2015-08-12T10:15:11Z</time>
      </trkpt>
      <trkpt lat="42.3170700" lon="1.8826070">
        <ele>2289.4</ele>
        <time>2015-08-12T10:15:24Z</time>
      </trkpt>
      <trkpt lat="42.3170690" lon="1.8825650">
        <ele>2288.2</ele>
        <time>2015-08-12T10:15:33Z</time>
      </trkpt>
      <trkpt lat="42.3170420" lon="1.8825150">
        <ele>2286.1</ele>
        <time>2015-08-12T10:15:35Z</time>
      </trkpt>
      <trkpt lat="42.3170050" lon="1.8824760">
        <ele>2284.2</ele>
        <time>2015-08-12T10:15:37Z</time>
      </trkpt>
      <trkpt lat="42.3169560" lon="1.8824320">
        <ele>2281.8</ele>
        <time>2015-08-12T10:15:39Z</time>
      </trkpt>
      <trkpt lat="42.3169160" lon="1.8824100">
        <ele>2280.3</ele>
        <time>2015-08-12T10:15:40Z</time>
      </trkpt>
      <trkpt lat="42.3168780" lon="1.8823910">
        <ele>2279.0</ele>
        <time>2015-08-12T10:15:41Z</time>
      </trkpt>
      <trkpt lat="42.3168700" lon="1.8823340">
        <ele>2277.1</ele>
        <time>2015-08-12T10:15:42Z</time>
      </trkpt>
      <trkpt lat="42.3168400" lon="1.8822820">
        <ele>2274.8</ele>
        <time>2015-08-12T10:15:44Z</time>
      </trkpt>
      <trkpt lat="42.3167970" lon="1.8822630">
        <ele>2273.4</ele>
        <time>2015-08-12T10:15:46Z</time>
      </trkpt>
      <trkpt lat="42.3167670" lon="1.8822910">
        <ele>2273.6</ele>
        <time>2015-08-12T10:15:47Z</time>
      </trkpt>
      <trkpt lat="42.3167400" lon="1.8823080">
        <ele>2273.5</ele>
        <time>2015-08-12T10:15:48Z</time>
      </trkpt>
      <trkpt lat="42.3166980" lon="1.8822810">
        <ele>2271.8</ele>
        <time>2015-08-12T10:15:50Z</time>
      </trkpt>
      <trkpt lat="42.3167170" lon="1.8823100">
        <ele>2273.1</ele>
        <time>2015-08-12T10:15:55Z</time>
      </trkpt>
      <trkpt lat="42.3166820" lon="1.8823140">
        <ele>2272.5</ele>
        <time>2015-08-12T10:16:20Z</time>
      </trkpt>
      <trkpt lat="42.3166480" lon="1.8823250">
        <ele>2272.1</ele>
        <time>2015-08-12T10:16:33Z</time>
      </trkpt>
      <trkpt lat="42.3166110" lon="1.8823160">
        <ele>2271.1</ele>
        <time>2015-08-12T10:16:35Z</time>
      </trkpt>
      <trkpt lat="42.3165690" lon="1.8823270">
        <ele>2270.6</ele>
        <time>2015-08-12T10:16:37Z</time>
      </trkpt>
      <trkpt lat="42.3165380" lon="1.8823350">
        <ele>2270.2</ele>
        <time>2015-08-12T10:16:38Z</time>
      </trkpt>
      <trkpt lat="42.3165080" lon="1.8823310">
        <ele>2269.4</ele>
        <time>2015-08-12T10:16:39Z</time>
      </trkpt>
      <trkpt lat="42.3164530" lon="1.8823100">
        <ele>2267.6</ele>
        <time>2015-08-12T10:16:41Z</time>
      </trkpt>
      <trkpt lat="42.3164100" lon="1.8823030">
        <ele>2266.5</ele>
        <time>2015-08-12T10:16:42Z</time>
      </trkpt>
      <trkpt lat="42.3163720" lon="1.8823080">
        <ele>2265.8</ele>
        <time>2015-08-12T10:16:43Z</time>
      </trkpt>
      <trkpt lat="42.3163390" lon="1.8822680">
        <ele>2263.9</ele>
        <time>2015-08-12T10:16:44Z</time>
      </trkpt>
      <trkpt lat="42.3163040" lon="1.8822590">
        <ele>2262.8</ele>
        <time>2015-08-12T10:16:45Z</time>
      </trkpt>
      <trkpt lat="42.3162750" lon="1.8822650">
        <ele>2262.4</ele>
        <time>2015-08-12T10:16:48Z</time>
      </trkpt>
      <trkpt lat="42.3162320" lon="1.8822510">
        <ele>2261.4</ele>
        <time>2015-08-12T10:16:50Z</time>
      </trkpt>
      <trkpt lat="42.3161950" lon="1.8822050">
        <ele>2259.8</ele>
        <time>2015-08-12T10:16:51Z</time>
      </trkpt>
      <trkpt lat="42.3161670" lon="1.8821820">
        <ele>2259.0</ele>
        <time>2015-08-12T10:16:52Z</time>
      </trkpt>
      <trkpt lat="42.3161400" lon="1.8821470">
        <ele>2257.9</ele>
        <time>2015-08-12T10:16:53Z</time>
      </trkpt>
      <trkpt lat="42.3160920" lon="1.8821690">
        <ele>2258.5</ele>
        <time>2015-08-12T10:16:55Z</time>
      </trkpt>
      <trkpt lat="42.3160520" lon="1.8821680">
        <ele>2258.4</ele>
        <time>2015-08-12T10:16:56Z</time>
      </trkpt>
      <trkpt lat="42.3160080" lon="1.8821490">
        <ele>2257.8</ele>
        <time>2015-08-12T10:16:57Z</time>
      </trkpt>
      <trkpt lat="42.3159730" lon="1.8821360">
        <ele>2257.4</ele>
        <time>2015-08-12T10:16:58Z</time>
      </trkpt>
      <trkpt lat="42.3159310" lon="1.8821080">
        <ele>2256.7</ele>
        <time>2015-08-12T10:16:59Z</time>
      </trkpt>
      <trkpt lat="42.3158970" lon="1.8820810">
        <ele>2255.9</ele>
        <time>2015-08-12T10:17:00Z</time>
      </trkpt>
      <trkpt lat="42.3158590" lon="1.8820640">
        <ele>2255.4</ele>
        <time>2015-08-12T10:17:01Z</time>
      </trkpt>
      <trkpt lat="42.3158240" lon="1.8820470">
        <ele>2254.8</ele>
        <time>2015-08-12T10:17:02Z</time>
      </trkpt>
      <trkpt lat="42.3157820" lon="1.8820340">
        <ele>2254.4</ele>
        <time>2015-08-12T10:17:03Z</time>
      </trkpt>
      <trkpt lat="42.3157410" lon="1.8820030">
        <ele>2253.4</ele>
        <time>2015-08-12T10:17:04Z</time>
      </trkpt>
      <trkpt lat="42.3157020" lon="1.8819770">
        <ele>2252.6</ele>
        <time>2015-08-12T10:17:05Z</time>
      </trkpt>
      <trkpt lat="42.3156630" lon="1.8819400">
        <ele>2251.4</ele>
        <time>2015-08-12T10:17:06Z</time>
      </trkpt>
      <trkpt lat="42.3156220" lon="1.8819050">
        <ele>2250.3</ele>
        <time>2015-08-12T10:17:07Z</time>
      </trkpt>
      <trkpt lat="42.3155700" lon="1.8818670">
        <ele>2249.2</ele>
        <time>2015-08-12T10:17:08Z</time>
      </trkpt>
      <trkpt lat="42.3155230" lon="1.8818330">
        <ele>2248.1</ele>
        <time>2015-08-12T10:17:09Z</time>
      </trkpt>
      <trkpt lat="42.3154810" lon="1.8817940">
        <ele>2246.9</ele>
        <time>2015-08-12T10:17:11Z</time>
      </trkpt>
      <trkpt lat="42.3154660" lon="1.8817640">
        <ele>2246.0</ele>
        <time>2015-08-12T10:17:12Z</time>
      </trkpt>
      <trkpt lat="42.3154240" lon="1.8817160">
        <ele>2244.5</ele>
        <time>2015-08-12T10:17:14Z</time>
      </trkpt>
      <trkpt lat="42.3154170" lon="1.8816810">
        <ele>2243.4</ele>
        <time>2015-08-12T10:17:15Z</time>
      </trkpt>
      <trkpt lat="42.3153800" lon="1.8816480">
        <ele>2241.5</ele>
        <time>2015-08-12T10:17:17Z</time>
      </trkpt>
      <trkpt lat="42.3153480" lon="1.8816270">
        <ele>2240.1</ele>
        <time>2015-08-12T10:17:19Z</time>
      </trkpt>
      <trkpt lat="42.3153050" lon="1.8816300">
        <ele>2239.1</ele>
        <time>2015-08-12T10:17:21Z</time>
      </trkpt>
      <trkpt lat="42.3152780" lon="1.8816280">
        <ele>2238.4</ele>
        <time>2015-08-12T10:17:22Z</time>
      </trkpt>
      <trkpt lat="42.3152470" lon="1.8815990">
        <ele>2237.0</ele>
        <time>2015-08-12T10:17:26Z</time>
      </trkpt>
      <trkpt lat="42.3152180" lon="1.8815590">
        <ele>2235.5</ele>
        <time>2015-08-12T10:17:29Z</time>
      </trkpt>
      <trkpt lat="42.3151950" lon="1.8815390">
        <ele>2234.6</ele>
        <time>2015-08-12T10:17:31Z</time>
      </trkpt>
      <trkpt lat="42.3151700" lon="1.8815050">
        <ele>2233.5</ele>
        <time>2015-08-12T10:17:34Z</time>
      </trkpt>
      <trkpt lat="42.3151480" lon="1.8814740">
        <ele>2232.6</ele>
        <time>2015-08-12T10:17:43Z</time>
      </trkpt>
      <trkpt lat="42.3151100" lon="1.8814510">
        <ele>2231.7</ele>
        <time>2015-08-12T10:17:46Z</time>
      </trkpt>
      <trkpt lat="42.3150830" lon="1.8813970">
        <ele>2230.6</ele>
        <time>2015-08-12T10:17:49Z</time>
      </trkpt>
      <trkpt lat="42.3150520" lon="1.8813840">
        <ele>2230.1</ele>
        <time>2015-08-12T10:17:55Z</time>
      </trkpt>
      <trkpt lat="42.3150270" lon="1.8813270">
        <ele>2229.3</ele>
        <time>2015-08-12T10:18:00Z</time>
      </trkpt>
      <trkpt lat="42.3149820" lon="1.8812940">
        <ele>2228.7</ele>
        <time>2015-08-12T10:18:02Z</time>
      </trkpt>
      <trkpt lat="42.3149160" lon="1.8812610">
        <ele>2228.2</ele>
        <time>2015-08-12T10:18:04Z</time>
      </trkpt>
      <trkpt lat="42.3148920" lon="1.8812390">
        <ele>2227.7</ele>
        <time>2015-08-12T10:18:05Z</time>
      </trkpt>
      <trkpt lat="42.3148780" lon="1.8811960">
        <ele>2226.1</ele>
        <time>2015-08-12T10:18:06Z</time>
      </trkpt>
      <trkpt lat="42.3148320" lon="1.8811540">
        <ele>2224.5</ele>
        <time>2015-08-12T10:18:08Z</time>
      </trkpt>
      <trkpt lat="42.3148300" lon="1.8810970">
        <ele>2222.5</ele>
        <time>2015-08-12T10:18:09Z</time>
      </trkpt>
      <trkpt lat="42.3148080" lon="1.8810460">
        <ele>2220.7</ele>
        <time>2015-08-12T10:18:10Z</time>
      </trkpt>
      <trkpt lat="42.3147870" lon="1.8809910">
        <ele>2218.8</ele>
        <time>2015-08-12T10:18:11Z</time>
      </trkpt>
      <trkpt lat="42.3147680" lon="1.8809470">
        <ele>2217.3</ele>
        <time>2015-08-12T10:18:12Z</time>
      </trkpt>
      <trkpt lat="42.3147380" lon="1.8809070">
        <ele>2216.0</ele>
        <time>2015-08-12T10:18:14Z</time>
      </trkpt>
      <trkpt lat="42.3147190" lon="1.8808760">
        <ele>2215.0</ele>
        <time>2015-08-12T10:18:15Z</time>
      </trkpt>
      <trkpt lat="42.3146950" lon="1.8808300">
        <ele>2213.6</ele>
        <time>2015-08-12T10:18:17Z</time>
      </trkpt>
      <trkpt lat="42.3146430" lon="1.8808550">
        <ele>2214.5</ele>
        <time>2015-08-12T10:18:19Z</time>
      </trkpt>
      <trkpt lat="42.3146790" lon="1.8808330">
        <ele>2213.7</ele>
        <time>2015-08-12T10:18:20Z</time>
      </trkpt>
      <trkpt lat="42.3146920" lon="1.8807890">
        <ele>2212.2</ele>
        <time>2015-08-12T10:18:21Z</time>
      </trkpt>
      <trkpt lat="42.3147050" lon="1.8807410">
        <ele>2210.6</ele>
        <time>2015-08-12T10:18:23Z</time>
      </trkpt>
      <trkpt lat="42.3147080" lon="1.8807040">
        <ele>2209.3</ele>
        <time>2015-08-12T10:18:25Z</time>
      </trkpt>
      <trkpt lat="42.3147130" lon="1.8806660">
        <ele>2208.0</ele>
        <time>2015-08-12T10:18:27Z</time>
      </trkpt>
      <trkpt lat="42.3147340" lon="1.8806940">
        <ele>2208.9</ele>
        <time>2015-08-12T10:18:36Z</time>
      </trkpt>
      <trkpt lat="42.3147090" lon="1.8806370">
        <ele>2207.1</ele>
        <time>2015-08-12T10:19:30Z</time>
      </trkpt>
      <trkpt lat="42.3147010" lon="1.8805980">
        <ele>2205.9</ele>
        <time>2015-08-12T10:19:33Z</time>
      </trkpt>
      <trkpt lat="42.3147030" lon="1.8805570">
        <ele>2204.5</ele>
        <time>2015-08-12T10:20:08Z</time>
      </trkpt>
      <trkpt lat="42.3146770" lon="1.8805300">
        <ele>2203.8</ele>
        <time>2015-08-12T10:20:11Z</time>
      </trkpt>
      <trkpt lat="42.3146500" lon="1.8805030">
        <ele>2203.1</ele>
        <time>2015-08-12T10:20:14Z</time>
      </trkpt>
      <trkpt lat="42.3146240" lon="1.8804740">
        <ele>2202.4</ele>
        <time>2015-08-12T10:20:18Z</time>
      </trkpt>
      <trkpt lat="42.3145950" lon="1.8804560">
        <ele>2202.1</ele>
        <time>2015-08-12T10:20:21Z</time>
      </trkpt>
      <trkpt lat="42.3145720" lon="1.8804340">
        <ele>2201.2</ele>
        <time>2015-08-12T10:20:26Z</time>
      </trkpt>
      <trkpt lat="42.3145630" lon="1.8803890">
        <ele>2199.2</ele>
        <time>2015-08-12T10:20:27Z</time>
      </trkpt>
      <trkpt lat="42.3145320" lon="1.8803820">
        <ele>2197.9</ele>
        <time>2015-08-12T10:20:30Z</time>
      </trkpt>
      <trkpt lat="42.3145220" lon="1.8803480">
        <ele>2196.2</ele>
        <time>2015-08-12T10:20:39Z</time>
      </trkpt>
      <trkpt lat="42.3145520" lon="1.8803530">
        <ele>2197.3</ele>
        <time>2015-08-12T10:20:46Z</time>
      </trkpt>
      <trkpt lat="42.3145740" lon="1.8803160">
        <ele>2196.4</ele>
        <time>2015-08-12T10:20:54Z</time>
      </trkpt>
      <trkpt lat="42.3145730" lon="1.8802710">
        <ele>2194.4</ele>
        <time>2015-08-12T10:20:59Z</time>
      </trkpt>
      <trkpt lat="42.3145720" lon="1.8802330">
        <ele>2192.8</ele>
        <time>2015-08-12T10:21:19Z</time>
      </trkpt>
      <trkpt lat="42.3145520" lon="1.8802050">
        <ele>2191.1</ele>
        <time>2015-08-12T10:21:44Z</time>
      </trkpt>
      <trkpt lat="42.3145390" lon="1.8801720">
        <ele>2189.3</ele>
        <time>2015-08-12T10:21:51Z</time>
      </trkpt>
      <trkpt lat="42.3145050" lon="1.8801700">
        <ele>2188.4</ele>
        <time>2015-08-12T10:21:56Z</time>
      </trkpt>
      <trkpt lat="42.3144990" lon="1.8801340">
        <ele>2186.8</ele>
        <time>2015-08-12T10:22:42Z</time>
      </trkpt>
      <trkpt lat="42.3144640" lon="1.8801060">
        <ele>2184.9</ele>
        <time>2015-08-12T10:22:45Z</time>
      </trkpt>
      <trkpt lat="42.3144130" lon="1.8800860">
        <ele>2183.0</ele>
        <time>2015-08-12T10:22:47Z</time>
      </trkpt>
      <trkpt lat="42.3143930" lon="1.8800560">
        <ele>2181.4</ele>
        <time>2015-08-12T10:22:48Z</time>
      </trkpt>
      <trkpt lat="42.3143810" lon="1.8800210">
        <ele>2179.9</ele>
        <time>2015-08-12T10:22:51Z</time>
      </trkpt>
      <trkpt lat="42.3143470" lon="1.8799790">
        <ele>2177.7</ele>
        <time>2015-08-12T10:22:54Z</time>
      </trkpt>
      <trkpt lat="42.3143150" lon="1.8799290">
        <ele>2175.4</ele>
        <time>2015-08-12T10:23:29Z</time>
      </trkpt>
      <trkpt lat="42.3142930" lon="1.8798850">
        <ele>2173.5</ele>
        <time>2015-08-12T10:23:32Z</time>
      </trkpt>
      <trkpt lat="42.3142720" lon="1.8798560">
        <ele>2172.2</ele>
        <time>2015-08-12T10:23:40Z</time>
      </trkpt>
      <trkpt lat="42.3142450" lon="1.8798160">
        <ele>2170.5</ele>
        <time>2015-08-12T10:23:50Z</time>
      </trkpt>
      <trkpt lat="42.3141990" lon="1.8797770">
        <ele>2168.7</ele>
        <time>2015-08-12T10:23:53Z</time>
      </trkpt>
      <trkpt lat="42.3141490" lon="1.8797480">
        <ele>2167.2</ele>
        <time>2015-08-12T10:23:55Z</time>
      </trkpt>
      <trkpt lat="42.3141030" lon="1.8797170">
        <ele>2165.9</ele>
        <time>2015-08-12T10:23:57Z</time>
      </trkpt>
      <trkpt lat="42.3140760" lon="1.8796960">
        <ele>2165.0</ele>
        <time>2015-08-12T10:23:58Z</time>
      </trkpt>
      <trkpt lat="42.3140500" lon="1.8796490">
        <ele>2163.5</ele>
        <time>2015-08-12T10:24:00Z</time>
      </trkpt>
      <trkpt lat="42.3140190" lon="1.8796480">
        <ele>2163.3</ele>
        <time>2015-08-12T10:24:01Z</time>
      </trkpt>
      <trkpt lat="42.3139790" lon="1.8796200">
        <ele>2162.3</ele>
        <time>2015-08-12T10:24:03Z</time>
      </trkpt>
      <trkpt lat="42.3139430" lon="1.8796120">
        <ele>2161.8</ele>
        <time>2015-08-12T10:24:05Z</time>
      </trkpt>
      <trkpt lat="42.3138980" lon="1.8796000">
        <ele>2161.2</ele>
        <time>2015-08-12T10:24:07Z</time>
      </trkpt>
      <trkpt lat="42.3138520" lon="1.8795600">
        <ele>2159.9</ele>
        <time>2015-08-12T10:24:09Z</time>
      </trkpt>
      <trkpt lat="42.3138140" lon="1.8795260">
        <ele>2158.6</ele>
        <time>2015-08-12T10:24:11Z</time>
      </trkpt>
      <trkpt lat="42.3137820" lon="1.8794790">
        <ele>2157.0</ele>
        <time>2015-08-12T10:24:13Z</time>
      </trkpt>
      <trkpt lat="42.3137380" lon="1.8794410">
        <ele>2155.4</ele>
        <time>2015-08-12T10:24:15Z</time>
      </trkpt>
      <trkpt lat="42.3137070" lon="1.8794320">
        <ele>2154.4</ele>
        <time>2015-08-12T10:24:17Z</time>
      </trkpt>
      <trkpt lat="42.3136830" lon="1.8794500">
        <ele>2154.3</ele>
        <time>2015-08-12T10:24:20Z</time>
      </trkpt>
      <trkpt lat="42.3136410" lon="1.8794380">
        <ele>2153.0</ele>
        <time>2015-08-12T10:24:22Z</time>
      </trkpt>
      <trkpt lat="42.3136070" lon="1.8794210">
        <ele>2151.7</ele>
        <time>2015-08-12T10:24:24Z</time>
      </trkpt>
      <trkpt lat="42.3135620" lon="1.8794140">
        <ele>2150.5</ele>
        <time>2015-08-12T10:24:26Z</time>
      </trkpt>
      <trkpt lat="42.3135500" lon="1.8793800">
        <ele>2149.4</ele>
        <time>2015-08-12T10:24:27Z</time>
      </trkpt>
      <trkpt lat="42.3135270" lon="1.8793540">
        <ele>2148.3</ele>
        <time>2015-08-12T10:24:28Z</time>
      </trkpt>
      <trkpt lat="42.3134930" lon="1.8793480">
        <ele>2147.5</ele>
        <time>2015-08-12T10:24:29Z</time>
      </trkpt>
      <trkpt lat="42.3134560" lon="1.8793400">
        <ele>2146.6</ele>
        <time>2015-08-12T10:24:30Z</time>
      </trkpt>
      <trkpt lat="42.3134180" lon="1.8793370">
        <ele>2145.7</ele>
        <time>2015-08-12T10:24:31Z</time>
      </trkpt>
      <trkpt lat="42.3133860" lon="1.8793280">
        <ele>2144.9</ele>
        <time>2015-08-12T10:24:32Z</time>
      </trkpt>
      <trkpt lat="42.3133410" lon="1.8793020">
        <ele>2143.6</ele>
        <time>2015-08-12T10:24:34Z</time>
      </trkpt>
      <trkpt lat="42.3133130" lon="1.8793050">
        <ele>2143.1</ele>
        <time>2015-08-12T10:24:35Z</time>
      </trkpt>
      <trkpt lat="42.3132550" lon="1.8792560">
        <ele>2141.4</ele>
        <time>2015-08-12T10:24:37Z</time>
      </trkpt>
      <trkpt lat="42.3132130" lon="1.8791970">
        <ele>2140.1</ele>
        <time>2015-08-12T10:24:38Z</time>
      </trkpt>
      <trkpt lat="42.3131750" lon="1.8791440">
        <ele>2139.0</ele>
        <time>2015-08-12T10:24:39Z</time>
      </trkpt>
      <trkpt lat="42.3131370" lon="1.8791030">
        <ele>2138.2</ele>
        <time>2015-08-12T10:24:40Z</time>
      </trkpt>
      <trkpt lat="42.3131000" lon="1.8790520">
        <ele>2137.5</ele>
        <time>2015-08-12T10:24:41Z</time>
      </trkpt>
      <trkpt lat="42.3130550" lon="1.8790010">
        <ele>2136.8</ele>
        <time>2015-08-12T10:24:42Z</time>
      </trkpt>
      <trkpt lat="42.3130200" lon="1.8789360">
        <ele>2136.4</ele>
        <time>2015-08-12T10:24:43Z</time>
      </trkpt>
      <trkpt lat="42.3129890" lon="1.8788760">
        <ele>2136.1</ele>
        <time>2015-08-12T10:24:44Z</time>
      </trkpt>
      <trkpt lat="42.3129610" lon="1.8788110">
        <ele>2136.0</ele>
        <time>2015-08-12T10:24:45Z</time>
      </trkpt>
      <trkpt lat="42.3129360" lon="1.8787570">
        <ele>2136.0</ele>
        <time>2015-08-12T10:24:46Z</time>
      </trkpt>
      <trkpt lat="42.3129750" lon="1.8787310">
        <ele>2135.5</ele>
        <time>2015-08-12T10:24:47Z</time>
      </trkpt>
      <trkpt lat="42.3129740" lon="1.8786810">
        <ele>2134.2</ele>
        <time>2015-08-12T10:24:48Z</time>
      </trkpt>
      <trkpt lat="42.3129720" lon="1.8786290">
        <ele>2133.0</ele>
        <time>2015-08-12T10:24:49Z</time>
      </trkpt>
      <trkpt lat="42.3129460" lon="1.8786020">
        <ele>2132.3</ele>
        <time>2015-08-12T10:24:50Z</time>
      </trkpt>
      <trkpt lat="42.3129400" lon="1.8785520">
        <ele>2131.0</ele>
        <time>2015-08-12T10:24:51Z</time>
      </trkpt>
      <trkpt lat="42.3129230" lon="1.8785140">
        <ele>2130.1</ele>
        <time>2015-08-12T10:24:52Z</time>
      </trkpt>
      <trkpt lat="42.3129030" lon="1.8784800">
        <ele>2128.3</ele>
        <time>2015-08-12T10:24:53Z</time>
      </trkpt>
      <trkpt lat="42.3129080" lon="1.8784170">
        <ele>2127.0</ele>
        <time>2015-08-12T10:24:55Z</time>
      </trkpt>
      <trkpt lat="42.3128840" lon="1.8783760">
        <ele>2124.3</ele>
        <time>2015-08-12T10:24:57Z</time>
      </trkpt>
      <trkpt lat="42.3128530" lon="1.8783380">
        <ele>2121.1</ele>
        <time>2015-08-12T10:24:59Z</time>
      </trkpt>
      <trkpt lat="42.3128340" lon="1.8783050">
        <ele>2118.8</ele>
        <time>2015-08-12T10:25:01Z</time>
      </trkpt>
      <trkpt lat="42.3128220" lon="1.8782640">
        <ele>2116.9</ele>
        <time>2015-08-12T10:25:03Z</time>
      </trkpt>
      <trkpt lat="42.3128010" lon="1.8781870">
        <ele>2113.2</ele>
        <time>2015-08-12T10:25:05Z</time>
      </trkpt>
      <trkpt lat="42.3127920" lon="1.8781460">
        <ele>2111.4</ele>
        <time>2015-08-12T10:25:06Z</time>
      </trkpt>
      <trkpt lat="42.3127860" lon="1.8781090">
        <ele>2109.9</ele>
        <time>2015-08-12T10:25:07Z</time>
      </trkpt>
      <trkpt lat="42.3127810" lon="1.8780690">
        <ele>2108.4</ele>
        <time>2015-08-12T10:25:08Z</time>
      </trkpt>
      <trkpt lat="42.3127610" lon="1.8780160">
        <ele>2105.3</ele>
        <time>2015-08-12T10:25:09Z</time>
      </trkpt>
      <trkpt lat="42.3127730" lon="1.8779750">
        <ele>2105.1</ele>
        <time>2015-08-12T10:25:10Z</time>
      </trkpt>
      <trkpt lat="42.3127720" lon="1.8779270">
        <ele>2103.7</ele>
        <time>2015-08-12T10:25:11Z</time>
      </trkpt>
      <trkpt lat="42.3127740" lon="1.8778700">
        <ele>2102.6</ele>
        <time>2015-08-12T10:25:12Z</time>
      </trkpt>
      <trkpt lat="42.3127730" lon="1.8777800">
        <ele>2100.7</ele>
        <time>2015-08-12T10:25:14Z</time>
      </trkpt>
      <trkpt lat="42.3127760" lon="1.8777370">
        <ele>2100.0</ele>
        <time>2015-08-12T10:25:15Z</time>
      </trkpt>
      <trkpt lat="42.3127850" lon="1.8776740">
        <ele>2099.5</ele>
        <time>2015-08-12T10:25:17Z</time>
      </trkpt>
      <trkpt lat="42.3128090" lon="1.8776200">
        <ele>2100.4</ele>
        <time>2015-08-12T10:25:19Z</time>
      </trkpt>
      <trkpt lat="42.3128220" lon="1.8775790">
        <ele>2100.6</ele>
        <time>2015-08-12T10:25:21Z</time>
      </trkpt>
      <trkpt lat="42.3128290" lon="1.8775430">
        <ele>2100.5</ele>
        <time>2015-08-12T10:25:25Z</time>
      </trkpt>
      <trkpt lat="42.3128310" lon="1.8775020">
        <ele>2099.8</ele>
        <time>2015-08-12T10:25:28Z</time>
      </trkpt>
      <trkpt lat="42.3128300" lon="1.8774650">
        <ele>2099.0</ele>
        <time>2015-08-12T10:25:32Z</time>
      </trkpt>
      <trkpt lat="42.3128420" lon="1.8774280">
        <ele>2099.3</ele>
        <time>2015-08-12T10:25:36Z</time>
      </trkpt>
      <trkpt lat="42.3128430" lon="1.8773790">
        <ele>2098.4</ele>
        <time>2015-08-12T10:25:40Z</time>
      </trkpt>
      <trkpt lat="42.3128320" lon="1.8773400">
        <ele>2096.7</ele>
        <time>2015-08-12T10:25:43Z</time>
      </trkpt>
      <trkpt lat="42.3128160" lon="1.8773090">
        <ele>2094.7</ele>
        <time>2015-08-12T10:25:49Z</time>
      </trkpt>
      <trkpt lat="42.3127920" lon="1.8772890">
        <ele>2092.2</ele>
        <time>2015-08-12T10:26:44Z</time>
      </trkpt>
      <trkpt lat="42.3127950" lon="1.8772450">
        <ele>2091.6</ele>
        <time>2015-08-12T10:26:54Z</time>
      </trkpt>
      <trkpt lat="42.3127890" lon="1.8772000">
        <ele>2090.2</ele>
        <time>2015-08-12T10:26:57Z</time>
      </trkpt>
      <trkpt lat="42.3127990" lon="1.8771630">
        <ele>2090.3</ele>
        <time>2015-08-12T10:27:03Z</time>
      </trkpt>
      <trkpt lat="42.3128150" lon="1.8771140">
        <ele>2090.7</ele>
        <time>2015-08-12T10:27:05Z</time>
      </trkpt>
      <trkpt lat="42.3128250" lon="1.8770610">
        <ele>2090.6</ele>
        <time>2015-08-12T10:27:06Z</time>
      </trkpt>
      <trkpt lat="42.3128320" lon="1.8769700">
        <ele>2089.5</ele>
        <time>2015-08-12T10:27:08Z</time>
      </trkpt>
      <trkpt lat="42.3128740" lon="1.8769300">
        <ele>2092.5</ele>
        <time>2015-08-12T10:27:09Z</time>
      </trkpt>
      <trkpt lat="42.3128820" lon="1.8768520">
        <ele>2091.8</ele>
        <time>2015-08-12T10:27:11Z</time>
      </trkpt>
      <trkpt lat="42.3129170" lon="1.8768340">
        <ele>2094.5</ele>
        <time>2015-08-12T10:27:12Z</time>
      </trkpt>
      <trkpt lat="42.3129110" lon="1.8767480">
        <ele>2092.5</ele>
        <time>2015-08-12T10:27:14Z</time>
      </trkpt>
      <trkpt lat="42.3129050" lon="1.8766890">
        <ele>2090.9</ele>
        <time>2015-08-12T10:27:15Z</time>
      </trkpt>
      <trkpt lat="42.3129220" lon="1.8766210">
        <ele>2090.9</ele>
        <time>2015-08-12T10:27:19Z</time>
      </trkpt>
      <trkpt lat="42.3129300" lon="1.8765900">
        <ele>2090.6</ele>
        <time>2015-08-12T10:27:20Z</time>
      </trkpt>
      <trkpt lat="42.3129480" lon="1.8765390">
        <ele>2090.3</ele>
        <time>2015-08-12T10:27:21Z</time>
      </trkpt>
      <trkpt lat="42.3129590" lon="1.8764940">
        <ele>2089.9</ele>
        <time>2015-08-12T10:27:22Z</time>
      </trkpt>
      <trkpt lat="42.3129720" lon="1.8764390">
        <ele>2089.4</ele>
        <time>2015-08-12T10:27:23Z</time>
      </trkpt>
      <trkpt lat="42.3129860" lon="1.8763750">
        <ele>2088.7</ele>
        <time>2015-08-12T10:27:24Z</time>
      </trkpt>
      <trkpt lat="42.3130010" lon="1.8762950">
        <ele>2087.9</ele>
        <time>2015-08-12T10:27:25Z</time>
      </trkpt>
      <trkpt lat="42.3130200" lon="1.8762260">
        <ele>2087.2</ele>
        <time>2015-08-12T10:27:26Z</time>
      </trkpt>
      <trkpt lat="42.3130490" lon="1.8761480">
        <ele>2086.2</ele>
        <time>2015-08-12T10:27:27Z</time>
      </trkpt>
      <trkpt lat="42.3130660" lon="1.8760680">
        <ele>2084.8</ele>
        <time>2015-08-12T10:27:28Z</time>
      </trkpt>
      <trkpt lat="42.3130920" lon="1.8760350">
        <ele>2085.0</ele>
        <time>2015-08-12T10:27:29Z</time>
      </trkpt>
      <trkpt lat="42.3131180" lon="1.8759930">
        <ele>2085.1</ele>
        <time>2015-08-12T10:27:30Z</time>
      </trkpt>
      <trkpt lat="42.3131340" lon="1.8759420">
        <ele>2084.6</ele>
        <time>2015-08-12T10:27:31Z</time>
      </trkpt>
      <trkpt lat="42.3131620" lon="1.8758900">
        <ele>2084.6</ele>
        <time>2015-08-12T10:27:32Z</time>
      </trkpt>
      <trkpt lat="42.3131910" lon="1.8758510">
        <ele>2085.1</ele>
        <time>2015-08-12T10:27:33Z</time>
      </trkpt>
      <trkpt lat="42.3132180" lon="1.8758150">
        <ele>2085.6</ele>
        <time>2015-08-12T10:27:34Z</time>
      </trkpt>
      <trkpt lat="42.3132160" lon="1.8757650">
        <ele>2084.3</ele>
        <time>2015-08-12T10:27:35Z</time>
      </trkpt>
      <trkpt lat="42.3132380" lon="1.8756660">
        <ele>2083.3</ele>
        <time>2015-08-12T10:27:36Z</time>
      </trkpt>
      <trkpt lat="42.3132480" lon="1.8755950">
        <ele>2082.3</ele>
        <time>2015-08-12T10:27:37Z</time>
      </trkpt>
      <trkpt lat="42.3132820" lon="1.8755220">
        <ele>2082.6</ele>
        <time>2015-08-12T10:27:38Z</time>
      </trkpt>
      <trkpt lat="42.3133300" lon="1.8754630">
        <ele>2084.2</ele>
        <time>2015-08-12T10:27:39Z</time>
      </trkpt>
      <trkpt lat="42.3133480" lon="1.8754340">
        <ele>2084.7</ele>
        <time>2015-08-12T10:27:40Z</time>
      </trkpt>
      <trkpt lat="42.3133780" lon="1.8753650">
        <ele>2086.0</ele>
        <time>2015-08-12T10:27:42Z</time>
      </trkpt>
      <trkpt lat="42.3134150" lon="1.8753130">
        <ele>2088.2</ele>
        <time>2015-08-12T10:27:44Z</time>
      </trkpt>
      <trkpt lat="42.3134400" lon="1.8752760">
        <ele>2089.6</ele>
        <time>2015-08-12T10:27:45Z</time>
      </trkpt>
      <trkpt lat="42.3134660" lon="1.8752210">
        <ele>2091.1</ele>
        <time>2015-08-12T10:27:46Z</time>
      </trkpt>
      <trkpt lat="42.3134870" lon="1.8751900">
        <ele>2092.4</ele>
        <time>2015-08-12T10:27:47Z</time>
      </trkpt>
      <trkpt lat="42.3134940" lon="1.8751500">
        <ele>2092.8</ele>
        <time>2015-08-12T10:27:50Z</time>
      </trkpt>
      <trkpt lat="42.3135040" lon="1.8750930">
        <ele>2093.4</ele>
        <time>2015-08-12T10:27:52Z</time>
      </trkpt>
      <trkpt lat="42.3135360" lon="1.8750750">
        <ele>2095.4</ele>
        <time>2015-08-12T10:27:54Z</time>
      </trkpt>
      <trkpt lat="42.3135440" lon="1.8750290">
        <ele>2095.9</ele>
        <time>2015-08-12T10:27:55Z</time>
      </trkpt>
      <trkpt lat="42.3135620" lon="1.8749970">
        <ele>2097.0</ele>
        <time>2015-08-12T10:27:57Z</time>
      </trkpt>
      <trkpt lat="42.3135960" lon="1.8749730">
        <ele>2099.2</ele>
        <time>2015-08-12T10:28:00Z</time>
      </trkpt>
      <trkpt lat="42.3135960" lon="1.8749340">
        <ele>2099.2</ele>
        <time>2015-08-12T10:28:01Z</time>
      </trkpt>
      <trkpt lat="42.3135940" lon="1.8748770">
        <ele>2099.2</ele>
        <time>2015-08-12T10:28:05Z</time>
      </trkpt>
      <trkpt lat="42.3135690" lon="1.8748540">
        <ele>2097.5</ele>
        <time>2015-08-12T10:28:07Z</time>
      </trkpt>
      <trkpt lat="42.3135920" lon="1.8748120">
        <ele>2099.1</ele>
        <time>2015-08-12T10:28:09Z</time>
      </trkpt>
      <trkpt lat="42.3136450" lon="1.8747700">
        <ele>2102.6</ele>
        <time>2015-08-12T10:28:10Z</time>
      </trkpt>
      <trkpt lat="42.3136790" lon="1.8747310">
        <ele>2104.9</ele>
        <time>2015-08-12T10:28:12Z</time>
      </trkpt>
      <trkpt lat="42.3137160" lon="1.8747430">
        <ele>2107.4</ele>
        <time>2015-08-12T10:28:15Z</time>
      </trkpt>
      <trkpt lat="42.3137160" lon="1.8746990">
        <ele>2107.4</ele>
        <time>2015-08-12T10:28:28Z</time>
      </trkpt>
      <trkpt lat="42.3137170" lon="1.8746570">
        <ele>2107.6</ele>
        <time>2015-08-12T10:28:33Z</time>
      </trkpt>
      <trkpt lat="42.3137110" lon="1.8745690">
        <ele>2107.4</ele>
        <time>2015-08-12T10:28:35Z</time>
      </trkpt>
      <trkpt lat="42.3137360" lon="1.8745450">
        <ele>2109.3</ele>
        <time>2015-08-12T10:28:36Z</time>
      </trkpt>
      <trkpt lat="42.3137510" lon="1.8745120">
        <ele>2110.4</ele>
        <time>2015-08-12T10:28:37Z</time>
      </trkpt>
      <trkpt lat="42.3137810" lon="1.8744910">
        <ele>2110.5</ele>
        <time>2015-08-12T10:28:38Z</time>
      </trkpt>
      <trkpt lat="42.3137920" lon="1.8744440">
        <ele>2110.7</ele>
        <time>2015-08-12T10:28:40Z</time>
      </trkpt>
      <trkpt lat="42.3137940" lon="1.8743610">
        <ele>2111.2</ele>
        <time>2015-08-12T10:28:42Z</time>
      </trkpt>
      <trkpt lat="42.3138490" lon="1.8743210">
        <ele>2111.3</ele>
        <time>2015-08-12T10:28:43Z</time>
      </trkpt>
      <trkpt lat="42.3138690" lon="1.8742790">
        <ele>2111.4</ele>
        <time>2015-08-12T10:28:44Z</time>
      </trkpt>
      <trkpt lat="42.3138730" lon="1.8742420">
        <ele>2111.6</ele>
        <time>2015-08-12T10:28:45Z</time>
      </trkpt>
      <trkpt lat="42.3138800" lon="1.8741620">
        <ele>2112.0</ele>
        <time>2015-08-12T10:28:46Z</time>
      </trkpt>
      <trkpt lat="42.3139050" lon="1.8741010">
        <ele>2112.2</ele>
        <time>2015-08-12T10:28:48Z</time>
      </trkpt>
      <trkpt lat="42.3138930" lon="1.8740540">
        <ele>2112.5</ele>
        <time>2015-08-12T10:28:49Z</time>
      </trkpt>
      <trkpt lat="42.3139360" lon="1.8740300">
        <ele>2112.4</ele>
        <time>2015-08-12T10:28:50Z</time>
      </trkpt>
      <trkpt lat="42.3139590" lon="1.8739770">
        <ele>2112.5</ele>
        <time>2015-08-12T10:28:52Z</time>
      </trkpt>
      <trkpt lat="42.3139750" lon="1.8739370">
        <ele>2112.6</ele>
        <time>2015-08-12T10:28:53Z</time>
      </trkpt>
      <trkpt lat="42.3140310" lon="1.8739240">
        <ele>2112.3</ele>
        <time>2015-08-12T10:28:55Z</time>
      </trkpt>
      <trkpt lat="42.3140610" lon="1.8739110">
        <ele>2112.2</ele>
        <time>2015-08-12T10:28:56Z</time>
      </trkpt>
      <trkpt lat="42.3140760" lon="1.8738720">
        <ele>2112.2</ele>
        <time>2015-08-12T10:28:58Z</time>
      </trkpt>
      <trkpt lat="42.3140490" lon="1.8739140">
        <ele>2112.2</ele>
        <time>2015-08-12T10:29:00Z</time>
      </trkpt>
      <trkpt lat="42.3140420" lon="1.8738120">
        <ele>2112.7</ele>
        <time>2015-08-12T10:29:44Z</time>
      </trkpt>
      <trkpt lat="42.3140570" lon="1.8737820">
        <ele>2112.7</ele>
        <time>2015-08-12T10:29:45Z</time>
      </trkpt>
      <trkpt lat="42.3140690" lon="1.8737440">
        <ele>2112.7</ele>
        <time>2015-08-12T10:29:46Z</time>
      </trkpt>
      <trkpt lat="42.3140960" lon="1.8737040">
        <ele>2112.3</ele>
        <time>2015-08-12T10:29:48Z</time>
      </trkpt>
      <trkpt lat="42.3141570" lon="1.8736280">
        <ele>2111.5</ele>
        <time>2015-08-12T10:29:50Z</time>
      </trkpt>
      <trkpt lat="42.3141600" lon="1.8735800">
        <ele>2111.2</ele>
        <time>2015-08-12T10:29:52Z</time>
      </trkpt>
      <trkpt lat="42.3141800" lon="1.8735170">
        <ele>2110.8</ele>
        <time>2015-08-12T10:29:54Z</time>
      </trkpt>
      <trkpt lat="42.3141660" lon="1.8734150">
        <ele>2110.4</ele>
        <time>2015-08-12T10:29:57Z</time>
      </trkpt>
      <trkpt lat="42.3142600" lon="1.8732380">
        <ele>2108.5</ele>
        <time>2015-08-12T10:30:00Z</time>
      </trkpt>
      <trkpt lat="42.3142570" lon="1.8731700">
        <ele>2108.1</ele>
        <time>2015-08-12T10:30:01Z</time>
      </trkpt>
      <trkpt lat="42.3142330" lon="1.8731240">
        <ele>2108.2</ele>
        <time>2015-08-12T10:30:02Z</time>
      </trkpt>
      <trkpt lat="42.3142300" lon="1.8730800">
        <ele>2108.0</ele>
        <time>2015-08-12T10:30:03Z</time>
      </trkpt>
      <trkpt lat="42.3142140" lon="1.8730160">
        <ele>2107.8</ele>
        <time>2015-08-12T10:30:04Z</time>
      </trkpt>
      <trkpt lat="42.3142110" lon="1.8729370">
        <ele>2107.5</ele>
        <time>2015-08-12T10:30:06Z</time>
      </trkpt>
      <trkpt lat="42.3142380" lon="1.8729270">
        <ele>2107.0</ele>
        <time>2015-08-12T10:30:07Z</time>
      </trkpt>
      <trkpt lat="42.3142420" lon="1.8728760">
        <ele>2105.6</ele>
        <time>2015-08-12T10:30:09Z</time>
      </trkpt>
      <trkpt lat="42.3142010" lon="1.8728600">
        <ele>2105.7</ele>
        <time>2015-08-12T10:30:10Z</time>
      </trkpt>
      <trkpt lat="42.3141450" lon="1.8728050">
        <ele>2104.8</ele>
        <time>2015-08-12T10:30:11Z</time>
      </trkpt>
      <trkpt lat="42.3140790" lon="1.8727350">
        <ele>2103.4</ele>
        <time>2015-08-12T10:30:13Z</time>
      </trkpt>
      <trkpt lat="42.3142050" lon="1.8727120">
        <ele>2101.0</ele>
        <time>2015-08-12T10:30:14Z</time>
      </trkpt>
      <trkpt lat="42.3142030" lon="1.8726540">
        <ele>2099.2</ele>
        <time>2015-08-12T10:30:15Z</time>
      </trkpt>
      <trkpt lat="42.3142410" lon="1.8726120">
        <ele>2097.3</ele>
        <time>2015-08-12T10:30:16Z</time>
      </trkpt>
      <trkpt lat="42.3142550" lon="1.8725720">
        <ele>2095.9</ele>
        <time>2015-08-12T10:30:17Z</time>
      </trkpt>
      <trkpt lat="42.3142770" lon="1.8725950">
        <ele>2096.3</ele>
        <time>2015-08-12T10:30:19Z</time>
      </trkpt>
      <trkpt lat="42.3142980" lon="1.8725540">
        <ele>2094.8</ele>
        <time>2015-08-12T10:30:21Z</time>
      </trkpt>
      <trkpt lat="42.3143190" lon="1.8725290">
        <ele>2093.7</ele>
        <time>2015-08-12T10:30:23Z</time>
      </trkpt>
      <trkpt lat="42.3143030" lon="1.8724720">
        <ele>2092.2</ele>
        <time>2015-08-12T10:30:24Z</time>
      </trkpt>
      <trkpt lat="42.3142820" lon="1.8724270">
        <ele>2091.0</ele>
        <time>2015-08-12T10:30:25Z</time>
      </trkpt>
      <trkpt lat="42.3142880" lon="1.8723760">
        <ele>2089.3</ele>
        <time>2015-08-12T10:30:27Z</time>
      </trkpt>
      <trkpt lat="42.3142720" lon="1.8723320">
        <ele>2088.2</ele>
        <time>2015-08-12T10:30:29Z</time>
      </trkpt>
      <trkpt lat="42.3142570" lon="1.8722850">
        <ele>2086.9</ele>
        <time>2015-08-12T10:30:30Z</time>
      </trkpt>
      <trkpt lat="42.3142170" lon="1.8722660">
        <ele>2086.7</ele>
        <time>2015-08-12T10:30:31Z</time>
      </trkpt>
      <trkpt lat="42.3142120" lon="1.8722180">
        <ele>2085.3</ele>
        <time>2015-08-12T10:30:32Z</time>
      </trkpt>
      <trkpt lat="42.3142160" lon="1.8721320">
        <ele>2082.5</ele>
        <time>2015-08-12T10:30:33Z</time>
      </trkpt>
      <trkpt lat="42.3142230" lon="1.8720680">
        <ele>2080.3</ele>
        <time>2015-08-12T10:30:34Z</time>
      </trkpt>
      <trkpt lat="42.3142070" lon="1.8720310">
        <ele>2078.9</ele>
        <time>2015-08-12T10:30:35Z</time>
      </trkpt>
      <trkpt lat="42.3142160" lon="1.8719960">
        <ele>2077.4</ele>
        <time>2015-08-12T10:30:37Z</time>
      </trkpt>
      <trkpt lat="42.3142010" lon="1.8719590">
        <ele>2076.1</ele>
        <time>2015-08-12T10:30:40Z</time>
      </trkpt>
      <trkpt lat="42.3141710" lon="1.8719030">
        <ele>2074.2</ele>
        <time>2015-08-12T10:30:42Z</time>
      </trkpt>
      <trkpt lat="42.3141560" lon="1.8718510">
        <ele>2072.3</ele>
        <time>2015-08-12T10:30:43Z</time>
      </trkpt>
      <trkpt lat="42.3141050" lon="1.8718190">
        <ele>2071.7</ele>
        <time>2015-08-12T10:30:44Z</time>
      </trkpt>
      <trkpt lat="42.3140430" lon="1.8717830">
        <ele>2071.0</ele>
        <time>2015-08-12T10:30:45Z</time>
      </trkpt>
      <trkpt lat="42.3140190" lon="1.8717640">
        <ele>2070.6</ele>
        <time>2015-08-12T10:30:46Z</time>
      </trkpt>
      <trkpt lat="42.3139950" lon="1.8716940">
        <ele>2068.2</ele>
        <time>2015-08-12T10:30:47Z</time>
      </trkpt>
      <trkpt lat="42.3139540" lon="1.8716540">
        <ele>2067.2</ele>
        <time>2015-08-12T10:30:48Z</time>
      </trkpt>
      <trkpt lat="42.3139290" lon="1.8716320">
        <ele>2066.7</ele>
        <time>2015-08-12T10:30:49Z</time>
      </trkpt>
      <trkpt lat="42.3139270" lon="1.8715730">
        <ele>2064.5</ele>
        <time>2015-08-12T10:30:50Z</time>
      </trkpt>
      <trkpt lat="42.3138770" lon="1.8716000">
        <ele>2066.2</ele>
        <time>2015-08-12T10:30:52Z</time>
      </trkpt>
      <trkpt lat="42.3138500" lon="1.8715840">
        <ele>2066.0</ele>
        <time>2015-08-12T10:30:53Z</time>
      </trkpt>
      <trkpt lat="42.3138260" lon="1.8715230">
        <ele>2064.0</ele>
        <time>2015-08-12T10:30:54Z</time>
      </trkpt>
      <trkpt lat="42.3137870" lon="1.8714990">
        <ele>2063.7</ele>
        <time>2015-08-12T10:30:55Z</time>
      </trkpt>
      <trkpt lat="42.3137670" lon="1.8714570">
        <ele>2062.4</ele>
        <time>2015-08-12T10:30:56Z</time>
      </trkpt>
      <trkpt lat="42.3137420" lon="1.8714350">
        <ele>2061.7</ele>
        <time>2015-08-12T10:30:57Z</time>
      </trkpt>
      <trkpt lat="42.3137180" lon="1.8714100">
        <ele>2060.3</ele>
        <time>2015-08-12T10:30:58Z</time>
      </trkpt>
      <trkpt lat="42.3136930" lon="1.8713900">
        <ele>2059.0</ele>
        <time>2015-08-12T10:30:59Z</time>
      </trkpt>
      <trkpt lat="42.3136480" lon="1.8713560">
        <ele>2056.8</ele>
        <time>2015-08-12T10:31:00Z</time>
      </trkpt>
      <trkpt lat="42.3135780" lon="1.8713130">
        <ele>2053.9</ele>
        <time>2015-08-12T10:31:03Z</time>
      </trkpt>
      <trkpt lat="42.3135540" lon="1.8712990">
        <ele>2052.9</ele>
        <time>2015-08-12T10:31:04Z</time>
      </trkpt>
      <trkpt lat="42.3135180" lon="1.8712800">
        <ele>2051.6</ele>
        <time>2015-08-12T10:31:05Z</time>
      </trkpt>
      <trkpt lat="42.3134810" lon="1.8712310">
        <ele>2049.4</ele>
        <time>2015-08-12T10:31:06Z</time>
      </trkpt>
      <trkpt lat="42.3134350" lon="1.8711850">
        <ele>2047.5</ele>
        <time>2015-08-12T10:31:07Z</time>
      </trkpt>
      <trkpt lat="42.3133880" lon="1.8711350">
        <ele>2045.5</ele>
        <time>2015-08-12T10:31:08Z</time>
      </trkpt>
      <trkpt lat="42.3133440" lon="1.8710790">
        <ele>2043.6</ele>
        <time>2015-08-12T10:31:09Z</time>
      </trkpt>
      <trkpt lat="42.3133120" lon="1.8710210">
        <ele>2041.9</ele>
        <time>2015-08-12T10:31:10Z</time>
      </trkpt>
      <trkpt lat="42.3132720" lon="1.8709910">
        <ele>2040.6</ele>
        <time>2015-08-12T10:31:11Z</time>
      </trkpt>
      <trkpt lat="42.3132510" lon="1.8709320">
        <ele>2039.2</ele>
        <time>2015-08-12T10:31:12Z</time>
      </trkpt>
      <trkpt lat="42.3132210" lon="1.8708770">
        <ele>2037.7</ele>
        <time>2015-08-12T10:31:13Z</time>
      </trkpt>
      <trkpt lat="42.3131800" lon="1.8708240">
        <ele>2036.1</ele>
        <time>2015-08-12T10:31:14Z</time>
      </trkpt>
      <trkpt lat="42.3131410" lon="1.8707900">
        <ele>2035.0</ele>
        <time>2015-08-12T10:31:15Z</time>
      </trkpt>
      <trkpt lat="42.3131050" lon="1.8707610">
        <ele>2034.1</ele>
        <time>2015-08-12T10:31:16Z</time>
      </trkpt>
      <trkpt lat="42.3130650" lon="1.8707270">
        <ele>2033.1</ele>
        <time>2015-08-12T10:31:17Z</time>
      </trkpt>
      <trkpt lat="42.3130560" lon="1.8706860">
        <ele>2032.3</ele>
        <time>2015-08-12T10:31:18Z</time>
      </trkpt>
      <trkpt lat="42.3130380" lon="1.8706510">
        <ele>2031.6</ele>
        <time>2015-08-12T10:31:19Z</time>
      </trkpt>
      <trkpt lat="42.3130170" lon="1.8705950">
        <ele>2030.5</ele>
        <time>2015-08-12T10:31:20Z</time>
      </trkpt>
      <trkpt lat="42.3129940" lon="1.8705580">
        <ele>2029.7</ele>
        <time>2015-08-12T10:31:21Z</time>
      </trkpt>
      <trkpt lat="42.3129610" lon="1.8704820">
        <ele>2028.3</ele>
        <time>2015-08-12T10:31:22Z</time>
      </trkpt>
      <trkpt lat="42.3129790" lon="1.8705100">
        <ele>2028.8</ele>
        <time>2015-08-12T10:31:23Z</time>
      </trkpt>
      <trkpt lat="42.3129570" lon="1.8704630">
        <ele>2027.9</ele>
        <time>2015-08-12T10:31:25Z</time>
      </trkpt>
      <trkpt lat="42.3129410" lon="1.8704160">
        <ele>2027.1</ele>
        <time>2015-08-12T10:31:27Z</time>
      </trkpt>
      <trkpt lat="42.3129310" lon="1.8703510">
        <ele>2026.6</ele>
        <time>2015-08-12T10:31:29Z</time>
      </trkpt>
      <trkpt lat="42.3129230" lon="1.8703120">
        <ele>2026.3</ele>
        <time>2015-08-12T10:31:30Z</time>
      </trkpt>
      <trkpt lat="42.3129490" lon="1.8702760">
        <ele>2026.1</ele>
        <time>2015-08-12T10:31:31Z</time>
      </trkpt>
      <trkpt lat="42.3129600" lon="1.8702310">
        <ele>2025.8</ele>
        <time>2015-08-12T10:31:33Z</time>
      </trkpt>
      <trkpt lat="42.3129810" lon="1.8701700">
        <ele>2025.3</ele>
        <time>2015-08-12T10:31:36Z</time>
      </trkpt>
      <trkpt lat="42.3129930" lon="1.8701260">
        <ele>2024.9</ele>
        <time>2015-08-12T10:31:38Z</time>
      </trkpt>
      <trkpt lat="42.3129760" lon="1.8700890">
        <ele>2024.6</ele>
        <time>2015-08-12T10:31:39Z</time>
      </trkpt>
      <trkpt lat="42.3129290" lon="1.8699840">
        <ele>2023.9</ele>
        <time>2015-08-12T10:31:40Z</time>
      </trkpt>
      <trkpt lat="42.3129150" lon="1.8699380">
        <ele>2023.5</ele>
        <time>2015-08-12T10:31:41Z</time>
      </trkpt>
      <trkpt lat="42.3129100" lon="1.8698770">
        <ele>2022.8</ele>
        <time>2015-08-12T10:31:42Z</time>
      </trkpt>
      <trkpt lat="42.3128930" lon="1.8698100">
        <ele>2021.7</ele>
        <time>2015-08-12T10:31:44Z</time>
      </trkpt>
      <trkpt lat="42.3128630" lon="1.8697720">
        <ele>2020.3</ele>
        <time>2015-08-12T10:31:45Z</time>
      </trkpt>
      <trkpt lat="42.3128230" lon="1.8697340">
        <ele>2018.6</ele>
        <time>2015-08-12T10:31:46Z</time>
      </trkpt>
      <trkpt lat="42.3127820" lon="1.8696860">
        <ele>2016.8</ele>
        <time>2015-08-12T10:31:47Z</time>
      </trkpt>
      <trkpt lat="42.3127730" lon="1.8696490">
        <ele>2016.3</ele>
        <time>2015-08-12T10:31:48Z</time>
      </trkpt>
      <trkpt lat="42.3127600" lon="1.8695800">
        <ele>2015.6</ele>
        <time>2015-08-12T10:31:50Z</time>
      </trkpt>
      <trkpt lat="42.3127600" lon="1.8695380">
        <ele>2015.8</ele>
        <time>2015-08-12T10:31:51Z</time>
      </trkpt>
      <trkpt lat="42.3127660" lon="1.8694690">
        <ele>2016.3</ele>
        <time>2015-08-12T10:31:53Z</time>
      </trkpt>
      <trkpt lat="42.3127420" lon="1.8694030">
        <ele>2016.0</ele>
        <time>2015-08-12T10:31:54Z</time>
      </trkpt>
      <trkpt lat="42.3127100" lon="1.8693320">
        <ele>2015.5</ele>
        <time>2015-08-12T10:31:55Z</time>
      </trkpt>
      <trkpt lat="42.3126590" lon="1.8692510">
        <ele>2014.9</ele>
        <time>2015-08-12T10:31:56Z</time>
      </trkpt>
      <trkpt lat="42.3126130" lon="1.8691740">
        <ele>2014.5</ele>
        <time>2015-08-12T10:31:57Z</time>
      </trkpt>
      <trkpt lat="42.3125320" lon="1.8691070">
        <ele>2013.7</ele>
        <time>2015-08-12T10:31:58Z</time>
      </trkpt>
      <trkpt lat="42.3124920" lon="1.8690180">
        <ele>2014.2</ele>
        <time>2015-08-12T10:31:59Z</time>
      </trkpt>
      <trkpt lat="42.3125030" lon="1.8689830">
        <ele>2014.8</ele>
        <time>2015-08-12T10:32:02Z</time>
      </trkpt>
      <trkpt lat="42.3125230" lon="1.8689480">
        <ele>2015.6</ele>
        <time>2015-08-12T10:32:11Z</time>
      </trkpt>
      <trkpt lat="42.3125520" lon="1.8689420">
        <ele>2016.1</ele>
        <time>2015-08-12T10:32:13Z</time>
      </trkpt>
      <trkpt lat="42.3125830" lon="1.8689520">
        <ele>2016.4</ele>
        <time>2015-08-12T10:32:16Z</time>
      </trkpt>
      <trkpt lat="42.3126120" lon="1.8689440">
        <ele>2016.8</ele>
        <time>2015-08-12T10:32:19Z</time>
      </trkpt>
      <trkpt lat="42.3126450" lon="1.8689320">
        <ele>2017.4</ele>
        <time>2015-08-12T10:32:22Z</time>
      </trkpt>
      <trkpt lat="42.3126930" lon="1.8689000">
        <ele>2018.3</ele>
        <time>2015-08-12T10:34:43Z</time>
      </trkpt>
      <trkpt lat="42.3127240" lon="1.8688660">
        <ele>2018.9</ele>
        <time>2015-08-12T10:34:45Z</time>
      </trkpt>
      <trkpt lat="42.3127520" lon="1.8688400">
        <ele>2019.3</ele>
        <time>2015-08-12T10:34:47Z</time>
      </trkpt>
      <trkpt lat="42.3127770" lon="1.8688040">
        <ele>2019.7</ele>
        <time>2015-08-12T10:34:49Z</time>
      </trkpt>
      <trkpt lat="42.3128000" lon="1.8687600">
        <ele>2020.1</ele>
        <time>2015-08-12T10:34:51Z</time>
      </trkpt>
      <trkpt lat="42.3128250" lon="1.8687160">
        <ele>2020.8</ele>
        <time>2015-08-12T10:34:53Z</time>
      </trkpt>
      <trkpt lat="42.3128270" lon="1.8686400">
        <ele>2021.8</ele>
        <time>2015-08-12T10:34:54Z</time>
      </trkpt>
      <trkpt lat="42.3128510" lon="1.8686070">
        <ele>2022.4</ele>
        <time>2015-08-12T10:34:56Z</time>
      </trkpt>
      <trkpt lat="42.3128740" lon="1.8685740">
        <ele>2022.9</ele>
        <time>2015-08-12T10:34:58Z</time>
      </trkpt>
      <trkpt lat="42.3128530" lon="1.8685290">
        <ele>2023.4</ele>
        <time>2015-08-12T10:35:00Z</time>
      </trkpt>
      <trkpt lat="42.3128490" lon="1.8684820">
        <ele>2024.0</ele>
        <time>2015-08-12T10:35:01Z</time>
      </trkpt>
      <trkpt lat="42.3128370" lon="1.8684420">
        <ele>2024.5</ele>
        <time>2015-08-12T10:35:02Z</time>
      </trkpt>
      <trkpt lat="42.3128280" lon="1.8683960">
        <ele>2025.1</ele>
        <time>2015-08-12T10:35:03Z</time>
      </trkpt>
      <trkpt lat="42.3128510" lon="1.8683580">
        <ele>2025.6</ele>
        <time>2015-08-12T10:35:04Z</time>
      </trkpt>
      <trkpt lat="42.3128730" lon="1.8683080">
        <ele>2026.3</ele>
        <time>2015-08-12T10:35:06Z</time>
      </trkpt>
      <trkpt lat="42.3128840" lon="1.8682660">
        <ele>2026.8</ele>
        <time>2015-08-12T10:35:07Z</time>
      </trkpt>
      <trkpt lat="42.3128890" lon="1.8682200">
        <ele>2027.4</ele>
        <time>2015-08-12T10:35:08Z</time>
      </trkpt>
      <trkpt lat="42.3128750" lon="1.8681890">
        <ele>2027.8</ele>
        <time>2015-08-12T10:35:10Z</time>
      </trkpt>
      <trkpt lat="42.3128910" lon="1.8681480">
        <ele>2028.3</ele>
        <time>2015-08-12T10:35:12Z</time>
      </trkpt>
      <trkpt lat="42.3128920" lon="1.8680910">
        <ele>2029.0</ele>
        <time>2015-08-12T10:35:13Z</time>
      </trkpt>
      <trkpt lat="42.3128960" lon="1.8680390">
        <ele>2029.6</ele>
        <time>2015-08-12T10:35:14Z</time>
      </trkpt>
      <trkpt lat="42.3128950" lon="1.8679900">
        <ele>2030.2</ele>
        <time>2015-08-12T10:35:15Z</time>
      </trkpt>
      <trkpt lat="42.3129340" lon="1.8679620">
        <ele>2029.6</ele>
        <time>2015-08-12T10:35:16Z</time>
      </trkpt>
      <trkpt lat="42.3129660" lon="1.8679270">
        <ele>2028.5</ele>
        <time>2015-08-12T10:35:17Z</time>
      </trkpt>
      <trkpt lat="42.3129940" lon="1.8678930">
        <ele>2027.7</ele>
        <time>2015-08-12T10:35:18Z</time>
      </trkpt>
      <trkpt lat="42.3130220" lon="1.8678620">
        <ele>2027.0</ele>
        <time>2015-08-12T10:35:19Z</time>
      </trkpt>
      <trkpt lat="42.3130760" lon="1.8678690">
        <ele>2024.2</ele>
        <time>2015-08-12T10:35:20Z</time>
      </trkpt>
      <trkpt lat="42.3131150" lon="1.8678600">
        <ele>2022.4</ele>
        <time>2015-08-12T10:35:21Z</time>
      </trkpt>
      <trkpt lat="42.3131490" lon="1.8678500">
        <ele>2021.0</ele>
        <time>2015-08-12T10:35:22Z</time>
      </trkpt>
      <trkpt lat="42.3131790" lon="1.8678300">
        <ele>2020.0</ele>
        <time>2015-08-12T10:35:23Z</time>
      </trkpt>
      <trkpt lat="42.3132090" lon="1.8678140">
        <ele>2018.8</ele>
        <time>2015-08-12T10:35:24Z</time>
      </trkpt>
      <trkpt lat="42.3132020" lon="1.8677510">
        <ele>2020.5</ele>
        <time>2015-08-12T10:35:25Z</time>
      </trkpt>
      <trkpt lat="42.3132120" lon="1.8677080">
        <ele>2021.0</ele>
        <time>2015-08-12T10:35:26Z</time>
      </trkpt>
      <trkpt lat="42.3132260" lon="1.8676740">
        <ele>2021.1</ele>
        <time>2015-08-12T10:35:27Z</time>
      </trkpt>
      <trkpt lat="42.3132600" lon="1.8676200">
        <ele>2020.6</ele>
        <time>2015-08-12T10:35:29Z</time>
      </trkpt>
      <trkpt lat="42.3132750" lon="1.8675890">
        <ele>2020.6</ele>
        <time>2015-08-12T10:35:30Z</time>
      </trkpt>
      <trkpt lat="42.3133130" lon="1.8675540">
        <ele>2019.5</ele>
        <time>2015-08-12T10:35:32Z</time>
      </trkpt>
      <trkpt lat="42.3133260" lon="1.8675080">
        <ele>2019.9</ele>
        <time>2015-08-12T10:35:34Z</time>
      </trkpt>
      <trkpt lat="42.3133600" lon="1.8674690">
        <ele>2019.2</ele>
        <time>2015-08-12T10:35:35Z</time>
      </trkpt>
      <trkpt lat="42.3133810" lon="1.8674310">
        <ele>2019.0</ele>
        <time>2015-08-12T10:35:36Z</time>
      </trkpt>
      <trkpt lat="42.3134110" lon="1.8673830">
        <ele>2018.7</ele>
        <time>2015-08-12T10:35:38Z</time>
      </trkpt>
      <trkpt lat="42.3134530" lon="1.8672420">
        <ele>2019.9</ele>
        <time>2015-08-12T10:35:49Z</time>
      </trkpt>
      <trkpt lat="42.3134900" lon="1.8671380">
        <ele>2020.6</ele>
        <time>2015-08-12T10:36:25Z</time>
      </trkpt>
      <trkpt lat="42.3135260" lon="1.8670340">
        <ele>2020.8</ele>
        <time>2015-08-12T10:36:26Z</time>
      </trkpt>
      <trkpt lat="42.3135350" lon="1.8669910">
        <ele>2020.9</ele>
        <time>2015-08-12T10:36:29Z</time>
      </trkpt>
      <trkpt lat="42.3135710" lon="1.8670010">
        <ele>2019.2</ele>
        <time>2015-08-12T10:36:32Z</time>
      </trkpt>
      <trkpt lat="42.3136020" lon="1.8669980">
        <ele>2017.8</ele>
        <time>2015-08-12T10:36:34Z</time>
      </trkpt>
      <trkpt lat="42.3136340" lon="1.8669810">
        <ele>2016.6</ele>
        <time>2015-08-12T10:36:35Z</time>
      </trkpt>
      <trkpt lat="42.3136690" lon="1.8669700">
        <ele>2015.1</ele>
        <time>2015-08-12T10:36:37Z</time>
      </trkpt>
      <trkpt lat="42.3137030" lon="1.8669640">
        <ele>2013.7</ele>
        <time>2015-08-12T10:36:39Z</time>
      </trkpt>
      <trkpt lat="42.3137350" lon="1.8669210">
        <ele>2012.8</ele>
        <time>2015-08-12T10:36:41Z</time>
      </trkpt>
      <trkpt lat="42.3137630" lon="1.8668980">
        <ele>2011.8</ele>
        <time>2015-08-12T10:36:43Z</time>
      </trkpt>
      <trkpt lat="42.3137960" lon="1.8668860">
        <ele>2010.3</ele>
        <time>2015-08-12T10:36:45Z</time>
      </trkpt>
      <trkpt lat="42.3138560" lon="1.8668440">
        <ele>2007.9</ele>
        <time>2015-08-12T10:36:47Z</time>
      </trkpt>
      <trkpt lat="42.3139220" lon="1.8667650">
        <ele>2005.9</ele>
        <time>2015-08-12T10:36:49Z</time>
      </trkpt>
      <trkpt lat="42.3139420" lon="1.8666130">
        <ele>2007.4</ele>
        <time>2015-08-12T10:36:50Z</time>
      </trkpt>
      <trkpt lat="42.3142190" lon="1.8670700">
        <ele>1985.5</ele>
        <time>2015-08-12T10:37:26Z</time>
      </trkpt>
      <trkpt lat="42.3142470" lon="1.8670670">
        <ele>1984.1</ele>
        <time>2015-08-12T10:37:27Z</time>
      </trkpt>
      <trkpt lat="42.3143120" lon="1.8671190">
        <ele>1979.5</ele>
        <time>2015-08-12T10:37:28Z</time>
      </trkpt>
      <trkpt lat="42.3142880" lon="1.8671360">
        <ele>1980.4</ele>
        <time>2015-08-12T10:37:29Z</time>
      </trkpt>
      <trkpt lat="42.3142520" lon="1.8672150">
        <ele>1980.5</ele>
        <time>2015-08-12T10:37:32Z</time>
      </trkpt>
      <trkpt lat="42.3143220" lon="1.8672390">
        <ele>1976.3</ele>
        <time>2015-08-12T10:37:34Z</time>
      </trkpt>
      <trkpt lat="42.3143490" lon="1.8673020">
        <ele>1973.5</ele>
        <time>2015-08-12T10:37:36Z</time>
      </trkpt>
      <trkpt lat="42.3143590" lon="1.8673750">
        <ele>1971.4</ele>
        <time>2015-08-12T10:37:39Z</time>
      </trkpt>
      <trkpt lat="42.3143220" lon="1.8673640">
        <ele>1973.5</ele>
        <time>2015-08-12T10:37:40Z</time>
      </trkpt>
      <trkpt lat="42.3143520" lon="1.8674060">
        <ele>1971.0</ele>
        <time>2015-08-12T10:37:42Z</time>
      </trkpt>
      <trkpt lat="42.3144300" lon="1.8675120">
        <ele>1964.6</ele>
        <time>2015-08-12T10:37:45Z</time>
      </trkpt>
      <trkpt lat="42.3144600" lon="1.8675480">
        <ele>1962.3</ele>
        <time>2015-08-12T10:37:46Z</time>
      </trkpt>
      <trkpt lat="42.3144790" lon="1.8675850">
        <ele>1960.5</ele>
        <time>2015-08-12T10:37:47Z</time>
      </trkpt>
      <trkpt lat="42.3145020" lon="1.8676140">
        <ele>1958.7</ele>
        <time>2015-08-12T10:37:49Z</time>
      </trkpt>
      <trkpt lat="42.3145290" lon="1.8676760">
        <ele>1956.0</ele>
        <time>2015-08-12T10:37:52Z</time>
      </trkpt>
      <trkpt lat="42.3145480" lon="1.8677250">
        <ele>1953.9</ele>
        <time>2015-08-12T10:37:54Z</time>
      </trkpt>
      <trkpt lat="42.3145060" lon="1.8677740">
        <ele>1955.0</ele>
        <time>2015-08-12T10:37:55Z</time>
      </trkpt>
      <trkpt lat="42.3145420" lon="1.8678320">
        <ele>1951.9</ele>
        <time>2015-08-12T10:37:58Z</time>
      </trkpt>
      <trkpt lat="42.3145870" lon="1.8678500">
        <ele>1949.3</ele>
        <time>2015-08-12T10:38:00Z</time>
      </trkpt>
      <trkpt lat="42.3146360" lon="1.8678360">
        <ele>1948.3</ele>
        <time>2015-08-12T10:38:04Z</time>
      </trkpt>
      <trkpt lat="42.3146590" lon="1.8678340">
        <ele>1947.7</ele>
        <time>2015-08-12T10:39:36Z</time>
      </trkpt>
      <trkpt lat="42.3146810" lon="1.8678320">
        <ele>1947.1</ele>
        <time>2015-08-12T10:39:37Z</time>
      </trkpt>
      <trkpt lat="42.3147360" lon="1.8678530">
        <ele>1945.0</ele>
        <time>2015-08-12T10:39:38Z</time>
      </trkpt>
      <trkpt lat="42.3147620" lon="1.8678650">
        <ele>1943.9</ele>
        <time>2015-08-12T10:39:39Z</time>
      </trkpt>
      <trkpt lat="42.3147870" lon="1.8678800">
        <ele>1942.7</ele>
        <time>2015-08-12T10:39:40Z</time>
      </trkpt>
      <trkpt lat="42.3148420" lon="1.8679030">
        <ele>1940.4</ele>
        <time>2015-08-12T10:39:41Z</time>
      </trkpt>
      <trkpt lat="42.3148940" lon="1.8679510">
        <ele>1938.3</ele>
        <time>2015-08-12T10:39:43Z</time>
      </trkpt>
      <trkpt lat="42.3149540" lon="1.8679740">
        <ele>1936.4</ele>
        <time>2015-08-12T10:39:45Z</time>
      </trkpt>
      <trkpt lat="42.3149880" lon="1.8679450">
        <ele>1935.4</ele>
        <time>2015-08-12T10:39:46Z</time>
      </trkpt>
      <trkpt lat="42.3150270" lon="1.8679510">
        <ele>1934.1</ele>
        <time>2015-08-12T10:39:48Z</time>
      </trkpt>
      <trkpt lat="42.3150620" lon="1.8679510">
        <ele>1933.0</ele>
        <time>2015-08-12T10:39:50Z</time>
      </trkpt>
      <trkpt lat="42.3150170" lon="1.8679250">
        <ele>1934.5</ele>
        <time>2015-08-12T10:39:51Z</time>
      </trkpt>
      <trkpt lat="42.3150370" lon="1.8678910">
        <ele>1934.9</ele>
        <time>2015-08-12T10:39:52Z</time>
      </trkpt>
      <trkpt lat="42.3150600" lon="1.8678480">
        <ele>1935.9</ele>
        <time>2015-08-12T10:39:55Z</time>
      </trkpt>
      <trkpt lat="42.3150890" lon="1.8678480">
        <ele>1935.1</ele>
        <time>2015-08-12T10:39:57Z</time>
      </trkpt>
      <trkpt lat="42.3151110" lon="1.8678160">
        <ele>1935.8</ele>
        <time>2015-08-12T10:40:00Z</time>
      </trkpt>
      <trkpt lat="42.3151410" lon="1.8677650">
        <ele>1937.2</ele>
        <time>2015-08-12T10:40:02Z</time>
      </trkpt>
      <trkpt lat="42.3151690" lon="1.8677650">
        <ele>1936.5</ele>
        <time>2015-08-12T10:40:03Z</time>
      </trkpt>
      <trkpt lat="42.3152120" lon="1.8677530">
        <ele>1935.9</ele>
        <time>2015-08-12T10:40:04Z</time>
      </trkpt>
      <trkpt lat="42.3152670" lon="1.8677510">
        <ele>1934.7</ele>
        <time>2015-08-12T10:40:06Z</time>
      </trkpt>
      <trkpt lat="42.3153000" lon="1.8677580">
        <ele>1933.5</ele>
        <time>2015-08-12T10:40:07Z</time>
      </trkpt>
      <trkpt lat="42.3153440" lon="1.8677340">
        <ele>1933.6</ele>
        <time>2015-08-12T10:40:08Z</time>
      </trkpt>
      <trkpt lat="42.3154120" lon="1.8677540">
        <ele>1930.9</ele>
        <time>2015-08-12T10:40:09Z</time>
      </trkpt>
      <trkpt lat="42.3154510" lon="1.8677550">
        <ele>1929.9</ele>
        <time>2015-08-12T10:40:10Z</time>
      </trkpt>
      <trkpt lat="42.3154790" lon="1.8677540">
        <ele>1929.2</ele>
        <time>2015-08-12T10:40:11Z</time>
      </trkpt>
      <trkpt lat="42.3155320" lon="1.8677410">
        <ele>1928.6</ele>
        <time>2015-08-12T10:40:12Z</time>
      </trkpt>
      <trkpt lat="42.3155690" lon="1.8677280">
        <ele>1928.3</ele>
        <time>2015-08-12T10:40:13Z</time>
      </trkpt>
      <trkpt lat="42.3156430" lon="1.8677010">
        <ele>1927.9</ele>
        <time>2015-08-12T10:40:16Z</time>
      </trkpt>
      <trkpt lat="42.3157100" lon="1.8677330">
        <ele>1924.5</ele>
        <time>2015-08-12T10:40:18Z</time>
      </trkpt>
      <trkpt lat="42.3157400" lon="1.8676950">
        <ele>1925.8</ele>
        <time>2015-08-12T10:40:19Z</time>
      </trkpt>
      <trkpt lat="42.3157800" lon="1.8676910">
        <ele>1925.0</ele>
        <time>2015-08-12T10:40:22Z</time>
      </trkpt>
      <trkpt lat="42.3158080" lon="1.8677000">
        <ele>1923.8</ele>
        <time>2015-08-12T10:40:24Z</time>
      </trkpt>
      <trkpt lat="42.3158450" lon="1.8676900">
        <ele>1923.4</ele>
        <time>2015-08-12T10:40:26Z</time>
      </trkpt>
      <trkpt lat="42.3158800" lon="1.8676900">
        <ele>1922.6</ele>
        <time>2015-08-12T10:40:28Z</time>
      </trkpt>
      <trkpt lat="42.3159260" lon="1.8676980">
        <ele>1921.0</ele>
        <time>2015-08-12T10:40:29Z</time>
      </trkpt>
      <trkpt lat="42.3159860" lon="1.8677200">
        <ele>1918.3</ele>
        <time>2015-08-12T10:40:31Z</time>
      </trkpt>
      <trkpt lat="42.3161040" lon="1.8677120">
        <ele>1915.7</ele>
        <time>2015-08-12T10:40:33Z</time>
      </trkpt>
      <trkpt lat="42.3161590" lon="1.8676870">
        <ele>1915.7</ele>
        <time>2015-08-12T10:40:34Z</time>
      </trkpt>
      <trkpt lat="42.3161950" lon="1.8677070">
        <ele>1913.7</ele>
        <time>2015-08-12T10:40:35Z</time>
      </trkpt>
      <trkpt lat="42.3162250" lon="1.8677060">
        <ele>1913.0</ele>
        <time>2015-08-12T10:40:36Z</time>
      </trkpt>
      <trkpt lat="42.3162690" lon="1.8677090">
        <ele>1911.5</ele>
        <time>2015-08-12T10:40:37Z</time>
      </trkpt>
      <trkpt lat="42.3163150" lon="1.8676800">
        <ele>1911.4</ele>
        <time>2015-08-12T10:40:39Z</time>
      </trkpt>
      <trkpt lat="42.3163630" lon="1.8676360">
        <ele>1912.0</ele>
        <time>2015-08-12T10:40:40Z</time>
      </trkpt>
      <trkpt lat="42.3163940" lon="1.8676280">
        <ele>1911.2</ele>
        <time>2015-08-12T10:40:41Z</time>
      </trkpt>
      <trkpt lat="42.3164110" lon="1.8675620">
        <ele>1914.2</ele>
        <time>2015-08-12T10:40:42Z</time>
      </trkpt>
      <trkpt lat="42.3164510" lon="1.8675560">
        <ele>1913.0</ele>
        <time>2015-08-12T10:40:43Z</time>
      </trkpt>
      <trkpt lat="42.3165140" lon="1.8675550">
        <ele>1910.7</ele>
        <time>2015-08-12T10:40:44Z</time>
      </trkpt>
      <trkpt lat="42.3165480" lon="1.8675420">
        <ele>1910.1</ele>
        <time>2015-08-12T10:40:45Z</time>
      </trkpt>
      <trkpt lat="42.3165660" lon="1.8674990">
        <ele>1911.8</ele>
        <time>2015-08-12T10:40:46Z</time>
      </trkpt>
      <trkpt lat="42.3165930" lon="1.8674710">
        <ele>1912.3</ele>
        <time>2015-08-12T10:40:47Z</time>
      </trkpt>
      <trkpt lat="42.3166330" lon="1.8674430">
        <ele>1912.3</ele>
        <time>2015-08-12T10:40:48Z</time>
      </trkpt>
      <trkpt lat="42.3166890" lon="1.8674450">
        <ele>1910.1</ele>
        <time>2015-08-12T10:40:49Z</time>
      </trkpt>
      <trkpt lat="42.3167470" lon="1.8674110">
        <ele>1909.8</ele>
        <time>2015-08-12T10:40:50Z</time>
      </trkpt>
      <trkpt lat="42.3168170" lon="1.8674080">
        <ele>1907.4</ele>
        <time>2015-08-12T10:40:51Z</time>
      </trkpt>
      <trkpt lat="42.3168600" lon="1.8673940">
        <ele>1906.5</ele>
        <time>2015-08-12T10:40:52Z</time>
      </trkpt>
      <trkpt lat="42.3168970" lon="1.8674030">
        <ele>1904.7</ele>
        <time>2015-08-12T10:40:53Z</time>
      </trkpt>
      <trkpt lat="42.3169500" lon="1.8673940">
        <ele>1903.2</ele>
        <time>2015-08-12T10:40:54Z</time>
      </trkpt>
      <trkpt lat="42.3170020" lon="1.8673940">
        <ele>1901.2</ele>
        <time>2015-08-12T10:40:55Z</time>
      </trkpt>
      <trkpt lat="42.3170410" lon="1.8673850">
        <ele>1900.3</ele>
        <time>2015-08-12T10:40:56Z</time>
      </trkpt>
      <trkpt lat="42.3170980" lon="1.8673810">
        <ele>1898.3</ele>
        <time>2015-08-12T10:40:57Z</time>
      </trkpt>
      <trkpt lat="42.3171260" lon="1.8673630">
        <ele>1898.0</ele>
        <time>2015-08-12T10:40:59Z</time>
      </trkpt>
      <trkpt lat="42.3171620" lon="1.8673210">
        <ele>1898.6</ele>
        <time>2015-08-12T10:41:00Z</time>
      </trkpt>
      <trkpt lat="42.3172080" lon="1.8672490">
        <ele>1900.4</ele>
        <time>2015-08-12T10:41:01Z</time>
      </trkpt>
      <trkpt lat="42.3171770" lon="1.8673280">
        <ele>1897.6</ele>
        <time>2015-08-12T10:41:02Z</time>
      </trkpt>
      <trkpt lat="42.3171630" lon="1.8674070">
        <ele>1894.0</ele>
        <time>2015-08-12T10:41:07Z</time>
      </trkpt>
      <trkpt lat="42.3171220" lon="1.8675010">
        <ele>1890.8</ele>
        <time>2015-08-12T10:41:09Z</time>
      </trkpt>
      <trkpt lat="42.3170810" lon="1.8675960">
        <ele>1887.4</ele>
        <time>2015-08-12T10:41:11Z</time>
      </trkpt>
      <trkpt lat="42.3170400" lon="1.8676900">
        <ele>1883.9</ele>
        <time>2015-08-12T10:42:30Z</time>
      </trkpt>
      <trkpt lat="42.3169990" lon="1.8677840">
        <ele>1880.3</ele>
        <time>2015-08-12T10:42:31Z</time>
      </trkpt>
      <trkpt lat="42.3169650" lon="1.8678660">
        <ele>1877.1</ele>
        <time>2015-08-12T10:42:32Z</time>
      </trkpt>
      <trkpt lat="42.3169170" lon="1.8678860">
        <ele>1877.8</ele>
        <time>2015-08-12T10:42:33Z</time>
      </trkpt>
      <trkpt lat="42.3169490" lon="1.8678680">
        <ele>1877.6</ele>
        <time>2015-08-12T10:42:34Z</time>
      </trkpt>
      <trkpt lat="42.3169460" lon="1.8679090">
        <ele>1875.5</ele>
        <time>2015-08-12T10:42:35Z</time>
      </trkpt>
      <trkpt lat="42.3169290" lon="1.8679570">
        <ele>1875.0</ele>
        <time>2015-08-12T10:42:36Z</time>
      </trkpt>
      <trkpt lat="42.3169280" lon="1.8679970">
        <ele>1874.4</ele>
        <time>2015-08-12T10:42:37Z</time>
      </trkpt>
      <trkpt lat="42.3169560" lon="1.8680350">
        <ele>1872.7</ele>
        <time>2015-08-12T10:42:39Z</time>
      </trkpt>
      <trkpt lat="42.3169530" lon="1.8680870">
        <ele>1871.9</ele>
        <time>2015-08-12T10:42:41Z</time>
      </trkpt>
      <trkpt lat="42.3169380" lon="1.8681190">
        <ele>1871.9</ele>
        <time>2015-08-12T10:42:42Z</time>
      </trkpt>
      <trkpt lat="42.3168940" lon="1.8681560">
        <ele>1872.9</ele>
        <time>2015-08-12T10:42:44Z</time>
      </trkpt>
      <trkpt lat="42.3169010" lon="1.8681160">
        <ele>1873.4</ele>
        <time>2015-08-12T10:42:47Z</time>
      </trkpt>
      <trkpt lat="42.3169460" lon="1.8681340">
        <ele>1871.3</ele>
        <time>2015-08-12T10:42:52Z</time>
      </trkpt>
      <trkpt lat="42.3169830" lon="1.8681110">
        <ele>1870.3</ele>
        <time>2015-08-12T10:42:54Z</time>
      </trkpt>
      <trkpt lat="42.3170100" lon="1.8681210">
        <ele>1869.1</ele>
        <time>2015-08-12T10:42:55Z</time>
      </trkpt>
      <trkpt lat="42.3170860" lon="1.8681500">
        <ele>1865.7</ele>
        <time>2015-08-12T10:42:57Z</time>
      </trkpt>
      <trkpt lat="42.3171110" lon="1.8681990">
        <ele>1863.8</ele>
        <time>2015-08-12T10:42:58Z</time>
      </trkpt>
      <trkpt lat="42.3171650" lon="1.8682290">
        <ele>1861.2</ele>
        <time>2015-08-12T10:43:00Z</time>
      </trkpt>
      <trkpt lat="42.3172090" lon="1.8682100">
        <ele>1859.8</ele>
        <time>2015-08-12T10:43:02Z</time>
      </trkpt>
      <trkpt lat="42.3172280" lon="1.8681810">
        <ele>1859.6</ele>
        <time>2015-08-12T10:43:04Z</time>
      </trkpt>
      <trkpt lat="42.3172650" lon="1.8682060">
        <ele>1857.7</ele>
        <time>2015-08-12T10:43:05Z</time>
      </trkpt>
      <trkpt lat="42.3172930" lon="1.8682080">
        <ele>1856.5</ele>
        <time>2015-08-12T10:43:07Z</time>
      </trkpt>
      <trkpt lat="42.3173330" lon="1.8682300">
        <ele>1854.6</ele>
        <time>2015-08-12T10:43:08Z</time>
      </trkpt>
      <trkpt lat="42.3173830" lon="1.8682230">
        <ele>1852.8</ele>
        <time>2015-08-12T10:43:09Z</time>
      </trkpt>
      <trkpt lat="42.3174260" lon="1.8682680">
        <ele>1850.3</ele>
        <time>2015-08-12T10:43:11Z</time>
      </trkpt>
      <trkpt lat="42.3174230" lon="1.8683050">
        <ele>1849.7</ele>
        <time>2015-08-12T10:43:14Z</time>
      </trkpt>
      <trkpt lat="42.3175120" lon="1.8682590">
        <ele>1847.1</ele>
        <time>2015-08-12T10:43:18Z</time>
      </trkpt>
      <trkpt lat="42.3175540" lon="1.8682400">
        <ele>1845.8</ele>
        <time>2015-08-12T10:43:19Z</time>
      </trkpt>
      <trkpt lat="42.3176100" lon="1.8682290">
        <ele>1843.8</ele>
        <time>2015-08-12T10:43:23Z</time>
      </trkpt>
      <trkpt lat="42.3176190" lon="1.8681750">
        <ele>1844.3</ele>
        <time>2015-08-12T10:43:25Z</time>
      </trkpt>
      <trkpt lat="42.3176560" lon="1.8681640">
        <ele>1843.1</ele>
        <time>2015-08-12T10:43:29Z</time>
      </trkpt>
      <trkpt lat="42.3176020" lon="1.8681660">
        <ele>1845.2</ele>
        <time>2015-08-12T10:43:32Z</time>
      </trkpt>
      <trkpt lat="42.3176480" lon="1.8681660">
        <ele>1843.4</ele>
        <time>2015-08-12T10:43:41Z</time>
      </trkpt>
      <trkpt lat="42.3176630" lon="1.8681330">
        <ele>1843.3</ele>
        <time>2015-08-12T10:43:43Z</time>
      </trkpt>
      <trkpt lat="42.3176430" lon="1.8681040">
        <ele>1844.6</ele>
        <time>2015-08-12T10:43:51Z</time>
      </trkpt>
      <trkpt lat="42.3176730" lon="1.8681210">
        <ele>1843.1</ele>
        <time>2015-08-12T10:44:27Z</time>
      </trkpt>
      <trkpt lat="42.3177330" lon="1.8681830">
        <ele>1839.7</ele>
        <time>2015-08-12T10:44:31Z</time>
      </trkpt>
      <trkpt lat="42.3177660" lon="1.8682000">
        <ele>1838.1</ele>
        <time>2015-08-12T10:44:33Z</time>
      </trkpt>
      <trkpt lat="42.3177940" lon="1.8682080">
        <ele>1836.9</ele>
        <time>2015-08-12T10:44:35Z</time>
      </trkpt>
      <trkpt lat="42.3178290" lon="1.8682110">
        <ele>1835.5</ele>
        <time>2015-08-12T10:44:37Z</time>
      </trkpt>
      <trkpt lat="42.3178830" lon="1.8682210">
        <ele>1833.2</ele>
        <time>2015-08-12T10:44:39Z</time>
      </trkpt>
      <trkpt lat="42.3179290" lon="1.8682520">
        <ele>1831.0</ele>
        <time>2015-08-12T10:44:41Z</time>
      </trkpt>
      <trkpt lat="42.3179500" lon="1.8682750">
        <ele>1829.9</ele>
        <time>2015-08-12T10:44:42Z</time>
      </trkpt>
      <trkpt lat="42.3179940" lon="1.8683070">
        <ele>1827.8</ele>
        <time>2015-08-12T10:44:43Z</time>
      </trkpt>
      <trkpt lat="42.3180550" lon="1.8683420">
        <ele>1825.2</ele>
        <time>2015-08-12T10:44:44Z</time>
      </trkpt>
      <trkpt lat="42.3181040" lon="1.8683180">
        <ele>1824.0</ele>
        <time>2015-08-12T10:44:45Z</time>
      </trkpt>
      <trkpt lat="42.3180950" lon="1.8682830">
        <ele>1824.9</ele>
        <time>2015-08-12T10:44:46Z</time>
      </trkpt>
      <trkpt lat="42.3181660" lon="1.8683220">
        <ele>1821.8</ele>
        <time>2015-08-12T10:44:48Z</time>
      </trkpt>
      <trkpt lat="42.3182090" lon="1.8683540">
        <ele>1819.8</ele>
        <time>2015-08-12T10:44:50Z</time>
      </trkpt>
      <trkpt lat="42.3182400" lon="1.8684080">
        <ele>1817.8</ele>
        <time>2015-08-12T10:44:52Z</time>
      </trkpt>
      <trkpt lat="42.3182790" lon="1.8684250">
        <ele>1816.2</ele>
        <time>2015-08-12T10:44:54Z</time>
      </trkpt>
      <trkpt lat="42.3183290" lon="1.8684570">
        <ele>1813.9</ele>
        <time>2015-08-12T10:44:56Z</time>
      </trkpt>
      <trkpt lat="42.3183670" lon="1.8685010">
        <ele>1811.8</ele>
        <time>2015-08-12T10:44:58Z</time>
      </trkpt>
      <trkpt lat="42.3184420" lon="1.8685010">
        <ele>1809.3</ele>
        <time>2015-08-12T10:45:01Z</time>
      </trkpt>
      <trkpt lat="42.3184760" lon="1.8684770">
        <ele>1808.6</ele>
        <time>2015-08-12T10:45:03Z</time>
      </trkpt>
      <trkpt lat="42.3185170" lon="1.8684940">
        <ele>1806.9</ele>
        <time>2015-08-12T10:45:05Z</time>
      </trkpt>
      <trkpt lat="42.3185450" lon="1.8685030">
        <ele>1805.7</ele>
        <time>2015-08-12T10:45:06Z</time>
      </trkpt>
      <trkpt lat="42.3185780" lon="1.8685000">
        <ele>1804.7</ele>
        <time>2015-08-12T10:45:09Z</time>
      </trkpt>
      <trkpt lat="42.3186320" lon="1.8685150">
        <ele>1802.5</ele>
        <time>2015-08-12T10:45:13Z</time>
      </trkpt>
      <trkpt lat="42.3186980" lon="1.8685120">
        <ele>1800.3</ele>
        <time>2015-08-12T10:45:15Z</time>
      </trkpt>
      <trkpt lat="42.3187200" lon="1.8684370">
        <ele>1801.0</ele>
        <time>2015-08-12T10:45:16Z</time>
      </trkpt>
      <trkpt lat="42.3187750" lon="1.8684300">
        <ele>1799.3</ele>
        <time>2015-08-12T10:45:19Z</time>
      </trkpt>
      <trkpt lat="42.3188140" lon="1.8684320">
        <ele>1797.8</ele>
        <time>2015-08-12T10:45:21Z</time>
      </trkpt>
      <trkpt lat="42.3188630" lon="1.8684380">
        <ele>1796.0</ele>
        <time>2015-08-12T10:45:23Z</time>
      </trkpt>
      <trkpt lat="42.3188870" lon="1.8684580">
        <ele>1794.8</ele>
        <time>2015-08-12T10:45:24Z</time>
      </trkpt>
      <trkpt lat="42.3189300" lon="1.8684880">
        <ele>1792.7</ele>
        <time>2015-08-12T10:45:26Z</time>
      </trkpt>
      <trkpt lat="42.3189670" lon="1.8684650">
        <ele>1791.8</ele>
        <time>2015-08-12T10:45:27Z</time>
      </trkpt>
      <trkpt lat="42.3190440" lon="1.8684700">
        <ele>1789.0</ele>
        <time>2015-08-12T10:45:29Z</time>
      </trkpt>
      <trkpt lat="42.3190880" lon="1.8684400">
        <ele>1787.9</ele>
        <time>2015-08-12T10:45:31Z</time>
      </trkpt>
      <trkpt lat="42.3191070" lon="1.8684060">
        <ele>1787.8</ele>
        <time>2015-08-12T10:45:32Z</time>
      </trkpt>
      <trkpt lat="42.3191610" lon="1.8683700">
        <ele>1786.4</ele>
        <time>2015-08-12T10:45:33Z</time>
      </trkpt>
      <trkpt lat="42.3191950" lon="1.8683550">
        <ele>1785.4</ele>
        <time>2015-08-12T10:45:34Z</time>
      </trkpt>
      <trkpt lat="42.3192300" lon="1.8683210">
        <ele>1784.6</ele>
        <time>2015-08-12T10:45:36Z</time>
      </trkpt>
      <trkpt lat="42.3192500" lon="1.8682950">
        <ele>1784.2</ele>
        <time>2015-08-12T10:45:37Z</time>
      </trkpt>
      <trkpt lat="42.3193020" lon="1.8682520">
        <ele>1782.9</ele>
        <time>2015-08-12T10:45:38Z</time>
      </trkpt>
      <trkpt lat="42.3193590" lon="1.8681830">
        <ele>1781.7</ele>
        <time>2015-08-12T10:45:39Z</time>
      </trkpt>
      <trkpt lat="42.3193910" lon="1.8682030">
        <ele>1780.2</ele>
        <time>2015-08-12T10:45:40Z</time>
      </trkpt>
      <trkpt lat="42.3194550" lon="1.8681540">
        <ele>1778.4</ele>
        <time>2015-08-12T10:45:42Z</time>
      </trkpt>
      <trkpt lat="42.3194950" lon="1.8681360">
        <ele>1777.0</ele>
        <time>2015-08-12T10:45:43Z</time>
      </trkpt>
      <trkpt lat="42.3195130" lon="1.8680870">
        <ele>1776.9</ele>
        <time>2015-08-12T10:45:44Z</time>
      </trkpt>
      <trkpt lat="42.3195490" lon="1.8680660">
        <ele>1775.7</ele>
        <time>2015-08-12T10:45:45Z</time>
      </trkpt>
      <trkpt lat="42.3195960" lon="1.8680640">
        <ele>1774.0</ele>
        <time>2015-08-12T10:45:46Z</time>
      </trkpt>
      <trkpt lat="42.3196230" lon="1.8679910">
        <ele>1773.7</ele>
        <time>2015-08-12T10:45:47Z</time>
      </trkpt>
      <trkpt lat="42.3196600" lon="1.8679610">
        <ele>1772.5</ele>
        <time>2015-08-12T10:45:48Z</time>
      </trkpt>
      <trkpt lat="42.3196860" lon="1.8679420">
        <ele>1771.6</ele>
        <time>2015-08-12T10:45:49Z</time>
      </trkpt>
      <trkpt lat="42.3197380" lon="1.8678930">
        <ele>1770.2</ele>
        <time>2015-08-12T10:45:51Z</time>
      </trkpt>
      <trkpt lat="42.3197780" lon="1.8678450">
        <ele>1769.7</ele>
        <time>2015-08-12T10:45:53Z</time>
      </trkpt>
      <trkpt lat="42.3197970" lon="1.8677580">
        <ele>1770.9</ele>
        <time>2015-08-12T10:45:55Z</time>
      </trkpt>
      <trkpt lat="42.3198170" lon="1.8677110">
        <ele>1771.2</ele>
        <time>2015-08-12T10:45:56Z</time>
      </trkpt>
      <trkpt lat="42.3198410" lon="1.8676650">
        <ele>1771.2</ele>
        <time>2015-08-12T10:45:58Z</time>
      </trkpt>
      <trkpt lat="42.3198650" lon="1.8676190">
        <ele>1771.3</ele>
        <time>2015-08-12T10:45:59Z</time>
      </trkpt>
      <trkpt lat="42.3198840" lon="1.8675900">
        <ele>1771.1</ele>
        <time>2015-08-12T10:46:00Z</time>
      </trkpt>
      <trkpt lat="42.3199180" lon="1.8675680">
        <ele>1770.2</ele>
        <time>2015-08-12T10:46:01Z</time>
      </trkpt>
      <trkpt lat="42.3199510" lon="1.8675640">
        <ele>1768.9</ele>
        <time>2015-08-12T10:46:04Z</time>
      </trkpt>
      <trkpt lat="42.3199830" lon="1.8675600">
        <ele>1767.6</ele>
        <time>2015-08-12T10:46:05Z</time>
      </trkpt>
      <trkpt lat="42.3200270" lon="1.8675280">
        <ele>1766.5</ele>
        <time>2015-08-12T10:46:06Z</time>
      </trkpt>
      <trkpt lat="42.3201290" lon="1.8674890">
        <ele>1763.0</ele>
        <time>2015-08-12T10:46:08Z</time>
      </trkpt>
      <trkpt lat="42.3201640" lon="1.8674510">
        <ele>1762.3</ele>
        <time>2015-08-12T10:46:10Z</time>
      </trkpt>
      <trkpt lat="42.3202370" lon="1.8674600">
        <ele>1759.0</ele>
        <time>2015-08-12T10:46:11Z</time>
      </trkpt>
      <trkpt lat="42.3203080" lon="1.8674770">
        <ele>1755.6</ele>
        <time>2015-08-12T10:46:12Z</time>
      </trkpt>
      <trkpt lat="42.3203440" lon="1.8674660">
        <ele>1754.3</ele>
        <time>2015-08-12T10:46:13Z</time>
      </trkpt>
      <trkpt lat="42.3203720" lon="1.8674240">
        <ele>1754.0</ele>
        <time>2015-08-12T10:46:15Z</time>
      </trkpt>
      <trkpt lat="42.3204000" lon="1.8674100">
        <ele>1753.1</ele>
        <time>2015-08-12T10:46:16Z</time>
      </trkpt>
      <trkpt lat="42.3204030" lon="1.8673430">
        <ele>1754.3</ele>
        <time>2015-08-12T10:46:17Z</time>
      </trkpt>
      <trkpt lat="42.3204350" lon="1.8673020">
        <ele>1754.0</ele>
        <time>2015-08-12T10:46:18Z</time>
      </trkpt>
      <trkpt lat="42.3204630" lon="1.8672780">
        <ele>1753.7</ele>
        <time>2015-08-12T10:46:19Z</time>
      </trkpt>
      <trkpt lat="42.3205140" lon="1.8672420">
        <ele>1752.9</ele>
        <time>2015-08-12T10:46:20Z</time>
      </trkpt>
      <trkpt lat="42.3205140" lon="1.8672040">
        <ele>1753.6</ele>
        <time>2015-08-12T10:46:21Z</time>
      </trkpt>
      <trkpt lat="42.3205400" lon="1.8671800">
        <ele>1753.1</ele>
        <time>2015-08-12T10:46:22Z</time>
      </trkpt>
      <trkpt lat="42.3205660" lon="1.8671450">
        <ele>1752.9</ele>
        <time>2015-08-12T10:46:23Z</time>
      </trkpt>
      <trkpt lat="42.3206050" lon="1.8671160">
        <ele>1752.0</ele>
        <time>2015-08-12T10:46:25Z</time>
      </trkpt>
      <trkpt lat="42.3206480" lon="1.8671720">
        <ele>1749.8</ele>
        <time>2015-08-12T10:46:26Z</time>
      </trkpt>
      <trkpt lat="42.3206830" lon="1.8671680">
        <ele>1748.8</ele>
        <time>2015-08-12T10:46:27Z</time>
      </trkpt>
      <trkpt lat="42.3207350" lon="1.8671290">
        <ele>1747.5</ele>
        <time>2015-08-12T10:46:29Z</time>
      </trkpt>
      <trkpt lat="42.3207630" lon="1.8671160">
        <ele>1746.7</ele>
        <time>2015-08-12T10:46:30Z</time>
      </trkpt>
      <trkpt lat="42.3208130" lon="1.8671010">
        <ele>1745.1</ele>
        <time>2015-08-12T10:46:32Z</time>
      </trkpt>
      <trkpt lat="42.3208360" lon="1.8671190">
        <ele>1744.2</ele>
        <time>2015-08-12T10:46:33Z</time>
      </trkpt>
      <trkpt lat="42.3208710" lon="1.8670880">
        <ele>1743.2</ele>
        <time>2015-08-12T10:46:34Z</time>
      </trkpt>
      <trkpt lat="42.3208920" lon="1.8670630">
        <ele>1743.1</ele>
        <time>2015-08-12T10:46:36Z</time>
      </trkpt>
      <trkpt lat="42.3208700" lon="1.8670390">
        <ele>1744.7</ele>
        <time>2015-08-12T10:46:37Z</time>
      </trkpt>
      <trkpt lat="42.3209020" lon="1.8670280">
        <ele>1743.9</ele>
        <time>2015-08-12T10:46:40Z</time>
      </trkpt>
      <trkpt lat="42.3208730" lon="1.8669810">
        <ele>1746.4</ele>
        <time>2015-08-12T10:46:41Z</time>
      </trkpt>
      <trkpt lat="42.3208930" lon="1.8669300">
        <ele>1747.4</ele>
        <time>2015-08-12T10:46:43Z</time>
      </trkpt>
      <trkpt lat="42.3209140" lon="1.8668770">
        <ele>1748.4</ele>
        <time>2015-08-12T10:46:46Z</time>
      </trkpt>
      <trkpt lat="42.3209430" lon="1.8668510">
        <ele>1748.3</ele>
        <time>2015-08-12T10:46:48Z</time>
      </trkpt>
      <trkpt lat="42.3209680" lon="1.8668700">
        <ele>1746.8</ele>
        <time>2015-08-12T10:46:50Z</time>
      </trkpt>
      <trkpt lat="42.3210070" lon="1.8668290">
        <ele>1746.8</ele>
        <time>2015-08-12T10:46:53Z</time>
      </trkpt>
      <trkpt lat="42.3210380" lon="1.8667940">
        <ele>1746.9</ele>
        <time>2015-08-12T10:46:55Z</time>
      </trkpt>
      <trkpt lat="42.3210820" lon="1.8668000">
        <ele>1745.2</ele>
        <time>2015-08-12T10:46:56Z</time>
      </trkpt>
      <trkpt lat="42.3211140" lon="1.8667880">
        <ele>1744.5</ele>
        <time>2015-08-12T10:46:57Z</time>
      </trkpt>
      <trkpt lat="42.3211310" lon="1.8667570">
        <ele>1745.0</ele>
        <time>2015-08-12T10:46:58Z</time>
      </trkpt>
      <trkpt lat="42.3211610" lon="1.8667380">
        <ele>1744.6</ele>
        <time>2015-08-12T10:47:00Z</time>
      </trkpt>
      <trkpt lat="42.3211990" lon="1.8667370">
        <ele>1743.4</ele>
        <time>2015-08-12T10:47:02Z</time>
      </trkpt>
      <trkpt lat="42.3212230" lon="1.8666990">
        <ele>1743.8</ele>
        <time>2015-08-12T10:47:04Z</time>
      </trkpt>
      <trkpt lat="42.3212540" lon="1.8666710">
        <ele>1743.7</ele>
        <time>2015-08-12T10:47:05Z</time>
      </trkpt>
      <trkpt lat="42.3212720" lon="1.8667000">
        <ele>1742.2</ele>
        <time>2015-08-12T10:47:07Z</time>
      </trkpt>
      <trkpt lat="42.3213470" lon="1.8666870">
        <ele>1740.5</ele>
        <time>2015-08-12T10:47:11Z</time>
      </trkpt>
      <trkpt lat="42.3214060" lon="1.8666840">
        <ele>1738.9</ele>
        <time>2015-08-12T10:47:13Z</time>
      </trkpt>
      <trkpt lat="42.3214670" lon="1.8666330">
        <ele>1738.6</ele>
        <time>2015-08-12T10:47:14Z</time>
      </trkpt>
      <trkpt lat="42.3215180" lon="1.8666270">
        <ele>1737.2</ele>
        <time>2015-08-12T10:47:15Z</time>
      </trkpt>
      <trkpt lat="42.3215470" lon="1.8666080">
        <ele>1736.9</ele>
        <time>2015-08-12T10:47:16Z</time>
      </trkpt>
      <trkpt lat="42.3215780" lon="1.8665980">
        <ele>1736.2</ele>
        <time>2015-08-12T10:47:17Z</time>
      </trkpt>
      <trkpt lat="42.3216520" lon="1.8665830">
        <ele>1734.3</ele>
        <time>2015-08-12T10:47:18Z</time>
      </trkpt>
      <trkpt lat="42.3216900" lon="1.8665740">
        <ele>1733.3</ele>
        <time>2015-08-12T10:47:19Z</time>
      </trkpt>
      <trkpt lat="42.3217210" lon="1.8665280">
        <ele>1733.4</ele>
        <time>2015-08-12T10:47:20Z</time>
      </trkpt>
      <trkpt lat="42.3217720" lon="1.8665170">
        <ele>1732.0</ele>
        <time>2015-08-12T10:47:21Z</time>
      </trkpt>
      <trkpt lat="42.3218600" lon="1.8665550">
        <ele>1728.3</ele>
        <time>2015-08-12T10:47:22Z</time>
      </trkpt>
      <trkpt lat="42.3219040" lon="1.8665520">
        <ele>1727.0</ele>
        <time>2015-08-12T10:47:23Z</time>
      </trkpt>
      <trkpt lat="42.3219430" lon="1.8665180">
        <ele>1726.4</ele>
        <time>2015-08-12T10:47:26Z</time>
      </trkpt>
      <trkpt lat="42.3219860" lon="1.8664810">
        <ele>1725.6</ele>
        <time>2015-08-12T10:47:27Z</time>
      </trkpt>
      <trkpt lat="42.3220290" lon="1.8664570">
        <ele>1724.6</ele>
        <time>2015-08-12T10:47:28Z</time>
      </trkpt>
      <trkpt lat="42.3220940" lon="1.8664080">
        <ele>1723.3</ele>
        <time>2015-08-12T10:47:29Z</time>
      </trkpt>
      <trkpt lat="42.3221280" lon="1.8663930">
        <ele>1722.7</ele>
        <time>2015-08-12T10:47:30Z</time>
      </trkpt>
      <trkpt lat="42.3222350" lon="1.8663170">
        <ele>1720.9</ele>
        <time>2015-08-12T10:47:31Z</time>
      </trkpt>
      <trkpt lat="42.3222830" lon="1.8662720">
        <ele>1720.0</ele>
        <time>2015-08-12T10:47:32Z</time>
      </trkpt>
      <trkpt lat="42.3223390" lon="1.8662530">
        <ele>1718.6</ele>
        <time>2015-08-12T10:47:33Z</time>
      </trkpt>
      <trkpt lat="42.3223700" lon="1.8662430">
        <ele>1718.0</ele>
        <time>2015-08-12T10:47:34Z</time>
      </trkpt>
      <trkpt lat="42.3224320" lon="1.8662280">
        <ele>1716.6</ele>
        <time>2015-08-12T10:47:35Z</time>
      </trkpt>
      <trkpt lat="42.3224800" lon="1.8662270">
        <ele>1715.3</ele>
        <time>2015-08-12T10:47:36Z</time>
      </trkpt>
      <trkpt lat="42.3225200" lon="1.8661910">
        <ele>1715.2</ele>
        <time>2015-08-12T10:47:37Z</time>
      </trkpt>
      <trkpt lat="42.3225700" lon="1.8661630">
        <ele>1714.5</ele>
        <time>2015-08-12T10:47:38Z</time>
      </trkpt>
      <trkpt lat="42.3226100" lon="1.8661240">
        <ele>1714.5</ele>
        <time>2015-08-12T10:47:39Z</time>
      </trkpt>
      <trkpt lat="42.3226480" lon="1.8660990">
        <ele>1714.1</ele>
        <time>2015-08-12T10:47:40Z</time>
      </trkpt>
      <trkpt lat="42.3226860" lon="1.8660780">
        <ele>1713.7</ele>
        <time>2015-08-12T10:47:41Z</time>
      </trkpt>
      <trkpt lat="42.3227270" lon="1.8660650">
        <ele>1712.8</ele>
        <time>2015-08-12T10:47:42Z</time>
      </trkpt>
      <trkpt lat="42.3227740" lon="1.8660590">
        <ele>1711.6</ele>
        <time>2015-08-12T10:47:43Z</time>
      </trkpt>
      <trkpt lat="42.3228230" lon="1.8659840">
        <ele>1712.4</ele>
        <time>2015-08-12T10:47:44Z</time>
      </trkpt>
      <trkpt lat="42.3228680" lon="1.8659720">
        <ele>1711.4</ele>
        <time>2015-08-12T10:47:45Z</time>
      </trkpt>
      <trkpt lat="42.3229040" lon="1.8659410">
        <ele>1711.3</ele>
        <time>2015-08-12T10:47:46Z</time>
      </trkpt>
      <trkpt lat="42.3229370" lon="1.8659140">
        <ele>1711.1</ele>
        <time>2015-08-12T10:47:47Z</time>
      </trkpt>
      <trkpt lat="42.3229700" lon="1.8659250">
        <ele>1709.8</ele>
        <time>2015-08-12T10:47:50Z</time>
      </trkpt>
      <trkpt lat="42.3230050" lon="1.8659080">
        <ele>1709.3</ele>
        <time>2015-08-12T10:47:52Z</time>
      </trkpt>
      <trkpt lat="42.3230650" lon="1.8658780">
        <ele>1708.3</ele>
        <time>2015-08-12T10:47:55Z</time>
      </trkpt>
      <trkpt lat="42.3231250" lon="1.8658200">
        <ele>1708.0</ele>
        <time>2015-08-12T10:47:57Z</time>
      </trkpt>
      <trkpt lat="42.3231910" lon="1.8657840">
        <ele>1706.8</ele>
        <time>2015-08-12T10:47:58Z</time>
      </trkpt>
      <trkpt lat="42.3232320" lon="1.8657460">
        <ele>1706.4</ele>
        <time>2015-08-12T10:47:59Z</time>
      </trkpt>
      <trkpt lat="42.3232640" lon="1.8657280">
        <ele>1705.7</ele>
        <time>2015-08-12T10:48:00Z</time>
      </trkpt>
      <trkpt lat="42.3233250" lon="1.8656990">
        <ele>1704.3</ele>
        <time>2015-08-12T10:48:01Z</time>
      </trkpt>
      <trkpt lat="42.3233720" lon="1.8656800">
        <ele>1703.2</ele>
        <time>2015-08-12T10:48:02Z</time>
      </trkpt>
      <trkpt lat="42.3234030" lon="1.8656610">
        <ele>1702.5</ele>
        <time>2015-08-12T10:48:03Z</time>
      </trkpt>
      <trkpt lat="42.3234480" lon="1.8656540">
        <ele>1701.1</ele>
        <time>2015-08-12T10:48:04Z</time>
      </trkpt>
      <trkpt lat="42.3234830" lon="1.8656470">
        <ele>1700.1</ele>
        <time>2015-08-12T10:48:05Z</time>
      </trkpt>
      <trkpt lat="42.3235190" lon="1.8656440">
        <ele>1698.9</ele>
        <time>2015-08-12T10:48:06Z</time>
      </trkpt>
      <trkpt lat="42.3235510" lon="1.8656380">
        <ele>1697.9</ele>
        <time>2015-08-12T10:48:07Z</time>
      </trkpt>
      <trkpt lat="42.3235780" lon="1.8656430">
        <ele>1696.9</ele>
        <time>2015-08-12T10:48:08Z</time>
      </trkpt>
      <trkpt lat="42.3236070" lon="1.8656410">
        <ele>1695.9</ele>
        <time>2015-08-12T10:48:09Z</time>
      </trkpt>
      <trkpt lat="42.3236540" lon="1.8656690">
        <ele>1693.9</ele>
        <time>2015-08-12T10:48:10Z</time>
      </trkpt>
      <trkpt lat="42.3236730" lon="1.8656410">
        <ele>1693.7</ele>
        <time>2015-08-12T10:48:12Z</time>
      </trkpt>
      <trkpt lat="42.3237290" lon="1.8656070">
        <ele>1692.2</ele>
        <time>2015-08-12T10:48:14Z</time>
      </trkpt>
      <trkpt lat="42.3237590" lon="1.8656060">
        <ele>1691.3</ele>
        <time>2015-08-12T10:48:15Z</time>
      </trkpt>
      <trkpt lat="42.3237920" lon="1.8656020">
        <ele>1690.5</ele>
        <time>2015-08-12T10:48:16Z</time>
      </trkpt>
      <trkpt lat="42.3238840" lon="1.8655400">
        <ele>1689.1</ele>
        <time>2015-08-12T10:48:18Z</time>
      </trkpt>
      <trkpt lat="42.3239410" lon="1.8655070">
        <ele>1688.1</ele>
        <time>2015-08-12T10:48:19Z</time>
      </trkpt>
      <trkpt lat="42.3239730" lon="1.8654920">
        <ele>1687.5</ele>
        <time>2015-08-12T10:48:20Z</time>
      </trkpt>
      <trkpt lat="42.3240570" lon="1.8655450">
        <ele>1684.7</ele>
        <time>2015-08-12T10:48:21Z</time>
      </trkpt>
      <trkpt lat="42.3240950" lon="1.8655430">
        <ele>1683.8</ele>
        <time>2015-08-12T10:48:22Z</time>
      </trkpt>
      <trkpt lat="42.3241490" lon="1.8655810">
        <ele>1682.1</ele>
        <time>2015-08-12T10:48:23Z</time>
      </trkpt>
      <trkpt lat="42.3242160" lon="1.8655820">
        <ele>1680.4</ele>
        <time>2015-08-12T10:48:24Z</time>
      </trkpt>
      <trkpt lat="42.3242850" lon="1.8656180">
        <ele>1678.3</ele>
        <time>2015-08-12T10:48:25Z</time>
      </trkpt>
      <trkpt lat="42.3243290" lon="1.8656290">
        <ele>1677.1</ele>
        <time>2015-08-12T10:48:26Z</time>
      </trkpt>
      <trkpt lat="42.3243640" lon="1.8656710">
        <ele>1675.8</ele>
        <time>2015-08-12T10:48:27Z</time>
      </trkpt>
      <trkpt lat="42.3243930" lon="1.8656810">
        <ele>1675.0</ele>
        <time>2015-08-12T10:48:28Z</time>
      </trkpt>
      <trkpt lat="42.3244450" lon="1.8657060">
        <ele>1673.5</ele>
        <time>2015-08-12T10:48:29Z</time>
      </trkpt>
      <trkpt lat="42.3244850" lon="1.8657110">
        <ele>1672.5</ele>
        <time>2015-08-12T10:48:30Z</time>
      </trkpt>
      <trkpt lat="42.3244580" lon="1.8657050">
        <ele>1673.2</ele>
        <time>2015-08-12T10:48:32Z</time>
      </trkpt>
      <trkpt lat="42.3245180" lon="1.8657450">
        <ele>1671.4</ele>
        <time>2015-08-12T10:48:34Z</time>
      </trkpt>
      <trkpt lat="42.3245540" lon="1.8657740">
        <ele>1670.3</ele>
        <time>2015-08-12T10:48:36Z</time>
      </trkpt>
      <trkpt lat="42.3245860" lon="1.8657790">
        <ele>1669.5</ele>
        <time>2015-08-12T10:48:37Z</time>
      </trkpt>
      <trkpt lat="42.3246180" lon="1.8658050">
        <ele>1668.8</ele>
        <time>2015-08-12T10:48:38Z</time>
      </trkpt>
      <trkpt lat="42.3246600" lon="1.8658420">
        <ele>1667.8</ele>
        <time>2015-08-12T10:48:40Z</time>
      </trkpt>
      <trkpt lat="42.3246880" lon="1.8658550">
        <ele>1667.2</ele>
        <time>2015-08-12T10:48:41Z</time>
      </trkpt>
      <trkpt lat="42.3247190" lon="1.8658800">
        <ele>1666.4</ele>
        <time>2015-08-12T10:48:42Z</time>
      </trkpt>
      <trkpt lat="42.3247500" lon="1.8659020">
        <ele>1665.6</ele>
        <time>2015-08-12T10:48:43Z</time>
      </trkpt>
      <trkpt lat="42.3247930" lon="1.8659030">
        <ele>1664.9</ele>
        <time>2015-08-12T10:48:45Z</time>
      </trkpt>
      <trkpt lat="42.3248670" lon="1.8659620">
        <ele>1662.6</ele>
        <time>2015-08-12T10:48:47Z</time>
      </trkpt>
      <trkpt lat="42.3249870" lon="1.8659630">
        <ele>1660.4</ele>
        <time>2015-08-12T10:48:48Z</time>
      </trkpt>
      <trkpt lat="42.3250150" lon="1.8659900">
        <ele>1659.3</ele>
        <time>2015-08-12T10:48:49Z</time>
      </trkpt>
      <trkpt lat="42.3250520" lon="1.8660060">
        <ele>1658.3</ele>
        <time>2015-08-12T10:48:50Z</time>
      </trkpt>
      <trkpt lat="42.3251070" lon="1.8660220">
        <ele>1656.8</ele>
        <time>2015-08-12T10:48:51Z</time>
      </trkpt>
      <trkpt lat="42.3251430" lon="1.8660370">
        <ele>1655.7</ele>
        <time>2015-08-12T10:48:52Z</time>
      </trkpt>
      <trkpt lat="42.3251900" lon="1.8660290">
        <ele>1655.0</ele>
        <time>2015-08-12T10:48:53Z</time>
      </trkpt>
      <trkpt lat="42.3252420" lon="1.8660250">
        <ele>1654.0</ele>
        <time>2015-08-12T10:48:54Z</time>
      </trkpt>
      <trkpt lat="42.3252930" lon="1.8660300">
        <ele>1652.9</ele>
        <time>2015-08-12T10:48:56Z</time>
      </trkpt>
      <trkpt lat="42.3253440" lon="1.8660230">
        <ele>1652.1</ele>
        <time>2015-08-12T10:48:58Z</time>
      </trkpt>
      <trkpt lat="42.3253760" lon="1.8660260">
        <ele>1651.3</ele>
        <time>2015-08-12T10:48:59Z</time>
      </trkpt>
      <trkpt lat="42.3254890" lon="1.8659590">
        <ele>1652.5</ele>
        <time>2015-08-12T10:49:00Z</time>
      </trkpt>
      <trkpt lat="42.3255190" lon="1.8659590">
        <ele>1652.4</ele>
        <time>2015-08-12T10:49:01Z</time>
      </trkpt>
      <trkpt lat="42.3255620" lon="1.8659520">
        <ele>1652.5</ele>
        <time>2015-08-12T10:49:02Z</time>
      </trkpt>
      <trkpt lat="42.3255960" lon="1.8659590">
        <ele>1652.1</ele>
        <time>2015-08-12T10:49:03Z</time>
      </trkpt>
      <trkpt lat="42.3256430" lon="1.8659690">
        <ele>1651.5</ele>
        <time>2015-08-12T10:49:04Z</time>
      </trkpt>
      <trkpt lat="42.3256820" lon="1.8659690">
        <ele>1651.3</ele>
        <time>2015-08-12T10:49:05Z</time>
      </trkpt>
      <trkpt lat="42.3257230" lon="1.8660090">
        <ele>1649.4</ele>
        <time>2015-08-12T10:49:06Z</time>
      </trkpt>
      <trkpt lat="42.3257900" lon="1.8660040">
        <ele>1649.3</ele>
        <time>2015-08-12T10:49:07Z</time>
      </trkpt>
      <trkpt lat="42.3258690" lon="1.8660140">
        <ele>1648.4</ele>
        <time>2015-08-12T10:49:08Z</time>
      </trkpt>
      <trkpt lat="42.3259400" lon="1.8660690">
        <ele>1645.4</ele>
        <time>2015-08-12T10:49:09Z</time>
      </trkpt>
      <trkpt lat="42.3260010" lon="1.8660660">
        <ele>1645.1</ele>
        <time>2015-08-12T10:49:10Z</time>
      </trkpt>
      <trkpt lat="42.3260650" lon="1.8660310">
        <ele>1646.5</ele>
        <time>2015-08-12T10:49:11Z</time>
      </trkpt>
      <trkpt lat="42.3261220" lon="1.8659990">
        <ele>1647.8</ele>
        <time>2015-08-12T10:49:12Z</time>
      </trkpt>
      <trkpt lat="42.3262080" lon="1.8659470">
        <ele>1650.2</ele>
        <time>2015-08-12T10:49:13Z</time>
      </trkpt>
      <trkpt lat="42.3262710" lon="1.8659240">
        <ele>1651.0</ele>
        <time>2015-08-12T10:49:14Z</time>
      </trkpt>
      <trkpt lat="42.3263710" lon="1.8659670">
        <ele>1647.1</ele>
        <time>2015-08-12T10:49:15Z</time>
      </trkpt>
      <trkpt lat="42.3264330" lon="1.8659740">
        <ele>1645.7</ele>
        <time>2015-08-12T10:49:16Z</time>
      </trkpt>
      <trkpt lat="42.3264800" lon="1.8659690">
        <ele>1645.2</ele>
        <time>2015-08-12T10:49:17Z</time>
      </trkpt>
      <trkpt lat="42.3265420" lon="1.8659720">
        <ele>1644.1</ele>
        <time>2015-08-12T10:49:18Z</time>
      </trkpt>
      <trkpt lat="42.3265950" lon="1.8659880">
        <ele>1642.5</ele>
        <time>2015-08-12T10:49:19Z</time>
      </trkpt>
      <trkpt lat="42.3266360" lon="1.8659710">
        <ele>1642.7</ele>
        <time>2015-08-12T10:49:20Z</time>
      </trkpt>
      <trkpt lat="42.3266780" lon="1.8659710">
        <ele>1642.0</ele>
        <time>2015-08-12T10:49:21Z</time>
      </trkpt>
      <trkpt lat="42.3267930" lon="1.8659770">
        <ele>1640.0</ele>
        <time>2015-08-12T10:49:22Z</time>
      </trkpt>
      <trkpt lat="42.3268440" lon="1.8660010">
        <ele>1638.1</ele>
        <time>2015-08-12T10:49:23Z</time>
      </trkpt>
      <trkpt lat="42.3268800" lon="1.8659860">
        <ele>1638.2</ele>
        <time>2015-08-12T10:49:24Z</time>
      </trkpt>
      <trkpt lat="42.3269340" lon="1.8660280">
        <ele>1635.5</ele>
        <time>2015-08-12T10:49:25Z</time>
      </trkpt>
      <trkpt lat="42.3269640" lon="1.8660330">
        <ele>1634.9</ele>
        <time>2015-08-12T10:49:26Z</time>
      </trkpt>
      <trkpt lat="42.3270250" lon="1.8659720">
        <ele>1636.6</ele>
        <time>2015-08-12T10:49:27Z</time>
      </trkpt>
      <trkpt lat="42.3270630" lon="1.8659650">
        <ele>1636.3</ele>
        <time>2015-08-12T10:49:28Z</time>
      </trkpt>
      <trkpt lat="42.3271050" lon="1.8659600">
        <ele>1635.6</ele>
        <time>2015-08-12T10:49:29Z</time>
      </trkpt>
      <trkpt lat="42.3271750" lon="1.8660150">
        <ele>1631.4</ele>
        <time>2015-08-12T10:49:30Z</time>
      </trkpt>
      <trkpt lat="42.3272270" lon="1.8660020">
        <ele>1630.5</ele>
        <time>2015-08-12T10:49:31Z</time>
      </trkpt>
      <trkpt lat="42.3272700" lon="1.8660010">
        <ele>1629.4</ele>
        <time>2015-08-12T10:49:32Z</time>
      </trkpt>
      <trkpt lat="42.3273140" lon="1.8660080">
        <ele>1627.9</ele>
        <time>2015-08-12T10:49:33Z</time>
      </trkpt>
      <trkpt lat="42.3273570" lon="1.8660150">
        <ele>1626.5</ele>
        <time>2015-08-12T10:49:34Z</time>
      </trkpt>
      <trkpt lat="42.3274000" lon="1.8660390">
        <ele>1624.6</ele>
        <time>2015-08-12T10:49:35Z</time>
      </trkpt>
      <trkpt lat="42.3274450" lon="1.8660350">
        <ele>1623.5</ele>
        <time>2015-08-12T10:49:36Z</time>
      </trkpt>
      <trkpt lat="42.3274830" lon="1.8660400">
        <ele>1622.4</ele>
        <time>2015-08-12T10:49:37Z</time>
      </trkpt>
      <trkpt lat="42.3275240" lon="1.8660580">
        <ele>1620.8</ele>
        <time>2015-08-12T10:49:39Z</time>
      </trkpt>
      <trkpt lat="42.3275820" lon="1.8660650">
        <ele>1619.1</ele>
        <time>2015-08-12T10:49:40Z</time>
      </trkpt>
      <trkpt lat="42.3276130" lon="1.8660680">
        <ele>1618.2</ele>
        <time>2015-08-12T10:49:41Z</time>
      </trkpt>
      <trkpt lat="42.3276360" lon="1.8660140">
        <ele>1619.1</ele>
        <time>2015-08-12T10:49:42Z</time>
      </trkpt>
      <trkpt lat="42.3276710" lon="1.8660760">
        <ele>1616.5</ele>
        <time>2015-08-12T10:49:44Z</time>
      </trkpt>
      <trkpt lat="42.3276780" lon="1.8660260">
        <ele>1617.6</ele>
        <time>2015-08-12T10:49:46Z</time>
      </trkpt>
      <trkpt lat="42.3277070" lon="1.8660100">
        <ele>1617.3</ele>
        <time>2015-08-12T10:49:51Z</time>
      </trkpt>
      <trkpt lat="42.3277480" lon="1.8660280">
        <ele>1615.7</ele>
        <time>2015-08-12T10:49:53Z</time>
      </trkpt>
      <trkpt lat="42.3277820" lon="1.8660490">
        <ele>1614.3</ele>
        <time>2015-08-12T10:49:54Z</time>
      </trkpt>
      <trkpt lat="42.3278070" lon="1.8660740">
        <ele>1613.1</ele>
        <time>2015-08-12T10:49:55Z</time>
      </trkpt>
      <trkpt lat="42.3278300" lon="1.8660960">
        <ele>1612.1</ele>
        <time>2015-08-12T10:49:56Z</time>
      </trkpt>
      <trkpt lat="42.3278590" lon="1.8661270">
        <ele>1610.7</ele>
        <time>2015-08-12T10:49:59Z</time>
      </trkpt>
      <trkpt lat="42.3278810" lon="1.8661040">
        <ele>1610.7</ele>
        <time>2015-08-12T10:50:02Z</time>
      </trkpt>
      <trkpt lat="42.3278390" lon="1.8660640">
        <ele>1612.6</ele>
        <time>2015-08-12T10:50:05Z</time>
      </trkpt>
      <trkpt lat="42.3278720" lon="1.8660550">
        <ele>1611.9</ele>
        <time>2015-08-12T10:50:06Z</time>
      </trkpt>
      <trkpt lat="42.3279270" lon="1.8660580">
        <ele>1610.4</ele>
        <time>2015-08-12T10:50:08Z</time>
      </trkpt>
      <trkpt lat="42.3279540" lon="1.8660610">
        <ele>1609.6</ele>
        <time>2015-08-12T10:50:09Z</time>
      </trkpt>
      <trkpt lat="42.3279950" lon="1.8660630">
        <ele>1608.4</ele>
        <time>2015-08-12T10:50:11Z</time>
      </trkpt>
      <trkpt lat="42.3279800" lon="1.8660220">
        <ele>1609.5</ele>
        <time>2015-08-12T10:50:14Z</time>
      </trkpt>
      <trkpt lat="42.3279440" lon="1.8660280">
        <ele>1610.5</ele>
        <time>2015-08-12T10:50:18Z</time>
      </trkpt>
      <trkpt lat="42.3279170" lon="1.8660080">
        <ele>1611.6</ele>
        <time>2015-08-12T10:50:20Z</time>
      </trkpt>
      <trkpt lat="42.3278620" lon="1.8659920">
        <ele>1613.5</ele>
        <time>2015-08-12T10:50:24Z</time>
      </trkpt>
      <trkpt lat="42.3278280" lon="1.8659980">
        <ele>1614.3</ele>
        <time>2015-08-12T10:50:25Z</time>
      </trkpt>
      <trkpt lat="42.3277990" lon="1.8659790">
        <ele>1615.5</ele>
        <time>2015-08-12T10:50:34Z</time>
      </trkpt>
      <trkpt lat="42.3277990" lon="1.8659080">
        <ele>1617.1</ele>
        <time>2015-08-12T10:51:53Z</time>
      </trkpt>
      <trkpt lat="42.3278210" lon="1.8658730">
        <ele>1617.2</ele>
        <time>2015-08-12T10:51:54Z</time>
      </trkpt>
      <trkpt lat="42.3278600" lon="1.8658530">
        <ele>1616.4</ele>
        <time>2015-08-12T10:51:56Z</time>
      </trkpt>
      <trkpt lat="42.3278790" lon="1.8658210">
        <ele>1616.4</ele>
        <time>2015-08-12T10:51:57Z</time>
      </trkpt>
      <trkpt lat="42.3279110" lon="1.8658180">
        <ele>1615.5</ele>
        <time>2015-08-12T10:51:58Z</time>
      </trkpt>
      <trkpt lat="42.3279490" lon="1.8658270">
        <ele>1614.0</ele>
        <time>2015-08-12T10:51:59Z</time>
      </trkpt>
      <trkpt lat="42.3279800" lon="1.8658230">
        <ele>1613.1</ele>
        <time>2015-08-12T10:52:02Z</time>
      </trkpt>
      <trkpt lat="42.3280140" lon="1.8658330">
        <ele>1611.7</ele>
        <time>2015-08-12T10:52:04Z</time>
      </trkpt>
      <trkpt lat="42.3280510" lon="1.8658480">
        <ele>1610.3</ele>
        <time>2015-08-12T10:52:05Z</time>
      </trkpt>
      <trkpt lat="42.3280980" lon="1.8658190">
        <ele>1609.1</ele>
        <time>2015-08-12T10:52:06Z</time>
      </trkpt>
      <trkpt lat="42.3281540" lon="1.8657670">
        <ele>1607.9</ele>
        <time>2015-08-12T10:52:07Z</time>
      </trkpt>
      <trkpt lat="42.3281840" lon="1.8657500">
        <ele>1607.1</ele>
        <time>2015-08-12T10:52:08Z</time>
      </trkpt>
      <trkpt lat="42.3282180" lon="1.8657200">
        <ele>1606.3</ele>
        <time>2015-08-12T10:52:09Z</time>
      </trkpt>
      <trkpt lat="42.3282610" lon="1.8657270">
        <ele>1604.6</ele>
        <time>2015-08-12T10:52:10Z</time>
      </trkpt>
      <trkpt lat="42.3282910" lon="1.8657120">
        <ele>1603.7</ele>
        <time>2015-08-12T10:52:11Z</time>
      </trkpt>
      <trkpt lat="42.3283440" lon="1.8655880">
        <ele>1602.9</ele>
        <time>2015-08-12T10:52:12Z</time>
      </trkpt>
      <trkpt lat="42.3283740" lon="1.8655480">
        <ele>1602.1</ele>
        <time>2015-08-12T10:52:13Z</time>
      </trkpt>
      <trkpt lat="42.3284110" lon="1.8655150">
        <ele>1600.9</ele>
        <time>2015-08-12T10:52:14Z</time>
      </trkpt>
      <trkpt lat="42.3284900" lon="1.8655440">
        <ele>1597.5</ele>
        <time>2015-08-12T10:52:15Z</time>
      </trkpt>
      <trkpt lat="42.3285350" lon="1.8655270">
        <ele>1595.7</ele>
        <time>2015-08-12T10:52:16Z</time>
      </trkpt>
      <trkpt lat="42.3285920" lon="1.8654920">
        <ele>1593.6</ele>
        <time>2015-08-12T10:52:17Z</time>
      </trkpt>
      <trkpt lat="42.3286690" lon="1.8654680">
        <ele>1590.4</ele>
        <time>2015-08-12T10:52:18Z</time>
      </trkpt>
      <trkpt lat="42.3286950" lon="1.8654020">
        <ele>1589.9</ele>
        <time>2015-08-12T10:52:20Z</time>
      </trkpt>
      <trkpt lat="42.3287490" lon="1.8653770">
        <ele>1588.5</ele>
        <time>2015-08-12T10:52:22Z</time>
      </trkpt>
      <trkpt lat="42.3288130" lon="1.8653580">
        <ele>1587.5</ele>
        <time>2015-08-12T10:52:24Z</time>
      </trkpt>
      <trkpt lat="42.3288640" lon="1.8653580">
        <ele>1586.2</ele>
        <time>2015-08-12T10:52:26Z</time>
      </trkpt>
      <trkpt lat="42.3288990" lon="1.8653470">
        <ele>1585.6</ele>
        <time>2015-08-12T10:52:27Z</time>
      </trkpt>
      <trkpt lat="42.3289420" lon="1.8653260">
        <ele>1585.3</ele>
        <time>2015-08-12T10:52:29Z</time>
      </trkpt>
      <trkpt lat="42.3289730" lon="1.8653280">
        <ele>1584.4</ele>
        <time>2015-08-12T10:52:30Z</time>
      </trkpt>
      <trkpt lat="42.3290160" lon="1.8653140">
        <ele>1583.7</ele>
        <time>2015-08-12T10:52:31Z</time>
      </trkpt>
      <trkpt lat="42.3290460" lon="1.8653070">
        <ele>1583.2</ele>
        <time>2015-08-12T10:52:32Z</time>
      </trkpt>
      <trkpt lat="42.3290790" lon="1.8653240">
        <ele>1581.7</ele>
        <time>2015-08-12T10:52:33Z</time>
      </trkpt>
      <trkpt lat="42.3291290" lon="1.8652740">
        <ele>1582.0</ele>
        <time>2015-08-12T10:52:34Z</time>
      </trkpt>
      <trkpt lat="42.3291590" lon="1.8652340">
        <ele>1582.5</ele>
        <time>2015-08-12T10:52:35Z</time>
      </trkpt>
      <trkpt lat="42.3291890" lon="1.8652240">
        <ele>1582.0</ele>
        <time>2015-08-12T10:52:36Z</time>
      </trkpt>
      <trkpt lat="42.3292310" lon="1.8651760">
        <ele>1582.4</ele>
        <time>2015-08-12T10:52:38Z</time>
      </trkpt>
      <trkpt lat="42.3292910" lon="1.8651390">
        <ele>1581.8</ele>
        <time>2015-08-12T10:52:40Z</time>
      </trkpt>
      <trkpt lat="42.3293380" lon="1.8651280">
        <ele>1580.9</ele>
        <time>2015-08-12T10:52:41Z</time>
      </trkpt>
      <trkpt lat="42.3293770" lon="1.8651100">
        <ele>1580.3</ele>
        <time>2015-08-12T10:52:42Z</time>
      </trkpt>
      <trkpt lat="42.3294060" lon="1.8650960">
        <ele>1579.9</ele>
        <time>2015-08-12T10:52:43Z</time>
      </trkpt>
      <trkpt lat="42.3294470" lon="1.8650990">
        <ele>1578.6</ele>
        <time>2015-08-12T10:52:45Z</time>
      </trkpt>
      <trkpt lat="42.3294900" lon="1.8650770">
        <ele>1578.0</ele>
        <time>2015-08-12T10:52:47Z</time>
      </trkpt>
      <trkpt lat="42.3295210" lon="1.8650280">
        <ele>1578.5</ele>
        <time>2015-08-12T10:52:48Z</time>
      </trkpt>
      <trkpt lat="42.3295650" lon="1.8650230">
        <ele>1577.4</ele>
        <time>2015-08-12T10:52:49Z</time>
      </trkpt>
      <trkpt lat="42.3295920" lon="1.8650070">
        <ele>1577.1</ele>
        <time>2015-08-12T10:52:50Z</time>
      </trkpt>
      <trkpt lat="42.3295530" lon="1.8649380">
        <ele>1580.1</ele>
        <time>2015-08-12T10:52:51Z</time>
      </trkpt>
      <trkpt lat="42.3295980" lon="1.8648710">
        <ele>1580.7</ele>
        <time>2015-08-12T10:52:52Z</time>
      </trkpt>
      <trkpt lat="42.3296140" lon="1.8648180">
        <ele>1581.7</ele>
        <time>2015-08-12T10:52:53Z</time>
      </trkpt>
      <trkpt lat="42.3296400" lon="1.8647910">
        <ele>1581.8</ele>
        <time>2015-08-12T10:52:54Z</time>
      </trkpt>
      <trkpt lat="42.3297010" lon="1.8647300">
        <ele>1581.7</ele>
        <time>2015-08-12T10:52:55Z</time>
      </trkpt>
      <trkpt lat="42.3297380" lon="1.8646760">
        <ele>1582.1</ele>
        <time>2015-08-12T10:52:56Z</time>
      </trkpt>
      <trkpt lat="42.3298010" lon="1.8646220">
        <ele>1581.5</ele>
        <time>2015-08-12T10:52:57Z</time>
      </trkpt>
      <trkpt lat="42.3298550" lon="1.8645890">
        <ele>1580.7</ele>
        <time>2015-08-12T10:52:58Z</time>
      </trkpt>
      <trkpt lat="42.3298920" lon="1.8645410">
        <ele>1581.5</ele>
        <time>2015-08-12T10:52:59Z</time>
      </trkpt>
      <trkpt lat="42.3299370" lon="1.8645170">
        <ele>1581.1</ele>
        <time>2015-08-12T10:53:00Z</time>
      </trkpt>
      <trkpt lat="42.3299730" lon="1.8644720">
        <ele>1581.8</ele>
        <time>2015-08-12T10:53:01Z</time>
      </trkpt>
      <trkpt lat="42.3300040" lon="1.8644510">
        <ele>1581.8</ele>
        <time>2015-08-12T10:53:02Z</time>
      </trkpt>
      <trkpt lat="42.3300370" lon="1.8644280">
        <ele>1581.7</ele>
        <time>2015-08-12T10:53:03Z</time>
      </trkpt>
      <trkpt lat="42.3300550" lon="1.8644000">
        <ele>1582.4</ele>
        <time>2015-08-12T10:53:04Z</time>
      </trkpt>
      <trkpt lat="42.3300790" lon="1.8643670">
        <ele>1583.0</ele>
        <time>2015-08-12T10:53:05Z</time>
      </trkpt>
      <trkpt lat="42.3300950" lon="1.8643370">
        <ele>1583.8</ele>
        <time>2015-08-12T10:53:06Z</time>
      </trkpt>
      <trkpt lat="42.3301130" lon="1.8642930">
        <ele>1585.1</ele>
        <time>2015-08-12T10:53:07Z</time>
      </trkpt>
      <trkpt lat="42.3301350" lon="1.8642540">
        <ele>1586.0</ele>
        <time>2015-08-12T10:53:08Z</time>
      </trkpt>
      <trkpt lat="42.3301490" lon="1.8642190">
        <ele>1587.1</ele>
        <time>2015-08-12T10:53:09Z</time>
      </trkpt>
      <trkpt lat="42.3301630" lon="1.8641470">
        <ele>1589.6</ele>
        <time>2015-08-12T10:53:11Z</time>
      </trkpt>
      <trkpt lat="42.3301960" lon="1.8640910">
        <ele>1591.0</ele>
        <time>2015-08-12T10:53:13Z</time>
      </trkpt>
      <trkpt lat="42.3302260" lon="1.8640610">
        <ele>1591.4</ele>
        <time>2015-08-12T10:53:14Z</time>
      </trkpt>
      <trkpt lat="42.3302530" lon="1.8640320">
        <ele>1591.8</ele>
        <time>2015-08-12T10:53:15Z</time>
      </trkpt>
      <trkpt lat="42.3302740" lon="1.8640040">
        <ele>1592.4</ele>
        <time>2015-08-12T10:53:16Z</time>
      </trkpt>
      <trkpt lat="42.3302970" lon="1.8639810">
        <ele>1592.7</ele>
        <time>2015-08-12T10:53:17Z</time>
      </trkpt>
      <trkpt lat="42.3303400" lon="1.8639480">
        <ele>1592.8</ele>
        <time>2015-08-12T10:53:19Z</time>
      </trkpt>
      <trkpt lat="42.3303690" lon="1.8639290">
        <ele>1592.8</ele>
        <time>2015-08-12T10:53:20Z</time>
      </trkpt>
      <trkpt lat="42.3303950" lon="1.8639150">
        <ele>1592.7</ele>
        <time>2015-08-12T10:53:21Z</time>
      </trkpt>
      <trkpt lat="42.3304390" lon="1.8638900">
        <ele>1592.3</ele>
        <time>2015-08-12T10:53:23Z</time>
      </trkpt>
      <trkpt lat="42.3304690" lon="1.8638790">
        <ele>1591.6</ele>
        <time>2015-08-12T10:53:24Z</time>
      </trkpt>
      <trkpt lat="42.3305090" lon="1.8638640">
        <ele>1590.7</ele>
        <time>2015-08-12T10:53:25Z</time>
      </trkpt>
      <trkpt lat="42.3305400" lon="1.8638390">
        <ele>1590.5</ele>
        <time>2015-08-12T10:53:27Z</time>
      </trkpt>
      <trkpt lat="42.3305750" lon="1.8638330">
        <ele>1589.4</ele>
        <time>2015-08-12T10:53:29Z</time>
      </trkpt>
      <trkpt lat="42.3306240" lon="1.8638360">
        <ele>1587.4</ele>
        <time>2015-08-12T10:53:31Z</time>
      </trkpt>
      <trkpt lat="42.3306540" lon="1.8638390">
        <ele>1586.1</ele>
        <time>2015-08-12T10:53:32Z</time>
      </trkpt>
      <trkpt lat="42.3306790" lon="1.8638110">
        <ele>1586.2</ele>
        <time>2015-08-12T10:53:33Z</time>
      </trkpt>
      <trkpt lat="42.3307180" lon="1.8638180">
        <ele>1584.4</ele>
        <time>2015-08-12T10:53:34Z</time>
      </trkpt>
      <trkpt lat="42.3307540" lon="1.8637730">
        <ele>1584.8</ele>
        <time>2015-08-12T10:53:36Z</time>
      </trkpt>
      <trkpt lat="42.3307790" lon="1.8637570">
        <ele>1584.4</ele>
        <time>2015-08-12T10:53:37Z</time>
      </trkpt>
      <trkpt lat="42.3308050" lon="1.8637410">
        <ele>1584.0</ele>
        <time>2015-08-12T10:53:38Z</time>
      </trkpt>
      <trkpt lat="42.3308480" lon="1.8637460">
        <ele>1582.1</ele>
        <time>2015-08-12T10:53:39Z</time>
      </trkpt>
      <trkpt lat="42.3308760" lon="1.8637430">
        <ele>1581.1</ele>
        <time>2015-08-12T10:53:41Z</time>
      </trkpt>
      <trkpt lat="42.3309180" lon="1.8637140">
        <ele>1580.6</ele>
        <time>2015-08-12T10:53:43Z</time>
      </trkpt>
      <trkpt lat="42.3309390" lon="1.8636880">
        <ele>1580.8</ele>
        <time>2015-08-12T10:53:44Z</time>
      </trkpt>
      <trkpt lat="42.3309720" lon="1.8636640">
        <ele>1580.4</ele>
        <time>2015-08-12T10:53:45Z</time>
      </trkpt>
      <trkpt lat="42.3309990" lon="1.8636430">
        <ele>1580.2</ele>
        <time>2015-08-12T10:53:46Z</time>
      </trkpt>
      <trkpt lat="42.3310360" lon="1.8636020">
        <ele>1580.2</ele>
        <time>2015-08-12T10:53:48Z</time>
      </trkpt>
      <trkpt lat="42.3310650" lon="1.8635850">
        <ele>1579.6</ele>
        <time>2015-08-12T10:53:49Z</time>
      </trkpt>
      <trkpt lat="42.3310860" lon="1.8635580">
        <ele>1579.8</ele>
        <time>2015-08-12T10:53:51Z</time>
      </trkpt>
      <trkpt lat="42.3311230" lon="1.8635630">
        <ele>1578.0</ele>
        <time>2015-08-12T10:53:56Z</time>
      </trkpt>
      <trkpt lat="42.3310910" lon="1.8635410">
        <ele>1580.2</ele>
        <time>2015-08-12T10:54:39Z</time>
      </trkpt>
      <trkpt lat="42.3310790" lon="1.8635820">
        <ele>1579.2</ele>
        <time>2015-08-12T10:55:19Z</time>
      </trkpt>
      <trkpt lat="42.3310720" lon="1.8636370">
        <ele>1577.4</ele>
        <time>2015-08-12T10:55:21Z</time>
      </trkpt>
      <trkpt lat="42.3310550" lon="1.8636680">
        <ele>1576.9</ele>
        <time>2015-08-12T10:55:23Z</time>
      </trkpt>
      <trkpt lat="42.3310310" lon="1.8637040">
        <ele>1576.5</ele>
        <time>2015-08-12T10:55:24Z</time>
      </trkpt>
      <trkpt lat="42.3310050" lon="1.8637400">
        <ele>1576.1</ele>
        <time>2015-08-12T10:55:25Z</time>
      </trkpt>
      <trkpt lat="42.3309890" lon="1.8637890">
        <ele>1575.0</ele>
        <time>2015-08-12T10:55:27Z</time>
      </trkpt>
      <trkpt lat="42.3309060" lon="1.8637660">
        <ele>1579.0</ele>
        <time>2015-08-12T10:55:28Z</time>
      </trkpt>
      <trkpt lat="42.3308730" lon="1.8637770">
        <ele>1579.9</ele>
        <time>2015-08-12T10:55:29Z</time>
      </trkpt>
      <trkpt lat="42.3308460" lon="1.8637840">
        <ele>1580.7</ele>
        <time>2015-08-12T10:55:30Z</time>
      </trkpt>
      <trkpt lat="42.3307860" lon="1.8637920">
        <ele>1582.8</ele>
        <time>2015-08-12T10:55:32Z</time>
      </trkpt>
      <trkpt lat="42.3307580" lon="1.8637920">
        <ele>1583.9</ele>
        <time>2015-08-12T10:55:33Z</time>
      </trkpt>
      <trkpt lat="42.3307090" lon="1.8638220">
        <ele>1584.6</ele>
        <time>2015-08-12T10:55:35Z</time>
      </trkpt>
      <trkpt lat="42.3306810" lon="1.8638350">
        <ele>1585.2</ele>
        <time>2015-08-12T10:55:36Z</time>
      </trkpt>
      <trkpt lat="42.3306470" lon="1.8638570">
        <ele>1585.7</ele>
        <time>2015-08-12T10:55:37Z</time>
      </trkpt>
      <trkpt lat="42.3306140" lon="1.8638650">
        <ele>1586.6</ele>
        <time>2015-08-12T10:55:38Z</time>
      </trkpt>
      <trkpt lat="42.3305840" lon="1.8638670">
        <ele>1587.7</ele>
        <time>2015-08-12T10:55:39Z</time>
      </trkpt>
      <trkpt lat="42.3305450" lon="1.8638810">
        <ele>1588.6</ele>
        <time>2015-08-12T10:55:41Z</time>
      </trkpt>
      <trkpt lat="42.3305070" lon="1.8638780">
        <ele>1590.2</ele>
        <time>2015-08-12T10:55:43Z</time>
      </trkpt>
      <trkpt lat="42.3304720" lon="1.8639380">
        <ele>1589.0</ele>
        <time>2015-08-12T10:55:45Z</time>
      </trkpt>
      <trkpt lat="42.3304430" lon="1.8639640">
        <ele>1589.0</ele>
        <time>2015-08-12T10:55:46Z</time>
      </trkpt>
      <trkpt lat="42.3304000" lon="1.8639910">
        <ele>1589.3</ele>
        <time>2015-08-12T10:55:47Z</time>
      </trkpt>
      <trkpt lat="42.3303340" lon="1.8640760">
        <ele>1587.7</ele>
        <time>2015-08-12T10:55:48Z</time>
      </trkpt>
      <trkpt lat="42.3302970" lon="1.8641350">
        <ele>1586.3</ele>
        <time>2015-08-12T10:55:49Z</time>
      </trkpt>
      <trkpt lat="42.3302730" lon="1.8641580">
        <ele>1586.0</ele>
        <time>2015-08-12T10:55:50Z</time>
      </trkpt>
      <trkpt lat="42.3302250" lon="1.8641980">
        <ele>1585.7</ele>
        <time>2015-08-12T10:55:52Z</time>
      </trkpt>
      <trkpt lat="42.3302010" lon="1.8642550">
        <ele>1584.1</ele>
        <time>2015-08-12T10:55:53Z</time>
      </trkpt>
      <trkpt lat="42.3301580" lon="1.8642700">
        <ele>1584.7</ele>
        <time>2015-08-12T10:55:54Z</time>
      </trkpt>
      <trkpt lat="42.3301320" lon="1.8642490">
        <ele>1586.3</ele>
        <time>2015-08-12T10:55:55Z</time>
      </trkpt>
      <trkpt lat="42.3301410" lon="1.8643090">
        <ele>1583.6</ele>
        <time>2015-08-12T10:55:56Z</time>
      </trkpt>
      <trkpt lat="42.3300900" lon="1.8643420">
        <ele>1583.7</ele>
        <time>2015-08-12T10:55:57Z</time>
      </trkpt>
      <trkpt lat="42.3300710" lon="1.8643770">
        <ele>1582.8</ele>
        <time>2015-08-12T10:55:58Z</time>
      </trkpt>
      <trkpt lat="42.3300450" lon="1.8644030">
        <ele>1582.5</ele>
        <time>2015-08-12T10:55:59Z</time>
      </trkpt>
      <trkpt lat="42.3300260" lon="1.8644620">
        <ele>1580.7</ele>
        <time>2015-08-12T10:56:00Z</time>
      </trkpt>
      <trkpt lat="42.3300000" lon="1.8645020">
        <ele>1579.8</ele>
        <time>2015-08-12T10:56:01Z</time>
      </trkpt>
      <trkpt lat="42.3299740" lon="1.8645450">
        <ele>1578.8</ele>
        <time>2015-08-12T10:56:02Z</time>
      </trkpt>
      <trkpt lat="42.3299440" lon="1.8645650">
        <ele>1578.9</ele>
        <time>2015-08-12T10:56:03Z</time>
      </trkpt>
      <trkpt lat="42.3299270" lon="1.8645980">
        <ele>1578.4</ele>
        <time>2015-08-12T10:56:04Z</time>
      </trkpt>
      <trkpt lat="42.3298980" lon="1.8646140">
        <ele>1578.9</ele>
        <time>2015-08-12T10:56:05Z</time>
      </trkpt>
      <trkpt lat="42.3298730" lon="1.8646590">
        <ele>1578.6</ele>
        <time>2015-08-12T10:56:06Z</time>
      </trkpt>
      <trkpt lat="42.3298430" lon="1.8647130">
        <ele>1578.2</ele>
        <time>2015-08-12T10:56:07Z</time>
      </trkpt>
      <trkpt lat="42.3298160" lon="1.8647490">
        <ele>1578.1</ele>
        <time>2015-08-12T10:56:08Z</time>
      </trkpt>
      <trkpt lat="42.3297920" lon="1.8647830">
        <ele>1577.9</ele>
        <time>2015-08-12T10:56:09Z</time>
      </trkpt>
      <trkpt lat="42.3297760" lon="1.8648280">
        <ele>1577.3</ele>
        <time>2015-08-12T10:56:10Z</time>
      </trkpt>
      <trkpt lat="42.3297520" lon="1.8648630">
        <ele>1577.0</ele>
        <time>2015-08-12T10:56:12Z</time>
      </trkpt>
      <trkpt lat="42.3297340" lon="1.8649040">
        <ele>1576.5</ele>
        <time>2015-08-12T10:56:14Z</time>
      </trkpt>
      <trkpt lat="42.3297080" lon="1.8649420">
        <ele>1576.1</ele>
        <time>2015-08-12T10:56:16Z</time>
      </trkpt>
      <trkpt lat="42.3296710" lon="1.8649720">
        <ele>1576.2</ele>
        <time>2015-08-12T10:56:19Z</time>
      </trkpt>
      <trkpt lat="42.3296390" lon="1.8649940">
        <ele>1576.4</ele>
        <time>2015-08-12T10:56:21Z</time>
      </trkpt>
      <trkpt lat="42.3296090" lon="1.8650290">
        <ele>1576.1</ele>
        <time>2015-08-12T10:56:23Z</time>
      </trkpt>
      <trkpt lat="42.3295860" lon="1.8650500">
        <ele>1576.1</ele>
        <time>2015-08-12T10:56:25Z</time>
      </trkpt>
      <trkpt lat="42.3296250" lon="1.8650540">
        <ele>1575.1</ele>
        <time>2015-08-12T10:56:34Z</time>
      </trkpt>
      <trkpt lat="42.3296190" lon="1.8649690">
        <ele>1577.5</ele>
        <time>2015-08-12T10:56:39Z</time>
      </trkpt>
      <trkpt lat="42.3296430" lon="1.8649440">
        <ele>1577.6</ele>
        <time>2015-08-12T10:56:44Z</time>
      </trkpt>
      <trkpt lat="42.3296440" lon="1.8649810">
        <ele>1576.6</ele>
        <time>2015-08-12T10:56:55Z</time>
      </trkpt>
      <trkpt lat="42.3296210" lon="1.8649540">
        <ele>1577.9</ele>
        <time>2015-08-12T10:58:07Z</time>
      </trkpt>
      <trkpt lat="42.3296500" lon="1.8650190">
        <ele>1575.5</ele>
        <time>2015-08-12T11:09:30Z</time>
      </trkpt>
      <trkpt lat="42.3296890" lon="1.8650550">
        <ele>1573.7</ele>
        <time>2015-08-12T11:09:32Z</time>
      </trkpt>
      <trkpt lat="42.3297070" lon="1.8650070">
        <ele>1574.5</ele>
        <time>2015-08-12T11:09:34Z</time>
      </trkpt>
      <trkpt lat="42.3297060" lon="1.8649590">
        <ele>1575.7</ele>
        <time>2015-08-12T11:09:36Z</time>
      </trkpt>
      <trkpt lat="42.3297390" lon="1.8649340">
        <ele>1575.6</ele>
        <time>2015-08-12T11:09:37Z</time>
      </trkpt>
      <trkpt lat="42.3297920" lon="1.8648670">
        <ele>1575.9</ele>
        <time>2015-08-12T11:09:39Z</time>
      </trkpt>
      <trkpt lat="42.3298250" lon="1.8648510">
        <ele>1575.5</ele>
        <time>2015-08-12T11:09:41Z</time>
      </trkpt>
      <trkpt lat="42.3298540" lon="1.8648540">
        <ele>1574.7</ele>
        <time>2015-08-12T11:09:46Z</time>
      </trkpt>
      <trkpt lat="42.3298900" lon="1.8648690">
        <ele>1573.4</ele>
        <time>2015-08-12T11:09:48Z</time>
      </trkpt>
      <trkpt lat="42.3299210" lon="1.8648820">
        <ele>1572.4</ele>
        <time>2015-08-12T11:09:51Z</time>
      </trkpt>
      <trkpt lat="42.3299570" lon="1.8648740">
        <ele>1571.6</ele>
        <time>2015-08-12T11:09:54Z</time>
      </trkpt>
      <trkpt lat="42.3299860" lon="1.8648600">
        <ele>1571.2</ele>
        <time>2015-08-12T11:09:55Z</time>
      </trkpt>
      <trkpt lat="42.3300150" lon="1.8648860">
        <ele>1570.0</ele>
        <time>2015-08-12T11:09:57Z</time>
      </trkpt>
      <trkpt lat="42.3300530" lon="1.8648790">
        <ele>1569.1</ele>
        <time>2015-08-12T11:09:58Z</time>
      </trkpt>
      <trkpt lat="42.3301340" lon="1.8648220">
        <ele>1568.2</ele>
        <time>2015-08-12T11:10:00Z</time>
      </trkpt>
      <trkpt lat="42.3301710" lon="1.8648070">
        <ele>1567.5</ele>
        <time>2015-08-12T11:10:01Z</time>
      </trkpt>
      <trkpt lat="42.3302100" lon="1.8647900">
        <ele>1566.7</ele>
        <time>2015-08-12T11:10:02Z</time>
      </trkpt>
      <trkpt lat="42.3302490" lon="1.8647830">
        <ele>1565.8</ele>
        <time>2015-08-12T11:10:03Z</time>
      </trkpt>
      <trkpt lat="42.3302760" lon="1.8647720">
        <ele>1565.3</ele>
        <time>2015-08-12T11:10:04Z</time>
      </trkpt>
      <trkpt lat="42.3303090" lon="1.8647650">
        <ele>1564.5</ele>
        <time>2015-08-12T11:10:05Z</time>
      </trkpt>
      <trkpt lat="42.3303370" lon="1.8647160">
        <ele>1564.5</ele>
        <time>2015-08-12T11:10:06Z</time>
      </trkpt>
      <trkpt lat="42.3303720" lon="1.8646940">
        <ele>1563.8</ele>
        <time>2015-08-12T11:10:07Z</time>
      </trkpt>
      <trkpt lat="42.3304120" lon="1.8646640">
        <ele>1563.1</ele>
        <time>2015-08-12T11:10:08Z</time>
      </trkpt>
      <trkpt lat="42.3304470" lon="1.8646380">
        <ele>1562.4</ele>
        <time>2015-08-12T11:10:09Z</time>
      </trkpt>
      <trkpt lat="42.3304940" lon="1.8646220">
        <ele>1561.3</ele>
        <time>2015-08-12T11:10:10Z</time>
      </trkpt>
      <trkpt lat="42.3305390" lon="1.8646440">
        <ele>1559.8</ele>
        <time>2015-08-12T11:10:11Z</time>
      </trkpt>
      <trkpt lat="42.3305750" lon="1.8646350">
        <ele>1558.8</ele>
        <time>2015-08-12T11:10:12Z</time>
      </trkpt>
      <trkpt lat="42.3306040" lon="1.8646220">
        <ele>1558.1</ele>
        <time>2015-08-12T11:10:13Z</time>
      </trkpt>
      <trkpt lat="42.3306410" lon="1.8646330">
        <ele>1557.0</ele>
        <time>2015-08-12T11:10:14Z</time>
      </trkpt>
      <trkpt lat="42.3306890" lon="1.8646590">
        <ele>1555.5</ele>
        <time>2015-08-12T11:10:15Z</time>
      </trkpt>
      <trkpt lat="42.3307470" lon="1.8646580">
        <ele>1553.9</ele>
        <time>2015-08-12T11:10:17Z</time>
      </trkpt>
      <trkpt lat="42.3307760" lon="1.8646240">
        <ele>1553.1</ele>
        <time>2015-08-12T11:10:18Z</time>
      </trkpt>
      <trkpt lat="42.3307960" lon="1.8645910">
        <ele>1552.6</ele>
        <time>2015-08-12T11:10:19Z</time>
      </trkpt>
      <trkpt lat="42.3308300" lon="1.8645660">
        <ele>1552.2</ele>
        <time>2015-08-12T11:10:20Z</time>
      </trkpt>
      <trkpt lat="42.3308560" lon="1.8645500">
        <ele>1552.1</ele>
        <time>2015-08-12T11:10:21Z</time>
      </trkpt>
      <trkpt lat="42.3309200" lon="1.8645370">
        <ele>1550.6</ele>
        <time>2015-08-12T11:10:22Z</time>
      </trkpt>
      <trkpt lat="42.3309450" lon="1.8645240">
        <ele>1550.3</ele>
        <time>2015-08-12T11:10:23Z</time>
      </trkpt>
      <trkpt lat="42.3310190" lon="1.8645430">
        <ele>1547.3</ele>
        <time>2015-08-12T11:10:25Z</time>
      </trkpt>
      <trkpt lat="42.3310640" lon="1.8645100">
        <ele>1547.1</ele>
        <time>2015-08-12T11:10:27Z</time>
      </trkpt>
      <trkpt lat="42.3310910" lon="1.8645170">
        <ele>1546.0</ele>
        <time>2015-08-12T11:10:28Z</time>
      </trkpt>
      <trkpt lat="42.3311550" lon="1.8645010">
        <ele>1544.6</ele>
        <time>2015-08-12T11:10:31Z</time>
      </trkpt>
      <trkpt lat="42.3311970" lon="1.8644660">
        <ele>1544.5</ele>
        <time>2015-08-12T11:10:32Z</time>
      </trkpt>
      <trkpt lat="42.3312780" lon="1.8644930">
        <ele>1541.1</ele>
        <time>2015-08-12T11:10:34Z</time>
      </trkpt>
      <trkpt lat="42.3313240" lon="1.8645060">
        <ele>1539.4</ele>
        <time>2015-08-12T11:10:35Z</time>
      </trkpt>
      <trkpt lat="42.3313570" lon="1.8644790">
        <ele>1539.3</ele>
        <time>2015-08-12T11:10:39Z</time>
      </trkpt>
      <trkpt lat="42.3313950" lon="1.8644850">
        <ele>1538.0</ele>
        <time>2015-08-12T11:10:41Z</time>
      </trkpt>
      <trkpt lat="42.3314250" lon="1.8644900">
        <ele>1537.0</ele>
        <time>2015-08-12T11:10:42Z</time>
      </trkpt>
      <trkpt lat="42.3314580" lon="1.8644750">
        <ele>1536.5</ele>
        <time>2015-08-12T11:10:43Z</time>
      </trkpt>
      <trkpt lat="42.3315010" lon="1.8645010">
        <ele>1534.5</ele>
        <time>2015-08-12T11:10:44Z</time>
      </trkpt>
      <trkpt lat="42.3315580" lon="1.8644550">
        <ele>1534.1</ele>
        <time>2015-08-12T11:10:45Z</time>
      </trkpt>
      <trkpt lat="42.3316030" lon="1.8644650">
        <ele>1532.5</ele>
        <time>2015-08-12T11:10:46Z</time>
      </trkpt>
      <trkpt lat="42.3316470" lon="1.8644590">
        <ele>1531.3</ele>
        <time>2015-08-12T11:10:47Z</time>
      </trkpt>
      <trkpt lat="42.3317000" lon="1.8644220">
        <ele>1530.6</ele>
        <time>2015-08-12T11:10:48Z</time>
      </trkpt>
      <trkpt lat="42.3317310" lon="1.8644140">
        <ele>1529.8</ele>
        <time>2015-08-12T11:10:49Z</time>
      </trkpt>
      <trkpt lat="42.3317860" lon="1.8643520">
        <ele>1529.3</ele>
        <time>2015-08-12T11:10:50Z</time>
      </trkpt>
      <trkpt lat="42.3317450" lon="1.8642840">
        <ele>1532.0</ele>
        <time>2015-08-12T11:10:51Z</time>
      </trkpt>
      <trkpt lat="42.3317750" lon="1.8642470">
        <ele>1531.7</ele>
        <time>2015-08-12T11:10:53Z</time>
      </trkpt>
      <trkpt lat="42.3318500" lon="1.8642340">
        <ele>1529.3</ele>
        <time>2015-08-12T11:10:54Z</time>
      </trkpt>
      <trkpt lat="42.3318940" lon="1.8642050">
        <ele>1528.3</ele>
        <time>2015-08-12T11:10:55Z</time>
      </trkpt>
      <trkpt lat="42.3319750" lon="1.8641260">
        <ele>1526.6</ele>
        <time>2015-08-12T11:10:57Z</time>
      </trkpt>
      <trkpt lat="42.3320240" lon="1.8641400">
        <ele>1524.5</ele>
        <time>2015-08-12T11:10:58Z</time>
      </trkpt>
      <trkpt lat="42.3320870" lon="1.8641040">
        <ele>1522.7</ele>
        <time>2015-08-12T11:11:00Z</time>
      </trkpt>
      <trkpt lat="42.3321300" lon="1.8640640">
        <ele>1522.7</ele>
        <time>2015-08-12T11:11:01Z</time>
      </trkpt>
      <trkpt lat="42.3321870" lon="1.8640390">
        <ele>1522.2</ele>
        <time>2015-08-12T11:11:02Z</time>
      </trkpt>
      <trkpt lat="42.3322110" lon="1.8640200">
        <ele>1522.0</ele>
        <time>2015-08-12T11:11:03Z</time>
      </trkpt>
      <trkpt lat="42.3322010" lon="1.8640680">
        <ele>1521.8</ele>
        <time>2015-08-12T11:11:04Z</time>
      </trkpt>
      <trkpt lat="42.3322000" lon="1.8640270">
        <ele>1522.1</ele>
        <time>2015-08-12T11:11:06Z</time>
      </trkpt>
      <trkpt lat="42.3322090" lon="1.8639760">
        <ele>1522.3</ele>
        <time>2015-08-12T11:11:07Z</time>
      </trkpt>
      <trkpt lat="42.3322500" lon="1.8639800">
        <ele>1521.6</ele>
        <time>2015-08-12T11:11:09Z</time>
      </trkpt>
      <trkpt lat="42.3322760" lon="1.8639900">
        <ele>1521.2</ele>
        <time>2015-08-12T11:11:11Z</time>
      </trkpt>
      <trkpt lat="42.3323350" lon="1.8639660">
        <ele>1520.3</ele>
        <time>2015-08-12T11:11:13Z</time>
      </trkpt>
      <trkpt lat="42.3323680" lon="1.8639650">
        <ele>1519.8</ele>
        <time>2015-08-12T11:11:14Z</time>
      </trkpt>
      <trkpt lat="42.3324100" lon="1.8639170">
        <ele>1519.0</ele>
        <time>2015-08-12T11:11:15Z</time>
      </trkpt>
      <trkpt lat="42.3324510" lon="1.8639200">
        <ele>1518.3</ele>
        <time>2015-08-12T11:11:17Z</time>
      </trkpt>
      <trkpt lat="42.3324690" lon="1.8639480">
        <ele>1518.1</ele>
        <time>2015-08-12T11:11:18Z</time>
      </trkpt>
      <trkpt lat="42.3324980" lon="1.8638950">
        <ele>1517.3</ele>
        <time>2015-08-12T11:11:20Z</time>
      </trkpt>
      <trkpt lat="42.3325340" lon="1.8639050">
        <ele>1516.7</ele>
        <time>2015-08-12T11:11:23Z</time>
      </trkpt>
      <trkpt lat="42.3325580" lon="1.8639290">
        <ele>1516.4</ele>
        <time>2015-08-12T11:11:27Z</time>
      </trkpt>
      <trkpt lat="42.3325850" lon="1.8639430">
        <ele>1516.1</ele>
        <time>2015-08-12T11:11:30Z</time>
      </trkpt>
      <trkpt lat="42.3325480" lon="1.8639500">
        <ele>1516.8</ele>
        <time>2015-08-12T11:11:31Z</time>
      </trkpt>
      <trkpt lat="42.3325740" lon="1.8639660">
        <ele>1516.5</ele>
        <time>2015-08-12T11:11:32Z</time>
      </trkpt>
      <trkpt lat="42.3326170" lon="1.8638930">
        <ele>1515.0</ele>
        <time>2015-08-12T11:11:49Z</time>
      </trkpt>
      <trkpt lat="42.3326310" lon="1.8638480">
        <ele>1514.3</ele>
        <time>2015-08-12T11:11:52Z</time>
      </trkpt>
      <trkpt lat="42.3326360" lon="1.8638090">
        <ele>1513.7</ele>
        <time>2015-08-12T11:11:55Z</time>
      </trkpt>
      <trkpt lat="42.3326640" lon="1.8637770">
        <ele>1512.7</ele>
        <time>2015-08-12T11:11:57Z</time>
      </trkpt>
      <trkpt lat="42.3326800" lon="1.8637530">
        <ele>1512.0</ele>
        <time>2015-08-12T11:12:12Z</time>
      </trkpt>
      <trkpt lat="42.3326670" lon="1.8637150">
        <ele>1512.2</ele>
        <time>2015-08-12T11:12:35Z</time>
      </trkpt>
      <trkpt lat="42.3326550" lon="1.8636770">
        <ele>1512.4</ele>
        <time>2015-08-12T11:12:36Z</time>
      </trkpt>
      <trkpt lat="42.3326560" lon="1.8636390">
        <ele>1512.3</ele>
        <time>2015-08-12T11:12:39Z</time>
      </trkpt>
      <trkpt lat="42.3326840" lon="1.8636050">
        <ele>1511.4</ele>
        <time>2015-08-12T11:12:41Z</time>
      </trkpt>
      <trkpt lat="42.3327090" lon="1.8635590">
        <ele>1510.5</ele>
        <time>2015-08-12T11:12:44Z</time>
      </trkpt>
      <trkpt lat="42.3327190" lon="1.8635440">
        <ele>1510.1</ele>
        <time>2015-08-12T11:13:04Z</time>
      </trkpt>
      <trkpt lat="42.3327280" lon="1.8635290">
        <ele>1509.7</ele>
        <time>2015-08-12T11:13:05Z</time>
      </trkpt>
      <trkpt lat="42.3327910" lon="1.8635100">
        <ele>1507.6</ele>
        <time>2015-08-12T11:13:06Z</time>
      </trkpt>
      <trkpt lat="42.3328690" lon="1.8635890">
        <ele>1505.7</ele>
        <time>2015-08-12T11:13:09Z</time>
      </trkpt>
      <trkpt lat="42.3328610" lon="1.8635340">
        <ele>1505.5</ele>
        <time>2015-08-12T11:13:11Z</time>
      </trkpt>
      <trkpt lat="42.3329010" lon="1.8635180">
        <ele>1504.0</ele>
        <time>2015-08-12T11:13:14Z</time>
      </trkpt>
      <trkpt lat="42.3329330" lon="1.8635390">
        <ele>1504.0</ele>
        <time>2015-08-12T11:13:15Z</time>
      </trkpt>
      <trkpt lat="42.3329670" lon="1.8635100">
        <ele>1504.3</ele>
        <time>2015-08-12T11:13:17Z</time>
      </trkpt>
      <trkpt lat="42.3329830" lon="1.8634790">
        <ele>1504.2</ele>
        <time>2015-08-12T11:13:21Z</time>
      </trkpt>
      <trkpt lat="42.3330140" lon="1.8634790">
        <ele>1504.7</ele>
        <time>2015-08-12T11:13:23Z</time>
      </trkpt>
      <trkpt lat="42.3329890" lon="1.8634300">
        <ele>1503.6</ele>
        <time>2015-08-12T11:13:24Z</time>
      </trkpt>
      <trkpt lat="42.3329700" lon="1.8634000">
        <ele>1502.9</ele>
        <time>2015-08-12T11:13:25Z</time>
      </trkpt>
      <trkpt lat="42.3329960" lon="1.8633730">
        <ele>1502.9</ele>
        <time>2015-08-12T11:13:32Z</time>
      </trkpt>
      <trkpt lat="42.3330380" lon="1.8633540">
        <ele>1503.1</ele>
        <time>2015-08-12T11:13:34Z</time>
      </trkpt>
      <trkpt lat="42.3330600" lon="1.8633250">
        <ele>1502.9</ele>
        <time>2015-08-12T11:13:37Z</time>
      </trkpt>
      <trkpt lat="42.3330860" lon="1.8633070">
        <ele>1502.9</ele>
        <time>2015-08-12T11:13:39Z</time>
      </trkpt>
      <trkpt lat="42.3331190" lon="1.8632840">
        <ele>1502.8</ele>
        <time>2015-08-12T11:13:42Z</time>
      </trkpt>
      <trkpt lat="42.3331630" lon="1.8633080">
        <ele>1503.7</ele>
        <time>2015-08-12T11:13:44Z</time>
      </trkpt>
      <trkpt lat="42.3331900" lon="1.8633490">
        <ele>1504.8</ele>
        <time>2015-08-12T11:13:45Z</time>
      </trkpt>
      <trkpt lat="42.3331920" lon="1.8633100">
        <ele>1504.0</ele>
        <time>2015-08-12T11:13:46Z</time>
      </trkpt>
      <trkpt lat="42.3332280" lon="1.8633050">
        <ele>1504.2</ele>
        <time>2015-08-12T11:13:48Z</time>
      </trkpt>
      <trkpt lat="42.3332560" lon="1.8633200">
        <ele>1504.9</ele>
        <time>2015-08-12T11:13:49Z</time>
      </trkpt>
      <trkpt lat="42.3332930" lon="1.8633260">
        <ele>1505.4</ele>
        <time>2015-08-12T11:13:51Z</time>
      </trkpt>
      <trkpt lat="42.3333230" lon="1.8633510">
        <ele>1506.3</ele>
        <time>2015-08-12T11:13:53Z</time>
      </trkpt>
      <trkpt lat="42.3333560" lon="1.8633270">
        <ele>1506.1</ele>
        <time>2015-08-12T11:13:54Z</time>
      </trkpt>
      <trkpt lat="42.3333770" lon="1.8633000">
        <ele>1505.5</ele>
        <time>2015-08-12T11:13:56Z</time>
      </trkpt>
      <trkpt lat="42.3334060" lon="1.8633130">
        <ele>1506.2</ele>
        <time>2015-08-12T11:13:58Z</time>
      </trkpt>
      <trkpt lat="42.3334240" lon="1.8633400">
        <ele>1507.2</ele>
        <time>2015-08-12T11:14:02Z</time>
      </trkpt>
      <trkpt lat="42.3334490" lon="1.8633600">
        <ele>1508.1</ele>
        <time>2015-08-12T11:14:04Z</time>
      </trkpt>
      <trkpt lat="42.3334910" lon="1.8633750">
        <ele>1509.0</ele>
        <time>2015-08-12T11:14:08Z</time>
      </trkpt>
      <trkpt lat="42.3335430" lon="1.8633990">
        <ele>1510.5</ele>
        <time>2015-08-12T11:14:11Z</time>
      </trkpt>
      <trkpt lat="42.3335890" lon="1.8634060">
        <ele>1511.4</ele>
        <time>2015-08-12T11:14:16Z</time>
      </trkpt>
      <trkpt lat="42.3335610" lon="1.8634010">
        <ele>1510.8</ele>
        <time>2015-08-12T11:14:17Z</time>
      </trkpt>
      <trkpt lat="42.3335840" lon="1.8633720">
        <ele>1510.1</ele>
        <time>2015-08-12T11:14:18Z</time>
      </trkpt>
      <trkpt lat="42.3336310" lon="1.8633650">
        <ele>1510.4</ele>
        <time>2015-08-12T11:14:21Z</time>
      </trkpt>
      <trkpt lat="42.3336670" lon="1.8633530">
        <ele>1510.4</ele>
        <time>2015-08-12T11:14:23Z</time>
      </trkpt>
      <trkpt lat="42.3336990" lon="1.8633430">
        <ele>1510.3</ele>
        <time>2015-08-12T11:14:25Z</time>
      </trkpt>
      <trkpt lat="42.3337120" lon="1.8634120">
        <ele>1513.3</ele>
        <time>2015-08-12T11:14:57Z</time>
      </trkpt>
      <trkpt lat="42.3337510" lon="1.8633870">
        <ele>1512.8</ele>
        <time>2015-08-12T11:15:00Z</time>
      </trkpt>
      <trkpt lat="42.3337920" lon="1.8633580">
        <ele>1512.4</ele>
        <time>2015-08-12T11:15:02Z</time>
      </trkpt>
      <trkpt lat="42.3338260" lon="1.8633680">
        <ele>1513.5</ele>
        <time>2015-08-12T11:15:04Z</time>
      </trkpt>
      <trkpt lat="42.3338550" lon="1.8633410">
        <ele>1513.0</ele>
        <time>2015-08-12T11:15:07Z</time>
      </trkpt>
      <trkpt lat="42.3338220" lon="1.8633240">
        <ele>1511.6</ele>
        <time>2015-08-12T11:15:09Z</time>
      </trkpt>
      <trkpt lat="42.3338480" lon="1.8633760">
        <ele>1514.3</ele>
        <time>2015-08-12T11:15:10Z</time>
      </trkpt>
      <trkpt lat="42.3338820" lon="1.8633750">
        <ele>1514.9</ele>
        <time>2015-08-12T11:15:12Z</time>
      </trkpt>
      <trkpt lat="42.3339120" lon="1.8633840">
        <ele>1515.9</ele>
        <time>2015-08-12T11:15:14Z</time>
      </trkpt>
      <trkpt lat="42.3339490" lon="1.8633620">
        <ele>1515.8</ele>
        <time>2015-08-12T11:15:17Z</time>
      </trkpt>
      <trkpt lat="42.3339840" lon="1.8633590">
        <ele>1516.4</ele>
        <time>2015-08-12T11:15:19Z</time>
      </trkpt>
      <trkpt lat="42.3339780" lon="1.8633080">
        <ele>1514.1</ele>
        <time>2015-08-12T11:15:29Z</time>
      </trkpt>
      <trkpt lat="42.3340110" lon="1.8632920">
        <ele>1514.1</ele>
        <time>2015-08-12T11:15:34Z</time>
      </trkpt>
      <trkpt lat="42.3340430" lon="1.8632900">
        <ele>1514.7</ele>
        <time>2015-08-12T11:15:36Z</time>
      </trkpt>
      <trkpt lat="42.3340720" lon="1.8633080">
        <ele>1516.0</ele>
        <time>2015-08-12T11:15:38Z</time>
      </trkpt>
      <trkpt lat="42.3341100" lon="1.8633230">
        <ele>1517.4</ele>
        <time>2015-08-12T11:15:41Z</time>
      </trkpt>
      <trkpt lat="42.3341350" lon="1.8632910">
        <ele>1516.6</ele>
        <time>2015-08-12T11:15:43Z</time>
      </trkpt>
      <trkpt lat="42.3341060" lon="1.8632990">
        <ele>1516.3</ele>
        <time>2015-08-12T11:15:46Z</time>
      </trkpt>
      <trkpt lat="42.3340800" lon="1.8633410">
        <ele>1517.6</ele>
        <time>2015-08-12T11:15:50Z</time>
      </trkpt>
      <trkpt lat="42.3340460" lon="1.8633930">
        <ele>1519.0</ele>
        <time>2015-08-12T11:15:54Z</time>
      </trkpt>
      <trkpt lat="42.3341190" lon="1.8633610">
        <ele>1519.2</ele>
        <time>2015-08-12T11:15:58Z</time>
      </trkpt>
      <trkpt lat="42.3341410" lon="1.8633370">
        <ele>1518.6</ele>
        <time>2015-08-12T11:15:59Z</time>
      </trkpt>
      <trkpt lat="42.3341730" lon="1.8633240">
        <ele>1518.7</ele>
        <time>2015-08-12T11:16:03Z</time>
      </trkpt>
      <trkpt lat="42.3342050" lon="1.8633370">
        <ele>1519.9</ele>
        <time>2015-08-12T11:16:05Z</time>
      </trkpt>
      <trkpt lat="42.3341880" lon="1.8632950">
        <ele>1517.8</ele>
        <time>2015-08-12T11:16:10Z</time>
      </trkpt>
      <trkpt lat="42.3342050" lon="1.8633240">
        <ele>1519.4</ele>
        <time>2015-08-12T11:16:14Z</time>
      </trkpt>
      <trkpt lat="42.3342230" lon="1.8632900">
        <ele>1518.3</ele>
        <time>2015-08-12T11:16:23Z</time>
      </trkpt>
      <trkpt lat="42.3342570" lon="1.8633040">
        <ele>1519.6</ele>
        <time>2015-08-12T11:17:42Z</time>
      </trkpt>
      <trkpt lat="42.3342570" lon="1.8632650">
        <ele>1518.0</ele>
        <time>2015-08-12T11:17:45Z</time>
      </trkpt>
      <trkpt lat="42.3342830" lon="1.8632960">
        <ele>1519.8</ele>
        <time>2015-08-12T11:17:51Z</time>
      </trkpt>
      <trkpt lat="42.3342500" lon="1.8633140">
        <ele>1519.9</ele>
        <time>2015-08-12T11:17:58Z</time>
      </trkpt>
      <trkpt lat="42.3342750" lon="1.8633010">
        <ele>1519.9</ele>
        <time>2015-08-12T11:18:54Z</time>
      </trkpt>
      <trkpt lat="42.3343000" lon="1.8633400">
        <ele>1522.0</ele>
        <time>2015-08-12T11:18:58Z</time>
      </trkpt>
      <trkpt lat="42.3343250" lon="1.8633740">
        <ele>1523.9</ele>
        <time>2015-08-12T11:19:02Z</time>
      </trkpt>
      <trkpt lat="42.3343540" lon="1.8634010">
        <ele>1525.7</ele>
        <time>2015-08-12T11:19:04Z</time>
      </trkpt>
      <trkpt lat="42.3343990" lon="1.8634090">
        <ele>1526.9</ele>
        <time>2015-08-12T11:19:06Z</time>
      </trkpt>
      <trkpt lat="42.3344320" lon="1.8633690">
        <ele>1525.9</ele>
        <time>2015-08-12T11:19:07Z</time>
      </trkpt>
      <trkpt lat="42.3344560" lon="1.8633520">
        <ele>1525.7</ele>
        <time>2015-08-12T11:19:08Z</time>
      </trkpt>
      <trkpt lat="42.3344990" lon="1.8632560">
        <ele>1522.5</ele>
        <time>2015-08-12T11:19:09Z</time>
      </trkpt>
      <trkpt lat="42.3345400" lon="1.8632130">
        <ele>1521.6</ele>
        <time>2015-08-12T11:19:10Z</time>
      </trkpt>
      <trkpt lat="42.3345800" lon="1.8631840">
        <ele>1521.2</ele>
        <time>2015-08-12T11:19:11Z</time>
      </trkpt>
      <trkpt lat="42.3346210" lon="1.8631600">
        <ele>1520.8</ele>
        <time>2015-08-12T11:19:12Z</time>
      </trkpt>
      <trkpt lat="42.3346490" lon="1.8631530">
        <ele>1520.9</ele>
        <time>2015-08-12T11:19:15Z</time>
      </trkpt>
      <trkpt lat="42.3346790" lon="1.8631540">
        <ele>1521.3</ele>
        <time>2015-08-12T11:19:17Z</time>
      </trkpt>
      <trkpt lat="42.3347150" lon="1.8631550">
        <ele>1521.9</ele>
        <time>2015-08-12T11:19:19Z</time>
      </trkpt>
      <trkpt lat="42.3347370" lon="1.8632010">
        <ele>1524.2</ele>
        <time>2015-08-12T11:19:21Z</time>
      </trkpt>
      <trkpt lat="42.3347720" lon="1.8631740">
        <ele>1523.6</ele>
        <time>2015-08-12T11:19:23Z</time>
      </trkpt>
      <trkpt lat="42.3347950" lon="1.8631530">
        <ele>1523.0</ele>
        <time>2015-08-12T11:19:24Z</time>
      </trkpt>
      <trkpt lat="42.3348170" lon="1.8631280">
        <ele>1522.2</ele>
        <time>2015-08-12T11:19:25Z</time>
      </trkpt>
      <trkpt lat="42.3348510" lon="1.8630820">
        <ele>1520.6</ele>
        <time>2015-08-12T11:19:27Z</time>
      </trkpt>
      <trkpt lat="42.3348810" lon="1.8630510">
        <ele>1519.6</ele>
        <time>2015-08-12T11:19:28Z</time>
      </trkpt>
      <trkpt lat="42.3348500" lon="1.8630870">
        <ele>1520.8</ele>
        <time>2015-08-12T11:19:29Z</time>
      </trkpt>
      <trkpt lat="42.3348750" lon="1.8630500">
        <ele>1519.5</ele>
        <time>2015-08-12T11:19:31Z</time>
      </trkpt>
      <trkpt lat="42.3348920" lon="1.8630110">
        <ele>1518.0</ele>
        <time>2015-08-12T11:19:33Z</time>
      </trkpt>
      <trkpt lat="42.3349250" lon="1.8629770">
        <ele>1516.8</ele>
        <time>2015-08-12T11:19:35Z</time>
      </trkpt>
      <trkpt lat="42.3349690" lon="1.8629610">
        <ele>1516.7</ele>
        <time>2015-08-12T11:19:39Z</time>
      </trkpt>
      <trkpt lat="42.3350220" lon="1.8629220">
        <ele>1515.5</ele>
        <time>2015-08-12T11:19:41Z</time>
      </trkpt>
      <trkpt lat="42.3350030" lon="1.8628670">
        <ele>1512.7</ele>
        <time>2015-08-12T11:19:42Z</time>
      </trkpt>
      <trkpt lat="42.3350500" lon="1.8628330">
        <ele>1511.7</ele>
        <time>2015-08-12T11:19:44Z</time>
      </trkpt>
      <trkpt lat="42.3351010" lon="1.8628290">
        <ele>1512.0</ele>
        <time>2015-08-12T11:19:47Z</time>
      </trkpt>
      <trkpt lat="42.3351270" lon="1.8628190">
        <ele>1511.9</ele>
        <time>2015-08-12T11:19:50Z</time>
      </trkpt>
      <trkpt lat="42.3351580" lon="1.8628400">
        <ele>1513.2</ele>
        <time>2015-08-12T11:19:51Z</time>
      </trkpt>
      <trkpt lat="42.3351990" lon="1.8628860">
        <ele>1515.9</ele>
        <time>2015-08-12T11:19:52Z</time>
      </trkpt>
      <trkpt lat="42.3352420" lon="1.8629080">
        <ele>1517.5</ele>
        <time>2015-08-12T11:19:54Z</time>
      </trkpt>
      <trkpt lat="42.3352840" lon="1.8629420">
        <ele>1519.7</ele>
        <time>2015-08-12T11:19:55Z</time>
      </trkpt>
      <trkpt lat="42.3352570" lon="1.8628930">
        <ele>1516.9</ele>
        <time>2015-08-12T11:19:57Z</time>
      </trkpt>
      <trkpt lat="42.3352500" lon="1.8629460">
        <ele>1519.4</ele>
        <time>2015-08-12T11:19:58Z</time>
      </trkpt>
      <trkpt lat="42.3352590" lon="1.8629090">
        <ele>1517.7</ele>
        <time>2015-08-12T11:20:38Z</time>
      </trkpt>
      <trkpt lat="42.3352850" lon="1.8629310">
        <ele>1519.1</ele>
        <time>2015-08-12T11:20:39Z</time>
      </trkpt>
      <trkpt lat="42.3353130" lon="1.8629610">
        <ele>1520.9</ele>
        <time>2015-08-12T11:20:40Z</time>
      </trkpt>
      <trkpt lat="42.3353410" lon="1.8629740">
        <ele>1521.9</ele>
        <time>2015-08-12T11:20:41Z</time>
      </trkpt>
      <trkpt lat="42.3353970" lon="1.8629700">
        <ele>1522.4</ele>
        <time>2015-08-12T11:20:43Z</time>
      </trkpt>
      <trkpt lat="42.3354270" lon="1.8629480">
        <ele>1521.5</ele>
        <time>2015-08-12T11:20:44Z</time>
      </trkpt>
      <trkpt lat="42.3354750" lon="1.8629500">
        <ele>1521.5</ele>
        <time>2015-08-12T11:20:46Z</time>
      </trkpt>
      <trkpt lat="42.3355350" lon="1.8629530">
        <ele>1521.4</ele>
        <time>2015-08-12T11:20:48Z</time>
      </trkpt>
      <trkpt lat="42.3356170" lon="1.8629910">
        <ele>1522.9</ele>
        <time>2015-08-12T11:20:50Z</time>
      </trkpt>
      <trkpt lat="42.3356550" lon="1.8630090">
        <ele>1523.7</ele>
        <time>2015-08-12T11:20:51Z</time>
      </trkpt>
      <trkpt lat="42.3356880" lon="1.8630450">
        <ele>1525.3</ele>
        <time>2015-08-12T11:20:52Z</time>
      </trkpt>
      <trkpt lat="42.3357490" lon="1.8630790">
        <ele>1526.7</ele>
        <time>2015-08-12T11:20:53Z</time>
      </trkpt>
      <trkpt lat="42.3357770" lon="1.8630860">
        <ele>1526.9</ele>
        <time>2015-08-12T11:20:54Z</time>
      </trkpt>
      <trkpt lat="42.3358650" lon="1.8630930">
        <ele>1526.8</ele>
        <time>2015-08-12T11:20:55Z</time>
      </trkpt>
      <trkpt lat="42.3359230" lon="1.8630710">
        <ele>1525.5</ele>
        <time>2015-08-12T11:20:56Z</time>
      </trkpt>
      <trkpt lat="42.3359700" lon="1.8630530">
        <ele>1524.4</ele>
        <time>2015-08-12T11:20:57Z</time>
      </trkpt>
      <trkpt lat="42.3360060" lon="1.8630470">
        <ele>1524.0</ele>
        <time>2015-08-12T11:20:58Z</time>
      </trkpt>
      <trkpt lat="42.3360370" lon="1.8630410">
        <ele>1523.6</ele>
        <time>2015-08-12T11:20:59Z</time>
      </trkpt>
      <trkpt lat="42.3360840" lon="1.8630540">
        <ele>1524.0</ele>
        <time>2015-08-12T11:21:00Z</time>
      </trkpt>
      <trkpt lat="42.3361050" lon="1.8631030">
        <ele>1526.2</ele>
        <time>2015-08-12T11:21:01Z</time>
      </trkpt>
      <trkpt lat="42.3361560" lon="1.8631190">
        <ele>1526.7</ele>
        <time>2015-08-12T11:21:02Z</time>
      </trkpt>
      <trkpt lat="42.3362050" lon="1.8630740">
        <ele>1524.4</ele>
        <time>2015-08-12T11:21:04Z</time>
      </trkpt>
      <trkpt lat="42.3362320" lon="1.8630640">
        <ele>1523.8</ele>
        <time>2015-08-12T11:21:06Z</time>
      </trkpt>
      <trkpt lat="42.3362190" lon="1.8631020">
        <ele>1525.6</ele>
        <time>2015-08-12T11:21:08Z</time>
      </trkpt>
      <trkpt lat="42.3362700" lon="1.8630600">
        <ele>1524.0</ele>
        <time>2015-08-12T11:21:12Z</time>
      </trkpt>
      <trkpt lat="42.3362920" lon="1.8630360">
        <ele>1523.4</ele>
        <time>2015-08-12T11:21:13Z</time>
      </trkpt>
      <trkpt lat="42.3363200" lon="1.8629930">
        <ele>1522.2</ele>
        <time>2015-08-12T11:21:15Z</time>
      </trkpt>
      <trkpt lat="42.3363390" lon="1.8629560">
        <ele>1521.0</ele>
        <time>2015-08-12T11:21:17Z</time>
      </trkpt>
      <trkpt lat="42.3363570" lon="1.8628950">
        <ele>1518.8</ele>
        <time>2015-08-12T11:21:18Z</time>
      </trkpt>
      <trkpt lat="42.3363740" lon="1.8628550">
        <ele>1517.6</ele>
        <time>2015-08-12T11:21:19Z</time>
      </trkpt>
      <trkpt lat="42.3363930" lon="1.8628130">
        <ele>1516.5</ele>
        <time>2015-08-12T11:21:20Z</time>
      </trkpt>
      <trkpt lat="42.3364200" lon="1.8627690">
        <ele>1515.5</ele>
        <time>2015-08-12T11:21:22Z</time>
      </trkpt>
      <trkpt lat="42.3364480" lon="1.8627380">
        <ele>1515.1</ele>
        <time>2015-08-12T11:21:23Z</time>
      </trkpt>
      <trkpt lat="42.3364980" lon="1.8626940">
        <ele>1514.9</ele>
        <time>2015-08-12T11:21:25Z</time>
      </trkpt>
      <trkpt lat="42.3365090" lon="1.8627470">
        <ele>1517.2</ele>
        <time>2015-08-12T11:21:26Z</time>
      </trkpt>
      <trkpt lat="42.3365420" lon="1.8627350">
        <ele>1517.7</ele>
        <time>2015-08-12T11:21:28Z</time>
      </trkpt>
      <trkpt lat="42.3365790" lon="1.8627060">
        <ele>1517.8</ele>
        <time>2015-08-12T11:21:30Z</time>
      </trkpt>
      <trkpt lat="42.3366090" lon="1.8627090">
        <ele>1518.8</ele>
        <time>2015-08-12T11:21:32Z</time>
      </trkpt>
      <trkpt lat="42.3366370" lon="1.8626860">
        <ele>1518.8</ele>
        <time>2015-08-12T11:21:36Z</time>
      </trkpt>
      <trkpt lat="42.3366870" lon="1.8627120">
        <ele>1521.2</ele>
        <time>2015-08-12T11:21:38Z</time>
      </trkpt>
      <trkpt lat="42.3367030" lon="1.8626400">
        <ele>1519.4</ele>
        <time>2015-08-12T11:21:40Z</time>
      </trkpt>
      <trkpt lat="42.3367650" lon="1.8626960">
        <ele>1523.1</ele>
        <time>2015-08-12T11:21:43Z</time>
      </trkpt>
      <trkpt lat="42.3367880" lon="1.8627150">
        <ele>1524.3</ele>
        <time>2015-08-12T11:21:44Z</time>
      </trkpt>
      <trkpt lat="42.3367580" lon="1.8627100">
        <ele>1523.3</ele>
        <time>2015-08-12T11:21:47Z</time>
      </trkpt>
      <trkpt lat="42.3367300" lon="1.8627170">
        <ele>1522.7</ele>
        <time>2015-08-12T11:21:50Z</time>
      </trkpt>
      <trkpt lat="42.3367520" lon="1.8627450">
        <ele>1524.2</ele>
        <time>2015-08-12T11:21:59Z</time>
      </trkpt>
      <trkpt lat="42.3367320" lon="1.8626990">
        <ele>1522.2</ele>
        <time>2015-08-12T11:22:01Z</time>
      </trkpt>
      <trkpt lat="42.3367250" lon="1.8626320">
        <ele>1519.8</ele>
        <time>2015-08-12T11:22:05Z</time>
      </trkpt>
      <trkpt lat="42.3367300" lon="1.8625990">
        <ele>1518.9</ele>
        <time>2015-08-12T11:22:11Z</time>
      </trkpt>
      <trkpt lat="42.3367340" lon="1.8625670">
        <ele>1518.0</ele>
        <time>2015-08-12T11:22:13Z</time>
      </trkpt>
      <trkpt lat="42.3367380" lon="1.8625350">
        <ele>1517.1</ele>
        <time>2015-08-12T11:22:16Z</time>
      </trkpt>
      <trkpt lat="42.3367420" lon="1.8625020">
        <ele>1516.2</ele>
        <time>2015-08-12T11:22:19Z</time>
      </trkpt>
      <trkpt lat="42.3367470" lon="1.8624700">
        <ele>1515.3</ele>
        <time>2015-08-12T11:22:24Z</time>
      </trkpt>
      <trkpt lat="42.3367510" lon="1.8624380">
        <ele>1514.5</ele>
        <time>2015-08-12T11:22:28Z</time>
      </trkpt>
      <trkpt lat="42.3367550" lon="1.8624050">
        <ele>1513.6</ele>
        <time>2015-08-12T11:22:32Z</time>
      </trkpt>
      <trkpt lat="42.3367600" lon="1.8623730">
        <ele>1512.8</ele>
        <time>2015-08-12T11:22:36Z</time>
      </trkpt>
      <trkpt lat="42.3367640" lon="1.8623400">
        <ele>1511.9</ele>
        <time>2015-08-12T11:22:39Z</time>
      </trkpt>
      <trkpt lat="42.3367680" lon="1.8623080">
        <ele>1511.0</ele>
        <time>2015-08-12T11:22:42Z</time>
      </trkpt>
      <trkpt lat="42.3367720" lon="1.8622760">
        <ele>1510.2</ele>
        <time>2015-08-12T11:22:45Z</time>
      </trkpt>
      <trkpt lat="42.3367770" lon="1.8622430">
        <ele>1509.4</ele>
        <time>2015-08-12T11:22:59Z</time>
      </trkpt>
      <trkpt lat="42.3367810" lon="1.8622110">
        <ele>1508.5</ele>
        <time>2015-08-12T11:23:00Z</time>
      </trkpt>
      <trkpt lat="42.3367970" lon="1.8621590">
        <ele>1507.6</ele>
        <time>2015-08-12T11:23:01Z</time>
      </trkpt>
      <trkpt lat="42.3368230" lon="1.8621210">
        <ele>1507.6</ele>
        <time>2015-08-12T11:23:02Z</time>
      </trkpt>
      <trkpt lat="42.3368450" lon="1.8620850">
        <ele>1507.5</ele>
        <time>2015-08-12T11:23:03Z</time>
      </trkpt>
      <trkpt lat="42.3368610" lon="1.8620260">
        <ele>1505.4</ele>
        <time>2015-08-12T11:23:04Z</time>
      </trkpt>
      <trkpt lat="42.3368800" lon="1.8619890">
        <ele>1504.4</ele>
        <time>2015-08-12T11:23:06Z</time>
      </trkpt>
      <trkpt lat="42.3368650" lon="1.8619300">
        <ele>1501.0</ele>
        <time>2015-08-12T11:23:08Z</time>
      </trkpt>
      <trkpt lat="42.3368780" lon="1.8618870">
        <ele>1499.5</ele>
        <time>2015-08-12T11:23:12Z</time>
      </trkpt>
      <trkpt lat="42.3368860" lon="1.8618380">
        <ele>1497.4</ele>
        <time>2015-08-12T11:23:47Z</time>
      </trkpt>
      <trkpt lat="42.3369060" lon="1.8617850">
        <ele>1495.8</ele>
        <time>2015-08-12T11:23:52Z</time>
      </trkpt>
      <trkpt lat="42.3369380" lon="1.8617440">
        <ele>1495.1</ele>
        <time>2015-08-12T11:23:55Z</time>
      </trkpt>
      <trkpt lat="42.3369350" lon="1.8617080">
        <ele>1493.3</ele>
        <time>2015-08-12T11:23:56Z</time>
      </trkpt>
      <trkpt lat="42.3369340" lon="1.8616510">
        <ele>1490.5</ele>
        <time>2015-08-12T11:23:57Z</time>
      </trkpt>
      <trkpt lat="42.3369710" lon="1.8616430">
        <ele>1491.6</ele>
        <time>2015-08-12T11:23:58Z</time>
      </trkpt>
      <trkpt lat="42.3369950" lon="1.8616150">
        <ele>1491.3</ele>
        <time>2015-08-12T11:23:59Z</time>
      </trkpt>
      <trkpt lat="42.3370250" lon="1.8615770">
        <ele>1490.7</ele>
        <time>2015-08-12T11:24:00Z</time>
      </trkpt>
      <trkpt lat="42.3370600" lon="1.8615220">
        <ele>1489.4</ele>
        <time>2015-08-12T11:24:02Z</time>
      </trkpt>
      <trkpt lat="42.3370870" lon="1.8614460">
        <ele>1486.7</ele>
        <time>2015-08-12T11:24:04Z</time>
      </trkpt>
      <trkpt lat="42.3371130" lon="1.8613880">
        <ele>1484.7</ele>
        <time>2015-08-12T11:24:05Z</time>
      </trkpt>
      <trkpt lat="42.3371410" lon="1.8613410">
        <ele>1483.2</ele>
        <time>2015-08-12T11:24:06Z</time>
      </trkpt>
      <trkpt lat="42.3371680" lon="1.8613230">
        <ele>1483.1</ele>
        <time>2015-08-12T11:24:07Z</time>
      </trkpt>
      <trkpt lat="42.3371920" lon="1.8613000">
        <ele>1482.8</ele>
        <time>2015-08-12T11:24:08Z</time>
      </trkpt>
      <trkpt lat="42.3372190" lon="1.8612800">
        <ele>1482.7</ele>
        <time>2015-08-12T11:24:09Z</time>
      </trkpt>
      <trkpt lat="42.3372370" lon="1.8613090">
        <ele>1484.6</ele>
        <time>2015-08-12T11:24:10Z</time>
      </trkpt>
      <trkpt lat="42.3372870" lon="1.8613410">
        <ele>1487.6</ele>
        <time>2015-08-12T11:24:12Z</time>
      </trkpt>
      <trkpt lat="42.3373360" lon="1.8613500">
        <ele>1489.4</ele>
        <time>2015-08-12T11:24:14Z</time>
      </trkpt>
      <trkpt lat="42.3373590" lon="1.8614000">
        <ele>1492.4</ele>
        <time>2015-08-12T11:24:15Z</time>
      </trkpt>
      <trkpt lat="42.3373830" lon="1.8614280">
        <ele>1494.3</ele>
        <time>2015-08-12T11:24:16Z</time>
      </trkpt>
      <trkpt lat="42.3374230" lon="1.8614810">
        <ele>1497.8</ele>
        <time>2015-08-12T11:24:18Z</time>
      </trkpt>
      <trkpt lat="42.3374520" lon="1.8615080">
        <ele>1499.8</ele>
        <time>2015-08-12T11:24:19Z</time>
      </trkpt>
      <trkpt lat="42.3374810" lon="1.8615250">
        <ele>1501.4</ele>
        <time>2015-08-12T11:24:20Z</time>
      </trkpt>
      <trkpt lat="42.3375000" lon="1.8615550">
        <ele>1503.2</ele>
        <time>2015-08-12T11:24:21Z</time>
      </trkpt>
      <trkpt lat="42.3375220" lon="1.8615980">
        <ele>1505.6</ele>
        <time>2015-08-12T11:24:22Z</time>
      </trkpt>
      <trkpt lat="42.3375260" lon="1.8616400">
        <ele>1507.5</ele>
        <time>2015-08-12T11:24:23Z</time>
      </trkpt>
      <trkpt lat="42.3375430" lon="1.8616700">
        <ele>1509.2</ele>
        <time>2015-08-12T11:24:24Z</time>
      </trkpt>
      <trkpt lat="42.3375690" lon="1.8617260">
        <ele>1512.2</ele>
        <time>2015-08-12T11:24:26Z</time>
      </trkpt>
      <trkpt lat="42.3376030" lon="1.8617390">
        <ele>1513.6</ele>
        <time>2015-08-12T11:24:27Z</time>
      </trkpt>
      <trkpt lat="42.3376060" lon="1.8617760">
        <ele>1515.2</ele>
        <time>2015-08-12T11:24:28Z</time>
      </trkpt>
      <trkpt lat="42.3376210" lon="1.8618390">
        <ele>1518.2</ele>
        <time>2015-08-12T11:24:30Z</time>
      </trkpt>
      <trkpt lat="42.3376230" lon="1.8618970">
        <ele>1520.6</ele>
        <time>2015-08-12T11:24:32Z</time>
      </trkpt>
      <trkpt lat="42.3376360" lon="1.8619550">
        <ele>1523.3</ele>
        <time>2015-08-12T11:24:33Z</time>
      </trkpt>
      <trkpt lat="42.3376740" lon="1.8620080">
        <ele>1526.3</ele>
        <time>2015-08-12T11:24:35Z</time>
      </trkpt>
      <trkpt lat="42.3376920" lon="1.8620480">
        <ele>1528.3</ele>
        <time>2015-08-12T11:24:36Z</time>
      </trkpt>
      <trkpt lat="42.3376920" lon="1.8621180">
        <ele>1530.5</ele>
        <time>2015-08-12T11:24:37Z</time>
      </trkpt>
      <trkpt lat="42.3377270" lon="1.8621720">
        <ele>1532.3</ele>
        <time>2015-08-12T11:24:38Z</time>
      </trkpt>
      <trkpt lat="42.3377360" lon="1.8622090">
        <ele>1533.3</ele>
        <time>2015-08-12T11:24:39Z</time>
      </trkpt>
      <trkpt lat="42.3377660" lon="1.8622430">
        <ele>1534.6</ele>
        <time>2015-08-12T11:24:40Z</time>
      </trkpt>
      <trkpt lat="42.3377830" lon="1.8623100">
        <ele>1536.4</ele>
        <time>2015-08-12T11:24:41Z</time>
      </trkpt>
      <trkpt lat="42.3378020" lon="1.8623490">
        <ele>1537.6</ele>
        <time>2015-08-12T11:24:42Z</time>
      </trkpt>
      <trkpt lat="42.3378450" lon="1.8623890">
        <ele>1539.3</ele>
        <time>2015-08-12T11:24:44Z</time>
      </trkpt>
      <trkpt lat="42.3379150" lon="1.8624260">
        <ele>1541.4</ele>
        <time>2015-08-12T11:24:46Z</time>
      </trkpt>
      <trkpt lat="42.3379540" lon="1.8624580">
        <ele>1540.3</ele>
        <time>2015-08-12T11:24:47Z</time>
      </trkpt>
      <trkpt lat="42.3379880" lon="1.8624830">
        <ele>1539.3</ele>
        <time>2015-08-12T11:24:48Z</time>
      </trkpt>
      <trkpt lat="42.3380130" lon="1.8625140">
        <ele>1538.8</ele>
        <time>2015-08-12T11:24:49Z</time>
      </trkpt>
      <trkpt lat="42.3380410" lon="1.8625320">
        <ele>1537.9</ele>
        <time>2015-08-12T11:24:50Z</time>
      </trkpt>
      <trkpt lat="42.3380720" lon="1.8625480">
        <ele>1536.8</ele>
        <time>2015-08-12T11:24:51Z</time>
      </trkpt>
      <trkpt lat="42.3381120" lon="1.8626050">
        <ele>1536.1</ele>
        <time>2015-08-12T11:24:52Z</time>
      </trkpt>
      <trkpt lat="42.3381470" lon="1.8626670">
        <ele>1535.8</ele>
        <time>2015-08-12T11:24:53Z</time>
      </trkpt>
      <trkpt lat="42.3381610" lon="1.8627120">
        <ele>1536.1</ele>
        <time>2015-08-12T11:24:54Z</time>
      </trkpt>
      <trkpt lat="42.3381820" lon="1.8627490">
        <ele>1536.0</ele>
        <time>2015-08-12T11:24:55Z</time>
      </trkpt>
      <trkpt lat="42.3382130" lon="1.8627620">
        <ele>1534.8</ele>
        <time>2015-08-12T11:24:57Z</time>
      </trkpt>
      <trkpt lat="42.3382560" lon="1.8627880">
        <ele>1533.3</ele>
        <time>2015-08-12T11:25:23Z</time>
      </trkpt>
      <trkpt lat="42.3382810" lon="1.8628610">
        <ele>1533.7</ele>
        <time>2015-08-12T11:25:25Z</time>
      </trkpt>
      <trkpt lat="42.3382440" lon="1.8628510">
        <ele>1535.3</ele>
        <time>2015-08-12T11:25:27Z</time>
      </trkpt>
      <trkpt lat="42.3382250" lon="1.8628770">
        <ele>1536.7</ele>
        <time>2015-08-12T11:25:31Z</time>
      </trkpt>
      <trkpt lat="42.3382230" lon="1.8629160">
        <ele>1537.6</ele>
        <time>2015-08-12T11:25:50Z</time>
      </trkpt>
      <trkpt lat="42.3382340" lon="1.8629570">
        <ele>1538.3</ele>
        <time>2015-08-12T11:26:03Z</time>
      </trkpt>
      <trkpt lat="42.3382560" lon="1.8630130">
        <ele>1538.9</ele>
        <time>2015-08-12T11:26:06Z</time>
      </trkpt>
      <trkpt lat="42.3382790" lon="1.8630420">
        <ele>1538.6</ele>
        <time>2015-08-12T11:26:07Z</time>
      </trkpt>
      <trkpt lat="42.3383000" lon="1.8630950">
        <ele>1539.1</ele>
        <time>2015-08-12T11:26:09Z</time>
      </trkpt>
      <trkpt lat="42.3383260" lon="1.8631250">
        <ele>1538.7</ele>
        <time>2015-08-12T11:26:11Z</time>
      </trkpt>
      <trkpt lat="42.3383620" lon="1.8631340">
        <ele>1537.2</ele>
        <time>2015-08-12T11:26:16Z</time>
      </trkpt>
      <trkpt lat="42.3384140" lon="1.8631100">
        <ele>1534.1</ele>
        <time>2015-08-12T11:26:18Z</time>
      </trkpt>
      <trkpt lat="42.3384530" lon="1.8630990">
        <ele>1531.9</ele>
        <time>2015-08-12T11:26:20Z</time>
      </trkpt>
      <trkpt lat="42.3385040" lon="1.8631070">
        <ele>1529.6</ele>
        <time>2015-08-12T11:26:22Z</time>
      </trkpt>
      <trkpt lat="42.3385510" lon="1.8630960">
        <ele>1527.1</ele>
        <time>2015-08-12T11:26:23Z</time>
      </trkpt>
      <trkpt lat="42.3385770" lon="1.8631330">
        <ele>1526.8</ele>
        <time>2015-08-12T11:26:24Z</time>
      </trkpt>
      <trkpt lat="42.3386280" lon="1.8631940">
        <ele>1525.9</ele>
        <time>2015-08-12T11:26:25Z</time>
      </trkpt>
      <trkpt lat="42.3387010" lon="1.8632200">
        <ele>1523.0</ele>
        <time>2015-08-12T11:26:26Z</time>
      </trkpt>
      <trkpt lat="42.3387550" lon="1.8632680">
        <ele>1521.7</ele>
        <time>2015-08-12T11:26:27Z</time>
      </trkpt>
      <trkpt lat="42.3387910" lon="1.8632780">
        <ele>1521.2</ele>
        <time>2015-08-12T11:26:28Z</time>
      </trkpt>
      <trkpt lat="42.3388150" lon="1.8633030">
        <ele>1521.3</ele>
        <time>2015-08-12T11:26:29Z</time>
      </trkpt>
      <trkpt lat="42.3388390" lon="1.8633380">
        <ele>1521.6</ele>
        <time>2015-08-12T11:26:30Z</time>
      </trkpt>
      <trkpt lat="42.3388650" lon="1.8633800">
        <ele>1522.0</ele>
        <time>2015-08-12T11:26:31Z</time>
      </trkpt>
      <trkpt lat="42.3388870" lon="1.8634180">
        <ele>1522.5</ele>
        <time>2015-08-12T11:26:33Z</time>
      </trkpt>
      <trkpt lat="42.3389020" lon="1.8634690">
        <ele>1523.4</ele>
        <time>2015-08-12T11:26:35Z</time>
      </trkpt>
      <trkpt lat="42.3389290" lon="1.8635180">
        <ele>1524.0</ele>
        <time>2015-08-12T11:26:36Z</time>
      </trkpt>
      <trkpt lat="42.3389790" lon="1.8635310">
        <ele>1523.1</ele>
        <time>2015-08-12T11:26:38Z</time>
      </trkpt>
      <trkpt lat="42.3389990" lon="1.8635750">
        <ele>1523.7</ele>
        <time>2015-08-12T11:26:39Z</time>
      </trkpt>
      <trkpt lat="42.3390240" lon="1.8636210">
        <ele>1524.3</ele>
        <time>2015-08-12T11:26:40Z</time>
      </trkpt>
      <trkpt lat="42.3390470" lon="1.8636420">
        <ele>1524.2</ele>
        <time>2015-08-12T11:26:42Z</time>
      </trkpt>
      <trkpt lat="42.3390840" lon="1.8636600">
        <ele>1523.8</ele>
        <time>2015-08-12T11:26:44Z</time>
      </trkpt>
      <trkpt lat="42.3391380" lon="1.8637060">
        <ele>1523.6</ele>
        <time>2015-08-12T11:26:47Z</time>
      </trkpt>
      <trkpt lat="42.3391570" lon="1.8637360">
        <ele>1523.9</ele>
        <time>2015-08-12T11:26:48Z</time>
      </trkpt>
      <trkpt lat="42.3391590" lon="1.8637950">
        <ele>1525.2</ele>
        <time>2015-08-12T11:26:54Z</time>
      </trkpt>
      <trkpt lat="42.3391880" lon="1.8638320">
        <ele>1525.3</ele>
        <time>2015-08-12T11:26:56Z</time>
      </trkpt>
      <trkpt lat="42.3392110" lon="1.8638760">
        <ele>1525.7</ele>
        <time>2015-08-12T11:26:58Z</time>
      </trkpt>
      <trkpt lat="42.3392250" lon="1.8639470">
        <ele>1526.9</ele>
        <time>2015-08-12T11:27:00Z</time>
      </trkpt>
      <trkpt lat="42.3392530" lon="1.8640380">
        <ele>1528.2</ele>
        <time>2015-08-12T11:27:02Z</time>
      </trkpt>
      <trkpt lat="42.3392740" lon="1.8640900">
        <ele>1528.8</ele>
        <time>2015-08-12T11:27:03Z</time>
      </trkpt>
      <trkpt lat="42.3392930" lon="1.8641790">
        <ele>1530.3</ele>
        <time>2015-08-12T11:27:05Z</time>
      </trkpt>
      <trkpt lat="42.3393280" lon="1.8642410">
        <ele>1530.7</ele>
        <time>2015-08-12T11:27:07Z</time>
      </trkpt>
      <trkpt lat="42.3393450" lon="1.8642760">
        <ele>1531.0</ele>
        <time>2015-08-12T11:27:08Z</time>
      </trkpt>
      <trkpt lat="42.3393580" lon="1.8643100">
        <ele>1531.4</ele>
        <time>2015-08-12T11:27:09Z</time>
      </trkpt>
      <trkpt lat="42.3394210" lon="1.8643350">
        <ele>1530.2</ele>
        <time>2015-08-12T11:27:11Z</time>
      </trkpt>
      <trkpt lat="42.3394480" lon="1.8644070">
        <ele>1531.0</ele>
        <time>2015-08-12T11:27:13Z</time>
      </trkpt>
      <trkpt lat="42.3394720" lon="1.8644410">
        <ele>1531.1</ele>
        <time>2015-08-12T11:27:15Z</time>
      </trkpt>
      <trkpt lat="42.3394470" lon="1.8644910">
        <ele>1532.8</ele>
        <time>2015-08-12T11:27:16Z</time>
      </trkpt>
      <trkpt lat="42.3394480" lon="1.8645570">
        <ele>1534.2</ele>
        <time>2015-08-12T11:27:18Z</time>
      </trkpt>
      <trkpt lat="42.3394450" lon="1.8646050">
        <ele>1535.3</ele>
        <time>2015-08-12T11:27:20Z</time>
      </trkpt>
      <trkpt lat="42.3395230" lon="1.8646590">
        <ele>1534.3</ele>
        <time>2015-08-12T11:27:23Z</time>
      </trkpt>
      <trkpt lat="42.3395670" lon="1.8647140">
        <ele>1534.2</ele>
        <time>2015-08-12T11:27:25Z</time>
      </trkpt>
      <trkpt lat="42.3395850" lon="1.8647520">
        <ele>1534.4</ele>
        <time>2015-08-12T11:27:26Z</time>
      </trkpt>
      <trkpt lat="42.3396300" lon="1.8648140">
        <ele>1534.3</ele>
        <time>2015-08-12T11:27:29Z</time>
      </trkpt>
      <trkpt lat="42.3396510" lon="1.8648540">
        <ele>1534.4</ele>
        <time>2015-08-12T11:27:30Z</time>
      </trkpt>
      <trkpt lat="42.3396820" lon="1.8649050">
        <ele>1534.5</ele>
        <time>2015-08-12T11:27:31Z</time>
      </trkpt>
      <trkpt lat="42.3397090" lon="1.8649610">
        <ele>1534.7</ele>
        <time>2015-08-12T11:27:32Z</time>
      </trkpt>
      <trkpt lat="42.3397070" lon="1.8650130">
        <ele>1535.8</ele>
        <time>2015-08-12T11:27:33Z</time>
      </trkpt>
      <trkpt lat="42.3397140" lon="1.8650590">
        <ele>1536.5</ele>
        <time>2015-08-12T11:27:34Z</time>
      </trkpt>
      <trkpt lat="42.3397140" lon="1.8650980">
        <ele>1537.3</ele>
        <time>2015-08-12T11:27:35Z</time>
      </trkpt>
      <trkpt lat="42.3397140" lon="1.8651420">
        <ele>1538.1</ele>
        <time>2015-08-12T11:27:37Z</time>
      </trkpt>
      <trkpt lat="42.3397400" lon="1.8651910">
        <ele>1538.2</ele>
        <time>2015-08-12T11:27:39Z</time>
      </trkpt>
      <trkpt lat="42.3397620" lon="1.8652590">
        <ele>1538.8</ele>
        <time>2015-08-12T11:27:40Z</time>
      </trkpt>
      <trkpt lat="42.3397770" lon="1.8653190">
        <ele>1539.4</ele>
        <time>2015-08-12T11:27:41Z</time>
      </trkpt>
      <trkpt lat="42.3398190" lon="1.8653780">
        <ele>1539.1</ele>
        <time>2015-08-12T11:27:42Z</time>
      </trkpt>
      <trkpt lat="42.3398610" lon="1.8654220">
        <ele>1538.4</ele>
        <time>2015-08-12T11:27:43Z</time>
      </trkpt>
      <trkpt lat="42.3399000" lon="1.8654380">
        <ele>1537.3</ele>
        <time>2015-08-12T11:27:44Z</time>
      </trkpt>
      <trkpt lat="42.3399320" lon="1.8654530">
        <ele>1536.4</ele>
        <time>2015-08-12T11:27:45Z</time>
      </trkpt>
      <trkpt lat="42.3399650" lon="1.8654890">
        <ele>1535.8</ele>
        <time>2015-08-12T11:27:46Z</time>
      </trkpt>
      <trkpt lat="42.3400040" lon="1.8655140">
        <ele>1534.8</ele>
        <time>2015-08-12T11:27:47Z</time>
      </trkpt>
      <trkpt lat="42.3400730" lon="1.8655540">
        <ele>1533.0</ele>
        <time>2015-08-12T11:27:49Z</time>
      </trkpt>
      <trkpt lat="42.3401130" lon="1.8655740">
        <ele>1531.9</ele>
        <time>2015-08-12T11:27:50Z</time>
      </trkpt>
      <trkpt lat="42.3401580" lon="1.8655940">
        <ele>1530.6</ele>
        <time>2015-08-12T11:27:52Z</time>
      </trkpt>
      <trkpt lat="42.3401910" lon="1.8656160">
        <ele>1529.8</ele>
        <time>2015-08-12T11:27:55Z</time>
      </trkpt>
      <trkpt lat="42.3402140" lon="1.8656480">
        <ele>1529.5</ele>
        <time>2015-08-12T11:27:56Z</time>
      </trkpt>
      <trkpt lat="42.3402560" lon="1.8656740">
        <ele>1528.5</ele>
        <time>2015-08-12T11:27:58Z</time>
      </trkpt>
      <trkpt lat="42.3402940" lon="1.8656980">
        <ele>1527.6</ele>
        <time>2015-08-12T11:28:00Z</time>
      </trkpt>
      <trkpt lat="42.3403340" lon="1.8657090">
        <ele>1526.4</ele>
        <time>2015-08-12T11:28:02Z</time>
      </trkpt>
      <trkpt lat="42.3403670" lon="1.8657030">
        <ele>1525.2</ele>
        <time>2015-08-12T11:28:05Z</time>
      </trkpt>
      <trkpt lat="42.3403900" lon="1.8656810">
        <ele>1524.0</ele>
        <time>2015-08-12T11:28:07Z</time>
      </trkpt>
      <trkpt lat="42.3404270" lon="1.8656720">
        <ele>1522.9</ele>
        <time>2015-08-12T11:28:09Z</time>
      </trkpt>
      <trkpt lat="42.3404650" lon="1.8656490">
        <ele>1522.3</ele>
        <time>2015-08-12T11:28:12Z</time>
      </trkpt>
      <trkpt lat="42.3404960" lon="1.8656150">
        <ele>1521.6</ele>
        <time>2015-08-12T11:28:14Z</time>
      </trkpt>
      <trkpt lat="42.3405310" lon="1.8655870">
        <ele>1520.9</ele>
        <time>2015-08-12T11:28:16Z</time>
      </trkpt>
      <trkpt lat="42.3405870" lon="1.8655800">
        <ele>1520.4</ele>
        <time>2015-08-12T11:28:22Z</time>
      </trkpt>
      <trkpt lat="42.3406150" lon="1.8655970">
        <ele>1520.5</ele>
        <time>2015-08-12T11:28:23Z</time>
      </trkpt>
      <trkpt lat="42.3406450" lon="1.8656110">
        <ele>1520.5</ele>
        <time>2015-08-12T11:28:24Z</time>
      </trkpt>
      <trkpt lat="42.3406900" lon="1.8656540">
        <ele>1520.7</ele>
        <time>2015-08-12T11:28:26Z</time>
      </trkpt>
      <trkpt lat="42.3407160" lon="1.8656730">
        <ele>1520.8</ele>
        <time>2015-08-12T11:28:27Z</time>
      </trkpt>
      <trkpt lat="42.3407370" lon="1.8656980">
        <ele>1520.9</ele>
        <time>2015-08-12T11:28:28Z</time>
      </trkpt>
      <trkpt lat="42.3407020" lon="1.8657100">
        <ele>1521.4</ele>
        <time>2015-08-12T11:28:30Z</time>
      </trkpt>
      <trkpt lat="42.3406840" lon="1.8656780">
        <ele>1521.1</ele>
        <time>2015-08-12T11:28:32Z</time>
      </trkpt>
      <trkpt lat="42.3407150" lon="1.8656020">
        <ele>1519.9</ele>
        <time>2015-08-12T11:28:35Z</time>
      </trkpt>
      <trkpt lat="42.3407290" lon="1.8655640">
        <ele>1519.3</ele>
        <time>2015-08-12T11:28:36Z</time>
      </trkpt>
      <trkpt lat="42.3407400" lon="1.8655090">
        <ele>1518.6</ele>
        <time>2015-08-12T11:28:37Z</time>
      </trkpt>
      <trkpt lat="42.3407370" lon="1.8654580">
        <ele>1518.0</ele>
        <time>2015-08-12T11:28:38Z</time>
      </trkpt>
      <trkpt lat="42.3407460" lon="1.8654030">
        <ele>1517.3</ele>
        <time>2015-08-12T11:28:39Z</time>
      </trkpt>
      <trkpt lat="42.3407530" lon="1.8653560">
        <ele>1516.7</ele>
        <time>2015-08-12T11:28:40Z</time>
      </trkpt>
      <trkpt lat="42.3407690" lon="1.8653130">
        <ele>1516.2</ele>
        <time>2015-08-12T11:28:43Z</time>
      </trkpt>
      <trkpt lat="42.3407670" lon="1.8652740">
        <ele>1515.8</ele>
        <time>2015-08-12T11:28:45Z</time>
      </trkpt>
      <trkpt lat="42.3407750" lon="1.8652100">
        <ele>1515.1</ele>
        <time>2015-08-12T11:28:48Z</time>
      </trkpt>
      <trkpt lat="42.3407920" lon="1.8651800">
        <ele>1514.7</ele>
        <time>2015-08-12T11:35:01Z</time>
      </trkpt>
      <trkpt lat="42.3407820" lon="1.8651150">
        <ele>1514.0</ele>
        <time>2015-08-12T11:36:14Z</time>
      </trkpt>
      <trkpt lat="42.3407820" lon="1.8650780">
        <ele>1513.6</ele>
        <time>2015-08-12T11:36:15Z</time>
      </trkpt>
      <trkpt lat="42.3407910" lon="1.8650230">
        <ele>1513.0</ele>
        <time>2015-08-12T11:36:16Z</time>
      </trkpt>
      <trkpt lat="42.3408060" lon="1.8649670">
        <ele>1512.4</ele>
        <time>2015-08-12T11:36:17Z</time>
      </trkpt>
      <trkpt lat="42.3408240" lon="1.8649190">
        <ele>1511.9</ele>
        <time>2015-08-12T11:36:18Z</time>
      </trkpt>
      <trkpt lat="42.3408430" lon="1.8648690">
        <ele>1511.4</ele>
        <time>2015-08-12T11:36:19Z</time>
      </trkpt>
      <trkpt lat="42.3408670" lon="1.8648290">
        <ele>1511.0</ele>
        <time>2015-08-12T11:36:20Z</time>
      </trkpt>
      <trkpt lat="42.3408840" lon="1.8648000">
        <ele>1510.8</ele>
        <time>2015-08-12T11:36:21Z</time>
      </trkpt>
      <trkpt lat="42.3409110" lon="1.8647820">
        <ele>1510.7</ele>
        <time>2015-08-12T11:36:22Z</time>
      </trkpt>
      <trkpt lat="42.3409610" lon="1.8647850">
        <ele>1510.8</ele>
        <time>2015-08-12T11:36:24Z</time>
      </trkpt>
      <trkpt lat="42.3410130" lon="1.8647960">
        <ele>1510.9</ele>
        <time>2015-08-12T11:36:26Z</time>
      </trkpt>
      <trkpt lat="42.3410620" lon="1.8647830">
        <ele>1510.9</ele>
        <time>2015-08-12T11:36:27Z</time>
      </trkpt>
      <trkpt lat="42.3411030" lon="1.8647800">
        <ele>1510.9</ele>
        <time>2015-08-12T11:36:28Z</time>
      </trkpt>
      <trkpt lat="42.3411360" lon="1.8647850">
        <ele>1511.0</ele>
        <time>2015-08-12T11:36:29Z</time>
      </trkpt>
      <trkpt lat="42.3411680" lon="1.8647600">
        <ele>1510.9</ele>
        <time>2015-08-12T11:36:33Z</time>
      </trkpt>
      <trkpt lat="42.3411940" lon="1.8647420">
        <ele>1510.8</ele>
        <time>2015-08-12T11:36:35Z</time>
      </trkpt>
      <trkpt lat="42.3412310" lon="1.8647180">
        <ele>1510.8</ele>
        <time>2015-08-12T11:36:37Z</time>
      </trkpt>
      <trkpt lat="42.3412780" lon="1.8646840">
        <ele>1510.8</ele>
        <time>2015-08-12T11:36:39Z</time>
      </trkpt>
      <trkpt lat="42.3413270" lon="1.8646580">
        <ele>1511.0</ele>
        <time>2015-08-12T11:36:41Z</time>
      </trkpt>
      <trkpt lat="42.3413680" lon="1.8646310">
        <ele>1511.3</ele>
        <time>2015-08-12T11:36:43Z</time>
      </trkpt>
      <trkpt lat="42.3414050" lon="1.8646150">
        <ele>1511.5</ele>
        <time>2015-08-12T11:36:44Z</time>
      </trkpt>
      <trkpt lat="42.3414370" lon="1.8645910">
        <ele>1511.8</ele>
        <time>2015-08-12T11:36:45Z</time>
      </trkpt>
      <trkpt lat="42.3414990" lon="1.8645730">
        <ele>1512.4</ele>
        <time>2015-08-12T11:36:46Z</time>
      </trkpt>
      <trkpt lat="42.3415380" lon="1.8645510">
        <ele>1512.8</ele>
        <time>2015-08-12T11:36:47Z</time>
      </trkpt>
      <trkpt lat="42.3415800" lon="1.8645250">
        <ele>1513.3</ele>
        <time>2015-08-12T11:36:48Z</time>
      </trkpt>
      <trkpt lat="42.3416230" lon="1.8645190">
        <ele>1513.8</ele>
        <time>2015-08-12T11:36:49Z</time>
      </trkpt>
      <trkpt lat="42.3416730" lon="1.8645160">
        <ele>1514.3</ele>
        <time>2015-08-12T11:36:50Z</time>
      </trkpt>
      <trkpt lat="42.3417060" lon="1.8644720">
        <ele>1514.9</ele>
        <time>2015-08-12T11:36:51Z</time>
      </trkpt>
      <trkpt lat="42.3417480" lon="1.8644450">
        <ele>1515.5</ele>
        <time>2015-08-12T11:36:52Z</time>
      </trkpt>
      <trkpt lat="42.3417790" lon="1.8644220">
        <ele>1516.0</ele>
        <time>2015-08-12T11:36:53Z</time>
      </trkpt>
      <trkpt lat="42.3418390" lon="1.8644420">
        <ele>1516.6</ele>
        <time>2015-08-12T11:36:54Z</time>
      </trkpt>
      <trkpt lat="42.3418990" lon="1.8644230">
        <ele>1517.5</ele>
        <time>2015-08-12T11:36:55Z</time>
      </trkpt>
      <trkpt lat="42.3419490" lon="1.8643790">
        <ele>1518.4</ele>
        <time>2015-08-12T11:36:56Z</time>
      </trkpt>
      <trkpt lat="42.3419960" lon="1.8643310">
        <ele>1519.5</ele>
        <time>2015-08-12T11:36:57Z</time>
      </trkpt>
      <trkpt lat="42.3420590" lon="1.8643010">
        <ele>1520.7</ele>
        <time>2015-08-12T11:36:58Z</time>
      </trkpt>
      <trkpt lat="42.3421030" lon="1.8642750">
        <ele>1521.1</ele>
        <time>2015-08-12T11:36:59Z</time>
      </trkpt>
      <trkpt lat="42.3421520" lon="1.8642410">
        <ele>1520.9</ele>
        <time>2015-08-12T11:37:00Z</time>
      </trkpt>
      <trkpt lat="42.3422010" lon="1.8641960">
        <ele>1520.9</ele>
        <time>2015-08-12T11:37:01Z</time>
      </trkpt>
      <trkpt lat="42.3422580" lon="1.8641290">
        <ele>1521.3</ele>
        <time>2015-08-12T11:37:02Z</time>
      </trkpt>
      <trkpt lat="42.3423110" lon="1.8640800">
        <ele>1521.5</ele>
        <time>2015-08-12T11:37:03Z</time>
      </trkpt>
      <trkpt lat="42.3423670" lon="1.8640510">
        <ele>1521.6</ele>
        <time>2015-08-12T11:37:04Z</time>
      </trkpt>
      <trkpt lat="42.3424260" lon="1.8640230">
        <ele>1521.6</ele>
        <time>2015-08-12T11:37:05Z</time>
      </trkpt>
      <trkpt lat="42.3424800" lon="1.8639900">
        <ele>1521.9</ele>
        <time>2015-08-12T11:37:06Z</time>
      </trkpt>
      <trkpt lat="42.3425340" lon="1.8639270">
        <ele>1522.8</ele>
        <time>2015-08-12T11:37:07Z</time>
      </trkpt>
      <trkpt lat="42.3426110" lon="1.8638650">
        <ele>1523.8</ele>
        <time>2015-08-12T11:37:08Z</time>
      </trkpt>
      <trkpt lat="42.3426870" lon="1.8637940">
        <ele>1525.2</ele>
        <time>2015-08-12T11:37:09Z</time>
      </trkpt>
      <trkpt lat="42.3427480" lon="1.8637480">
        <ele>1526.2</ele>
        <time>2015-08-12T11:37:10Z</time>
      </trkpt>
      <trkpt lat="42.3428110" lon="1.8636840">
        <ele>1526.9</ele>
        <time>2015-08-12T11:37:11Z</time>
      </trkpt>
      <trkpt lat="42.3428680" lon="1.8635970">
        <ele>1528.0</ele>
        <time>2015-08-12T11:37:12Z</time>
      </trkpt>
      <trkpt lat="42.3428960" lon="1.8635400">
        <ele>1528.7</ele>
        <time>2015-08-12T11:37:13Z</time>
      </trkpt>
      <trkpt lat="42.3429480" lon="1.8634950">
        <ele>1528.3</ele>
        <time>2015-08-12T11:37:14Z</time>
      </trkpt>
      <trkpt lat="42.3429960" lon="1.8634700">
        <ele>1527.0</ele>
        <time>2015-08-12T11:37:15Z</time>
      </trkpt>
      <trkpt lat="42.3430420" lon="1.8634210">
        <ele>1526.2</ele>
        <time>2015-08-12T11:37:16Z</time>
      </trkpt>
      <trkpt lat="42.3430940" lon="1.8633760">
        <ele>1525.1</ele>
        <time>2015-08-12T11:37:17Z</time>
      </trkpt>
      <trkpt lat="42.3431770" lon="1.8632590">
        <ele>1524.3</ele>
        <time>2015-08-12T11:37:18Z</time>
      </trkpt>
      <trkpt lat="42.3432320" lon="1.8631940">
        <ele>1523.6</ele>
        <time>2015-08-12T11:37:19Z</time>
      </trkpt>
      <trkpt lat="42.3433010" lon="1.8631350">
        <ele>1522.5</ele>
        <time>2015-08-12T11:37:20Z</time>
      </trkpt>
      <trkpt lat="42.3433760" lon="1.8630440">
        <ele>1522.0</ele>
        <time>2015-08-12T11:37:21Z</time>
      </trkpt>
      <trkpt lat="42.3434520" lon="1.8629520">
        <ele>1521.5</ele>
        <time>2015-08-12T11:37:22Z</time>
      </trkpt>
      <trkpt lat="42.3434620" lon="1.8628780">
        <ele>1522.1</ele>
        <time>2015-08-12T11:37:23Z</time>
      </trkpt>
      <trkpt lat="42.3434910" lon="1.8628090">
        <ele>1521.6</ele>
        <time>2015-08-12T11:37:24Z</time>
      </trkpt>
      <trkpt lat="42.3435530" lon="1.8627590">
        <ele>1520.2</ele>
        <time>2015-08-12T11:37:25Z</time>
      </trkpt>
      <trkpt lat="42.3435880" lon="1.8626810">
        <ele>1519.6</ele>
        <time>2015-08-12T11:37:26Z</time>
      </trkpt>
      <trkpt lat="42.3436250" lon="1.8626200">
        <ele>1519.0</ele>
        <time>2015-08-12T11:37:27Z</time>
      </trkpt>
      <trkpt lat="42.3436450" lon="1.8625520">
        <ele>1518.8</ele>
        <time>2015-08-12T11:37:28Z</time>
      </trkpt>
      <trkpt lat="42.3436930" lon="1.8624600">
        <ele>1518.1</ele>
        <time>2015-08-12T11:37:29Z</time>
      </trkpt>
      <trkpt lat="42.3437230" lon="1.8623830">
        <ele>1517.8</ele>
        <time>2015-08-12T11:37:30Z</time>
      </trkpt>
      <trkpt lat="42.3437700" lon="1.8623130">
        <ele>1516.7</ele>
        <time>2015-08-12T11:37:31Z</time>
      </trkpt>
      <trkpt lat="42.3437750" lon="1.8622220">
        <ele>1517.1</ele>
        <time>2015-08-12T11:37:32Z</time>
      </trkpt>
      <trkpt lat="42.3438160" lon="1.8621500">
        <ele>1515.8</ele>
        <time>2015-08-12T11:37:33Z</time>
      </trkpt>
      <trkpt lat="42.3438520" lon="1.8620920">
        <ele>1514.7</ele>
        <time>2015-08-12T11:37:34Z</time>
      </trkpt>
      <trkpt lat="42.3438860" lon="1.8620010">
        <ele>1512.5</ele>
        <time>2015-08-12T11:37:35Z</time>
      </trkpt>
      <trkpt lat="42.3438990" lon="1.8619440">
        <ele>1511.4</ele>
        <time>2015-08-12T11:37:36Z</time>
      </trkpt>
      <trkpt lat="42.3439190" lon="1.8618900">
        <ele>1510.1</ele>
        <time>2015-08-12T11:37:37Z</time>
      </trkpt>
      <trkpt lat="42.3439430" lon="1.8617720">
        <ele>1508.2</ele>
        <time>2015-08-12T11:37:38Z</time>
      </trkpt>
      <trkpt lat="42.3439770" lon="1.8617080">
        <ele>1506.4</ele>
        <time>2015-08-12T11:37:39Z</time>
      </trkpt>
      <trkpt lat="42.3440410" lon="1.8615950">
        <ele>1503.4</ele>
        <time>2015-08-12T11:37:40Z</time>
      </trkpt>
      <trkpt lat="42.3440850" lon="1.8615020">
        <ele>1501.3</ele>
        <time>2015-08-12T11:37:41Z</time>
      </trkpt>
      <trkpt lat="42.3441410" lon="1.8614080">
        <ele>1499.0</ele>
        <time>2015-08-12T11:37:42Z</time>
      </trkpt>
      <trkpt lat="42.3441710" lon="1.8612960">
        <ele>1497.6</ele>
        <time>2015-08-12T11:37:43Z</time>
      </trkpt>
      <trkpt lat="42.3442140" lon="1.8612300">
        <ele>1495.9</ele>
        <time>2015-08-12T11:37:44Z</time>
      </trkpt>
      <trkpt lat="42.3442380" lon="1.8611670">
        <ele>1494.1</ele>
        <time>2015-08-12T11:37:45Z</time>
      </trkpt>
      <trkpt lat="42.3442760" lon="1.8610820">
        <ele>1491.7</ele>
        <time>2015-08-12T11:37:46Z</time>
      </trkpt>
      <trkpt lat="42.3442880" lon="1.8609600">
        <ele>1489.3</ele>
        <time>2015-08-12T11:37:47Z</time>
      </trkpt>
      <trkpt lat="42.3442430" lon="1.8608770">
        <ele>1489.1</ele>
        <time>2015-08-12T11:37:48Z</time>
      </trkpt>
      <trkpt lat="42.3442320" lon="1.8607980">
        <ele>1488.1</ele>
        <time>2015-08-12T11:37:49Z</time>
      </trkpt>
      <trkpt lat="42.3442100" lon="1.8607010">
        <ele>1487.1</ele>
        <time>2015-08-12T11:37:50Z</time>
      </trkpt>
      <trkpt lat="42.3441940" lon="1.8606370">
        <ele>1486.4</ele>
        <time>2015-08-12T11:37:51Z</time>
      </trkpt>
      <trkpt lat="42.3441700" lon="1.8605790">
        <ele>1486.1</ele>
        <time>2015-08-12T11:37:52Z</time>
      </trkpt>
      <trkpt lat="42.3441410" lon="1.8605490">
        <ele>1486.4</ele>
        <time>2015-08-12T11:37:53Z</time>
      </trkpt>
      <trkpt lat="42.3440380" lon="1.8604900">
        <ele>1488.3</ele>
        <time>2015-08-12T11:37:54Z</time>
      </trkpt>
      <trkpt lat="42.3440120" lon="1.8604310">
        <ele>1488.0</ele>
        <time>2015-08-12T11:37:55Z</time>
      </trkpt>
      <trkpt lat="42.3439740" lon="1.8603660">
        <ele>1488.1</ele>
        <time>2015-08-12T11:37:56Z</time>
      </trkpt>
      <trkpt lat="42.3439370" lon="1.8603130">
        <ele>1488.4</ele>
        <time>2015-08-12T11:37:57Z</time>
      </trkpt>
      <trkpt lat="42.3438860" lon="1.8602590">
        <ele>1489.2</ele>
        <time>2015-08-12T11:37:58Z</time>
      </trkpt>
      <trkpt lat="42.3438400" lon="1.8601740">
        <ele>1489.6</ele>
        <time>2015-08-12T11:37:59Z</time>
      </trkpt>
      <trkpt lat="42.3437870" lon="1.8601110">
        <ele>1490.5</ele>
        <time>2015-08-12T11:38:00Z</time>
      </trkpt>
      <trkpt lat="42.3437250" lon="1.8600140">
        <ele>1491.5</ele>
        <time>2015-08-12T11:38:01Z</time>
      </trkpt>
      <trkpt lat="42.3437060" lon="1.8599160">
        <ele>1491.0</ele>
        <time>2015-08-12T11:38:02Z</time>
      </trkpt>
      <trkpt lat="42.3436870" lon="1.8598390">
        <ele>1490.8</ele>
        <time>2015-08-12T11:38:03Z</time>
      </trkpt>
      <trkpt lat="42.3436830" lon="1.8597430">
        <ele>1489.9</ele>
        <time>2015-08-12T11:38:04Z</time>
      </trkpt>
      <trkpt lat="42.3436770" lon="1.8596490">
        <ele>1489.1</ele>
        <time>2015-08-12T11:38:05Z</time>
      </trkpt>
      <trkpt lat="42.3436630" lon="1.8595580">
        <ele>1488.3</ele>
        <time>2015-08-12T11:38:06Z</time>
      </trkpt>
      <trkpt lat="42.3436590" lon="1.8594410">
        <ele>1486.1</ele>
        <time>2015-08-12T11:38:07Z</time>
      </trkpt>
      <trkpt lat="42.3436110" lon="1.8593520">
        <ele>1486.0</ele>
        <time>2015-08-12T11:38:08Z</time>
      </trkpt>
      <trkpt lat="42.3435630" lon="1.8592680">
        <ele>1486.2</ele>
        <time>2015-08-12T11:38:09Z</time>
      </trkpt>
      <trkpt lat="42.3435210" lon="1.8591820">
        <ele>1486.2</ele>
        <time>2015-08-12T11:38:10Z</time>
      </trkpt>
      <trkpt lat="42.3435030" lon="1.8590790">
        <ele>1485.1</ele>
        <time>2015-08-12T11:38:11Z</time>
      </trkpt>
      <trkpt lat="42.3434830" lon="1.8590000">
        <ele>1484.5</ele>
        <time>2015-08-12T11:38:12Z</time>
      </trkpt>
      <trkpt lat="42.3434490" lon="1.8589180">
        <ele>1484.6</ele>
        <time>2015-08-12T11:38:13Z</time>
      </trkpt>
      <trkpt lat="42.3433950" lon="1.8588380">
        <ele>1485.6</ele>
        <time>2015-08-12T11:38:14Z</time>
      </trkpt>
      <trkpt lat="42.3433590" lon="1.8587310">
        <ele>1485.5</ele>
        <time>2015-08-12T11:38:15Z</time>
      </trkpt>
      <trkpt lat="42.3433270" lon="1.8586550">
        <ele>1485.8</ele>
        <time>2015-08-12T11:38:16Z</time>
      </trkpt>
      <trkpt lat="42.3432810" lon="1.8585780">
        <ele>1486.7</ele>
        <time>2015-08-12T11:38:17Z</time>
      </trkpt>
      <trkpt lat="42.3432430" lon="1.8584990">
        <ele>1487.2</ele>
        <time>2015-08-12T11:38:18Z</time>
      </trkpt>
      <trkpt lat="42.3432010" lon="1.8584180">
        <ele>1487.9</ele>
        <time>2015-08-12T11:38:19Z</time>
      </trkpt>
      <trkpt lat="42.3431590" lon="1.8583250">
        <ele>1488.3</ele>
        <time>2015-08-12T11:38:20Z</time>
      </trkpt>
      <trkpt lat="42.3431070" lon="1.8582590">
        <ele>1489.7</ele>
        <time>2015-08-12T11:38:21Z</time>
      </trkpt>
      <trkpt lat="42.3430640" lon="1.8581960">
        <ele>1490.6</ele>
        <time>2015-08-12T11:38:22Z</time>
      </trkpt>
      <trkpt lat="42.3430170" lon="1.8581340">
        <ele>1491.8</ele>
        <time>2015-08-12T11:38:23Z</time>
      </trkpt>
      <trkpt lat="42.3429970" lon="1.8580600">
        <ele>1491.6</ele>
        <time>2015-08-12T11:38:24Z</time>
      </trkpt>
      <trkpt lat="42.3429930" lon="1.8579970">
        <ele>1490.8</ele>
        <time>2015-08-12T11:38:25Z</time>
      </trkpt>
      <trkpt lat="42.3429920" lon="1.8579440">
        <ele>1490.0</ele>
        <time>2015-08-12T11:38:26Z</time>
      </trkpt>
      <trkpt lat="42.3429840" lon="1.8579030">
        <ele>1489.8</ele>
        <time>2015-08-12T11:38:29Z</time>
      </trkpt>
      <trkpt lat="42.3430190" lon="1.8578560">
        <ele>1487.8</ele>
        <time>2015-08-12T11:38:32Z</time>
      </trkpt>
      <trkpt lat="42.3430250" lon="1.8578070">
        <ele>1487.0</ele>
        <time>2015-08-12T11:38:34Z</time>
      </trkpt>
      <trkpt lat="42.3430360" lon="1.8577430">
        <ele>1485.9</ele>
        <time>2015-08-12T11:38:36Z</time>
      </trkpt>
      <trkpt lat="42.3430460" lon="1.8577090">
        <ele>1485.1</ele>
        <time>2015-08-12T11:38:37Z</time>
      </trkpt>
      <trkpt lat="42.3430580" lon="1.8576560">
        <ele>1484.1</ele>
        <time>2015-08-12T11:38:40Z</time>
      </trkpt>
      <trkpt lat="42.3430800" lon="1.8576010">
        <ele>1482.6</ele>
        <time>2015-08-12T11:38:42Z</time>
      </trkpt>
      <trkpt lat="42.3430800" lon="1.8575350">
        <ele>1482.0</ele>
        <time>2015-08-12T11:38:44Z</time>
      </trkpt>
      <trkpt lat="42.3430660" lon="1.8575040">
        <ele>1482.3</ele>
        <time>2015-08-12T11:38:45Z</time>
      </trkpt>
      <trkpt lat="42.3430770" lon="1.8574440">
        <ele>1481.3</ele>
        <time>2015-08-12T11:38:46Z</time>
      </trkpt>
      <trkpt lat="42.3430820" lon="1.8573880">
        <ele>1480.5</ele>
        <time>2015-08-12T11:38:47Z</time>
      </trkpt>
      <trkpt lat="42.3430690" lon="1.8573320">
        <ele>1480.6</ele>
        <time>2015-08-12T11:38:48Z</time>
      </trkpt>
      <trkpt lat="42.3430810" lon="1.8572650">
        <ele>1479.4</ele>
        <time>2015-08-12T11:38:49Z</time>
      </trkpt>
      <trkpt lat="42.3430790" lon="1.8572200">
        <ele>1479.1</ele>
        <time>2015-08-12T11:38:50Z</time>
      </trkpt>
      <trkpt lat="42.3430560" lon="1.8571750">
        <ele>1479.7</ele>
        <time>2015-08-12T11:38:51Z</time>
      </trkpt>
      <trkpt lat="42.3430700" lon="1.8571340">
        <ele>1478.7</ele>
        <time>2015-08-12T11:38:52Z</time>
      </trkpt>
      <trkpt lat="42.3430560" lon="1.8570870">
        <ele>1478.8</ele>
        <time>2015-08-12T11:38:53Z</time>
      </trkpt>
      <trkpt lat="42.3430770" lon="1.8570340">
        <ele>1476.9</ele>
        <time>2015-08-12T11:38:54Z</time>
      </trkpt>
      <trkpt lat="42.3430610" lon="1.8569750">
        <ele>1476.5</ele>
        <time>2015-08-12T11:38:55Z</time>
      </trkpt>
      <trkpt lat="42.3430520" lon="1.8569090">
        <ele>1475.7</ele>
        <time>2015-08-12T11:38:56Z</time>
      </trkpt>
      <trkpt lat="42.3430170" lon="1.8569020">
        <ele>1477.1</ele>
        <time>2015-08-12T11:38:59Z</time>
      </trkpt>
      <trkpt lat="42.3429850" lon="1.8568410">
        <ele>1477.3</ele>
        <time>2015-08-12T11:39:01Z</time>
      </trkpt>
      <trkpt lat="42.3429940" lon="1.8567870">
        <ele>1475.9</ele>
        <time>2015-08-12T11:39:03Z</time>
      </trkpt>
      <trkpt lat="42.3429710" lon="1.8567320">
        <ele>1475.9</ele>
        <time>2015-08-12T11:39:05Z</time>
      </trkpt>
      <trkpt lat="42.3429480" lon="1.8566850">
        <ele>1476.0</ele>
        <time>2015-08-12T11:39:07Z</time>
      </trkpt>
      <trkpt lat="42.3429240" lon="1.8566310">
        <ele>1476.0</ele>
        <time>2015-08-12T11:39:09Z</time>
      </trkpt>
      <trkpt lat="42.3429070" lon="1.8565990">
        <ele>1475.8</ele>
        <time>2015-08-12T11:39:11Z</time>
      </trkpt>
      <trkpt lat="42.3428890" lon="1.8565580">
        <ele>1475.3</ele>
        <time>2015-08-12T11:39:14Z</time>
      </trkpt>
      <trkpt lat="42.3428740" lon="1.8565110">
        <ele>1474.6</ele>
        <time>2015-08-12T11:39:17Z</time>
      </trkpt>
      <trkpt lat="42.3428450" lon="1.8564750">
        <ele>1474.3</ele>
        <time>2015-08-12T11:39:20Z</time>
      </trkpt>
      <trkpt lat="42.3428170" lon="1.8564250">
        <ele>1473.9</ele>
        <time>2015-08-12T11:39:24Z</time>
      </trkpt>
      <trkpt lat="42.3427890" lon="1.8564010">
        <ele>1473.9</ele>
        <time>2015-08-12T11:39:27Z</time>
      </trkpt>
      <trkpt lat="42.3427740" lon="1.8563660">
        <ele>1473.6</ele>
        <time>2015-08-12T11:39:29Z</time>
      </trkpt>
      <trkpt lat="42.3427320" lon="1.8563600">
        <ele>1474.2</ele>
        <time>2015-08-12T11:39:31Z</time>
      </trkpt>
      <trkpt lat="42.3427320" lon="1.8563210">
        <ele>1473.6</ele>
        <time>2015-08-12T11:39:33Z</time>
      </trkpt>
      <trkpt lat="42.3427050" lon="1.8563210">
        <ele>1474.1</ele>
        <time>2015-08-12T11:39:34Z</time>
      </trkpt>
      <trkpt lat="42.3427350" lon="1.8563110">
        <ele>1473.4</ele>
        <time>2015-08-12T11:39:39Z</time>
      </trkpt>
      <trkpt lat="42.3427640" lon="1.8562810">
        <ele>1472.4</ele>
        <time>2015-08-12T11:39:48Z</time>
      </trkpt>
      <trkpt lat="42.3427930" lon="1.8562700">
        <ele>1471.7</ele>
        <time>2015-08-12T11:39:50Z</time>
      </trkpt>
      <trkpt lat="42.3427710" lon="1.8562410">
        <ele>1471.6</ele>
        <time>2015-08-12T11:39:53Z</time>
      </trkpt>
      <trkpt lat="42.3427750" lon="1.8562010">
        <ele>1470.8</ele>
        <time>2015-08-12T11:39:58Z</time>
      </trkpt>
      <trkpt lat="42.3427500" lon="1.8561590">
        <ele>1470.5</ele>
        <time>2015-08-12T11:40:20Z</time>
      </trkpt>
      <trkpt lat="42.3427150" lon="1.8561140">
        <ele>1470.4</ele>
        <time>2015-08-12T11:40:23Z</time>
      </trkpt>
      <trkpt lat="42.3426930" lon="1.8560620">
        <ele>1469.9</ele>
        <time>2015-08-12T11:40:25Z</time>
      </trkpt>
      <trkpt lat="42.3426770" lon="1.8560300">
        <ele>1469.6</ele>
        <time>2015-08-12T11:40:26Z</time>
      </trkpt>
      <trkpt lat="42.3426480" lon="1.8559920">
        <ele>1469.6</ele>
        <time>2015-08-12T11:40:27Z</time>
      </trkpt>
      <trkpt lat="42.3426270" lon="1.8559510">
        <ele>1469.3</ele>
        <time>2015-08-12T11:40:28Z</time>
      </trkpt>
      <trkpt lat="42.3425940" lon="1.8558790">
        <ele>1468.8</ele>
        <time>2015-08-12T11:40:29Z</time>
      </trkpt>
      <trkpt lat="42.3425650" lon="1.8558210">
        <ele>1468.5</ele>
        <time>2015-08-12T11:40:30Z</time>
      </trkpt>
      <trkpt lat="42.3425410" lon="1.8557610">
        <ele>1468.1</ele>
        <time>2015-08-12T11:40:31Z</time>
      </trkpt>
      <trkpt lat="42.3425140" lon="1.8557030">
        <ele>1467.8</ele>
        <time>2015-08-12T11:40:32Z</time>
      </trkpt>
      <trkpt lat="42.3424540" lon="1.8556460">
        <ele>1468.4</ele>
        <time>2015-08-12T11:40:33Z</time>
      </trkpt>
      <trkpt lat="42.3424120" lon="1.8555840">
        <ele>1468.5</ele>
        <time>2015-08-12T11:40:34Z</time>
      </trkpt>
      <trkpt lat="42.3423560" lon="1.8555130">
        <ele>1468.9</ele>
        <time>2015-08-12T11:40:35Z</time>
      </trkpt>
      <trkpt lat="42.3423210" lon="1.8554340">
        <ele>1468.7</ele>
        <time>2015-08-12T11:40:36Z</time>
      </trkpt>
      <trkpt lat="42.3422800" lon="1.8553250">
        <ele>1467.6</ele>
        <time>2015-08-12T11:40:37Z</time>
      </trkpt>
      <trkpt lat="42.3422460" lon="1.8552540">
        <ele>1467.0</ele>
        <time>2015-08-12T11:40:38Z</time>
      </trkpt>
      <trkpt lat="42.3422020" lon="1.8551800">
        <ele>1466.7</ele>
        <time>2015-08-12T11:40:39Z</time>
      </trkpt>
      <trkpt lat="42.3421470" lon="1.8551180">
        <ele>1467.0</ele>
        <time>2015-08-12T11:40:40Z</time>
      </trkpt>
      <trkpt lat="42.3421250" lon="1.8550670">
        <ele>1466.6</ele>
        <time>2015-08-12T11:40:41Z</time>
      </trkpt>
      <trkpt lat="42.3420920" lon="1.8550100">
        <ele>1466.4</ele>
        <time>2015-08-12T11:40:42Z</time>
      </trkpt>
      <trkpt lat="42.3420530" lon="1.8549550">
        <ele>1464.8</ele>
        <time>2015-08-12T11:40:43Z</time>
      </trkpt>
      <trkpt lat="42.3420330" lon="1.8548120">
        <ele>1461.5</ele>
        <time>2015-08-12T11:40:44Z</time>
      </trkpt>
      <trkpt lat="42.3420120" lon="1.8547330">
        <ele>1459.4</ele>
        <time>2015-08-12T11:40:45Z</time>
      </trkpt>
      <trkpt lat="42.3419690" lon="1.8547050">
        <ele>1457.9</ele>
        <time>2015-08-12T11:40:46Z</time>
      </trkpt>
      <trkpt lat="42.3419010" lon="1.8546580">
        <ele>1455.4</ele>
        <time>2015-08-12T11:40:47Z</time>
      </trkpt>
      <trkpt lat="42.3418370" lon="1.8546270">
        <ele>1453.5</ele>
        <time>2015-08-12T11:40:48Z</time>
      </trkpt>
      <trkpt lat="42.3418080" lon="1.8545200">
        <ele>1450.9</ele>
        <time>2015-08-12T11:40:49Z</time>
      </trkpt>
      <trkpt lat="42.3417600" lon="1.8544580">
        <ele>1448.9</ele>
        <time>2015-08-12T11:40:50Z</time>
      </trkpt>
      <trkpt lat="42.3417430" lon="1.8543910">
        <ele>1447.5</ele>
        <time>2015-08-12T11:40:51Z</time>
      </trkpt>
      <trkpt lat="42.3417460" lon="1.8542740">
        <ele>1445.6</ele>
        <time>2015-08-12T11:40:52Z</time>
      </trkpt>
      <trkpt lat="42.3417180" lon="1.8542080">
        <ele>1444.1</ele>
        <time>2015-08-12T11:40:53Z</time>
      </trkpt>
      <trkpt lat="42.3417220" lon="1.8540430">
        <ele>1441.5</ele>
        <time>2015-08-12T11:40:54Z</time>
      </trkpt>
      <trkpt lat="42.3416220" lon="1.8540450">
        <ele>1440.4</ele>
        <time>2015-08-12T11:40:55Z</time>
      </trkpt>
      <trkpt lat="42.3415740" lon="1.8539670">
        <ele>1438.8</ele>
        <time>2015-08-12T11:40:56Z</time>
      </trkpt>
      <trkpt lat="42.3415460" lon="1.8538790">
        <ele>1437.4</ele>
        <time>2015-08-12T11:40:57Z</time>
      </trkpt>
      <trkpt lat="42.3415480" lon="1.8537880">
        <ele>1436.3</ele>
        <time>2015-08-12T11:40:58Z</time>
      </trkpt>
      <trkpt lat="42.3415440" lon="1.8536890">
        <ele>1434.5</ele>
        <time>2015-08-12T11:40:59Z</time>
      </trkpt>
      <trkpt lat="42.3415150" lon="1.8536150">
        <ele>1432.9</ele>
        <time>2015-08-12T11:41:00Z</time>
      </trkpt>
      <trkpt lat="42.3414750" lon="1.8535220">
        <ele>1430.8</ele>
        <time>2015-08-12T11:41:01Z</time>
      </trkpt>
      <trkpt lat="42.3414610" lon="1.8534230">
        <ele>1428.8</ele>
        <time>2015-08-12T11:41:02Z</time>
      </trkpt>
      <trkpt lat="42.3414310" lon="1.8533420">
        <ele>1427.1</ele>
        <time>2015-08-12T11:41:03Z</time>
      </trkpt>
      <trkpt lat="42.3414030" lon="1.8532190">
        <ele>1424.7</ele>
        <time>2015-08-12T11:41:04Z</time>
      </trkpt>
      <trkpt lat="42.3413730" lon="1.8531180">
        <ele>1422.7</ele>
        <time>2015-08-12T11:41:05Z</time>
      </trkpt>
      <trkpt lat="42.3413490" lon="1.8530330">
        <ele>1421.1</ele>
        <time>2015-08-12T11:41:06Z</time>
      </trkpt>
      <trkpt lat="42.3413230" lon="1.8529650">
        <ele>1419.8</ele>
        <time>2015-08-12T11:41:07Z</time>
      </trkpt>
      <trkpt lat="42.3413130" lon="1.8529010">
        <ele>1418.5</ele>
        <time>2015-08-12T11:41:08Z</time>
      </trkpt>
      <trkpt lat="42.3413280" lon="1.8528440">
        <ele>1417.1</ele>
        <time>2015-08-12T11:41:09Z</time>
      </trkpt>
      <trkpt lat="42.3413300" lon="1.8527770">
        <ele>1415.3</ele>
        <time>2015-08-12T11:41:11Z</time>
      </trkpt>
      <trkpt lat="42.3413390" lon="1.8527160">
        <ele>1413.8</ele>
        <time>2015-08-12T11:41:13Z</time>
      </trkpt>
      <trkpt lat="42.3413260" lon="1.8526820">
        <ele>1412.9</ele>
        <time>2015-08-12T11:41:15Z</time>
      </trkpt>
      <trkpt lat="42.3413530" lon="1.8526730">
        <ele>1412.6</ele>
        <time>2015-08-12T11:41:23Z</time>
      </trkpt>
      <trkpt lat="42.3413710" lon="1.8525930">
        <ele>1410.5</ele>
        <time>2015-08-12T11:41:50Z</time>
      </trkpt>
      <trkpt lat="42.3413840" lon="1.8525550">
        <ele>1409.5</ele>
        <time>2015-08-12T11:41:51Z</time>
      </trkpt>
      <trkpt lat="42.3413200" lon="1.8525310">
        <ele>1409.1</ele>
        <time>2015-08-12T11:41:53Z</time>
      </trkpt>
      <trkpt lat="42.3413040" lon="1.8524840">
        <ele>1407.9</ele>
        <time>2015-08-12T11:41:55Z</time>
      </trkpt>
      <trkpt lat="42.3412780" lon="1.8524760">
        <ele>1407.8</ele>
        <time>2015-08-12T11:41:57Z</time>
      </trkpt>
      <trkpt lat="42.3412650" lon="1.8524050">
        <ele>1406.1</ele>
        <time>2015-08-12T11:41:59Z</time>
      </trkpt>
      <trkpt lat="42.3412290" lon="1.8523220">
        <ele>1402.6</ele>
        <time>2015-08-12T11:42:02Z</time>
      </trkpt>
      <trkpt lat="42.3412100" lon="1.8522660">
        <ele>1400.0</ele>
        <time>2015-08-12T11:42:04Z</time>
      </trkpt>
      <trkpt lat="42.3412020" lon="1.8522290">
        <ele>1398.5</ele>
        <time>2015-08-12T11:42:05Z</time>
      </trkpt>
      <trkpt lat="42.3411900" lon="1.8521860">
        <ele>1396.7</ele>
        <time>2015-08-12T11:42:06Z</time>
      </trkpt>
      <trkpt lat="42.3411820" lon="1.8521370">
        <ele>1394.9</ele>
        <time>2015-08-12T11:42:07Z</time>
      </trkpt>
      <trkpt lat="42.3411820" lon="1.8520930">
        <ele>1393.8</ele>
        <time>2015-08-12T11:42:08Z</time>
      </trkpt>
      <trkpt lat="42.3411240" lon="1.8520390">
        <ele>1388.9</ele>
        <time>2015-08-12T11:42:09Z</time>
      </trkpt>
      <trkpt lat="42.3410950" lon="1.8519830">
        <ele>1385.9</ele>
        <time>2015-08-12T11:42:10Z</time>
      </trkpt>
      <trkpt lat="42.3410860" lon="1.8519480">
        <ele>1384.6</ele>
        <time>2015-08-12T11:42:11Z</time>
      </trkpt>
      <trkpt lat="42.3410670" lon="1.8519190">
        <ele>1382.9</ele>
        <time>2015-08-12T11:42:12Z</time>
      </trkpt>
      <trkpt lat="42.3410510" lon="1.8518520">
        <ele>1380.5</ele>
        <time>2015-08-12T11:42:13Z</time>
      </trkpt>
      <trkpt lat="42.3410350" lon="1.8517910">
        <ele>1378.3</ele>
        <time>2015-08-12T11:42:14Z</time>
      </trkpt>
      <trkpt lat="42.3410480" lon="1.8517570">
        <ele>1378.4</ele>
        <time>2015-08-12T11:42:15Z</time>
      </trkpt>
      <trkpt lat="42.3410410" lon="1.8516910">
        <ele>1376.7</ele>
        <time>2015-08-12T11:42:17Z</time>
      </trkpt>
      <trkpt lat="42.3410410" lon="1.8516510">
        <ele>1375.9</ele>
        <time>2015-08-12T11:42:18Z</time>
      </trkpt>
      <trkpt lat="42.3410530" lon="1.8515910">
        <ele>1375.4</ele>
        <time>2015-08-12T11:42:20Z</time>
      </trkpt>
      <trkpt lat="42.3410570" lon="1.8515540">
        <ele>1374.9</ele>
        <time>2015-08-12T11:42:21Z</time>
      </trkpt>
      <trkpt lat="42.3410480" lon="1.8514470">
        <ele>1372.3</ele>
        <time>2015-08-12T11:42:23Z</time>
      </trkpt>
      <trkpt lat="42.3410490" lon="1.8513480">
        <ele>1370.4</ele>
        <time>2015-08-12T11:42:24Z</time>
      </trkpt>
      <trkpt lat="42.3410650" lon="1.8512680">
        <ele>1369.7</ele>
        <time>2015-08-12T11:42:25Z</time>
      </trkpt>
      <trkpt lat="42.3410760" lon="1.8511750">
        <ele>1370.0</ele>
        <time>2015-08-12T11:42:26Z</time>
      </trkpt>
      <trkpt lat="42.3410990" lon="1.8510860">
        <ele>1371.3</ele>
        <time>2015-08-12T11:42:27Z</time>
      </trkpt>
      <trkpt lat="42.3411390" lon="1.8510160">
        <ele>1373.6</ele>
        <time>2015-08-12T11:42:28Z</time>
      </trkpt>
      <trkpt lat="42.3411380" lon="1.8509490">
        <ele>1373.6</ele>
        <time>2015-08-12T11:42:29Z</time>
      </trkpt>
      <trkpt lat="42.3411560" lon="1.8509060">
        <ele>1374.6</ele>
        <time>2015-08-12T11:42:30Z</time>
      </trkpt>
      <trkpt lat="42.3411560" lon="1.8508520">
        <ele>1374.6</ele>
        <time>2015-08-12T11:42:31Z</time>
      </trkpt>
      <trkpt lat="42.3411550" lon="1.8508130">
        <ele>1374.6</ele>
        <time>2015-08-12T11:42:33Z</time>
      </trkpt>
      <trkpt lat="42.3411690" lon="1.8507640">
        <ele>1375.4</ele>
        <time>2015-08-12T11:42:54Z</time>
      </trkpt>
      <trkpt lat="42.3411700" lon="1.8507210">
        <ele>1375.5</ele>
        <time>2015-08-12T11:42:55Z</time>
      </trkpt>
      <trkpt lat="42.3411750" lon="1.8506690">
        <ele>1375.7</ele>
        <time>2015-08-12T11:42:57Z</time>
      </trkpt>
      <trkpt lat="42.3411680" lon="1.8506340">
        <ele>1375.3</ele>
        <time>2015-08-12T11:42:59Z</time>
      </trkpt>
      <trkpt lat="42.3411600" lon="1.8505770">
        <ele>1374.9</ele>
        <time>2015-08-12T11:43:02Z</time>
      </trkpt>
      <trkpt lat="42.3411560" lon="1.8505350">
        <ele>1374.7</ele>
        <time>2015-08-12T11:43:03Z</time>
      </trkpt>
      <trkpt lat="42.3411480" lon="1.8504940">
        <ele>1374.2</ele>
        <time>2015-08-12T11:43:04Z</time>
      </trkpt>
      <trkpt lat="42.3411310" lon="1.8504560">
        <ele>1373.3</ele>
        <time>2015-08-12T11:43:05Z</time>
      </trkpt>
      <trkpt lat="42.3411250" lon="1.8504150">
        <ele>1373.0</ele>
        <time>2015-08-12T11:43:06Z</time>
      </trkpt>
      <trkpt lat="42.3411360" lon="1.8503800">
        <ele>1374.0</ele>
        <time>2015-08-12T11:43:07Z</time>
      </trkpt>
      <trkpt lat="42.3411220" lon="1.8503070">
        <ele>1374.0</ele>
        <time>2015-08-12T11:43:09Z</time>
      </trkpt>
      <trkpt lat="42.3411130" lon="1.8502280">
        <ele>1374.5</ele>
        <time>2015-08-12T11:43:11Z</time>
      </trkpt>
      <trkpt lat="42.3411170" lon="1.8501910">
        <ele>1375.1</ele>
        <time>2015-08-12T11:43:12Z</time>
      </trkpt>
      <trkpt lat="42.3411040" lon="1.8501350">
        <ele>1375.1</ele>
        <time>2015-08-12T11:43:13Z</time>
      </trkpt>
      <trkpt lat="42.3410930" lon="1.8500790">
        <ele>1375.2</ele>
        <time>2015-08-12T11:43:14Z</time>
      </trkpt>
      <trkpt lat="42.3410800" lon="1.8500160">
        <ele>1375.2</ele>
        <time>2015-08-12T11:43:15Z</time>
      </trkpt>
      <trkpt lat="42.3410630" lon="1.8499630">
        <ele>1375.0</ele>
        <time>2015-08-12T11:43:16Z</time>
      </trkpt>
      <trkpt lat="42.3410480" lon="1.8498940">
        <ele>1375.1</ele>
        <time>2015-08-12T11:43:17Z</time>
      </trkpt>
      <trkpt lat="42.3410350" lon="1.8498240">
        <ele>1375.4</ele>
        <time>2015-08-12T11:43:18Z</time>
      </trkpt>
      <trkpt lat="42.3410140" lon="1.8497660">
        <ele>1375.1</ele>
        <time>2015-08-12T11:43:19Z</time>
      </trkpt>
      <trkpt lat="42.3409860" lon="1.8497130">
        <ele>1374.5</ele>
        <time>2015-08-12T11:43:20Z</time>
      </trkpt>
      <trkpt lat="42.3409550" lon="1.8496540">
        <ele>1373.9</ele>
        <time>2015-08-12T11:43:21Z</time>
      </trkpt>
      <trkpt lat="42.3409350" lon="1.8495980">
        <ele>1373.8</ele>
        <time>2015-08-12T11:43:22Z</time>
      </trkpt>
      <trkpt lat="42.3409100" lon="1.8495270">
        <ele>1373.4</ele>
        <time>2015-08-12T11:43:23Z</time>
      </trkpt>
      <trkpt lat="42.3408830" lon="1.8494550">
        <ele>1372.8</ele>
        <time>2015-08-12T11:43:24Z</time>
      </trkpt>
      <trkpt lat="42.3408550" lon="1.8493870">
        <ele>1372.3</ele>
        <time>2015-08-12T11:43:25Z</time>
      </trkpt>
      <trkpt lat="42.3408320" lon="1.8493190">
        <ele>1372.0</ele>
        <time>2015-08-12T11:43:26Z</time>
      </trkpt>
      <trkpt lat="42.3408110" lon="1.8492720">
        <ele>1371.6</ele>
        <time>2015-08-12T11:43:27Z</time>
      </trkpt>
      <trkpt lat="42.3408030" lon="1.8492100">
        <ele>1371.9</ele>
        <time>2015-08-12T11:43:28Z</time>
      </trkpt>
      <trkpt lat="42.3407660" lon="1.8491340">
        <ele>1371.3</ele>
        <time>2015-08-12T11:43:29Z</time>
      </trkpt>
      <trkpt lat="42.3407480" lon="1.8490700">
        <ele>1371.4</ele>
        <time>2015-08-12T11:43:30Z</time>
      </trkpt>
      <trkpt lat="42.3407250" lon="1.8490020">
        <ele>1371.4</ele>
        <time>2015-08-12T11:43:31Z</time>
      </trkpt>
      <trkpt lat="42.3407070" lon="1.8489270">
        <ele>1371.6</ele>
        <time>2015-08-12T11:43:32Z</time>
      </trkpt>
      <trkpt lat="42.3406940" lon="1.8488470">
        <ele>1372.2</ele>
        <time>2015-08-12T11:43:33Z</time>
      </trkpt>
      <trkpt lat="42.3406690" lon="1.8487680">
        <ele>1372.3</ele>
        <time>2015-08-12T11:43:34Z</time>
      </trkpt>
      <trkpt lat="42.3406480" lon="1.8486970">
        <ele>1371.6</ele>
        <time>2015-08-12T11:43:35Z</time>
      </trkpt>
      <trkpt lat="42.3406380" lon="1.8486440">
        <ele>1370.9</ele>
        <time>2015-08-12T11:43:36Z</time>
      </trkpt>
      <trkpt lat="42.3406220" lon="1.8485980">
        <ele>1370.2</ele>
        <time>2015-08-12T11:43:37Z</time>
      </trkpt>
      <trkpt lat="42.3406300" lon="1.8485480">
        <ele>1370.1</ele>
        <time>2015-08-12T11:43:38Z</time>
      </trkpt>
      <trkpt lat="42.3406220" lon="1.8484940">
        <ele>1369.5</ele>
        <time>2015-08-12T11:43:39Z</time>
      </trkpt>
      <trkpt lat="42.3406220" lon="1.8484450">
        <ele>1369.2</ele>
        <time>2015-08-12T11:43:40Z</time>
      </trkpt>
      <trkpt lat="42.3406310" lon="1.8483930">
        <ele>1369.1</ele>
        <time>2015-08-12T11:43:41Z</time>
      </trkpt>
      <trkpt lat="42.3406210" lon="1.8483210">
        <ele>1368.3</ele>
        <time>2015-08-12T11:43:42Z</time>
      </trkpt>
      <trkpt lat="42.3406220" lon="1.8482650">
        <ele>1368.0</ele>
        <time>2015-08-12T11:43:43Z</time>
      </trkpt>
      <trkpt lat="42.3406040" lon="1.8481970">
        <ele>1367.1</ele>
        <time>2015-08-12T11:43:44Z</time>
      </trkpt>
      <trkpt lat="42.3405840" lon="1.8481430">
        <ele>1366.2</ele>
        <time>2015-08-12T11:43:45Z</time>
      </trkpt>
      <trkpt lat="42.3405540" lon="1.8480880">
        <ele>1365.2</ele>
        <time>2015-08-12T11:43:46Z</time>
      </trkpt>
      <trkpt lat="42.3405120" lon="1.8480410">
        <ele>1363.9</ele>
        <time>2015-08-12T11:43:47Z</time>
      </trkpt>
      <trkpt lat="42.3404620" lon="1.8480420">
        <ele>1362.7</ele>
        <time>2015-08-12T11:43:48Z</time>
      </trkpt>
      <trkpt lat="42.3404180" lon="1.8480350">
        <ele>1361.6</ele>
        <time>2015-08-12T11:43:49Z</time>
      </trkpt>
      <trkpt lat="42.3403690" lon="1.8480150">
        <ele>1358.5</ele>
        <time>2015-08-12T11:43:50Z</time>
      </trkpt>
      <trkpt lat="42.3403090" lon="1.8479940">
        <ele>1354.7</ele>
        <time>2015-08-12T11:43:51Z</time>
      </trkpt>
      <trkpt lat="42.3402820" lon="1.8479260">
        <ele>1352.6</ele>
        <time>2015-08-12T11:43:52Z</time>
      </trkpt>
      <trkpt lat="42.3402390" lon="1.8478570">
        <ele>1348.1</ele>
        <time>2015-08-12T11:43:53Z</time>
      </trkpt>
      <trkpt lat="42.3401960" lon="1.8477740">
        <ele>1343.0</ele>
        <time>2015-08-12T11:43:54Z</time>
      </trkpt>
      <trkpt lat="42.3402480" lon="1.8476900">
        <ele>1343.6</ele>
        <time>2015-08-12T11:43:55Z</time>
      </trkpt>
      <trkpt lat="42.3402810" lon="1.8475860">
        <ele>1342.3</ele>
        <time>2015-08-12T11:43:56Z</time>
      </trkpt>
      <trkpt lat="42.3403160" lon="1.8475140">
        <ele>1342.1</ele>
        <time>2015-08-12T11:43:57Z</time>
      </trkpt>
      <trkpt lat="42.3403600" lon="1.8474480">
        <ele>1342.6</ele>
        <time>2015-08-12T11:43:58Z</time>
      </trkpt>
      <trkpt lat="42.3404440" lon="1.8474100">
        <ele>1345.3</ele>
        <time>2015-08-12T11:43:59Z</time>
      </trkpt>
      <trkpt lat="42.3405150" lon="1.8473700">
        <ele>1345.8</ele>
        <time>2015-08-12T11:44:00Z</time>
      </trkpt>
      <trkpt lat="42.3405930" lon="1.8473470">
        <ele>1347.0</ele>
        <time>2015-08-12T11:44:01Z</time>
      </trkpt>
      <trkpt lat="42.3406680" lon="1.8473450">
        <ele>1348.8</ele>
        <time>2015-08-12T11:44:02Z</time>
      </trkpt>
      <trkpt lat="42.3407350" lon="1.8473320">
        <ele>1350.1</ele>
        <time>2015-08-12T11:44:03Z</time>
      </trkpt>
      <trkpt lat="42.3407980" lon="1.8473080">
        <ele>1351.0</ele>
        <time>2015-08-12T11:44:04Z</time>
      </trkpt>
      <trkpt lat="42.3408600" lon="1.8472730">
        <ele>1351.5</ele>
        <time>2015-08-12T11:44:05Z</time>
      </trkpt>
      <trkpt lat="42.3409340" lon="1.8472440">
        <ele>1352.5</ele>
        <time>2015-08-12T11:44:06Z</time>
      </trkpt>
      <trkpt lat="42.3409960" lon="1.8472000">
        <ele>1352.8</ele>
        <time>2015-08-12T11:44:07Z</time>
      </trkpt>
      <trkpt lat="42.3410680" lon="1.8472310">
        <ele>1355.6</ele>
        <time>2015-08-12T11:44:08Z</time>
      </trkpt>
      <trkpt lat="42.3411300" lon="1.8472320">
        <ele>1357.2</ele>
        <time>2015-08-12T11:44:09Z</time>
      </trkpt>
      <trkpt lat="42.3411850" lon="1.8472710">
        <ele>1359.7</ele>
        <time>2015-08-12T11:44:10Z</time>
      </trkpt>
      <trkpt lat="42.3412430" lon="1.8473310">
        <ele>1363.0</ele>
        <time>2015-08-12T11:44:11Z</time>
      </trkpt>
      <trkpt lat="42.3412960" lon="1.8473930">
        <ele>1364.4</ele>
        <time>2015-08-12T11:44:12Z</time>
      </trkpt>
      <trkpt lat="42.3413250" lon="1.8474660">
        <ele>1366.1</ele>
        <time>2015-08-12T11:44:13Z</time>
      </trkpt>
      <trkpt lat="42.3413630" lon="1.8475410">
        <ele>1367.6</ele>
        <time>2015-08-12T11:44:14Z</time>
      </trkpt>
      <trkpt lat="42.3414070" lon="1.8476310">
        <ele>1369.3</ele>
        <time>2015-08-12T11:44:15Z</time>
      </trkpt>
      <trkpt lat="42.3414500" lon="1.8477130">
        <ele>1370.6</ele>
        <time>2015-08-12T11:44:16Z</time>
      </trkpt>
      <trkpt lat="42.3414910" lon="1.8478000">
        <ele>1372.0</ele>
        <time>2015-08-12T11:44:17Z</time>
      </trkpt>
      <trkpt lat="42.3415260" lon="1.8478830">
        <ele>1373.3</ele>
        <time>2015-08-12T11:44:18Z</time>
      </trkpt>
      <trkpt lat="42.3415660" lon="1.8479820">
        <ele>1373.9</ele>
        <time>2015-08-12T11:44:19Z</time>
      </trkpt>
      <trkpt lat="42.3416010" lon="1.8480730">
        <ele>1374.1</ele>
        <time>2015-08-12T11:44:20Z</time>
      </trkpt>
      <trkpt lat="42.3416250" lon="1.8481510">
        <ele>1374.5</ele>
        <time>2015-08-12T11:44:21Z</time>
      </trkpt>
      <trkpt lat="42.3416870" lon="1.8482250">
        <ele>1373.9</ele>
        <time>2015-08-12T11:44:22Z</time>
      </trkpt>
      <trkpt lat="42.3417350" lon="1.8482890">
        <ele>1373.5</ele>
        <time>2015-08-12T11:44:23Z</time>
      </trkpt>
      <trkpt lat="42.3417850" lon="1.8483430">
        <ele>1372.9</ele>
        <time>2015-08-12T11:44:24Z</time>
      </trkpt>
      <trkpt lat="42.3418310" lon="1.8484050">
        <ele>1372.5</ele>
        <time>2015-08-12T11:44:25Z</time>
      </trkpt>
      <trkpt lat="42.3418400" lon="1.8484760">
        <ele>1373.0</ele>
        <time>2015-08-12T11:44:26Z</time>
      </trkpt>
      <trkpt lat="42.3418730" lon="1.8485400">
        <ele>1372.9</ele>
        <time>2015-08-12T11:44:27Z</time>
      </trkpt>
      <trkpt lat="42.3419090" lon="1.8485820">
        <ele>1372.5</ele>
        <time>2015-08-12T11:44:28Z</time>
      </trkpt>
      <trkpt lat="42.3419480" lon="1.8485470">
        <ele>1371.2</ele>
        <time>2015-08-12T11:44:29Z</time>
      </trkpt>
      <trkpt lat="42.3419770" lon="1.8485150">
        <ele>1370.2</ele>
        <time>2015-08-12T11:44:30Z</time>
      </trkpt>
      <trkpt lat="42.3420020" lon="1.8484720">
        <ele>1369.2</ele>
        <time>2015-08-12T11:44:31Z</time>
      </trkpt>
      <trkpt lat="42.3420060" lon="1.8484260">
        <ele>1368.7</ele>
        <time>2015-08-12T11:44:32Z</time>
      </trkpt>
      <trkpt lat="42.3420090" lon="1.8483600">
        <ele>1368.0</ele>
        <time>2015-08-12T11:44:33Z</time>
      </trkpt>
      <trkpt lat="42.3420000" lon="1.8482860">
        <ele>1367.4</ele>
        <time>2015-08-12T11:44:34Z</time>
      </trkpt>
      <trkpt lat="42.3419970" lon="1.8482030">
        <ele>1366.7</ele>
        <time>2015-08-12T11:44:35Z</time>
      </trkpt>
      <trkpt lat="42.3419840" lon="1.8481390">
        <ele>1366.3</ele>
        <time>2015-08-12T11:44:36Z</time>
      </trkpt>
      <trkpt lat="42.3419570" lon="1.8480660">
        <ele>1366.2</ele>
        <time>2015-08-12T11:44:37Z</time>
      </trkpt>
      <trkpt lat="42.3419450" lon="1.8479980">
        <ele>1365.8</ele>
        <time>2015-08-12T11:44:38Z</time>
      </trkpt>
      <trkpt lat="42.3419100" lon="1.8479190">
        <ele>1365.8</ele>
        <time>2015-08-12T11:44:39Z</time>
      </trkpt>
      <trkpt lat="42.3419040" lon="1.8478510">
        <ele>1364.8</ele>
        <time>2015-08-12T11:44:40Z</time>
      </trkpt>
      <trkpt lat="42.3419020" lon="1.8477700">
        <ele>1363.6</ele>
        <time>2015-08-12T11:44:41Z</time>
      </trkpt>
      <trkpt lat="42.3419120" lon="1.8477010">
        <ele>1362.4</ele>
        <time>2015-08-12T11:44:42Z</time>
      </trkpt>
      <trkpt lat="42.3419220" lon="1.8476110">
        <ele>1360.8</ele>
        <time>2015-08-12T11:44:43Z</time>
      </trkpt>
      <trkpt lat="42.3418960" lon="1.8475200">
        <ele>1359.8</ele>
        <time>2015-08-12T11:44:44Z</time>
      </trkpt>
      <trkpt lat="42.3418910" lon="1.8474440">
        <ele>1358.6</ele>
        <time>2015-08-12T11:44:45Z</time>
      </trkpt>
      <trkpt lat="42.3418870" lon="1.8473470">
        <ele>1357.2</ele>
        <time>2015-08-12T11:44:46Z</time>
      </trkpt>
      <trkpt lat="42.3418720" lon="1.8472610">
        <ele>1355.9</ele>
        <time>2015-08-12T11:44:47Z</time>
      </trkpt>
      <trkpt lat="42.3418570" lon="1.8471600">
        <ele>1354.4</ele>
        <time>2015-08-12T11:44:48Z</time>
      </trkpt>
      <trkpt lat="42.3418530" lon="1.8470590">
        <ele>1352.6</ele>
        <time>2015-08-12T11:44:49Z</time>
      </trkpt>
      <trkpt lat="42.3418370" lon="1.8469660">
        <ele>1350.8</ele>
        <time>2015-08-12T11:44:50Z</time>
      </trkpt>
      <trkpt lat="42.3418170" lon="1.8468720">
        <ele>1348.9</ele>
        <time>2015-08-12T11:44:51Z</time>
      </trkpt>
      <trkpt lat="42.3417970" lon="1.8467700">
        <ele>1346.8</ele>
        <time>2015-08-12T11:44:52Z</time>
      </trkpt>
      <trkpt lat="42.3418070" lon="1.8467110">
        <ele>1345.6</ele>
        <time>2015-08-12T11:44:53Z</time>
      </trkpt>
      <trkpt lat="42.3417520" lon="1.8466290">
        <ele>1343.8</ele>
        <time>2015-08-12T11:44:54Z</time>
      </trkpt>
      <trkpt lat="42.3417100" lon="1.8465690">
        <ele>1342.4</ele>
        <time>2015-08-12T11:44:55Z</time>
      </trkpt>
      <trkpt lat="42.3416810" lon="1.8464980">
        <ele>1340.7</ele>
        <time>2015-08-12T11:44:56Z</time>
      </trkpt>
      <trkpt lat="42.3416400" lon="1.8464010">
        <ele>1338.3</ele>
        <time>2015-08-12T11:44:57Z</time>
      </trkpt>
      <trkpt lat="42.3415860" lon="1.8463400">
        <ele>1336.6</ele>
        <time>2015-08-12T11:44:58Z</time>
      </trkpt>
      <trkpt lat="42.3416100" lon="1.8462880">
        <ele>1335.5</ele>
        <time>2015-08-12T11:44:59Z</time>
      </trkpt>
      <trkpt lat="42.3416350" lon="1.8462150">
        <ele>1334.6</ele>
        <time>2015-08-12T11:45:00Z</time>
      </trkpt>
      <trkpt lat="42.3416540" lon="1.8461580">
        <ele>1334.5</ele>
        <time>2015-08-12T11:45:01Z</time>
      </trkpt>
      <trkpt lat="42.3416750" lon="1.8461250">
        <ele>1334.5</ele>
        <time>2015-08-12T11:45:02Z</time>
      </trkpt>
      <trkpt lat="42.3417160" lon="1.8460800">
        <ele>1334.6</ele>
        <time>2015-08-12T11:45:03Z</time>
      </trkpt>
      <trkpt lat="42.3417540" lon="1.8460510">
        <ele>1334.8</ele>
        <time>2015-08-12T11:45:04Z</time>
      </trkpt>
      <trkpt lat="42.3417870" lon="1.8460770">
        <ele>1335.2</ele>
        <time>2015-08-12T11:45:06Z</time>
      </trkpt>
      <trkpt lat="42.3417970" lon="1.8461380">
        <ele>1335.5</ele>
        <time>2015-08-12T11:45:07Z</time>
      </trkpt>
      <trkpt lat="42.3418060" lon="1.8461940">
        <ele>1335.8</ele>
        <time>2015-08-12T11:45:08Z</time>
      </trkpt>
      <trkpt lat="42.3418200" lon="1.8462470">
        <ele>1336.1</ele>
        <time>2015-08-12T11:45:09Z</time>
      </trkpt>
      <trkpt lat="42.3418320" lon="1.8463040">
        <ele>1337.3</ele>
        <time>2015-08-12T11:45:10Z</time>
      </trkpt>
      <trkpt lat="42.3418510" lon="1.8463550">
        <ele>1338.4</ele>
        <time>2015-08-12T11:45:11Z</time>
      </trkpt>
      <trkpt lat="42.3418820" lon="1.8464270">
        <ele>1340.0</ele>
        <time>2015-08-12T11:45:12Z</time>
      </trkpt>
      <trkpt lat="42.3419100" lon="1.8464980">
        <ele>1341.5</ele>
        <time>2015-08-12T11:45:13Z</time>
      </trkpt>
      <trkpt lat="42.3419380" lon="1.8465710">
        <ele>1343.0</ele>
        <time>2015-08-12T11:45:14Z</time>
      </trkpt>
      <trkpt lat="42.3419630" lon="1.8466550">
        <ele>1344.6</ele>
        <time>2015-08-12T11:45:15Z</time>
      </trkpt>
      <trkpt lat="42.3420030" lon="1.8467160">
        <ele>1345.8</ele>
        <time>2015-08-12T11:45:16Z</time>
      </trkpt>
      <trkpt lat="42.3420450" lon="1.8468010">
        <ele>1347.3</ele>
        <time>2015-08-12T11:45:17Z</time>
      </trkpt>
      <trkpt lat="42.3420910" lon="1.8468840">
        <ele>1348.4</ele>
        <time>2015-08-12T11:45:18Z</time>
      </trkpt>
      <trkpt lat="42.3421360" lon="1.8469590">
        <ele>1348.2</ele>
        <time>2015-08-12T11:45:19Z</time>
      </trkpt>
      <trkpt lat="42.3421720" lon="1.8470460">
        <ele>1348.4</ele>
        <time>2015-08-12T11:45:20Z</time>
      </trkpt>
      <trkpt lat="42.3422240" lon="1.8471210">
        <ele>1347.7</ele>
        <time>2015-08-12T11:45:21Z</time>
      </trkpt>
      <trkpt lat="42.3422750" lon="1.8472220">
        <ele>1347.0</ele>
        <time>2015-08-12T11:45:22Z</time>
      </trkpt>
      <trkpt lat="42.3423150" lon="1.8473220">
        <ele>1346.7</ele>
        <time>2015-08-12T11:45:23Z</time>
      </trkpt>
      <trkpt lat="42.3423610" lon="1.8474160">
        <ele>1346.0</ele>
        <time>2015-08-12T11:45:24Z</time>
      </trkpt>
      <trkpt lat="42.3423860" lon="1.8475400">
        <ele>1346.3</ele>
        <time>2015-08-12T11:45:25Z</time>
      </trkpt>
      <trkpt lat="42.3424310" lon="1.8476470">
        <ele>1345.7</ele>
        <time>2015-08-12T11:45:26Z</time>
      </trkpt>
      <trkpt lat="42.3424670" lon="1.8477630">
        <ele>1345.4</ele>
        <time>2015-08-12T11:45:27Z</time>
      </trkpt>
      <trkpt lat="42.3425230" lon="1.8478220">
        <ele>1343.8</ele>
        <time>2015-08-12T11:45:28Z</time>
      </trkpt>
      <trkpt lat="42.3425640" lon="1.8479430">
        <ele>1343.2</ele>
        <time>2015-08-12T11:45:29Z</time>
      </trkpt>
      <trkpt lat="42.3425920" lon="1.8480170">
        <ele>1342.9</ele>
        <time>2015-08-12T11:45:30Z</time>
      </trkpt>
      <trkpt lat="42.3426200" lon="1.8481100">
        <ele>1342.8</ele>
        <time>2015-08-12T11:45:31Z</time>
      </trkpt>
      <trkpt lat="42.3426530" lon="1.8482100">
        <ele>1342.5</ele>
        <time>2015-08-12T11:45:32Z</time>
      </trkpt>
      <trkpt lat="42.3427110" lon="1.8483050">
        <ele>1341.2</ele>
        <time>2015-08-12T11:45:33Z</time>
      </trkpt>
      <trkpt lat="42.3427320" lon="1.8484370">
        <ele>1341.8</ele>
        <time>2015-08-12T11:45:34Z</time>
      </trkpt>
      <trkpt lat="42.3427850" lon="1.8485300">
        <ele>1340.7</ele>
        <time>2015-08-12T11:45:35Z</time>
      </trkpt>
      <trkpt lat="42.3428280" lon="1.8486180">
        <ele>1340.0</ele>
        <time>2015-08-12T11:45:36Z</time>
      </trkpt>
      <trkpt lat="42.3428410" lon="1.8487020">
        <ele>1340.4</ele>
        <time>2015-08-12T11:45:37Z</time>
      </trkpt>
      <trkpt lat="42.3428770" lon="1.8487720">
        <ele>1339.6</ele>
        <time>2015-08-12T11:45:38Z</time>
      </trkpt>
      <trkpt lat="42.3429840" lon="1.8487990">
        <ele>1335.9</ele>
        <time>2015-08-12T11:45:39Z</time>
      </trkpt>
      <trkpt lat="42.3430430" lon="1.8488370">
        <ele>1334.1</ele>
        <time>2015-08-12T11:45:40Z</time>
      </trkpt>
      <trkpt lat="42.3431320" lon="1.8488680">
        <ele>1331.3</ele>
        <time>2015-08-12T11:45:41Z</time>
      </trkpt>
      <trkpt lat="42.3431890" lon="1.8488880">
        <ele>1329.6</ele>
        <time>2015-08-12T11:45:42Z</time>
      </trkpt>
      <trkpt lat="42.3432580" lon="1.8489060">
        <ele>1327.4</ele>
        <time>2015-08-12T11:45:43Z</time>
      </trkpt>
      <trkpt lat="42.3433470" lon="1.8489270">
        <ele>1324.6</ele>
        <time>2015-08-12T11:45:44Z</time>
      </trkpt>
      <trkpt lat="42.3434350" lon="1.8489640">
        <ele>1322.1</ele>
        <time>2015-08-12T11:45:45Z</time>
      </trkpt>
      <trkpt lat="42.3435110" lon="1.8490040">
        <ele>1320.1</ele>
        <time>2015-08-12T11:45:46Z</time>
      </trkpt>
      <trkpt lat="42.3435930" lon="1.8490540">
        <ele>1318.0</ele>
        <time>2015-08-12T11:45:47Z</time>
      </trkpt>
      <trkpt lat="42.3436790" lon="1.8491150">
        <ele>1316.0</ele>
        <time>2015-08-12T11:45:48Z</time>
      </trkpt>
      <trkpt lat="42.3436940" lon="1.8492500">
        <ele>1317.3</ele>
        <time>2015-08-12T11:45:49Z</time>
      </trkpt>
      <trkpt lat="42.3437410" lon="1.8493730">
        <ele>1317.5</ele>
        <time>2015-08-12T11:45:50Z</time>
      </trkpt>
      <trkpt lat="42.3437780" lon="1.8494850">
        <ele>1318.3</ele>
        <time>2015-08-12T11:45:51Z</time>
      </trkpt>
      <trkpt lat="42.3438210" lon="1.8496160">
        <ele>1319.2</ele>
        <time>2015-08-12T11:45:52Z</time>
      </trkpt>
      <trkpt lat="42.3438650" lon="1.8497140">
        <ele>1319.2</ele>
        <time>2015-08-12T11:45:53Z</time>
      </trkpt>
      <trkpt lat="42.3439000" lon="1.8498270">
        <ele>1319.4</ele>
        <time>2015-08-12T11:45:54Z</time>
      </trkpt>
      <trkpt lat="42.3439850" lon="1.8499550">
        <ele>1318.8</ele>
        <time>2015-08-12T11:45:55Z</time>
      </trkpt>
      <trkpt lat="42.3440340" lon="1.8500740">
        <ele>1318.7</ele>
        <time>2015-08-12T11:45:56Z</time>
      </trkpt>
      <trkpt lat="42.3440860" lon="1.8501790">
        <ele>1318.3</ele>
        <time>2015-08-12T11:45:57Z</time>
      </trkpt>
      <trkpt lat="42.3441380" lon="1.8502620">
        <ele>1317.8</ele>
        <time>2015-08-12T11:45:58Z</time>
      </trkpt>
      <trkpt lat="42.3441840" lon="1.8503640">
        <ele>1317.3</ele>
        <time>2015-08-12T11:45:59Z</time>
      </trkpt>
      <trkpt lat="42.3442360" lon="1.8504790">
        <ele>1317.0</ele>
        <time>2015-08-12T11:46:00Z</time>
      </trkpt>
      <trkpt lat="42.3442990" lon="1.8505530">
        <ele>1316.2</ele>
        <time>2015-08-12T11:46:01Z</time>
      </trkpt>
      <trkpt lat="42.3443620" lon="1.8506100">
        <ele>1315.2</ele>
        <time>2015-08-12T11:46:02Z</time>
      </trkpt>
      <trkpt lat="42.3444200" lon="1.8506960">
        <ele>1314.6</ele>
        <time>2015-08-12T11:46:03Z</time>
      </trkpt>
      <trkpt lat="42.3444770" lon="1.8507760">
        <ele>1313.9</ele>
        <time>2015-08-12T11:46:04Z</time>
      </trkpt>
      <trkpt lat="42.3445320" lon="1.8508240">
        <ele>1313.1</ele>
        <time>2015-08-12T11:46:05Z</time>
      </trkpt>
      <trkpt lat="42.3445880" lon="1.8508740">
        <ele>1312.2</ele>
        <time>2015-08-12T11:46:06Z</time>
      </trkpt>
      <trkpt lat="42.3446280" lon="1.8509180">
        <ele>1311.7</ele>
        <time>2015-08-12T11:46:07Z</time>
      </trkpt>
      <trkpt lat="42.3446730" lon="1.8509740">
        <ele>1311.1</ele>
        <time>2015-08-12T11:46:08Z</time>
      </trkpt>
      <trkpt lat="42.3447150" lon="1.8510320">
        <ele>1310.6</ele>
        <time>2015-08-12T11:46:09Z</time>
      </trkpt>
      <trkpt lat="42.3447580" lon="1.8511010">
        <ele>1310.1</ele>
        <time>2015-08-12T11:46:10Z</time>
      </trkpt>
      <trkpt lat="42.3448190" lon="1.8511190">
        <ele>1308.9</ele>
        <time>2015-08-12T11:46:11Z</time>
      </trkpt>
      <trkpt lat="42.3448640" lon="1.8511530">
        <ele>1308.1</ele>
        <time>2015-08-12T11:46:12Z</time>
      </trkpt>
      <trkpt lat="42.3448940" lon="1.8511980">
        <ele>1307.7</ele>
        <time>2015-08-12T11:46:13Z</time>
      </trkpt>
      <trkpt lat="42.3449350" lon="1.8512880">
        <ele>1307.2</ele>
        <time>2015-08-12T11:46:14Z</time>
      </trkpt>
      <trkpt lat="42.3449720" lon="1.8513350">
        <ele>1306.6</ele>
        <time>2015-08-12T11:46:15Z</time>
      </trkpt>
      <trkpt lat="42.3450080" lon="1.8514080">
        <ele>1306.3</ele>
        <time>2015-08-12T11:46:16Z</time>
      </trkpt>
      <trkpt lat="42.3450250" lon="1.8514930">
        <ele>1306.4</ele>
        <time>2015-08-12T11:46:17Z</time>
      </trkpt>
      <trkpt lat="42.3450580" lon="1.8515820">
        <ele>1306.3</ele>
        <time>2015-08-12T11:46:18Z</time>
      </trkpt>
      <trkpt lat="42.3450790" lon="1.8516860">
        <ele>1306.5</ele>
        <time>2015-08-12T11:46:19Z</time>
      </trkpt>
      <trkpt lat="42.3451230" lon="1.8517800">
        <ele>1306.3</ele>
        <time>2015-08-12T11:46:20Z</time>
      </trkpt>
      <trkpt lat="42.3451230" lon="1.8518970">
        <ele>1307.0</ele>
        <time>2015-08-12T11:46:21Z</time>
      </trkpt>
      <trkpt lat="42.3451670" lon="1.8520100">
        <ele>1307.0</ele>
        <time>2015-08-12T11:46:22Z</time>
      </trkpt>
      <trkpt lat="42.3451900" lon="1.8521310">
        <ele>1307.4</ele>
        <time>2015-08-12T11:46:23Z</time>
      </trkpt>
      <trkpt lat="42.3452340" lon="1.8521980">
        <ele>1306.9</ele>
        <time>2015-08-12T11:46:24Z</time>
      </trkpt>
      <trkpt lat="42.3452720" lon="1.8522480">
        <ele>1306.5</ele>
        <time>2015-08-12T11:46:25Z</time>
      </trkpt>
      <trkpt lat="42.3453100" lon="1.8523140">
        <ele>1306.0</ele>
        <time>2015-08-12T11:46:26Z</time>
      </trkpt>
      <trkpt lat="42.3453390" lon="1.8523710">
        <ele>1305.7</ele>
        <time>2015-08-12T11:46:27Z</time>
      </trkpt>
      <trkpt lat="42.3453810" lon="1.8524190">
        <ele>1305.0</ele>
        <time>2015-08-12T11:46:28Z</time>
      </trkpt>
      <trkpt lat="42.3454090" lon="1.8524580">
        <ele>1304.5</ele>
        <time>2015-08-12T11:46:30Z</time>
      </trkpt>
      <trkpt lat="42.3454380" lon="1.8524740">
        <ele>1304.0</ele>
        <time>2015-08-12T11:46:31Z</time>
      </trkpt>
      <trkpt lat="42.3454680" lon="1.8524810">
        <ele>1303.5</ele>
        <time>2015-08-12T11:46:32Z</time>
      </trkpt>
      <trkpt lat="42.3455110" lon="1.8524960">
        <ele>1302.7</ele>
        <time>2015-08-12T11:46:34Z</time>
      </trkpt>
      <trkpt lat="42.3455410" lon="1.8525130">
        <ele>1302.2</ele>
        <time>2015-08-12T11:46:35Z</time>
      </trkpt>
      <trkpt lat="42.3455880" lon="1.8525100">
        <ele>1301.4</ele>
        <time>2015-08-12T11:46:37Z</time>
      </trkpt>
      <trkpt lat="42.3456130" lon="1.8525250">
        <ele>1301.0</ele>
        <time>2015-08-12T11:46:38Z</time>
      </trkpt>
      <trkpt lat="42.3456430" lon="1.8525250">
        <ele>1300.4</ele>
        <time>2015-08-12T11:46:39Z</time>
      </trkpt>
      <trkpt lat="42.3456750" lon="1.8525180">
        <ele>1299.8</ele>
        <time>2015-08-12T11:46:40Z</time>
      </trkpt>
      <trkpt lat="42.3457120" lon="1.8525250">
        <ele>1299.1</ele>
        <time>2015-08-12T11:46:41Z</time>
      </trkpt>
      <trkpt lat="42.3457560" lon="1.8525220">
        <ele>1298.3</ele>
        <time>2015-08-12T11:46:42Z</time>
      </trkpt>
      <trkpt lat="42.3458120" lon="1.8525210">
        <ele>1297.3</ele>
        <time>2015-08-12T11:46:43Z</time>
      </trkpt>
      <trkpt lat="42.3458470" lon="1.8525340">
        <ele>1296.7</ele>
        <time>2015-08-12T11:46:44Z</time>
      </trkpt>
      <trkpt lat="42.3458950" lon="1.8525160">
        <ele>1295.7</ele>
        <time>2015-08-12T11:46:45Z</time>
      </trkpt>
      <trkpt lat="42.3459560" lon="1.8525130">
        <ele>1294.5</ele>
        <time>2015-08-12T11:46:46Z</time>
      </trkpt>
      <trkpt lat="42.3460130" lon="1.8525130">
        <ele>1293.5</ele>
        <time>2015-08-12T11:46:47Z</time>
      </trkpt>
      <trkpt lat="42.3460820" lon="1.8525180">
        <ele>1292.2</ele>
        <time>2015-08-12T11:46:48Z</time>
      </trkpt>
      <trkpt lat="42.3461670" lon="1.8525060">
        <ele>1290.6</ele>
        <time>2015-08-12T11:46:49Z</time>
      </trkpt>
      <trkpt lat="42.3462490" lon="1.8525050">
        <ele>1289.1</ele>
        <time>2015-08-12T11:46:50Z</time>
      </trkpt>
      <trkpt lat="42.3463320" lon="1.8525100">
        <ele>1288.3</ele>
        <time>2015-08-12T11:46:51Z</time>
      </trkpt>
      <trkpt lat="42.3464210" lon="1.8525030">
        <ele>1287.4</ele>
        <time>2015-08-12T11:46:52Z</time>
      </trkpt>
      <trkpt lat="42.3465010" lon="1.8525260">
        <ele>1286.8</ele>
        <time>2015-08-12T11:46:53Z</time>
      </trkpt>
      <trkpt lat="42.3465860" lon="1.8525650">
        <ele>1286.2</ele>
        <time>2015-08-12T11:46:54Z</time>
      </trkpt>
      <trkpt lat="42.3466780" lon="1.8526290">
        <ele>1285.8</ele>
        <time>2015-08-12T11:46:55Z</time>
      </trkpt>
      <trkpt lat="42.3467660" lon="1.8527030">
        <ele>1285.5</ele>
        <time>2015-08-12T11:46:56Z</time>
      </trkpt>
      <trkpt lat="42.3468420" lon="1.8527980">
        <ele>1285.5</ele>
        <time>2015-08-12T11:46:57Z</time>
      </trkpt>
      <trkpt lat="42.3469220" lon="1.8528750">
        <ele>1285.2</ele>
        <time>2015-08-12T11:46:58Z</time>
      </trkpt>
      <trkpt lat="42.3470020" lon="1.8529500">
        <ele>1285.1</ele>
        <time>2015-08-12T11:46:59Z</time>
      </trkpt>
      <trkpt lat="42.3470900" lon="1.8530320">
        <ele>1284.9</ele>
        <time>2015-08-12T11:47:00Z</time>
      </trkpt>
      <trkpt lat="42.3471310" lon="1.8531270">
        <ele>1285.2</ele>
        <time>2015-08-12T11:47:01Z</time>
      </trkpt>
      <trkpt lat="42.3472150" lon="1.8532230">
        <ele>1285.0</ele>
        <time>2015-08-12T11:47:02Z</time>
      </trkpt>
      <trkpt lat="42.3472990" lon="1.8533130">
        <ele>1284.8</ele>
        <time>2015-08-12T11:47:03Z</time>
      </trkpt>
      <trkpt lat="42.3473890" lon="1.8533560">
        <ele>1284.0</ele>
        <time>2015-08-12T11:47:04Z</time>
      </trkpt>
      <trkpt lat="42.3474800" lon="1.8533750">
        <ele>1283.0</ele>
        <time>2015-08-12T11:47:05Z</time>
      </trkpt>
      <trkpt lat="42.3475690" lon="1.8533940">
        <ele>1282.1</ele>
        <time>2015-08-12T11:47:06Z</time>
      </trkpt>
      <trkpt lat="42.3476650" lon="1.8533470">
        <ele>1280.6</ele>
        <time>2015-08-12T11:47:07Z</time>
      </trkpt>
      <trkpt lat="42.3477630" lon="1.8533100">
        <ele>1279.2</ele>
        <time>2015-08-12T11:47:08Z</time>
      </trkpt>
      <trkpt lat="42.3478560" lon="1.8532600">
        <ele>1277.8</ele>
        <time>2015-08-12T11:47:09Z</time>
      </trkpt>
      <trkpt lat="42.3479450" lon="1.8532220">
        <ele>1276.7</ele>
        <time>2015-08-12T11:47:10Z</time>
      </trkpt>
      <trkpt lat="42.3480320" lon="1.8531850">
        <ele>1275.9</ele>
        <time>2015-08-12T11:47:11Z</time>
      </trkpt>
      <trkpt lat="42.3481200" lon="1.8531330">
        <ele>1275.1</ele>
        <time>2015-08-12T11:47:12Z</time>
      </trkpt>
      <trkpt lat="42.3482020" lon="1.8530980">
        <ele>1274.5</ele>
        <time>2015-08-12T11:47:13Z</time>
      </trkpt>
      <trkpt lat="42.3482740" lon="1.8530620">
        <ele>1273.9</ele>
        <time>2015-08-12T11:47:14Z</time>
      </trkpt>
      <trkpt lat="42.3483420" lon="1.8530340">
        <ele>1273.4</ele>
        <time>2015-08-12T11:47:15Z</time>
      </trkpt>
      <trkpt lat="42.3484000" lon="1.8530030">
        <ele>1273.0</ele>
        <time>2015-08-12T11:47:16Z</time>
      </trkpt>
      <trkpt lat="42.3484760" lon="1.8529730">
        <ele>1272.5</ele>
        <time>2015-08-12T11:47:17Z</time>
      </trkpt>
      <trkpt lat="42.3485320" lon="1.8529710">
        <ele>1272.2</ele>
        <time>2015-08-12T11:47:18Z</time>
      </trkpt>
      <trkpt lat="42.3486030" lon="1.8529480">
        <ele>1271.8</ele>
        <time>2015-08-12T11:47:19Z</time>
      </trkpt>
      <trkpt lat="42.3486650" lon="1.8529520">
        <ele>1271.5</ele>
        <time>2015-08-12T11:47:20Z</time>
      </trkpt>
      <trkpt lat="42.3487090" lon="1.8529690">
        <ele>1271.3</ele>
        <time>2015-08-12T11:47:21Z</time>
      </trkpt>
      <trkpt lat="42.3487670" lon="1.8529890">
        <ele>1271.1</ele>
        <time>2015-08-12T11:47:22Z</time>
      </trkpt>
      <trkpt lat="42.3488470" lon="1.8530120">
        <ele>1271.1</ele>
        <time>2015-08-12T11:47:23Z</time>
      </trkpt>
      <trkpt lat="42.3489210" lon="1.8530190">
        <ele>1271.0</ele>
        <time>2015-08-12T11:47:24Z</time>
      </trkpt>
      <trkpt lat="42.3489550" lon="1.8530490">
        <ele>1271.0</ele>
        <time>2015-08-12T11:47:25Z</time>
      </trkpt>
      <trkpt lat="42.3490510" lon="1.8530540">
        <ele>1270.8</ele>
        <time>2015-08-12T11:47:26Z</time>
      </trkpt>
      <trkpt lat="42.3491060" lon="1.8530440">
        <ele>1270.7</ele>
        <time>2015-08-12T11:47:27Z</time>
      </trkpt>
      <trkpt lat="42.3491620" lon="1.8530720">
        <ele>1270.7</ele>
        <time>2015-08-12T11:47:28Z</time>
      </trkpt>
      <trkpt lat="42.3492260" lon="1.8530880">
        <ele>1270.6</ele>
        <time>2015-08-12T11:47:29Z</time>
      </trkpt>
      <trkpt lat="42.3492890" lon="1.8531080">
        <ele>1270.5</ele>
        <time>2015-08-12T11:47:30Z</time>
      </trkpt>
      <trkpt lat="42.3493490" lon="1.8531040">
        <ele>1270.4</ele>
        <time>2015-08-12T11:47:31Z</time>
      </trkpt>
      <trkpt lat="42.3494190" lon="1.8531020">
        <ele>1270.3</ele>
        <time>2015-08-12T11:47:32Z</time>
      </trkpt>
      <trkpt lat="42.3494650" lon="1.8531520">
        <ele>1270.2</ele>
        <time>2015-08-12T11:47:33Z</time>
      </trkpt>
      <trkpt lat="42.3495160" lon="1.8531890">
        <ele>1270.1</ele>
        <time>2015-08-12T11:47:34Z</time>
      </trkpt>
      <trkpt lat="42.3495620" lon="1.8532400">
        <ele>1270.0</ele>
        <time>2015-08-12T11:47:35Z</time>
      </trkpt>
      <trkpt lat="42.3496040" lon="1.8532960">
        <ele>1270.0</ele>
        <time>2015-08-12T11:47:36Z</time>
      </trkpt>
      <trkpt lat="42.3496490" lon="1.8533330">
        <ele>1270.0</ele>
        <time>2015-08-12T11:47:37Z</time>
      </trkpt>
      <trkpt lat="42.3496960" lon="1.8533840">
        <ele>1270.0</ele>
        <time>2015-08-12T11:47:38Z</time>
      </trkpt>
      <trkpt lat="42.3497280" lon="1.8534120">
        <ele>1270.0</ele>
        <time>2015-08-12T11:47:39Z</time>
      </trkpt>
      <trkpt lat="42.3497630" lon="1.8534460">
        <ele>1270.0</ele>
        <time>2015-08-12T11:47:40Z</time>
      </trkpt>
      <trkpt lat="42.3498190" lon="1.8534620">
        <ele>1270.0</ele>
        <time>2015-08-12T11:47:41Z</time>
      </trkpt>
      <trkpt lat="42.3498690" lon="1.8535500">
        <ele>1270.0</ele>
        <time>2015-08-12T11:47:42Z</time>
      </trkpt>
      <trkpt lat="42.3499370" lon="1.8536020">
        <ele>1270.0</ele>
        <time>2015-08-12T11:47:43Z</time>
      </trkpt>
      <trkpt lat="42.3499840" lon="1.8536460">
        <ele>1270.0</ele>
        <time>2015-08-12T11:47:44Z</time>
      </trkpt>
      <trkpt lat="42.3500050" lon="1.8536780">
        <ele>1270.0</ele>
        <time>2015-08-12T11:47:45Z</time>
      </trkpt>
      <trkpt lat="42.3500320" lon="1.8536880">
        <ele>1270.0</ele>
        <time>2015-08-12T11:47:46Z</time>
      </trkpt>
      <trkpt lat="42.3500550" lon="1.8537420">
        <ele>1270.0</ele>
        <time>2015-08-12T11:47:47Z</time>
      </trkpt>
      <trkpt lat="42.3500770" lon="1.8537730">
        <ele>1270.0</ele>
        <time>2015-08-12T11:47:48Z</time>
      </trkpt>
      <trkpt lat="42.3501160" lon="1.8537940">
        <ele>1270.0</ele>
        <time>2015-08-12T11:47:49Z</time>
      </trkpt>
      <trkpt lat="42.3501670" lon="1.8538400">
        <ele>1270.0</ele>
        <time>2015-08-12T11:47:50Z</time>
      </trkpt>
      <trkpt lat="42.3502260" lon="1.8538580">
        <ele>1269.9</ele>
        <time>2015-08-12T11:47:51Z</time>
      </trkpt>
      <trkpt lat="42.3502750" lon="1.8538840">
        <ele>1269.9</ele>
        <time>2015-08-12T11:47:52Z</time>
      </trkpt>
      <trkpt lat="42.3503260" lon="1.8539150">
        <ele>1269.8</ele>
        <time>2015-08-12T11:47:53Z</time>
      </trkpt>
      <trkpt lat="42.3503770" lon="1.8539390">
        <ele>1269.8</ele>
        <time>2015-08-12T11:47:54Z</time>
      </trkpt>
      <trkpt lat="42.3504060" lon="1.8539220">
        <ele>1269.8</ele>
        <time>2015-08-12T11:47:55Z</time>
      </trkpt>
      <trkpt lat="42.3504360" lon="1.8539100">
        <ele>1269.9</ele>
        <time>2015-08-12T11:47:56Z</time>
      </trkpt>
      <trkpt lat="42.3504420" lon="1.8538470">
        <ele>1270.0</ele>
        <time>2015-08-12T11:47:57Z</time>
      </trkpt>
      <trkpt lat="42.3504280" lon="1.8537460">
        <ele>1270.0</ele>
        <time>2015-08-12T11:47:59Z</time>
      </trkpt>
      <trkpt lat="42.3504330" lon="1.8536730">
        <ele>1270.1</ele>
        <time>2015-08-12T11:48:00Z</time>
      </trkpt>
      <trkpt lat="42.3504210" lon="1.8535940">
        <ele>1270.0</ele>
        <time>2015-08-12T11:48:01Z</time>
      </trkpt>
      <trkpt lat="42.3504020" lon="1.8535650">
        <ele>1270.0</ele>
        <time>2015-08-12T11:48:02Z</time>
      </trkpt>
      <trkpt lat="42.3504060" lon="1.8535000">
        <ele>1270.0</ele>
        <time>2015-08-12T11:48:03Z</time>
      </trkpt>
      <trkpt lat="42.3503980" lon="1.8534400">
        <ele>1270.0</ele>
        <time>2015-08-12T11:48:04Z</time>
      </trkpt>
      <trkpt lat="42.3504060" lon="1.8533800">
        <ele>1270.0</ele>
        <time>2015-08-12T11:48:05Z</time>
      </trkpt>
      <trkpt lat="42.3504060" lon="1.8533230">
        <ele>1270.0</ele>
        <time>2015-08-12T11:48:06Z</time>
      </trkpt>
      <trkpt lat="42.3503850" lon="1.8532530">
        <ele>1270.0</ele>
        <time>2015-08-12T11:48:07Z</time>
      </trkpt>
      <trkpt lat="42.3503710" lon="1.8531820">
        <ele>1270.0</ele>
        <time>2015-08-12T11:48:08Z</time>
      </trkpt>
      <trkpt lat="42.3503720" lon="1.8531220">
        <ele>1270.0</ele>
        <time>2015-08-12T11:48:09Z</time>
      </trkpt>
      <trkpt lat="42.3503710" lon="1.8530510">
        <ele>1270.0</ele>
        <time>2015-08-12T11:48:10Z</time>
      </trkpt>
      <trkpt lat="42.3503760" lon="1.8529710">
        <ele>1270.0</ele>
        <time>2015-08-12T11:48:11Z</time>
      </trkpt>
      <trkpt lat="42.3503970" lon="1.8529180">
        <ele>1270.0</ele>
        <time>2015-08-12T11:48:12Z</time>
      </trkpt>
      <trkpt lat="42.3503940" lon="1.8528700">
        <ele>1270.1</ele>
        <time>2015-08-12T11:48:13Z</time>
      </trkpt>
      <trkpt lat="42.3504000" lon="1.8528190">
        <ele>1270.1</ele>
        <time>2015-08-12T11:48:14Z</time>
      </trkpt>
      <trkpt lat="42.3504110" lon="1.8527620">
        <ele>1270.2</ele>
        <time>2015-08-12T11:48:15Z</time>
      </trkpt>
      <trkpt lat="42.3504140" lon="1.8527060">
        <ele>1270.3</ele>
        <time>2015-08-12T11:48:16Z</time>
      </trkpt>
      <trkpt lat="42.3504270" lon="1.8526560">
        <ele>1270.4</ele>
        <time>2015-08-12T11:48:17Z</time>
      </trkpt>
      <trkpt lat="42.3504100" lon="1.8525920">
        <ele>1270.4</ele>
        <time>2015-08-12T11:48:18Z</time>
      </trkpt>
      <trkpt lat="42.3504100" lon="1.8525060">
        <ele>1270.5</ele>
        <time>2015-08-12T11:48:20Z</time>
      </trkpt>
      <trkpt lat="42.3504160" lon="1.8524670">
        <ele>1270.5</ele>
        <time>2015-08-12T11:48:21Z</time>
      </trkpt>
      <trkpt lat="42.3504250" lon="1.8524000">
        <ele>1270.7</ele>
        <time>2015-08-12T11:48:23Z</time>
      </trkpt>
      <trkpt lat="42.3504510" lon="1.8523450">
        <ele>1271.0</ele>
        <time>2015-08-12T11:48:24Z</time>
      </trkpt>
      <trkpt lat="42.3504610" lon="1.8523070">
        <ele>1271.1</ele>
        <time>2015-08-12T11:48:25Z</time>
      </trkpt>
      <trkpt lat="42.3504120" lon="1.8522410">
        <ele>1270.8</ele>
        <time>2015-08-12T11:48:26Z</time>
      </trkpt>
      <trkpt lat="42.3503930" lon="1.8521990">
        <ele>1270.8</ele>
        <time>2015-08-12T11:48:27Z</time>
      </trkpt>
      <trkpt lat="42.3504080" lon="1.8521520">
        <ele>1270.9</ele>
        <time>2015-08-12T11:48:28Z</time>
      </trkpt>
      <trkpt lat="42.3504320" lon="1.8521130">
        <ele>1271.1</ele>
        <time>2015-08-12T11:48:29Z</time>
      </trkpt>
      <trkpt lat="42.3504410" lon="1.8520730">
        <ele>1271.2</ele>
        <time>2015-08-12T11:48:30Z</time>
      </trkpt>
      <trkpt lat="42.3504510" lon="1.8520330">
        <ele>1271.1</ele>
        <time>2015-08-12T11:48:31Z</time>
      </trkpt>
      <trkpt lat="42.3504770" lon="1.8519990">
        <ele>1271.2</ele>
        <time>2015-08-12T11:48:33Z</time>
      </trkpt>
      <trkpt lat="42.3504970" lon="1.8519690">
        <ele>1271.3</ele>
        <time>2015-08-12T11:48:35Z</time>
      </trkpt>
      <trkpt lat="42.3505250" lon="1.8519670">
        <ele>1271.5</ele>
        <time>2015-08-12T11:48:36Z</time>
      </trkpt>
      <trkpt lat="42.3505580" lon="1.8519410">
        <ele>1271.7</ele>
        <time>2015-08-12T11:48:38Z</time>
      </trkpt>
      <trkpt lat="42.3505480" lon="1.8519030">
        <ele>1271.5</ele>
        <time>2015-08-12T11:48:39Z</time>
      </trkpt>
      <trkpt lat="42.3505520" lon="1.8518510">
        <ele>1271.3</ele>
        <time>2015-08-12T11:48:41Z</time>
      </trkpt>
      <trkpt lat="42.3505470" lon="1.8517770">
        <ele>1271.0</ele>
        <time>2015-08-12T11:48:43Z</time>
      </trkpt>
      <trkpt lat="42.3505380" lon="1.8517190">
        <ele>1270.7</ele>
        <time>2015-08-12T11:48:45Z</time>
      </trkpt>
      <trkpt lat="42.3505330" lon="1.8516560">
        <ele>1270.4</ele>
        <time>2015-08-12T11:48:47Z</time>
      </trkpt>
      <trkpt lat="42.3505400" lon="1.8515920">
        <ele>1270.3</ele>
        <time>2015-08-12T11:48:49Z</time>
      </trkpt>
      <trkpt lat="42.3505540" lon="1.8515250">
        <ele>1270.1</ele>
        <time>2015-08-12T11:48:51Z</time>
      </trkpt>
      <trkpt lat="42.3505500" lon="1.8514620">
        <ele>1269.9</ele>
        <time>2015-08-12T11:48:53Z</time>
      </trkpt>
      <trkpt lat="42.3505510" lon="1.8513930">
        <ele>1269.6</ele>
        <time>2015-08-12T11:48:55Z</time>
      </trkpt>
      <trkpt lat="42.3505990" lon="1.8513890">
        <ele>1270.0</ele>
        <time>2015-08-12T11:48:56Z</time>
      </trkpt>
      <trkpt lat="42.3506480" lon="1.8513680">
        <ele>1270.4</ele>
        <time>2015-08-12T11:48:58Z</time>
      </trkpt>
      <trkpt lat="42.3506950" lon="1.8513720">
        <ele>1270.8</ele>
        <time>2015-08-12T11:49:03Z</time>
      </trkpt>
      <trkpt lat="42.3507310" lon="1.8513920">
        <ele>1271.2</ele>
        <time>2015-08-12T11:49:06Z</time>
      </trkpt>
      <trkpt lat="42.3507710" lon="1.8514100">
        <ele>1271.6</ele>
        <time>2015-08-12T11:49:08Z</time>
      </trkpt>
      <trkpt lat="42.3508020" lon="1.8514190">
        <ele>1271.8</ele>
        <time>2015-08-12T11:49:10Z</time>
      </trkpt>
      <trkpt lat="42.3508460" lon="1.8513900">
        <ele>1272.1</ele>
        <time>2015-08-12T11:49:12Z</time>
      </trkpt>
      <trkpt lat="42.3508780" lon="1.8513730">
        <ele>1272.3</ele>
        <time>2015-08-12T11:49:14Z</time>
      </trkpt>
      <trkpt lat="42.3508990" lon="1.8513470">
        <ele>1272.4</ele>
        <time>2015-08-12T11:49:16Z</time>
      </trkpt>
      <trkpt lat="42.3509100" lon="1.8513120">
        <ele>1272.4</ele>
        <time>2015-08-12T11:49:19Z</time>
      </trkpt>
      <trkpt lat="42.3509380" lon="1.8513170">
        <ele>1272.6</ele>
        <time>2015-08-12T11:49:22Z</time>
      </trkpt>
      <trkpt lat="42.3509850" lon="1.8513050">
        <ele>1273.0</ele>
        <time>2015-08-12T11:49:33Z</time>
      </trkpt>
      <trkpt lat="42.3510090" lon="1.8512860">
        <ele>1273.1</ele>
        <time>2015-08-12T11:49:41Z</time>
      </trkpt>
      <trkpt lat="42.3510500" lon="1.8512790">
        <ele>1273.4</ele>
        <time>2015-08-12T11:49:43Z</time>
      </trkpt>
      <trkpt lat="42.3510340" lon="1.8512440">
        <ele>1273.2</ele>
        <time>2015-08-12T11:49:46Z</time>
      </trkpt>
      <trkpt lat="42.3510470" lon="1.8513360">
        <ele>1273.6</ele>
        <time>2015-08-12T16:09:30Z</time>
      </trkpt>
      <trkpt lat="42.3510680" lon="1.8511920">
        <ele>1273.3</ele>
        <time>2015-08-12T16:09:54Z</time>
      </trkpt>
      <trkpt lat="42.3510510" lon="1.8511620">
        <ele>1273.0</ele>
        <time>2015-08-12T16:16:15Z</time>
      </trkpt>
      <trkpt lat="42.3510410" lon="1.8513020">
        <ele>1273.4</ele>
        <time>2015-08-12T16:17:06Z</time>
      </trkpt>
      <trkpt lat="42.3510230" lon="1.8512680">
        <ele>1273.2</ele>
        <time>2015-08-12T16:17:09Z</time>
      </trkpt>
      <trkpt lat="42.3509910" lon="1.8512760">
        <ele>1272.9</ele>
        <time>2015-08-12T16:17:14Z</time>
      </trkpt>
      <trkpt lat="42.3510130" lon="1.8513070">
        <ele>1273.2</ele>
        <time>2015-08-12T16:17:21Z</time>
      </trkpt>
      <trkpt lat="42.3509960" lon="1.8513390">
        <ele>1273.2</ele>
        <time>2015-08-12T16:19:15Z</time>
      </trkpt>
      <trkpt lat="42.3509050" lon="1.8515180">
        <ele>1273.1</ele>
        <time>2015-08-12T16:19:18Z</time>
      </trkpt>
      <trkpt lat="42.3508640" lon="1.8515300">
        <ele>1272.8</ele>
        <time>2015-08-12T16:19:19Z</time>
      </trkpt>
      <trkpt lat="42.3507890" lon="1.8514650">
        <ele>1271.9</ele>
        <time>2015-08-12T16:19:21Z</time>
      </trkpt>
      <trkpt lat="42.3507420" lon="1.8514130">
        <ele>1271.3</ele>
        <time>2015-08-12T16:19:22Z</time>
      </trkpt>
      <trkpt lat="42.3506640" lon="1.8514030">
        <ele>1270.6</ele>
        <time>2015-08-12T16:19:23Z</time>
      </trkpt>
      <trkpt lat="42.3505940" lon="1.8513750">
        <ele>1269.9</ele>
        <time>2015-08-12T16:19:25Z</time>
      </trkpt>
      <trkpt lat="42.3505590" lon="1.8513700">
        <ele>1269.6</ele>
        <time>2015-08-12T16:19:26Z</time>
      </trkpt>
      <trkpt lat="42.3505270" lon="1.8513760">
        <ele>1269.4</ele>
        <time>2015-08-12T16:19:27Z</time>
      </trkpt>
      <trkpt lat="42.3505380" lon="1.8514590">
        <ele>1269.8</ele>
        <time>2015-08-12T16:19:28Z</time>
      </trkpt>
      <trkpt lat="42.3505250" lon="1.8515070">
        <ele>1269.8</ele>
        <time>2015-08-12T16:19:29Z</time>
      </trkpt>
      <trkpt lat="42.3505490" lon="1.8515600">
        <ele>1270.2</ele>
        <time>2015-08-12T16:19:31Z</time>
      </trkpt>
      <trkpt lat="42.3505570" lon="1.8515960">
        <ele>1270.4</ele>
        <time>2015-08-12T16:19:32Z</time>
      </trkpt>
      <trkpt lat="42.3505600" lon="1.8516570">
        <ele>1270.7</ele>
        <time>2015-08-12T16:19:34Z</time>
      </trkpt>
      <trkpt lat="42.3505640" lon="1.8516940">
        <ele>1270.8</ele>
        <time>2015-08-12T16:19:35Z</time>
      </trkpt>
      <trkpt lat="42.3505670" lon="1.8517610">
        <ele>1271.1</ele>
        <time>2015-08-12T16:19:37Z</time>
      </trkpt>
      <trkpt lat="42.3505570" lon="1.8518270">
        <ele>1271.3</ele>
        <time>2015-08-12T16:19:39Z</time>
      </trkpt>
      <trkpt lat="42.3505570" lon="1.8518760">
        <ele>1271.4</ele>
        <time>2015-08-12T16:19:40Z</time>
      </trkpt>
      <trkpt lat="42.3505560" lon="1.8519240">
        <ele>1271.6</ele>
        <time>2015-08-12T16:19:41Z</time>
      </trkpt>
      <trkpt lat="42.3505520" lon="1.8519720">
        <ele>1271.7</ele>
        <time>2015-08-12T16:19:42Z</time>
      </trkpt>
      <trkpt lat="42.3505390" lon="1.8520180">
        <ele>1271.8</ele>
        <time>2015-08-12T16:19:43Z</time>
      </trkpt>
      <trkpt lat="42.3505040" lon="1.8520630">
        <ele>1271.7</ele>
        <time>2015-08-12T16:19:44Z</time>
      </trkpt>
      <trkpt lat="42.3504300" lon="1.8521220">
        <ele>1271.1</ele>
        <time>2015-08-12T16:19:45Z</time>
      </trkpt>
      <trkpt lat="42.3504040" lon="1.8521940">
        <ele>1270.8</ele>
        <time>2015-08-12T16:19:46Z</time>
      </trkpt>
      <trkpt lat="42.3503850" lon="1.8522860">
        <ele>1270.7</ele>
        <time>2015-08-12T16:19:47Z</time>
      </trkpt>
      <trkpt lat="42.3503930" lon="1.8523850">
        <ele>1270.6</ele>
        <time>2015-08-12T16:19:48Z</time>
      </trkpt>
      <trkpt lat="42.3503820" lon="1.8524720">
        <ele>1270.5</ele>
        <time>2015-08-12T16:19:49Z</time>
      </trkpt>
      <trkpt lat="42.3503910" lon="1.8525730">
        <ele>1270.4</ele>
        <time>2015-08-12T16:19:50Z</time>
      </trkpt>
      <trkpt lat="42.3503790" lon="1.8526840">
        <ele>1270.2</ele>
        <time>2015-08-12T16:19:51Z</time>
      </trkpt>
      <trkpt lat="42.3503790" lon="1.8527820">
        <ele>1270.1</ele>
        <time>2015-08-12T16:19:52Z</time>
      </trkpt>
      <trkpt lat="42.3503760" lon="1.8528810">
        <ele>1270.0</ele>
        <time>2015-08-12T16:19:53Z</time>
      </trkpt>
      <trkpt lat="42.3503680" lon="1.8529740">
        <ele>1270.0</ele>
        <time>2015-08-12T16:19:54Z</time>
      </trkpt>
      <trkpt lat="42.3503640" lon="1.8530690">
        <ele>1270.0</ele>
        <time>2015-08-12T16:19:55Z</time>
      </trkpt>
      <trkpt lat="42.3503470" lon="1.8531560">
        <ele>1270.0</ele>
        <time>2015-08-12T16:19:56Z</time>
      </trkpt>
      <trkpt lat="42.3503250" lon="1.8532430">
        <ele>1270.0</ele>
        <time>2015-08-12T16:19:57Z</time>
      </trkpt>
      <trkpt lat="42.3503100" lon="1.8533240">
        <ele>1270.0</ele>
        <time>2015-08-12T16:19:58Z</time>
      </trkpt>
      <trkpt lat="42.3502920" lon="1.8534080">
        <ele>1270.0</ele>
        <time>2015-08-12T16:19:59Z</time>
      </trkpt>
      <trkpt lat="42.3502900" lon="1.8534980">
        <ele>1270.0</ele>
        <time>2015-08-12T16:20:00Z</time>
      </trkpt>
      <trkpt lat="42.3502850" lon="1.8535840">
        <ele>1270.0</ele>
        <time>2015-08-12T16:20:01Z</time>
      </trkpt>
      <trkpt lat="42.3502880" lon="1.8536670">
        <ele>1270.0</ele>
        <time>2015-08-12T16:20:02Z</time>
      </trkpt>
      <trkpt lat="42.3502990" lon="1.8537380">
        <ele>1270.0</ele>
        <time>2015-08-12T16:20:03Z</time>
      </trkpt>
      <trkpt lat="42.3503020" lon="1.8538170">
        <ele>1269.9</ele>
        <time>2015-08-12T16:20:04Z</time>
      </trkpt>
      <trkpt lat="42.3502470" lon="1.8538710">
        <ele>1269.9</ele>
        <time>2015-08-12T16:20:05Z</time>
      </trkpt>
      <trkpt lat="42.3502160" lon="1.8539160">
        <ele>1269.9</ele>
        <time>2015-08-12T16:20:06Z</time>
      </trkpt>
      <trkpt lat="42.3501800" lon="1.8539210">
        <ele>1269.9</ele>
        <time>2015-08-12T16:20:07Z</time>
      </trkpt>
      <trkpt lat="42.3501280" lon="1.8539150">
        <ele>1269.9</ele>
        <time>2015-08-12T16:20:08Z</time>
      </trkpt>
      <trkpt lat="42.3500930" lon="1.8539090">
        <ele>1270.0</ele>
        <time>2015-08-12T16:20:09Z</time>
      </trkpt>
      <trkpt lat="42.3500230" lon="1.8538330">
        <ele>1270.0</ele>
        <time>2015-08-12T16:20:10Z</time>
      </trkpt>
      <trkpt lat="42.3499630" lon="1.8538060">
        <ele>1270.0</ele>
        <time>2015-08-12T16:20:11Z</time>
      </trkpt>
      <trkpt lat="42.3499240" lon="1.8537930">
        <ele>1270.0</ele>
        <time>2015-08-12T16:20:12Z</time>
      </trkpt>
      <trkpt lat="42.3498830" lon="1.8537660">
        <ele>1270.0</ele>
        <time>2015-08-12T16:20:13Z</time>
      </trkpt>
      <trkpt lat="42.3498640" lon="1.8537360">
        <ele>1270.0</ele>
        <time>2015-08-12T16:20:14Z</time>
      </trkpt>
      <trkpt lat="42.3498240" lon="1.8536920">
        <ele>1270.0</ele>
        <time>2015-08-12T16:20:15Z</time>
      </trkpt>
      <trkpt lat="42.3497900" lon="1.8536600">
        <ele>1270.0</ele>
        <time>2015-08-12T16:20:16Z</time>
      </trkpt>
      <trkpt lat="42.3497580" lon="1.8536230">
        <ele>1270.0</ele>
        <time>2015-08-12T16:20:17Z</time>
      </trkpt>
      <trkpt lat="42.3497270" lon="1.8535980">
        <ele>1270.0</ele>
        <time>2015-08-12T16:20:18Z</time>
      </trkpt>
      <trkpt lat="42.3496830" lon="1.8535570">
        <ele>1270.0</ele>
        <time>2015-08-12T16:20:19Z</time>
      </trkpt>
      <trkpt lat="42.3496700" lon="1.8535150">
        <ele>1270.0</ele>
        <time>2015-08-12T16:20:20Z</time>
      </trkpt>
      <trkpt lat="42.3496400" lon="1.8534730">
        <ele>1270.0</ele>
        <time>2015-08-12T16:20:21Z</time>
      </trkpt>
      <trkpt lat="42.3496100" lon="1.8534390">
        <ele>1270.0</ele>
        <time>2015-08-12T16:20:22Z</time>
      </trkpt>
      <trkpt lat="42.3495910" lon="1.8534100">
        <ele>1270.0</ele>
        <time>2015-08-12T16:20:23Z</time>
      </trkpt>
      <trkpt lat="42.3495720" lon="1.8533730">
        <ele>1270.0</ele>
        <time>2015-08-12T16:20:24Z</time>
      </trkpt>
      <trkpt lat="42.3495500" lon="1.8533500">
        <ele>1270.1</ele>
        <time>2015-08-12T16:20:25Z</time>
      </trkpt>
      <trkpt lat="42.3495200" lon="1.8532680">
        <ele>1270.1</ele>
        <time>2015-08-12T16:20:27Z</time>
      </trkpt>
      <trkpt lat="42.3494810" lon="1.8532130">
        <ele>1270.2</ele>
        <time>2015-08-12T16:20:29Z</time>
      </trkpt>
      <trkpt lat="42.3494590" lon="1.8531850">
        <ele>1270.2</ele>
        <time>2015-08-12T16:20:30Z</time>
      </trkpt>
      <trkpt lat="42.3494270" lon="1.8531670">
        <ele>1270.3</ele>
        <time>2015-08-12T16:20:31Z</time>
      </trkpt>
      <trkpt lat="42.3494000" lon="1.8531490">
        <ele>1270.3</ele>
        <time>2015-08-12T16:20:32Z</time>
      </trkpt>
      <trkpt lat="42.3493670" lon="1.8531270">
        <ele>1270.4</ele>
        <time>2015-08-12T16:20:33Z</time>
      </trkpt>
      <trkpt lat="42.3493410" lon="1.8531730">
        <ele>1270.5</ele>
        <time>2015-08-12T16:20:34Z</time>
      </trkpt>
      <trkpt lat="42.3493140" lon="1.8531970">
        <ele>1270.5</ele>
        <time>2015-08-12T16:20:35Z</time>
      </trkpt>
      <trkpt lat="42.3492840" lon="1.8532160">
        <ele>1270.6</ele>
        <time>2015-08-12T16:20:36Z</time>
      </trkpt>
      <trkpt lat="42.3492550" lon="1.8532260">
        <ele>1270.7</ele>
        <time>2015-08-12T16:20:37Z</time>
      </trkpt>
      <trkpt lat="42.3492360" lon="1.8532000">
        <ele>1270.7</ele>
        <time>2015-08-12T16:20:38Z</time>
      </trkpt>
      <trkpt lat="42.3491920" lon="1.8531720">
        <ele>1270.8</ele>
        <time>2015-08-12T16:20:40Z</time>
      </trkpt>
      <trkpt lat="42.3491330" lon="1.8531600">
        <ele>1270.9</ele>
        <time>2015-08-12T16:20:42Z</time>
      </trkpt>
      <trkpt lat="42.3491040" lon="1.8531430">
        <ele>1270.9</ele>
        <time>2015-08-12T16:20:43Z</time>
      </trkpt>
      <trkpt lat="42.3490470" lon="1.8531320">
        <ele>1271.0</ele>
        <time>2015-08-12T16:20:45Z</time>
      </trkpt>
      <trkpt lat="42.3490170" lon="1.8531290">
        <ele>1271.0</ele>
        <time>2015-08-12T16:20:46Z</time>
      </trkpt>
      <trkpt lat="42.3489790" lon="1.8531220">
        <ele>1271.1</ele>
        <time>2015-08-12T16:20:48Z</time>
      </trkpt>
      <trkpt lat="42.3489490" lon="1.8530990">
        <ele>1271.1</ele>
        <time>2015-08-12T16:20:50Z</time>
      </trkpt>
      <trkpt lat="42.3489020" lon="1.8530540">
        <ele>1271.1</ele>
        <time>2015-08-12T16:20:52Z</time>
      </trkpt>
      <trkpt lat="42.3488730" lon="1.8530290">
        <ele>1271.1</ele>
        <time>2015-08-12T16:20:53Z</time>
      </trkpt>
      <trkpt lat="42.3488400" lon="1.8530280">
        <ele>1271.1</ele>
        <time>2015-08-12T16:20:55Z</time>
      </trkpt>
      <trkpt lat="42.3487940" lon="1.8529980">
        <ele>1271.1</ele>
        <time>2015-08-12T16:20:57Z</time>
      </trkpt>
      <trkpt lat="42.3487740" lon="1.8529710">
        <ele>1271.1</ele>
        <time>2015-08-12T16:20:58Z</time>
      </trkpt>
      <trkpt lat="42.3487360" lon="1.8529350">
        <ele>1271.1</ele>
        <time>2015-08-12T16:21:00Z</time>
      </trkpt>
      <trkpt lat="42.3487120" lon="1.8528960">
        <ele>1271.2</ele>
        <time>2015-08-12T16:21:01Z</time>
      </trkpt>
      <trkpt lat="42.3486880" lon="1.8528730">
        <ele>1271.2</ele>
        <time>2015-08-12T16:21:02Z</time>
      </trkpt>
      <trkpt lat="42.3486680" lon="1.8528400">
        <ele>1271.3</ele>
        <time>2015-08-12T16:21:03Z</time>
      </trkpt>
      <trkpt lat="42.3486540" lon="1.8527730">
        <ele>1271.3</ele>
        <time>2015-08-12T16:21:05Z</time>
      </trkpt>
      <trkpt lat="42.3486430" lon="1.8527380">
        <ele>1271.3</ele>
        <time>2015-08-12T16:21:06Z</time>
      </trkpt>
      <trkpt lat="42.3486110" lon="1.8526650">
        <ele>1271.3</ele>
        <time>2015-08-12T16:21:08Z</time>
      </trkpt>
      <trkpt lat="42.3485950" lon="1.8526230">
        <ele>1271.3</ele>
        <time>2015-08-12T16:21:09Z</time>
      </trkpt>
      <trkpt lat="42.3485790" lon="1.8525800">
        <ele>1271.3</ele>
        <time>2015-08-12T16:21:10Z</time>
      </trkpt>
      <trkpt lat="42.3485510" lon="1.8525300">
        <ele>1271.4</ele>
        <time>2015-08-12T16:21:11Z</time>
      </trkpt>
      <trkpt lat="42.3485260" lon="1.8525000">
        <ele>1271.4</ele>
        <time>2015-08-12T16:21:12Z</time>
      </trkpt>
      <trkpt lat="42.3485360" lon="1.8524590">
        <ele>1271.3</ele>
        <time>2015-08-12T16:21:13Z</time>
      </trkpt>
      <trkpt lat="42.3485220" lon="1.8523870">
        <ele>1271.3</ele>
        <time>2015-08-12T16:21:15Z</time>
      </trkpt>
      <trkpt lat="42.3485080" lon="1.8523260">
        <ele>1271.2</ele>
        <time>2015-08-12T16:21:17Z</time>
      </trkpt>
      <trkpt lat="42.3484850" lon="1.8522580">
        <ele>1271.2</ele>
        <time>2015-08-12T16:21:19Z</time>
      </trkpt>
      <trkpt lat="42.3484560" lon="1.8521960">
        <ele>1271.2</ele>
        <time>2015-08-12T16:21:21Z</time>
      </trkpt>
      <trkpt lat="42.3484350" lon="1.8521400">
        <ele>1271.2</ele>
        <time>2015-08-12T16:21:23Z</time>
      </trkpt>
      <trkpt lat="42.3484200" lon="1.8520660">
        <ele>1271.1</ele>
        <time>2015-08-12T16:21:25Z</time>
      </trkpt>
      <trkpt lat="42.3484040" lon="1.8520270">
        <ele>1271.0</ele>
        <time>2015-08-12T16:21:26Z</time>
      </trkpt>
      <trkpt lat="42.3483920" lon="1.8519670">
        <ele>1270.8</ele>
        <time>2015-08-12T16:21:28Z</time>
      </trkpt>
      <trkpt lat="42.3483840" lon="1.8519290">
        <ele>1270.7</ele>
        <time>2015-08-12T16:21:29Z</time>
      </trkpt>
      <trkpt lat="42.3483570" lon="1.8518750">
        <ele>1270.5</ele>
        <time>2015-08-12T16:21:30Z</time>
      </trkpt>
      <trkpt lat="42.3483460" lon="1.8518140">
        <ele>1270.3</ele>
        <time>2015-08-12T16:21:31Z</time>
      </trkpt>
      <trkpt lat="42.3483220" lon="1.8517780">
        <ele>1270.3</ele>
        <time>2015-08-12T16:21:32Z</time>
      </trkpt>
      <trkpt lat="42.3483090" lon="1.8517390">
        <ele>1270.2</ele>
        <time>2015-08-12T16:21:33Z</time>
      </trkpt>
      <trkpt lat="42.3482790" lon="1.8516970">
        <ele>1270.1</ele>
        <time>2015-08-12T16:21:35Z</time>
      </trkpt>
      <trkpt lat="42.3482580" lon="1.8516420">
        <ele>1270.0</ele>
        <time>2015-08-12T16:21:36Z</time>
      </trkpt>
      <trkpt lat="42.3482250" lon="1.8515670">
        <ele>1269.8</ele>
        <time>2015-08-12T16:21:38Z</time>
      </trkpt>
      <trkpt lat="42.3481900" lon="1.8515500">
        <ele>1269.9</ele>
        <time>2015-08-12T16:21:39Z</time>
      </trkpt>
      <trkpt lat="42.3481780" lon="1.8515090">
        <ele>1269.8</ele>
        <time>2015-08-12T16:21:40Z</time>
      </trkpt>
      <trkpt lat="42.3481580" lon="1.8514750">
        <ele>1269.7</ele>
        <time>2015-08-12T16:21:41Z</time>
      </trkpt>
      <trkpt lat="42.3481280" lon="1.8514330">
        <ele>1269.7</ele>
        <time>2015-08-12T16:21:42Z</time>
      </trkpt>
      <trkpt lat="42.3481160" lon="1.8513970">
        <ele>1269.6</ele>
        <time>2015-08-12T16:21:43Z</time>
      </trkpt>
      <trkpt lat="42.3480760" lon="1.8513710">
        <ele>1269.7</ele>
        <time>2015-08-12T16:21:44Z</time>
      </trkpt>
      <trkpt lat="42.3480340" lon="1.8513280">
        <ele>1269.7</ele>
        <time>2015-08-12T16:21:45Z</time>
      </trkpt>
      <trkpt lat="42.3480050" lon="1.8512960">
        <ele>1269.7</ele>
        <time>2015-08-12T16:21:46Z</time>
      </trkpt>
      <trkpt lat="42.3479830" lon="1.8512650">
        <ele>1269.7</ele>
        <time>2015-08-12T16:21:47Z</time>
      </trkpt>
      <trkpt lat="42.3479670" lon="1.8512300">
        <ele>1269.7</ele>
        <time>2015-08-12T16:21:48Z</time>
      </trkpt>
      <trkpt lat="42.3479250" lon="1.8511780">
        <ele>1269.8</ele>
        <time>2015-08-12T16:21:50Z</time>
      </trkpt>
      <trkpt lat="42.3478840" lon="1.8511190">
        <ele>1269.9</ele>
        <time>2015-08-12T16:21:52Z</time>
      </trkpt>
      <trkpt lat="42.3478590" lon="1.8510810">
        <ele>1269.9</ele>
        <time>2015-08-12T16:21:53Z</time>
      </trkpt>
      <trkpt lat="42.3478310" lon="1.8510580">
        <ele>1270.1</ele>
        <time>2015-08-12T16:21:54Z</time>
      </trkpt>
      <trkpt lat="42.3477860" lon="1.8510210">
        <ele>1270.2</ele>
        <time>2015-08-12T16:21:56Z</time>
      </trkpt>
      <trkpt lat="42.3477650" lon="1.8509900">
        <ele>1270.3</ele>
        <time>2015-08-12T16:21:57Z</time>
      </trkpt>
      <trkpt lat="42.3477480" lon="1.8509590">
        <ele>1270.3</ele>
        <time>2015-08-12T16:21:58Z</time>
      </trkpt>
      <trkpt lat="42.3477270" lon="1.8509230">
        <ele>1270.4</ele>
        <time>2015-08-12T16:21:59Z</time>
      </trkpt>
      <trkpt lat="42.3477050" lon="1.8508930">
        <ele>1270.4</ele>
        <time>2015-08-12T16:22:00Z</time>
      </trkpt>
      <trkpt lat="42.3476870" lon="1.8508610">
        <ele>1270.4</ele>
        <time>2015-08-12T16:22:01Z</time>
      </trkpt>
      <trkpt lat="42.3476720" lon="1.8508250">
        <ele>1270.4</ele>
        <time>2015-08-12T16:22:02Z</time>
      </trkpt>
      <trkpt lat="42.3476450" lon="1.8508010">
        <ele>1270.6</ele>
        <time>2015-08-12T16:22:03Z</time>
      </trkpt>
      <trkpt lat="42.3476230" lon="1.8507700">
        <ele>1270.6</ele>
        <time>2015-08-12T16:22:04Z</time>
      </trkpt>
      <trkpt lat="42.3475970" lon="1.8507140">
        <ele>1270.6</ele>
        <time>2015-08-12T16:22:06Z</time>
      </trkpt>
      <trkpt lat="42.3475670" lon="1.8506440">
        <ele>1270.6</ele>
        <time>2015-08-12T16:22:08Z</time>
      </trkpt>
      <trkpt lat="42.3475390" lon="1.8505980">
        <ele>1270.7</ele>
        <time>2015-08-12T16:22:09Z</time>
      </trkpt>
      <trkpt lat="42.3475080" lon="1.8505760">
        <ele>1270.8</ele>
        <time>2015-08-12T16:22:10Z</time>
      </trkpt>
      <trkpt lat="42.3474810" lon="1.8505310">
        <ele>1270.9</ele>
        <time>2015-08-12T16:22:11Z</time>
      </trkpt>
      <trkpt lat="42.3474330" lon="1.8504760">
        <ele>1271.0</ele>
        <time>2015-08-12T16:22:13Z</time>
      </trkpt>
      <trkpt lat="42.3473970" lon="1.8504460">
        <ele>1271.2</ele>
        <time>2015-08-12T16:22:14Z</time>
      </trkpt>
      <trkpt lat="42.3473620" lon="1.8504100">
        <ele>1271.3</ele>
        <time>2015-08-12T16:22:15Z</time>
      </trkpt>
      <trkpt lat="42.3473380" lon="1.8503720">
        <ele>1271.2</ele>
        <time>2015-08-12T16:22:16Z</time>
      </trkpt>
      <trkpt lat="42.3473220" lon="1.8503320">
        <ele>1271.0</ele>
        <time>2015-08-12T16:22:17Z</time>
      </trkpt>
      <trkpt lat="42.3472990" lon="1.8503090">
        <ele>1271.0</ele>
        <time>2015-08-12T16:22:18Z</time>
      </trkpt>
      <trkpt lat="42.3472370" lon="1.8502550">
        <ele>1270.9</ele>
        <time>2015-08-12T16:22:20Z</time>
      </trkpt>
      <trkpt lat="42.3472250" lon="1.8501990">
        <ele>1270.6</ele>
        <time>2015-08-12T16:22:21Z</time>
      </trkpt>
      <trkpt lat="42.3472070" lon="1.8501670">
        <ele>1270.5</ele>
        <time>2015-08-12T16:22:22Z</time>
      </trkpt>
      <trkpt lat="42.3471890" lon="1.8501210">
        <ele>1270.3</ele>
        <time>2015-08-12T16:22:23Z</time>
      </trkpt>
      <trkpt lat="42.3471750" lon="1.8500880">
        <ele>1270.1</ele>
        <time>2015-08-12T16:22:24Z</time>
      </trkpt>
      <trkpt lat="42.3471250" lon="1.8500560">
        <ele>1270.2</ele>
        <time>2015-08-12T16:22:26Z</time>
      </trkpt>
      <trkpt lat="42.3471080" lon="1.8500220">
        <ele>1270.0</ele>
        <time>2015-08-12T16:22:27Z</time>
      </trkpt>
      <trkpt lat="42.3470750" lon="1.8499980">
        <ele>1270.1</ele>
        <time>2015-08-12T16:22:28Z</time>
      </trkpt>
      <trkpt lat="42.3470580" lon="1.8499570">
        <ele>1270.0</ele>
        <time>2015-08-12T16:22:29Z</time>
      </trkpt>
      <trkpt lat="42.3470270" lon="1.8499040">
        <ele>1270.0</ele>
        <time>2015-08-12T16:22:31Z</time>
      </trkpt>
      <trkpt lat="42.3469900" lon="1.8498760">
        <ele>1270.3</ele>
        <time>2015-08-12T16:22:32Z</time>
      </trkpt>
      <trkpt lat="42.3469370" lon="1.8498270">
        <ele>1270.6</ele>
        <time>2015-08-12T16:22:34Z</time>
      </trkpt>
      <trkpt lat="42.3469040" lon="1.8497730">
        <ele>1270.7</ele>
        <time>2015-08-12T16:22:36Z</time>
      </trkpt>
      <trkpt lat="42.3468760" lon="1.8497130">
        <ele>1270.7</ele>
        <time>2015-08-12T16:22:38Z</time>
      </trkpt>
      <trkpt lat="42.3468420" lon="1.8496540">
        <ele>1270.9</ele>
        <time>2015-08-12T16:22:39Z</time>
      </trkpt>
      <trkpt lat="42.3468250" lon="1.8496100">
        <ele>1270.9</ele>
        <time>2015-08-12T16:22:40Z</time>
      </trkpt>
      <trkpt lat="42.3468020" lon="1.8495660">
        <ele>1271.0</ele>
        <time>2015-08-12T16:22:41Z</time>
      </trkpt>
      <trkpt lat="42.3467770" lon="1.8495250">
        <ele>1271.3</ele>
        <time>2015-08-12T16:22:42Z</time>
      </trkpt>
      <trkpt lat="42.3467480" lon="1.8494960">
        <ele>1271.7</ele>
        <time>2015-08-12T16:22:43Z</time>
      </trkpt>
      <trkpt lat="42.3467310" lon="1.8494550">
        <ele>1271.9</ele>
        <time>2015-08-12T16:22:44Z</time>
      </trkpt>
      <trkpt lat="42.3467110" lon="1.8494170">
        <ele>1272.1</ele>
        <time>2015-08-12T16:22:45Z</time>
      </trkpt>
      <trkpt lat="42.3466920" lon="1.8493640">
        <ele>1272.3</ele>
        <time>2015-08-12T16:22:46Z</time>
      </trkpt>
      <trkpt lat="42.3466720" lon="1.8493110">
        <ele>1272.4</ele>
        <time>2015-08-12T16:22:47Z</time>
      </trkpt>
      <trkpt lat="42.3466510" lon="1.8492760">
        <ele>1272.7</ele>
        <time>2015-08-12T16:22:48Z</time>
      </trkpt>
      <trkpt lat="42.3466220" lon="1.8492080">
        <ele>1272.9</ele>
        <time>2015-08-12T16:22:49Z</time>
      </trkpt>
      <trkpt lat="42.3465960" lon="1.8491600">
        <ele>1273.1</ele>
        <time>2015-08-12T16:22:50Z</time>
      </trkpt>
      <trkpt lat="42.3465760" lon="1.8490920">
        <ele>1273.2</ele>
        <time>2015-08-12T16:22:51Z</time>
      </trkpt>
      <trkpt lat="42.3465390" lon="1.8490230">
        <ele>1273.5</ele>
        <time>2015-08-12T16:22:52Z</time>
      </trkpt>
      <trkpt lat="42.3465290" lon="1.8489610">
        <ele>1273.5</ele>
        <time>2015-08-12T16:22:53Z</time>
      </trkpt>
      <trkpt lat="42.3465240" lon="1.8489030">
        <ele>1273.4</ele>
        <time>2015-08-12T16:22:54Z</time>
      </trkpt>
      <trkpt lat="42.3464940" lon="1.8488430">
        <ele>1273.6</ele>
        <time>2015-08-12T16:22:56Z</time>
      </trkpt>
      <trkpt lat="42.3464850" lon="1.8487990">
        <ele>1273.6</ele>
        <time>2015-08-12T16:22:57Z</time>
      </trkpt>
      <trkpt lat="42.3464680" lon="1.8487640">
        <ele>1273.7</ele>
        <time>2015-08-12T16:22:58Z</time>
      </trkpt>
      <trkpt lat="42.3464680" lon="1.8487150">
        <ele>1273.6</ele>
        <time>2015-08-12T16:22:59Z</time>
      </trkpt>
      <trkpt lat="42.3464560" lon="1.8486700">
        <ele>1273.6</ele>
        <time>2015-08-12T16:23:00Z</time>
      </trkpt>
      <trkpt lat="42.3464490" lon="1.8486260">
        <ele>1273.6</ele>
        <time>2015-08-12T16:23:01Z</time>
      </trkpt>
      <trkpt lat="42.3464350" lon="1.8485840">
        <ele>1273.6</ele>
        <time>2015-08-12T16:23:02Z</time>
      </trkpt>
      <trkpt lat="42.3464150" lon="1.8485510">
        <ele>1273.8</ele>
        <time>2015-08-12T16:23:03Z</time>
      </trkpt>
      <trkpt lat="42.3464020" lon="1.8485140">
        <ele>1273.8</ele>
        <time>2015-08-12T16:23:04Z</time>
      </trkpt>
      <trkpt lat="42.3463910" lon="1.8484740">
        <ele>1273.9</ele>
        <time>2015-08-12T16:23:05Z</time>
      </trkpt>
      <trkpt lat="42.3463600" lon="1.8484310">
        <ele>1274.1</ele>
        <time>2015-08-12T16:23:06Z</time>
      </trkpt>
      <trkpt lat="42.3463340" lon="1.8483690">
        <ele>1274.2</ele>
        <time>2015-08-12T16:23:07Z</time>
      </trkpt>
      <trkpt lat="42.3463090" lon="1.8483080">
        <ele>1274.3</ele>
        <time>2015-08-12T16:23:08Z</time>
      </trkpt>
      <trkpt lat="42.3462930" lon="1.8482680">
        <ele>1274.4</ele>
        <time>2015-08-12T16:23:09Z</time>
      </trkpt>
      <trkpt lat="42.3462760" lon="1.8482120">
        <ele>1274.4</ele>
        <time>2015-08-12T16:23:10Z</time>
      </trkpt>
      <trkpt lat="42.3462630" lon="1.8481720">
        <ele>1274.5</ele>
        <time>2015-08-12T16:23:11Z</time>
      </trkpt>
      <trkpt lat="42.3462450" lon="1.8481340">
        <ele>1274.6</ele>
        <time>2015-08-12T16:23:12Z</time>
      </trkpt>
      <trkpt lat="42.3462330" lon="1.8480770">
        <ele>1274.6</ele>
        <time>2015-08-12T16:23:13Z</time>
      </trkpt>
      <trkpt lat="42.3462100" lon="1.8480390">
        <ele>1274.7</ele>
        <time>2015-08-12T16:23:14Z</time>
      </trkpt>
      <trkpt lat="42.3461960" lon="1.8479970">
        <ele>1274.8</ele>
        <time>2015-08-12T16:23:15Z</time>
      </trkpt>
      <trkpt lat="42.3461790" lon="1.8479450">
        <ele>1274.8</ele>
        <time>2015-08-12T16:23:16Z</time>
      </trkpt>
      <trkpt lat="42.3461640" lon="1.8478930">
        <ele>1274.9</ele>
        <time>2015-08-12T16:23:17Z</time>
      </trkpt>
      <trkpt lat="42.3461290" lon="1.8478610">
        <ele>1275.3</ele>
        <time>2015-08-12T16:23:18Z</time>
      </trkpt>
      <trkpt lat="42.3461100" lon="1.8478180">
        <ele>1275.5</ele>
        <time>2015-08-12T16:23:19Z</time>
      </trkpt>
      <trkpt lat="42.3460930" lon="1.8477780">
        <ele>1275.7</ele>
        <time>2015-08-12T16:23:20Z</time>
      </trkpt>
      <trkpt lat="42.3460800" lon="1.8477270">
        <ele>1275.8</ele>
        <time>2015-08-12T16:23:21Z</time>
      </trkpt>
      <trkpt lat="42.3460720" lon="1.8476870">
        <ele>1275.9</ele>
        <time>2015-08-12T16:23:22Z</time>
      </trkpt>
      <trkpt lat="42.3460590" lon="1.8476430">
        <ele>1276.0</ele>
        <time>2015-08-12T16:23:23Z</time>
      </trkpt>
      <trkpt lat="42.3460390" lon="1.8475980">
        <ele>1276.2</ele>
        <time>2015-08-12T16:23:24Z</time>
      </trkpt>
      <trkpt lat="42.3460310" lon="1.8475600">
        <ele>1276.2</ele>
        <time>2015-08-12T16:23:25Z</time>
      </trkpt>
      <trkpt lat="42.3460220" lon="1.8475080">
        <ele>1276.3</ele>
        <time>2015-08-12T16:23:26Z</time>
      </trkpt>
      <trkpt lat="42.3460110" lon="1.8474660">
        <ele>1276.3</ele>
        <time>2015-08-12T16:23:27Z</time>
      </trkpt>
      <trkpt lat="42.3459940" lon="1.8474290">
        <ele>1276.5</ele>
        <time>2015-08-12T16:23:28Z</time>
      </trkpt>
      <trkpt lat="42.3459680" lon="1.8473640">
        <ele>1276.6</ele>
        <time>2015-08-12T16:23:29Z</time>
      </trkpt>
      <trkpt lat="42.3459450" lon="1.8473280">
        <ele>1276.7</ele>
        <time>2015-08-12T16:23:30Z</time>
      </trkpt>
      <trkpt lat="42.3459500" lon="1.8472830">
        <ele>1276.6</ele>
        <time>2015-08-12T16:23:31Z</time>
      </trkpt>
      <trkpt lat="42.3459420" lon="1.8472240">
        <ele>1276.6</ele>
        <time>2015-08-12T16:23:33Z</time>
      </trkpt>
      <trkpt lat="42.3459250" lon="1.8471780">
        <ele>1276.7</ele>
        <time>2015-08-12T16:23:34Z</time>
      </trkpt>
      <trkpt lat="42.3459050" lon="1.8471480">
        <ele>1276.7</ele>
        <time>2015-08-12T16:23:35Z</time>
      </trkpt>
      <trkpt lat="42.3459340" lon="1.8470840">
        <ele>1276.5</ele>
        <time>2015-08-12T16:23:36Z</time>
      </trkpt>
      <trkpt lat="42.3459110" lon="1.8470620">
        <ele>1276.6</ele>
        <time>2015-08-12T16:23:37Z</time>
      </trkpt>
      <trkpt lat="42.3458930" lon="1.8470340">
        <ele>1276.6</ele>
        <time>2015-08-12T16:23:38Z</time>
      </trkpt>
      <trkpt lat="42.3458760" lon="1.8469910">
        <ele>1276.5</ele>
        <time>2015-08-12T16:23:39Z</time>
      </trkpt>
      <trkpt lat="42.3458510" lon="1.8469280">
        <ele>1276.5</ele>
        <time>2015-08-12T16:23:41Z</time>
      </trkpt>
      <trkpt lat="42.3458260" lon="1.8468620">
        <ele>1276.4</ele>
        <time>2015-08-12T16:23:43Z</time>
      </trkpt>
      <trkpt lat="42.3458310" lon="1.8468150">
        <ele>1276.2</ele>
        <time>2015-08-12T16:23:44Z</time>
      </trkpt>
      <trkpt lat="42.3458330" lon="1.8467750">
        <ele>1276.1</ele>
        <time>2015-08-12T16:23:45Z</time>
      </trkpt>
      <trkpt lat="42.3458250" lon="1.8467240">
        <ele>1275.9</ele>
        <time>2015-08-12T16:23:46Z</time>
      </trkpt>
      <trkpt lat="42.3458380" lon="1.8466640">
        <ele>1275.7</ele>
        <time>2015-08-12T16:23:48Z</time>
      </trkpt>
      <trkpt lat="42.3458470" lon="1.8466040">
        <ele>1275.5</ele>
        <time>2015-08-12T16:23:50Z</time>
      </trkpt>
      <trkpt lat="42.3458620" lon="1.8465430">
        <ele>1275.3</ele>
        <time>2015-08-12T16:23:52Z</time>
      </trkpt>
      <trkpt lat="42.3458670" lon="1.8464640">
        <ele>1275.1</ele>
        <time>2015-08-12T16:23:54Z</time>
      </trkpt>
      <trkpt lat="42.3458730" lon="1.8464020">
        <ele>1274.9</ele>
        <time>2015-08-12T16:23:56Z</time>
      </trkpt>
      <trkpt lat="42.3458570" lon="1.8463660">
        <ele>1274.8</ele>
        <time>2015-08-12T16:23:57Z</time>
      </trkpt>
      <trkpt lat="42.3458470" lon="1.8463320">
        <ele>1274.7</ele>
        <time>2015-08-12T16:23:58Z</time>
      </trkpt>
      <trkpt lat="42.3458460" lon="1.8462900">
        <ele>1274.6</ele>
        <time>2015-08-12T16:23:59Z</time>
      </trkpt>
      <trkpt lat="42.3458570" lon="1.8462280">
        <ele>1274.5</ele>
        <time>2015-08-12T16:24:00Z</time>
      </trkpt>
      <trkpt lat="42.3458630" lon="1.8461820">
        <ele>1274.5</ele>
        <time>2015-08-12T16:24:01Z</time>
      </trkpt>
      <trkpt lat="42.3458670" lon="1.8461340">
        <ele>1274.4</ele>
        <time>2015-08-12T16:24:02Z</time>
      </trkpt>
      <trkpt lat="42.3458550" lon="1.8460850">
        <ele>1274.5</ele>
        <time>2015-08-12T16:24:03Z</time>
      </trkpt>
      <trkpt lat="42.3458530" lon="1.8460400">
        <ele>1274.5</ele>
        <time>2015-08-12T16:24:04Z</time>
      </trkpt>
      <trkpt lat="42.3458510" lon="1.8459880">
        <ele>1274.5</ele>
        <time>2015-08-12T16:24:05Z</time>
      </trkpt>
      <trkpt lat="42.3458430" lon="1.8459470">
        <ele>1274.5</ele>
        <time>2015-08-12T16:24:06Z</time>
      </trkpt>
      <trkpt lat="42.3458190" lon="1.8458630">
        <ele>1274.5</ele>
        <time>2015-08-12T16:24:08Z</time>
      </trkpt>
      <trkpt lat="42.3458070" lon="1.8458120">
        <ele>1274.6</ele>
        <time>2015-08-12T16:24:09Z</time>
      </trkpt>
      <trkpt lat="42.3457990" lon="1.8457660">
        <ele>1274.6</ele>
        <time>2015-08-12T16:24:10Z</time>
      </trkpt>
      <trkpt lat="42.3458110" lon="1.8457180">
        <ele>1274.6</ele>
        <time>2015-08-12T16:24:11Z</time>
      </trkpt>
      <trkpt lat="42.3458120" lon="1.8456600">
        <ele>1274.6</ele>
        <time>2015-08-12T16:24:12Z</time>
      </trkpt>
      <trkpt lat="42.3458090" lon="1.8456060">
        <ele>1274.6</ele>
        <time>2015-08-12T16:24:13Z</time>
      </trkpt>
      <trkpt lat="42.3457700" lon="1.8455690">
        <ele>1274.8</ele>
        <time>2015-08-12T16:24:14Z</time>
      </trkpt>
      <trkpt lat="42.3457490" lon="1.8455240">
        <ele>1275.0</ele>
        <time>2015-08-12T16:24:15Z</time>
      </trkpt>
      <trkpt lat="42.3457120" lon="1.8454950">
        <ele>1275.2</ele>
        <time>2015-08-12T16:24:16Z</time>
      </trkpt>
      <trkpt lat="42.3456730" lon="1.8454750">
        <ele>1275.4</ele>
        <time>2015-08-12T16:24:17Z</time>
      </trkpt>
      <trkpt lat="42.3456400" lon="1.8454460">
        <ele>1275.6</ele>
        <time>2015-08-12T16:24:18Z</time>
      </trkpt>
      <trkpt lat="42.3456100" lon="1.8454140">
        <ele>1275.8</ele>
        <time>2015-08-12T16:24:19Z</time>
      </trkpt>
      <trkpt lat="42.3455830" lon="1.8453810">
        <ele>1275.8</ele>
        <time>2015-08-12T16:24:20Z</time>
      </trkpt>
      <trkpt lat="42.3455180" lon="1.8453280">
        <ele>1276.0</ele>
        <time>2015-08-12T16:24:22Z</time>
      </trkpt>
      <trkpt lat="42.3454800" lon="1.8452950">
        <ele>1276.0</ele>
        <time>2015-08-12T16:24:23Z</time>
      </trkpt>
      <trkpt lat="42.3454420" lon="1.8452770">
        <ele>1276.2</ele>
        <time>2015-08-12T16:24:24Z</time>
      </trkpt>
      <trkpt lat="42.3454070" lon="1.8452670">
        <ele>1276.4</ele>
        <time>2015-08-12T16:24:25Z</time>
      </trkpt>
      <trkpt lat="42.3453770" lon="1.8452350">
        <ele>1276.5</ele>
        <time>2015-08-12T16:24:26Z</time>
      </trkpt>
      <trkpt lat="42.3453500" lon="1.8452090">
        <ele>1276.7</ele>
        <time>2015-08-12T16:24:27Z</time>
      </trkpt>
      <trkpt lat="42.3453090" lon="1.8451860">
        <ele>1277.0</ele>
        <time>2015-08-12T16:24:28Z</time>
      </trkpt>
      <trkpt lat="42.3452590" lon="1.8451520">
        <ele>1277.4</ele>
        <time>2015-08-12T16:24:29Z</time>
      </trkpt>
      <trkpt lat="42.3452180" lon="1.8451060">
        <ele>1277.6</ele>
        <time>2015-08-12T16:24:30Z</time>
      </trkpt>
      <trkpt lat="42.3451840" lon="1.8450680">
        <ele>1277.7</ele>
        <time>2015-08-12T16:24:31Z</time>
      </trkpt>
      <trkpt lat="42.3451480" lon="1.8450330">
        <ele>1277.9</ele>
        <time>2015-08-12T16:24:32Z</time>
      </trkpt>
      <trkpt lat="42.3451220" lon="1.8449910">
        <ele>1278.0</ele>
        <time>2015-08-12T16:24:33Z</time>
      </trkpt>
      <trkpt lat="42.3450940" lon="1.8449560">
        <ele>1278.1</ele>
        <time>2015-08-12T16:24:34Z</time>
      </trkpt>
      <trkpt lat="42.3450600" lon="1.8449010">
        <ele>1278.1</ele>
        <time>2015-08-12T16:24:35Z</time>
      </trkpt>
      <trkpt lat="42.3450220" lon="1.8448510">
        <ele>1278.2</ele>
        <time>2015-08-12T16:24:36Z</time>
      </trkpt>
      <trkpt lat="42.3450060" lon="1.8447990">
        <ele>1278.1</ele>
        <time>2015-08-12T16:24:37Z</time>
      </trkpt>
      <trkpt lat="42.3449780" lon="1.8447680">
        <ele>1278.2</ele>
        <time>2015-08-12T16:24:38Z</time>
      </trkpt>
      <trkpt lat="42.3449610" lon="1.8447350">
        <ele>1278.2</ele>
        <time>2015-08-12T16:24:39Z</time>
      </trkpt>
      <trkpt lat="42.3449380" lon="1.8446960">
        <ele>1278.2</ele>
        <time>2015-08-12T16:24:40Z</time>
      </trkpt>
      <trkpt lat="42.3449230" lon="1.8446430">
        <ele>1278.1</ele>
        <time>2015-08-12T16:24:41Z</time>
      </trkpt>
      <trkpt lat="42.3449030" lon="1.8446030">
        <ele>1278.0</ele>
        <time>2015-08-12T16:24:42Z</time>
      </trkpt>
      <trkpt lat="42.3449120" lon="1.8445590">
        <ele>1277.8</ele>
        <time>2015-08-12T16:24:43Z</time>
      </trkpt>
      <trkpt lat="42.3448930" lon="1.8444990">
        <ele>1278.0</ele>
        <time>2015-08-12T16:24:44Z</time>
      </trkpt>
      <trkpt lat="42.3448870" lon="1.8444510">
        <ele>1278.0</ele>
        <time>2015-08-12T16:24:45Z</time>
      </trkpt>
      <trkpt lat="42.3448810" lon="1.8444010">
        <ele>1278.1</ele>
        <time>2015-08-12T16:24:46Z</time>
      </trkpt>
      <trkpt lat="42.3448860" lon="1.8443530">
        <ele>1278.0</ele>
        <time>2015-08-12T16:24:47Z</time>
      </trkpt>
      <trkpt lat="42.3448830" lon="1.8443040">
        <ele>1278.0</ele>
        <time>2015-08-12T16:24:48Z</time>
      </trkpt>
      <trkpt lat="42.3448950" lon="1.8442220">
        <ele>1277.8</ele>
        <time>2015-08-12T16:24:49Z</time>
      </trkpt>
      <trkpt lat="42.3448990" lon="1.8441460">
        <ele>1277.8</ele>
        <time>2015-08-12T16:24:50Z</time>
      </trkpt>
      <trkpt lat="42.3448930" lon="1.8440650">
        <ele>1277.8</ele>
        <time>2015-08-12T16:24:51Z</time>
      </trkpt>
      <trkpt lat="42.3448990" lon="1.8439770">
        <ele>1277.7</ele>
        <time>2015-08-12T16:24:52Z</time>
      </trkpt>
      <trkpt lat="42.3449220" lon="1.8439030">
        <ele>1277.4</ele>
        <time>2015-08-12T16:24:53Z</time>
      </trkpt>
      <trkpt lat="42.3449310" lon="1.8438240">
        <ele>1277.3</ele>
        <time>2015-08-12T16:24:54Z</time>
      </trkpt>
      <trkpt lat="42.3449270" lon="1.8437530">
        <ele>1277.3</ele>
        <time>2015-08-12T16:24:55Z</time>
      </trkpt>
      <trkpt lat="42.3449390" lon="1.8436730">
        <ele>1277.3</ele>
        <time>2015-08-12T16:24:56Z</time>
      </trkpt>
      <trkpt lat="42.3449550" lon="1.8435960">
        <ele>1277.2</ele>
        <time>2015-08-12T16:24:57Z</time>
      </trkpt>
      <trkpt lat="42.3449610" lon="1.8435310">
        <ele>1277.2</ele>
        <time>2015-08-12T16:24:58Z</time>
      </trkpt>
      <trkpt lat="42.3449640" lon="1.8434630">
        <ele>1277.2</ele>
        <time>2015-08-12T16:24:59Z</time>
      </trkpt>
      <trkpt lat="42.3449610" lon="1.8433930">
        <ele>1277.3</ele>
        <time>2015-08-12T16:25:00Z</time>
      </trkpt>
      <trkpt lat="42.3449670" lon="1.8433270">
        <ele>1277.4</ele>
        <time>2015-08-12T16:25:01Z</time>
      </trkpt>
      <trkpt lat="42.3449700" lon="1.8432670">
        <ele>1277.4</ele>
        <time>2015-08-12T16:25:02Z</time>
      </trkpt>
      <trkpt lat="42.3449840" lon="1.8432090">
        <ele>1277.3</ele>
        <time>2015-08-12T16:25:03Z</time>
      </trkpt>
      <trkpt lat="42.3450120" lon="1.8431460">
        <ele>1277.1</ele>
        <time>2015-08-12T16:25:04Z</time>
      </trkpt>
      <trkpt lat="42.3450070" lon="1.8430640">
        <ele>1277.2</ele>
        <time>2015-08-12T16:25:05Z</time>
      </trkpt>
      <trkpt lat="42.3450130" lon="1.8430020">
        <ele>1277.3</ele>
        <time>2015-08-12T16:25:06Z</time>
      </trkpt>
      <trkpt lat="42.3450270" lon="1.8429230">
        <ele>1277.2</ele>
        <time>2015-08-12T16:25:07Z</time>
      </trkpt>
      <trkpt lat="42.3450300" lon="1.8428620">
        <ele>1277.4</ele>
        <time>2015-08-12T16:25:08Z</time>
      </trkpt>
      <trkpt lat="42.3450290" lon="1.8427910">
        <ele>1277.6</ele>
        <time>2015-08-12T16:25:09Z</time>
      </trkpt>
      <trkpt lat="42.3450590" lon="1.8427240">
        <ele>1277.5</ele>
        <time>2015-08-12T16:25:10Z</time>
      </trkpt>
      <trkpt lat="42.3450640" lon="1.8426540">
        <ele>1277.7</ele>
        <time>2015-08-12T16:25:11Z</time>
      </trkpt>
      <trkpt lat="42.3450770" lon="1.8426100">
        <ele>1277.6</ele>
        <time>2015-08-12T16:25:12Z</time>
      </trkpt>
      <trkpt lat="42.3450950" lon="1.8425520">
        <ele>1277.6</ele>
        <time>2015-08-12T16:25:13Z</time>
      </trkpt>
      <trkpt lat="42.3450980" lon="1.8424920">
        <ele>1277.7</ele>
        <time>2015-08-12T16:25:14Z</time>
      </trkpt>
      <trkpt lat="42.3451100" lon="1.8424320">
        <ele>1277.7</ele>
        <time>2015-08-12T16:25:15Z</time>
      </trkpt>
      <trkpt lat="42.3451190" lon="1.8423680">
        <ele>1277.8</ele>
        <time>2015-08-12T16:25:16Z</time>
      </trkpt>
      <trkpt lat="42.3451340" lon="1.8423070">
        <ele>1277.8</ele>
        <time>2015-08-12T16:25:17Z</time>
      </trkpt>
      <trkpt lat="42.3451560" lon="1.8422780">
        <ele>1277.5</ele>
        <time>2015-08-12T16:25:18Z</time>
      </trkpt>
      <trkpt lat="42.3451470" lon="1.8422350">
        <ele>1277.8</ele>
        <time>2015-08-12T16:25:19Z</time>
      </trkpt>
      <trkpt lat="42.3451630" lon="1.8421890">
        <ele>1277.7</ele>
        <time>2015-08-12T16:25:20Z</time>
      </trkpt>
      <trkpt lat="42.3451550" lon="1.8421530">
        <ele>1277.9</ele>
        <time>2015-08-12T16:25:21Z</time>
      </trkpt>
      <trkpt lat="42.3451570" lon="1.8421000">
        <ele>1278.0</ele>
        <time>2015-08-12T16:25:22Z</time>
      </trkpt>
      <trkpt lat="42.3451690" lon="1.8420390">
        <ele>1278.2</ele>
        <time>2015-08-12T16:25:23Z</time>
      </trkpt>
      <trkpt lat="42.3451750" lon="1.8419890">
        <ele>1278.5</ele>
        <time>2015-08-12T16:25:24Z</time>
      </trkpt>
      <trkpt lat="42.3451590" lon="1.8419300">
        <ele>1279.2</ele>
        <time>2015-08-12T16:25:25Z</time>
      </trkpt>
      <trkpt lat="42.3451640" lon="1.8418830">
        <ele>1279.4</ele>
        <time>2015-08-12T16:25:26Z</time>
      </trkpt>
      <trkpt lat="42.3451650" lon="1.8418290">
        <ele>1279.8</ele>
        <time>2015-08-12T16:25:27Z</time>
      </trkpt>
      <trkpt lat="42.3451560" lon="1.8417700">
        <ele>1280.4</ele>
        <time>2015-08-12T16:25:29Z</time>
      </trkpt>
      <trkpt lat="42.3451520" lon="1.8417300">
        <ele>1280.8</ele>
        <time>2015-08-12T16:25:30Z</time>
      </trkpt>
      <trkpt lat="42.3451390" lon="1.8416940">
        <ele>1281.3</ele>
        <time>2015-08-12T16:25:31Z</time>
      </trkpt>
      <trkpt lat="42.3451310" lon="1.8416590">
        <ele>1281.7</ele>
        <time>2015-08-12T16:25:32Z</time>
      </trkpt>
      <trkpt lat="42.3451300" lon="1.8416210">
        <ele>1282.0</ele>
        <time>2015-08-12T16:25:33Z</time>
      </trkpt>
      <trkpt lat="42.3451230" lon="1.8415730">
        <ele>1282.5</ele>
        <time>2015-08-12T16:25:34Z</time>
      </trkpt>
      <trkpt lat="42.3451070" lon="1.8415140">
        <ele>1283.3</ele>
        <time>2015-08-12T16:25:36Z</time>
      </trkpt>
      <trkpt lat="42.3450990" lon="1.8414550">
        <ele>1283.9</ele>
        <time>2015-08-12T16:25:38Z</time>
      </trkpt>
      <trkpt lat="42.3450910" lon="1.8414170">
        <ele>1284.3</ele>
        <time>2015-08-12T16:25:40Z</time>
      </trkpt>
      <trkpt lat="42.3450780" lon="1.8413500">
        <ele>1285.1</ele>
        <time>2015-08-12T16:25:42Z</time>
      </trkpt>
      <trkpt lat="42.3450620" lon="1.8413180">
        <ele>1285.7</ele>
        <time>2015-08-12T16:25:43Z</time>
      </trkpt>
      <trkpt lat="42.3450330" lon="1.8412800">
        <ele>1286.6</ele>
        <time>2015-08-12T16:25:45Z</time>
      </trkpt>
      <trkpt lat="42.3450300" lon="1.8412260">
        <ele>1286.9</ele>
        <time>2015-08-12T16:25:47Z</time>
      </trkpt>
      <trkpt lat="42.3450200" lon="1.8411720">
        <ele>1287.1</ele>
        <time>2015-08-12T16:25:49Z</time>
      </trkpt>
      <trkpt lat="42.3450200" lon="1.8411320">
        <ele>1287.2</ele>
        <time>2015-08-12T16:25:51Z</time>
      </trkpt>
      <trkpt lat="42.3449900" lon="1.8410750">
        <ele>1287.8</ele>
        <time>2015-08-12T16:25:54Z</time>
      </trkpt>
      <trkpt lat="42.3449650" lon="1.8410210">
        <ele>1288.4</ele>
        <time>2015-08-12T16:25:56Z</time>
      </trkpt>
      <trkpt lat="42.3449660" lon="1.8409470">
        <ele>1288.4</ele>
        <time>2015-08-12T16:25:58Z</time>
      </trkpt>
      <trkpt lat="42.3449630" lon="1.8409080">
        <ele>1288.5</ele>
        <time>2015-08-12T16:25:59Z</time>
      </trkpt>
      <trkpt lat="42.3449670" lon="1.8408700">
        <ele>1288.4</ele>
        <time>2015-08-12T16:26:00Z</time>
      </trkpt>
      <trkpt lat="42.3449870" lon="1.8408120">
        <ele>1288.0</ele>
        <time>2015-08-12T16:26:02Z</time>
      </trkpt>
      <trkpt lat="42.3449940" lon="1.8407540">
        <ele>1287.9</ele>
        <time>2015-08-12T16:26:03Z</time>
      </trkpt>
      <trkpt lat="42.3449990" lon="1.8407180">
        <ele>1287.8</ele>
        <time>2015-08-12T16:26:04Z</time>
      </trkpt>
      <trkpt lat="42.3450150" lon="1.8406780">
        <ele>1287.5</ele>
        <time>2015-08-12T16:26:05Z</time>
      </trkpt>
      <trkpt lat="42.3450280" lon="1.8406010">
        <ele>1287.3</ele>
        <time>2015-08-12T16:26:07Z</time>
      </trkpt>
      <trkpt lat="42.3450220" lon="1.8405620">
        <ele>1287.4</ele>
        <time>2015-08-12T16:26:08Z</time>
      </trkpt>
      <trkpt lat="42.3450210" lon="1.8405040">
        <ele>1287.5</ele>
        <time>2015-08-12T16:26:09Z</time>
      </trkpt>
      <trkpt lat="42.3450240" lon="1.8404670">
        <ele>1287.5</ele>
        <time>2015-08-12T16:26:10Z</time>
      </trkpt>
      <trkpt lat="42.3450240" lon="1.8404190">
        <ele>1287.5</ele>
        <time>2015-08-12T16:26:11Z</time>
      </trkpt>
      <trkpt lat="42.3450300" lon="1.8403810">
        <ele>1287.3</ele>
        <time>2015-08-12T16:26:12Z</time>
      </trkpt>
      <trkpt lat="42.3450050" lon="1.8403380">
        <ele>1287.8</ele>
        <time>2015-08-12T16:26:13Z</time>
      </trkpt>
      <trkpt lat="42.3449940" lon="1.8403010">
        <ele>1288.0</ele>
        <time>2015-08-12T16:26:14Z</time>
      </trkpt>
      <trkpt lat="42.3449840" lon="1.8402640">
        <ele>1288.2</ele>
        <time>2015-08-12T16:26:15Z</time>
      </trkpt>
      <trkpt lat="42.3449660" lon="1.8402200">
        <ele>1288.6</ele>
        <time>2015-08-12T16:26:16Z</time>
      </trkpt>
      <trkpt lat="42.3449360" lon="1.8401630">
        <ele>1289.3</ele>
        <time>2015-08-12T16:26:17Z</time>
      </trkpt>
      <trkpt lat="42.3449170" lon="1.8401090">
        <ele>1289.7</ele>
        <time>2015-08-12T16:26:18Z</time>
      </trkpt>
      <trkpt lat="42.3449170" lon="1.8400690">
        <ele>1289.7</ele>
        <time>2015-08-12T16:26:19Z</time>
      </trkpt>
      <trkpt lat="42.3449190" lon="1.8400110">
        <ele>1289.6</ele>
        <time>2015-08-12T16:26:21Z</time>
      </trkpt>
      <trkpt lat="42.3449110" lon="1.8399140">
        <ele>1289.8</ele>
        <time>2015-08-12T16:26:23Z</time>
      </trkpt>
      <trkpt lat="42.3449170" lon="1.8398670">
        <ele>1289.7</ele>
        <time>2015-08-12T16:26:24Z</time>
      </trkpt>
      <trkpt lat="42.3449140" lon="1.8397950">
        <ele>1289.7</ele>
        <time>2015-08-12T16:26:25Z</time>
      </trkpt>
      <trkpt lat="42.3449180" lon="1.8397370">
        <ele>1289.6</ele>
        <time>2015-08-12T16:26:26Z</time>
      </trkpt>
      <trkpt lat="42.3449230" lon="1.8396530">
        <ele>1289.4</ele>
        <time>2015-08-12T16:26:27Z</time>
      </trkpt>
      <trkpt lat="42.3449210" lon="1.8395920">
        <ele>1289.5</ele>
        <time>2015-08-12T16:26:28Z</time>
      </trkpt>
      <trkpt lat="42.3449250" lon="1.8394940">
        <ele>1289.0</ele>
        <time>2015-08-12T16:26:29Z</time>
      </trkpt>
      <trkpt lat="42.3449340" lon="1.8394050">
        <ele>1288.4</ele>
        <time>2015-08-12T16:26:30Z</time>
      </trkpt>
      <trkpt lat="42.3449470" lon="1.8393000">
        <ele>1287.5</ele>
        <time>2015-08-12T16:26:31Z</time>
      </trkpt>
      <trkpt lat="42.3449520" lon="1.8392240">
        <ele>1287.1</ele>
        <time>2015-08-12T16:26:32Z</time>
      </trkpt>
      <trkpt lat="42.3449740" lon="1.8391360">
        <ele>1286.0</ele>
        <time>2015-08-12T16:26:33Z</time>
      </trkpt>
      <trkpt lat="42.3450060" lon="1.8390230">
        <ele>1284.4</ele>
        <time>2015-08-12T16:26:34Z</time>
      </trkpt>
      <trkpt lat="42.3450420" lon="1.8388990">
        <ele>1282.7</ele>
        <time>2015-08-12T16:26:35Z</time>
      </trkpt>
      <trkpt lat="42.3450680" lon="1.8387660">
        <ele>1281.2</ele>
        <time>2015-08-12T16:26:36Z</time>
      </trkpt>
      <trkpt lat="42.3450970" lon="1.8386190">
        <ele>1279.9</ele>
        <time>2015-08-12T16:26:37Z</time>
      </trkpt>
      <trkpt lat="42.3451080" lon="1.8385070">
        <ele>1279.3</ele>
        <time>2015-08-12T16:26:38Z</time>
      </trkpt>
      <trkpt lat="42.3451190" lon="1.8383300">
        <ele>1278.7</ele>
        <time>2015-08-12T16:26:39Z</time>
      </trkpt>
      <trkpt lat="42.3451330" lon="1.8381670">
        <ele>1277.9</ele>
        <time>2015-08-12T16:26:40Z</time>
      </trkpt>
      <trkpt lat="42.3451420" lon="1.8380350">
        <ele>1277.4</ele>
        <time>2015-08-12T16:26:41Z</time>
      </trkpt>
      <trkpt lat="42.3451570" lon="1.8378890">
        <ele>1276.7</ele>
        <time>2015-08-12T16:26:42Z</time>
      </trkpt>
      <trkpt lat="42.3451720" lon="1.8377480">
        <ele>1275.8</ele>
        <time>2015-08-12T16:26:43Z</time>
      </trkpt>
      <trkpt lat="42.3451920" lon="1.8376330">
        <ele>1274.9</ele>
        <time>2015-08-12T16:26:44Z</time>
      </trkpt>
      <trkpt lat="42.3452130" lon="1.8375170">
        <ele>1274.0</ele>
        <time>2015-08-12T16:26:45Z</time>
      </trkpt>
      <trkpt lat="42.3452250" lon="1.8373760">
        <ele>1273.3</ele>
        <time>2015-08-12T16:26:46Z</time>
      </trkpt>
      <trkpt lat="42.3452520" lon="1.8372450">
        <ele>1272.2</ele>
        <time>2015-08-12T16:26:47Z</time>
      </trkpt>
      <trkpt lat="42.3452820" lon="1.8371000">
        <ele>1271.1</ele>
        <time>2015-08-12T16:26:48Z</time>
      </trkpt>
      <trkpt lat="42.3453090" lon="1.8369660">
        <ele>1269.5</ele>
        <time>2015-08-12T16:26:49Z</time>
      </trkpt>
      <trkpt lat="42.3453170" lon="1.8368200">
        <ele>1268.3</ele>
        <time>2015-08-12T16:26:50Z</time>
      </trkpt>
      <trkpt lat="42.3453420" lon="1.8366820">
        <ele>1266.7</ele>
        <time>2015-08-12T16:26:51Z</time>
      </trkpt>
      <trkpt lat="42.3453480" lon="1.8365530">
        <ele>1265.8</ele>
        <time>2015-08-12T16:26:52Z</time>
      </trkpt>
      <trkpt lat="42.3453110" lon="1.8364140">
        <ele>1266.0</ele>
        <time>2015-08-12T16:26:53Z</time>
      </trkpt>
      <trkpt lat="42.3452890" lon="1.8362830">
        <ele>1265.7</ele>
        <time>2015-08-12T16:26:54Z</time>
      </trkpt>
      <trkpt lat="42.3452690" lon="1.8361410">
        <ele>1265.1</ele>
        <time>2015-08-12T16:26:55Z</time>
      </trkpt>
      <trkpt lat="42.3452590" lon="1.8359960">
        <ele>1264.0</ele>
        <time>2015-08-12T16:26:56Z</time>
      </trkpt>
      <trkpt lat="42.3452560" lon="1.8358490">
        <ele>1262.7</ele>
        <time>2015-08-12T16:26:57Z</time>
      </trkpt>
      <trkpt lat="42.3452420" lon="1.8356960">
        <ele>1261.6</ele>
        <time>2015-08-12T16:26:58Z</time>
      </trkpt>
      <trkpt lat="42.3452540" lon="1.8355400">
        <ele>1259.9</ele>
        <time>2015-08-12T16:26:59Z</time>
      </trkpt>
      <trkpt lat="42.3452720" lon="1.8353760">
        <ele>1257.9</ele>
        <time>2015-08-12T16:27:00Z</time>
      </trkpt>
      <trkpt lat="42.3452830" lon="1.8352440">
        <ele>1256.2</ele>
        <time>2015-08-12T16:27:01Z</time>
      </trkpt>
      <trkpt lat="42.3453100" lon="1.8351150">
        <ele>1254.3</ele>
        <time>2015-08-12T16:27:02Z</time>
      </trkpt>
      <trkpt lat="42.3453310" lon="1.8349860">
        <ele>1252.6</ele>
        <time>2015-08-12T16:27:03Z</time>
      </trkpt>
      <trkpt lat="42.3453420" lon="1.8348700">
        <ele>1251.2</ele>
        <time>2015-08-12T16:27:04Z</time>
      </trkpt>
      <trkpt lat="42.3453590" lon="1.8347570">
        <ele>1249.7</ele>
        <time>2015-08-12T16:27:05Z</time>
      </trkpt>
      <trkpt lat="42.3453690" lon="1.8346420">
        <ele>1248.4</ele>
        <time>2015-08-12T16:27:06Z</time>
      </trkpt>
      <trkpt lat="42.3453870" lon="1.8345520">
        <ele>1247.2</ele>
        <time>2015-08-12T16:27:07Z</time>
      </trkpt>
      <trkpt lat="42.3453910" lon="1.8344440">
        <ele>1246.2</ele>
        <time>2015-08-12T16:27:08Z</time>
      </trkpt>
      <trkpt lat="42.3453990" lon="1.8343430">
        <ele>1245.2</ele>
        <time>2015-08-12T16:27:09Z</time>
      </trkpt>
      <trkpt lat="42.3453920" lon="1.8342180">
        <ele>1244.3</ele>
        <time>2015-08-12T16:27:10Z</time>
      </trkpt>
      <trkpt lat="42.3453760" lon="1.8340880">
        <ele>1243.3</ele>
        <time>2015-08-12T16:27:11Z</time>
      </trkpt>
      <trkpt lat="42.3453620" lon="1.8339790">
        <ele>1242.6</ele>
        <time>2015-08-12T16:27:12Z</time>
      </trkpt>
      <trkpt lat="42.3452920" lon="1.8338230">
        <ele>1241.9</ele>
        <time>2015-08-12T16:27:13Z</time>
      </trkpt>
      <trkpt lat="42.3452400" lon="1.8336950">
        <ele>1241.2</ele>
        <time>2015-08-12T16:27:14Z</time>
      </trkpt>
      <trkpt lat="42.3452010" lon="1.8335620">
        <ele>1240.1</ele>
        <time>2015-08-12T16:27:15Z</time>
      </trkpt>
      <trkpt lat="42.3451530" lon="1.8334140">
        <ele>1238.8</ele>
        <time>2015-08-12T16:27:16Z</time>
      </trkpt>
      <trkpt lat="42.3451170" lon="1.8332440">
        <ele>1237.1</ele>
        <time>2015-08-12T16:27:17Z</time>
      </trkpt>
      <trkpt lat="42.3450860" lon="1.8330810">
        <ele>1235.2</ele>
        <time>2015-08-12T16:27:18Z</time>
      </trkpt>
      <trkpt lat="42.3450540" lon="1.8329280">
        <ele>1233.3</ele>
        <time>2015-08-12T16:27:19Z</time>
      </trkpt>
      <trkpt lat="42.3450220" lon="1.8327710">
        <ele>1231.1</ele>
        <time>2015-08-12T16:27:20Z</time>
      </trkpt>
      <trkpt lat="42.3450020" lon="1.8326490">
        <ele>1229.3</ele>
        <time>2015-08-12T16:27:21Z</time>
      </trkpt>
      <trkpt lat="42.3450020" lon="1.8325810">
        <ele>1228.4</ele>
        <time>2015-08-12T16:27:22Z</time>
      </trkpt>
      <trkpt lat="42.3450130" lon="1.8324960">
        <ele>1227.3</ele>
        <time>2015-08-12T16:27:23Z</time>
      </trkpt>
      <trkpt lat="42.3450120" lon="1.8324030">
        <ele>1226.0</ele>
        <time>2015-08-12T16:27:24Z</time>
      </trkpt>
      <trkpt lat="42.3450030" lon="1.8323280">
        <ele>1224.9</ele>
        <time>2015-08-12T16:27:25Z</time>
      </trkpt>
      <trkpt lat="42.3450000" lon="1.8322350">
        <ele>1223.6</ele>
        <time>2015-08-12T16:27:26Z</time>
      </trkpt>
      <trkpt lat="42.3449930" lon="1.8321910">
        <ele>1222.9</ele>
        <time>2015-08-12T16:27:27Z</time>
      </trkpt>
      <trkpt lat="42.3449970" lon="1.8321320">
        <ele>1222.1</ele>
        <time>2015-08-12T16:27:28Z</time>
      </trkpt>
      <trkpt lat="42.3450000" lon="1.8320800">
        <ele>1221.4</ele>
        <time>2015-08-12T16:27:29Z</time>
      </trkpt>
      <trkpt lat="42.3450080" lon="1.8320240">
        <ele>1220.6</ele>
        <time>2015-08-12T16:27:30Z</time>
      </trkpt>
      <trkpt lat="42.3450110" lon="1.8319630">
        <ele>1219.7</ele>
        <time>2015-08-12T16:27:31Z</time>
      </trkpt>
      <trkpt lat="42.3450110" lon="1.8318950">
        <ele>1218.5</ele>
        <time>2015-08-12T16:27:32Z</time>
      </trkpt>
      <trkpt lat="42.3450240" lon="1.8318310">
        <ele>1217.7</ele>
        <time>2015-08-12T16:27:33Z</time>
      </trkpt>
      <trkpt lat="42.3450200" lon="1.8317620">
        <ele>1216.5</ele>
        <time>2015-08-12T16:27:34Z</time>
      </trkpt>
      <trkpt lat="42.3450290" lon="1.8317040">
        <ele>1215.7</ele>
        <time>2015-08-12T16:27:35Z</time>
      </trkpt>
      <trkpt lat="42.3450290" lon="1.8316400">
        <ele>1214.7</ele>
        <time>2015-08-12T16:27:36Z</time>
      </trkpt>
      <trkpt lat="42.3450260" lon="1.8315710">
        <ele>1213.5</ele>
        <time>2015-08-12T16:27:37Z</time>
      </trkpt>
      <trkpt lat="42.3450360" lon="1.8314860">
        <ele>1212.3</ele>
        <time>2015-08-12T16:27:38Z</time>
      </trkpt>
      <trkpt lat="42.3450270" lon="1.8313950">
        <ele>1210.6</ele>
        <time>2015-08-12T16:27:39Z</time>
      </trkpt>
      <trkpt lat="42.3450250" lon="1.8313040">
        <ele>1209.0</ele>
        <time>2015-08-12T16:27:40Z</time>
      </trkpt>
      <trkpt lat="42.3450170" lon="1.8312040">
        <ele>1207.6</ele>
        <time>2015-08-12T16:27:41Z</time>
      </trkpt>
      <trkpt lat="42.3450160" lon="1.8311090">
        <ele>1206.9</ele>
        <time>2015-08-12T16:27:42Z</time>
      </trkpt>
      <trkpt lat="42.3450050" lon="1.8309790">
        <ele>1205.7</ele>
        <time>2015-08-12T16:27:43Z</time>
      </trkpt>
      <trkpt lat="42.3450080" lon="1.8308770">
        <ele>1205.0</ele>
        <time>2015-08-12T16:27:44Z</time>
      </trkpt>
      <trkpt lat="42.3450020" lon="1.8307560">
        <ele>1204.0</ele>
        <time>2015-08-12T16:27:45Z</time>
      </trkpt>
      <trkpt lat="42.3449820" lon="1.8306260">
        <ele>1202.5</ele>
        <time>2015-08-12T16:27:46Z</time>
      </trkpt>
      <trkpt lat="42.3449710" lon="1.8304830">
        <ele>1201.1</ele>
        <time>2015-08-12T16:27:47Z</time>
      </trkpt>
      <trkpt lat="42.3449620" lon="1.8303480">
        <ele>1200.1</ele>
        <time>2015-08-12T16:27:48Z</time>
      </trkpt>
      <trkpt lat="42.3449530" lon="1.8302130">
        <ele>1199.4</ele>
        <time>2015-08-12T16:27:49Z</time>
      </trkpt>
      <trkpt lat="42.3449470" lon="1.8300620">
        <ele>1198.7</ele>
        <time>2015-08-12T16:27:50Z</time>
      </trkpt>
      <trkpt lat="42.3449160" lon="1.8299100">
        <ele>1197.2</ele>
        <time>2015-08-12T16:27:51Z</time>
      </trkpt>
      <trkpt lat="42.3448970" lon="1.8297630">
        <ele>1196.1</ele>
        <time>2015-08-12T16:27:52Z</time>
      </trkpt>
      <trkpt lat="42.3448720" lon="1.8296280">
        <ele>1194.8</ele>
        <time>2015-08-12T16:27:53Z</time>
      </trkpt>
      <trkpt lat="42.3448410" lon="1.8294980">
        <ele>1192.7</ele>
        <time>2015-08-12T16:27:54Z</time>
      </trkpt>
      <trkpt lat="42.3448240" lon="1.8293720">
        <ele>1190.7</ele>
        <time>2015-08-12T16:27:55Z</time>
      </trkpt>
      <trkpt lat="42.3448530" lon="1.8292280">
        <ele>1190.0</ele>
        <time>2015-08-12T16:27:56Z</time>
      </trkpt>
      <trkpt lat="42.3448670" lon="1.8290770">
        <ele>1188.6</ele>
        <time>2015-08-12T16:27:57Z</time>
      </trkpt>
      <trkpt lat="42.3448830" lon="1.8289210">
        <ele>1187.3</ele>
        <time>2015-08-12T16:27:58Z</time>
      </trkpt>
      <trkpt lat="42.3449200" lon="1.8287770">
        <ele>1186.6</ele>
        <time>2015-08-12T16:27:59Z</time>
      </trkpt>
      <trkpt lat="42.3449400" lon="1.8286340">
        <ele>1185.1</ele>
        <time>2015-08-12T16:28:00Z</time>
      </trkpt>
      <trkpt lat="42.3449730" lon="1.8284850">
        <ele>1183.8</ele>
        <time>2015-08-12T16:28:01Z</time>
      </trkpt>
      <trkpt lat="42.3450100" lon="1.8283260">
        <ele>1182.4</ele>
        <time>2015-08-12T16:28:02Z</time>
      </trkpt>
      <trkpt lat="42.3450550" lon="1.8281800">
        <ele>1181.4</ele>
        <time>2015-08-12T16:28:03Z</time>
      </trkpt>
      <trkpt lat="42.3451080" lon="1.8280420">
        <ele>1180.8</ele>
        <time>2015-08-12T16:28:04Z</time>
      </trkpt>
      <trkpt lat="42.3451650" lon="1.8279030">
        <ele>1180.3</ele>
        <time>2015-08-12T16:28:05Z</time>
      </trkpt>
      <trkpt lat="42.3452350" lon="1.8277740">
        <ele>1181.1</ele>
        <time>2015-08-12T16:28:06Z</time>
      </trkpt>
      <trkpt lat="42.3453020" lon="1.8276600">
        <ele>1181.9</ele>
        <time>2015-08-12T16:28:07Z</time>
      </trkpt>
      <trkpt lat="42.3453560" lon="1.8275650">
        <ele>1182.5</ele>
        <time>2015-08-12T16:28:08Z</time>
      </trkpt>
      <trkpt lat="42.3454220" lon="1.8274800">
        <ele>1183.4</ele>
        <time>2015-08-12T16:28:09Z</time>
      </trkpt>
      <trkpt lat="42.3454920" lon="1.8274010">
        <ele>1183.2</ele>
        <time>2015-08-12T16:28:10Z</time>
      </trkpt>
      <trkpt lat="42.3455660" lon="1.8273440">
        <ele>1183.2</ele>
        <time>2015-08-12T16:28:11Z</time>
      </trkpt>
      <trkpt lat="42.3456180" lon="1.8272720">
        <ele>1182.8</ele>
        <time>2015-08-12T16:28:12Z</time>
      </trkpt>
      <trkpt lat="42.3456620" lon="1.8272030">
        <ele>1182.4</ele>
        <time>2015-08-12T16:28:13Z</time>
      </trkpt>
      <trkpt lat="42.3457130" lon="1.8271180">
        <ele>1181.8</ele>
        <time>2015-08-12T16:28:14Z</time>
      </trkpt>
      <trkpt lat="42.3457800" lon="1.8271260">
        <ele>1182.2</ele>
        <time>2015-08-12T16:28:15Z</time>
      </trkpt>
      <trkpt lat="42.3458430" lon="1.8271140">
        <ele>1182.4</ele>
        <time>2015-08-12T16:28:16Z</time>
      </trkpt>
      <trkpt lat="42.3459090" lon="1.8271120">
        <ele>1182.7</ele>
        <time>2015-08-12T16:28:17Z</time>
      </trkpt>
      <trkpt lat="42.3459640" lon="1.8271050">
        <ele>1182.9</ele>
        <time>2015-08-12T16:28:18Z</time>
      </trkpt>
      <trkpt lat="42.3460120" lon="1.8271430">
        <ele>1183.6</ele>
        <time>2015-08-12T16:28:19Z</time>
      </trkpt>
      <trkpt lat="42.3460680" lon="1.8271610">
        <ele>1184.1</ele>
        <time>2015-08-12T16:28:20Z</time>
      </trkpt>
      <trkpt lat="42.3461100" lon="1.8271860">
        <ele>1184.7</ele>
        <time>2015-08-12T16:28:21Z</time>
      </trkpt>
      <trkpt lat="42.3461560" lon="1.8271950">
        <ele>1185.1</ele>
        <time>2015-08-12T16:28:22Z</time>
      </trkpt>
      <trkpt lat="42.3461970" lon="1.8272080">
        <ele>1185.5</ele>
        <time>2015-08-12T16:28:23Z</time>
      </trkpt>
      <trkpt lat="42.3462320" lon="1.8272160">
        <ele>1185.8</ele>
        <time>2015-08-12T16:28:24Z</time>
      </trkpt>
      <trkpt lat="42.3462770" lon="1.8272160">
        <ele>1185.9</ele>
        <time>2015-08-12T16:28:25Z</time>
      </trkpt>
      <trkpt lat="42.3463330" lon="1.8272190">
        <ele>1185.8</ele>
        <time>2015-08-12T16:28:28Z</time>
      </trkpt>
      <trkpt lat="42.3463600" lon="1.8272330">
        <ele>1186.0</ele>
        <time>2015-08-12T16:28:29Z</time>
      </trkpt>
      <trkpt lat="42.3463680" lon="1.8271910">
        <ele>1185.3</ele>
        <time>2015-08-12T16:28:31Z</time>
      </trkpt>
      <trkpt lat="42.3463950" lon="1.8272270">
        <ele>1185.8</ele>
        <time>2015-08-12T16:28:36Z</time>
      </trkpt>
      <trkpt lat="42.3463600" lon="1.8272590">
        <ele>1186.3</ele>
        <time>2015-08-12T16:28:39Z</time>
      </trkpt>
      <trkpt lat="42.3463410" lon="1.8272920">
        <ele>1186.9</ele>
        <time>2015-08-12T16:28:40Z</time>
      </trkpt>
      <trkpt lat="42.3462980" lon="1.8272990">
        <ele>1187.0</ele>
        <time>2015-08-12T16:28:42Z</time>
      </trkpt>
      <trkpt lat="42.3462720" lon="1.8272890">
        <ele>1186.9</ele>
        <time>2015-08-12T16:28:43Z</time>
      </trkpt>
      <trkpt lat="42.3462350" lon="1.8272980">
        <ele>1187.0</ele>
        <time>2015-08-12T16:28:45Z</time>
      </trkpt>
      <trkpt lat="42.3461900" lon="1.8272820">
        <ele>1186.5</ele>
        <time>2015-08-12T16:28:47Z</time>
      </trkpt>
      <trkpt lat="42.3461620" lon="1.8272730">
        <ele>1186.2</ele>
        <time>2015-08-12T16:28:48Z</time>
      </trkpt>
      <trkpt lat="42.3461260" lon="1.8272690">
        <ele>1185.9</ele>
        <time>2015-08-12T16:28:49Z</time>
      </trkpt>
      <trkpt lat="42.3460670" lon="1.8272520">
        <ele>1185.3</ele>
        <time>2015-08-12T16:28:51Z</time>
      </trkpt>
      <trkpt lat="42.3460260" lon="1.8272320">
        <ele>1184.8</ele>
        <time>2015-08-12T16:28:52Z</time>
      </trkpt>
      <trkpt lat="42.3459810" lon="1.8272110">
        <ele>1184.3</ele>
        <time>2015-08-12T16:28:54Z</time>
      </trkpt>
      <trkpt lat="42.3459460" lon="1.8271750">
        <ele>1183.7</ele>
        <time>2015-08-12T16:28:56Z</time>
      </trkpt>
      <trkpt lat="42.3459140" lon="1.8271510">
        <ele>1183.2</ele>
        <time>2015-08-12T16:28:58Z</time>
      </trkpt>
      <trkpt lat="42.3458880" lon="1.8271140">
        <ele>1182.6</ele>
        <time>2015-08-12T16:29:01Z</time>
      </trkpt>
      <trkpt lat="42.3458560" lon="1.8271020">
        <ele>1182.3</ele>
        <time>2015-08-12T16:29:03Z</time>
      </trkpt>
      <trkpt lat="42.3458130" lon="1.8270660">
        <ele>1181.7</ele>
        <time>2015-08-12T16:29:05Z</time>
      </trkpt>
      <trkpt lat="42.3457710" lon="1.8270230">
        <ele>1181.1</ele>
        <time>2015-08-12T16:29:07Z</time>
      </trkpt>
      <trkpt lat="42.3457120" lon="1.8269540">
        <ele>1180.1</ele>
        <time>2015-08-12T16:29:08Z</time>
      </trkpt>
      <trkpt lat="42.3456840" lon="1.8269180">
        <ele>1179.6</ele>
        <time>2015-08-12T16:29:09Z</time>
      </trkpt>
      <trkpt lat="42.3456130" lon="1.8268730">
        <ele>1178.9</ele>
        <time>2015-08-12T16:29:10Z</time>
      </trkpt>
      <trkpt lat="42.3455810" lon="1.8268350">
        <ele>1178.3</ele>
        <time>2015-08-12T16:29:11Z</time>
      </trkpt>
      <trkpt lat="42.3455640" lon="1.8268050">
        <ele>1178.0</ele>
        <time>2015-08-12T16:29:12Z</time>
      </trkpt>
      <trkpt lat="42.3455390" lon="1.8267250">
        <ele>1177.1</ele>
        <time>2015-08-12T16:29:14Z</time>
      </trkpt>
      <trkpt lat="42.3455620" lon="1.8266790">
        <ele>1176.7</ele>
        <time>2015-08-12T16:29:15Z</time>
      </trkpt>
      <trkpt lat="42.3455860" lon="1.8266520">
        <ele>1176.6</ele>
        <time>2015-08-12T16:29:16Z</time>
      </trkpt>
      <trkpt lat="42.3456080" lon="1.8265920">
        <ele>1176.1</ele>
        <time>2015-08-12T16:29:18Z</time>
      </trkpt>
      <trkpt lat="42.3455980" lon="1.8265480">
        <ele>1175.6</ele>
        <time>2015-08-12T16:29:19Z</time>
      </trkpt>
      <trkpt lat="42.3455560" lon="1.8264940">
        <ele>1174.9</ele>
        <time>2015-08-12T16:29:20Z</time>
      </trkpt>
      <trkpt lat="42.3455360" lon="1.8264660">
        <ele>1174.5</ele>
        <time>2015-08-12T16:29:21Z</time>
      </trkpt>
      <trkpt lat="42.3454910" lon="1.8264000">
        <ele>1173.7</ele>
        <time>2015-08-12T16:29:22Z</time>
      </trkpt>
      <trkpt lat="42.3454600" lon="1.8263790">
        <ele>1173.4</ele>
        <time>2015-08-12T16:29:23Z</time>
      </trkpt>
      <trkpt lat="42.3454790" lon="1.8263330">
        <ele>1173.0</ele>
        <time>2015-08-12T16:29:24Z</time>
      </trkpt>
      <trkpt lat="42.3454800" lon="1.8262550">
        <ele>1172.3</ele>
        <time>2015-08-12T16:29:26Z</time>
      </trkpt>
      <trkpt lat="42.3454880" lon="1.8262070">
        <ele>1171.7</ele>
        <time>2015-08-12T16:29:27Z</time>
      </trkpt>
      <trkpt lat="42.3454910" lon="1.8261670">
        <ele>1171.2</ele>
        <time>2015-08-12T16:29:28Z</time>
      </trkpt>
      <trkpt lat="42.3455310" lon="1.8261480">
        <ele>1171.1</ele>
        <time>2015-08-12T16:29:29Z</time>
      </trkpt>
      <trkpt lat="42.3455870" lon="1.8261340">
        <ele>1171.1</ele>
        <time>2015-08-12T16:29:31Z</time>
      </trkpt>
      <trkpt lat="42.3456190" lon="1.8261280">
        <ele>1171.2</ele>
        <time>2015-08-12T16:29:32Z</time>
      </trkpt>
      <trkpt lat="42.3456760" lon="1.8261730">
        <ele>1172.0</ele>
        <time>2015-08-12T16:29:33Z</time>
      </trkpt>
      <trkpt lat="42.3457290" lon="1.8261950">
        <ele>1172.4</ele>
        <time>2015-08-12T16:29:34Z</time>
      </trkpt>
      <trkpt lat="42.3457770" lon="1.8261920">
        <ele>1172.6</ele>
        <time>2015-08-12T16:29:35Z</time>
      </trkpt>
      <trkpt lat="42.3458160" lon="1.8261740">
        <ele>1172.5</ele>
        <time>2015-08-12T16:29:36Z</time>
      </trkpt>
      <trkpt lat="42.3458630" lon="1.8261530">
        <ele>1172.5</ele>
        <time>2015-08-12T16:29:37Z</time>
      </trkpt>
      <trkpt lat="42.3459070" lon="1.8261390">
        <ele>1172.5</ele>
        <time>2015-08-12T16:29:38Z</time>
      </trkpt>
      <trkpt lat="42.3459630" lon="1.8261400">
        <ele>1172.7</ele>
        <time>2015-08-12T16:29:39Z</time>
      </trkpt>
      <trkpt lat="42.3460050" lon="1.8261330">
        <ele>1172.8</ele>
        <time>2015-08-12T16:29:40Z</time>
      </trkpt>
      <trkpt lat="42.3460580" lon="1.8261370">
        <ele>1173.0</ele>
        <time>2015-08-12T16:29:41Z</time>
      </trkpt>
      <trkpt lat="42.3461000" lon="1.8261570">
        <ele>1173.4</ele>
        <time>2015-08-12T16:29:42Z</time>
      </trkpt>
      <trkpt lat="42.3461420" lon="1.8261660">
        <ele>1173.7</ele>
        <time>2015-08-12T16:29:43Z</time>
      </trkpt>
      <trkpt lat="42.3461950" lon="1.8262100">
        <ele>1174.4</ele>
        <time>2015-08-12T16:29:44Z</time>
      </trkpt>
      <trkpt lat="42.3462370" lon="1.8262670">
        <ele>1175.1</ele>
        <time>2015-08-12T16:29:45Z</time>
      </trkpt>
      <trkpt lat="42.3462900" lon="1.8263140">
        <ele>1175.7</ele>
        <time>2015-08-12T16:29:46Z</time>
      </trkpt>
      <trkpt lat="42.3463740" lon="1.8263520">
        <ele>1176.2</ele>
        <time>2015-08-12T16:29:47Z</time>
      </trkpt>
      <trkpt lat="42.3464270" lon="1.8263930">
        <ele>1176.6</ele>
        <time>2015-08-12T16:29:48Z</time>
      </trkpt>
      <trkpt lat="42.3464940" lon="1.8264050">
        <ele>1176.8</ele>
        <time>2015-08-12T16:29:49Z</time>
      </trkpt>
      <trkpt lat="42.3465520" lon="1.8264290">
        <ele>1177.1</ele>
        <time>2015-08-12T16:29:50Z</time>
      </trkpt>
      <trkpt lat="42.3466130" lon="1.8264250">
        <ele>1177.1</ele>
        <time>2015-08-12T16:29:51Z</time>
      </trkpt>
      <trkpt lat="42.3466770" lon="1.8264380">
        <ele>1177.2</ele>
        <time>2015-08-12T16:29:52Z</time>
      </trkpt>
      <trkpt lat="42.3467230" lon="1.8264250">
        <ele>1177.1</ele>
        <time>2015-08-12T16:29:53Z</time>
      </trkpt>
      <trkpt lat="42.3467750" lon="1.8263800">
        <ele>1176.7</ele>
        <time>2015-08-12T16:29:54Z</time>
      </trkpt>
      <trkpt lat="42.3466530" lon="1.8263380">
        <ele>1176.3</ele>
        <time>2015-08-12T16:29:55Z</time>
      </trkpt>
      <trkpt lat="42.3466230" lon="1.8263270">
        <ele>1176.2</ele>
        <time>2015-08-12T16:29:56Z</time>
      </trkpt>
      <trkpt lat="42.3465940" lon="1.8262740">
        <ele>1175.6</ele>
        <time>2015-08-12T16:29:57Z</time>
      </trkpt>
      <trkpt lat="42.3465770" lon="1.8262410">
        <ele>1175.3</ele>
        <time>2015-08-12T16:29:58Z</time>
      </trkpt>
      <trkpt lat="42.3465500" lon="1.8261920">
        <ele>1175.0</ele>
        <time>2015-08-12T16:29:59Z</time>
      </trkpt>
      <trkpt lat="42.3465140" lon="1.8261420">
        <ele>1174.5</ele>
        <time>2015-08-12T16:30:00Z</time>
      </trkpt>
      <trkpt lat="42.3464790" lon="1.8260970">
        <ele>1174.1</ele>
        <time>2015-08-12T16:30:01Z</time>
      </trkpt>
      <trkpt lat="42.3464540" lon="1.8260310">
        <ele>1173.5</ele>
        <time>2015-08-12T16:30:02Z</time>
      </trkpt>
      <trkpt lat="42.3464310" lon="1.8259880">
        <ele>1173.0</ele>
        <time>2015-08-12T16:30:03Z</time>
      </trkpt>
      <trkpt lat="42.3464160" lon="1.8259380">
        <ele>1172.5</ele>
        <time>2015-08-12T16:30:04Z</time>
      </trkpt>
      <trkpt lat="42.3464250" lon="1.8258530">
        <ele>1171.8</ele>
        <time>2015-08-12T16:30:05Z</time>
      </trkpt>
      <trkpt lat="42.3464200" lon="1.8257710">
        <ele>1171.1</ele>
        <time>2015-08-12T16:30:06Z</time>
      </trkpt>
      <trkpt lat="42.3464140" lon="1.8257050">
        <ele>1170.5</ele>
        <time>2015-08-12T16:30:07Z</time>
      </trkpt>
      <trkpt lat="42.3464090" lon="1.8256500">
        <ele>1169.9</ele>
        <time>2015-08-12T16:30:08Z</time>
      </trkpt>
      <trkpt lat="42.3463920" lon="1.8256000">
        <ele>1169.3</ele>
        <time>2015-08-12T16:30:09Z</time>
      </trkpt>
      <trkpt lat="42.3463710" lon="1.8255320">
        <ele>1168.5</ele>
        <time>2015-08-12T16:30:10Z</time>
      </trkpt>
      <trkpt lat="42.3463610" lon="1.8254730">
        <ele>1167.9</ele>
        <time>2015-08-12T16:30:11Z</time>
      </trkpt>
      <trkpt lat="42.3463550" lon="1.8254020">
        <ele>1167.2</ele>
        <time>2015-08-12T16:30:12Z</time>
      </trkpt>
      <trkpt lat="42.3463500" lon="1.8253490">
        <ele>1166.8</ele>
        <time>2015-08-12T16:30:13Z</time>
      </trkpt>
      <trkpt lat="42.3463510" lon="1.8252930">
        <ele>1166.5</ele>
        <time>2015-08-12T16:30:14Z</time>
      </trkpt>
      <trkpt lat="42.3463460" lon="1.8252420">
        <ele>1166.1</ele>
        <time>2015-08-12T16:30:15Z</time>
      </trkpt>
      <trkpt lat="42.3463380" lon="1.8252040">
        <ele>1165.8</ele>
        <time>2015-08-12T16:30:16Z</time>
      </trkpt>
      <trkpt lat="42.3463320" lon="1.8251380">
        <ele>1165.3</ele>
        <time>2015-08-12T16:30:17Z</time>
      </trkpt>
      <trkpt lat="42.3463230" lon="1.8250760">
        <ele>1164.8</ele>
        <time>2015-08-12T16:30:18Z</time>
      </trkpt>
      <trkpt lat="42.3463020" lon="1.8250110">
        <ele>1164.0</ele>
        <time>2015-08-12T16:30:19Z</time>
      </trkpt>
      <trkpt lat="42.3462920" lon="1.8249430">
        <ele>1163.4</ele>
        <time>2015-08-12T16:30:20Z</time>
      </trkpt>
      <trkpt lat="42.3462800" lon="1.8248720">
        <ele>1162.7</ele>
        <time>2015-08-12T16:30:21Z</time>
      </trkpt>
      <trkpt lat="42.3462820" lon="1.8248170">
        <ele>1162.3</ele>
        <time>2015-08-12T16:30:22Z</time>
      </trkpt>
      <trkpt lat="42.3462810" lon="1.8247630">
        <ele>1162.0</ele>
        <time>2015-08-12T16:30:23Z</time>
      </trkpt>
      <trkpt lat="42.3462820" lon="1.8247200">
        <ele>1161.7</ele>
        <time>2015-08-12T16:30:24Z</time>
      </trkpt>
      <trkpt lat="42.3462800" lon="1.8246760">
        <ele>1161.3</ele>
        <time>2015-08-12T16:30:25Z</time>
      </trkpt>
      <trkpt lat="42.3462780" lon="1.8246310">
        <ele>1161.0</ele>
        <time>2015-08-12T16:30:26Z</time>
      </trkpt>
      <trkpt lat="42.3462690" lon="1.8245920">
        <ele>1160.5</ele>
        <time>2015-08-12T16:30:27Z</time>
      </trkpt>
      <trkpt lat="42.3462640" lon="1.8245320">
        <ele>1160.3</ele>
        <time>2015-08-12T16:30:29Z</time>
      </trkpt>
      <trkpt lat="42.3462560" lon="1.8244740">
        <ele>1160.1</ele>
        <time>2015-08-12T16:30:31Z</time>
      </trkpt>
      <trkpt lat="42.3462420" lon="1.8244120">
        <ele>1159.9</ele>
        <time>2015-08-12T16:30:33Z</time>
      </trkpt>
      <trkpt lat="42.3462330" lon="1.8243720">
        <ele>1159.8</ele>
        <time>2015-08-12T16:30:34Z</time>
      </trkpt>
      <trkpt lat="42.3462210" lon="1.8243270">
        <ele>1159.7</ele>
        <time>2015-08-12T16:30:35Z</time>
      </trkpt>
      <trkpt lat="42.3462140" lon="1.8242880">
        <ele>1159.6</ele>
        <time>2015-08-12T16:30:36Z</time>
      </trkpt>
      <trkpt lat="42.3462060" lon="1.8242500">
        <ele>1159.5</ele>
        <time>2015-08-12T16:30:37Z</time>
      </trkpt>
      <trkpt lat="42.3462000" lon="1.8242150">
        <ele>1159.4</ele>
        <time>2015-08-12T16:30:38Z</time>
      </trkpt>
      <trkpt lat="42.3461930" lon="1.8241400">
        <ele>1159.3</ele>
        <time>2015-08-12T16:30:40Z</time>
      </trkpt>
      <trkpt lat="42.3461890" lon="1.8240980">
        <ele>1159.3</ele>
        <time>2015-08-12T16:30:41Z</time>
      </trkpt>
      <trkpt lat="42.3461870" lon="1.8240580">
        <ele>1159.2</ele>
        <time>2015-08-12T16:30:42Z</time>
      </trkpt>
      <trkpt lat="42.3461840" lon="1.8240180">
        <ele>1159.2</ele>
        <time>2015-08-12T16:30:43Z</time>
      </trkpt>
      <trkpt lat="42.3461800" lon="1.8239750">
        <ele>1159.1</ele>
        <time>2015-08-12T16:30:44Z</time>
      </trkpt>
      <trkpt lat="42.3461900" lon="1.8239340">
        <ele>1159.2</ele>
        <time>2015-08-12T16:30:45Z</time>
      </trkpt>
      <trkpt lat="42.3461970" lon="1.8238970">
        <ele>1159.3</ele>
        <time>2015-08-12T16:30:46Z</time>
      </trkpt>
      <trkpt lat="42.3461950" lon="1.8238590">
        <ele>1159.3</ele>
        <time>2015-08-12T16:30:47Z</time>
      </trkpt>
      <trkpt lat="42.3462080" lon="1.8238140">
        <ele>1159.5</ele>
        <time>2015-08-12T16:30:48Z</time>
      </trkpt>
      <trkpt lat="42.3462200" lon="1.8237770">
        <ele>1159.6</ele>
        <time>2015-08-12T16:30:49Z</time>
      </trkpt>
      <trkpt lat="42.3462290" lon="1.8237370">
        <ele>1159.7</ele>
        <time>2015-08-12T16:30:50Z</time>
      </trkpt>
      <trkpt lat="42.3462380" lon="1.8236650">
        <ele>1159.9</ele>
        <time>2015-08-12T16:30:52Z</time>
      </trkpt>
      <trkpt lat="42.3462450" lon="1.8236250">
        <ele>1160.1</ele>
        <time>2015-08-12T16:30:53Z</time>
      </trkpt>
      <trkpt lat="42.3462510" lon="1.8235860">
        <ele>1160.2</ele>
        <time>2015-08-12T16:30:54Z</time>
      </trkpt>
      <trkpt lat="42.3462500" lon="1.8235490">
        <ele>1160.2</ele>
        <time>2015-08-12T16:30:55Z</time>
      </trkpt>
      <trkpt lat="42.3462490" lon="1.8234680">
        <ele>1160.3</ele>
        <time>2015-08-12T16:30:57Z</time>
      </trkpt>
      <trkpt lat="42.3462400" lon="1.8234250">
        <ele>1160.2</ele>
        <time>2015-08-12T16:30:58Z</time>
      </trkpt>
      <trkpt lat="42.3462470" lon="1.8233830">
        <ele>1160.4</ele>
        <time>2015-08-12T16:30:59Z</time>
      </trkpt>
      <trkpt lat="42.3462490" lon="1.8233440">
        <ele>1160.5</ele>
        <time>2015-08-12T16:31:00Z</time>
      </trkpt>
      <trkpt lat="42.3462490" lon="1.8232890">
        <ele>1160.5</ele>
        <time>2015-08-12T16:31:01Z</time>
      </trkpt>
      <trkpt lat="42.3462490" lon="1.8232380">
        <ele>1160.6</ele>
        <time>2015-08-12T16:31:02Z</time>
      </trkpt>
      <trkpt lat="42.3462500" lon="1.8231860">
        <ele>1160.7</ele>
        <time>2015-08-12T16:31:03Z</time>
      </trkpt>
      <trkpt lat="42.3462480" lon="1.8231310">
        <ele>1160.7</ele>
        <time>2015-08-12T16:31:04Z</time>
      </trkpt>
      <trkpt lat="42.3462610" lon="1.8230670">
        <ele>1161.0</ele>
        <time>2015-08-12T16:31:05Z</time>
      </trkpt>
      <trkpt lat="42.3462720" lon="1.8230170">
        <ele>1161.3</ele>
        <time>2015-08-12T16:31:06Z</time>
      </trkpt>
      <trkpt lat="42.3462640" lon="1.8229480">
        <ele>1161.2</ele>
        <time>2015-08-12T16:31:07Z</time>
      </trkpt>
      <trkpt lat="42.3462580" lon="1.8228720">
        <ele>1161.0</ele>
        <time>2015-08-12T16:31:08Z</time>
      </trkpt>
      <trkpt lat="42.3462470" lon="1.8228020">
        <ele>1160.7</ele>
        <time>2015-08-12T16:31:09Z</time>
      </trkpt>
      <trkpt lat="42.3462300" lon="1.8227440">
        <ele>1160.2</ele>
        <time>2015-08-12T16:31:10Z</time>
      </trkpt>
      <trkpt lat="42.3462150" lon="1.8226750">
        <ele>1159.8</ele>
        <time>2015-08-12T16:31:11Z</time>
      </trkpt>
      <trkpt lat="42.3461940" lon="1.8226070">
        <ele>1159.2</ele>
        <time>2015-08-12T16:31:12Z</time>
      </trkpt>
      <trkpt lat="42.3461750" lon="1.8225430">
        <ele>1158.8</ele>
        <time>2015-08-12T16:31:13Z</time>
      </trkpt>
      <trkpt lat="42.3461540" lon="1.8224920">
        <ele>1158.3</ele>
        <time>2015-08-12T16:31:14Z</time>
      </trkpt>
      <trkpt lat="42.3461240" lon="1.8224300">
        <ele>1157.6</ele>
        <time>2015-08-12T16:31:15Z</time>
      </trkpt>
      <trkpt lat="42.3461170" lon="1.8223790">
        <ele>1157.3</ele>
        <time>2015-08-12T16:31:16Z</time>
      </trkpt>
      <trkpt lat="42.3460980" lon="1.8223130">
        <ele>1156.8</ele>
        <time>2015-08-12T16:31:17Z</time>
      </trkpt>
      <trkpt lat="42.3460820" lon="1.8222620">
        <ele>1156.4</ele>
        <time>2015-08-12T16:31:18Z</time>
      </trkpt>
      <trkpt lat="42.3460710" lon="1.8222180">
        <ele>1156.1</ele>
        <time>2015-08-12T16:31:19Z</time>
      </trkpt>
      <trkpt lat="42.3460660" lon="1.8221580">
        <ele>1155.9</ele>
        <time>2015-08-12T16:31:20Z</time>
      </trkpt>
      <trkpt lat="42.3460590" lon="1.8221080">
        <ele>1155.6</ele>
        <time>2015-08-12T16:31:21Z</time>
      </trkpt>
      <trkpt lat="42.3460460" lon="1.8220530">
        <ele>1155.3</ele>
        <time>2015-08-12T16:31:22Z</time>
      </trkpt>
      <trkpt lat="42.3460290" lon="1.8219990">
        <ele>1155.0</ele>
        <time>2015-08-12T16:31:23Z</time>
      </trkpt>
      <trkpt lat="42.3460170" lon="1.8219380">
        <ele>1154.8</ele>
        <time>2015-08-12T16:31:24Z</time>
      </trkpt>
      <trkpt lat="42.3459940" lon="1.8218930">
        <ele>1154.3</ele>
        <time>2015-08-12T16:31:25Z</time>
      </trkpt>
      <trkpt lat="42.3459840" lon="1.8218320">
        <ele>1154.1</ele>
        <time>2015-08-12T16:31:26Z</time>
      </trkpt>
      <trkpt lat="42.3459670" lon="1.8217780">
        <ele>1153.8</ele>
        <time>2015-08-12T16:31:27Z</time>
      </trkpt>
      <trkpt lat="42.3459540" lon="1.8217180">
        <ele>1153.5</ele>
        <time>2015-08-12T16:31:28Z</time>
      </trkpt>
      <trkpt lat="42.3459430" lon="1.8216620">
        <ele>1153.2</ele>
        <time>2015-08-12T16:31:29Z</time>
      </trkpt>
      <trkpt lat="42.3459220" lon="1.8215970">
        <ele>1152.8</ele>
        <time>2015-08-12T16:31:30Z</time>
      </trkpt>
      <trkpt lat="42.3459020" lon="1.8215320">
        <ele>1152.3</ele>
        <time>2015-08-12T16:31:31Z</time>
      </trkpt>
      <trkpt lat="42.3458720" lon="1.8214560">
        <ele>1151.6</ele>
        <time>2015-08-12T16:31:32Z</time>
      </trkpt>
      <trkpt lat="42.3458460" lon="1.8213870">
        <ele>1150.9</ele>
        <time>2015-08-12T16:31:33Z</time>
      </trkpt>
      <trkpt lat="42.3458170" lon="1.8213140">
        <ele>1150.2</ele>
        <time>2015-08-12T16:31:34Z</time>
      </trkpt>
      <trkpt lat="42.3457780" lon="1.8212510">
        <ele>1149.2</ele>
        <time>2015-08-12T16:31:35Z</time>
      </trkpt>
      <trkpt lat="42.3457460" lon="1.8211610">
        <ele>1148.2</ele>
        <time>2015-08-12T16:31:36Z</time>
      </trkpt>
      <trkpt lat="42.3457050" lon="1.8210810">
        <ele>1147.0</ele>
        <time>2015-08-12T16:31:37Z</time>
      </trkpt>
      <trkpt lat="42.3457040" lon="1.8209700">
        <ele>1146.7</ele>
        <time>2015-08-12T16:31:38Z</time>
      </trkpt>
      <trkpt lat="42.3456930" lon="1.8208490">
        <ele>1146.0</ele>
        <time>2015-08-12T16:31:39Z</time>
      </trkpt>
      <trkpt lat="42.3456620" lon="1.8207510">
        <ele>1145.0</ele>
        <time>2015-08-12T16:31:40Z</time>
      </trkpt>
      <trkpt lat="42.3456480" lon="1.8206330">
        <ele>1144.3</ele>
        <time>2015-08-12T16:31:41Z</time>
      </trkpt>
      <trkpt lat="42.3456070" lon="1.8205210">
        <ele>1142.9</ele>
        <time>2015-08-12T16:31:42Z</time>
      </trkpt>
      <trkpt lat="42.3456000" lon="1.8204020">
        <ele>1142.3</ele>
        <time>2015-08-12T16:31:43Z</time>
      </trkpt>
      <trkpt lat="42.3455960" lon="1.8202530">
        <ele>1141.5</ele>
        <time>2015-08-12T16:31:44Z</time>
      </trkpt>
      <trkpt lat="42.3456000" lon="1.8201200">
        <ele>1140.9</ele>
        <time>2015-08-12T16:31:45Z</time>
      </trkpt>
      <trkpt lat="42.3455870" lon="1.8199850">
        <ele>1139.9</ele>
        <time>2015-08-12T16:31:46Z</time>
      </trkpt>
      <trkpt lat="42.3455860" lon="1.8198330">
        <ele>1139.1</ele>
        <time>2015-08-12T16:31:47Z</time>
      </trkpt>
      <trkpt lat="42.3455780" lon="1.8196960">
        <ele>1138.3</ele>
        <time>2015-08-12T16:31:48Z</time>
      </trkpt>
      <trkpt lat="42.3455490" lon="1.8195880">
        <ele>1137.2</ele>
        <time>2015-08-12T16:31:49Z</time>
      </trkpt>
      <trkpt lat="42.3455380" lon="1.8194490">
        <ele>1137.0</ele>
        <time>2015-08-12T16:31:50Z</time>
      </trkpt>
      <trkpt lat="42.3455380" lon="1.8193360">
        <ele>1137.0</ele>
        <time>2015-08-12T16:31:51Z</time>
      </trkpt>
      <trkpt lat="42.3455390" lon="1.8191960">
        <ele>1137.0</ele>
        <time>2015-08-12T16:31:52Z</time>
      </trkpt>
      <trkpt lat="42.3455500" lon="1.8190820">
        <ele>1137.1</ele>
        <time>2015-08-12T16:31:53Z</time>
      </trkpt>
      <trkpt lat="42.3455270" lon="1.8189930">
        <ele>1136.8</ele>
        <time>2015-08-12T16:31:54Z</time>
      </trkpt>
      <trkpt lat="42.3455100" lon="1.8188570">
        <ele>1136.5</ele>
        <time>2015-08-12T16:31:55Z</time>
      </trkpt>
      <trkpt lat="42.3455040" lon="1.8187430">
        <ele>1136.3</ele>
        <time>2015-08-12T16:31:56Z</time>
      </trkpt>
      <trkpt lat="42.3454640" lon="1.8186260">
        <ele>1135.0</ele>
        <time>2015-08-12T16:31:57Z</time>
      </trkpt>
      <trkpt lat="42.3454450" lon="1.8185050">
        <ele>1134.0</ele>
        <time>2015-08-12T16:31:58Z</time>
      </trkpt>
      <trkpt lat="42.3454280" lon="1.8183750">
        <ele>1133.0</ele>
        <time>2015-08-12T16:31:59Z</time>
      </trkpt>
      <trkpt lat="42.3454270" lon="1.8182530">
        <ele>1132.2</ele>
        <time>2015-08-12T16:32:00Z</time>
      </trkpt>
      <trkpt lat="42.3454160" lon="1.8181310">
        <ele>1131.3</ele>
        <time>2015-08-12T16:32:01Z</time>
      </trkpt>
      <trkpt lat="42.3454160" lon="1.8180170">
        <ele>1130.6</ele>
        <time>2015-08-12T16:32:02Z</time>
      </trkpt>
      <trkpt lat="42.3454190" lon="1.8179150">
        <ele>1130.0</ele>
        <time>2015-08-12T16:32:03Z</time>
      </trkpt>
      <trkpt lat="42.3454200" lon="1.8178090">
        <ele>1129.7</ele>
        <time>2015-08-12T16:32:04Z</time>
      </trkpt>
      <trkpt lat="42.3454260" lon="1.8176990">
        <ele>1129.4</ele>
        <time>2015-08-12T16:32:05Z</time>
      </trkpt>
      <trkpt lat="42.3454420" lon="1.8175910">
        <ele>1129.4</ele>
        <time>2015-08-12T16:32:06Z</time>
      </trkpt>
      <trkpt lat="42.3454700" lon="1.8174960">
        <ele>1129.7</ele>
        <time>2015-08-12T16:32:07Z</time>
      </trkpt>
      <trkpt lat="42.3455030" lon="1.8173910">
        <ele>1130.1</ele>
        <time>2015-08-12T16:32:08Z</time>
      </trkpt>
      <trkpt lat="42.3455360" lon="1.8173050">
        <ele>1130.5</ele>
        <time>2015-08-12T16:32:09Z</time>
      </trkpt>
      <trkpt lat="42.3455370" lon="1.8172050">
        <ele>1130.3</ele>
        <time>2015-08-12T16:32:10Z</time>
      </trkpt>
      <trkpt lat="42.3455400" lon="1.8171040">
        <ele>1130.0</ele>
        <time>2015-08-12T16:32:11Z</time>
      </trkpt>
      <trkpt lat="42.3455310" lon="1.8170250">
        <ele>1129.6</ele>
        <time>2015-08-12T16:32:12Z</time>
      </trkpt>
      <trkpt lat="42.3455310" lon="1.8169270">
        <ele>1129.3</ele>
        <time>2015-08-12T16:32:13Z</time>
      </trkpt>
      <trkpt lat="42.3455260" lon="1.8168410">
        <ele>1129.0</ele>
        <time>2015-08-12T16:32:14Z</time>
      </trkpt>
      <trkpt lat="42.3455120" lon="1.8167470">
        <ele>1128.4</ele>
        <time>2015-08-12T16:32:15Z</time>
      </trkpt>
      <trkpt lat="42.3455090" lon="1.8166540">
        <ele>1128.1</ele>
        <time>2015-08-12T16:32:16Z</time>
      </trkpt>
      <trkpt lat="42.3455270" lon="1.8165650">
        <ele>1128.3</ele>
        <time>2015-08-12T16:32:17Z</time>
      </trkpt>
      <trkpt lat="42.3455380" lon="1.8164760">
        <ele>1128.3</ele>
        <time>2015-08-12T16:32:18Z</time>
      </trkpt>
      <trkpt lat="42.3455570" lon="1.8163970">
        <ele>1128.6</ele>
        <time>2015-08-12T16:32:19Z</time>
      </trkpt>
      <trkpt lat="42.3455690" lon="1.8163220">
        <ele>1128.7</ele>
        <time>2015-08-12T16:32:20Z</time>
      </trkpt>
      <trkpt lat="42.3455830" lon="1.8162350">
        <ele>1128.9</ele>
        <time>2015-08-12T16:32:21Z</time>
      </trkpt>
      <trkpt lat="42.3456040" lon="1.8161710">
        <ele>1129.6</ele>
        <time>2015-08-12T16:32:22Z</time>
      </trkpt>
      <trkpt lat="42.3456260" lon="1.8161120">
        <ele>1130.4</ele>
        <time>2015-08-12T16:32:23Z</time>
      </trkpt>
      <trkpt lat="42.3456360" lon="1.8160590">
        <ele>1130.9</ele>
        <time>2015-08-12T16:32:24Z</time>
      </trkpt>
      <trkpt lat="42.3456400" lon="1.8160230">
        <ele>1131.1</ele>
        <time>2015-08-12T16:32:25Z</time>
      </trkpt>
      <trkpt lat="42.3456480" lon="1.8159660">
        <ele>1131.5</ele>
        <time>2015-08-12T16:32:26Z</time>
      </trkpt>
      <trkpt lat="42.3456310" lon="1.8159010">
        <ele>1131.5</ele>
        <time>2015-08-12T16:32:27Z</time>
      </trkpt>
      <trkpt lat="42.3456620" lon="1.8158350">
        <ele>1132.4</ele>
        <time>2015-08-12T16:32:28Z</time>
      </trkpt>
      <trkpt lat="42.3456700" lon="1.8157550">
        <ele>1133.0</ele>
        <time>2015-08-12T16:32:29Z</time>
      </trkpt>
      <trkpt lat="42.3456960" lon="1.8156810">
        <ele>1133.9</ele>
        <time>2015-08-12T16:32:30Z</time>
      </trkpt>
      <trkpt lat="42.3456840" lon="1.8156140">
        <ele>1133.9</ele>
        <time>2015-08-12T16:32:31Z</time>
      </trkpt>
      <trkpt lat="42.3456740" lon="1.8155490">
        <ele>1134.0</ele>
        <time>2015-08-12T16:32:32Z</time>
      </trkpt>
      <trkpt lat="42.3456800" lon="1.8155020">
        <ele>1134.3</ele>
        <time>2015-08-12T16:32:33Z</time>
      </trkpt>
      <trkpt lat="42.3456820" lon="1.8154550">
        <ele>1134.6</ele>
        <time>2015-08-12T16:32:34Z</time>
      </trkpt>
      <trkpt lat="42.3456710" lon="1.8153980">
        <ele>1134.6</ele>
        <time>2015-08-12T16:32:35Z</time>
      </trkpt>
      <trkpt lat="42.3456750" lon="1.8153530">
        <ele>1134.9</ele>
        <time>2015-08-12T16:32:36Z</time>
      </trkpt>
      <trkpt lat="42.3456830" lon="1.8153030">
        <ele>1135.3</ele>
        <time>2015-08-12T16:32:37Z</time>
      </trkpt>
      <trkpt lat="42.3456930" lon="1.8152490">
        <ele>1135.7</ele>
        <time>2015-08-12T16:32:38Z</time>
      </trkpt>
      <trkpt lat="42.3456910" lon="1.8151990">
        <ele>1135.9</ele>
        <time>2015-08-12T16:32:39Z</time>
      </trkpt>
      <trkpt lat="42.3456800" lon="1.8151420">
        <ele>1135.9</ele>
        <time>2015-08-12T16:32:40Z</time>
      </trkpt>
      <trkpt lat="42.3456640" lon="1.8151010">
        <ele>1135.7</ele>
        <time>2015-08-12T16:32:41Z</time>
      </trkpt>
      <trkpt lat="42.3456470" lon="1.8150250">
        <ele>1135.7</ele>
        <time>2015-08-12T16:32:43Z</time>
      </trkpt>
      <trkpt lat="42.3456430" lon="1.8149830">
        <ele>1135.8</ele>
        <time>2015-08-12T16:32:44Z</time>
      </trkpt>
      <trkpt lat="42.3456240" lon="1.8149250">
        <ele>1135.7</ele>
        <time>2015-08-12T16:32:46Z</time>
      </trkpt>
      <trkpt lat="42.3456040" lon="1.8148990">
        <ele>1135.4</ele>
        <time>2015-08-12T16:32:47Z</time>
      </trkpt>
      <trkpt lat="42.3455930" lon="1.8148600">
        <ele>1135.3</ele>
        <time>2015-08-12T16:32:48Z</time>
      </trkpt>
      <trkpt lat="42.3455540" lon="1.8147920">
        <ele>1134.8</ele>
        <time>2015-08-12T16:32:50Z</time>
      </trkpt>
      <trkpt lat="42.3455280" lon="1.8147530">
        <ele>1134.5</ele>
        <time>2015-08-12T16:32:51Z</time>
      </trkpt>
      <trkpt lat="42.3455030" lon="1.8146640">
        <ele>1134.4</ele>
        <time>2015-08-12T16:32:53Z</time>
      </trkpt>
      <trkpt lat="42.3454850" lon="1.8146310">
        <ele>1134.2</ele>
        <time>2015-08-12T16:32:54Z</time>
      </trkpt>
      <trkpt lat="42.3454500" lon="1.8145570">
        <ele>1133.8</ele>
        <time>2015-08-12T16:32:56Z</time>
      </trkpt>
      <trkpt lat="42.3454360" lon="1.8145120">
        <ele>1133.8</ele>
        <time>2015-08-12T16:32:57Z</time>
      </trkpt>
      <trkpt lat="42.3454350" lon="1.8144360">
        <ele>1134.2</ele>
        <time>2015-08-12T16:32:59Z</time>
      </trkpt>
      <trkpt lat="42.3454070" lon="1.8143700">
        <ele>1134.2</ele>
        <time>2015-08-12T16:33:00Z</time>
      </trkpt>
      <trkpt lat="42.3453790" lon="1.8142910">
        <ele>1134.3</ele>
        <time>2015-08-12T16:33:02Z</time>
      </trkpt>
      <trkpt lat="42.3453800" lon="1.8142390">
        <ele>1134.6</ele>
        <time>2015-08-12T16:33:03Z</time>
      </trkpt>
      <trkpt lat="42.3453620" lon="1.8141670">
        <ele>1134.8</ele>
        <time>2015-08-12T16:33:05Z</time>
      </trkpt>
      <trkpt lat="42.3453570" lon="1.8141240">
        <ele>1134.9</ele>
        <time>2015-08-12T16:33:06Z</time>
      </trkpt>
      <trkpt lat="42.3453530" lon="1.8140780">
        <ele>1135.1</ele>
        <time>2015-08-12T16:33:07Z</time>
      </trkpt>
      <trkpt lat="42.3453400" lon="1.8140430">
        <ele>1135.1</ele>
        <time>2015-08-12T16:33:08Z</time>
      </trkpt>
      <trkpt lat="42.3453230" lon="1.8140030">
        <ele>1135.1</ele>
        <time>2015-08-12T16:33:09Z</time>
      </trkpt>
      <trkpt lat="42.3453050" lon="1.8139520">
        <ele>1135.1</ele>
        <time>2015-08-12T16:33:10Z</time>
      </trkpt>
      <trkpt lat="42.3452940" lon="1.8139080">
        <ele>1135.2</ele>
        <time>2015-08-12T16:33:11Z</time>
      </trkpt>
      <trkpt lat="42.3452770" lon="1.8138760">
        <ele>1135.0</ele>
        <time>2015-08-12T16:33:12Z</time>
      </trkpt>
      <trkpt lat="42.3452530" lon="1.8138420">
        <ele>1134.8</ele>
        <time>2015-08-12T16:33:13Z</time>
      </trkpt>
      <trkpt lat="42.3452180" lon="1.8138010">
        <ele>1134.4</ele>
        <time>2015-08-12T16:33:14Z</time>
      </trkpt>
      <trkpt lat="42.3451940" lon="1.8137580">
        <ele>1134.2</ele>
        <time>2015-08-12T16:33:15Z</time>
      </trkpt>
      <trkpt lat="42.3451750" lon="1.8137140">
        <ele>1133.7</ele>
        <time>2015-08-12T16:33:16Z</time>
      </trkpt>
      <trkpt lat="42.3451560" lon="1.8136510">
        <ele>1133.0</ele>
        <time>2015-08-12T16:33:17Z</time>
      </trkpt>
      <trkpt lat="42.3451350" lon="1.8136070">
        <ele>1132.4</ele>
        <time>2015-08-12T16:33:18Z</time>
      </trkpt>
      <trkpt lat="42.3451220" lon="1.8135520">
        <ele>1131.8</ele>
        <time>2015-08-12T16:33:19Z</time>
      </trkpt>
      <trkpt lat="42.3451090" lon="1.8135110">
        <ele>1131.3</ele>
        <time>2015-08-12T16:33:20Z</time>
      </trkpt>
      <trkpt lat="42.3451000" lon="1.8134610">
        <ele>1130.9</ele>
        <time>2015-08-12T16:33:21Z</time>
      </trkpt>
      <trkpt lat="42.3450870" lon="1.8134130">
        <ele>1130.4</ele>
        <time>2015-08-12T16:33:22Z</time>
      </trkpt>
      <trkpt lat="42.3450690" lon="1.8133490">
        <ele>1129.7</ele>
        <time>2015-08-12T16:33:23Z</time>
      </trkpt>
      <trkpt lat="42.3450510" lon="1.8132890">
        <ele>1129.0</ele>
        <time>2015-08-12T16:33:24Z</time>
      </trkpt>
      <trkpt lat="42.3450380" lon="1.8132400">
        <ele>1128.5</ele>
        <time>2015-08-12T16:33:25Z</time>
      </trkpt>
      <trkpt lat="42.3450230" lon="1.8131890">
        <ele>1128.0</ele>
        <time>2015-08-12T16:33:26Z</time>
      </trkpt>
      <trkpt lat="42.3449690" lon="1.8131630">
        <ele>1127.0</ele>
        <time>2015-08-12T16:33:27Z</time>
      </trkpt>
      <trkpt lat="42.3449140" lon="1.8131520">
        <ele>1126.1</ele>
        <time>2015-08-12T16:33:28Z</time>
      </trkpt>
      <trkpt lat="42.3448570" lon="1.8131560">
        <ele>1125.3</ele>
        <time>2015-08-12T16:33:29Z</time>
      </trkpt>
      <trkpt lat="42.3447950" lon="1.8131790">
        <ele>1124.5</ele>
        <time>2015-08-12T16:33:30Z</time>
      </trkpt>
      <trkpt lat="42.3447450" lon="1.8132260">
        <ele>1124.0</ele>
        <time>2015-08-12T16:33:31Z</time>
      </trkpt>
      <trkpt lat="42.3446980" lon="1.8132800">
        <ele>1123.5</ele>
        <time>2015-08-12T16:33:32Z</time>
      </trkpt>
      <trkpt lat="42.3446470" lon="1.8133230">
        <ele>1122.9</ele>
        <time>2015-08-12T16:33:33Z</time>
      </trkpt>
      <trkpt lat="42.3446010" lon="1.8133600">
        <ele>1122.4</ele>
        <time>2015-08-12T16:33:34Z</time>
      </trkpt>
      <trkpt lat="42.3445370" lon="1.8133530">
        <ele>1124.1</ele>
        <time>2015-08-12T16:33:35Z</time>
      </trkpt>
      <trkpt lat="42.3444830" lon="1.8133230">
        <ele>1126.2</ele>
        <time>2015-08-12T16:33:36Z</time>
      </trkpt>
      <trkpt lat="42.3444340" lon="1.8132820">
        <ele>1128.0</ele>
        <time>2015-08-12T16:33:37Z</time>
      </trkpt>
      <trkpt lat="42.3443940" lon="1.8132220">
        <ele>1129.3</ele>
        <time>2015-08-12T16:33:38Z</time>
      </trkpt>
      <trkpt lat="42.3444120" lon="1.8130970">
        <ele>1127.6</ele>
        <time>2015-08-12T16:33:39Z</time>
      </trkpt>
      <trkpt lat="42.3444180" lon="1.8129840">
        <ele>1126.6</ele>
        <time>2015-08-12T16:33:40Z</time>
      </trkpt>
      <trkpt lat="42.3444190" lon="1.8128700">
        <ele>1125.8</ele>
        <time>2015-08-12T16:33:41Z</time>
      </trkpt>
      <trkpt lat="42.3444330" lon="1.8127440">
        <ele>1124.5</ele>
        <time>2015-08-12T16:33:42Z</time>
      </trkpt>
      <trkpt lat="42.3444700" lon="1.8126190">
        <ele>1122.4</ele>
        <time>2015-08-12T16:33:43Z</time>
      </trkpt>
      <trkpt lat="42.3445050" lon="1.8125010">
        <ele>1120.4</ele>
        <time>2015-08-12T16:33:44Z</time>
      </trkpt>
      <trkpt lat="42.3445260" lon="1.8123810">
        <ele>1118.9</ele>
        <time>2015-08-12T16:33:45Z</time>
      </trkpt>
      <trkpt lat="42.3445520" lon="1.8122430">
        <ele>1117.1</ele>
        <time>2015-08-12T16:33:46Z</time>
      </trkpt>
      <trkpt lat="42.3445960" lon="1.8121210">
        <ele>1115.4</ele>
        <time>2015-08-12T16:33:47Z</time>
      </trkpt>
      <trkpt lat="42.3446580" lon="1.8120350">
        <ele>1115.8</ele>
        <time>2015-08-12T16:33:48Z</time>
      </trkpt>
      <trkpt lat="42.3447430" lon="1.8119830">
        <ele>1116.7</ele>
        <time>2015-08-12T16:33:49Z</time>
      </trkpt>
      <trkpt lat="42.3448200" lon="1.8119330">
        <ele>1117.5</ele>
        <time>2015-08-12T16:33:50Z</time>
      </trkpt>
      <trkpt lat="42.3448900" lon="1.8118780">
        <ele>1118.2</ele>
        <time>2015-08-12T16:33:51Z</time>
      </trkpt>
      <trkpt lat="42.3449230" lon="1.8117620">
        <ele>1118.3</ele>
        <time>2015-08-12T16:33:52Z</time>
      </trkpt>
      <trkpt lat="42.3449600" lon="1.8116530">
        <ele>1118.4</ele>
        <time>2015-08-12T16:33:53Z</time>
      </trkpt>
      <trkpt lat="42.3449730" lon="1.8115400">
        <ele>1118.1</ele>
        <time>2015-08-12T16:33:54Z</time>
      </trkpt>
      <trkpt lat="42.3449060" lon="1.8114090">
        <ele>1116.6</ele>
        <time>2015-08-12T16:33:55Z</time>
      </trkpt>
      <trkpt lat="42.3448740" lon="1.8112900">
        <ele>1115.7</ele>
        <time>2015-08-12T16:33:56Z</time>
      </trkpt>
      <trkpt lat="42.3448360" lon="1.8111790">
        <ele>1114.5</ele>
        <time>2015-08-12T16:33:57Z</time>
      </trkpt>
      <trkpt lat="42.3448020" lon="1.8110590">
        <ele>1113.3</ele>
        <time>2015-08-12T16:33:58Z</time>
      </trkpt>
      <trkpt lat="42.3447700" lon="1.8109430">
        <ele>1112.1</ele>
        <time>2015-08-12T16:33:59Z</time>
      </trkpt>
      <trkpt lat="42.3447430" lon="1.8108250">
        <ele>1111.1</ele>
        <time>2015-08-12T16:34:00Z</time>
      </trkpt>
      <trkpt lat="42.3447240" lon="1.8107070">
        <ele>1110.1</ele>
        <time>2015-08-12T16:34:01Z</time>
      </trkpt>
      <trkpt lat="42.3447060" lon="1.8105950">
        <ele>1109.3</ele>
        <time>2015-08-12T16:34:02Z</time>
      </trkpt>
      <trkpt lat="42.3446820" lon="1.8104740">
        <ele>1108.4</ele>
        <time>2015-08-12T16:34:03Z</time>
      </trkpt>
      <trkpt lat="42.3446830" lon="1.8103470">
        <ele>1107.7</ele>
        <time>2015-08-12T16:34:04Z</time>
      </trkpt>
      <trkpt lat="42.3446870" lon="1.8102300">
        <ele>1107.1</ele>
        <time>2015-08-12T16:34:05Z</time>
      </trkpt>
      <trkpt lat="42.3446930" lon="1.8101030">
        <ele>1106.4</ele>
        <time>2015-08-12T16:34:06Z</time>
      </trkpt>
      <trkpt lat="42.3446860" lon="1.8099930">
        <ele>1105.7</ele>
        <time>2015-08-12T16:34:07Z</time>
      </trkpt>
      <trkpt lat="42.3446740" lon="1.8098850">
        <ele>1105.0</ele>
        <time>2015-08-12T16:34:08Z</time>
      </trkpt>
      <trkpt lat="42.3446910" lon="1.8097550">
        <ele>1104.4</ele>
        <time>2015-08-12T16:34:09Z</time>
      </trkpt>
      <trkpt lat="42.3446980" lon="1.8096540">
        <ele>1103.8</ele>
        <time>2015-08-12T16:34:10Z</time>
      </trkpt>
      <trkpt lat="42.3447020" lon="1.8095490">
        <ele>1103.6</ele>
        <time>2015-08-12T16:34:11Z</time>
      </trkpt>
      <trkpt lat="42.3447390" lon="1.8094670">
        <ele>1104.1</ele>
        <time>2015-08-12T16:34:12Z</time>
      </trkpt>
      <trkpt lat="42.3447790" lon="1.8094020">
        <ele>1104.3</ele>
        <time>2015-08-12T16:34:13Z</time>
      </trkpt>
      <trkpt lat="42.3447940" lon="1.8093390">
        <ele>1104.6</ele>
        <time>2015-08-12T16:34:14Z</time>
      </trkpt>
      <trkpt lat="42.3447950" lon="1.8092700">
        <ele>1104.8</ele>
        <time>2015-08-12T16:34:15Z</time>
      </trkpt>
      <trkpt lat="42.3447040" lon="1.8091940">
        <ele>1105.4</ele>
        <time>2015-08-12T16:34:16Z</time>
      </trkpt>
      <trkpt lat="42.3446430" lon="1.8091400">
        <ele>1105.9</ele>
        <time>2015-08-12T16:34:17Z</time>
      </trkpt>
      <trkpt lat="42.3445750" lon="1.8090800">
        <ele>1106.8</ele>
        <time>2015-08-12T16:34:18Z</time>
      </trkpt>
      <trkpt lat="42.3445040" lon="1.8090320">
        <ele>1108.4</ele>
        <time>2015-08-12T16:34:19Z</time>
      </trkpt>
      <trkpt lat="42.3444420" lon="1.8089910">
        <ele>1109.9</ele>
        <time>2015-08-12T16:34:20Z</time>
      </trkpt>
      <trkpt lat="42.3443870" lon="1.8089260">
        <ele>1111.4</ele>
        <time>2015-08-12T16:34:21Z</time>
      </trkpt>
      <trkpt lat="42.3443320" lon="1.8088580">
        <ele>1113.0</ele>
        <time>2015-08-12T16:34:22Z</time>
      </trkpt>
      <trkpt lat="42.3443140" lon="1.8087650">
        <ele>1114.1</ele>
        <time>2015-08-12T16:34:23Z</time>
      </trkpt>
      <trkpt lat="42.3442810" lon="1.8086770">
        <ele>1115.2</ele>
        <time>2015-08-12T16:34:24Z</time>
      </trkpt>
      <trkpt lat="42.3442570" lon="1.8085880">
        <ele>1116.2</ele>
        <time>2015-08-12T16:34:25Z</time>
      </trkpt>
      <trkpt lat="42.3442950" lon="1.8085130">
        <ele>1115.9</ele>
        <time>2015-08-12T16:34:26Z</time>
      </trkpt>
      <trkpt lat="42.3443100" lon="1.8084330">
        <ele>1116.0</ele>
        <time>2015-08-12T16:34:27Z</time>
      </trkpt>
      <trkpt lat="42.3443390" lon="1.8083620">
        <ele>1115.9</ele>
        <time>2015-08-12T16:34:28Z</time>
      </trkpt>
      <trkpt lat="42.3443900" lon="1.8083150">
        <ele>1115.2</ele>
        <time>2015-08-12T16:34:29Z</time>
      </trkpt>
      <trkpt lat="42.3444400" lon="1.8082610">
        <ele>1114.6</ele>
        <time>2015-08-12T16:34:30Z</time>
      </trkpt>
      <trkpt lat="42.3444870" lon="1.8082000">
        <ele>1114.1</ele>
        <time>2015-08-12T16:34:31Z</time>
      </trkpt>
      <trkpt lat="42.3445420" lon="1.8081450">
        <ele>1113.4</ele>
        <time>2015-08-12T16:34:32Z</time>
      </trkpt>
      <trkpt lat="42.3445940" lon="1.8080910">
        <ele>1112.8</ele>
        <time>2015-08-12T16:34:33Z</time>
      </trkpt>
      <trkpt lat="42.3446320" lon="1.8080390">
        <ele>1112.8</ele>
        <time>2015-08-12T16:34:34Z</time>
      </trkpt>
      <trkpt lat="42.3446870" lon="1.8079980">
        <ele>1112.5</ele>
        <time>2015-08-12T16:34:35Z</time>
      </trkpt>
      <trkpt lat="42.3447380" lon="1.8079570">
        <ele>1112.3</ele>
        <time>2015-08-12T16:34:36Z</time>
      </trkpt>
      <trkpt lat="42.3447830" lon="1.8079160">
        <ele>1112.1</ele>
        <time>2015-08-12T16:34:37Z</time>
      </trkpt>
      <trkpt lat="42.3448260" lon="1.8078830">
        <ele>1111.8</ele>
        <time>2015-08-12T16:34:38Z</time>
      </trkpt>
      <trkpt lat="42.3448660" lon="1.8078480">
        <ele>1111.5</ele>
        <time>2015-08-12T16:34:39Z</time>
      </trkpt>
      <trkpt lat="42.3449080" lon="1.8078010">
        <ele>1111.2</ele>
        <time>2015-08-12T16:34:40Z</time>
      </trkpt>
      <trkpt lat="42.3449530" lon="1.8077670">
        <ele>1110.9</ele>
        <time>2015-08-12T16:34:41Z</time>
      </trkpt>
      <trkpt lat="42.3449910" lon="1.8077420">
        <ele>1110.6</ele>
        <time>2015-08-12T16:34:42Z</time>
      </trkpt>
      <trkpt lat="42.3450210" lon="1.8077240">
        <ele>1110.4</ele>
        <time>2015-08-12T16:34:43Z</time>
      </trkpt>
      <trkpt lat="42.3449940" lon="1.8076930">
        <ele>1110.7</ele>
        <time>2015-08-12T16:34:44Z</time>
      </trkpt>
      <trkpt lat="42.3449820" lon="1.8076570">
        <ele>1111.0</ele>
        <time>2015-08-12T16:34:45Z</time>
      </trkpt>
      <trkpt lat="42.3450190" lon="1.8076680">
        <ele>1110.6</ele>
        <time>2015-08-12T16:35:10Z</time>
      </trkpt>
      <trkpt lat="42.3450470" lon="1.8076250">
        <ele>1110.4</ele>
        <time>2015-08-12T16:35:12Z</time>
      </trkpt>
      <trkpt lat="42.3450730" lon="1.8075960">
        <ele>1110.2</ele>
        <time>2015-08-12T16:35:14Z</time>
      </trkpt>
      <trkpt lat="42.3451000" lon="1.8075840">
        <ele>1110.0</ele>
        <time>2015-08-12T16:35:16Z</time>
      </trkpt>
      <trkpt lat="42.3451370" lon="1.8075740">
        <ele>1109.6</ele>
        <time>2015-08-12T16:35:18Z</time>
      </trkpt>
      <trkpt lat="42.3451670" lon="1.8075630">
        <ele>1109.4</ele>
        <time>2015-08-12T16:35:19Z</time>
      </trkpt>
      <trkpt lat="42.3451940" lon="1.8075250">
        <ele>1109.2</ele>
        <time>2015-08-12T16:35:20Z</time>
      </trkpt>
      <trkpt lat="42.3452330" lon="1.8075230">
        <ele>1108.8</ele>
        <time>2015-08-12T16:35:21Z</time>
      </trkpt>
      <trkpt lat="42.3452510" lon="1.8074780">
        <ele>1108.7</ele>
        <time>2015-08-12T16:35:22Z</time>
      </trkpt>
      <trkpt lat="42.3452820" lon="1.8074520">
        <ele>1108.5</ele>
        <time>2015-08-12T16:35:23Z</time>
      </trkpt>
      <trkpt lat="42.3453090" lon="1.8074240">
        <ele>1108.3</ele>
        <time>2015-08-12T16:35:24Z</time>
      </trkpt>
      <trkpt lat="42.3453380" lon="1.8073920">
        <ele>1108.1</ele>
        <time>2015-08-12T16:35:25Z</time>
      </trkpt>
      <trkpt lat="42.3453550" lon="1.8073500">
        <ele>1108.0</ele>
        <time>2015-08-12T16:35:26Z</time>
      </trkpt>
      <trkpt lat="42.3453810" lon="1.8073080">
        <ele>1107.8</ele>
        <time>2015-08-12T16:35:27Z</time>
      </trkpt>
      <trkpt lat="42.3454000" lon="1.8072740">
        <ele>1107.7</ele>
        <time>2015-08-12T16:35:28Z</time>
      </trkpt>
      <trkpt lat="42.3454060" lon="1.8072290">
        <ele>1107.8</ele>
        <time>2015-08-12T16:35:29Z</time>
      </trkpt>
      <trkpt lat="42.3454160" lon="1.8071950">
        <ele>1107.7</ele>
        <time>2015-08-12T16:35:30Z</time>
      </trkpt>
      <trkpt lat="42.3454240" lon="1.8071520">
        <ele>1107.8</ele>
        <time>2015-08-12T16:35:31Z</time>
      </trkpt>
      <trkpt lat="42.3454410" lon="1.8071070">
        <ele>1107.8</ele>
        <time>2015-08-12T16:35:32Z</time>
      </trkpt>
      <trkpt lat="42.3454690" lon="1.8070380">
        <ele>1107.7</ele>
        <time>2015-08-12T16:35:34Z</time>
      </trkpt>
      <trkpt lat="42.3454750" lon="1.8070010">
        <ele>1107.8</ele>
        <time>2015-08-12T16:35:35Z</time>
      </trkpt>
      <trkpt lat="42.3454930" lon="1.8069280">
        <ele>1107.8</ele>
        <time>2015-08-12T16:35:37Z</time>
      </trkpt>
      <trkpt lat="42.3455100" lon="1.8068930">
        <ele>1107.8</ele>
        <time>2015-08-12T16:35:38Z</time>
      </trkpt>
      <trkpt lat="42.3455180" lon="1.8068500">
        <ele>1107.8</ele>
        <time>2015-08-12T16:35:39Z</time>
      </trkpt>
      <trkpt lat="42.3455240" lon="1.8068080">
        <ele>1107.8</ele>
        <time>2015-08-12T16:35:40Z</time>
      </trkpt>
      <trkpt lat="42.3455340" lon="1.8067670">
        <ele>1107.9</ele>
        <time>2015-08-12T16:35:41Z</time>
      </trkpt>
      <trkpt lat="42.3455500" lon="1.8066990">
        <ele>1107.9</ele>
        <time>2015-08-12T16:35:43Z</time>
      </trkpt>
      <trkpt lat="42.3455550" lon="1.8066540">
        <ele>1107.9</ele>
        <time>2015-08-12T16:35:44Z</time>
      </trkpt>
      <trkpt lat="42.3455630" lon="1.8066120">
        <ele>1108.0</ele>
        <time>2015-08-12T16:35:45Z</time>
      </trkpt>
      <trkpt lat="42.3455660" lon="1.8065660">
        <ele>1108.1</ele>
        <time>2015-08-12T16:35:46Z</time>
      </trkpt>
      <trkpt lat="42.3455810" lon="1.8065290">
        <ele>1108.0</ele>
        <time>2015-08-12T16:35:48Z</time>
      </trkpt>
      <trkpt lat="42.3455890" lon="1.8064690">
        <ele>1108.1</ele>
        <time>2015-08-12T16:35:50Z</time>
      </trkpt>
      <trkpt lat="42.3456110" lon="1.8064100">
        <ele>1108.0</ele>
        <time>2015-08-12T16:35:52Z</time>
      </trkpt>
      <trkpt lat="42.3456190" lon="1.8063700">
        <ele>1108.0</ele>
        <time>2015-08-12T16:35:53Z</time>
      </trkpt>
      <trkpt lat="42.3456200" lon="1.8063280">
        <ele>1108.1</ele>
        <time>2015-08-12T16:35:54Z</time>
      </trkpt>
      <trkpt lat="42.3456250" lon="1.8062920">
        <ele>1108.2</ele>
        <time>2015-08-12T16:35:55Z</time>
      </trkpt>
      <trkpt lat="42.3456370" lon="1.8062230">
        <ele>1108.2</ele>
        <time>2015-08-12T16:35:57Z</time>
      </trkpt>
      <trkpt lat="42.3456620" lon="1.8061620">
        <ele>1108.2</ele>
        <time>2015-08-12T16:35:59Z</time>
      </trkpt>
      <trkpt lat="42.3456900" lon="1.8061090">
        <ele>1108.1</ele>
        <time>2015-08-12T16:36:01Z</time>
      </trkpt>
      <trkpt lat="42.3457120" lon="1.8060420">
        <ele>1108.1</ele>
        <time>2015-08-12T16:36:03Z</time>
      </trkpt>
      <trkpt lat="42.3457150" lon="1.8060000">
        <ele>1108.2</ele>
        <time>2015-08-12T16:36:04Z</time>
      </trkpt>
      <trkpt lat="42.3457250" lon="1.8059640">
        <ele>1108.2</ele>
        <time>2015-08-12T16:36:05Z</time>
      </trkpt>
      <trkpt lat="42.3457400" lon="1.8059260">
        <ele>1108.1</ele>
        <time>2015-08-12T16:36:06Z</time>
      </trkpt>
      <trkpt lat="42.3457420" lon="1.8058770">
        <ele>1108.3</ele>
        <time>2015-08-12T16:36:07Z</time>
      </trkpt>
      <trkpt lat="42.3457600" lon="1.8058360">
        <ele>1108.2</ele>
        <time>2015-08-12T16:36:08Z</time>
      </trkpt>
      <trkpt lat="42.3457760" lon="1.8057850">
        <ele>1108.2</ele>
        <time>2015-08-12T16:36:09Z</time>
      </trkpt>
      <trkpt lat="42.3457940" lon="1.8057430">
        <ele>1108.1</ele>
        <time>2015-08-12T16:36:10Z</time>
      </trkpt>
      <trkpt lat="42.3458030" lon="1.8056830">
        <ele>1108.2</ele>
        <time>2015-08-12T16:36:11Z</time>
      </trkpt>
      <trkpt lat="42.3458170" lon="1.8056220">
        <ele>1108.2</ele>
        <time>2015-08-12T16:36:12Z</time>
      </trkpt>
      <trkpt lat="42.3458250" lon="1.8055670">
        <ele>1108.2</ele>
        <time>2015-08-12T16:36:13Z</time>
      </trkpt>
      <trkpt lat="42.3458370" lon="1.8055160">
        <ele>1108.2</ele>
        <time>2015-08-12T16:36:14Z</time>
      </trkpt>
      <trkpt lat="42.3458510" lon="1.8054620">
        <ele>1108.2</ele>
        <time>2015-08-12T16:36:15Z</time>
      </trkpt>
      <trkpt lat="42.3458610" lon="1.8054070">
        <ele>1108.2</ele>
        <time>2015-08-12T16:36:16Z</time>
      </trkpt>
      <trkpt lat="42.3458670" lon="1.8053380">
        <ele>1108.4</ele>
        <time>2015-08-12T16:36:17Z</time>
      </trkpt>
      <trkpt lat="42.3458760" lon="1.8052840">
        <ele>1108.5</ele>
        <time>2015-08-12T16:36:18Z</time>
      </trkpt>
      <trkpt lat="42.3458800" lon="1.8052190">
        <ele>1108.7</ele>
        <time>2015-08-12T16:36:19Z</time>
      </trkpt>
      <trkpt lat="42.3458870" lon="1.8051640">
        <ele>1108.8</ele>
        <time>2015-08-12T16:36:20Z</time>
      </trkpt>
      <trkpt lat="42.3458950" lon="1.8051050">
        <ele>1109.0</ele>
        <time>2015-08-12T16:36:21Z</time>
      </trkpt>
      <trkpt lat="42.3458890" lon="1.8050420">
        <ele>1109.2</ele>
        <time>2015-08-12T16:36:22Z</time>
      </trkpt>
      <trkpt lat="42.3458930" lon="1.8049940">
        <ele>1109.4</ele>
        <time>2015-08-12T16:36:23Z</time>
      </trkpt>
      <trkpt lat="42.3458990" lon="1.8049300">
        <ele>1109.5</ele>
        <time>2015-08-12T16:36:24Z</time>
      </trkpt>
      <trkpt lat="42.3459220" lon="1.8048930">
        <ele>1109.4</ele>
        <time>2015-08-12T16:36:25Z</time>
      </trkpt>
      <trkpt lat="42.3459330" lon="1.8048360">
        <ele>1109.5</ele>
        <time>2015-08-12T16:36:26Z</time>
      </trkpt>
      <trkpt lat="42.3459450" lon="1.8047860">
        <ele>1109.6</ele>
        <time>2015-08-12T16:36:27Z</time>
      </trkpt>
      <trkpt lat="42.3459580" lon="1.8047380">
        <ele>1109.6</ele>
        <time>2015-08-12T16:36:28Z</time>
      </trkpt>
      <trkpt lat="42.3459660" lon="1.8046920">
        <ele>1109.7</ele>
        <time>2015-08-12T16:36:29Z</time>
      </trkpt>
      <trkpt lat="42.3459750" lon="1.8046460">
        <ele>1109.7</ele>
        <time>2015-08-12T16:36:30Z</time>
      </trkpt>
      <trkpt lat="42.3459930" lon="1.8045850">
        <ele>1109.8</ele>
        <time>2015-08-12T16:36:31Z</time>
      </trkpt>
      <trkpt lat="42.3460210" lon="1.8045520">
        <ele>1109.6</ele>
        <time>2015-08-12T16:36:32Z</time>
      </trkpt>
      <trkpt lat="42.3460380" lon="1.8045150">
        <ele>1109.5</ele>
        <time>2015-08-12T16:36:33Z</time>
      </trkpt>
      <trkpt lat="42.3460450" lon="1.8044640">
        <ele>1109.6</ele>
        <time>2015-08-12T16:36:34Z</time>
      </trkpt>
      <trkpt lat="42.3460470" lon="1.8044220">
        <ele>1109.7</ele>
        <time>2015-08-12T16:36:35Z</time>
      </trkpt>
      <trkpt lat="42.3460530" lon="1.8043810">
        <ele>1109.8</ele>
        <time>2015-08-12T16:36:36Z</time>
      </trkpt>
      <trkpt lat="42.3460620" lon="1.8043290">
        <ele>1109.9</ele>
        <time>2015-08-12T16:36:37Z</time>
      </trkpt>
      <trkpt lat="42.3460710" lon="1.8042890">
        <ele>1110.0</ele>
        <time>2015-08-12T16:36:38Z</time>
      </trkpt>
      <trkpt lat="42.3460750" lon="1.8042430">
        <ele>1110.1</ele>
        <time>2015-08-12T16:36:39Z</time>
      </trkpt>
      <trkpt lat="42.3460840" lon="1.8041910">
        <ele>1110.2</ele>
        <time>2015-08-12T16:36:40Z</time>
      </trkpt>
      <trkpt lat="42.3460950" lon="1.8041490">
        <ele>1110.3</ele>
        <time>2015-08-12T16:36:41Z</time>
      </trkpt>
      <trkpt lat="42.3461220" lon="1.8041130">
        <ele>1110.2</ele>
        <time>2015-08-12T16:36:42Z</time>
      </trkpt>
      <trkpt lat="42.3461460" lon="1.8040650">
        <ele>1110.2</ele>
        <time>2015-08-12T16:36:43Z</time>
      </trkpt>
      <trkpt lat="42.3461700" lon="1.8040310">
        <ele>1110.2</ele>
        <time>2015-08-12T16:36:44Z</time>
      </trkpt>
      <trkpt lat="42.3461760" lon="1.8039840">
        <ele>1110.4</ele>
        <time>2015-08-12T16:36:45Z</time>
      </trkpt>
      <trkpt lat="42.3461920" lon="1.8039470">
        <ele>1110.4</ele>
        <time>2015-08-12T16:36:46Z</time>
      </trkpt>
      <trkpt lat="42.3462040" lon="1.8039070">
        <ele>1110.5</ele>
        <time>2015-08-12T16:36:47Z</time>
      </trkpt>
      <trkpt lat="42.3462110" lon="1.8038670">
        <ele>1110.7</ele>
        <time>2015-08-12T16:36:48Z</time>
      </trkpt>
      <trkpt lat="42.3462350" lon="1.8038370">
        <ele>1110.7</ele>
        <time>2015-08-12T16:36:49Z</time>
      </trkpt>
      <trkpt lat="42.3462610" lon="1.8038040">
        <ele>1110.7</ele>
        <time>2015-08-12T16:36:50Z</time>
      </trkpt>
      <trkpt lat="42.3462860" lon="1.8037660">
        <ele>1110.7</ele>
        <time>2015-08-12T16:36:51Z</time>
      </trkpt>
      <trkpt lat="42.3463030" lon="1.8037290">
        <ele>1110.6</ele>
        <time>2015-08-12T16:36:52Z</time>
      </trkpt>
      <trkpt lat="42.3463210" lon="1.8036840">
        <ele>1110.6</ele>
        <time>2015-08-12T16:36:53Z</time>
      </trkpt>
      <trkpt lat="42.3463390" lon="1.8036450">
        <ele>1110.5</ele>
        <time>2015-08-12T16:36:54Z</time>
      </trkpt>
      <trkpt lat="42.3463530" lon="1.8036080">
        <ele>1110.4</ele>
        <time>2015-08-12T16:36:55Z</time>
      </trkpt>
      <trkpt lat="42.3463740" lon="1.8035760">
        <ele>1110.3</ele>
        <time>2015-08-12T16:36:56Z</time>
      </trkpt>
      <trkpt lat="42.3463830" lon="1.8035330">
        <ele>1110.3</ele>
        <time>2015-08-12T16:36:57Z</time>
      </trkpt>
      <trkpt lat="42.3463990" lon="1.8034870">
        <ele>1110.3</ele>
        <time>2015-08-12T16:36:58Z</time>
      </trkpt>
      <trkpt lat="42.3464140" lon="1.8034500">
        <ele>1110.3</ele>
        <time>2015-08-12T16:36:59Z</time>
      </trkpt>
      <trkpt lat="42.3464290" lon="1.8034040">
        <ele>1110.2</ele>
        <time>2015-08-12T16:37:00Z</time>
      </trkpt>
      <trkpt lat="42.3464300" lon="1.8033430">
        <ele>1110.3</ele>
        <time>2015-08-12T16:37:01Z</time>
      </trkpt>
      <trkpt lat="42.3464390" lon="1.8032940">
        <ele>1110.3</ele>
        <time>2015-08-12T16:37:02Z</time>
      </trkpt>
      <trkpt lat="42.3464470" lon="1.8032420">
        <ele>1110.3</ele>
        <time>2015-08-12T16:37:03Z</time>
      </trkpt>
      <trkpt lat="42.3464600" lon="1.8031990">
        <ele>1110.3</ele>
        <time>2015-08-12T16:37:04Z</time>
      </trkpt>
      <trkpt lat="42.3464770" lon="1.8031590">
        <ele>1110.3</ele>
        <time>2015-08-12T16:37:05Z</time>
      </trkpt>
      <trkpt lat="42.3465040" lon="1.8031050">
        <ele>1110.2</ele>
        <time>2015-08-12T16:37:07Z</time>
      </trkpt>
      <trkpt lat="42.3465110" lon="1.8030170">
        <ele>1110.3</ele>
        <time>2015-08-12T16:37:09Z</time>
      </trkpt>
      <trkpt lat="42.3464890" lon="1.8029930">
        <ele>1110.4</ele>
        <time>2015-08-12T16:37:10Z</time>
      </trkpt>
      <trkpt lat="42.3464830" lon="1.8029230">
        <ele>1110.6</ele>
        <time>2015-08-12T16:37:12Z</time>
      </trkpt>
      <trkpt lat="42.3464900" lon="1.8028760">
        <ele>1110.1</ele>
        <time>2015-08-12T16:37:14Z</time>
      </trkpt>
      <trkpt lat="42.3465090" lon="1.8028140">
        <ele>1109.2</ele>
        <time>2015-08-12T16:37:16Z</time>
      </trkpt>
      <trkpt lat="42.3465140" lon="1.8027600">
        <ele>1108.6</ele>
        <time>2015-08-12T16:37:18Z</time>
      </trkpt>
      <trkpt lat="42.3465140" lon="1.8027150">
        <ele>1108.1</ele>
        <time>2015-08-12T16:37:19Z</time>
      </trkpt>
      <trkpt lat="42.3464990" lon="1.8026650">
        <ele>1107.5</ele>
        <time>2015-08-12T16:37:20Z</time>
      </trkpt>
      <trkpt lat="42.3464900" lon="1.8026200">
        <ele>1107.1</ele>
        <time>2015-08-12T16:37:21Z</time>
      </trkpt>
      <trkpt lat="42.3465390" lon="1.8025960">
        <ele>1106.6</ele>
        <time>2015-08-12T16:37:23Z</time>
      </trkpt>
      <trkpt lat="42.3465770" lon="1.8025540">
        <ele>1105.9</ele>
        <time>2015-08-12T16:37:25Z</time>
      </trkpt>
      <trkpt lat="42.3466120" lon="1.8025150">
        <ele>1105.4</ele>
        <time>2015-08-12T16:37:26Z</time>
      </trkpt>
      <trkpt lat="42.3466390" lon="1.8024930">
        <ele>1105.0</ele>
        <time>2015-08-12T16:37:27Z</time>
      </trkpt>
      <trkpt lat="42.3466430" lon="1.8024510">
        <ele>1104.5</ele>
        <time>2015-08-12T16:37:28Z</time>
      </trkpt>
      <trkpt lat="42.3466770" lon="1.8024130">
        <ele>1104.0</ele>
        <time>2015-08-12T16:37:29Z</time>
      </trkpt>
      <trkpt lat="42.3467130" lon="1.8023750">
        <ele>1103.5</ele>
        <time>2015-08-12T16:37:30Z</time>
      </trkpt>
      <trkpt lat="42.3467470" lon="1.8023320">
        <ele>1103.0</ele>
        <time>2015-08-12T16:37:31Z</time>
      </trkpt>
      <trkpt lat="42.3467830" lon="1.8023150">
        <ele>1102.7</ele>
        <time>2015-08-12T16:37:32Z</time>
      </trkpt>
      <trkpt lat="42.3468410" lon="1.8023000">
        <ele>1102.4</ele>
        <time>2015-08-12T16:37:33Z</time>
      </trkpt>
      <trkpt lat="42.3468740" lon="1.8022770">
        <ele>1102.1</ele>
        <time>2015-08-12T16:37:34Z</time>
      </trkpt>
      <trkpt lat="42.3469140" lon="1.8022530">
        <ele>1101.8</ele>
        <time>2015-08-12T16:37:35Z</time>
      </trkpt>
      <trkpt lat="42.3469400" lon="1.8022380">
        <ele>1101.6</ele>
        <time>2015-08-12T16:37:36Z</time>
      </trkpt>
      <trkpt lat="42.3469750" lon="1.8022140">
        <ele>1101.3</ele>
        <time>2015-08-12T16:37:37Z</time>
      </trkpt>
      <trkpt lat="42.3470070" lon="1.8021940">
        <ele>1101.1</ele>
        <time>2015-08-12T16:37:38Z</time>
      </trkpt>
      <trkpt lat="42.3470350" lon="1.8021670">
        <ele>1100.8</ele>
        <time>2015-08-12T16:37:39Z</time>
      </trkpt>
      <trkpt lat="42.3470770" lon="1.8021670">
        <ele>1100.7</ele>
        <time>2015-08-12T16:37:40Z</time>
      </trkpt>
      <trkpt lat="42.3470680" lon="1.8021030">
        <ele>1100.2</ele>
        <time>2015-08-12T16:37:41Z</time>
      </trkpt>
      <trkpt lat="42.3470830" lon="1.8020560">
        <ele>1099.6</ele>
        <time>2015-08-12T16:37:42Z</time>
      </trkpt>
      <trkpt lat="42.3471010" lon="1.8020110">
        <ele>1099.0</ele>
        <time>2015-08-12T16:37:43Z</time>
      </trkpt>
      <trkpt lat="42.3471260" lon="1.8019900">
        <ele>1098.8</ele>
        <time>2015-08-12T16:37:44Z</time>
      </trkpt>
      <trkpt lat="42.3471740" lon="1.8019570">
        <ele>1098.3</ele>
        <time>2015-08-12T16:37:45Z</time>
      </trkpt>
      <trkpt lat="42.3472050" lon="1.8019200">
        <ele>1097.9</ele>
        <time>2015-08-12T16:37:46Z</time>
      </trkpt>
      <trkpt lat="42.3472380" lon="1.8018710">
        <ele>1097.2</ele>
        <time>2015-08-12T16:37:47Z</time>
      </trkpt>
      <trkpt lat="42.3472990" lon="1.8017960">
        <ele>1096.3</ele>
        <time>2015-08-12T16:37:48Z</time>
      </trkpt>
      <trkpt lat="42.3473540" lon="1.8017400">
        <ele>1095.6</ele>
        <time>2015-08-12T16:37:49Z</time>
      </trkpt>
      <trkpt lat="42.3474270" lon="1.8016870">
        <ele>1095.0</ele>
        <time>2015-08-12T16:37:50Z</time>
      </trkpt>
      <trkpt lat="42.3474760" lon="1.8016310">
        <ele>1094.3</ele>
        <time>2015-08-12T16:37:51Z</time>
      </trkpt>
      <trkpt lat="42.3475540" lon="1.8015930">
        <ele>1093.9</ele>
        <time>2015-08-12T16:37:52Z</time>
      </trkpt>
      <trkpt lat="42.3476180" lon="1.8015450">
        <ele>1093.3</ele>
        <time>2015-08-12T16:37:53Z</time>
      </trkpt>
      <trkpt lat="42.3476750" lon="1.8014990">
        <ele>1092.8</ele>
        <time>2015-08-12T16:37:54Z</time>
      </trkpt>
      <trkpt lat="42.3477250" lon="1.8014430">
        <ele>1092.1</ele>
        <time>2015-08-12T16:37:55Z</time>
      </trkpt>
      <trkpt lat="42.3477790" lon="1.8013830">
        <ele>1091.5</ele>
        <time>2015-08-12T16:37:56Z</time>
      </trkpt>
      <trkpt lat="42.3478440" lon="1.8013460">
        <ele>1091.1</ele>
        <time>2015-08-12T16:37:57Z</time>
      </trkpt>
      <trkpt lat="42.3479140" lon="1.8013120">
        <ele>1090.7</ele>
        <time>2015-08-12T16:37:58Z</time>
      </trkpt>
      <trkpt lat="42.3479950" lon="1.8012780">
        <ele>1090.3</ele>
        <time>2015-08-12T16:37:59Z</time>
      </trkpt>
      <trkpt lat="42.3480570" lon="1.8012370">
        <ele>1089.9</ele>
        <time>2015-08-12T16:38:00Z</time>
      </trkpt>
      <trkpt lat="42.3481250" lon="1.8011940">
        <ele>1089.5</ele>
        <time>2015-08-12T16:38:01Z</time>
      </trkpt>
      <trkpt lat="42.3481930" lon="1.8011420">
        <ele>1089.1</ele>
        <time>2015-08-12T16:38:02Z</time>
      </trkpt>
      <trkpt lat="42.3482620" lon="1.8011150">
        <ele>1088.9</ele>
        <time>2015-08-12T16:38:03Z</time>
      </trkpt>
      <trkpt lat="42.3483220" lon="1.8010740">
        <ele>1088.6</ele>
        <time>2015-08-12T16:38:04Z</time>
      </trkpt>
      <trkpt lat="42.3483860" lon="1.8010370">
        <ele>1088.4</ele>
        <time>2015-08-12T16:38:05Z</time>
      </trkpt>
      <trkpt lat="42.3484530" lon="1.8009950">
        <ele>1088.1</ele>
        <time>2015-08-12T16:38:06Z</time>
      </trkpt>
      <trkpt lat="42.3485350" lon="1.8009450">
        <ele>1087.7</ele>
        <time>2015-08-12T16:38:07Z</time>
      </trkpt>
      <trkpt lat="42.3486180" lon="1.8008750">
        <ele>1087.2</ele>
        <time>2015-08-12T16:38:08Z</time>
      </trkpt>
      <trkpt lat="42.3486720" lon="1.8007980">
        <ele>1086.7</ele>
        <time>2015-08-12T16:38:09Z</time>
      </trkpt>
      <trkpt lat="42.3487420" lon="1.8007140">
        <ele>1086.1</ele>
        <time>2015-08-12T16:38:10Z</time>
      </trkpt>
      <trkpt lat="42.3487920" lon="1.8006240">
        <ele>1085.6</ele>
        <time>2015-08-12T16:38:11Z</time>
      </trkpt>
      <trkpt lat="42.3488410" lon="1.8005260">
        <ele>1085.1</ele>
        <time>2015-08-12T16:38:12Z</time>
      </trkpt>
      <trkpt lat="42.3488710" lon="1.8004280">
        <ele>1084.7</ele>
        <time>2015-08-12T16:38:13Z</time>
      </trkpt>
      <trkpt lat="42.3489210" lon="1.8003260">
        <ele>1084.5</ele>
        <time>2015-08-12T16:38:14Z</time>
      </trkpt>
      <trkpt lat="42.3489710" lon="1.8002340">
        <ele>1084.4</ele>
        <time>2015-08-12T16:38:15Z</time>
      </trkpt>
      <trkpt lat="42.3490270" lon="1.8001330">
        <ele>1084.3</ele>
        <time>2015-08-12T16:38:16Z</time>
      </trkpt>
      <trkpt lat="42.3490690" lon="1.8000470">
        <ele>1084.2</ele>
        <time>2015-08-12T16:38:17Z</time>
      </trkpt>
      <trkpt lat="42.3491300" lon="1.7999630">
        <ele>1084.2</ele>
        <time>2015-08-12T16:38:18Z</time>
      </trkpt>
      <trkpt lat="42.3491640" lon="1.7999080">
        <ele>1084.2</ele>
        <time>2015-08-12T16:38:19Z</time>
      </trkpt>
      <trkpt lat="42.3491920" lon="1.7998360">
        <ele>1084.0</ele>
        <time>2015-08-12T16:38:20Z</time>
      </trkpt>
      <trkpt lat="42.3492040" lon="1.7997510">
        <ele>1083.8</ele>
        <time>2015-08-12T16:38:21Z</time>
      </trkpt>
      <trkpt lat="42.3492210" lon="1.7996720">
        <ele>1083.6</ele>
        <time>2015-08-12T16:38:22Z</time>
      </trkpt>
      <trkpt lat="42.3492400" lon="1.7995590">
        <ele>1083.3</ele>
        <time>2015-08-12T16:38:23Z</time>
      </trkpt>
      <trkpt lat="42.3492580" lon="1.7994600">
        <ele>1083.3</ele>
        <time>2015-08-12T16:38:24Z</time>
      </trkpt>
      <trkpt lat="42.3492860" lon="1.7993730">
        <ele>1083.3</ele>
        <time>2015-08-12T16:38:25Z</time>
      </trkpt>
      <trkpt lat="42.3493090" lon="1.7993070">
        <ele>1083.2</ele>
        <time>2015-08-12T16:38:26Z</time>
      </trkpt>
      <trkpt lat="42.3493220" lon="1.7992280">
        <ele>1083.1</ele>
        <time>2015-08-12T16:38:27Z</time>
      </trkpt>
      <trkpt lat="42.3493270" lon="1.7991210">
        <ele>1083.0</ele>
        <time>2015-08-12T16:38:28Z</time>
      </trkpt>
      <trkpt lat="42.3493410" lon="1.7990470">
        <ele>1082.8</ele>
        <time>2015-08-12T16:38:29Z</time>
      </trkpt>
      <trkpt lat="42.3493540" lon="1.7989590">
        <ele>1082.7</ele>
        <time>2015-08-12T16:38:30Z</time>
      </trkpt>
      <trkpt lat="42.3493720" lon="1.7988690">
        <ele>1082.5</ele>
        <time>2015-08-12T16:38:31Z</time>
      </trkpt>
      <trkpt lat="42.3493840" lon="1.7987790">
        <ele>1082.3</ele>
        <time>2015-08-12T16:38:32Z</time>
      </trkpt>
      <trkpt lat="42.3493920" lon="1.7986750">
        <ele>1082.1</ele>
        <time>2015-08-12T16:38:33Z</time>
      </trkpt>
      <trkpt lat="42.3493990" lon="1.7985770">
        <ele>1081.9</ele>
        <time>2015-08-12T16:38:34Z</time>
      </trkpt>
      <trkpt lat="42.3493970" lon="1.7984910">
        <ele>1081.8</ele>
        <time>2015-08-12T16:38:35Z</time>
      </trkpt>
      <trkpt lat="42.3494110" lon="1.7983820">
        <ele>1081.6</ele>
        <time>2015-08-12T16:38:36Z</time>
      </trkpt>
      <trkpt lat="42.3494480" lon="1.7983350">
        <ele>1081.4</ele>
        <time>2015-08-12T16:38:37Z</time>
      </trkpt>
      <trkpt lat="42.3494630" lon="1.7982760">
        <ele>1081.3</ele>
        <time>2015-08-12T16:38:38Z</time>
      </trkpt>
      <trkpt lat="42.3494720" lon="1.7982150">
        <ele>1081.1</ele>
        <time>2015-08-12T16:38:39Z</time>
      </trkpt>
      <trkpt lat="42.3494850" lon="1.7981500">
        <ele>1080.9</ele>
        <time>2015-08-12T16:38:40Z</time>
      </trkpt>
      <trkpt lat="42.3494760" lon="1.7981010">
        <ele>1080.9</ele>
        <time>2015-08-12T16:38:41Z</time>
      </trkpt>
      <trkpt lat="42.3494680" lon="1.7980480">
        <ele>1080.8</ele>
        <time>2015-08-12T16:38:42Z</time>
      </trkpt>
      <trkpt lat="42.3494550" lon="1.7979950">
        <ele>1080.8</ele>
        <time>2015-08-12T16:38:43Z</time>
      </trkpt>
      <trkpt lat="42.3494580" lon="1.7979460">
        <ele>1080.7</ele>
        <time>2015-08-12T16:38:44Z</time>
      </trkpt>
      <trkpt lat="42.3494780" lon="1.7978900">
        <ele>1080.5</ele>
        <time>2015-08-12T16:38:47Z</time>
      </trkpt>
      <trkpt lat="42.3494890" lon="1.7978330">
        <ele>1080.5</ele>
        <time>2015-08-12T16:38:49Z</time>
      </trkpt>
      <trkpt lat="42.3494800" lon="1.7977980">
        <ele>1080.6</ele>
        <time>2015-08-12T16:38:50Z</time>
      </trkpt>
      <trkpt lat="42.3494770" lon="1.7977600">
        <ele>1080.6</ele>
        <time>2015-08-12T16:38:51Z</time>
      </trkpt>
      <trkpt lat="42.3494930" lon="1.7976840">
        <ele>1080.6</ele>
        <time>2015-08-12T16:38:53Z</time>
      </trkpt>
      <trkpt lat="42.3495130" lon="1.7976390">
        <ele>1080.5</ele>
        <time>2015-08-12T16:38:54Z</time>
      </trkpt>
      <trkpt lat="42.3495470" lon="1.7976010">
        <ele>1080.2</ele>
        <time>2015-08-12T16:38:55Z</time>
      </trkpt>
      <trkpt lat="42.3495780" lon="1.7975610">
        <ele>1080.0</ele>
        <time>2015-08-12T16:38:56Z</time>
      </trkpt>
      <trkpt lat="42.3495980" lon="1.7974670">
        <ele>1080.0</ele>
        <time>2015-08-12T16:38:57Z</time>
      </trkpt>
      <trkpt lat="42.3496130" lon="1.7973800">
        <ele>1079.9</ele>
        <time>2015-08-12T16:38:58Z</time>
      </trkpt>
      <trkpt lat="42.3495940" lon="1.7972630">
        <ele>1080.0</ele>
        <time>2015-08-12T16:38:59Z</time>
      </trkpt>
      <trkpt lat="42.3496240" lon="1.7971830">
        <ele>1079.8</ele>
        <time>2015-08-12T16:39:00Z</time>
      </trkpt>
      <trkpt lat="42.3496550" lon="1.7970940">
        <ele>1079.6</ele>
        <time>2015-08-12T16:39:01Z</time>
      </trkpt>
      <trkpt lat="42.3496650" lon="1.7970150">
        <ele>1080.0</ele>
        <time>2015-08-12T16:39:02Z</time>
      </trkpt>
      <trkpt lat="42.3497140" lon="1.7969230">
        <ele>1080.2</ele>
        <time>2015-08-12T16:39:03Z</time>
      </trkpt>
      <trkpt lat="42.3497610" lon="1.7968720">
        <ele>1080.2</ele>
        <time>2015-08-12T16:39:04Z</time>
      </trkpt>
      <trkpt lat="42.3498270" lon="1.7968300">
        <ele>1079.9</ele>
        <time>2015-08-12T16:39:05Z</time>
      </trkpt>
      <trkpt lat="42.3498860" lon="1.7967550">
        <ele>1079.8</ele>
        <time>2015-08-12T16:39:06Z</time>
      </trkpt>
      <trkpt lat="42.3499240" lon="1.7966900">
        <ele>1079.8</ele>
        <time>2015-08-12T16:39:07Z</time>
      </trkpt>
      <trkpt lat="42.3499840" lon="1.7966340">
        <ele>1079.5</ele>
        <time>2015-08-12T16:39:08Z</time>
      </trkpt>
      <trkpt lat="42.3500450" lon="1.7965880">
        <ele>1079.1</ele>
        <time>2015-08-12T16:39:09Z</time>
      </trkpt>
      <trkpt lat="42.3500930" lon="1.7965390">
        <ele>1078.9</ele>
        <time>2015-08-12T16:39:10Z</time>
      </trkpt>
      <trkpt lat="42.3501430" lon="1.7965020">
        <ele>1078.5</ele>
        <time>2015-08-12T16:39:11Z</time>
      </trkpt>
      <trkpt lat="42.3502060" lon="1.7964670">
        <ele>1077.9</ele>
        <time>2015-08-12T16:39:12Z</time>
      </trkpt>
      <trkpt lat="42.3502520" lon="1.7964340">
        <ele>1077.5</ele>
        <time>2015-08-12T16:39:13Z</time>
      </trkpt>
      <trkpt lat="42.3502960" lon="1.7963770">
        <ele>1077.2</ele>
        <time>2015-08-12T16:39:14Z</time>
      </trkpt>
      <trkpt lat="42.3503320" lon="1.7963460">
        <ele>1076.8</ele>
        <time>2015-08-12T16:39:15Z</time>
      </trkpt>
      <trkpt lat="42.3503700" lon="1.7963090">
        <ele>1076.5</ele>
        <time>2015-08-12T16:39:16Z</time>
      </trkpt>
      <trkpt lat="42.3504060" lon="1.7962660">
        <ele>1076.1</ele>
        <time>2015-08-12T16:39:17Z</time>
      </trkpt>
      <trkpt lat="42.3504440" lon="1.7962200">
        <ele>1076.0</ele>
        <time>2015-08-12T16:39:18Z</time>
      </trkpt>
      <trkpt lat="42.3504960" lon="1.7961940">
        <ele>1075.8</ele>
        <time>2015-08-12T16:39:19Z</time>
      </trkpt>
      <trkpt lat="42.3505270" lon="1.7961340">
        <ele>1075.9</ele>
        <time>2015-08-12T16:39:20Z</time>
      </trkpt>
      <trkpt lat="42.3505500" lon="1.7960980">
        <ele>1076.0</ele>
        <time>2015-08-12T16:39:21Z</time>
      </trkpt>
      <trkpt lat="42.3505670" lon="1.7960300">
        <ele>1076.3</ele>
        <time>2015-08-12T16:39:22Z</time>
      </trkpt>
      <trkpt lat="42.3505850" lon="1.7959840">
        <ele>1076.4</ele>
        <time>2015-08-12T16:39:23Z</time>
      </trkpt>
      <trkpt lat="42.3506140" lon="1.7959260">
        <ele>1076.5</ele>
        <time>2015-08-12T16:39:24Z</time>
      </trkpt>
      <trkpt lat="42.3506230" lon="1.7958230">
        <ele>1077.0</ele>
        <time>2015-08-12T16:39:25Z</time>
      </trkpt>
      <trkpt lat="42.3506470" lon="1.7957600">
        <ele>1077.1</ele>
        <time>2015-08-12T16:39:26Z</time>
      </trkpt>
      <trkpt lat="42.3506760" lon="1.7956840">
        <ele>1077.2</ele>
        <time>2015-08-12T16:39:27Z</time>
      </trkpt>
      <trkpt lat="42.3507070" lon="1.7956130">
        <ele>1077.2</ele>
        <time>2015-08-12T16:39:28Z</time>
      </trkpt>
      <trkpt lat="42.3507260" lon="1.7955470">
        <ele>1077.3</ele>
        <time>2015-08-12T16:39:29Z</time>
      </trkpt>
      <trkpt lat="42.3507630" lon="1.7954870">
        <ele>1077.1</ele>
        <time>2015-08-12T16:39:30Z</time>
      </trkpt>
      <trkpt lat="42.3507760" lon="1.7954310">
        <ele>1077.2</ele>
        <time>2015-08-12T16:39:31Z</time>
      </trkpt>
      <trkpt lat="42.3507920" lon="1.7953830">
        <ele>1077.4</ele>
        <time>2015-08-12T16:39:32Z</time>
      </trkpt>
      <trkpt lat="42.3507970" lon="1.7953190">
        <ele>1077.9</ele>
        <time>2015-08-12T16:39:33Z</time>
      </trkpt>
      <trkpt lat="42.3507930" lon="1.7952520">
        <ele>1078.6</ele>
        <time>2015-08-12T16:39:34Z</time>
      </trkpt>
      <trkpt lat="42.3507860" lon="1.7952040">
        <ele>1079.2</ele>
        <time>2015-08-12T16:39:35Z</time>
      </trkpt>
      <trkpt lat="42.3507810" lon="1.7951450">
        <ele>1079.8</ele>
        <time>2015-08-12T16:39:36Z</time>
      </trkpt>
      <trkpt lat="42.3507830" lon="1.7950920">
        <ele>1080.3</ele>
        <time>2015-08-12T16:39:37Z</time>
      </trkpt>
      <trkpt lat="42.3507820" lon="1.7950490">
        <ele>1080.8</ele>
        <time>2015-08-12T16:39:38Z</time>
      </trkpt>
      <trkpt lat="42.3508060" lon="1.7949820">
        <ele>1081.1</ele>
        <time>2015-08-12T16:39:40Z</time>
      </trkpt>
      <trkpt lat="42.3508030" lon="1.7949190">
        <ele>1081.7</ele>
        <time>2015-08-12T16:39:42Z</time>
      </trkpt>
      <trkpt lat="42.3508270" lon="1.7948890">
        <ele>1081.7</ele>
        <time>2015-08-12T16:39:43Z</time>
      </trkpt>
      <trkpt lat="42.3508490" lon="1.7948500">
        <ele>1081.7</ele>
        <time>2015-08-12T16:39:45Z</time>
      </trkpt>
      <trkpt lat="42.3508890" lon="1.7948150">
        <ele>1081.4</ele>
        <time>2015-08-12T16:39:48Z</time>
      </trkpt>
      <trkpt lat="42.3508770" lon="1.7947670">
        <ele>1082.1</ele>
        <time>2015-08-12T16:39:51Z</time>
      </trkpt>
      <trkpt lat="42.3508970" lon="1.7947130">
        <ele>1082.3</ele>
        <time>2015-08-12T16:39:53Z</time>
      </trkpt>
      <trkpt lat="42.3509150" lon="1.7946730">
        <ele>1082.4</ele>
        <time>2015-08-12T16:39:55Z</time>
      </trkpt>
      <trkpt lat="42.3509250" lon="1.7946300">
        <ele>1082.6</ele>
        <time>2015-08-12T16:39:58Z</time>
      </trkpt>
      <trkpt lat="42.3509300" lon="1.7945730">
        <ele>1083.1</ele>
        <time>2015-08-12T16:40:00Z</time>
      </trkpt>
      <trkpt lat="42.3509320" lon="1.7945060">
        <ele>1083.9</ele>
        <time>2015-08-12T16:40:02Z</time>
      </trkpt>
      <trkpt lat="42.3509520" lon="1.7944780">
        <ele>1083.9</ele>
        <time>2015-08-12T16:40:04Z</time>
      </trkpt>
      <trkpt lat="42.3509620" lon="1.7944290">
        <ele>1084.4</ele>
        <time>2015-08-12T16:40:08Z</time>
      </trkpt>
      <trkpt lat="42.3509780" lon="1.7943890">
        <ele>1084.7</ele>
        <time>2015-08-12T16:40:10Z</time>
      </trkpt>
      <trkpt lat="42.3510020" lon="1.7943400">
        <ele>1084.9</ele>
        <time>2015-08-12T16:40:14Z</time>
      </trkpt>
      <trkpt lat="42.3510170" lon="1.7943090">
        <ele>1085.1</ele>
        <time>2015-08-12T16:40:16Z</time>
      </trkpt>
      <trkpt lat="42.3510260" lon="1.7942640">
        <ele>1085.5</ele>
        <time>2015-08-12T16:40:19Z</time>
      </trkpt>
      <trkpt lat="42.3510220" lon="1.7941980">
        <ele>1086.4</ele>
        <time>2015-08-12T16:40:21Z</time>
      </trkpt>
      <trkpt lat="42.3510440" lon="1.7941630">
        <ele>1086.5</ele>
        <time>2015-08-12T16:40:23Z</time>
      </trkpt>
      <trkpt lat="42.3510820" lon="1.7941710">
        <ele>1085.9</ele>
        <time>2015-08-12T16:40:25Z</time>
      </trkpt>
      <trkpt lat="42.3511180" lon="1.7941780">
        <ele>1085.3</ele>
        <time>2015-08-12T16:40:27Z</time>
      </trkpt>
      <trkpt lat="42.3511410" lon="1.7941500">
        <ele>1085.3</ele>
        <time>2015-08-12T16:40:30Z</time>
      </trkpt>
      <trkpt lat="42.3511700" lon="1.7941230">
        <ele>1085.2</ele>
        <time>2015-08-12T16:40:32Z</time>
      </trkpt>
      <trkpt lat="42.3512000" lon="1.7941140">
        <ele>1084.9</ele>
        <time>2015-08-12T16:40:34Z</time>
      </trkpt>
      <trkpt lat="42.3512220" lon="1.7940880">
        <ele>1084.9</ele>
        <time>2015-08-12T16:40:35Z</time>
      </trkpt>
      <trkpt lat="42.3512420" lon="1.7940630">
        <ele>1085.0</ele>
        <time>2015-08-12T16:40:36Z</time>
      </trkpt>
      <trkpt lat="42.3512600" lon="1.7940310">
        <ele>1085.2</ele>
        <time>2015-08-12T16:40:37Z</time>
      </trkpt>
      <trkpt lat="42.3512810" lon="1.7940030">
        <ele>1085.4</ele>
        <time>2015-08-12T16:40:38Z</time>
      </trkpt>
      <trkpt lat="42.3513030" lon="1.7939750">
        <ele>1085.5</ele>
        <time>2015-08-12T16:40:40Z</time>
      </trkpt>
      <trkpt lat="42.3513280" lon="1.7939450">
        <ele>1085.6</ele>
        <time>2015-08-12T16:40:41Z</time>
      </trkpt>
      <trkpt lat="42.3513470" lon="1.7938940">
        <ele>1086.1</ele>
        <time>2015-08-12T16:40:42Z</time>
      </trkpt>
      <trkpt lat="42.3513700" lon="1.7938740">
        <ele>1086.1</ele>
        <time>2015-08-12T16:40:43Z</time>
      </trkpt>
      <trkpt lat="42.3513940" lon="1.7938340">
        <ele>1086.3</ele>
        <time>2015-08-12T16:40:44Z</time>
      </trkpt>
      <trkpt lat="42.3514310" lon="1.7937970">
        <ele>1086.3</ele>
        <time>2015-08-12T16:40:46Z</time>
      </trkpt>
      <trkpt lat="42.3514630" lon="1.7937760">
        <ele>1086.1</ele>
        <time>2015-08-12T16:40:47Z</time>
      </trkpt>
      <trkpt lat="42.3514920" lon="1.7937580">
        <ele>1086.0</ele>
        <time>2015-08-12T16:40:49Z</time>
      </trkpt>
      <trkpt lat="42.3515030" lon="1.7937150">
        <ele>1086.3</ele>
        <time>2015-08-12T16:40:51Z</time>
      </trkpt>
      <trkpt lat="42.3515160" lon="1.7936770">
        <ele>1086.6</ele>
        <time>2015-08-12T16:40:53Z</time>
      </trkpt>
      <trkpt lat="42.3515680" lon="1.7936360">
        <ele>1086.4</ele>
        <time>2015-08-12T16:40:55Z</time>
      </trkpt>
      <trkpt lat="42.3515960" lon="1.7936210">
        <ele>1086.2</ele>
        <time>2015-08-12T16:40:56Z</time>
      </trkpt>
      <trkpt lat="42.3516320" lon="1.7935780">
        <ele>1086.3</ele>
        <time>2015-08-12T16:40:58Z</time>
      </trkpt>
      <trkpt lat="42.3516580" lon="1.7935630">
        <ele>1086.1</ele>
        <time>2015-08-12T16:40:59Z</time>
      </trkpt>
      <trkpt lat="42.3516850" lon="1.7935310">
        <ele>1086.1</ele>
        <time>2015-08-12T16:41:00Z</time>
      </trkpt>
      <trkpt lat="42.3516990" lon="1.7934880">
        <ele>1086.4</ele>
        <time>2015-08-12T16:41:01Z</time>
      </trkpt>
      <trkpt lat="42.3517000" lon="1.7934410">
        <ele>1086.9</ele>
        <time>2015-08-12T16:41:03Z</time>
      </trkpt>
      <trkpt lat="42.3517130" lon="1.7933770">
        <ele>1087.5</ele>
        <time>2015-08-12T16:41:05Z</time>
      </trkpt>
      <trkpt lat="42.3517420" lon="1.7933480">
        <ele>1087.4</ele>
        <time>2015-08-12T16:41:06Z</time>
      </trkpt>
      <trkpt lat="42.3517690" lon="1.7933070">
        <ele>1087.6</ele>
        <time>2015-08-12T16:41:07Z</time>
      </trkpt>
      <trkpt lat="42.3518000" lon="1.7932740">
        <ele>1087.5</ele>
        <time>2015-08-12T16:41:08Z</time>
      </trkpt>
      <trkpt lat="42.3518350" lon="1.7932380">
        <ele>1087.5</ele>
        <time>2015-08-12T16:41:09Z</time>
      </trkpt>
      <trkpt lat="42.3518680" lon="1.7932290">
        <ele>1087.2</ele>
        <time>2015-08-12T16:41:10Z</time>
      </trkpt>
      <trkpt lat="42.3519090" lon="1.7931310">
        <ele>1087.8</ele>
        <time>2015-08-12T16:41:11Z</time>
      </trkpt>
      <trkpt lat="42.3519330" lon="1.7930640">
        <ele>1088.2</ele>
        <time>2015-08-12T16:41:12Z</time>
      </trkpt>
      <trkpt lat="42.3519520" lon="1.7930030">
        <ele>1088.6</ele>
        <time>2015-08-12T16:41:13Z</time>
      </trkpt>
      <trkpt lat="42.3519970" lon="1.7929430">
        <ele>1088.8</ele>
        <time>2015-08-12T16:41:14Z</time>
      </trkpt>
      <trkpt lat="42.3520460" lon="1.7929170">
        <ele>1088.4</ele>
        <time>2015-08-12T16:41:15Z</time>
      </trkpt>
      <trkpt lat="42.3520840" lon="1.7928750">
        <ele>1088.2</ele>
        <time>2015-08-12T16:41:16Z</time>
      </trkpt>
      <trkpt lat="42.3521150" lon="1.7928390">
        <ele>1087.9</ele>
        <time>2015-08-12T16:41:17Z</time>
      </trkpt>
      <trkpt lat="42.3521490" lon="1.7928220">
        <ele>1087.4</ele>
        <time>2015-08-12T16:41:18Z</time>
      </trkpt>
      <trkpt lat="42.3522270" lon="1.7928450">
        <ele>1086.0</ele>
        <time>2015-08-12T16:41:19Z</time>
      </trkpt>
      <trkpt lat="42.3522720" lon="1.7928410">
        <ele>1085.2</ele>
        <time>2015-08-12T16:41:20Z</time>
      </trkpt>
      <trkpt lat="42.3523010" lon="1.7928050">
        <ele>1084.9</ele>
        <time>2015-08-12T16:41:21Z</time>
      </trkpt>
      <trkpt lat="42.3523490" lon="1.7927750">
        <ele>1084.2</ele>
        <time>2015-08-12T16:41:22Z</time>
      </trkpt>
      <trkpt lat="42.3523890" lon="1.7927610">
        <ele>1083.6</ele>
        <time>2015-08-12T16:41:23Z</time>
      </trkpt>
      <trkpt lat="42.3524160" lon="1.7927120">
        <ele>1083.3</ele>
        <time>2015-08-12T16:41:25Z</time>
      </trkpt>
      <trkpt lat="42.3524530" lon="1.7926760">
        <ele>1082.8</ele>
        <time>2015-08-12T16:41:26Z</time>
      </trkpt>
      <trkpt lat="42.3524830" lon="1.7926510">
        <ele>1082.4</ele>
        <time>2015-08-12T16:41:27Z</time>
      </trkpt>
      <trkpt lat="42.3525070" lon="1.7926280">
        <ele>1082.1</ele>
        <time>2015-08-12T16:41:28Z</time>
      </trkpt>
      <trkpt lat="42.3525480" lon="1.7925840">
        <ele>1081.5</ele>
        <time>2015-08-12T16:41:30Z</time>
      </trkpt>
      <trkpt lat="42.3525840" lon="1.7925570">
        <ele>1081.0</ele>
        <time>2015-08-12T16:41:31Z</time>
      </trkpt>
      <trkpt lat="42.3526140" lon="1.7925310">
        <ele>1080.5</ele>
        <time>2015-08-12T16:41:32Z</time>
      </trkpt>
      <trkpt lat="42.3526480" lon="1.7925160">
        <ele>1079.9</ele>
        <time>2015-08-12T16:41:33Z</time>
      </trkpt>
      <trkpt lat="42.3526780" lon="1.7925000">
        <ele>1079.4</ele>
        <time>2015-08-12T16:41:34Z</time>
      </trkpt>
      <trkpt lat="42.3526890" lon="1.7924410">
        <ele>1079.4</ele>
        <time>2015-08-12T16:41:36Z</time>
      </trkpt>
      <trkpt lat="42.3527270" lon="1.7923990">
        <ele>1078.9</ele>
        <time>2015-08-12T16:41:37Z</time>
      </trkpt>
      <trkpt lat="42.3527230" lon="1.7923600">
        <ele>1079.1</ele>
        <time>2015-08-12T16:41:38Z</time>
      </trkpt>
      <trkpt lat="42.3527570" lon="1.7923800">
        <ele>1078.3</ele>
        <time>2015-08-12T16:41:39Z</time>
      </trkpt>
      <trkpt lat="42.3527890" lon="1.7923620">
        <ele>1077.8</ele>
        <time>2015-08-12T16:41:40Z</time>
      </trkpt>
      <trkpt lat="42.3528350" lon="1.7923300">
        <ele>1077.0</ele>
        <time>2015-08-12T16:41:42Z</time>
      </trkpt>
      <trkpt lat="42.3528630" lon="1.7923020">
        <ele>1076.5</ele>
        <time>2015-08-12T16:41:43Z</time>
      </trkpt>
      <trkpt lat="42.3528880" lon="1.7922550">
        <ele>1076.2</ele>
        <time>2015-08-12T16:41:46Z</time>
      </trkpt>
      <trkpt lat="42.3529050" lon="1.7922190">
        <ele>1075.9</ele>
        <time>2015-08-12T16:41:48Z</time>
      </trkpt>
      <trkpt lat="42.3528970" lon="1.7921740">
        <ele>1076.2</ele>
        <time>2015-08-12T16:41:50Z</time>
      </trkpt>
      <trkpt lat="42.3529010" lon="1.7921340">
        <ele>1076.2</ele>
        <time>2015-08-12T16:41:53Z</time>
      </trkpt>
      <trkpt lat="42.3529030" lon="1.7920930">
        <ele>1076.3</ele>
        <time>2015-08-12T16:41:57Z</time>
      </trkpt>
      <trkpt lat="42.3528940" lon="1.7920410">
        <ele>1076.6</ele>
        <time>2015-08-12T16:41:59Z</time>
      </trkpt>
      <trkpt lat="42.3528740" lon="1.7919930">
        <ele>1077.2</ele>
        <time>2015-08-12T16:42:01Z</time>
      </trkpt>
      <trkpt lat="42.3528690" lon="1.7919550">
        <ele>1077.4</ele>
        <time>2015-08-12T16:42:02Z</time>
      </trkpt>
      <trkpt lat="42.3528600" lon="1.7919080">
        <ele>1077.8</ele>
        <time>2015-08-12T16:42:03Z</time>
      </trkpt>
      <trkpt lat="42.3528580" lon="1.7918630">
        <ele>1078.0</ele>
        <time>2015-08-12T16:42:07Z</time>
      </trkpt>
      <trkpt lat="42.3528540" lon="1.7918050">
        <ele>1078.2</ele>
        <time>2015-08-12T16:42:09Z</time>
      </trkpt>
      <trkpt lat="42.3528470" lon="1.7917470">
        <ele>1078.6</ele>
        <time>2015-08-12T16:42:12Z</time>
      </trkpt>
      <trkpt lat="42.3528580" lon="1.7917040">
        <ele>1078.5</ele>
        <time>2015-08-12T16:42:15Z</time>
      </trkpt>
      <trkpt lat="42.3528630" lon="1.7916450">
        <ele>1078.6</ele>
        <time>2015-08-12T16:42:18Z</time>
      </trkpt>
      <trkpt lat="42.3528760" lon="1.7916060">
        <ele>1078.5</ele>
        <time>2015-08-12T16:42:20Z</time>
      </trkpt>
      <trkpt lat="42.3528960" lon="1.7915580">
        <ele>1078.3</ele>
        <time>2015-08-12T16:42:22Z</time>
      </trkpt>
      <trkpt lat="42.3529180" lon="1.7915060">
        <ele>1078.1</ele>
        <time>2015-08-12T16:42:24Z</time>
      </trkpt>
      <trkpt lat="42.3529480" lon="1.7914820">
        <ele>1078.1</ele>
        <time>2015-08-12T16:42:26Z</time>
      </trkpt>
      <trkpt lat="42.3529790" lon="1.7914210">
        <ele>1078.3</ele>
        <time>2015-08-12T16:42:28Z</time>
      </trkpt>
      <trkpt lat="42.3530090" lon="1.7913630">
        <ele>1078.4</ele>
        <time>2015-08-12T16:42:31Z</time>
      </trkpt>
      <trkpt lat="42.3530100" lon="1.7913240">
        <ele>1078.6</ele>
        <time>2015-08-12T16:42:33Z</time>
      </trkpt>
      <trkpt lat="42.3530230" lon="1.7912660">
        <ele>1078.8</ele>
        <time>2015-08-12T16:42:35Z</time>
      </trkpt>
      <trkpt lat="42.3530270" lon="1.7912150">
        <ele>1079.2</ele>
        <time>2015-08-12T16:42:37Z</time>
      </trkpt>
      <trkpt lat="42.3530190" lon="1.7911670">
        <ele>1079.6</ele>
        <time>2015-08-12T16:42:38Z</time>
      </trkpt>
      <trkpt lat="42.3530150" lon="1.7911100">
        <ele>1080.1</ele>
        <time>2015-08-12T16:42:39Z</time>
      </trkpt>
      <trkpt lat="42.3530220" lon="1.7910570">
        <ele>1080.6</ele>
        <time>2015-08-12T16:42:41Z</time>
      </trkpt>
      <trkpt lat="42.3530340" lon="1.7910020">
        <ele>1081.0</ele>
        <time>2015-08-12T16:42:43Z</time>
      </trkpt>
      <trkpt lat="42.3530330" lon="1.7909310">
        <ele>1081.6</ele>
        <time>2015-08-12T16:42:45Z</time>
      </trkpt>
      <trkpt lat="42.3530400" lon="1.7908640">
        <ele>1082.2</ele>
        <time>2015-08-12T16:42:47Z</time>
      </trkpt>
      <trkpt lat="42.3530400" lon="1.7908260">
        <ele>1082.6</ele>
        <time>2015-08-12T16:42:48Z</time>
      </trkpt>
      <trkpt lat="42.3530510" lon="1.7907740">
        <ele>1083.0</ele>
        <time>2015-08-12T16:42:50Z</time>
      </trkpt>
      <trkpt lat="42.3530680" lon="1.7907280">
        <ele>1083.4</ele>
        <time>2015-08-12T16:42:52Z</time>
      </trkpt>
      <trkpt lat="42.3530800" lon="1.7906750">
        <ele>1083.9</ele>
        <time>2015-08-12T16:42:54Z</time>
      </trkpt>
      <trkpt lat="42.3530930" lon="1.7906350">
        <ele>1084.3</ele>
        <time>2015-08-12T16:42:56Z</time>
      </trkpt>
      <trkpt lat="42.3530930" lon="1.7905850">
        <ele>1084.7</ele>
        <time>2015-08-12T16:42:58Z</time>
      </trkpt>
      <trkpt lat="42.3530820" lon="1.7905310">
        <ele>1085.2</ele>
        <time>2015-08-12T16:43:00Z</time>
      </trkpt>
      <trkpt lat="42.3530820" lon="1.7904890">
        <ele>1085.6</ele>
        <time>2015-08-12T16:43:02Z</time>
      </trkpt>
      <trkpt lat="42.3530850" lon="1.7904500">
        <ele>1085.9</ele>
        <time>2015-08-12T16:43:04Z</time>
      </trkpt>
      <trkpt lat="42.3530940" lon="1.7903920">
        <ele>1086.4</ele>
        <time>2015-08-12T16:43:06Z</time>
      </trkpt>
      <trkpt lat="42.3531020" lon="1.7903560">
        <ele>1086.7</ele>
        <time>2015-08-12T16:43:08Z</time>
      </trkpt>
      <trkpt lat="42.3531160" lon="1.7903180">
        <ele>1087.0</ele>
        <time>2015-08-12T16:43:10Z</time>
      </trkpt>
      <trkpt lat="42.3531160" lon="1.7902630">
        <ele>1087.4</ele>
        <time>2015-08-12T16:43:12Z</time>
      </trkpt>
      <trkpt lat="42.3531200" lon="1.7902060">
        <ele>1087.8</ele>
        <time>2015-08-12T16:43:14Z</time>
      </trkpt>
      <trkpt lat="42.3531280" lon="1.7901600">
        <ele>1088.1</ele>
        <time>2015-08-12T16:43:16Z</time>
      </trkpt>
      <trkpt lat="42.3531280" lon="1.7901000">
        <ele>1088.5</ele>
        <time>2015-08-12T16:43:20Z</time>
      </trkpt>
      <trkpt lat="42.3531460" lon="1.7900600">
        <ele>1088.8</ele>
        <time>2015-08-12T16:43:22Z</time>
      </trkpt>
      <trkpt lat="42.3531560" lon="1.7900090">
        <ele>1089.1</ele>
        <time>2015-08-12T16:43:24Z</time>
      </trkpt>
      <trkpt lat="42.3531610" lon="1.7899470">
        <ele>1089.6</ele>
        <time>2015-08-12T16:43:26Z</time>
      </trkpt>
      <trkpt lat="42.3531710" lon="1.7898880">
        <ele>1090.0</ele>
        <time>2015-08-12T16:43:29Z</time>
      </trkpt>
      <trkpt lat="42.3531730" lon="1.7898250">
        <ele>1090.4</ele>
        <time>2015-08-12T16:43:31Z</time>
      </trkpt>
      <trkpt lat="42.3531780" lon="1.7897750">
        <ele>1090.7</ele>
        <time>2015-08-12T16:43:33Z</time>
      </trkpt>
      <trkpt lat="42.3531870" lon="1.7897250">
        <ele>1091.1</ele>
        <time>2015-08-12T16:43:35Z</time>
      </trkpt>
      <trkpt lat="42.3531970" lon="1.7896680">
        <ele>1091.4</ele>
        <time>2015-08-12T16:43:37Z</time>
      </trkpt>
      <trkpt lat="42.3531980" lon="1.7896160">
        <ele>1091.8</ele>
        <time>2015-08-12T16:43:39Z</time>
      </trkpt>
      <trkpt lat="42.3532000" lon="1.7895630">
        <ele>1092.0</ele>
        <time>2015-08-12T16:43:41Z</time>
      </trkpt>
      <trkpt lat="42.3532080" lon="1.7895150">
        <ele>1092.0</ele>
        <time>2015-08-12T16:43:43Z</time>
      </trkpt>
      <trkpt lat="42.3532040" lon="1.7894760">
        <ele>1092.0</ele>
        <time>2015-08-12T16:43:44Z</time>
      </trkpt>
      <trkpt lat="42.3532130" lon="1.7894170">
        <ele>1092.0</ele>
        <time>2015-08-12T16:43:46Z</time>
      </trkpt>
      <trkpt lat="42.3532100" lon="1.7893740">
        <ele>1092.0</ele>
        <time>2015-08-12T16:43:48Z</time>
      </trkpt>
      <trkpt lat="42.3532200" lon="1.7893160">
        <ele>1092.0</ele>
        <time>2015-08-12T16:43:51Z</time>
      </trkpt>
      <trkpt lat="42.3532290" lon="1.7892570">
        <ele>1091.9</ele>
        <time>2015-08-12T16:43:53Z</time>
      </trkpt>
      <trkpt lat="42.3532380" lon="1.7892140">
        <ele>1091.9</ele>
        <time>2015-08-12T16:43:55Z</time>
      </trkpt>
      <trkpt lat="42.3532450" lon="1.7891660">
        <ele>1091.8</ele>
        <time>2015-08-12T16:43:57Z</time>
      </trkpt>
      <trkpt lat="42.3532540" lon="1.7891170">
        <ele>1091.8</ele>
        <time>2015-08-12T16:43:59Z</time>
      </trkpt>
      <trkpt lat="42.3532590" lon="1.7890700">
        <ele>1091.7</ele>
        <time>2015-08-12T16:44:01Z</time>
      </trkpt>
      <trkpt lat="42.3532610" lon="1.7890320">
        <ele>1091.7</ele>
        <time>2015-08-12T16:44:03Z</time>
      </trkpt>
      <trkpt lat="42.3532660" lon="1.7889950">
        <ele>1091.7</ele>
        <time>2015-08-12T16:44:05Z</time>
      </trkpt>
      <trkpt lat="42.3532480" lon="1.7889670">
        <ele>1091.8</ele>
        <time>2015-08-12T16:44:06Z</time>
      </trkpt>
      <trkpt lat="42.3532730" lon="1.7889280">
        <ele>1091.6</ele>
        <time>2015-08-12T16:44:09Z</time>
      </trkpt>
      <trkpt lat="42.3532890" lon="1.7888960">
        <ele>1091.5</ele>
        <time>2015-08-12T16:44:11Z</time>
      </trkpt>
      <trkpt lat="42.3532840" lon="1.7888430">
        <ele>1091.5</ele>
        <time>2015-08-12T16:44:13Z</time>
      </trkpt>
      <trkpt lat="42.3532990" lon="1.7887970">
        <ele>1091.3</ele>
        <time>2015-08-12T16:44:16Z</time>
      </trkpt>
      <trkpt lat="42.3532940" lon="1.7887340">
        <ele>1091.3</ele>
        <time>2015-08-12T16:44:18Z</time>
      </trkpt>
      <trkpt lat="42.3532790" lon="1.7886760">
        <ele>1091.2</ele>
        <time>2015-08-12T16:44:20Z</time>
      </trkpt>
      <trkpt lat="42.3532890" lon="1.7886120">
        <ele>1090.9</ele>
        <time>2015-08-12T16:44:22Z</time>
      </trkpt>
      <trkpt lat="42.3532900" lon="1.7885850">
        <ele>1090.8</ele>
        <time>2015-08-12T16:44:25Z</time>
      </trkpt>
      <trkpt lat="42.3532900" lon="1.7885570">
        <ele>1090.6</ele>
        <time>2015-08-12T16:44:28Z</time>
      </trkpt>
      <trkpt lat="42.3532910" lon="1.7885290">
        <ele>1090.5</ele>
        <time>2015-08-12T16:44:29Z</time>
      </trkpt>
      <trkpt lat="42.3532720" lon="1.7884690">
        <ele>1090.5</ele>
        <time>2015-08-12T16:44:31Z</time>
      </trkpt>
      <trkpt lat="42.3532130" lon="1.7884200">
        <ele>1090.9</ele>
        <time>2015-08-12T16:44:32Z</time>
      </trkpt>
      <trkpt lat="42.3531830" lon="1.7884050">
        <ele>1091.2</ele>
        <time>2015-08-12T16:44:33Z</time>
      </trkpt>
      <trkpt lat="42.3531810" lon="1.7883410">
        <ele>1091.0</ele>
        <time>2015-08-12T16:44:34Z</time>
      </trkpt>
      <trkpt lat="42.3531630" lon="1.7883000">
        <ele>1091.1</ele>
        <time>2015-08-12T16:44:35Z</time>
      </trkpt>
      <trkpt lat="42.3531400" lon="1.7882590">
        <ele>1091.2</ele>
        <time>2015-08-12T16:44:36Z</time>
      </trkpt>
      <trkpt lat="42.3531170" lon="1.7882140">
        <ele>1091.3</ele>
        <time>2015-08-12T16:44:37Z</time>
      </trkpt>
      <trkpt lat="42.3531160" lon="1.7881470">
        <ele>1091.1</ele>
        <time>2015-08-12T16:44:38Z</time>
      </trkpt>
      <trkpt lat="42.3530720" lon="1.7880790">
        <ele>1091.4</ele>
        <time>2015-08-12T16:44:39Z</time>
      </trkpt>
      <trkpt lat="42.3530370" lon="1.7880000">
        <ele>1091.7</ele>
        <time>2015-08-12T16:44:40Z</time>
      </trkpt>
      <trkpt lat="42.3529990" lon="1.7879390">
        <ele>1092.0</ele>
        <time>2015-08-12T16:44:41Z</time>
      </trkpt>
      <trkpt lat="42.3529710" lon="1.7878720">
        <ele>1091.7</ele>
        <time>2015-08-12T16:44:42Z</time>
      </trkpt>
      <trkpt lat="42.3529400" lon="1.7878250">
        <ele>1091.5</ele>
        <time>2015-08-12T16:44:43Z</time>
      </trkpt>
      <trkpt lat="42.3529080" lon="1.7877590">
        <ele>1091.0</ele>
        <time>2015-08-12T16:44:44Z</time>
      </trkpt>
      <trkpt lat="42.3528770" lon="1.7876910">
        <ele>1090.6</ele>
        <time>2015-08-12T16:44:45Z</time>
      </trkpt>
      <trkpt lat="42.3528410" lon="1.7876330">
        <ele>1090.4</ele>
        <time>2015-08-12T16:44:46Z</time>
      </trkpt>
      <trkpt lat="42.3528150" lon="1.7875910">
        <ele>1090.2</ele>
        <time>2015-08-12T16:44:47Z</time>
      </trkpt>
      <trkpt lat="42.3527610" lon="1.7875100">
        <ele>1090.0</ele>
        <time>2015-08-12T16:44:48Z</time>
      </trkpt>
      <trkpt lat="42.3527520" lon="1.7874310">
        <ele>1089.1</ele>
        <time>2015-08-12T16:44:49Z</time>
      </trkpt>
      <trkpt lat="42.3527470" lon="1.7873490">
        <ele>1088.1</ele>
        <time>2015-08-12T16:44:50Z</time>
      </trkpt>
      <trkpt lat="42.3527290" lon="1.7872680">
        <ele>1087.3</ele>
        <time>2015-08-12T16:44:51Z</time>
      </trkpt>
      <trkpt lat="42.3527320" lon="1.7871830">
        <ele>1086.2</ele>
        <time>2015-08-12T16:44:52Z</time>
      </trkpt>
      <trkpt lat="42.3527410" lon="1.7871050">
        <ele>1085.0</ele>
        <time>2015-08-12T16:44:53Z</time>
      </trkpt>
      <trkpt lat="42.3527500" lon="1.7870290">
        <ele>1084.5</ele>
        <time>2015-08-12T16:44:54Z</time>
      </trkpt>
      <trkpt lat="42.3527640" lon="1.7869400">
        <ele>1084.1</ele>
        <time>2015-08-12T16:44:55Z</time>
      </trkpt>
      <trkpt lat="42.3527750" lon="1.7868520">
        <ele>1083.7</ele>
        <time>2015-08-12T16:44:56Z</time>
      </trkpt>
      <trkpt lat="42.3527850" lon="1.7867410">
        <ele>1083.4</ele>
        <time>2015-08-12T16:44:57Z</time>
      </trkpt>
      <trkpt lat="42.3528000" lon="1.7866560">
        <ele>1083.0</ele>
        <time>2015-08-12T16:44:58Z</time>
      </trkpt>
      <trkpt lat="42.3528040" lon="1.7865760">
        <ele>1082.8</ele>
        <time>2015-08-12T16:44:59Z</time>
      </trkpt>
      <trkpt lat="42.3528180" lon="1.7864870">
        <ele>1082.5</ele>
        <time>2015-08-12T16:45:00Z</time>
      </trkpt>
      <trkpt lat="42.3528400" lon="1.7864100">
        <ele>1082.1</ele>
        <time>2015-08-12T16:45:01Z</time>
      </trkpt>
      <trkpt lat="42.3528530" lon="1.7863360">
        <ele>1081.8</ele>
        <time>2015-08-12T16:45:02Z</time>
      </trkpt>
      <trkpt lat="42.3528700" lon="1.7862620">
        <ele>1081.5</ele>
        <time>2015-08-12T16:45:03Z</time>
      </trkpt>
      <trkpt lat="42.3528810" lon="1.7861530">
        <ele>1081.1</ele>
        <time>2015-08-12T16:45:04Z</time>
      </trkpt>
      <trkpt lat="42.3528820" lon="1.7860450">
        <ele>1080.9</ele>
        <time>2015-08-12T16:45:05Z</time>
      </trkpt>
      <trkpt lat="42.3528950" lon="1.7859940">
        <ele>1080.6</ele>
        <time>2015-08-12T16:45:06Z</time>
      </trkpt>
      <trkpt lat="42.3529040" lon="1.7859180">
        <ele>1080.3</ele>
        <time>2015-08-12T16:45:07Z</time>
      </trkpt>
      <trkpt lat="42.3529220" lon="1.7858450">
        <ele>1080.0</ele>
        <time>2015-08-12T16:45:08Z</time>
      </trkpt>
      <trkpt lat="42.3529350" lon="1.7857760">
        <ele>1079.8</ele>
        <time>2015-08-12T16:45:09Z</time>
      </trkpt>
      <trkpt lat="42.3529480" lon="1.7856880">
        <ele>1079.5</ele>
        <time>2015-08-12T16:45:10Z</time>
      </trkpt>
      <trkpt lat="42.3529500" lon="1.7856160">
        <ele>1079.4</ele>
        <time>2015-08-12T16:45:11Z</time>
      </trkpt>
      <trkpt lat="42.3529570" lon="1.7855400">
        <ele>1079.2</ele>
        <time>2015-08-12T16:45:12Z</time>
      </trkpt>
      <trkpt lat="42.3529620" lon="1.7854780">
        <ele>1079.0</ele>
        <time>2015-08-12T16:45:13Z</time>
      </trkpt>
      <trkpt lat="42.3529630" lon="1.7854320">
        <ele>1078.9</ele>
        <time>2015-08-12T16:45:14Z</time>
      </trkpt>
      <trkpt lat="42.3529690" lon="1.7853660">
        <ele>1078.9</ele>
        <time>2015-08-12T16:45:15Z</time>
      </trkpt>
      <trkpt lat="42.3529620" lon="1.7853130">
        <ele>1079.1</ele>
        <time>2015-08-12T16:45:16Z</time>
      </trkpt>
      <trkpt lat="42.3529670" lon="1.7852760">
        <ele>1079.2</ele>
        <time>2015-08-12T16:45:17Z</time>
      </trkpt>
      <trkpt lat="42.3529860" lon="1.7851940">
        <ele>1079.3</ele>
        <time>2015-08-12T16:45:18Z</time>
      </trkpt>
      <trkpt lat="42.3530100" lon="1.7851530">
        <ele>1079.3</ele>
        <time>2015-08-12T16:45:19Z</time>
      </trkpt>
      <trkpt lat="42.3529990" lon="1.7851100">
        <ele>1079.5</ele>
        <time>2015-08-12T16:45:20Z</time>
      </trkpt>
      <trkpt lat="42.3529920" lon="1.7850580">
        <ele>1079.6</ele>
        <time>2015-08-12T16:45:21Z</time>
      </trkpt>
      <trkpt lat="42.3530250" lon="1.7850020">
        <ele>1079.7</ele>
        <time>2015-08-12T16:45:23Z</time>
      </trkpt>
      <trkpt lat="42.3530330" lon="1.7849430">
        <ele>1079.8</ele>
        <time>2015-08-12T16:45:24Z</time>
      </trkpt>
      <trkpt lat="42.3530490" lon="1.7848560">
        <ele>1080.0</ele>
        <time>2015-08-12T16:45:26Z</time>
      </trkpt>
      <trkpt lat="42.3530530" lon="1.7848080">
        <ele>1080.1</ele>
        <time>2015-08-12T16:45:27Z</time>
      </trkpt>
      <trkpt lat="42.3530670" lon="1.7847680">
        <ele>1080.2</ele>
        <time>2015-08-12T16:45:28Z</time>
      </trkpt>
      <trkpt lat="42.3530820" lon="1.7847260">
        <ele>1080.2</ele>
        <time>2015-08-12T16:45:29Z</time>
      </trkpt>
      <trkpt lat="42.3530890" lon="1.7846760">
        <ele>1080.3</ele>
        <time>2015-08-12T16:45:30Z</time>
      </trkpt>
      <trkpt lat="42.3530970" lon="1.7846260">
        <ele>1080.5</ele>
        <time>2015-08-12T16:45:31Z</time>
      </trkpt>
      <trkpt lat="42.3531120" lon="1.7845940">
        <ele>1080.5</ele>
        <time>2015-08-12T16:45:32Z</time>
      </trkpt>
      <trkpt lat="42.3531160" lon="1.7845150">
        <ele>1080.8</ele>
        <time>2015-08-12T16:45:34Z</time>
      </trkpt>
      <trkpt lat="42.3531300" lon="1.7844730">
        <ele>1081.0</ele>
        <time>2015-08-12T16:45:35Z</time>
      </trkpt>
      <trkpt lat="42.3531610" lon="1.7844280">
        <ele>1081.2</ele>
        <time>2015-08-12T16:45:36Z</time>
      </trkpt>
      <trkpt lat="42.3531740" lon="1.7843890">
        <ele>1081.3</ele>
        <time>2015-08-12T16:45:37Z</time>
      </trkpt>
      <trkpt lat="42.3532000" lon="1.7843420">
        <ele>1081.5</ele>
        <time>2015-08-12T16:45:38Z</time>
      </trkpt>
      <trkpt lat="42.3532190" lon="1.7842810">
        <ele>1081.7</ele>
        <time>2015-08-12T16:45:39Z</time>
      </trkpt>
      <trkpt lat="42.3532390" lon="1.7842270">
        <ele>1081.9</ele>
        <time>2015-08-12T16:45:40Z</time>
      </trkpt>
      <trkpt lat="42.3532570" lon="1.7841970">
        <ele>1082.0</ele>
        <time>2015-08-12T16:45:41Z</time>
      </trkpt>
      <trkpt lat="42.3532780" lon="1.7841540">
        <ele>1082.2</ele>
        <time>2015-08-12T16:45:42Z</time>
      </trkpt>
      <trkpt lat="42.3532970" lon="1.7841150">
        <ele>1082.3</ele>
        <time>2015-08-12T16:45:43Z</time>
      </trkpt>
      <trkpt lat="42.3533100" lon="1.7840760">
        <ele>1082.5</ele>
        <time>2015-08-12T16:45:44Z</time>
      </trkpt>
      <trkpt lat="42.3532970" lon="1.7840220">
        <ele>1082.8</ele>
        <time>2015-08-12T16:45:46Z</time>
      </trkpt>
      <trkpt lat="42.3533220" lon="1.7839460">
        <ele>1083.1</ele>
        <time>2015-08-12T16:45:48Z</time>
      </trkpt>
      <trkpt lat="42.3532940" lon="1.7838960">
        <ele>1083.4</ele>
        <time>2015-08-12T16:45:50Z</time>
      </trkpt>
      <trkpt lat="42.3533170" lon="1.7838530">
        <ele>1083.5</ele>
        <time>2015-08-12T16:45:51Z</time>
      </trkpt>
      <trkpt lat="42.3533170" lon="1.7838120">
        <ele>1083.7</ele>
        <time>2015-08-12T16:45:52Z</time>
      </trkpt>
      <trkpt lat="42.3533050" lon="1.7837730">
        <ele>1084.0</ele>
        <time>2015-08-12T16:45:54Z</time>
      </trkpt>
      <trkpt lat="42.3533050" lon="1.7837190">
        <ele>1084.1</ele>
        <time>2015-08-12T16:45:56Z</time>
      </trkpt>
      <trkpt lat="42.3533120" lon="1.7836840">
        <ele>1084.1</ele>
        <time>2015-08-12T16:45:58Z</time>
      </trkpt>
      <trkpt lat="42.3533340" lon="1.7836370">
        <ele>1084.1</ele>
        <time>2015-08-12T16:46:02Z</time>
      </trkpt>
      <trkpt lat="42.3533390" lon="1.7835980">
        <ele>1084.1</ele>
        <time>2015-08-12T16:46:04Z</time>
      </trkpt>
      <trkpt lat="42.3532990" lon="1.7835970">
        <ele>1084.2</ele>
        <time>2015-08-12T16:46:07Z</time>
      </trkpt>
      <trkpt lat="42.3532750" lon="1.7836270">
        <ele>1084.2</ele>
        <time>2015-08-12T16:46:09Z</time>
      </trkpt>
      <trkpt lat="42.3532580" lon="1.7835780">
        <ele>1084.3</ele>
        <time>2015-08-12T16:46:11Z</time>
      </trkpt>
      <trkpt lat="42.3532260" lon="1.7835350">
        <ele>1084.5</ele>
        <time>2015-08-12T16:46:13Z</time>
      </trkpt>
      <trkpt lat="42.3532060" lon="1.7834950">
        <ele>1084.6</ele>
        <time>2015-08-12T16:46:15Z</time>
      </trkpt>
      <trkpt lat="42.3531680" lon="1.7834660">
        <ele>1084.8</ele>
        <time>2015-08-12T16:46:17Z</time>
      </trkpt>
      <trkpt lat="42.3531380" lon="1.7834460">
        <ele>1084.9</ele>
        <time>2015-08-12T16:46:19Z</time>
      </trkpt>
      <trkpt lat="42.3531060" lon="1.7834340">
        <ele>1085.0</ele>
        <time>2015-08-12T16:46:20Z</time>
      </trkpt>
      <trkpt lat="42.3530690" lon="1.7833920">
        <ele>1085.3</ele>
        <time>2015-08-12T16:46:22Z</time>
      </trkpt>
      <trkpt lat="42.3530430" lon="1.7833750">
        <ele>1085.4</ele>
        <time>2015-08-12T16:46:24Z</time>
      </trkpt>
      <trkpt lat="42.3529930" lon="1.7833650">
        <ele>1085.6</ele>
        <time>2015-08-12T16:46:26Z</time>
      </trkpt>
      <trkpt lat="42.3529450" lon="1.7833210">
        <ele>1085.9</ele>
        <time>2015-08-12T16:46:28Z</time>
      </trkpt>
      <trkpt lat="42.3529180" lon="1.7833100">
        <ele>1086.1</ele>
        <time>2015-08-12T16:46:29Z</time>
      </trkpt>
      <trkpt lat="42.3528770" lon="1.7832850">
        <ele>1086.3</ele>
        <time>2015-08-12T16:46:30Z</time>
      </trkpt>
      <trkpt lat="42.3528450" lon="1.7832530">
        <ele>1086.6</ele>
        <time>2015-08-12T16:46:31Z</time>
      </trkpt>
      <trkpt lat="42.3528150" lon="1.7832300">
        <ele>1086.8</ele>
        <time>2015-08-12T16:46:33Z</time>
      </trkpt>
      <trkpt lat="42.3528190" lon="1.7831890">
        <ele>1086.9</ele>
        <time>2015-08-12T16:46:35Z</time>
      </trkpt>
      <trkpt lat="42.3527960" lon="1.7831480">
        <ele>1087.2</ele>
        <time>2015-08-12T16:46:37Z</time>
      </trkpt>
      <trkpt lat="42.3527820" lon="1.7831040">
        <ele>1087.4</ele>
        <time>2015-08-12T16:46:42Z</time>
      </trkpt>
      <trkpt lat="42.3527450" lon="1.7830650">
        <ele>1087.8</ele>
        <time>2015-08-12T16:46:44Z</time>
      </trkpt>
      <trkpt lat="42.3527050" lon="1.7829950">
        <ele>1088.3</ele>
        <time>2015-08-12T16:46:46Z</time>
      </trkpt>
      <trkpt lat="42.3526650" lon="1.7829690">
        <ele>1088.6</ele>
        <time>2015-08-12T16:46:47Z</time>
      </trkpt>
      <trkpt lat="42.3525960" lon="1.7829640">
        <ele>1089.1</ele>
        <time>2015-08-12T16:46:49Z</time>
      </trkpt>
      <trkpt lat="42.3525600" lon="1.7829360">
        <ele>1089.5</ele>
        <time>2015-08-12T16:46:51Z</time>
      </trkpt>
      <trkpt lat="42.3525290" lon="1.7828980">
        <ele>1089.9</ele>
        <time>2015-08-12T16:46:53Z</time>
      </trkpt>
      <trkpt lat="42.3525110" lon="1.7828640">
        <ele>1090.1</ele>
        <time>2015-08-12T16:46:54Z</time>
      </trkpt>
      <trkpt lat="42.3524790" lon="1.7828200">
        <ele>1090.6</ele>
        <time>2015-08-12T16:46:56Z</time>
      </trkpt>
      <trkpt lat="42.3524240" lon="1.7827600">
        <ele>1091.2</ele>
        <time>2015-08-12T16:46:58Z</time>
      </trkpt>
      <trkpt lat="42.3523930" lon="1.7827350">
        <ele>1091.5</ele>
        <time>2015-08-12T16:46:59Z</time>
      </trkpt>
      <trkpt lat="42.3523730" lon="1.7826900">
        <ele>1091.8</ele>
        <time>2015-08-12T16:47:01Z</time>
      </trkpt>
      <trkpt lat="42.3523570" lon="1.7826500">
        <ele>1092.1</ele>
        <time>2015-08-12T16:47:03Z</time>
      </trkpt>
      <trkpt lat="42.3523320" lon="1.7825910">
        <ele>1092.5</ele>
        <time>2015-08-12T16:47:05Z</time>
      </trkpt>
      <trkpt lat="42.3523060" lon="1.7825560">
        <ele>1092.8</ele>
        <time>2015-08-12T16:47:06Z</time>
      </trkpt>
      <trkpt lat="42.3522740" lon="1.7825140">
        <ele>1093.2</ele>
        <time>2015-08-12T16:47:08Z</time>
      </trkpt>
      <trkpt lat="42.3522750" lon="1.7824380">
        <ele>1093.5</ele>
        <time>2015-08-12T16:47:11Z</time>
      </trkpt>
      <trkpt lat="42.3522430" lon="1.7823600">
        <ele>1094.0</ele>
        <time>2015-08-12T16:47:14Z</time>
      </trkpt>
      <trkpt lat="42.3522120" lon="1.7823520">
        <ele>1094.2</ele>
        <time>2015-08-12T16:47:15Z</time>
      </trkpt>
      <trkpt lat="42.3521900" lon="1.7823130">
        <ele>1094.5</ele>
        <time>2015-08-12T16:47:17Z</time>
      </trkpt>
      <trkpt lat="42.3521740" lon="1.7822730">
        <ele>1094.7</ele>
        <time>2015-08-12T16:47:19Z</time>
      </trkpt>
      <trkpt lat="42.3521870" lon="1.7822290">
        <ele>1094.8</ele>
        <time>2015-08-12T16:47:21Z</time>
      </trkpt>
      <trkpt lat="42.3521780" lon="1.7821940">
        <ele>1095.0</ele>
        <time>2015-08-12T16:47:22Z</time>
      </trkpt>
      <trkpt lat="42.3521750" lon="1.7821360">
        <ele>1095.3</ele>
        <time>2015-08-12T16:47:24Z</time>
      </trkpt>
      <trkpt lat="42.3521590" lon="1.7820810">
        <ele>1095.5</ele>
        <time>2015-08-12T16:47:26Z</time>
      </trkpt>
      <trkpt lat="42.3521500" lon="1.7820150">
        <ele>1095.7</ele>
        <time>2015-08-12T16:47:28Z</time>
      </trkpt>
      <trkpt lat="42.3521440" lon="1.7819680">
        <ele>1095.8</ele>
        <time>2015-08-12T16:47:30Z</time>
      </trkpt>
      <trkpt lat="42.3521320" lon="1.7819240">
        <ele>1095.9</ele>
        <time>2015-08-12T16:47:32Z</time>
      </trkpt>
      <trkpt lat="42.3521180" lon="1.7818850">
        <ele>1096.1</ele>
        <time>2015-08-12T16:47:33Z</time>
      </trkpt>
      <trkpt lat="42.3520850" lon="1.7818200">
        <ele>1096.3</ele>
        <time>2015-08-12T16:47:35Z</time>
      </trkpt>
      <trkpt lat="42.3520710" lon="1.7817780">
        <ele>1096.4</ele>
        <time>2015-08-12T16:47:37Z</time>
      </trkpt>
      <trkpt lat="42.3520730" lon="1.7817210">
        <ele>1096.4</ele>
        <time>2015-08-12T16:47:38Z</time>
      </trkpt>
      <trkpt lat="42.3520490" lon="1.7816750">
        <ele>1096.5</ele>
        <time>2015-08-12T16:47:41Z</time>
      </trkpt>
      <trkpt lat="42.3520210" lon="1.7816330">
        <ele>1096.5</ele>
        <time>2015-08-12T16:47:43Z</time>
      </trkpt>
      <trkpt lat="42.3519940" lon="1.7815810">
        <ele>1096.6</ele>
        <time>2015-08-12T16:47:45Z</time>
      </trkpt>
      <trkpt lat="42.3519770" lon="1.7815420">
        <ele>1096.7</ele>
        <time>2015-08-12T16:47:47Z</time>
      </trkpt>
      <trkpt lat="42.3519260" lon="1.7815440">
        <ele>1096.7</ele>
        <time>2015-08-12T16:47:49Z</time>
      </trkpt>
      <trkpt lat="42.3518880" lon="1.7815340">
        <ele>1096.7</ele>
        <time>2015-08-12T16:47:51Z</time>
      </trkpt>
      <trkpt lat="42.3518480" lon="1.7815470">
        <ele>1096.7</ele>
        <time>2015-08-12T16:47:53Z</time>
      </trkpt>
      <trkpt lat="42.3518160" lon="1.7815710">
        <ele>1096.7</ele>
        <time>2015-08-12T16:47:55Z</time>
      </trkpt>
      <trkpt lat="42.3517870" lon="1.7815900">
        <ele>1096.7</ele>
        <time>2015-08-12T16:47:57Z</time>
      </trkpt>
      <trkpt lat="42.3517510" lon="1.7815980">
        <ele>1096.6</ele>
        <time>2015-08-12T16:47:59Z</time>
      </trkpt>
      <trkpt lat="42.3517230" lon="1.7816150">
        <ele>1096.6</ele>
        <time>2015-08-12T16:48:01Z</time>
      </trkpt>
      <trkpt lat="42.3516790" lon="1.7816480">
        <ele>1096.5</ele>
        <time>2015-08-12T16:48:03Z</time>
      </trkpt>
      <trkpt lat="42.3516450" lon="1.7816830">
        <ele>1096.5</ele>
        <time>2015-08-12T16:48:05Z</time>
      </trkpt>
      <trkpt lat="42.3516110" lon="1.7817130">
        <ele>1096.4</ele>
        <time>2015-08-12T16:48:07Z</time>
      </trkpt>
      <trkpt lat="42.3515880" lon="1.7817340">
        <ele>1096.3</ele>
        <time>2015-08-12T16:48:08Z</time>
      </trkpt>
      <trkpt lat="42.3515560" lon="1.7817490">
        <ele>1096.3</ele>
        <time>2015-08-12T16:48:10Z</time>
      </trkpt>
      <trkpt lat="42.3515330" lon="1.7817830">
        <ele>1096.2</ele>
        <time>2015-08-12T16:48:12Z</time>
      </trkpt>
      <trkpt lat="42.3515010" lon="1.7817820">
        <ele>1096.2</ele>
        <time>2015-08-12T16:48:13Z</time>
      </trkpt>
      <trkpt lat="42.3514650" lon="1.7818230">
        <ele>1096.0</ele>
        <time>2015-08-12T16:48:15Z</time>
      </trkpt>
      <trkpt lat="42.3514290" lon="1.7818600">
        <ele>1095.9</ele>
        <time>2015-08-12T16:48:17Z</time>
      </trkpt>
      <trkpt lat="42.3514070" lon="1.7818970">
        <ele>1095.8</ele>
        <time>2015-08-12T16:48:19Z</time>
      </trkpt>
      <trkpt lat="42.3513450" lon="1.7819150">
        <ele>1095.7</ele>
        <time>2015-08-12T16:48:22Z</time>
      </trkpt>
      <trkpt lat="42.3513200" lon="1.7819320">
        <ele>1095.6</ele>
        <time>2015-08-12T16:48:23Z</time>
      </trkpt>
      <trkpt lat="42.3512930" lon="1.7819540">
        <ele>1095.5</ele>
        <time>2015-08-12T16:48:24Z</time>
      </trkpt>
      <trkpt lat="42.3512700" lon="1.7819820">
        <ele>1095.4</ele>
        <time>2015-08-12T16:48:25Z</time>
      </trkpt>
      <trkpt lat="42.3512340" lon="1.7820000">
        <ele>1095.3</ele>
        <time>2015-08-12T16:48:26Z</time>
      </trkpt>
      <trkpt lat="42.3511880" lon="1.7820270">
        <ele>1095.4</ele>
        <time>2015-08-12T16:48:28Z</time>
      </trkpt>
      <trkpt lat="42.3511430" lon="1.7820320">
        <ele>1095.5</ele>
        <time>2015-08-12T16:48:30Z</time>
      </trkpt>
      <trkpt lat="42.3510840" lon="1.7820380">
        <ele>1095.6</ele>
        <time>2015-08-12T16:48:32Z</time>
      </trkpt>
      <trkpt lat="42.3510380" lon="1.7820460">
        <ele>1095.7</ele>
        <time>2015-08-12T16:48:35Z</time>
      </trkpt>
      <trkpt lat="42.3509930" lon="1.7820780">
        <ele>1095.6</ele>
        <time>2015-08-12T16:48:36Z</time>
      </trkpt>
      <trkpt lat="42.3509630" lon="1.7820730">
        <ele>1095.7</ele>
        <time>2015-08-12T16:48:37Z</time>
      </trkpt>
      <trkpt lat="42.3509360" lon="1.7820780">
        <ele>1095.8</ele>
        <time>2015-08-12T16:48:38Z</time>
      </trkpt>
      <trkpt lat="42.3508980" lon="1.7820910">
        <ele>1095.8</ele>
        <time>2015-08-12T16:48:40Z</time>
      </trkpt>
      <trkpt lat="42.3508510" lon="1.7820790">
        <ele>1096.0</ele>
        <time>2015-08-12T16:48:42Z</time>
      </trkpt>
      <trkpt lat="42.3508100" lon="1.7820620">
        <ele>1096.2</ele>
        <time>2015-08-12T16:48:44Z</time>
      </trkpt>
      <trkpt lat="42.3507830" lon="1.7820580">
        <ele>1096.3</ele>
        <time>2015-08-12T16:48:45Z</time>
      </trkpt>
      <trkpt lat="42.3507540" lon="1.7820500">
        <ele>1096.4</ele>
        <time>2015-08-12T16:48:46Z</time>
      </trkpt>
      <trkpt lat="42.3507110" lon="1.7820070">
        <ele>1096.7</ele>
        <time>2015-08-12T16:48:48Z</time>
      </trkpt>
      <trkpt lat="42.3506820" lon="1.7819970">
        <ele>1096.9</ele>
        <time>2015-08-12T16:48:49Z</time>
      </trkpt>
      <trkpt lat="42.3506440" lon="1.7819520">
        <ele>1097.3</ele>
        <time>2015-08-12T16:48:51Z</time>
      </trkpt>
      <trkpt lat="42.3506020" lon="1.7819220">
        <ele>1097.6</ele>
        <time>2015-08-12T16:48:53Z</time>
      </trkpt>
      <trkpt lat="42.3505770" lon="1.7818970">
        <ele>1097.8</ele>
        <time>2015-08-12T16:48:54Z</time>
      </trkpt>
      <trkpt lat="42.3505500" lon="1.7818890">
        <ele>1098.0</ele>
        <time>2015-08-12T16:48:55Z</time>
      </trkpt>
      <trkpt lat="42.3505250" lon="1.7818710">
        <ele>1098.2</ele>
        <time>2015-08-12T16:48:56Z</time>
      </trkpt>
      <trkpt lat="42.3504930" lon="1.7818590">
        <ele>1098.4</ele>
        <time>2015-08-12T16:48:57Z</time>
      </trkpt>
      <trkpt lat="42.3504460" lon="1.7818390">
        <ele>1098.7</ele>
        <time>2015-08-12T16:48:59Z</time>
      </trkpt>
      <trkpt lat="42.3504180" lon="1.7818300">
        <ele>1098.8</ele>
        <time>2015-08-12T16:49:00Z</time>
      </trkpt>
      <trkpt lat="42.3503890" lon="1.7818250">
        <ele>1099.0</ele>
        <time>2015-08-12T16:49:01Z</time>
      </trkpt>
      <trkpt lat="42.3503380" lon="1.7818070">
        <ele>1099.3</ele>
        <time>2015-08-12T16:49:03Z</time>
      </trkpt>
      <trkpt lat="42.3502880" lon="1.7817950">
        <ele>1099.6</ele>
        <time>2015-08-12T16:49:05Z</time>
      </trkpt>
      <trkpt lat="42.3502420" lon="1.7817930">
        <ele>1099.9</ele>
        <time>2015-08-12T16:49:07Z</time>
      </trkpt>
      <trkpt lat="42.3502040" lon="1.7817910">
        <ele>1100.0</ele>
        <time>2015-08-12T16:49:09Z</time>
      </trkpt>
      <trkpt lat="42.3501760" lon="1.7817480">
        <ele>1100.5</ele>
        <time>2015-08-12T16:49:10Z</time>
      </trkpt>
      <trkpt lat="42.3501420" lon="1.7817290">
        <ele>1100.8</ele>
        <time>2015-08-12T16:49:11Z</time>
      </trkpt>
      <trkpt lat="42.3501140" lon="1.7817070">
        <ele>1101.1</ele>
        <time>2015-08-12T16:49:12Z</time>
      </trkpt>
      <trkpt lat="42.3500850" lon="1.7816940">
        <ele>1101.4</ele>
        <time>2015-08-12T16:49:13Z</time>
      </trkpt>
      <trkpt lat="42.3500390" lon="1.7816620">
        <ele>1101.9</ele>
        <time>2015-08-12T16:49:15Z</time>
      </trkpt>
      <trkpt lat="42.3499900" lon="1.7816480">
        <ele>1102.2</ele>
        <time>2015-08-12T16:49:17Z</time>
      </trkpt>
      <trkpt lat="42.3499650" lon="1.7816360">
        <ele>1102.4</ele>
        <time>2015-08-12T16:49:18Z</time>
      </trkpt>
      <trkpt lat="42.3499420" lon="1.7816140">
        <ele>1102.7</ele>
        <time>2015-08-12T16:49:19Z</time>
      </trkpt>
      <trkpt lat="42.3499140" lon="1.7815930">
        <ele>1103.0</ele>
        <time>2015-08-12T16:49:20Z</time>
      </trkpt>
      <trkpt lat="42.3498800" lon="1.7815690">
        <ele>1103.4</ele>
        <time>2015-08-12T16:49:21Z</time>
      </trkpt>
      <trkpt lat="42.3498510" lon="1.7815710">
        <ele>1103.6</ele>
        <time>2015-08-12T16:49:22Z</time>
      </trkpt>
      <trkpt lat="42.3498230" lon="1.7815590">
        <ele>1103.8</ele>
        <time>2015-08-12T16:49:23Z</time>
      </trkpt>
      <trkpt lat="42.3497960" lon="1.7815460">
        <ele>1104.1</ele>
        <time>2015-08-12T16:49:24Z</time>
      </trkpt>
      <trkpt lat="42.3497500" lon="1.7815210">
        <ele>1104.5</ele>
        <time>2015-08-12T16:49:26Z</time>
      </trkpt>
      <trkpt lat="42.3497170" lon="1.7815210">
        <ele>1104.7</ele>
        <time>2015-08-12T16:49:27Z</time>
      </trkpt>
      <trkpt lat="42.3496560" lon="1.7814880">
        <ele>1105.3</ele>
        <time>2015-08-12T16:49:29Z</time>
      </trkpt>
      <trkpt lat="42.3496290" lon="1.7814710">
        <ele>1105.6</ele>
        <time>2015-08-12T16:49:30Z</time>
      </trkpt>
      <trkpt lat="42.3495890" lon="1.7814540">
        <ele>1106.0</ele>
        <time>2015-08-12T16:49:32Z</time>
      </trkpt>
      <trkpt lat="42.3495330" lon="1.7814630">
        <ele>1106.1</ele>
        <time>2015-08-12T16:49:34Z</time>
      </trkpt>
      <trkpt lat="42.3494990" lon="1.7814680">
        <ele>1106.1</ele>
        <time>2015-08-12T16:49:35Z</time>
      </trkpt>
      <trkpt lat="42.3494430" lon="1.7814600">
        <ele>1106.3</ele>
        <time>2015-08-12T16:49:37Z</time>
      </trkpt>
      <trkpt lat="42.3494020" lon="1.7814640">
        <ele>1106.3</ele>
        <time>2015-08-12T16:49:39Z</time>
      </trkpt>
      <trkpt lat="42.3493620" lon="1.7814610">
        <ele>1106.4</ele>
        <time>2015-08-12T16:49:41Z</time>
      </trkpt>
      <trkpt lat="42.3493310" lon="1.7814530">
        <ele>1106.6</ele>
        <time>2015-08-12T16:49:42Z</time>
      </trkpt>
      <trkpt lat="42.3492910" lon="1.7814250">
        <ele>1106.9</ele>
        <time>2015-08-12T16:49:44Z</time>
      </trkpt>
      <trkpt lat="42.3492490" lon="1.7814070">
        <ele>1107.2</ele>
        <time>2015-08-12T16:49:46Z</time>
      </trkpt>
      <trkpt lat="42.3492210" lon="1.7813690">
        <ele>1107.7</ele>
        <time>2015-08-12T16:49:48Z</time>
      </trkpt>
      <trkpt lat="42.3491880" lon="1.7813520">
        <ele>1107.9</ele>
        <time>2015-08-12T16:49:50Z</time>
      </trkpt>
      <trkpt lat="42.3491600" lon="1.7813160">
        <ele>1108.3</ele>
        <time>2015-08-12T16:49:51Z</time>
      </trkpt>
      <trkpt lat="42.3491340" lon="1.7812790">
        <ele>1108.8</ele>
        <time>2015-08-12T16:49:53Z</time>
      </trkpt>
      <trkpt lat="42.3491060" lon="1.7812420">
        <ele>1109.2</ele>
        <time>2015-08-12T16:49:55Z</time>
      </trkpt>
      <trkpt lat="42.3490700" lon="1.7812260">
        <ele>1109.4</ele>
        <time>2015-08-12T16:49:56Z</time>
      </trkpt>
      <trkpt lat="42.3490360" lon="1.7812280">
        <ele>1109.5</ele>
        <time>2015-08-12T16:49:57Z</time>
      </trkpt>
      <trkpt lat="42.3490270" lon="1.7812630">
        <ele>1109.2</ele>
        <time>2015-08-12T16:49:58Z</time>
      </trkpt>
      <trkpt lat="42.3489990" lon="1.7812520">
        <ele>1109.4</ele>
        <time>2015-08-12T16:50:00Z</time>
      </trkpt>
      <trkpt lat="42.3489700" lon="1.7812540">
        <ele>1109.4</ele>
        <time>2015-08-12T16:50:02Z</time>
      </trkpt>
      <trkpt lat="42.3489280" lon="1.7812250">
        <ele>1109.8</ele>
        <time>2015-08-12T16:50:05Z</time>
      </trkpt>
      <trkpt lat="42.3488930" lon="1.7812280">
        <ele>1109.8</ele>
        <time>2015-08-12T16:50:07Z</time>
      </trkpt>
      <trkpt lat="42.3488650" lon="1.7812160">
        <ele>1110.0</ele>
        <time>2015-08-12T16:50:09Z</time>
      </trkpt>
      <trkpt lat="42.3488180" lon="1.7812150">
        <ele>1110.1</ele>
        <time>2015-08-12T16:50:11Z</time>
      </trkpt>
      <trkpt lat="42.3487720" lon="1.7812120">
        <ele>1110.3</ele>
        <time>2015-08-12T16:50:13Z</time>
      </trkpt>
      <trkpt lat="42.3487320" lon="1.7811930">
        <ele>1110.5</ele>
        <time>2015-08-12T16:50:16Z</time>
      </trkpt>
      <trkpt lat="42.3486970" lon="1.7811800">
        <ele>1110.7</ele>
        <time>2015-08-12T16:50:18Z</time>
      </trkpt>
      <trkpt lat="42.3486560" lon="1.7811720">
        <ele>1110.9</ele>
        <time>2015-08-12T16:50:20Z</time>
      </trkpt>
      <trkpt lat="42.3486250" lon="1.7811790">
        <ele>1110.9</ele>
        <time>2015-08-12T16:50:22Z</time>
      </trkpt>
      <trkpt lat="42.3485920" lon="1.7811850">
        <ele>1110.9</ele>
        <time>2015-08-12T16:50:24Z</time>
      </trkpt>
      <trkpt lat="42.3485500" lon="1.7811650">
        <ele>1111.1</ele>
        <time>2015-08-12T16:50:26Z</time>
      </trkpt>
      <trkpt lat="42.3485210" lon="1.7811760">
        <ele>1111.1</ele>
        <time>2015-08-12T16:50:27Z</time>
      </trkpt>
      <trkpt lat="42.3484940" lon="1.7811650">
        <ele>1111.3</ele>
        <time>2015-08-12T16:50:28Z</time>
      </trkpt>
      <trkpt lat="42.3484600" lon="1.7811610">
        <ele>1111.4</ele>
        <time>2015-08-12T16:50:29Z</time>
      </trkpt>
      <trkpt lat="42.3484080" lon="1.7811580">
        <ele>1111.5</ele>
        <time>2015-08-12T16:50:31Z</time>
      </trkpt>
      <trkpt lat="42.3483640" lon="1.7811580">
        <ele>1111.6</ele>
        <time>2015-08-12T16:50:33Z</time>
      </trkpt>
      <trkpt lat="42.3483060" lon="1.7811510">
        <ele>1111.8</ele>
        <time>2015-08-12T16:50:34Z</time>
      </trkpt>
      <trkpt lat="42.3482630" lon="1.7811210">
        <ele>1112.1</ele>
        <time>2015-08-12T16:50:36Z</time>
      </trkpt>
      <trkpt lat="42.3482310" lon="1.7811060">
        <ele>1112.2</ele>
        <time>2015-08-12T16:50:37Z</time>
      </trkpt>
      <trkpt lat="42.3482070" lon="1.7810870">
        <ele>1112.4</ele>
        <time>2015-08-12T16:50:38Z</time>
      </trkpt>
      <trkpt lat="42.3481500" lon="1.7810760">
        <ele>1112.6</ele>
        <time>2015-08-12T16:50:40Z</time>
      </trkpt>
      <trkpt lat="42.3481030" lon="1.7810680">
        <ele>1112.7</ele>
        <time>2015-08-12T16:50:42Z</time>
      </trkpt>
      <trkpt lat="42.3480760" lon="1.7810680">
        <ele>1112.8</ele>
        <time>2015-08-12T16:50:43Z</time>
      </trkpt>
      <trkpt lat="42.3480530" lon="1.7810900">
        <ele>1112.7</ele>
        <time>2015-08-12T16:50:44Z</time>
      </trkpt>
      <trkpt lat="42.3480130" lon="1.7810890">
        <ele>1112.8</ele>
        <time>2015-08-12T16:50:46Z</time>
      </trkpt>
      <trkpt lat="42.3479760" lon="1.7810450">
        <ele>1113.1</ele>
        <time>2015-08-12T16:50:48Z</time>
      </trkpt>
      <trkpt lat="42.3479390" lon="1.7810260">
        <ele>1113.3</ele>
        <time>2015-08-12T16:50:50Z</time>
      </trkpt>
      <trkpt lat="42.3479100" lon="1.7810070">
        <ele>1113.5</ele>
        <time>2015-08-12T16:50:51Z</time>
      </trkpt>
      <trkpt lat="42.3478680" lon="1.7810060">
        <ele>1113.5</ele>
        <time>2015-08-12T16:50:52Z</time>
      </trkpt>
      <trkpt lat="42.3478290" lon="1.7809930">
        <ele>1113.7</ele>
        <time>2015-08-12T16:50:53Z</time>
      </trkpt>
      <trkpt lat="42.3477840" lon="1.7809830">
        <ele>1113.9</ele>
        <time>2015-08-12T16:50:55Z</time>
      </trkpt>
      <trkpt lat="42.3477560" lon="1.7809790">
        <ele>1113.9</ele>
        <time>2015-08-12T16:50:56Z</time>
      </trkpt>
      <trkpt lat="42.3477290" lon="1.7810020">
        <ele>1113.8</ele>
        <time>2015-08-12T16:50:57Z</time>
      </trkpt>
      <trkpt lat="42.3477020" lon="1.7810040">
        <ele>1113.8</ele>
        <time>2015-08-12T16:50:58Z</time>
      </trkpt>
      <trkpt lat="42.3476560" lon="1.7809950">
        <ele>1114.0</ele>
        <time>2015-08-12T16:51:00Z</time>
      </trkpt>
      <trkpt lat="42.3476230" lon="1.7809840">
        <ele>1114.1</ele>
        <time>2015-08-12T16:51:01Z</time>
      </trkpt>
      <trkpt lat="42.3475830" lon="1.7809940">
        <ele>1114.1</ele>
        <time>2015-08-12T16:51:02Z</time>
      </trkpt>
      <trkpt lat="42.3475460" lon="1.7809900">
        <ele>1114.2</ele>
        <time>2015-08-12T16:51:03Z</time>
      </trkpt>
      <trkpt lat="42.3475130" lon="1.7809880">
        <ele>1114.3</ele>
        <time>2015-08-12T16:51:04Z</time>
      </trkpt>
      <trkpt lat="42.3474820" lon="1.7809910">
        <ele>1114.3</ele>
        <time>2015-08-12T16:51:05Z</time>
      </trkpt>
      <trkpt lat="42.3474470" lon="1.7809930">
        <ele>1114.4</ele>
        <time>2015-08-12T16:51:06Z</time>
      </trkpt>
      <trkpt lat="42.3474150" lon="1.7810080">
        <ele>1114.2</ele>
        <time>2015-08-12T16:51:07Z</time>
      </trkpt>
      <trkpt lat="42.3473730" lon="1.7809850">
        <ele>1114.6</ele>
        <time>2015-08-12T16:51:08Z</time>
      </trkpt>
      <trkpt lat="42.3473360" lon="1.7809810">
        <ele>1114.7</ele>
        <time>2015-08-12T16:51:09Z</time>
      </trkpt>
      <trkpt lat="42.3473020" lon="1.7809860">
        <ele>1114.7</ele>
        <time>2015-08-12T16:51:10Z</time>
      </trkpt>
      <trkpt lat="42.3472650" lon="1.7809870">
        <ele>1114.8</ele>
        <time>2015-08-12T16:51:11Z</time>
      </trkpt>
      <trkpt lat="42.3472330" lon="1.7809920">
        <ele>1114.8</ele>
        <time>2015-08-12T16:51:12Z</time>
      </trkpt>
      <trkpt lat="42.3471660" lon="1.7809930">
        <ele>1114.9</ele>
        <time>2015-08-12T16:51:14Z</time>
      </trkpt>
      <trkpt lat="42.3471370" lon="1.7809770">
        <ele>1115.2</ele>
        <time>2015-08-12T16:51:15Z</time>
      </trkpt>
      <trkpt lat="42.3471080" lon="1.7809760">
        <ele>1115.2</ele>
        <time>2015-08-12T16:51:16Z</time>
      </trkpt>
      <trkpt lat="42.3470740" lon="1.7809770">
        <ele>1115.3</ele>
        <time>2015-08-12T16:51:17Z</time>
      </trkpt>
      <trkpt lat="42.3470420" lon="1.7809760">
        <ele>1115.5</ele>
        <time>2015-08-12T16:51:18Z</time>
      </trkpt>
      <trkpt lat="42.3470100" lon="1.7809820">
        <ele>1115.6</ele>
        <time>2015-08-12T16:51:19Z</time>
      </trkpt>
      <trkpt lat="42.3469730" lon="1.7809820">
        <ele>1115.8</ele>
        <time>2015-08-12T16:51:20Z</time>
      </trkpt>
      <trkpt lat="42.3469400" lon="1.7809710">
        <ele>1116.2</ele>
        <time>2015-08-12T16:51:21Z</time>
      </trkpt>
      <trkpt lat="42.3469060" lon="1.7809700">
        <ele>1116.4</ele>
        <time>2015-08-12T16:51:22Z</time>
      </trkpt>
      <trkpt lat="42.3468760" lon="1.7809680">
        <ele>1116.6</ele>
        <time>2015-08-12T16:51:23Z</time>
      </trkpt>
      <trkpt lat="42.3468380" lon="1.7809680">
        <ele>1116.8</ele>
        <time>2015-08-12T16:51:24Z</time>
      </trkpt>
      <trkpt lat="42.3468030" lon="1.7809630">
        <ele>1117.0</ele>
        <time>2015-08-12T16:51:25Z</time>
      </trkpt>
      <trkpt lat="42.3467670" lon="1.7809430">
        <ele>1117.5</ele>
        <time>2015-08-12T16:51:26Z</time>
      </trkpt>
      <trkpt lat="42.3467320" lon="1.7809230">
        <ele>1118.0</ele>
        <time>2015-08-12T16:51:27Z</time>
      </trkpt>
      <trkpt lat="42.3466990" lon="1.7809210">
        <ele>1118.3</ele>
        <time>2015-08-12T16:51:28Z</time>
      </trkpt>
      <trkpt lat="42.3466630" lon="1.7809120">
        <ele>1118.6</ele>
        <time>2015-08-12T16:51:29Z</time>
      </trkpt>
      <trkpt lat="42.3466240" lon="1.7809120">
        <ele>1118.8</ele>
        <time>2015-08-12T16:51:30Z</time>
      </trkpt>
      <trkpt lat="42.3465800" lon="1.7809050">
        <ele>1119.2</ele>
        <time>2015-08-12T16:51:31Z</time>
      </trkpt>
      <trkpt lat="42.3465230" lon="1.7809240">
        <ele>1119.2</ele>
        <time>2015-08-12T16:51:33Z</time>
      </trkpt>
      <trkpt lat="42.3464920" lon="1.7809440">
        <ele>1119.1</ele>
        <time>2015-08-12T16:51:34Z</time>
      </trkpt>
      <trkpt lat="42.3464570" lon="1.7809480">
        <ele>1119.2</ele>
        <time>2015-08-12T16:51:35Z</time>
      </trkpt>
      <trkpt lat="42.3464250" lon="1.7809500">
        <ele>1119.3</ele>
        <time>2015-08-12T16:51:36Z</time>
      </trkpt>
      <trkpt lat="42.3463840" lon="1.7809550">
        <ele>1119.5</ele>
        <time>2015-08-12T16:51:37Z</time>
      </trkpt>
      <trkpt lat="42.3463500" lon="1.7809630">
        <ele>1119.6</ele>
        <time>2015-08-12T16:51:38Z</time>
      </trkpt>
      <trkpt lat="42.3463220" lon="1.7809520">
        <ele>1119.9</ele>
        <time>2015-08-12T16:51:39Z</time>
      </trkpt>
      <trkpt lat="42.3462900" lon="1.7809570">
        <ele>1120.0</ele>
        <time>2015-08-12T16:51:40Z</time>
      </trkpt>
      <trkpt lat="42.3462640" lon="1.7809680">
        <ele>1120.0</ele>
        <time>2015-08-12T16:51:41Z</time>
      </trkpt>
      <trkpt lat="42.3462310" lon="1.7809760">
        <ele>1120.0</ele>
        <time>2015-08-12T16:51:42Z</time>
      </trkpt>
      <trkpt lat="42.3462010" lon="1.7809790">
        <ele>1120.0</ele>
        <time>2015-08-12T16:51:43Z</time>
      </trkpt>
      <trkpt lat="42.3461740" lon="1.7809830">
        <ele>1119.9</ele>
        <time>2015-08-12T16:51:44Z</time>
      </trkpt>
      <trkpt lat="42.3461310" lon="1.7809920">
        <ele>1119.9</ele>
        <time>2015-08-12T16:51:45Z</time>
      </trkpt>
      <trkpt lat="42.3460760" lon="1.7809970">
        <ele>1119.9</ele>
        <time>2015-08-12T16:51:47Z</time>
      </trkpt>
      <trkpt lat="42.3460420" lon="1.7809790">
        <ele>1120.2</ele>
        <time>2015-08-12T16:51:48Z</time>
      </trkpt>
      <trkpt lat="42.3460120" lon="1.7809730">
        <ele>1120.3</ele>
        <time>2015-08-12T16:51:49Z</time>
      </trkpt>
      <trkpt lat="42.3459820" lon="1.7809790">
        <ele>1120.2</ele>
        <time>2015-08-12T16:51:50Z</time>
      </trkpt>
      <trkpt lat="42.3459510" lon="1.7809760">
        <ele>1120.3</ele>
        <time>2015-08-12T16:51:51Z</time>
      </trkpt>
      <trkpt lat="42.3459190" lon="1.7809690">
        <ele>1120.4</ele>
        <time>2015-08-12T16:51:52Z</time>
      </trkpt>
      <trkpt lat="42.3458640" lon="1.7809630">
        <ele>1120.6</ele>
        <time>2015-08-12T16:51:54Z</time>
      </trkpt>
      <trkpt lat="42.3458330" lon="1.7809530">
        <ele>1120.8</ele>
        <time>2015-08-12T16:51:55Z</time>
      </trkpt>
      <trkpt lat="42.3458050" lon="1.7809490">
        <ele>1120.9</ele>
        <time>2015-08-12T16:51:56Z</time>
      </trkpt>
      <trkpt lat="42.3457770" lon="1.7809440">
        <ele>1121.0</ele>
        <time>2015-08-12T16:51:57Z</time>
      </trkpt>
      <trkpt lat="42.3457500" lon="1.7809450">
        <ele>1121.0</ele>
        <time>2015-08-12T16:51:58Z</time>
      </trkpt>
      <trkpt lat="42.3457200" lon="1.7809200">
        <ele>1121.4</ele>
        <time>2015-08-12T16:51:59Z</time>
      </trkpt>
      <trkpt lat="42.3456710" lon="1.7809310">
        <ele>1121.3</ele>
        <time>2015-08-12T16:52:01Z</time>
      </trkpt>
      <trkpt lat="42.3456500" lon="1.7808950">
        <ele>1121.8</ele>
        <time>2015-08-12T16:52:02Z</time>
      </trkpt>
      <trkpt lat="42.3456110" lon="1.7808760">
        <ele>1122.2</ele>
        <time>2015-08-12T16:52:04Z</time>
      </trkpt>
      <trkpt lat="42.3455750" lon="1.7808630">
        <ele>1122.4</ele>
        <time>2015-08-12T16:52:06Z</time>
      </trkpt>
      <trkpt lat="42.3455490" lon="1.7808310">
        <ele>1122.9</ele>
        <time>2015-08-12T16:52:09Z</time>
      </trkpt>
      <trkpt lat="42.3454980" lon="1.7808050">
        <ele>1123.3</ele>
        <time>2015-08-12T16:52:11Z</time>
      </trkpt>
      <trkpt lat="42.3454700" lon="1.7807770">
        <ele>1123.7</ele>
        <time>2015-08-12T16:52:12Z</time>
      </trkpt>
      <trkpt lat="42.3454420" lon="1.7807720">
        <ele>1123.9</ele>
        <time>2015-08-12T16:52:13Z</time>
      </trkpt>
      <trkpt lat="42.3454100" lon="1.7807400">
        <ele>1124.4</ele>
        <time>2015-08-12T16:52:14Z</time>
      </trkpt>
      <trkpt lat="42.3453770" lon="1.7807160">
        <ele>1124.8</ele>
        <time>2015-08-12T16:52:16Z</time>
      </trkpt>
      <trkpt lat="42.3453480" lon="1.7807100">
        <ele>1125.0</ele>
        <time>2015-08-12T16:52:18Z</time>
      </trkpt>
      <trkpt lat="42.3453140" lon="1.7807010">
        <ele>1125.3</ele>
        <time>2015-08-12T16:52:19Z</time>
      </trkpt>
      <trkpt lat="42.3452760" lon="1.7806930">
        <ele>1125.5</ele>
        <time>2015-08-12T16:52:21Z</time>
      </trkpt>
      <trkpt lat="42.3452410" lon="1.7806880">
        <ele>1125.7</ele>
        <time>2015-08-12T16:52:23Z</time>
      </trkpt>
      <trkpt lat="42.3452030" lon="1.7806900">
        <ele>1125.8</ele>
        <time>2015-08-12T16:52:24Z</time>
      </trkpt>
      <trkpt lat="42.3451540" lon="1.7806820">
        <ele>1126.1</ele>
        <time>2015-08-12T16:52:26Z</time>
      </trkpt>
      <trkpt lat="42.3450930" lon="1.7806740">
        <ele>1126.5</ele>
        <time>2015-08-12T16:52:28Z</time>
      </trkpt>
      <trkpt lat="42.3450600" lon="1.7806610">
        <ele>1126.8</ele>
        <time>2015-08-12T16:52:29Z</time>
      </trkpt>
      <trkpt lat="42.3450290" lon="1.7806590">
        <ele>1127.0</ele>
        <time>2015-08-12T16:52:30Z</time>
      </trkpt>
      <trkpt lat="42.3449880" lon="1.7806660">
        <ele>1127.0</ele>
        <time>2015-08-12T16:52:31Z</time>
      </trkpt>
      <trkpt lat="42.3449510" lon="1.7806680">
        <ele>1127.1</ele>
        <time>2015-08-12T16:52:32Z</time>
      </trkpt>
      <trkpt lat="42.3449240" lon="1.7806610">
        <ele>1127.3</ele>
        <time>2015-08-12T16:52:33Z</time>
      </trkpt>
      <trkpt lat="42.3448970" lon="1.7806510">
        <ele>1127.6</ele>
        <time>2015-08-12T16:52:34Z</time>
      </trkpt>
      <trkpt lat="42.3448670" lon="1.7806540">
        <ele>1127.7</ele>
        <time>2015-08-12T16:52:36Z</time>
      </trkpt>
      <trkpt lat="42.3448340" lon="1.7806480">
        <ele>1127.9</ele>
        <time>2015-08-12T16:52:37Z</time>
      </trkpt>
      <trkpt lat="42.3447930" lon="1.7806460">
        <ele>1128.1</ele>
        <time>2015-08-12T16:52:39Z</time>
      </trkpt>
      <trkpt lat="42.3447570" lon="1.7806430">
        <ele>1128.3</ele>
        <time>2015-08-12T16:52:41Z</time>
      </trkpt>
      <trkpt lat="42.3447290" lon="1.7806370">
        <ele>1128.5</ele>
        <time>2015-08-12T16:52:43Z</time>
      </trkpt>
      <trkpt lat="42.3447010" lon="1.7806420">
        <ele>1128.5</ele>
        <time>2015-08-12T16:52:45Z</time>
      </trkpt>
      <trkpt lat="42.3446730" lon="1.7806510">
        <ele>1128.4</ele>
        <time>2015-08-12T16:52:46Z</time>
      </trkpt>
      <trkpt lat="42.3446360" lon="1.7806320">
        <ele>1128.9</ele>
        <time>2015-08-12T16:52:47Z</time>
      </trkpt>
      <trkpt lat="42.3446100" lon="1.7806130">
        <ele>1129.4</ele>
        <time>2015-08-12T16:52:48Z</time>
      </trkpt>
      <trkpt lat="42.3445680" lon="1.7806080">
        <ele>1129.6</ele>
        <time>2015-08-12T16:52:50Z</time>
      </trkpt>
      <trkpt lat="42.3445340" lon="1.7806090">
        <ele>1129.6</ele>
        <time>2015-08-12T16:52:51Z</time>
      </trkpt>
      <trkpt lat="42.3444880" lon="1.7806120">
        <ele>1129.6</ele>
        <time>2015-08-12T16:52:53Z</time>
      </trkpt>
      <trkpt lat="42.3444410" lon="1.7806060">
        <ele>1129.7</ele>
        <time>2015-08-12T16:52:55Z</time>
      </trkpt>
      <trkpt lat="42.3444120" lon="1.7806060">
        <ele>1129.7</ele>
        <time>2015-08-12T16:52:56Z</time>
      </trkpt>
      <trkpt lat="42.3443680" lon="1.7806080">
        <ele>1129.7</ele>
        <time>2015-08-12T16:52:58Z</time>
      </trkpt>
      <trkpt lat="42.3443350" lon="1.7805910">
        <ele>1130.0</ele>
        <time>2015-08-12T16:52:59Z</time>
      </trkpt>
      <trkpt lat="42.3442930" lon="1.7805770">
        <ele>1130.3</ele>
        <time>2015-08-12T16:53:01Z</time>
      </trkpt>
      <trkpt lat="42.3442340" lon="1.7805950">
        <ele>1130.1</ele>
        <time>2015-08-12T16:53:03Z</time>
      </trkpt>
      <trkpt lat="42.3442100" lon="1.7806140">
        <ele>1129.8</ele>
        <time>2015-08-12T16:53:04Z</time>
      </trkpt>
      <trkpt lat="42.3441650" lon="1.7806110">
        <ele>1129.9</ele>
        <time>2015-08-12T16:53:06Z</time>
      </trkpt>
      <trkpt lat="42.3441100" lon="1.7806190">
        <ele>1129.8</ele>
        <time>2015-08-12T16:53:08Z</time>
      </trkpt>
      <trkpt lat="42.3440710" lon="1.7806290">
        <ele>1129.6</ele>
        <time>2015-08-12T16:53:10Z</time>
      </trkpt>
      <trkpt lat="42.3440440" lon="1.7806300">
        <ele>1129.7</ele>
        <time>2015-08-12T16:53:11Z</time>
      </trkpt>
      <trkpt lat="42.3439900" lon="1.7806350">
        <ele>1129.6</ele>
        <time>2015-08-12T16:53:13Z</time>
      </trkpt>
      <trkpt lat="42.3439420" lon="1.7806550">
        <ele>1129.4</ele>
        <time>2015-08-12T16:53:15Z</time>
      </trkpt>
      <trkpt lat="42.3439160" lon="1.7806680">
        <ele>1129.2</ele>
        <time>2015-08-12T16:53:16Z</time>
      </trkpt>
      <trkpt lat="42.3438650" lon="1.7806790">
        <ele>1129.1</ele>
        <time>2015-08-12T16:53:18Z</time>
      </trkpt>
      <trkpt lat="42.3438250" lon="1.7806660">
        <ele>1129.3</ele>
        <time>2015-08-12T16:53:20Z</time>
      </trkpt>
      <trkpt lat="42.3437840" lon="1.7806500">
        <ele>1129.6</ele>
        <time>2015-08-12T16:53:21Z</time>
      </trkpt>
      <trkpt lat="42.3437480" lon="1.7806690">
        <ele>1129.4</ele>
        <time>2015-08-12T16:53:22Z</time>
      </trkpt>
      <trkpt lat="42.3436950" lon="1.7806920">
        <ele>1129.3</ele>
        <time>2015-08-12T16:53:24Z</time>
      </trkpt>
      <trkpt lat="42.3436630" lon="1.7806840">
        <ele>1129.5</ele>
        <time>2015-08-12T16:53:25Z</time>
      </trkpt>
      <trkpt lat="42.3436040" lon="1.7806770">
        <ele>1129.8</ele>
        <time>2015-08-12T16:53:27Z</time>
      </trkpt>
      <trkpt lat="42.3435550" lon="1.7806740">
        <ele>1130.1</ele>
        <time>2015-08-12T16:53:29Z</time>
      </trkpt>
      <trkpt lat="42.3434960" lon="1.7806530">
        <ele>1130.6</ele>
        <time>2015-08-12T16:53:31Z</time>
      </trkpt>
      <trkpt lat="42.3434610" lon="1.7806490">
        <ele>1130.8</ele>
        <time>2015-08-12T16:53:32Z</time>
      </trkpt>
      <trkpt lat="42.3434250" lon="1.7806410">
        <ele>1131.0</ele>
        <time>2015-08-12T16:53:33Z</time>
      </trkpt>
      <trkpt lat="42.3433970" lon="1.7806320">
        <ele>1131.3</ele>
        <time>2015-08-12T16:53:34Z</time>
      </trkpt>
      <trkpt lat="42.3433560" lon="1.7806260">
        <ele>1131.5</ele>
        <time>2015-08-12T16:53:35Z</time>
      </trkpt>
      <trkpt lat="42.3433290" lon="1.7806130">
        <ele>1131.8</ele>
        <time>2015-08-12T16:53:36Z</time>
      </trkpt>
      <trkpt lat="42.3432970" lon="1.7806140">
        <ele>1131.9</ele>
        <time>2015-08-12T16:53:37Z</time>
      </trkpt>
      <trkpt lat="42.3432480" lon="1.7805930">
        <ele>1132.4</ele>
        <time>2015-08-12T16:53:39Z</time>
      </trkpt>
      <trkpt lat="42.3432040" lon="1.7805720">
        <ele>1132.9</ele>
        <time>2015-08-12T16:53:41Z</time>
      </trkpt>
      <trkpt lat="42.3431720" lon="1.7805550">
        <ele>1133.2</ele>
        <time>2015-08-12T16:53:42Z</time>
      </trkpt>
      <trkpt lat="42.3431380" lon="1.7805330">
        <ele>1133.6</ele>
        <time>2015-08-12T16:53:43Z</time>
      </trkpt>
      <trkpt lat="42.3431040" lon="1.7805180">
        <ele>1134.0</ele>
        <time>2015-08-12T16:53:44Z</time>
      </trkpt>
      <trkpt lat="42.3430610" lon="1.7805150">
        <ele>1134.2</ele>
        <time>2015-08-12T16:53:46Z</time>
      </trkpt>
      <trkpt lat="42.3430130" lon="1.7805180">
        <ele>1134.3</ele>
        <time>2015-08-12T16:53:48Z</time>
      </trkpt>
      <trkpt lat="42.3429730" lon="1.7804900">
        <ele>1134.8</ele>
        <time>2015-08-12T16:53:50Z</time>
      </trkpt>
      <trkpt lat="42.3429290" lon="1.7804680">
        <ele>1135.3</ele>
        <time>2015-08-12T16:53:52Z</time>
      </trkpt>
      <trkpt lat="42.3428890" lon="1.7804640">
        <ele>1135.6</ele>
        <time>2015-08-12T16:53:54Z</time>
      </trkpt>
      <trkpt lat="42.3428550" lon="1.7804590">
        <ele>1135.9</ele>
        <time>2015-08-12T16:53:56Z</time>
      </trkpt>
      <trkpt lat="42.3428080" lon="1.7804520">
        <ele>1136.3</ele>
        <time>2015-08-12T16:53:58Z</time>
      </trkpt>
      <trkpt lat="42.3427790" lon="1.7804530">
        <ele>1136.5</ele>
        <time>2015-08-12T16:53:59Z</time>
      </trkpt>
      <trkpt lat="42.3427510" lon="1.7804570">
        <ele>1136.6</ele>
        <time>2015-08-12T16:54:00Z</time>
      </trkpt>
      <trkpt lat="42.3427200" lon="1.7804580">
        <ele>1136.8</ele>
        <time>2015-08-12T16:54:01Z</time>
      </trkpt>
      <trkpt lat="42.3426910" lon="1.7804680">
        <ele>1136.9</ele>
        <time>2015-08-12T16:54:02Z</time>
      </trkpt>
      <trkpt lat="42.3426490" lon="1.7804610">
        <ele>1137.3</ele>
        <time>2015-08-12T16:54:04Z</time>
      </trkpt>
      <trkpt lat="42.3426010" lon="1.7804610">
        <ele>1137.6</ele>
        <time>2015-08-12T16:54:06Z</time>
      </trkpt>
      <trkpt lat="42.3425540" lon="1.7804420">
        <ele>1138.3</ele>
        <time>2015-08-12T16:54:08Z</time>
      </trkpt>
      <trkpt lat="42.3425270" lon="1.7804510">
        <ele>1138.3</ele>
        <time>2015-08-12T16:54:09Z</time>
      </trkpt>
      <trkpt lat="42.3425000" lon="1.7804530">
        <ele>1138.5</ele>
        <time>2015-08-12T16:54:10Z</time>
      </trkpt>
      <trkpt lat="42.3424510" lon="1.7804480">
        <ele>1138.9</ele>
        <time>2015-08-12T16:54:12Z</time>
      </trkpt>
      <trkpt lat="42.3424140" lon="1.7804420">
        <ele>1139.2</ele>
        <time>2015-08-12T16:54:14Z</time>
      </trkpt>
      <trkpt lat="42.3423690" lon="1.7804520">
        <ele>1139.4</ele>
        <time>2015-08-12T16:54:16Z</time>
      </trkpt>
      <trkpt lat="42.3423230" lon="1.7804480">
        <ele>1139.8</ele>
        <time>2015-08-12T16:54:18Z</time>
      </trkpt>
      <trkpt lat="42.3422920" lon="1.7804440">
        <ele>1140.1</ele>
        <time>2015-08-12T16:54:19Z</time>
      </trkpt>
      <trkpt lat="42.3422280" lon="1.7804300">
        <ele>1140.8</ele>
        <time>2015-08-12T16:54:21Z</time>
      </trkpt>
      <trkpt lat="42.3421900" lon="1.7804300">
        <ele>1141.0</ele>
        <time>2015-08-12T16:54:22Z</time>
      </trkpt>
      <trkpt lat="42.3421520" lon="1.7804220">
        <ele>1141.4</ele>
        <time>2015-08-12T16:54:23Z</time>
      </trkpt>
      <trkpt lat="42.3421020" lon="1.7804260">
        <ele>1141.7</ele>
        <time>2015-08-12T16:54:25Z</time>
      </trkpt>
      <trkpt lat="42.3420740" lon="1.7804290">
        <ele>1141.8</ele>
        <time>2015-08-12T16:54:26Z</time>
      </trkpt>
      <trkpt lat="42.3420330" lon="1.7804440">
        <ele>1141.7</ele>
        <time>2015-08-12T16:54:29Z</time>
      </trkpt>
      <trkpt lat="42.3419910" lon="1.7804410">
        <ele>1141.9</ele>
        <time>2015-08-12T16:54:30Z</time>
      </trkpt>
      <trkpt lat="42.3419400" lon="1.7804520">
        <ele>1141.8</ele>
        <time>2015-08-12T16:54:32Z</time>
      </trkpt>
      <trkpt lat="42.3418870" lon="1.7804480">
        <ele>1142.0</ele>
        <time>2015-08-12T16:54:34Z</time>
      </trkpt>
      <trkpt lat="42.3418580" lon="1.7804440">
        <ele>1142.1</ele>
        <time>2015-08-12T16:54:35Z</time>
      </trkpt>
      <trkpt lat="42.3418290" lon="1.7804390">
        <ele>1142.3</ele>
        <time>2015-08-12T16:54:36Z</time>
      </trkpt>
      <trkpt lat="42.3417890" lon="1.7804300">
        <ele>1142.5</ele>
        <time>2015-08-12T16:54:38Z</time>
      </trkpt>
      <trkpt lat="42.3417350" lon="1.7804340">
        <ele>1142.6</ele>
        <time>2015-08-12T16:54:40Z</time>
      </trkpt>
      <trkpt lat="42.3417050" lon="1.7804220">
        <ele>1142.8</ele>
        <time>2015-08-12T16:54:41Z</time>
      </trkpt>
      <trkpt lat="42.3416490" lon="1.7803990">
        <ele>1143.6</ele>
        <time>2015-08-12T16:54:43Z</time>
      </trkpt>
      <trkpt lat="42.3416180" lon="1.7804140">
        <ele>1143.2</ele>
        <time>2015-08-12T16:54:44Z</time>
      </trkpt>
      <trkpt lat="42.3415890" lon="1.7804250">
        <ele>1143.1</ele>
        <time>2015-08-12T16:54:45Z</time>
      </trkpt>
      <trkpt lat="42.3415600" lon="1.7804270">
        <ele>1143.1</ele>
        <time>2015-08-12T16:54:46Z</time>
      </trkpt>
      <trkpt lat="42.3415320" lon="1.7804270">
        <ele>1143.2</ele>
        <time>2015-08-12T16:54:47Z</time>
      </trkpt>
      <trkpt lat="42.3414980" lon="1.7804510">
        <ele>1143.0</ele>
        <time>2015-08-12T16:54:48Z</time>
      </trkpt>
      <trkpt lat="42.3414720" lon="1.7804430">
        <ele>1143.1</ele>
        <time>2015-08-12T16:54:49Z</time>
      </trkpt>
      <trkpt lat="42.3414470" lon="1.7804300">
        <ele>1143.4</ele>
        <time>2015-08-12T16:54:50Z</time>
      </trkpt>
      <trkpt lat="42.3413990" lon="1.7804270">
        <ele>1143.5</ele>
        <time>2015-08-12T16:54:52Z</time>
      </trkpt>
      <trkpt lat="42.3413690" lon="1.7804420">
        <ele>1143.4</ele>
        <time>2015-08-12T16:54:53Z</time>
      </trkpt>
      <trkpt lat="42.3413430" lon="1.7804480">
        <ele>1143.4</ele>
        <time>2015-08-12T16:54:54Z</time>
      </trkpt>
      <trkpt lat="42.3413150" lon="1.7804560">
        <ele>1143.4</ele>
        <time>2015-08-12T16:54:55Z</time>
      </trkpt>
      <trkpt lat="42.3412840" lon="1.7804620">
        <ele>1143.4</ele>
        <time>2015-08-12T16:54:56Z</time>
      </trkpt>
      <trkpt lat="42.3412360" lon="1.7804680">
        <ele>1143.6</ele>
        <time>2015-08-12T16:54:58Z</time>
      </trkpt>
      <trkpt lat="42.3412060" lon="1.7804700">
        <ele>1144.0</ele>
        <time>2015-08-12T16:54:59Z</time>
      </trkpt>
      <trkpt lat="42.3411650" lon="1.7804580">
        <ele>1144.7</ele>
        <time>2015-08-12T16:55:01Z</time>
      </trkpt>
      <trkpt lat="42.3411370" lon="1.7804750">
        <ele>1144.9</ele>
        <time>2015-08-12T16:55:02Z</time>
      </trkpt>
      <trkpt lat="42.3410940" lon="1.7804890">
        <ele>1145.3</ele>
        <time>2015-08-12T16:55:04Z</time>
      </trkpt>
      <trkpt lat="42.3410580" lon="1.7804910">
        <ele>1145.7</ele>
        <time>2015-08-12T16:55:06Z</time>
      </trkpt>
      <trkpt lat="42.3410180" lon="1.7804920">
        <ele>1146.3</ele>
        <time>2015-08-12T16:55:08Z</time>
      </trkpt>
      <trkpt lat="42.3409770" lon="1.7804820">
        <ele>1147.0</ele>
        <time>2015-08-12T16:55:10Z</time>
      </trkpt>
      <trkpt lat="42.3409300" lon="1.7804890">
        <ele>1147.5</ele>
        <time>2015-08-12T16:55:12Z</time>
      </trkpt>
      <trkpt lat="42.3408930" lon="1.7804820">
        <ele>1148.2</ele>
        <time>2015-08-12T16:55:14Z</time>
      </trkpt>
      <trkpt lat="42.3408500" lon="1.7804900">
        <ele>1148.6</ele>
        <time>2015-08-12T16:55:16Z</time>
      </trkpt>
      <trkpt lat="42.3408060" lon="1.7804940">
        <ele>1149.2</ele>
        <time>2015-08-12T16:55:18Z</time>
      </trkpt>
      <trkpt lat="42.3407710" lon="1.7804820">
        <ele>1149.8</ele>
        <time>2015-08-12T16:55:20Z</time>
      </trkpt>
      <trkpt lat="42.3407270" lon="1.7804770">
        <ele>1150.5</ele>
        <time>2015-08-12T16:55:22Z</time>
      </trkpt>
      <trkpt lat="42.3406880" lon="1.7804690">
        <ele>1151.2</ele>
        <time>2015-08-12T16:55:24Z</time>
      </trkpt>
      <trkpt lat="42.3406500" lon="1.7804690">
        <ele>1151.7</ele>
        <time>2015-08-12T16:55:26Z</time>
      </trkpt>
      <trkpt lat="42.3406130" lon="1.7804580">
        <ele>1152.4</ele>
        <time>2015-08-12T16:55:28Z</time>
      </trkpt>
      <trkpt lat="42.3405830" lon="1.7804430">
        <ele>1153.1</ele>
        <time>2015-08-12T16:55:30Z</time>
      </trkpt>
      <trkpt lat="42.3405510" lon="1.7804450">
        <ele>1153.6</ele>
        <time>2015-08-12T16:55:32Z</time>
      </trkpt>
      <trkpt lat="42.3405140" lon="1.7804340">
        <ele>1154.3</ele>
        <time>2015-08-12T16:55:34Z</time>
      </trkpt>
      <trkpt lat="42.3404780" lon="1.7804110">
        <ele>1155.2</ele>
        <time>2015-08-12T16:55:36Z</time>
      </trkpt>
      <trkpt lat="42.3404390" lon="1.7804000">
        <ele>1155.8</ele>
        <time>2015-08-12T16:55:38Z</time>
      </trkpt>
      <trkpt lat="42.3403990" lon="1.7804200">
        <ele>1156.6</ele>
        <time>2015-08-12T16:55:40Z</time>
      </trkpt>
      <trkpt lat="42.3403670" lon="1.7804210">
        <ele>1157.7</ele>
        <time>2015-08-12T16:55:42Z</time>
      </trkpt>
      <trkpt lat="42.3403270" lon="1.7804100">
        <ele>1159.3</ele>
        <time>2015-08-12T16:55:44Z</time>
      </trkpt>
      <trkpt lat="42.3402810" lon="1.7804000">
        <ele>1161.0</ele>
        <time>2015-08-12T16:55:46Z</time>
      </trkpt>
      <trkpt lat="42.3402340" lon="1.7804030">
        <ele>1162.6</ele>
        <time>2015-08-12T16:55:48Z</time>
      </trkpt>
      <trkpt lat="42.3401910" lon="1.7804070">
        <ele>1164.2</ele>
        <time>2015-08-12T16:55:50Z</time>
      </trkpt>
      <trkpt lat="42.3401540" lon="1.7804310">
        <ele>1165.1</ele>
        <time>2015-08-12T16:55:52Z</time>
      </trkpt>
      <trkpt lat="42.3401170" lon="1.7804530">
        <ele>1165.8</ele>
        <time>2015-08-12T16:55:54Z</time>
      </trkpt>
      <trkpt lat="42.3400780" lon="1.7804760">
        <ele>1166.6</ele>
        <time>2015-08-12T16:55:56Z</time>
      </trkpt>
      <trkpt lat="42.3400460" lon="1.7805030">
        <ele>1166.9</ele>
        <time>2015-08-12T16:55:58Z</time>
      </trkpt>
      <trkpt lat="42.3400190" lon="1.7805390">
        <ele>1166.8</ele>
        <time>2015-08-12T16:56:00Z</time>
      </trkpt>
      <trkpt lat="42.3399910" lon="1.7805870">
        <ele>1166.4</ele>
        <time>2015-08-12T16:56:02Z</time>
      </trkpt>
      <trkpt lat="42.3399700" lon="1.7806150">
        <ele>1166.2</ele>
        <time>2015-08-12T16:56:03Z</time>
      </trkpt>
      <trkpt lat="42.3399360" lon="1.7806550">
        <ele>1166.1</ele>
        <time>2015-08-12T16:56:05Z</time>
      </trkpt>
      <trkpt lat="42.3399090" lon="1.7806860">
        <ele>1166.0</ele>
        <time>2015-08-12T16:56:07Z</time>
      </trkpt>
      <trkpt lat="42.3398820" lon="1.7807160">
        <ele>1165.8</ele>
        <time>2015-08-12T16:56:09Z</time>
      </trkpt>
      <trkpt lat="42.3398410" lon="1.7807400">
        <ele>1166.2</ele>
        <time>2015-08-12T16:56:11Z</time>
      </trkpt>
      <trkpt lat="42.3398020" lon="1.7807650">
        <ele>1166.5</ele>
        <time>2015-08-12T16:56:13Z</time>
      </trkpt>
      <trkpt lat="42.3397650" lon="1.7807940">
        <ele>1166.5</ele>
        <time>2015-08-12T16:56:15Z</time>
      </trkpt>
      <trkpt lat="42.3397280" lon="1.7808150">
        <ele>1166.8</ele>
        <time>2015-08-12T16:56:17Z</time>
      </trkpt>
      <trkpt lat="42.3396980" lon="1.7808400">
        <ele>1166.7</ele>
        <time>2015-08-12T16:56:19Z</time>
      </trkpt>
      <trkpt lat="42.3396540" lon="1.7808520">
        <ele>1167.4</ele>
        <time>2015-08-12T16:56:21Z</time>
      </trkpt>
      <trkpt lat="42.3396160" lon="1.7808660">
        <ele>1167.9</ele>
        <time>2015-08-12T16:56:23Z</time>
      </trkpt>
      <trkpt lat="42.3395730" lon="1.7808850">
        <ele>1168.2</ele>
        <time>2015-08-12T16:56:25Z</time>
      </trkpt>
      <trkpt lat="42.3395310" lon="1.7808960">
        <ele>1168.8</ele>
        <time>2015-08-12T16:56:27Z</time>
      </trkpt>
      <trkpt lat="42.3395040" lon="1.7809050">
        <ele>1169.0</ele>
        <time>2015-08-12T16:56:28Z</time>
      </trkpt>
      <trkpt lat="42.3394690" lon="1.7809250">
        <ele>1169.1</ele>
        <time>2015-08-12T16:56:30Z</time>
      </trkpt>
      <trkpt lat="42.3394310" lon="1.7809430">
        <ele>1169.2</ele>
        <time>2015-08-12T16:56:32Z</time>
      </trkpt>
      <trkpt lat="42.3393950" lon="1.7809670">
        <ele>1169.2</ele>
        <time>2015-08-12T16:56:34Z</time>
      </trkpt>
      <trkpt lat="42.3393600" lon="1.7809860">
        <ele>1169.2</ele>
        <time>2015-08-12T16:56:36Z</time>
      </trkpt>
      <trkpt lat="42.3393140" lon="1.7810020">
        <ele>1169.7</ele>
        <time>2015-08-12T16:56:38Z</time>
      </trkpt>
      <trkpt lat="42.3392830" lon="1.7809650">
        <ele>1171.8</ele>
        <time>2015-08-12T16:56:40Z</time>
      </trkpt>
      <trkpt lat="42.3392540" lon="1.7809910">
        <ele>1171.5</ele>
        <time>2015-08-12T16:56:42Z</time>
      </trkpt>
      <trkpt lat="42.3392170" lon="1.7810390">
        <ele>1170.6</ele>
        <time>2015-08-12T16:56:44Z</time>
      </trkpt>
      <trkpt lat="42.3391760" lon="1.7810480">
        <ele>1171.2</ele>
        <time>2015-08-12T16:56:46Z</time>
      </trkpt>
      <trkpt lat="42.3391380" lon="1.7810690">
        <ele>1171.3</ele>
        <time>2015-08-12T16:56:48Z</time>
      </trkpt>
      <trkpt lat="42.3390850" lon="1.7810830">
        <ele>1172.0</ele>
        <time>2015-08-12T16:56:50Z</time>
      </trkpt>
      <trkpt lat="42.3390420" lon="1.7811040">
        <ele>1172.3</ele>
        <time>2015-08-12T16:56:52Z</time>
      </trkpt>
      <trkpt lat="42.3390090" lon="1.7811200">
        <ele>1172.5</ele>
        <time>2015-08-12T16:56:54Z</time>
      </trkpt>
      <trkpt lat="42.3389670" lon="1.7811420">
        <ele>1172.7</ele>
        <time>2015-08-12T16:56:56Z</time>
      </trkpt>
      <trkpt lat="42.3389280" lon="1.7811560">
        <ele>1173.1</ele>
        <time>2015-08-12T16:56:58Z</time>
      </trkpt>
      <trkpt lat="42.3388900" lon="1.7811680">
        <ele>1173.5</ele>
        <time>2015-08-12T16:57:00Z</time>
      </trkpt>
      <trkpt lat="42.3388530" lon="1.7811740">
        <ele>1174.2</ele>
        <time>2015-08-12T16:57:02Z</time>
      </trkpt>
      <trkpt lat="42.3388090" lon="1.7811850">
        <ele>1174.9</ele>
        <time>2015-08-12T16:57:04Z</time>
      </trkpt>
      <trkpt lat="42.3387650" lon="1.7812060">
        <ele>1175.2</ele>
        <time>2015-08-12T16:57:06Z</time>
      </trkpt>
      <trkpt lat="42.3387300" lon="1.7812290">
        <ele>1175.1</ele>
        <time>2015-08-12T16:57:08Z</time>
      </trkpt>
      <trkpt lat="42.3386910" lon="1.7812530">
        <ele>1174.9</ele>
        <time>2015-08-12T16:57:10Z</time>
      </trkpt>
      <trkpt lat="42.3386590" lon="1.7812680">
        <ele>1175.1</ele>
        <time>2015-08-12T16:57:12Z</time>
      </trkpt>
      <trkpt lat="42.3386220" lon="1.7812790">
        <ele>1175.4</ele>
        <time>2015-08-12T16:57:14Z</time>
      </trkpt>
      <trkpt lat="42.3385840" lon="1.7812930">
        <ele>1175.7</ele>
        <time>2015-08-12T16:57:16Z</time>
      </trkpt>
      <trkpt lat="42.3385480" lon="1.7813220">
        <ele>1175.5</ele>
        <time>2015-08-12T16:57:18Z</time>
      </trkpt>
      <trkpt lat="42.3385040" lon="1.7813380">
        <ele>1175.9</ele>
        <time>2015-08-12T16:57:20Z</time>
      </trkpt>
      <trkpt lat="42.3384690" lon="1.7813690">
        <ele>1175.7</ele>
        <time>2015-08-12T16:57:22Z</time>
      </trkpt>
      <trkpt lat="42.3384380" lon="1.7813960">
        <ele>1175.5</ele>
        <time>2015-08-12T16:57:25Z</time>
      </trkpt>
      <trkpt lat="42.3384010" lon="1.7813980">
        <ele>1176.1</ele>
        <time>2015-08-12T16:57:27Z</time>
      </trkpt>
      <trkpt lat="42.3383670" lon="1.7814310">
        <ele>1175.9</ele>
        <time>2015-08-12T16:57:29Z</time>
      </trkpt>
      <trkpt lat="42.3383380" lon="1.7814610">
        <ele>1175.6</ele>
        <time>2015-08-12T16:57:31Z</time>
      </trkpt>
      <trkpt lat="42.3383120" lon="1.7814930">
        <ele>1175.2</ele>
        <time>2015-08-12T16:57:33Z</time>
      </trkpt>
      <trkpt lat="42.3382730" lon="1.7815110">
        <ele>1175.5</ele>
        <time>2015-08-12T16:57:35Z</time>
      </trkpt>
      <trkpt lat="42.3382370" lon="1.7815340">
        <ele>1175.5</ele>
        <time>2015-08-12T16:57:37Z</time>
      </trkpt>
      <trkpt lat="42.3381920" lon="1.7815540">
        <ele>1175.8</ele>
        <time>2015-08-12T16:57:39Z</time>
      </trkpt>
      <trkpt lat="42.3381580" lon="1.7815630">
        <ele>1176.2</ele>
        <time>2015-08-12T16:57:41Z</time>
      </trkpt>
      <trkpt lat="42.3381300" lon="1.7815880">
        <ele>1176.1</ele>
        <time>2015-08-12T16:57:43Z</time>
      </trkpt>
      <trkpt lat="42.3380820" lon="1.7816100">
        <ele>1176.4</ele>
        <time>2015-08-12T16:57:46Z</time>
      </trkpt>
      <trkpt lat="42.3380390" lon="1.7816110">
        <ele>1177.2</ele>
        <time>2015-08-12T16:57:48Z</time>
      </trkpt>
      <trkpt lat="42.3380090" lon="1.7816100">
        <ele>1177.7</ele>
        <time>2015-08-12T16:57:51Z</time>
      </trkpt>
      <trkpt lat="42.3379680" lon="1.7816210">
        <ele>1178.2</ele>
        <time>2015-08-12T16:57:53Z</time>
      </trkpt>
      <trkpt lat="42.3379410" lon="1.7816020">
        <ele>1179.1</ele>
        <time>2015-08-12T16:57:56Z</time>
      </trkpt>
      <trkpt lat="42.3379160" lon="1.7816270">
        <ele>1179.0</ele>
        <time>2015-08-12T16:57:58Z</time>
      </trkpt>
      <trkpt lat="42.3378920" lon="1.7816440">
        <ele>1179.4</ele>
        <time>2015-08-12T16:58:00Z</time>
      </trkpt>
      <trkpt lat="42.3378550" lon="1.7816510">
        <ele>1180.6</ele>
        <time>2015-08-12T16:58:02Z</time>
      </trkpt>
      <trkpt lat="42.3378170" lon="1.7816630">
        <ele>1181.6</ele>
        <time>2015-08-12T16:58:05Z</time>
      </trkpt>
      <trkpt lat="42.3377840" lon="1.7816770">
        <ele>1182.4</ele>
        <time>2015-08-12T16:58:07Z</time>
      </trkpt>
      <trkpt lat="42.3377530" lon="1.7816950">
        <ele>1183.1</ele>
        <time>2015-08-12T16:58:09Z</time>
      </trkpt>
      <trkpt lat="42.3377240" lon="1.7817030">
        <ele>1183.9</ele>
        <time>2015-08-12T16:58:11Z</time>
      </trkpt>
      <trkpt lat="42.3377000" lon="1.7816680">
        <ele>1185.6</ele>
        <time>2015-08-12T16:58:14Z</time>
      </trkpt>
      <trkpt lat="42.3376460" lon="1.7816980">
        <ele>1186.8</ele>
        <time>2015-08-12T16:58:17Z</time>
      </trkpt>
      <trkpt lat="42.3375920" lon="1.7817250">
        <ele>1188.0</ele>
        <time>2015-08-12T16:58:19Z</time>
      </trkpt>
      <trkpt lat="42.3375740" lon="1.7817560">
        <ele>1187.9</ele>
        <time>2015-08-12T16:58:20Z</time>
      </trkpt>
      <trkpt lat="42.3375550" lon="1.7817940">
        <ele>1187.5</ele>
        <time>2015-08-12T16:58:21Z</time>
      </trkpt>
      <trkpt lat="42.3375360" lon="1.7818190">
        <ele>1187.6</ele>
        <time>2015-08-12T16:58:22Z</time>
      </trkpt>
      <trkpt lat="42.3374880" lon="1.7818370">
        <ele>1188.8</ele>
        <time>2015-08-12T16:58:24Z</time>
      </trkpt>
      <trkpt lat="42.3374400" lon="1.7818510">
        <ele>1190.1</ele>
        <time>2015-08-12T16:58:26Z</time>
      </trkpt>
      <trkpt lat="42.3374160" lon="1.7818840">
        <ele>1190.0</ele>
        <time>2015-08-12T16:58:28Z</time>
      </trkpt>
      <trkpt lat="42.3373870" lon="1.7819210">
        <ele>1190.1</ele>
        <time>2015-08-12T16:58:30Z</time>
      </trkpt>
      <trkpt lat="42.3373720" lon="1.7819530">
        <ele>1189.7</ele>
        <time>2015-08-12T16:58:32Z</time>
      </trkpt>
      <trkpt lat="42.3373450" lon="1.7819960">
        <ele>1189.5</ele>
        <time>2015-08-12T16:58:34Z</time>
      </trkpt>
      <trkpt lat="42.3373230" lon="1.7820290">
        <ele>1189.4</ele>
        <time>2015-08-12T16:58:36Z</time>
      </trkpt>
      <trkpt lat="42.3372950" lon="1.7820550">
        <ele>1189.6</ele>
        <time>2015-08-12T16:58:38Z</time>
      </trkpt>
      <trkpt lat="42.3372570" lon="1.7820810">
        <ele>1190.2</ele>
        <time>2015-08-12T16:58:40Z</time>
      </trkpt>
      <trkpt lat="42.3372160" lon="1.7821090">
        <ele>1191.0</ele>
        <time>2015-08-12T16:58:42Z</time>
      </trkpt>
      <trkpt lat="42.3371980" lon="1.7821530">
        <ele>1190.6</ele>
        <time>2015-08-12T16:58:45Z</time>
      </trkpt>
      <trkpt lat="42.3371730" lon="1.7821910">
        <ele>1190.6</ele>
        <time>2015-08-12T16:58:47Z</time>
      </trkpt>
      <trkpt lat="42.3371480" lon="1.7822050">
        <ele>1191.1</ele>
        <time>2015-08-12T16:58:48Z</time>
      </trkpt>
      <trkpt lat="42.3371200" lon="1.7822340">
        <ele>1191.4</ele>
        <time>2015-08-12T16:58:50Z</time>
      </trkpt>
      <trkpt lat="42.3371040" lon="1.7822640">
        <ele>1191.2</ele>
        <time>2015-08-12T16:58:51Z</time>
      </trkpt>
      <trkpt lat="42.3370750" lon="1.7823090">
        <ele>1191.1</ele>
        <time>2015-08-12T16:58:53Z</time>
      </trkpt>
      <trkpt lat="42.3370500" lon="1.7823590">
        <ele>1190.8</ele>
        <time>2015-08-12T16:58:55Z</time>
      </trkpt>
      <trkpt lat="42.3370270" lon="1.7823890">
        <ele>1190.8</ele>
        <time>2015-08-12T16:58:57Z</time>
      </trkpt>
      <trkpt lat="42.3370060" lon="1.7824300">
        <ele>1190.4</ele>
        <time>2015-08-12T16:58:59Z</time>
      </trkpt>
      <trkpt lat="42.3369750" lon="1.7824640">
        <ele>1190.5</ele>
        <time>2015-08-12T16:59:01Z</time>
      </trkpt>
      <trkpt lat="42.3369370" lon="1.7825010">
        <ele>1190.7</ele>
        <time>2015-08-12T16:59:03Z</time>
      </trkpt>
      <trkpt lat="42.3368920" lon="1.7825320">
        <ele>1191.1</ele>
        <time>2015-08-12T16:59:05Z</time>
      </trkpt>
      <trkpt lat="42.3368510" lon="1.7825840">
        <ele>1190.8</ele>
        <time>2015-08-12T16:59:07Z</time>
      </trkpt>
      <trkpt lat="42.3368270" lon="1.7826080">
        <ele>1190.8</ele>
        <time>2015-08-12T16:59:08Z</time>
      </trkpt>
      <trkpt lat="42.3367820" lon="1.7826360">
        <ele>1191.1</ele>
        <time>2015-08-12T16:59:10Z</time>
      </trkpt>
      <trkpt lat="42.3367510" lon="1.7826840">
        <ele>1190.5</ele>
        <time>2015-08-12T16:59:12Z</time>
      </trkpt>
      <trkpt lat="42.3367340" lon="1.7827140">
        <ele>1190.0</ele>
        <time>2015-08-12T16:59:13Z</time>
      </trkpt>
      <trkpt lat="42.3367020" lon="1.7827620">
        <ele>1189.2</ele>
        <time>2015-08-12T16:59:15Z</time>
      </trkpt>
      <trkpt lat="42.3366850" lon="1.7828010">
        <ele>1188.3</ele>
        <time>2015-08-12T16:59:16Z</time>
      </trkpt>
      <trkpt lat="42.3366680" lon="1.7828440">
        <ele>1187.3</ele>
        <time>2015-08-12T16:59:17Z</time>
      </trkpt>
      <trkpt lat="42.3366450" lon="1.7828800">
        <ele>1186.6</ele>
        <time>2015-08-12T16:59:18Z</time>
      </trkpt>
      <trkpt lat="42.3366230" lon="1.7829150">
        <ele>1185.9</ele>
        <time>2015-08-12T16:59:19Z</time>
      </trkpt>
      <trkpt lat="42.3366010" lon="1.7829400">
        <ele>1185.7</ele>
        <time>2015-08-12T16:59:20Z</time>
      </trkpt>
      <trkpt lat="42.3365840" lon="1.7829710">
        <ele>1185.3</ele>
        <time>2015-08-12T16:59:21Z</time>
      </trkpt>
      <trkpt lat="42.3365410" lon="1.7830050">
        <ele>1185.3</ele>
        <time>2015-08-12T16:59:22Z</time>
      </trkpt>
      <trkpt lat="42.3365160" lon="1.7830410">
        <ele>1184.9</ele>
        <time>2015-08-12T16:59:23Z</time>
      </trkpt>
      <trkpt lat="42.3364880" lon="1.7830680">
        <ele>1184.8</ele>
        <time>2015-08-12T16:59:24Z</time>
      </trkpt>
      <trkpt lat="42.3364520" lon="1.7831000">
        <ele>1184.7</ele>
        <time>2015-08-12T16:59:25Z</time>
      </trkpt>
      <trkpt lat="42.3364290" lon="1.7831300">
        <ele>1184.3</ele>
        <time>2015-08-12T16:59:27Z</time>
      </trkpt>
      <trkpt lat="42.3363750" lon="1.7831500">
        <ele>1184.7</ele>
        <time>2015-08-12T16:59:29Z</time>
      </trkpt>
      <trkpt lat="42.3363430" lon="1.7831570">
        <ele>1185.1</ele>
        <time>2015-08-12T16:59:30Z</time>
      </trkpt>
      <trkpt lat="42.3363170" lon="1.7831770">
        <ele>1185.0</ele>
        <time>2015-08-12T16:59:31Z</time>
      </trkpt>
      <trkpt lat="42.3362720" lon="1.7831790">
        <ele>1185.7</ele>
        <time>2015-08-12T16:59:32Z</time>
      </trkpt>
      <trkpt lat="42.3362410" lon="1.7831860">
        <ele>1186.1</ele>
        <time>2015-08-12T16:59:33Z</time>
      </trkpt>
      <trkpt lat="42.3361990" lon="1.7831820">
        <ele>1187.0</ele>
        <time>2015-08-12T16:59:34Z</time>
      </trkpt>
      <trkpt lat="42.3361350" lon="1.7831390">
        <ele>1189.4</ele>
        <time>2015-08-12T16:59:35Z</time>
      </trkpt>
      <trkpt lat="42.3360960" lon="1.7831330">
        <ele>1190.3</ele>
        <time>2015-08-12T16:59:36Z</time>
      </trkpt>
      <trkpt lat="42.3360640" lon="1.7830170">
        <ele>1194.2</ele>
        <time>2015-08-12T16:59:37Z</time>
      </trkpt>
      <trkpt lat="42.3360300" lon="1.7829890">
        <ele>1195.7</ele>
        <time>2015-08-12T16:59:38Z</time>
      </trkpt>
      <trkpt lat="42.3359770" lon="1.7829620">
        <ele>1197.6</ele>
        <time>2015-08-12T16:59:39Z</time>
      </trkpt>
      <trkpt lat="42.3359210" lon="1.7829290">
        <ele>1199.7</ele>
        <time>2015-08-12T16:59:40Z</time>
      </trkpt>
      <trkpt lat="42.3358690" lon="1.7828940">
        <ele>1202.2</ele>
        <time>2015-08-12T16:59:41Z</time>
      </trkpt>
      <trkpt lat="42.3358170" lon="1.7828940">
        <ele>1203.4</ele>
        <time>2015-08-12T16:59:42Z</time>
      </trkpt>
      <trkpt lat="42.3357720" lon="1.7828930">
        <ele>1204.4</ele>
        <time>2015-08-12T16:59:44Z</time>
      </trkpt>
      <trkpt lat="42.3357430" lon="1.7828960">
        <ele>1204.9</ele>
        <time>2015-08-12T16:59:45Z</time>
      </trkpt>
      <trkpt lat="42.3357130" lon="1.7828970">
        <ele>1205.5</ele>
        <time>2015-08-12T16:59:46Z</time>
      </trkpt>
      <trkpt lat="42.3356100" lon="1.7829150">
        <ele>1206.9</ele>
        <time>2015-08-12T16:59:48Z</time>
      </trkpt>
      <trkpt lat="42.3355690" lon="1.7829220">
        <ele>1207.5</ele>
        <time>2015-08-12T16:59:49Z</time>
      </trkpt>
      <trkpt lat="42.3355270" lon="1.7829580">
        <ele>1207.2</ele>
        <time>2015-08-12T16:59:50Z</time>
      </trkpt>
      <trkpt lat="42.3354830" lon="1.7829880">
        <ele>1207.1</ele>
        <time>2015-08-12T16:59:52Z</time>
      </trkpt>
      <trkpt lat="42.3354700" lon="1.7830220">
        <ele>1206.2</ele>
        <time>2015-08-12T16:59:53Z</time>
      </trkpt>
      <trkpt lat="42.3354420" lon="1.7830320">
        <ele>1206.5</ele>
        <time>2015-08-12T16:59:54Z</time>
      </trkpt>
      <trkpt lat="42.3353930" lon="1.7830520">
        <ele>1206.7</ele>
        <time>2015-08-12T16:59:56Z</time>
      </trkpt>
      <trkpt lat="42.3353580" lon="1.7830700">
        <ele>1206.8</ele>
        <time>2015-08-12T16:59:58Z</time>
      </trkpt>
      <trkpt lat="42.3353210" lon="1.7830710">
        <ele>1207.4</ele>
        <time>2015-08-12T17:00:00Z</time>
      </trkpt>
      <trkpt lat="42.3352780" lon="1.7830940">
        <ele>1207.4</ele>
        <time>2015-08-12T17:00:02Z</time>
      </trkpt>
      <trkpt lat="42.3352290" lon="1.7831170">
        <ele>1207.4</ele>
        <time>2015-08-12T17:00:04Z</time>
      </trkpt>
      <trkpt lat="42.3352040" lon="1.7831340">
        <ele>1207.2</ele>
        <time>2015-08-12T17:00:05Z</time>
      </trkpt>
      <trkpt lat="42.3351620" lon="1.7831530">
        <ele>1207.3</ele>
        <time>2015-08-12T17:00:07Z</time>
      </trkpt>
      <trkpt lat="42.3351220" lon="1.7831680">
        <ele>1207.4</ele>
        <time>2015-08-12T17:00:09Z</time>
      </trkpt>
      <trkpt lat="42.3350890" lon="1.7831870">
        <ele>1207.3</ele>
        <time>2015-08-12T17:00:11Z</time>
      </trkpt>
      <trkpt lat="42.3350480" lon="1.7832050">
        <ele>1207.3</ele>
        <time>2015-08-12T17:00:13Z</time>
      </trkpt>
      <trkpt lat="42.3350240" lon="1.7832250">
        <ele>1206.9</ele>
        <time>2015-08-12T17:00:14Z</time>
      </trkpt>
      <trkpt lat="42.3349790" lon="1.7832540">
        <ele>1206.5</ele>
        <time>2015-08-12T17:00:16Z</time>
      </trkpt>
      <trkpt lat="42.3349400" lon="1.7832730">
        <ele>1206.4</ele>
        <time>2015-08-12T17:00:18Z</time>
      </trkpt>
      <trkpt lat="42.3349040" lon="1.7832900">
        <ele>1206.3</ele>
        <time>2015-08-12T17:00:20Z</time>
      </trkpt>
      <trkpt lat="42.3348760" lon="1.7832960">
        <ele>1206.5</ele>
        <time>2015-08-12T17:00:21Z</time>
      </trkpt>
      <trkpt lat="42.3348460" lon="1.7833210">
        <ele>1205.9</ele>
        <time>2015-08-12T17:00:23Z</time>
      </trkpt>
      <trkpt lat="42.3348080" lon="1.7833270">
        <ele>1206.3</ele>
        <time>2015-08-12T17:00:25Z</time>
      </trkpt>
      <trkpt lat="42.3347800" lon="1.7833190">
        <ele>1207.0</ele>
        <time>2015-08-12T17:00:26Z</time>
      </trkpt>
      <trkpt lat="42.3347440" lon="1.7833420">
        <ele>1206.6</ele>
        <time>2015-08-12T17:00:28Z</time>
      </trkpt>
      <trkpt lat="42.3347070" lon="1.7833750">
        <ele>1205.8</ele>
        <time>2015-08-12T17:00:30Z</time>
      </trkpt>
      <trkpt lat="42.3346720" lon="1.7834220">
        <ele>1204.3</ele>
        <time>2015-08-12T17:00:32Z</time>
      </trkpt>
      <trkpt lat="42.3346300" lon="1.7834400">
        <ele>1204.1</ele>
        <time>2015-08-12T17:00:34Z</time>
      </trkpt>
      <trkpt lat="42.3345970" lon="1.7834540">
        <ele>1203.9</ele>
        <time>2015-08-12T17:00:36Z</time>
      </trkpt>
      <trkpt lat="42.3345610" lon="1.7834660">
        <ele>1204.0</ele>
        <time>2015-08-12T17:00:38Z</time>
      </trkpt>
      <trkpt lat="42.3345200" lon="1.7834810">
        <ele>1204.0</ele>
        <time>2015-08-12T17:00:40Z</time>
      </trkpt>
      <trkpt lat="42.3344930" lon="1.7835010">
        <ele>1203.5</ele>
        <time>2015-08-12T17:00:41Z</time>
      </trkpt>
      <trkpt lat="42.3344600" lon="1.7835250">
        <ele>1203.0</ele>
        <time>2015-08-12T17:00:43Z</time>
      </trkpt>
      <trkpt lat="42.3344130" lon="1.7835430">
        <ele>1202.9</ele>
        <time>2015-08-12T17:00:45Z</time>
      </trkpt>
      <trkpt lat="42.3343830" lon="1.7835470">
        <ele>1203.3</ele>
        <time>2015-08-12T17:00:46Z</time>
      </trkpt>
      <trkpt lat="42.3343330" lon="1.7835660">
        <ele>1203.2</ele>
        <time>2015-08-12T17:00:48Z</time>
      </trkpt>
      <trkpt lat="42.3342890" lon="1.7835530">
        <ele>1204.5</ele>
        <time>2015-08-12T17:00:50Z</time>
      </trkpt>
      <trkpt lat="42.3342600" lon="1.7835370">
        <ele>1205.7</ele>
        <time>2015-08-12T17:00:52Z</time>
      </trkpt>
      <trkpt lat="42.3342240" lon="1.7835300">
        <ele>1206.6</ele>
        <time>2015-08-12T17:00:54Z</time>
      </trkpt>
      <trkpt lat="42.3341870" lon="1.7835320">
        <ele>1207.1</ele>
        <time>2015-08-12T17:00:56Z</time>
      </trkpt>
      <trkpt lat="42.3341500" lon="1.7835170">
        <ele>1208.4</ele>
        <time>2015-08-12T17:00:58Z</time>
      </trkpt>
      <trkpt lat="42.3341130" lon="1.7835180">
        <ele>1209.0</ele>
        <time>2015-08-12T17:01:00Z</time>
      </trkpt>
      <trkpt lat="42.3340850" lon="1.7835000">
        <ele>1210.2</ele>
        <time>2015-08-12T17:01:02Z</time>
      </trkpt>
      <trkpt lat="42.3340600" lon="1.7834680">
        <ele>1212.1</ele>
        <time>2015-08-12T17:01:04Z</time>
      </trkpt>
      <trkpt lat="42.3340360" lon="1.7834510">
        <ele>1213.3</ele>
        <time>2015-08-12T17:01:07Z</time>
      </trkpt>
      <trkpt lat="42.3340000" lon="1.7834150">
        <ele>1215.5</ele>
        <time>2015-08-12T17:01:10Z</time>
      </trkpt>
      <trkpt lat="42.3339670" lon="1.7834010">
        <ele>1216.7</ele>
        <time>2015-08-12T17:01:13Z</time>
      </trkpt>
      <trkpt lat="42.3339360" lon="1.7833740">
        <ele>1218.5</ele>
        <time>2015-08-12T17:01:15Z</time>
      </trkpt>
      <trkpt lat="42.3339040" lon="1.7833690">
        <ele>1219.3</ele>
        <time>2015-08-12T17:01:17Z</time>
      </trkpt>
      <trkpt lat="42.3338730" lon="1.7833620">
        <ele>1220.1</ele>
        <time>2015-08-12T17:01:19Z</time>
      </trkpt>
      <trkpt lat="42.3338380" lon="1.7833550">
        <ele>1221.0</ele>
        <time>2015-08-12T17:01:22Z</time>
      </trkpt>
      <trkpt lat="42.3338050" lon="1.7833360">
        <ele>1222.5</ele>
        <time>2015-08-12T17:01:24Z</time>
      </trkpt>
      <trkpt lat="42.3337850" lon="1.7833830">
        <ele>1220.6</ele>
        <time>2015-08-12T17:01:26Z</time>
      </trkpt>
      <trkpt lat="42.3337560" lon="1.7833900">
        <ele>1220.7</ele>
        <time>2015-08-12T17:01:28Z</time>
      </trkpt>
      <trkpt lat="42.3337210" lon="1.7833900">
        <ele>1221.6</ele>
        <time>2015-08-12T17:01:31Z</time>
      </trkpt>
      <trkpt lat="42.3336860" lon="1.7833810">
        <ele>1222.8</ele>
        <time>2015-08-12T17:01:34Z</time>
      </trkpt>
      <trkpt lat="42.3336630" lon="1.7833440">
        <ele>1225.1</ele>
        <time>2015-08-12T17:01:38Z</time>
      </trkpt>
      <trkpt lat="42.3336300" lon="1.7833610">
        <ele>1225.2</ele>
        <time>2015-08-12T17:01:41Z</time>
      </trkpt>
      <trkpt lat="42.3335660" lon="1.7833330">
        <ele>1228.0</ele>
        <time>2015-08-12T17:01:44Z</time>
      </trkpt>
      <trkpt lat="42.3335370" lon="1.7833330">
        <ele>1228.8</ele>
        <time>2015-08-12T17:01:46Z</time>
      </trkpt>
      <trkpt lat="42.3335610" lon="1.7833600">
        <ele>1226.9</ele>
        <time>2015-08-12T17:01:47Z</time>
      </trkpt>
      <trkpt lat="42.3335340" lon="1.7834270">
        <ele>1224.5</ele>
        <time>2015-08-12T17:01:51Z</time>
      </trkpt>
      <trkpt lat="42.3335170" lon="1.7834660">
        <ele>1223.1</ele>
        <time>2015-08-12T17:01:53Z</time>
      </trkpt>
      <trkpt lat="42.3334970" lon="1.7835150">
        <ele>1221.3</ele>
        <time>2015-08-12T17:01:54Z</time>
      </trkpt>
      <trkpt lat="42.3334740" lon="1.7835450">
        <ele>1220.5</ele>
        <time>2015-08-12T17:01:55Z</time>
      </trkpt>
      <trkpt lat="42.3334480" lon="1.7835790">
        <ele>1219.5</ele>
        <time>2015-08-12T17:01:58Z</time>
      </trkpt>
      <trkpt lat="42.3334280" lon="1.7836080">
        <ele>1218.7</ele>
        <time>2015-08-12T17:02:00Z</time>
      </trkpt>
      <trkpt lat="42.3333920" lon="1.7836420">
        <ele>1218.0</ele>
        <time>2015-08-12T17:02:02Z</time>
      </trkpt>
      <trkpt lat="42.3333650" lon="1.7836850">
        <ele>1216.7</ele>
        <time>2015-08-12T17:02:04Z</time>
      </trkpt>
      <trkpt lat="42.3333560" lon="1.7837250">
        <ele>1215.1</ele>
        <time>2015-08-12T17:02:05Z</time>
      </trkpt>
      <trkpt lat="42.3333310" lon="1.7837630">
        <ele>1214.3</ele>
        <time>2015-08-12T17:02:07Z</time>
      </trkpt>
      <trkpt lat="42.3333150" lon="1.7838170">
        <ele>1213.6</ele>
        <time>2015-08-12T17:02:08Z</time>
      </trkpt>
      <trkpt lat="42.3332870" lon="1.7838090">
        <ele>1214.4</ele>
        <time>2015-08-12T17:02:09Z</time>
      </trkpt>
      <trkpt lat="42.3332590" lon="1.7838610">
        <ele>1214.0</ele>
        <time>2015-08-12T17:02:11Z</time>
      </trkpt>
      <trkpt lat="42.3332320" lon="1.7838960">
        <ele>1213.9</ele>
        <time>2015-08-12T17:02:13Z</time>
      </trkpt>
      <trkpt lat="42.3332170" lon="1.7839390">
        <ele>1213.3</ele>
        <time>2015-08-12T17:02:16Z</time>
      </trkpt>
      <trkpt lat="42.3331860" lon="1.7839740">
        <ele>1213.3</ele>
        <time>2015-08-12T17:02:18Z</time>
      </trkpt>
      <trkpt lat="42.3331590" lon="1.7839560">
        <ele>1214.3</ele>
        <time>2015-08-12T17:02:19Z</time>
      </trkpt>
      <trkpt lat="42.3331090" lon="1.7839480">
        <ele>1215.6</ele>
        <time>2015-08-12T17:02:21Z</time>
      </trkpt>
      <trkpt lat="42.3330770" lon="1.7839390">
        <ele>1216.5</ele>
        <time>2015-08-12T17:02:23Z</time>
      </trkpt>
      <trkpt lat="42.3330350" lon="1.7839090">
        <ele>1218.2</ele>
        <time>2015-08-12T17:02:25Z</time>
      </trkpt>
      <trkpt lat="42.3330020" lon="1.7839110">
        <ele>1219.0</ele>
        <time>2015-08-12T17:02:28Z</time>
      </trkpt>
      <trkpt lat="42.3329810" lon="1.7839360">
        <ele>1218.8</ele>
        <time>2015-08-12T17:02:30Z</time>
      </trkpt>
      <trkpt lat="42.3329430" lon="1.7839500">
        <ele>1219.4</ele>
        <time>2015-08-12T17:02:33Z</time>
      </trkpt>
      <trkpt lat="42.3329060" lon="1.7839540">
        <ele>1220.0</ele>
        <time>2015-08-12T17:02:35Z</time>
      </trkpt>
      <trkpt lat="42.3328740" lon="1.7839630">
        <ele>1220.3</ele>
        <time>2015-08-12T17:02:37Z</time>
      </trkpt>
      <trkpt lat="42.3328430" lon="1.7840040">
        <ele>1219.8</ele>
        <time>2015-08-12T17:02:40Z</time>
      </trkpt>
      <trkpt lat="42.3328470" lon="1.7840410">
        <ele>1218.8</ele>
        <time>2015-08-12T17:02:41Z</time>
      </trkpt>
      <trkpt lat="42.3328280" lon="1.7840840">
        <ele>1218.0</ele>
        <time>2015-08-12T17:02:43Z</time>
      </trkpt>
      <trkpt lat="42.3327820" lon="1.7841270">
        <ele>1217.6</ele>
        <time>2015-08-12T17:02:45Z</time>
      </trkpt>
      <trkpt lat="42.3327570" lon="1.7841350">
        <ele>1217.7</ele>
        <time>2015-08-12T17:02:47Z</time>
      </trkpt>
      <trkpt lat="42.3327320" lon="1.7841440">
        <ele>1217.9</ele>
        <time>2015-08-12T17:02:49Z</time>
      </trkpt>
      <trkpt lat="42.3327060" lon="1.7841530">
        <ele>1218.0</ele>
        <time>2015-08-12T17:02:51Z</time>
      </trkpt>
      <trkpt lat="42.3326810" lon="1.7841610">
        <ele>1218.2</ele>
        <time>2015-08-12T17:02:53Z</time>
      </trkpt>
      <trkpt lat="42.3326560" lon="1.7841700">
        <ele>1218.3</ele>
        <time>2015-08-12T17:02:54Z</time>
      </trkpt>
      <trkpt lat="42.3326290" lon="1.7841760">
        <ele>1218.6</ele>
        <time>2015-08-12T17:02:56Z</time>
      </trkpt>
      <trkpt lat="42.3325990" lon="1.7841750">
        <ele>1219.0</ele>
        <time>2015-08-12T17:02:57Z</time>
      </trkpt>
      <trkpt lat="42.3325720" lon="1.7841840">
        <ele>1219.2</ele>
        <time>2015-08-12T17:02:59Z</time>
      </trkpt>
      <trkpt lat="42.3325240" lon="1.7841720">
        <ele>1220.2</ele>
        <time>2015-08-12T17:03:01Z</time>
      </trkpt>
      <trkpt lat="42.3324760" lon="1.7841720">
        <ele>1221.0</ele>
        <time>2015-08-12T17:03:03Z</time>
      </trkpt>
      <trkpt lat="42.3324420" lon="1.7841760">
        <ele>1221.4</ele>
        <time>2015-08-12T17:03:04Z</time>
      </trkpt>
      <trkpt lat="42.3323980" lon="1.7841640">
        <ele>1222.4</ele>
        <time>2015-08-12T17:03:05Z</time>
      </trkpt>
      <trkpt lat="42.3323410" lon="1.7841250">
        <ele>1224.4</ele>
        <time>2015-08-12T17:03:07Z</time>
      </trkpt>
      <trkpt lat="42.3323100" lon="1.7840840">
        <ele>1226.0</ele>
        <time>2015-08-12T17:03:08Z</time>
      </trkpt>
      <trkpt lat="42.3323320" lon="1.7841670">
        <ele>1223.3</ele>
        <time>2015-08-12T17:03:09Z</time>
      </trkpt>
      <trkpt lat="42.3322990" lon="1.7841850">
        <ele>1223.2</ele>
        <time>2015-08-12T17:03:11Z</time>
      </trkpt>
      <trkpt lat="42.3322700" lon="1.7841580">
        <ele>1224.5</ele>
        <time>2015-08-12T17:03:12Z</time>
      </trkpt>
      <trkpt lat="42.3322280" lon="1.7841440">
        <ele>1225.5</ele>
        <time>2015-08-12T17:03:14Z</time>
      </trkpt>
      <trkpt lat="42.3321780" lon="1.7841320">
        <ele>1226.6</ele>
        <time>2015-08-12T17:03:16Z</time>
      </trkpt>
      <trkpt lat="42.3321470" lon="1.7841370">
        <ele>1227.0</ele>
        <time>2015-08-12T17:03:17Z</time>
      </trkpt>
      <trkpt lat="42.3321930" lon="1.7841750">
        <ele>1225.1</ele>
        <time>2015-08-12T17:03:18Z</time>
      </trkpt>
      <trkpt lat="42.3321770" lon="1.7841450">
        <ele>1226.3</ele>
        <time>2015-08-12T17:03:24Z</time>
      </trkpt>
      <trkpt lat="42.3322100" lon="1.7841270">
        <ele>1226.3</ele>
        <time>2015-08-12T17:05:44Z</time>
      </trkpt>
      <trkpt lat="42.3321820" lon="1.7840760">
        <ele>1228.3</ele>
        <time>2015-08-12T17:05:46Z</time>
      </trkpt>
      <trkpt lat="42.3322190" lon="1.7840990">
        <ele>1227.0</ele>
        <time>2015-08-12T17:05:48Z</time>
      </trkpt>
      <trkpt lat="42.3322400" lon="1.7841300">
        <ele>1225.8</ele>
        <time>2015-08-12T17:05:49Z</time>
      </trkpt>
      <trkpt lat="42.3322180" lon="1.7841060">
        <ele>1226.8</ele>
        <time>2015-08-12T17:07:21Z</time>
      </trkpt>
      <trkpt lat="42.3322330" lon="1.7840730">
        <ele>1227.6</ele>
        <time>2015-08-12T17:11:26Z</time>
      </trkpt>
      <trkpt lat="42.3321870" lon="1.7840160">
        <ele>1230.0</ele>
        <time>2015-08-12T17:11:29Z</time>
      </trkpt>
      <trkpt lat="42.3321440" lon="1.7840020">
        <ele>1231.2</ele>
        <time>2015-08-12T17:11:34Z</time>
      </trkpt>
      <trkpt lat="42.3321310" lon="1.7840100">
        <ele>1231.1</ele>
        <time>2015-08-12T17:11:36Z</time>
      </trkpt>
      <trkpt lat="42.3321190" lon="1.7840190">
        <ele>1231.0</ele>
        <time>2015-08-12T17:13:48Z</time>
      </trkpt>
      <trkpt lat="42.3321060" lon="1.7840270">
        <ele>1231.0</ele>
        <time>2015-08-12T17:13:49Z</time>
      </trkpt>
      <trkpt lat="42.3320770" lon="1.7840220">
        <ele>1231.7</ele>
        <time>2015-08-12T17:13:50Z</time>
      </trkpt>
      <trkpt lat="42.3320460" lon="1.7840270">
        <ele>1232.2</ele>
        <time>2015-08-12T17:13:51Z</time>
      </trkpt>
      <trkpt lat="42.3319980" lon="1.7840350">
        <ele>1233.0</ele>
        <time>2015-08-12T17:13:53Z</time>
      </trkpt>
      <trkpt lat="42.3319650" lon="1.7840510">
        <ele>1233.2</ele>
        <time>2015-08-12T17:13:54Z</time>
      </trkpt>
      <trkpt lat="42.3319370" lon="1.7840560">
        <ele>1233.7</ele>
        <time>2015-08-12T17:13:55Z</time>
      </trkpt>
      <trkpt lat="42.3319000" lon="1.7840290">
        <ele>1235.3</ele>
        <time>2015-08-12T17:13:56Z</time>
      </trkpt>
      <trkpt lat="42.3318640" lon="1.7840070">
        <ele>1236.8</ele>
        <time>2015-08-12T17:13:57Z</time>
      </trkpt>
      <trkpt lat="42.3318370" lon="1.7840030">
        <ele>1237.5</ele>
        <time>2015-08-12T17:13:58Z</time>
      </trkpt>
      <trkpt lat="42.3317850" lon="1.7839710">
        <ele>1239.7</ele>
        <time>2015-08-12T17:14:00Z</time>
      </trkpt>
      <trkpt lat="42.3317470" lon="1.7839400">
        <ele>1241.6</ele>
        <time>2015-08-12T17:14:02Z</time>
      </trkpt>
      <trkpt lat="42.3317170" lon="1.7839490">
        <ele>1241.9</ele>
        <time>2015-08-12T17:14:04Z</time>
      </trkpt>
      <trkpt lat="42.3316920" lon="1.7839270">
        <ele>1243.2</ele>
        <time>2015-08-12T17:14:05Z</time>
      </trkpt>
      <trkpt lat="42.3316630" lon="1.7838910">
        <ele>1245.0</ele>
        <time>2015-08-12T17:14:07Z</time>
      </trkpt>
      <trkpt lat="42.3316240" lon="1.7838810">
        <ele>1246.2</ele>
        <time>2015-08-12T17:14:10Z</time>
      </trkpt>
      <trkpt lat="42.3315880" lon="1.7838710">
        <ele>1247.3</ele>
        <time>2015-08-12T17:14:12Z</time>
      </trkpt>
      <trkpt lat="42.3315530" lon="1.7838940">
        <ele>1247.4</ele>
        <time>2015-08-12T17:14:15Z</time>
      </trkpt>
      <trkpt lat="42.3315270" lon="1.7839090">
        <ele>1247.5</ele>
        <time>2015-08-12T17:14:18Z</time>
      </trkpt>
      <trkpt lat="42.3314960" lon="1.7839300">
        <ele>1247.5</ele>
        <time>2015-08-12T17:14:21Z</time>
      </trkpt>
      <trkpt lat="42.3314670" lon="1.7839390">
        <ele>1247.8</ele>
        <time>2015-08-12T17:14:23Z</time>
      </trkpt>
      <trkpt lat="42.3314290" lon="1.7839540">
        <ele>1248.2</ele>
        <time>2015-08-12T17:14:26Z</time>
      </trkpt>
      <trkpt lat="42.3313960" lon="1.7839710">
        <ele>1248.3</ele>
        <time>2015-08-12T17:14:29Z</time>
      </trkpt>
      <trkpt lat="42.3313650" lon="1.7839510">
        <ele>1249.7</ele>
        <time>2015-08-12T17:14:31Z</time>
      </trkpt>
      <trkpt lat="42.3313350" lon="1.7839380">
        <ele>1250.8</ele>
        <time>2015-08-12T17:14:33Z</time>
      </trkpt>
      <trkpt lat="42.3313070" lon="1.7839440">
        <ele>1251.2</ele>
        <time>2015-08-12T17:14:36Z</time>
      </trkpt>
      <trkpt lat="42.3312850" lon="1.7839680">
        <ele>1250.9</ele>
        <time>2015-08-12T17:14:39Z</time>
      </trkpt>
      <trkpt lat="42.3313050" lon="1.7840080">
        <ele>1249.1</ele>
        <time>2015-08-12T17:14:40Z</time>
      </trkpt>
      <trkpt lat="42.3313060" lon="1.7840560">
        <ele>1247.5</ele>
        <time>2015-08-12T17:14:42Z</time>
      </trkpt>
      <trkpt lat="42.3312710" lon="1.7840910">
        <ele>1247.1</ele>
        <time>2015-08-12T17:14:43Z</time>
      </trkpt>
      <trkpt lat="42.3312380" lon="1.7841090">
        <ele>1246.9</ele>
        <time>2015-08-12T17:14:45Z</time>
      </trkpt>
      <trkpt lat="42.3311920" lon="1.7841540">
        <ele>1245.4</ele>
        <time>2015-08-12T17:14:48Z</time>
      </trkpt>
      <trkpt lat="42.3311580" lon="1.7841650">
        <ele>1245.0</ele>
        <time>2015-08-12T17:15:02Z</time>
      </trkpt>
      <trkpt lat="42.3311250" lon="1.7841760">
        <ele>1244.6</ele>
        <time>2015-08-12T17:23:52Z</time>
      </trkpt>
      <trkpt lat="42.3310910" lon="1.7841870">
        <ele>1244.2</ele>
        <time>2015-08-12T17:23:53Z</time>
      </trkpt>
      <trkpt lat="42.3310540" lon="1.7842050">
        <ele>1243.6</ele>
        <time>2015-08-12T17:23:54Z</time>
      </trkpt>
      <trkpt lat="42.3310120" lon="1.7842170">
        <ele>1243.2</ele>
        <time>2015-08-12T17:23:55Z</time>
      </trkpt>
      <trkpt lat="42.3309560" lon="1.7842280">
        <ele>1242.8</ele>
        <time>2015-08-12T17:23:57Z</time>
      </trkpt>
      <trkpt lat="42.3309150" lon="1.7842140">
        <ele>1243.2</ele>
        <time>2015-08-12T17:23:58Z</time>
      </trkpt>
      <trkpt lat="42.3308560" lon="1.7842100">
        <ele>1243.3</ele>
        <time>2015-08-12T17:24:00Z</time>
      </trkpt>
      <trkpt lat="42.3308090" lon="1.7842110">
        <ele>1243.3</ele>
        <time>2015-08-12T17:24:02Z</time>
      </trkpt>
      <trkpt lat="42.3307550" lon="1.7842200">
        <ele>1242.9</ele>
        <time>2015-08-12T17:24:04Z</time>
      </trkpt>
      <trkpt lat="42.3307250" lon="1.7842290">
        <ele>1242.6</ele>
        <time>2015-08-12T17:24:05Z</time>
      </trkpt>
      <trkpt lat="42.3306750" lon="1.7842310">
        <ele>1242.5</ele>
        <time>2015-08-12T17:24:07Z</time>
      </trkpt>
      <trkpt lat="42.3306420" lon="1.7842360">
        <ele>1242.4</ele>
        <time>2015-08-12T17:24:08Z</time>
      </trkpt>
      <trkpt lat="42.3305910" lon="1.7842420">
        <ele>1242.1</ele>
        <time>2015-08-12T17:24:10Z</time>
      </trkpt>
      <trkpt lat="42.3305560" lon="1.7842530">
        <ele>1241.8</ele>
        <time>2015-08-12T17:24:12Z</time>
      </trkpt>
      <trkpt lat="42.3305290" lon="1.7842710">
        <ele>1241.2</ele>
        <time>2015-08-12T17:24:14Z</time>
      </trkpt>
      <trkpt lat="42.3304830" lon="1.7842880">
        <ele>1240.6</ele>
        <time>2015-08-12T17:24:16Z</time>
      </trkpt>
      <trkpt lat="42.3304540" lon="1.7842940">
        <ele>1240.4</ele>
        <time>2015-08-12T17:24:17Z</time>
      </trkpt>
      <trkpt lat="42.3304130" lon="1.7843180">
        <ele>1239.6</ele>
        <time>2015-08-12T17:24:19Z</time>
      </trkpt>
      <trkpt lat="42.3303780" lon="1.7842930">
        <ele>1240.7</ele>
        <time>2015-08-12T17:24:20Z</time>
      </trkpt>
      <trkpt lat="42.3303500" lon="1.7842820">
        <ele>1241.2</ele>
        <time>2015-08-12T17:24:21Z</time>
      </trkpt>
      <trkpt lat="42.3303220" lon="1.7842910">
        <ele>1241.2</ele>
        <time>2015-08-12T17:24:22Z</time>
      </trkpt>
      <trkpt lat="42.3302780" lon="1.7843130">
        <ele>1240.8</ele>
        <time>2015-08-12T17:24:24Z</time>
      </trkpt>
      <trkpt lat="42.3302380" lon="1.7843070">
        <ele>1241.3</ele>
        <time>2015-08-12T17:24:26Z</time>
      </trkpt>
      <trkpt lat="42.3301960" lon="1.7843030">
        <ele>1241.8</ele>
        <time>2015-08-12T17:24:28Z</time>
      </trkpt>
      <trkpt lat="42.3301630" lon="1.7842620">
        <ele>1243.2</ele>
        <time>2015-08-12T17:24:29Z</time>
      </trkpt>
      <trkpt lat="42.3301280" lon="1.7842930">
        <ele>1242.5</ele>
        <time>2015-08-12T17:24:31Z</time>
      </trkpt>
      <trkpt lat="42.3300770" lon="1.7842810">
        <ele>1243.2</ele>
        <time>2015-08-12T17:24:33Z</time>
      </trkpt>
      <trkpt lat="42.3300330" lon="1.7842750">
        <ele>1243.7</ele>
        <time>2015-08-12T17:24:35Z</time>
      </trkpt>
      <trkpt lat="42.3299950" lon="1.7842810">
        <ele>1243.8</ele>
        <time>2015-08-12T17:24:38Z</time>
      </trkpt>
      <trkpt lat="42.3299670" lon="1.7842730">
        <ele>1244.2</ele>
        <time>2015-08-12T17:24:40Z</time>
      </trkpt>
      <trkpt lat="42.3299230" lon="1.7842400">
        <ele>1245.4</ele>
        <time>2015-08-12T17:24:42Z</time>
      </trkpt>
      <trkpt lat="42.3298820" lon="1.7842080">
        <ele>1246.4</ele>
        <time>2015-08-12T17:24:44Z</time>
      </trkpt>
      <trkpt lat="42.3298540" lon="1.7841840">
        <ele>1247.1</ele>
        <time>2015-08-12T17:24:45Z</time>
      </trkpt>
      <trkpt lat="42.3298270" lon="1.7841630">
        <ele>1247.8</ele>
        <time>2015-08-12T17:24:46Z</time>
      </trkpt>
      <trkpt lat="42.3297970" lon="1.7841390">
        <ele>1248.5</ele>
        <time>2015-08-12T17:24:48Z</time>
      </trkpt>
      <trkpt lat="42.3297610" lon="1.7840940">
        <ele>1249.6</ele>
        <time>2015-08-12T17:24:50Z</time>
      </trkpt>
      <trkpt lat="42.3297330" lon="1.7840560">
        <ele>1250.6</ele>
        <time>2015-08-12T17:24:52Z</time>
      </trkpt>
      <trkpt lat="42.3296950" lon="1.7840120">
        <ele>1251.6</ele>
        <time>2015-08-12T17:24:54Z</time>
      </trkpt>
      <trkpt lat="42.3296530" lon="1.7839670">
        <ele>1252.7</ele>
        <time>2015-08-12T17:24:56Z</time>
      </trkpt>
      <trkpt lat="42.3296310" lon="1.7839420">
        <ele>1253.2</ele>
        <time>2015-08-12T17:24:57Z</time>
      </trkpt>
      <trkpt lat="42.3295880" lon="1.7839000">
        <ele>1254.1</ele>
        <time>2015-08-12T17:24:59Z</time>
      </trkpt>
      <trkpt lat="42.3295410" lon="1.7838790">
        <ele>1254.5</ele>
        <time>2015-08-12T17:25:01Z</time>
      </trkpt>
      <trkpt lat="42.3295140" lon="1.7838620">
        <ele>1254.8</ele>
        <time>2015-08-12T17:25:02Z</time>
      </trkpt>
      <trkpt lat="42.3294860" lon="1.7838540">
        <ele>1254.9</ele>
        <time>2015-08-12T17:25:03Z</time>
      </trkpt>
      <trkpt lat="42.3294520" lon="1.7838880">
        <ele>1254.3</ele>
        <time>2015-08-12T17:25:05Z</time>
      </trkpt>
      <trkpt lat="42.3294560" lon="1.7839370">
        <ele>1253.6</ele>
        <time>2015-08-12T17:25:06Z</time>
      </trkpt>
      <trkpt lat="42.3294260" lon="1.7839120">
        <ele>1254.0</ele>
        <time>2015-08-12T17:25:08Z</time>
      </trkpt>
      <trkpt lat="42.3293750" lon="1.7838990">
        <ele>1254.2</ele>
        <time>2015-08-12T17:25:10Z</time>
      </trkpt>
      <trkpt lat="42.3293320" lon="1.7838910">
        <ele>1254.3</ele>
        <time>2015-08-12T17:25:12Z</time>
      </trkpt>
      <trkpt lat="42.3292990" lon="1.7838920">
        <ele>1254.2</ele>
        <time>2015-08-12T17:25:14Z</time>
      </trkpt>
      <trkpt lat="42.3292720" lon="1.7839010">
        <ele>1254.2</ele>
        <time>2015-08-12T17:25:15Z</time>
      </trkpt>
      <trkpt lat="42.3292300" lon="1.7839000">
        <ele>1254.2</ele>
        <time>2015-08-12T17:25:17Z</time>
      </trkpt>
      <trkpt lat="42.3292140" lon="1.7839300">
        <ele>1254.0</ele>
        <time>2015-08-12T17:25:19Z</time>
      </trkpt>
      <trkpt lat="42.3291560" lon="1.7839140">
        <ele>1254.1</ele>
        <time>2015-08-12T17:25:22Z</time>
      </trkpt>
      <trkpt lat="42.3291310" lon="1.7839370">
        <ele>1254.0</ele>
        <time>2015-08-12T17:25:24Z</time>
      </trkpt>
      <trkpt lat="42.3291040" lon="1.7839550">
        <ele>1254.0</ele>
        <time>2015-08-12T17:25:26Z</time>
      </trkpt>
      <trkpt lat="42.3290880" lon="1.7839890">
        <ele>1254.0</ele>
        <time>2015-08-12T17:25:28Z</time>
      </trkpt>
      <trkpt lat="42.3290570" lon="1.7839970">
        <ele>1254.0</ele>
        <time>2015-08-12T17:25:30Z</time>
      </trkpt>
      <trkpt lat="42.3290150" lon="1.7839930">
        <ele>1254.2</ele>
        <time>2015-08-12T17:25:32Z</time>
      </trkpt>
      <trkpt lat="42.3289730" lon="1.7839760">
        <ele>1254.3</ele>
        <time>2015-08-12T17:25:34Z</time>
      </trkpt>
      <trkpt lat="42.3289190" lon="1.7839330">
        <ele>1254.3</ele>
        <time>2015-08-12T17:25:36Z</time>
      </trkpt>
      <trkpt lat="42.3288830" lon="1.7839070">
        <ele>1254.3</ele>
        <time>2015-08-12T17:25:37Z</time>
      </trkpt>
      <trkpt lat="42.3288380" lon="1.7838850">
        <ele>1254.2</ele>
        <time>2015-08-12T17:25:39Z</time>
      </trkpt>
      <trkpt lat="42.3288060" lon="1.7838590">
        <ele>1254.0</ele>
        <time>2015-08-12T17:25:41Z</time>
      </trkpt>
      <trkpt lat="42.3287770" lon="1.7838240">
        <ele>1253.7</ele>
        <time>2015-08-12T17:25:44Z</time>
      </trkpt>
      <trkpt lat="42.3287480" lon="1.7837830">
        <ele>1253.3</ele>
        <time>2015-08-12T17:25:47Z</time>
      </trkpt>
      <trkpt lat="42.3287330" lon="1.7837430">
        <ele>1253.6</ele>
        <time>2015-08-12T17:25:49Z</time>
      </trkpt>
      <trkpt lat="42.3286990" lon="1.7837460">
        <ele>1253.9</ele>
        <time>2015-08-12T17:25:50Z</time>
      </trkpt>
      <trkpt lat="42.3287230" lon="1.7837770">
        <ele>1253.6</ele>
        <time>2015-08-12T17:25:52Z</time>
      </trkpt>
      <trkpt lat="42.3287000" lon="1.7837980">
        <ele>1254.2</ele>
        <time>2015-08-12T17:25:53Z</time>
      </trkpt>
      <trkpt lat="42.3286500" lon="1.7837220">
        <ele>1255.6</ele>
        <time>2015-08-12T17:25:55Z</time>
      </trkpt>
      <trkpt lat="42.3286350" lon="1.7836890">
        <ele>1257.3</ele>
        <time>2015-08-12T17:25:59Z</time>
      </trkpt>
      <trkpt lat="42.3286300" lon="1.7836450">
        <ele>1259.3</ele>
        <time>2015-08-12T17:26:06Z</time>
      </trkpt>
      <trkpt lat="42.3285930" lon="1.7836000">
        <ele>1261.5</ele>
        <time>2015-08-12T17:26:09Z</time>
      </trkpt>
      <trkpt lat="42.3285640" lon="1.7835570">
        <ele>1263.4</ele>
        <time>2015-08-12T17:26:10Z</time>
      </trkpt>
      <trkpt lat="42.3285070" lon="1.7834990">
        <ele>1265.6</ele>
        <time>2015-08-12T17:26:12Z</time>
      </trkpt>
      <trkpt lat="42.3284840" lon="1.7834380">
        <ele>1267.7</ele>
        <time>2015-08-12T17:26:13Z</time>
      </trkpt>
      <trkpt lat="42.3284600" lon="1.7833700">
        <ele>1269.9</ele>
        <time>2015-08-12T17:26:15Z</time>
      </trkpt>
      <trkpt lat="42.3284280" lon="1.7833430">
        <ele>1270.4</ele>
        <time>2015-08-12T17:26:17Z</time>
      </trkpt>
      <trkpt lat="42.3284000" lon="1.7833360">
        <ele>1270.3</ele>
        <time>2015-08-12T17:26:18Z</time>
      </trkpt>
      <trkpt lat="42.3283580" lon="1.7833150">
        <ele>1270.3</ele>
        <time>2015-08-12T17:26:20Z</time>
      </trkpt>
      <trkpt lat="42.3283230" lon="1.7832900">
        <ele>1270.5</ele>
        <time>2015-08-12T17:26:22Z</time>
      </trkpt>
      <trkpt lat="42.3282890" lon="1.7832820">
        <ele>1270.1</ele>
        <time>2015-08-12T17:26:24Z</time>
      </trkpt>
      <trkpt lat="42.3282560" lon="1.7832870">
        <ele>1269.5</ele>
        <time>2015-08-12T17:26:26Z</time>
      </trkpt>
      <trkpt lat="42.3282290" lon="1.7833050">
        <ele>1268.7</ele>
        <time>2015-08-12T17:26:29Z</time>
      </trkpt>
      <trkpt lat="42.3282010" lon="1.7833340">
        <ele>1267.7</ele>
        <time>2015-08-12T17:26:30Z</time>
      </trkpt>
      <trkpt lat="42.3281850" lon="1.7832980">
        <ele>1268.1</ele>
        <time>2015-08-12T17:26:31Z</time>
      </trkpt>
      <trkpt lat="42.3281560" lon="1.7832790">
        <ele>1268.0</ele>
        <time>2015-08-12T17:26:40Z</time>
      </trkpt>
      <trkpt lat="42.3281110" lon="1.7832960">
        <ele>1267.0</ele>
        <time>2015-08-12T17:26:46Z</time>
      </trkpt>
      <trkpt lat="42.3280700" lon="1.7832940">
        <ele>1266.4</ele>
        <time>2015-08-12T17:26:47Z</time>
      </trkpt>
      <trkpt lat="42.3280370" lon="1.7832570">
        <ele>1266.2</ele>
        <time>2015-08-12T17:26:49Z</time>
      </trkpt>
      <trkpt lat="42.3280030" lon="1.7832560">
        <ele>1265.6</ele>
        <time>2015-08-12T17:26:50Z</time>
      </trkpt>
      <trkpt lat="42.3279770" lon="1.7832410">
        <ele>1265.1</ele>
        <time>2015-08-12T17:26:51Z</time>
      </trkpt>
      <trkpt lat="42.3279300" lon="1.7832370">
        <ele>1264.3</ele>
        <time>2015-08-12T17:26:53Z</time>
      </trkpt>
      <trkpt lat="42.3278990" lon="1.7832010">
        <ele>1264.1</ele>
        <time>2015-08-12T17:26:54Z</time>
      </trkpt>
      <trkpt lat="42.3278720" lon="1.7831890">
        <ele>1264.3</ele>
        <time>2015-08-12T17:26:55Z</time>
      </trkpt>
      <trkpt lat="42.3278240" lon="1.7831650">
        <ele>1264.6</ele>
        <time>2015-08-12T17:26:57Z</time>
      </trkpt>
      <trkpt lat="42.3277750" lon="1.7831420">
        <ele>1264.7</ele>
        <time>2015-08-12T17:26:59Z</time>
      </trkpt>
      <trkpt lat="42.3277540" lon="1.7831020">
        <ele>1264.6</ele>
        <time>2015-08-12T17:27:01Z</time>
      </trkpt>
      <trkpt lat="42.3277220" lon="1.7831110">
        <ele>1264.8</ele>
        <time>2015-08-12T17:27:07Z</time>
      </trkpt>
      <trkpt lat="42.3276970" lon="1.7830860">
        <ele>1264.6</ele>
        <time>2015-08-12T17:27:18Z</time>
      </trkpt>
      <trkpt lat="42.3276830" lon="1.7830540">
        <ele>1264.3</ele>
        <time>2015-08-12T17:27:29Z</time>
      </trkpt>
      <trkpt lat="42.3276820" lon="1.7830170">
        <ele>1263.9</ele>
        <time>2015-08-12T17:28:50Z</time>
      </trkpt>
      <trkpt lat="42.3276580" lon="1.7829970">
        <ele>1263.7</ele>
        <time>2015-08-12T17:30:07Z</time>
      </trkpt>
      <trkpt lat="42.3276200" lon="1.7829330">
        <ele>1262.8</ele>
        <time>2015-08-12T17:30:12Z</time>
      </trkpt>
      <trkpt lat="42.3275960" lon="1.7828920">
        <ele>1263.8</ele>
        <time>2015-08-12T17:30:13Z</time>
      </trkpt>
      <trkpt lat="42.3275600" lon="1.7828830">
        <ele>1264.1</ele>
        <time>2015-08-12T17:30:15Z</time>
      </trkpt>
      <trkpt lat="42.3275250" lon="1.7828720">
        <ele>1264.4</ele>
        <time>2015-08-12T17:30:18Z</time>
      </trkpt>
      <trkpt lat="42.3274930" lon="1.7828550">
        <ele>1265.1</ele>
        <time>2015-08-12T17:30:20Z</time>
      </trkpt>
      <trkpt lat="42.3274570" lon="1.7828420">
        <ele>1265.5</ele>
        <time>2015-08-12T17:30:22Z</time>
      </trkpt>
      <trkpt lat="42.3274240" lon="1.7828420">
        <ele>1265.3</ele>
        <time>2015-08-12T17:30:24Z</time>
      </trkpt>
      <trkpt lat="42.3273830" lon="1.7828390">
        <ele>1265.1</ele>
        <time>2015-08-12T17:30:26Z</time>
      </trkpt>
      <trkpt lat="42.3273470" lon="1.7828420">
        <ele>1264.7</ele>
        <time>2015-08-12T17:30:28Z</time>
      </trkpt>
      <trkpt lat="42.3273100" lon="1.7828350">
        <ele>1264.8</ele>
        <time>2015-08-12T17:30:31Z</time>
      </trkpt>
      <trkpt lat="42.3272840" lon="1.7828200">
        <ele>1265.3</ele>
        <time>2015-08-12T17:30:33Z</time>
      </trkpt>
      <trkpt lat="42.3272570" lon="1.7828300">
        <ele>1264.6</ele>
        <time>2015-08-12T17:30:37Z</time>
      </trkpt>
      <trkpt lat="42.3272200" lon="1.7828110">
        <ele>1265.2</ele>
        <time>2015-08-12T17:30:39Z</time>
      </trkpt>
      <trkpt lat="42.3271920" lon="1.7827880">
        <ele>1265.9</ele>
        <time>2015-08-12T17:30:42Z</time>
      </trkpt>
      <trkpt lat="42.3271590" lon="1.7827770">
        <ele>1266.0</ele>
        <time>2015-08-12T17:30:44Z</time>
      </trkpt>
      <trkpt lat="42.3271300" lon="1.7827600">
        <ele>1266.5</ele>
        <time>2015-08-12T17:30:46Z</time>
      </trkpt>
      <trkpt lat="42.3270950" lon="1.7827080">
        <ele>1268.1</ele>
        <time>2015-08-12T17:30:48Z</time>
      </trkpt>
      <trkpt lat="42.3270700" lon="1.7826730">
        <ele>1269.5</ele>
        <time>2015-08-12T17:30:50Z</time>
      </trkpt>
      <trkpt lat="42.3270390" lon="1.7826560">
        <ele>1270.5</ele>
        <time>2015-08-12T17:30:52Z</time>
      </trkpt>
      <trkpt lat="42.3270080" lon="1.7826160">
        <ele>1272.4</ele>
        <time>2015-08-12T17:30:55Z</time>
      </trkpt>
      <trkpt lat="42.3269750" lon="1.7826340">
        <ele>1272.1</ele>
        <time>2015-08-12T17:30:58Z</time>
      </trkpt>
      <trkpt lat="42.3269450" lon="1.7826220">
        <ele>1272.8</ele>
        <time>2015-08-12T17:31:00Z</time>
      </trkpt>
      <trkpt lat="42.3269030" lon="1.7826170">
        <ele>1273.5</ele>
        <time>2015-08-12T17:31:03Z</time>
      </trkpt>
      <trkpt lat="42.3268590" lon="1.7826280">
        <ele>1273.6</ele>
        <time>2015-08-12T17:31:06Z</time>
      </trkpt>
      <trkpt lat="42.3268250" lon="1.7826410">
        <ele>1273.5</ele>
        <time>2015-08-12T17:31:08Z</time>
      </trkpt>
      <trkpt lat="42.3267940" lon="1.7826620">
        <ele>1273.1</ele>
        <time>2015-08-12T17:31:10Z</time>
      </trkpt>
      <trkpt lat="42.3267690" lon="1.7826790">
        <ele>1272.8</ele>
        <time>2015-08-12T17:31:11Z</time>
      </trkpt>
      <trkpt lat="42.3267360" lon="1.7827070">
        <ele>1272.3</ele>
        <time>2015-08-12T17:31:13Z</time>
      </trkpt>
      <trkpt lat="42.3267060" lon="1.7827410">
        <ele>1271.6</ele>
        <time>2015-08-12T17:31:15Z</time>
      </trkpt>
      <trkpt lat="42.3266470" lon="1.7827400">
        <ele>1272.4</ele>
        <time>2015-08-12T17:31:17Z</time>
      </trkpt>
      <trkpt lat="42.3266080" lon="1.7827550">
        <ele>1272.4</ele>
        <time>2015-08-12T17:31:19Z</time>
      </trkpt>
      <trkpt lat="42.3265730" lon="1.7827680">
        <ele>1272.5</ele>
        <time>2015-08-12T17:31:21Z</time>
      </trkpt>
      <trkpt lat="42.3265340" lon="1.7827750">
        <ele>1272.8</ele>
        <time>2015-08-12T17:31:23Z</time>
      </trkpt>
      <trkpt lat="42.3264960" lon="1.7827780">
        <ele>1273.2</ele>
        <time>2015-08-12T17:31:25Z</time>
      </trkpt>
      <trkpt lat="42.3264670" lon="1.7827900">
        <ele>1273.2</ele>
        <time>2015-08-12T17:31:27Z</time>
      </trkpt>
      <trkpt lat="42.3264300" lon="1.7827770">
        <ele>1274.1</ele>
        <time>2015-08-12T17:31:29Z</time>
      </trkpt>
      <trkpt lat="42.3263930" lon="1.7827820">
        <ele>1274.5</ele>
        <time>2015-08-12T17:31:31Z</time>
      </trkpt>
      <trkpt lat="42.3263620" lon="1.7827860">
        <ele>1274.8</ele>
        <time>2015-08-12T17:31:33Z</time>
      </trkpt>
      <trkpt lat="42.3263330" lon="1.7827610">
        <ele>1275.8</ele>
        <time>2015-08-12T17:31:35Z</time>
      </trkpt>
      <trkpt lat="42.3263110" lon="1.7827380">
        <ele>1276.7</ele>
        <time>2015-08-12T17:31:37Z</time>
      </trkpt>
      <trkpt lat="42.3262800" lon="1.7827280">
        <ele>1277.4</ele>
        <time>2015-08-12T17:31:38Z</time>
      </trkpt>
      <trkpt lat="42.3262490" lon="1.7827180">
        <ele>1278.0</ele>
        <time>2015-08-12T17:31:40Z</time>
      </trkpt>
      <trkpt lat="42.3262110" lon="1.7827120">
        <ele>1278.4</ele>
        <time>2015-08-12T17:31:42Z</time>
      </trkpt>
      <trkpt lat="42.3261650" lon="1.7826950">
        <ele>1279.1</ele>
        <time>2015-08-12T17:31:44Z</time>
      </trkpt>
      <trkpt lat="42.3261330" lon="1.7826720">
        <ele>1279.9</ele>
        <time>2015-08-12T17:31:47Z</time>
      </trkpt>
      <trkpt lat="42.3261090" lon="1.7826520">
        <ele>1280.6</ele>
        <time>2015-08-12T17:31:49Z</time>
      </trkpt>
      <trkpt lat="42.3260690" lon="1.7826510">
        <ele>1280.9</ele>
        <time>2015-08-12T17:31:51Z</time>
      </trkpt>
      <trkpt lat="42.3260330" lon="1.7826710">
        <ele>1280.6</ele>
        <time>2015-08-12T17:31:53Z</time>
      </trkpt>
      <trkpt lat="42.3259980" lon="1.7826450">
        <ele>1281.5</ele>
        <time>2015-08-12T17:31:55Z</time>
      </trkpt>
      <trkpt lat="42.3259540" lon="1.7826140">
        <ele>1282.7</ele>
        <time>2015-08-12T17:31:56Z</time>
      </trkpt>
      <trkpt lat="42.3259120" lon="1.7825920">
        <ele>1283.6</ele>
        <time>2015-08-12T17:31:57Z</time>
      </trkpt>
      <trkpt lat="42.3258950" lon="1.7825590">
        <ele>1284.6</ele>
        <time>2015-08-12T17:31:59Z</time>
      </trkpt>
      <trkpt lat="42.3258610" lon="1.7825320">
        <ele>1285.6</ele>
        <time>2015-08-12T17:32:01Z</time>
      </trkpt>
      <trkpt lat="42.3258170" lon="1.7825280">
        <ele>1286.1</ele>
        <time>2015-08-12T17:32:03Z</time>
      </trkpt>
      <trkpt lat="42.3257800" lon="1.7825430">
        <ele>1285.9</ele>
        <time>2015-08-12T17:32:05Z</time>
      </trkpt>
      <trkpt lat="42.3257530" lon="1.7825460">
        <ele>1286.1</ele>
        <time>2015-08-12T17:32:07Z</time>
      </trkpt>
      <trkpt lat="42.3257200" lon="1.7825080">
        <ele>1287.4</ele>
        <time>2015-08-12T17:32:10Z</time>
      </trkpt>
      <trkpt lat="42.3256880" lon="1.7824880">
        <ele>1288.2</ele>
        <time>2015-08-12T17:32:12Z</time>
      </trkpt>
      <trkpt lat="42.3256520" lon="1.7824830">
        <ele>1288.7</ele>
        <time>2015-08-12T17:32:15Z</time>
      </trkpt>
      <trkpt lat="42.3256210" lon="1.7824690">
        <ele>1289.3</ele>
        <time>2015-08-12T17:32:17Z</time>
      </trkpt>
      <trkpt lat="42.3255900" lon="1.7824490">
        <ele>1290.2</ele>
        <time>2015-08-12T17:32:18Z</time>
      </trkpt>
      <trkpt lat="42.3255580" lon="1.7824410">
        <ele>1290.7</ele>
        <time>2015-08-12T17:32:20Z</time>
      </trkpt>
      <trkpt lat="42.3255190" lon="1.7824370">
        <ele>1291.1</ele>
        <time>2015-08-12T17:32:23Z</time>
      </trkpt>
      <trkpt lat="42.3254870" lon="1.7824420">
        <ele>1291.2</ele>
        <time>2015-08-12T17:32:25Z</time>
      </trkpt>
      <trkpt lat="42.3254600" lon="1.7824580">
        <ele>1291.0</ele>
        <time>2015-08-12T17:32:27Z</time>
      </trkpt>
      <trkpt lat="42.3254310" lon="1.7824750">
        <ele>1290.7</ele>
        <time>2015-08-12T17:32:30Z</time>
      </trkpt>
      <trkpt lat="42.3253990" lon="1.7824830">
        <ele>1290.6</ele>
        <time>2015-08-12T17:32:32Z</time>
      </trkpt>
      <trkpt lat="42.3253710" lon="1.7825080">
        <ele>1290.1</ele>
        <time>2015-08-12T17:32:34Z</time>
      </trkpt>
      <trkpt lat="42.3253510" lon="1.7825420">
        <ele>1289.1</ele>
        <time>2015-08-12T17:32:36Z</time>
      </trkpt>
      <trkpt lat="42.3253180" lon="1.7825420">
        <ele>1289.3</ele>
        <time>2015-08-12T17:32:40Z</time>
      </trkpt>
      <trkpt lat="42.3252800" lon="1.7825620">
        <ele>1289.0</ele>
        <time>2015-08-12T17:32:43Z</time>
      </trkpt>
      <trkpt lat="42.3252450" lon="1.7825790">
        <ele>1288.7</ele>
        <time>2015-08-12T17:32:45Z</time>
      </trkpt>
      <trkpt lat="42.3252230" lon="1.7826120">
        <ele>1287.8</ele>
        <time>2015-08-12T17:32:49Z</time>
      </trkpt>
      <trkpt lat="42.3251950" lon="1.7826110">
        <ele>1288.0</ele>
        <time>2015-08-12T17:32:51Z</time>
      </trkpt>
      <trkpt lat="42.3251580" lon="1.7825920">
        <ele>1288.9</ele>
        <time>2015-08-12T17:32:53Z</time>
      </trkpt>
      <trkpt lat="42.3251240" lon="1.7826090">
        <ele>1288.6</ele>
        <time>2015-08-12T17:32:55Z</time>
      </trkpt>
      <trkpt lat="42.3250890" lon="1.7826040">
        <ele>1289.0</ele>
        <time>2015-08-12T17:32:57Z</time>
      </trkpt>
      <trkpt lat="42.3250440" lon="1.7825950">
        <ele>1289.5</ele>
        <time>2015-08-12T17:32:59Z</time>
      </trkpt>
      <trkpt lat="42.3249960" lon="1.7825960">
        <ele>1289.8</ele>
        <time>2015-08-12T17:33:01Z</time>
      </trkpt>
      <trkpt lat="42.3249800" lon="1.7826410">
        <ele>1288.6</ele>
        <time>2015-08-12T17:33:03Z</time>
      </trkpt>
      <trkpt lat="42.3249570" lon="1.7826760">
        <ele>1287.7</ele>
        <time>2015-08-12T17:33:05Z</time>
      </trkpt>
      <trkpt lat="42.3249360" lon="1.7827160">
        <ele>1286.6</ele>
        <time>2015-08-12T17:33:07Z</time>
      </trkpt>
      <trkpt lat="42.3249210" lon="1.7827630">
        <ele>1285.3</ele>
        <time>2015-08-12T17:33:09Z</time>
      </trkpt>
      <trkpt lat="42.3249040" lon="1.7828110">
        <ele>1283.9</ele>
        <time>2015-08-12T17:33:11Z</time>
      </trkpt>
      <trkpt lat="42.3248780" lon="1.7828260">
        <ele>1283.6</ele>
        <time>2015-08-12T17:33:14Z</time>
      </trkpt>
      <trkpt lat="42.3248570" lon="1.7828740">
        <ele>1282.3</ele>
        <time>2015-08-12T17:33:17Z</time>
      </trkpt>
      <trkpt lat="42.3248410" lon="1.7829130">
        <ele>1281.3</ele>
        <time>2015-08-12T17:33:19Z</time>
      </trkpt>
      <trkpt lat="42.3248080" lon="1.7829230">
        <ele>1281.4</ele>
        <time>2015-08-12T17:33:23Z</time>
      </trkpt>
      <trkpt lat="42.3247790" lon="1.7829420">
        <ele>1281.6</ele>
        <time>2015-08-12T17:33:26Z</time>
      </trkpt>
      <trkpt lat="42.3247660" lon="1.7829860">
        <ele>1281.7</ele>
        <time>2015-08-12T17:33:29Z</time>
      </trkpt>
      <trkpt lat="42.3247470" lon="1.7830240">
        <ele>1281.8</ele>
        <time>2015-08-12T17:33:31Z</time>
      </trkpt>
      <trkpt lat="42.3247270" lon="1.7830650">
        <ele>1281.8</ele>
        <time>2015-08-12T17:33:33Z</time>
      </trkpt>
      <trkpt lat="42.3247120" lon="1.7831120">
        <ele>1281.8</ele>
        <time>2015-08-12T17:33:35Z</time>
      </trkpt>
      <trkpt lat="42.3246860" lon="1.7831280">
        <ele>1281.9</ele>
        <time>2015-08-12T17:33:37Z</time>
      </trkpt>
      <trkpt lat="42.3246490" lon="1.7831670">
        <ele>1281.9</ele>
        <time>2015-08-12T17:33:40Z</time>
      </trkpt>
      <trkpt lat="42.3246160" lon="1.7831930">
        <ele>1281.9</ele>
        <time>2015-08-12T17:33:42Z</time>
      </trkpt>
      <trkpt lat="42.3246040" lon="1.7832320">
        <ele>1281.8</ele>
        <time>2015-08-12T17:33:45Z</time>
      </trkpt>
      <trkpt lat="42.3245760" lon="1.7832330">
        <ele>1281.8</ele>
        <time>2015-08-12T17:33:47Z</time>
      </trkpt>
      <trkpt lat="42.3245430" lon="1.7832390">
        <ele>1281.7</ele>
        <time>2015-08-12T17:33:49Z</time>
      </trkpt>
      <trkpt lat="42.3245100" lon="1.7832300">
        <ele>1281.6</ele>
        <time>2015-08-12T17:33:51Z</time>
      </trkpt>
      <trkpt lat="42.3244820" lon="1.7831980">
        <ele>1281.5</ele>
        <time>2015-08-12T17:33:53Z</time>
      </trkpt>
      <trkpt lat="42.3244640" lon="1.7831540">
        <ele>1281.5</ele>
        <time>2015-08-12T17:33:56Z</time>
      </trkpt>
      <trkpt lat="42.3244430" lon="1.7831270">
        <ele>1281.4</ele>
        <time>2015-08-12T17:34:02Z</time>
      </trkpt>
      <trkpt lat="42.3244230" lon="1.7831030">
        <ele>1281.3</ele>
        <time>2015-08-12T17:34:04Z</time>
      </trkpt>
      <trkpt lat="42.3244000" lon="1.7830750">
        <ele>1281.2</ele>
        <time>2015-08-12T17:34:06Z</time>
      </trkpt>
      <trkpt lat="42.3243660" lon="1.7830510">
        <ele>1280.9</ele>
        <time>2015-08-12T17:34:08Z</time>
      </trkpt>
      <trkpt lat="42.3243330" lon="1.7830190">
        <ele>1280.7</ele>
        <time>2015-08-12T17:34:11Z</time>
      </trkpt>
      <trkpt lat="42.3242960" lon="1.7829910">
        <ele>1280.3</ele>
        <time>2015-08-12T17:34:14Z</time>
      </trkpt>
      <trkpt lat="42.3242690" lon="1.7829450">
        <ele>1280.0</ele>
        <time>2015-08-12T17:34:16Z</time>
      </trkpt>
      <trkpt lat="42.3242390" lon="1.7829390">
        <ele>1279.7</ele>
        <time>2015-08-12T17:34:18Z</time>
      </trkpt>
      <trkpt lat="42.3242040" lon="1.7829190">
        <ele>1279.4</ele>
        <time>2015-08-12T17:34:20Z</time>
      </trkpt>
      <trkpt lat="42.3241710" lon="1.7828880">
        <ele>1279.8</ele>
        <time>2015-08-12T17:34:22Z</time>
      </trkpt>
      <trkpt lat="42.3241470" lon="1.7829140">
        <ele>1278.9</ele>
        <time>2015-08-12T17:34:24Z</time>
      </trkpt>
      <trkpt lat="42.3241190" lon="1.7829190">
        <ele>1278.6</ele>
        <time>2015-08-12T17:34:26Z</time>
      </trkpt>
      <trkpt lat="42.3240940" lon="1.7828920">
        <ele>1279.0</ele>
        <time>2015-08-12T17:34:28Z</time>
      </trkpt>
      <trkpt lat="42.3240600" lon="1.7828710">
        <ele>1279.2</ele>
        <time>2015-08-12T17:34:30Z</time>
      </trkpt>
      <trkpt lat="42.3240360" lon="1.7828430">
        <ele>1279.7</ele>
        <time>2015-08-12T17:34:32Z</time>
      </trkpt>
      <trkpt lat="42.3240080" lon="1.7828130">
        <ele>1280.2</ele>
        <time>2015-08-12T17:34:34Z</time>
      </trkpt>
      <trkpt lat="42.3239880" lon="1.7827880">
        <ele>1280.6</ele>
        <time>2015-08-12T17:34:35Z</time>
      </trkpt>
      <trkpt lat="42.3239510" lon="1.7827730">
        <ele>1280.6</ele>
        <time>2015-08-12T17:34:37Z</time>
      </trkpt>
      <trkpt lat="42.3239210" lon="1.7827420">
        <ele>1281.0</ele>
        <time>2015-08-12T17:34:40Z</time>
      </trkpt>
      <trkpt lat="42.3239000" lon="1.7827120">
        <ele>1281.6</ele>
        <time>2015-08-12T17:34:43Z</time>
      </trkpt>
      <trkpt lat="42.3238770" lon="1.7826900">
        <ele>1281.9</ele>
        <time>2015-08-12T17:34:45Z</time>
      </trkpt>
      <trkpt lat="42.3238540" lon="1.7826710">
        <ele>1282.1</ele>
        <time>2015-08-12T17:34:47Z</time>
      </trkpt>
      <trkpt lat="42.3238300" lon="1.7826360">
        <ele>1282.7</ele>
        <time>2015-08-12T17:34:49Z</time>
      </trkpt>
      <trkpt lat="42.3238090" lon="1.7826040">
        <ele>1283.2</ele>
        <time>2015-08-12T17:34:51Z</time>
      </trkpt>
      <trkpt lat="42.3237780" lon="1.7825640">
        <ele>1283.8</ele>
        <time>2015-08-12T17:34:54Z</time>
      </trkpt>
      <trkpt lat="42.3237470" lon="1.7825360">
        <ele>1284.1</ele>
        <time>2015-08-12T17:35:00Z</time>
      </trkpt>
      <trkpt lat="42.3237270" lon="1.7825020">
        <ele>1284.9</ele>
        <time>2015-08-12T17:35:01Z</time>
      </trkpt>
      <trkpt lat="42.3236930" lon="1.7824700">
        <ele>1285.4</ele>
        <time>2015-08-12T17:35:03Z</time>
      </trkpt>
      <trkpt lat="42.3236680" lon="1.7824420">
        <ele>1285.9</ele>
        <time>2015-08-12T17:35:06Z</time>
      </trkpt>
      <trkpt lat="42.3236420" lon="1.7824130">
        <ele>1286.4</ele>
        <time>2015-08-12T17:35:12Z</time>
      </trkpt>
      <trkpt lat="42.3236180" lon="1.7823860">
        <ele>1286.9</ele>
        <time>2015-08-12T17:35:15Z</time>
      </trkpt>
      <trkpt lat="42.3235820" lon="1.7823490">
        <ele>1287.4</ele>
        <time>2015-08-12T17:35:17Z</time>
      </trkpt>
      <trkpt lat="42.3235540" lon="1.7823210">
        <ele>1287.7</ele>
        <time>2015-08-12T17:35:19Z</time>
      </trkpt>
      <trkpt lat="42.3235280" lon="1.7822980">
        <ele>1287.9</ele>
        <time>2015-08-12T17:35:21Z</time>
      </trkpt>
      <trkpt lat="42.3234970" lon="1.7822770">
        <ele>1288.1</ele>
        <time>2015-08-12T17:35:23Z</time>
      </trkpt>
      <trkpt lat="42.3234700" lon="1.7822440">
        <ele>1288.4</ele>
        <time>2015-08-12T17:35:25Z</time>
      </trkpt>
      <trkpt lat="42.3234320" lon="1.7822140">
        <ele>1288.6</ele>
        <time>2015-08-12T17:35:27Z</time>
      </trkpt>
      <trkpt lat="42.3233960" lon="1.7821800">
        <ele>1288.7</ele>
        <time>2015-08-12T17:35:29Z</time>
      </trkpt>
      <trkpt lat="42.3233570" lon="1.7821470">
        <ele>1288.8</ele>
        <time>2015-08-12T17:35:31Z</time>
      </trkpt>
      <trkpt lat="42.3233100" lon="1.7821430">
        <ele>1288.3</ele>
        <time>2015-08-12T17:35:33Z</time>
      </trkpt>
      <trkpt lat="42.3232610" lon="1.7821230">
        <ele>1288.0</ele>
        <time>2015-08-12T17:35:35Z</time>
      </trkpt>
      <trkpt lat="42.3232330" lon="1.7821050">
        <ele>1287.9</ele>
        <time>2015-08-12T17:35:36Z</time>
      </trkpt>
      <trkpt lat="42.3231900" lon="1.7820840">
        <ele>1287.6</ele>
        <time>2015-08-12T17:35:38Z</time>
      </trkpt>
      <trkpt lat="42.3231540" lon="1.7820870">
        <ele>1287.1</ele>
        <time>2015-08-12T17:35:40Z</time>
      </trkpt>
      <trkpt lat="42.3231150" lon="1.7820880">
        <ele>1286.6</ele>
        <time>2015-08-12T17:35:42Z</time>
      </trkpt>
      <trkpt lat="42.3230910" lon="1.7820670">
        <ele>1286.8</ele>
        <time>2015-08-12T17:35:43Z</time>
      </trkpt>
      <trkpt lat="42.3230430" lon="1.7820610">
        <ele>1286.3</ele>
        <time>2015-08-12T17:35:45Z</time>
      </trkpt>
      <trkpt lat="42.3229880" lon="1.7820590">
        <ele>1285.7</ele>
        <time>2015-08-12T17:35:47Z</time>
      </trkpt>
      <trkpt lat="42.3229490" lon="1.7820860">
        <ele>1284.4</ele>
        <time>2015-08-12T17:35:49Z</time>
      </trkpt>
      <trkpt lat="42.3229080" lon="1.7820780">
        <ele>1284.2</ele>
        <time>2015-08-12T17:35:51Z</time>
      </trkpt>
      <trkpt lat="42.3228630" lon="1.7820570">
        <ele>1284.8</ele>
        <time>2015-08-12T17:35:53Z</time>
      </trkpt>
      <trkpt lat="42.3228180" lon="1.7820710">
        <ele>1284.3</ele>
        <time>2015-08-12T17:35:55Z</time>
      </trkpt>
      <trkpt lat="42.3227730" lon="1.7820700">
        <ele>1284.4</ele>
        <time>2015-08-12T17:35:57Z</time>
      </trkpt>
      <trkpt lat="42.3227230" lon="1.7820710">
        <ele>1284.3</ele>
        <time>2015-08-12T17:35:59Z</time>
      </trkpt>
      <trkpt lat="42.3226790" lon="1.7820790">
        <ele>1284.1</ele>
        <time>2015-08-12T17:36:01Z</time>
      </trkpt>
      <trkpt lat="42.3226310" lon="1.7820790">
        <ele>1284.1</ele>
        <time>2015-08-12T17:36:03Z</time>
      </trkpt>
      <trkpt lat="42.3225810" lon="1.7820790">
        <ele>1284.1</ele>
        <time>2015-08-12T17:36:05Z</time>
      </trkpt>
      <trkpt lat="42.3225370" lon="1.7820950">
        <ele>1283.9</ele>
        <time>2015-08-12T17:36:07Z</time>
      </trkpt>
      <trkpt lat="42.3224870" lon="1.7820970">
        <ele>1283.9</ele>
        <time>2015-08-12T17:36:09Z</time>
      </trkpt>
      <trkpt lat="42.3224570" lon="1.7820980">
        <ele>1283.9</ele>
        <time>2015-08-12T17:36:10Z</time>
      </trkpt>
      <trkpt lat="42.3224100" lon="1.7821060">
        <ele>1283.9</ele>
        <time>2015-08-12T17:36:12Z</time>
      </trkpt>
      <trkpt lat="42.3223610" lon="1.7820910">
        <ele>1284.0</ele>
        <time>2015-08-12T17:36:14Z</time>
      </trkpt>
      <trkpt lat="42.3223270" lon="1.7820910">
        <ele>1284.0</ele>
        <time>2015-08-12T17:36:15Z</time>
      </trkpt>
      <trkpt lat="42.3222930" lon="1.7820880">
        <ele>1284.0</ele>
        <time>2015-08-12T17:36:17Z</time>
      </trkpt>
      <trkpt lat="42.3222450" lon="1.7820760">
        <ele>1284.2</ele>
        <time>2015-08-12T17:36:19Z</time>
      </trkpt>
      <trkpt lat="42.3222140" lon="1.7820720">
        <ele>1284.3</ele>
        <time>2015-08-12T17:36:20Z</time>
      </trkpt>
      <trkpt lat="42.3221700" lon="1.7820850">
        <ele>1284.0</ele>
        <time>2015-08-12T17:36:22Z</time>
      </trkpt>
      <trkpt lat="42.3221420" lon="1.7820940">
        <ele>1284.0</ele>
        <time>2015-08-12T17:36:23Z</time>
      </trkpt>
      <trkpt lat="42.3220960" lon="1.7821000">
        <ele>1284.0</ele>
        <time>2015-08-12T17:36:25Z</time>
      </trkpt>
      <trkpt lat="42.3220660" lon="1.7820730">
        <ele>1284.5</ele>
        <time>2015-08-12T17:36:26Z</time>
      </trkpt>
      <trkpt lat="42.3220320" lon="1.7820560">
        <ele>1285.5</ele>
        <time>2015-08-12T17:36:27Z</time>
      </trkpt>
      <trkpt lat="42.3220000" lon="1.7820450">
        <ele>1286.3</ele>
        <time>2015-08-12T17:36:28Z</time>
      </trkpt>
      <trkpt lat="42.3219680" lon="1.7820250">
        <ele>1287.3</ele>
        <time>2015-08-12T17:36:29Z</time>
      </trkpt>
      <trkpt lat="42.3219390" lon="1.7820090">
        <ele>1288.2</ele>
        <time>2015-08-12T17:36:30Z</time>
      </trkpt>
      <trkpt lat="42.3219120" lon="1.7819880">
        <ele>1289.2</ele>
        <time>2015-08-12T17:36:31Z</time>
      </trkpt>
      <trkpt lat="42.3218870" lon="1.7819660">
        <ele>1290.2</ele>
        <time>2015-08-12T17:36:32Z</time>
      </trkpt>
      <trkpt lat="42.3218550" lon="1.7819470">
        <ele>1291.2</ele>
        <time>2015-08-12T17:36:33Z</time>
      </trkpt>
      <trkpt lat="42.3218190" lon="1.7819210">
        <ele>1292.5</ele>
        <time>2015-08-12T17:36:34Z</time>
      </trkpt>
      <trkpt lat="42.3217680" lon="1.7818800">
        <ele>1294.4</ele>
        <time>2015-08-12T17:36:36Z</time>
      </trkpt>
      <trkpt lat="42.3217360" lon="1.7818520">
        <ele>1295.7</ele>
        <time>2015-08-12T17:36:37Z</time>
      </trkpt>
      <trkpt lat="42.3217090" lon="1.7818390">
        <ele>1296.5</ele>
        <time>2015-08-12T17:36:38Z</time>
      </trkpt>
      <trkpt lat="42.3216630" lon="1.7818060">
        <ele>1298.2</ele>
        <time>2015-08-12T17:36:40Z</time>
      </trkpt>
      <trkpt lat="42.3216260" lon="1.7818120">
        <ele>1298.7</ele>
        <time>2015-08-12T17:36:42Z</time>
      </trkpt>
      <trkpt lat="42.3215810" lon="1.7817960">
        <ele>1299.9</ele>
        <time>2015-08-12T17:36:44Z</time>
      </trkpt>
      <trkpt lat="42.3215530" lon="1.7817820">
        <ele>1300.8</ele>
        <time>2015-08-12T17:36:45Z</time>
      </trkpt>
      <trkpt lat="42.3215240" lon="1.7817830">
        <ele>1301.3</ele>
        <time>2015-08-12T17:36:46Z</time>
      </trkpt>
      <trkpt lat="42.3214950" lon="1.7817750">
        <ele>1302.0</ele>
        <time>2015-08-12T17:36:47Z</time>
      </trkpt>
      <trkpt lat="42.3214640" lon="1.7817770">
        <ele>1302.5</ele>
        <time>2015-08-12T17:36:48Z</time>
      </trkpt>
      <trkpt lat="42.3214350" lon="1.7817830">
        <ele>1302.8</ele>
        <time>2015-08-12T17:36:49Z</time>
      </trkpt>
      <trkpt lat="42.3213990" lon="1.7817920">
        <ele>1303.2</ele>
        <time>2015-08-12T17:36:50Z</time>
      </trkpt>
      <trkpt lat="42.3213680" lon="1.7817990">
        <ele>1303.5</ele>
        <time>2015-08-12T17:36:51Z</time>
      </trkpt>
      <trkpt lat="42.3213330" lon="1.7817950">
        <ele>1304.2</ele>
        <time>2015-08-12T17:36:52Z</time>
      </trkpt>
      <trkpt lat="42.3213080" lon="1.7818110">
        <ele>1304.2</ele>
        <time>2015-08-12T17:36:53Z</time>
      </trkpt>
      <trkpt lat="42.3212740" lon="1.7818160">
        <ele>1304.6</ele>
        <time>2015-08-12T17:36:54Z</time>
      </trkpt>
      <trkpt lat="42.3212420" lon="1.7818180">
        <ele>1305.1</ele>
        <time>2015-08-12T17:36:55Z</time>
      </trkpt>
      <trkpt lat="42.3211910" lon="1.7818200">
        <ele>1305.6</ele>
        <time>2015-08-12T17:36:57Z</time>
      </trkpt>
      <trkpt lat="42.3211470" lon="1.7818280">
        <ele>1305.9</ele>
        <time>2015-08-12T17:36:59Z</time>
      </trkpt>
      <trkpt lat="42.3211190" lon="1.7818270">
        <ele>1306.2</ele>
        <time>2015-08-12T17:37:00Z</time>
      </trkpt>
      <trkpt lat="42.3210880" lon="1.7818220">
        <ele>1306.7</ele>
        <time>2015-08-12T17:37:01Z</time>
      </trkpt>
      <trkpt lat="42.3210330" lon="1.7818380">
        <ele>1306.9</ele>
        <time>2015-08-12T17:37:03Z</time>
      </trkpt>
      <trkpt lat="42.3210040" lon="1.7818430">
        <ele>1307.1</ele>
        <time>2015-08-12T17:37:04Z</time>
      </trkpt>
      <trkpt lat="42.3209740" lon="1.7819020">
        <ele>1305.7</ele>
        <time>2015-08-12T17:37:06Z</time>
      </trkpt>
      <trkpt lat="42.3209500" lon="1.7819220">
        <ele>1305.4</ele>
        <time>2015-08-12T17:37:07Z</time>
      </trkpt>
      <trkpt lat="42.3209370" lon="1.7819630">
        <ele>1304.3</ele>
        <time>2015-08-12T17:37:09Z</time>
      </trkpt>
      <trkpt lat="42.3209250" lon="1.7820010">
        <ele>1303.3</ele>
        <time>2015-08-12T17:37:10Z</time>
      </trkpt>
      <trkpt lat="42.3208880" lon="1.7820450">
        <ele>1302.5</ele>
        <time>2015-08-12T17:37:12Z</time>
      </trkpt>
      <trkpt lat="42.3208710" lon="1.7820850">
        <ele>1301.5</ele>
        <time>2015-08-12T17:37:14Z</time>
      </trkpt>
      <trkpt lat="42.3208390" lon="1.7821170">
        <ele>1301.5</ele>
        <time>2015-08-12T17:37:17Z</time>
      </trkpt>
      <trkpt lat="42.3208140" lon="1.7821670">
        <ele>1301.1</ele>
        <time>2015-08-12T17:37:19Z</time>
      </trkpt>
      <trkpt lat="42.3207830" lon="1.7822030">
        <ele>1300.9</ele>
        <time>2015-08-12T17:37:21Z</time>
      </trkpt>
      <trkpt lat="42.3207550" lon="1.7822150">
        <ele>1301.1</ele>
        <time>2015-08-12T17:37:23Z</time>
      </trkpt>
      <trkpt lat="42.3207190" lon="1.7822420">
        <ele>1301.1</ele>
        <time>2015-08-12T17:37:25Z</time>
      </trkpt>
      <trkpt lat="42.3206810" lon="1.7822640">
        <ele>1301.2</ele>
        <time>2015-08-12T17:37:27Z</time>
      </trkpt>
      <trkpt lat="42.3206520" lon="1.7822790">
        <ele>1301.3</ele>
        <time>2015-08-12T17:37:32Z</time>
      </trkpt>
      <trkpt lat="42.3206330" lon="1.7823100">
        <ele>1301.1</ele>
        <time>2015-08-12T17:37:34Z</time>
      </trkpt>
      <trkpt lat="42.3206010" lon="1.7823380">
        <ele>1301.0</ele>
        <time>2015-08-12T17:37:36Z</time>
      </trkpt>
      <trkpt lat="42.3205990" lon="1.7823920">
        <ele>1300.2</ele>
        <time>2015-08-12T17:37:38Z</time>
      </trkpt>
      <trkpt lat="42.3205890" lon="1.7824510">
        <ele>1299.5</ele>
        <time>2015-08-12T17:37:40Z</time>
      </trkpt>
      <trkpt lat="42.3205430" lon="1.7824940">
        <ele>1299.3</ele>
        <time>2015-08-12T17:37:42Z</time>
      </trkpt>
      <trkpt lat="42.3205140" lon="1.7825000">
        <ele>1299.5</ele>
        <time>2015-08-12T17:37:44Z</time>
      </trkpt>
      <trkpt lat="42.3204890" lon="1.7825390">
        <ele>1299.2</ele>
        <time>2015-08-12T17:37:45Z</time>
      </trkpt>
      <trkpt lat="42.3204700" lon="1.7825780">
        <ele>1298.8</ele>
        <time>2015-08-12T17:37:46Z</time>
      </trkpt>
      <trkpt lat="42.3204230" lon="1.7825860">
        <ele>1299.1</ele>
        <time>2015-08-12T17:37:48Z</time>
      </trkpt>
      <trkpt lat="42.3203700" lon="1.7826140">
        <ele>1299.3</ele>
        <time>2015-08-12T17:37:50Z</time>
      </trkpt>
      <trkpt lat="42.3203380" lon="1.7826450">
        <ele>1299.1</ele>
        <time>2015-08-12T17:37:52Z</time>
      </trkpt>
      <trkpt lat="42.3202960" lon="1.7826480">
        <ele>1299.6</ele>
        <time>2015-08-12T17:37:54Z</time>
      </trkpt>
      <trkpt lat="42.3202660" lon="1.7826380">
        <ele>1300.1</ele>
        <time>2015-08-12T17:37:55Z</time>
      </trkpt>
      <trkpt lat="42.3202360" lon="1.7826420">
        <ele>1300.4</ele>
        <time>2015-08-12T17:37:56Z</time>
      </trkpt>
      <trkpt lat="42.3202020" lon="1.7826350">
        <ele>1300.9</ele>
        <time>2015-08-12T17:37:58Z</time>
      </trkpt>
      <trkpt lat="42.3201740" lon="1.7826310">
        <ele>1301.3</ele>
        <time>2015-08-12T17:37:59Z</time>
      </trkpt>
      <trkpt lat="42.3201380" lon="1.7826230">
        <ele>1301.8</ele>
        <time>2015-08-12T17:38:01Z</time>
      </trkpt>
      <trkpt lat="42.3200930" lon="1.7826280">
        <ele>1302.3</ele>
        <time>2015-08-12T17:38:04Z</time>
      </trkpt>
      <trkpt lat="42.3200660" lon="1.7826220">
        <ele>1302.7</ele>
        <time>2015-08-12T17:38:05Z</time>
      </trkpt>
      <trkpt lat="42.3200290" lon="1.7826110">
        <ele>1303.3</ele>
        <time>2015-08-12T17:38:07Z</time>
      </trkpt>
      <trkpt lat="42.3199910" lon="1.7826190">
        <ele>1303.6</ele>
        <time>2015-08-12T17:38:09Z</time>
      </trkpt>
      <trkpt lat="42.3199510" lon="1.7826180">
        <ele>1304.1</ele>
        <time>2015-08-12T17:38:12Z</time>
      </trkpt>
      <trkpt lat="42.3199110" lon="1.7826050">
        <ele>1304.9</ele>
        <time>2015-08-12T17:38:14Z</time>
      </trkpt>
      <trkpt lat="42.3198750" lon="1.7826110">
        <ele>1305.2</ele>
        <time>2015-08-12T17:38:16Z</time>
      </trkpt>
      <trkpt lat="42.3198480" lon="1.7826070">
        <ele>1305.6</ele>
        <time>2015-08-12T17:38:18Z</time>
      </trkpt>
      <trkpt lat="42.3198200" lon="1.7826060">
        <ele>1305.9</ele>
        <time>2015-08-12T17:38:20Z</time>
      </trkpt>
      <trkpt lat="42.3197920" lon="1.7826040">
        <ele>1306.3</ele>
        <time>2015-08-12T17:38:22Z</time>
      </trkpt>
      <trkpt lat="42.3197500" lon="1.7826080">
        <ele>1306.7</ele>
        <time>2015-08-12T17:38:24Z</time>
      </trkpt>
      <trkpt lat="42.3197190" lon="1.7826220">
        <ele>1306.8</ele>
        <time>2015-08-12T17:38:26Z</time>
      </trkpt>
      <trkpt lat="42.3196820" lon="1.7826120">
        <ele>1307.4</ele>
        <time>2015-08-12T17:38:28Z</time>
      </trkpt>
      <trkpt lat="42.3196460" lon="1.7825750">
        <ele>1308.6</ele>
        <time>2015-08-12T17:38:30Z</time>
      </trkpt>
      <trkpt lat="42.3196190" lon="1.7825830">
        <ele>1308.8</ele>
        <time>2015-08-12T17:38:32Z</time>
      </trkpt>
      <trkpt lat="42.3195810" lon="1.7825650">
        <ele>1309.6</ele>
        <time>2015-08-12T17:38:34Z</time>
      </trkpt>
      <trkpt lat="42.3195540" lon="1.7825660">
        <ele>1309.9</ele>
        <time>2015-08-12T17:38:36Z</time>
      </trkpt>
      <trkpt lat="42.3195270" lon="1.7825800">
        <ele>1309.8</ele>
        <time>2015-08-12T17:38:39Z</time>
      </trkpt>
      <trkpt lat="42.3194930" lon="1.7825720">
        <ele>1310.4</ele>
        <time>2015-08-12T17:38:41Z</time>
      </trkpt>
      <trkpt lat="42.3194500" lon="1.7825420">
        <ele>1311.5</ele>
        <time>2015-08-12T17:38:43Z</time>
      </trkpt>
      <trkpt lat="42.3194010" lon="1.7825370">
        <ele>1312.1</ele>
        <time>2015-08-12T17:38:45Z</time>
      </trkpt>
      <trkpt lat="42.3193730" lon="1.7825430">
        <ele>1312.3</ele>
        <time>2015-08-12T17:38:47Z</time>
      </trkpt>
      <trkpt lat="42.3193450" lon="1.7825120">
        <ele>1313.3</ele>
        <time>2015-08-12T17:38:49Z</time>
      </trkpt>
      <trkpt lat="42.3193170" lon="1.7824820">
        <ele>1314.3</ele>
        <time>2015-08-12T17:38:51Z</time>
      </trkpt>
      <trkpt lat="42.3192890" lon="1.7824910">
        <ele>1314.4</ele>
        <time>2015-08-12T17:38:53Z</time>
      </trkpt>
      <trkpt lat="42.3192570" lon="1.7824820">
        <ele>1315.0</ele>
        <time>2015-08-12T17:38:55Z</time>
      </trkpt>
      <trkpt lat="42.3192180" lon="1.7824730">
        <ele>1315.6</ele>
        <time>2015-08-12T17:38:57Z</time>
      </trkpt>
      <trkpt lat="42.3191800" lon="1.7824610">
        <ele>1316.3</ele>
        <time>2015-08-12T17:39:00Z</time>
      </trkpt>
      <trkpt lat="42.3191500" lon="1.7824480">
        <ele>1317.0</ele>
        <time>2015-08-12T17:39:02Z</time>
      </trkpt>
      <trkpt lat="42.3191210" lon="1.7824400">
        <ele>1317.5</ele>
        <time>2015-08-12T17:39:04Z</time>
      </trkpt>
      <trkpt lat="42.3190780" lon="1.7824420">
        <ele>1318.0</ele>
        <time>2015-08-12T17:39:06Z</time>
      </trkpt>
      <trkpt lat="42.3190510" lon="1.7824690">
        <ele>1317.6</ele>
        <time>2015-08-12T17:39:09Z</time>
      </trkpt>
      <trkpt lat="42.3190130" lon="1.7824590">
        <ele>1318.2</ele>
        <time>2015-08-12T17:39:11Z</time>
      </trkpt>
      <trkpt lat="42.3189870" lon="1.7824440">
        <ele>1318.9</ele>
        <time>2015-08-12T17:39:13Z</time>
      </trkpt>
      <trkpt lat="42.3189530" lon="1.7824430">
        <ele>1319.3</ele>
        <time>2015-08-12T17:39:15Z</time>
      </trkpt>
      <trkpt lat="42.3189260" lon="1.7824410">
        <ele>1319.7</ele>
        <time>2015-08-12T17:39:17Z</time>
      </trkpt>
      <trkpt lat="42.3188940" lon="1.7824480">
        <ele>1319.9</ele>
        <time>2015-08-12T17:39:19Z</time>
      </trkpt>
      <trkpt lat="42.3188600" lon="1.7824440">
        <ele>1320.4</ele>
        <time>2015-08-12T17:39:21Z</time>
      </trkpt>
      <trkpt lat="42.3188390" lon="1.7824860">
        <ele>1319.4</ele>
        <time>2015-08-12T17:39:23Z</time>
      </trkpt>
      <trkpt lat="42.3188060" lon="1.7825080">
        <ele>1319.2</ele>
        <time>2015-08-12T17:39:26Z</time>
      </trkpt>
      <trkpt lat="42.3187670" lon="1.7825110">
        <ele>1319.5</ele>
        <time>2015-08-12T17:39:28Z</time>
      </trkpt>
      <trkpt lat="42.3187270" lon="1.7825230">
        <ele>1319.5</ele>
        <time>2015-08-12T17:39:30Z</time>
      </trkpt>
      <trkpt lat="42.3186990" lon="1.7825370">
        <ele>1319.3</ele>
        <time>2015-08-12T17:39:32Z</time>
      </trkpt>
      <trkpt lat="42.3186650" lon="1.7825460">
        <ele>1319.3</ele>
        <time>2015-08-12T17:39:34Z</time>
      </trkpt>
      <trkpt lat="42.3186290" lon="1.7825500">
        <ele>1319.4</ele>
        <time>2015-08-12T17:39:36Z</time>
      </trkpt>
      <trkpt lat="42.3185960" lon="1.7825660">
        <ele>1319.2</ele>
        <time>2015-08-12T17:39:38Z</time>
      </trkpt>
      <trkpt lat="42.3185630" lon="1.7825850">
        <ele>1318.9</ele>
        <time>2015-08-12T17:39:41Z</time>
      </trkpt>
      <trkpt lat="42.3185220" lon="1.7826420">
        <ele>1317.6</ele>
        <time>2015-08-12T17:39:45Z</time>
      </trkpt>
      <trkpt lat="42.3184770" lon="1.7826840">
        <ele>1316.7</ele>
        <time>2015-08-12T17:39:47Z</time>
      </trkpt>
      <trkpt lat="42.3184560" lon="1.7826260">
        <ele>1318.5</ele>
        <time>2015-08-12T17:39:48Z</time>
      </trkpt>
      <trkpt lat="42.3184290" lon="1.7826600">
        <ele>1317.7</ele>
        <time>2015-08-12T17:39:49Z</time>
      </trkpt>
      <trkpt lat="42.3183970" lon="1.7826680">
        <ele>1317.7</ele>
        <time>2015-08-12T17:39:50Z</time>
      </trkpt>
      <trkpt lat="42.3183500" lon="1.7826770">
        <ele>1317.8</ele>
        <time>2015-08-12T17:39:52Z</time>
      </trkpt>
      <trkpt lat="42.3183250" lon="1.7827020">
        <ele>1317.2</ele>
        <time>2015-08-12T17:39:54Z</time>
      </trkpt>
      <trkpt lat="42.3182980" lon="1.7827110">
        <ele>1317.2</ele>
        <time>2015-08-12T17:39:55Z</time>
      </trkpt>
      <trkpt lat="42.3182510" lon="1.7827060">
        <ele>1317.7</ele>
        <time>2015-08-12T17:39:57Z</time>
      </trkpt>
      <trkpt lat="42.3182190" lon="1.7827000">
        <ele>1318.1</ele>
        <time>2015-08-12T17:39:59Z</time>
      </trkpt>
      <trkpt lat="42.3181790" lon="1.7827080">
        <ele>1318.1</ele>
        <time>2015-08-12T17:40:00Z</time>
      </trkpt>
      <trkpt lat="42.3181520" lon="1.7827020">
        <ele>1318.5</ele>
        <time>2015-08-12T17:40:01Z</time>
      </trkpt>
      <trkpt lat="42.3181020" lon="1.7826880">
        <ele>1319.3</ele>
        <time>2015-08-12T17:40:03Z</time>
      </trkpt>
      <trkpt lat="42.3180760" lon="1.7826950">
        <ele>1319.2</ele>
        <time>2015-08-12T17:40:05Z</time>
      </trkpt>
      <trkpt lat="42.3180480" lon="1.7827310">
        <ele>1318.4</ele>
        <time>2015-08-12T17:40:07Z</time>
      </trkpt>
      <trkpt lat="42.3180410" lon="1.7827780">
        <ele>1317.1</ele>
        <time>2015-08-12T17:40:10Z</time>
      </trkpt>
      <trkpt lat="42.3180450" lon="1.7828170">
        <ele>1315.9</ele>
        <time>2015-08-12T17:40:11Z</time>
      </trkpt>
      <trkpt lat="42.3180420" lon="1.7828780">
        <ele>1314.2</ele>
        <time>2015-08-12T17:40:13Z</time>
      </trkpt>
      <trkpt lat="42.3180000" lon="1.7829110">
        <ele>1313.6</ele>
        <time>2015-08-12T17:40:15Z</time>
      </trkpt>
      <trkpt lat="42.3179740" lon="1.7829230">
        <ele>1313.6</ele>
        <time>2015-08-12T17:40:16Z</time>
      </trkpt>
      <trkpt lat="42.3179630" lon="1.7829620">
        <ele>1314.1</ele>
        <time>2015-08-12T17:40:17Z</time>
      </trkpt>
      <trkpt lat="42.3179280" lon="1.7829630">
        <ele>1314.3</ele>
        <time>2015-08-12T17:40:20Z</time>
      </trkpt>
      <trkpt lat="42.3178860" lon="1.7829500">
        <ele>1314.4</ele>
        <time>2015-08-12T17:40:23Z</time>
      </trkpt>
      <trkpt lat="42.3178550" lon="1.7829700">
        <ele>1314.8</ele>
        <time>2015-08-12T17:40:27Z</time>
      </trkpt>
      <trkpt lat="42.3178080" lon="1.7829350">
        <ele>1314.7</ele>
        <time>2015-08-12T17:40:29Z</time>
      </trkpt>
      <trkpt lat="42.3177810" lon="1.7829230">
        <ele>1314.7</ele>
        <time>2015-08-12T17:40:30Z</time>
      </trkpt>
      <trkpt lat="42.3177530" lon="1.7828990">
        <ele>1315.3</ele>
        <time>2015-08-12T17:40:31Z</time>
      </trkpt>
      <trkpt lat="42.3177060" lon="1.7828970">
        <ele>1315.6</ele>
        <time>2015-08-12T17:40:33Z</time>
      </trkpt>
      <trkpt lat="42.3176780" lon="1.7828720">
        <ele>1316.4</ele>
        <time>2015-08-12T17:40:34Z</time>
      </trkpt>
      <trkpt lat="42.3176500" lon="1.7828720">
        <ele>1316.5</ele>
        <time>2015-08-12T17:40:36Z</time>
      </trkpt>
      <trkpt lat="42.3176150" lon="1.7828450">
        <ele>1317.4</ele>
        <time>2015-08-12T17:40:39Z</time>
      </trkpt>
      <trkpt lat="42.3175860" lon="1.7828890">
        <ele>1316.3</ele>
        <time>2015-08-12T17:40:41Z</time>
      </trkpt>
      <trkpt lat="42.3175500" lon="1.7828640">
        <ele>1317.2</ele>
        <time>2015-08-12T17:40:44Z</time>
      </trkpt>
      <trkpt lat="42.3175180" lon="1.7828760">
        <ele>1317.0</ele>
        <time>2015-08-12T17:40:46Z</time>
      </trkpt>
      <trkpt lat="42.3174840" lon="1.7828900">
        <ele>1316.8</ele>
        <time>2015-08-12T17:40:48Z</time>
      </trkpt>
      <trkpt lat="42.3174500" lon="1.7828410">
        <ele>1318.3</ele>
        <time>2015-08-12T17:40:51Z</time>
      </trkpt>
      <trkpt lat="42.3174210" lon="1.7828690">
        <ele>1317.6</ele>
        <time>2015-08-12T17:40:53Z</time>
      </trkpt>
      <trkpt lat="42.3173840" lon="1.7828560">
        <ele>1318.2</ele>
        <time>2015-08-12T17:40:55Z</time>
      </trkpt>
      <trkpt lat="42.3173520" lon="1.7828510">
        <ele>1318.4</ele>
        <time>2015-08-12T17:40:56Z</time>
      </trkpt>
      <trkpt lat="42.3173220" lon="1.7828460">
        <ele>1318.7</ele>
        <time>2015-08-12T17:40:58Z</time>
      </trkpt>
      <trkpt lat="42.3172550" lon="1.7828400">
        <ele>1319.2</ele>
        <time>2015-08-12T17:41:04Z</time>
      </trkpt>
      <trkpt lat="42.3172260" lon="1.7828350">
        <ele>1319.4</ele>
        <time>2015-08-12T17:41:05Z</time>
      </trkpt>
      <trkpt lat="42.3171970" lon="1.7828210">
        <ele>1319.9</ele>
        <time>2015-08-12T17:41:06Z</time>
      </trkpt>
      <trkpt lat="42.3171620" lon="1.7828380">
        <ele>1319.6</ele>
        <time>2015-08-12T17:41:10Z</time>
      </trkpt>
      <trkpt lat="42.3171340" lon="1.7828630">
        <ele>1319.1</ele>
        <time>2015-08-12T17:41:14Z</time>
      </trkpt>
      <trkpt lat="42.3170870" lon="1.7828430">
        <ele>1319.8</ele>
        <time>2015-08-12T17:41:17Z</time>
      </trkpt>
      <trkpt lat="42.3170580" lon="1.7828680">
        <ele>1319.5</ele>
        <time>2015-08-12T17:41:20Z</time>
      </trkpt>
      <trkpt lat="42.3170150" lon="1.7828650">
        <ele>1320.1</ele>
        <time>2015-08-12T17:41:22Z</time>
      </trkpt>
      <trkpt lat="42.3169680" lon="1.7828550">
        <ele>1320.9</ele>
        <time>2015-08-12T17:41:24Z</time>
      </trkpt>
      <trkpt lat="42.3169360" lon="1.7828520">
        <ele>1321.3</ele>
        <time>2015-08-12T17:41:26Z</time>
      </trkpt>
      <trkpt lat="42.3168970" lon="1.7828370">
        <ele>1322.1</ele>
        <time>2015-08-12T17:41:28Z</time>
      </trkpt>
      <trkpt lat="42.3168630" lon="1.7828340">
        <ele>1322.5</ele>
        <time>2015-08-12T17:41:30Z</time>
      </trkpt>
      <trkpt lat="42.3168510" lon="1.7827990">
        <ele>1323.5</ele>
        <time>2015-08-12T17:41:31Z</time>
      </trkpt>
      <trkpt lat="42.3168290" lon="1.7828420">
        <ele>1322.7</ele>
        <time>2015-08-12T17:41:34Z</time>
      </trkpt>
      <trkpt lat="42.3167990" lon="1.7828650">
        <ele>1322.6</ele>
        <time>2015-08-12T17:41:37Z</time>
      </trkpt>
      <trkpt lat="42.3167630" lon="1.7828580">
        <ele>1323.1</ele>
        <time>2015-08-12T17:41:39Z</time>
      </trkpt>
      <trkpt lat="42.3167230" lon="1.7828370">
        <ele>1324.0</ele>
        <time>2015-08-12T17:41:41Z</time>
      </trkpt>
      <trkpt lat="42.3166720" lon="1.7828250">
        <ele>1324.9</ele>
        <time>2015-08-12T17:41:43Z</time>
      </trkpt>
      <trkpt lat="42.3166400" lon="1.7828260">
        <ele>1325.2</ele>
        <time>2015-08-12T17:41:45Z</time>
      </trkpt>
      <trkpt lat="42.3166120" lon="1.7828250">
        <ele>1325.5</ele>
        <time>2015-08-12T17:41:47Z</time>
      </trkpt>
      <trkpt lat="42.3165830" lon="1.7828130">
        <ele>1326.1</ele>
        <time>2015-08-12T17:41:49Z</time>
      </trkpt>
      <trkpt lat="42.3165530" lon="1.7828330">
        <ele>1326.0</ele>
        <time>2015-08-12T17:41:52Z</time>
      </trkpt>
      <trkpt lat="42.3165210" lon="1.7828200">
        <ele>1326.6</ele>
        <time>2015-08-12T17:41:54Z</time>
      </trkpt>
      <trkpt lat="42.3164820" lon="1.7828240">
        <ele>1327.0</ele>
        <time>2015-08-12T17:41:57Z</time>
      </trkpt>
      <trkpt lat="42.3164540" lon="1.7828310">
        <ele>1327.2</ele>
        <time>2015-08-12T17:41:59Z</time>
      </trkpt>
      <trkpt lat="42.3164220" lon="1.7828480">
        <ele>1327.2</ele>
        <time>2015-08-12T17:42:03Z</time>
      </trkpt>
      <trkpt lat="42.3163850" lon="1.7828450">
        <ele>1327.7</ele>
        <time>2015-08-12T17:42:05Z</time>
      </trkpt>
      <trkpt lat="42.3163440" lon="1.7828530">
        <ele>1328.0</ele>
        <time>2015-08-12T17:42:08Z</time>
      </trkpt>
      <trkpt lat="42.3163060" lon="1.7828430">
        <ele>1328.6</ele>
        <time>2015-08-12T17:42:10Z</time>
      </trkpt>
      <trkpt lat="42.3162800" lon="1.7828320">
        <ele>1329.1</ele>
        <time>2015-08-12T17:42:12Z</time>
      </trkpt>
      <trkpt lat="42.3162480" lon="1.7828200">
        <ele>1329.7</ele>
        <time>2015-08-12T17:42:14Z</time>
      </trkpt>
      <trkpt lat="42.3162060" lon="1.7827850">
        <ele>1331.5</ele>
        <time>2015-08-12T17:42:16Z</time>
      </trkpt>
      <trkpt lat="42.3161850" lon="1.7827580">
        <ele>1332.6</ele>
        <time>2015-08-12T17:42:20Z</time>
      </trkpt>
      <trkpt lat="42.3161520" lon="1.7827280">
        <ele>1334.0</ele>
        <time>2015-08-12T17:42:22Z</time>
      </trkpt>
      <trkpt lat="42.3161300" lon="1.7827060">
        <ele>1335.0</ele>
        <time>2015-08-12T17:42:23Z</time>
      </trkpt>
      <trkpt lat="42.3160900" lon="1.7826610">
        <ele>1336.9</ele>
        <time>2015-08-12T17:42:29Z</time>
      </trkpt>
      <trkpt lat="42.3160610" lon="1.7826460">
        <ele>1338.0</ele>
        <time>2015-08-12T17:42:31Z</time>
      </trkpt>
      <trkpt lat="42.3160280" lon="1.7826320">
        <ele>1339.2</ele>
        <time>2015-08-12T17:42:34Z</time>
      </trkpt>
      <trkpt lat="42.3159950" lon="1.7826010">
        <ele>1340.6</ele>
        <time>2015-08-12T17:42:39Z</time>
      </trkpt>
      <trkpt lat="42.3159570" lon="1.7825880">
        <ele>1341.9</ele>
        <time>2015-08-12T17:42:42Z</time>
      </trkpt>
      <trkpt lat="42.3159320" lon="1.7825680">
        <ele>1342.9</ele>
        <time>2015-08-12T17:42:43Z</time>
      </trkpt>
      <trkpt lat="42.3159200" lon="1.7825240">
        <ele>1343.9</ele>
        <time>2015-08-12T17:42:46Z</time>
      </trkpt>
      <trkpt lat="42.3159390" lon="1.7825510">
        <ele>1343.0</ele>
        <time>2015-08-12T17:42:49Z</time>
      </trkpt>
      <trkpt lat="42.3159110" lon="1.7825570">
        <ele>1343.7</ele>
        <time>2015-08-12T17:43:28Z</time>
      </trkpt>
      <trkpt lat="42.3158830" lon="1.7825510">
        <ele>1344.6</ele>
        <time>2015-08-12T17:44:34Z</time>
      </trkpt>
      <trkpt lat="42.3158680" lon="1.7825180">
        <ele>1345.5</ele>
        <time>2015-08-12T17:45:01Z</time>
      </trkpt>
      <trkpt lat="42.3158680" lon="1.7825550">
        <ele>1344.9</ele>
        <time>2015-08-12T17:45:07Z</time>
      </trkpt>
      <trkpt lat="42.3158500" lon="1.7825070">
        <ele>1346.2</ele>
        <time>2015-08-12T17:45:10Z</time>
      </trkpt>
      <trkpt lat="42.3158180" lon="1.7824860">
        <ele>1347.4</ele>
        <time>2015-08-12T17:45:15Z</time>
      </trkpt>
      <trkpt lat="42.3158410" lon="1.7824650">
        <ele>1347.1</ele>
        <time>2015-08-12T17:46:45Z</time>
      </trkpt>
      <trkpt lat="42.3158620" lon="1.7824410">
        <ele>1346.8</ele>
        <time>2015-08-12T17:47:51Z</time>
      </trkpt>
      <trkpt lat="42.3158460" lon="1.7824110">
        <ele>1347.7</ele>
        <time>2015-08-12T17:48:24Z</time>
      </trkpt>
      <trkpt lat="42.3158620" lon="1.7823770">
        <ele>1347.8</ele>
        <time>2015-08-12T17:48:58Z</time>
      </trkpt>
      <trkpt lat="42.3158730" lon="1.7823410">
        <ele>1348.0</ele>
        <time>2015-08-12T17:50:45Z</time>
      </trkpt>
      <trkpt lat="42.3158350" lon="1.7823840">
        <ele>1348.4</ele>
        <time>2015-08-12T17:50:47Z</time>
      </trkpt>
      <trkpt lat="42.3158070" lon="1.7824080">
        <ele>1348.9</ele>
        <time>2015-08-12T17:50:49Z</time>
      </trkpt>
      <trkpt lat="42.3157580" lon="1.7824160">
        <ele>1350.1</ele>
        <time>2015-08-12T17:50:51Z</time>
      </trkpt>
      <trkpt lat="42.3157170" lon="1.7824230">
        <ele>1351.1</ele>
        <time>2015-08-12T17:50:53Z</time>
      </trkpt>
      <trkpt lat="42.3156880" lon="1.7824060">
        <ele>1352.2</ele>
        <time>2015-08-12T17:50:55Z</time>
      </trkpt>
      <trkpt lat="42.3156560" lon="1.7823920">
        <ele>1353.3</ele>
        <time>2015-08-12T17:50:57Z</time>
      </trkpt>
      <trkpt lat="42.3156200" lon="1.7823950">
        <ele>1354.2</ele>
        <time>2015-08-12T17:50:59Z</time>
      </trkpt>
      <trkpt lat="42.3155620" lon="1.7824360">
        <ele>1355.3</ele>
        <time>2015-08-12T17:51:00Z</time>
      </trkpt>
      <trkpt lat="42.3155240" lon="1.7824640">
        <ele>1356.0</ele>
        <time>2015-08-12T17:51:01Z</time>
      </trkpt>
      <trkpt lat="42.3154960" lon="1.7824330">
        <ele>1357.2</ele>
        <time>2015-08-12T17:51:04Z</time>
      </trkpt>
      <trkpt lat="42.3154470" lon="1.7824180">
        <ele>1358.7</ele>
        <time>2015-08-12T17:51:06Z</time>
      </trkpt>
      <trkpt lat="42.3154040" lon="1.7824130">
        <ele>1360.2</ele>
        <time>2015-08-12T17:51:08Z</time>
      </trkpt>
      <trkpt lat="42.3153740" lon="1.7824130">
        <ele>1361.5</ele>
        <time>2015-08-12T17:51:10Z</time>
      </trkpt>
      <trkpt lat="42.3153440" lon="1.7824220">
        <ele>1362.6</ele>
        <time>2015-08-12T17:51:12Z</time>
      </trkpt>
      <trkpt lat="42.3153220" lon="1.7823950">
        <ele>1363.9</ele>
        <time>2015-08-12T17:51:13Z</time>
      </trkpt>
      <trkpt lat="42.3152840" lon="1.7823740">
        <ele>1365.9</ele>
        <time>2015-08-12T17:51:15Z</time>
      </trkpt>
      <trkpt lat="42.3152540" lon="1.7823580">
        <ele>1367.5</ele>
        <time>2015-08-12T17:51:17Z</time>
      </trkpt>
      <trkpt lat="42.3152190" lon="1.7823660">
        <ele>1368.9</ele>
        <time>2015-08-12T17:51:19Z</time>
      </trkpt>
      <trkpt lat="42.3151780" lon="1.7823580">
        <ele>1370.9</ele>
        <time>2015-08-12T17:51:22Z</time>
      </trkpt>
      <trkpt lat="42.3151290" lon="1.7823540">
        <ele>1373.1</ele>
        <time>2015-08-12T17:51:24Z</time>
      </trkpt>
      <trkpt lat="42.3150830" lon="1.7823360">
        <ele>1375.6</ele>
        <time>2015-08-12T17:51:26Z</time>
      </trkpt>
      <trkpt lat="42.3150560" lon="1.7823360">
        <ele>1376.8</ele>
        <time>2015-08-12T17:51:28Z</time>
      </trkpt>
      <trkpt lat="42.3150400" lon="1.7822830">
        <ele>1378.9</ele>
        <time>2015-08-12T17:51:31Z</time>
      </trkpt>
      <trkpt lat="42.3150460" lon="1.7822350">
        <ele>1379.8</ele>
        <time>2015-08-12T17:51:33Z</time>
      </trkpt>
      <trkpt lat="42.3150590" lon="1.7821900">
        <ele>1380.3</ele>
        <time>2015-08-12T17:51:35Z</time>
      </trkpt>
      <trkpt lat="42.3150760" lon="1.7821590">
        <ele>1380.2</ele>
        <time>2015-08-12T17:51:36Z</time>
      </trkpt>
      <trkpt lat="42.3150930" lon="1.7821300">
        <ele>1380.0</ele>
        <time>2015-08-12T17:51:37Z</time>
      </trkpt>
      <trkpt lat="42.3151250" lon="1.7821020">
        <ele>1379.0</ele>
        <time>2015-08-12T17:51:39Z</time>
      </trkpt>
      <trkpt lat="42.3151640" lon="1.7820980">
        <ele>1377.0</ele>
        <time>2015-08-12T17:51:41Z</time>
      </trkpt>
      <trkpt lat="42.3151870" lon="1.7820790">
        <ele>1376.2</ele>
        <time>2015-08-12T17:51:43Z</time>
      </trkpt>
      <trkpt lat="42.3152300" lon="1.7820690">
        <ele>1374.1</ele>
        <time>2015-08-12T17:51:45Z</time>
      </trkpt>
      <trkpt lat="42.3152630" lon="1.7820460">
        <ele>1372.8</ele>
        <time>2015-08-12T17:51:47Z</time>
      </trkpt>
      <trkpt lat="42.3152810" lon="1.7820190">
        <ele>1372.3</ele>
        <time>2015-08-12T17:51:49Z</time>
      </trkpt>
      <trkpt lat="42.3153320" lon="1.7819850">
        <ele>1370.3</ele>
        <time>2015-08-12T17:51:52Z</time>
      </trkpt>
      <trkpt lat="42.3153690" lon="1.7819570">
        <ele>1368.9</ele>
        <time>2015-08-12T17:51:55Z</time>
      </trkpt>
      <trkpt lat="42.3154430" lon="1.7819020">
        <ele>1366.9</ele>
        <time>2015-08-12T17:52:00Z</time>
      </trkpt>
      <trkpt lat="42.3154780" lon="1.7818820">
        <ele>1366.7</ele>
        <time>2015-08-12T17:52:02Z</time>
      </trkpt>
      <trkpt lat="42.3155050" lon="1.7818620">
        <ele>1366.6</ele>
        <time>2015-08-12T17:52:04Z</time>
      </trkpt>
      <trkpt lat="42.3155770" lon="1.7818050">
        <ele>1366.6</ele>
        <time>2015-08-12T17:52:09Z</time>
      </trkpt>
      <trkpt lat="42.3156140" lon="1.7817860">
        <ele>1366.4</ele>
        <time>2015-08-12T17:52:11Z</time>
      </trkpt>
      <trkpt lat="42.3156650" lon="1.7817460">
        <ele>1366.7</ele>
        <time>2015-08-12T17:52:14Z</time>
      </trkpt>
      <trkpt lat="42.3157040" lon="1.7817290">
        <ele>1366.6</ele>
        <time>2015-08-12T17:52:16Z</time>
      </trkpt>
      <trkpt lat="42.3157260" lon="1.7816910">
        <ele>1367.4</ele>
        <time>2015-08-12T17:52:19Z</time>
      </trkpt>
      <trkpt lat="42.3157510" lon="1.7816780">
        <ele>1367.4</ele>
        <time>2015-08-12T17:52:21Z</time>
      </trkpt>
      <trkpt lat="42.3157840" lon="1.7816530">
        <ele>1367.8</ele>
        <time>2015-08-12T17:52:24Z</time>
      </trkpt>
      <trkpt lat="42.3158130" lon="1.7816540">
        <ele>1367.4</ele>
        <time>2015-08-12T17:52:26Z</time>
      </trkpt>
      <trkpt lat="42.3158630" lon="1.7816620">
        <ele>1366.5</ele>
        <time>2015-08-12T17:52:28Z</time>
      </trkpt>
      <trkpt lat="42.3158990" lon="1.7816290">
        <ele>1367.2</ele>
        <time>2015-08-12T17:52:30Z</time>
      </trkpt>
      <trkpt lat="42.3159370" lon="1.7816300">
        <ele>1366.8</ele>
        <time>2015-08-12T17:52:33Z</time>
      </trkpt>
      <trkpt lat="42.3159620" lon="1.7816500">
        <ele>1365.7</ele>
        <time>2015-08-12T17:52:35Z</time>
      </trkpt>
      <trkpt lat="42.3159920" lon="1.7816510">
        <ele>1365.4</ele>
        <time>2015-08-12T17:52:37Z</time>
      </trkpt>
      <trkpt lat="42.3160230" lon="1.7816540">
        <ele>1364.9</ele>
        <time>2015-08-12T17:52:39Z</time>
      </trkpt>
      <trkpt lat="42.3160660" lon="1.7816400">
        <ele>1364.9</ele>
        <time>2015-08-12T17:52:42Z</time>
      </trkpt>
      <trkpt lat="42.3161080" lon="1.7816230">
        <ele>1365.1</ele>
        <time>2015-08-12T17:52:44Z</time>
      </trkpt>
      <trkpt lat="42.3161470" lon="1.7816430">
        <ele>1363.8</ele>
        <time>2015-08-12T17:52:47Z</time>
      </trkpt>
      <trkpt lat="42.3161760" lon="1.7816550">
        <ele>1362.9</ele>
        <time>2015-08-12T17:52:50Z</time>
      </trkpt>
      <trkpt lat="42.3162020" lon="1.7816450">
        <ele>1363.1</ele>
        <time>2015-08-12T17:52:52Z</time>
      </trkpt>
      <trkpt lat="42.3162410" lon="1.7816480">
        <ele>1362.5</ele>
        <time>2015-08-12T17:52:54Z</time>
      </trkpt>
      <trkpt lat="42.3162710" lon="1.7816490">
        <ele>1362.1</ele>
        <time>2015-08-12T17:52:56Z</time>
      </trkpt>
      <trkpt lat="42.3163060" lon="1.7816500">
        <ele>1361.7</ele>
        <time>2015-08-12T17:52:58Z</time>
      </trkpt>
      <trkpt lat="42.3163480" lon="1.7816480">
        <ele>1361.4</ele>
        <time>2015-08-12T17:53:02Z</time>
      </trkpt>
      <trkpt lat="42.3163810" lon="1.7816490">
        <ele>1361.0</ele>
        <time>2015-08-12T17:53:04Z</time>
      </trkpt>
      <trkpt lat="42.3164000" lon="1.7816130">
        <ele>1362.5</ele>
        <time>2015-08-12T17:53:07Z</time>
      </trkpt>
      <trkpt lat="42.3164270" lon="1.7816030">
        <ele>1362.6</ele>
        <time>2015-08-12T17:53:09Z</time>
      </trkpt>
      <trkpt lat="42.3164640" lon="1.7815930">
        <ele>1362.7</ele>
        <time>2015-08-12T17:53:12Z</time>
      </trkpt>
      <trkpt lat="42.3164970" lon="1.7815900">
        <ele>1362.4</ele>
        <time>2015-08-12T17:53:14Z</time>
      </trkpt>
      <trkpt lat="42.3165290" lon="1.7815440">
        <ele>1364.1</ele>
        <time>2015-08-12T17:53:17Z</time>
      </trkpt>
      <trkpt lat="42.3165570" lon="1.7815110">
        <ele>1365.1</ele>
        <time>2015-08-12T17:53:19Z</time>
      </trkpt>
      <trkpt lat="42.3165870" lon="1.7815230">
        <ele>1364.3</ele>
        <time>2015-08-12T17:53:20Z</time>
      </trkpt>
      <trkpt lat="42.3166130" lon="1.7814990">
        <ele>1365.0</ele>
        <time>2015-08-12T17:53:24Z</time>
      </trkpt>
      <trkpt lat="42.3166000" lon="1.7814490">
        <ele>1367.2</ele>
        <time>2015-08-12T17:53:28Z</time>
      </trkpt>
      <trkpt lat="42.3166400" lon="1.7814120">
        <ele>1368.2</ele>
        <time>2015-08-12T17:53:30Z</time>
      </trkpt>
      <trkpt lat="42.3166510" lon="1.7813650">
        <ele>1370.0</ele>
        <time>2015-08-12T17:53:32Z</time>
      </trkpt>
      <trkpt lat="42.3166720" lon="1.7813170">
        <ele>1371.7</ele>
        <time>2015-08-12T17:53:34Z</time>
      </trkpt>
      <trkpt lat="42.3166880" lon="1.7812670">
        <ele>1373.5</ele>
        <time>2015-08-12T17:53:36Z</time>
      </trkpt>
      <trkpt lat="42.3166960" lon="1.7812200">
        <ele>1375.2</ele>
        <time>2015-08-12T17:53:38Z</time>
      </trkpt>
      <trkpt lat="42.3167180" lon="1.7811820">
        <ele>1376.4</ele>
        <time>2015-08-12T17:53:40Z</time>
      </trkpt>
      <trkpt lat="42.3167390" lon="1.7811570">
        <ele>1377.0</ele>
        <time>2015-08-12T17:53:41Z</time>
      </trkpt>
      <trkpt lat="42.3167540" lon="1.7811210">
        <ele>1378.1</ele>
        <time>2015-08-12T17:53:43Z</time>
      </trkpt>
      <trkpt lat="42.3167980" lon="1.7811200">
        <ele>1377.4</ele>
        <time>2015-08-12T17:53:45Z</time>
      </trkpt>
      <trkpt lat="42.3168280" lon="1.7810990">
        <ele>1377.7</ele>
        <time>2015-08-12T17:53:47Z</time>
      </trkpt>
      <trkpt lat="42.3168670" lon="1.7810970">
        <ele>1377.0</ele>
        <time>2015-08-12T17:53:49Z</time>
      </trkpt>
      <trkpt lat="42.3169120" lon="1.7811150">
        <ele>1375.6</ele>
        <time>2015-08-12T17:53:51Z</time>
      </trkpt>
      <trkpt lat="42.3169720" lon="1.7811170">
        <ele>1374.4</ele>
        <time>2015-08-12T17:53:53Z</time>
      </trkpt>
      <trkpt lat="42.3170150" lon="1.7811290">
        <ele>1373.3</ele>
        <time>2015-08-12T17:53:57Z</time>
      </trkpt>
      <trkpt lat="42.3170340" lon="1.7811560">
        <ele>1372.0</ele>
        <time>2015-08-12T17:53:59Z</time>
      </trkpt>
      <trkpt lat="42.3170640" lon="1.7812090">
        <ele>1369.7</ele>
        <time>2015-08-12T17:54:03Z</time>
      </trkpt>
      <trkpt lat="42.3171120" lon="1.7812160">
        <ele>1369.0</ele>
        <time>2015-08-12T17:54:05Z</time>
      </trkpt>
      <trkpt lat="42.3171560" lon="1.7812240">
        <ele>1368.4</ele>
        <time>2015-08-12T17:54:07Z</time>
      </trkpt>
      <trkpt lat="42.3171820" lon="1.7812410">
        <ele>1367.7</ele>
        <time>2015-08-12T17:54:10Z</time>
      </trkpt>
      <trkpt lat="42.3172200" lon="1.7812420">
        <ele>1367.4</ele>
        <time>2015-08-12T17:54:12Z</time>
      </trkpt>
      <trkpt lat="42.3172670" lon="1.7812460">
        <ele>1367.0</ele>
        <time>2015-08-12T17:54:14Z</time>
      </trkpt>
      <trkpt lat="42.3173010" lon="1.7812440">
        <ele>1366.9</ele>
        <time>2015-08-12T17:54:16Z</time>
      </trkpt>
      <trkpt lat="42.3173550" lon="1.7812560">
        <ele>1366.2</ele>
        <time>2015-08-12T17:54:18Z</time>
      </trkpt>
      <trkpt lat="42.3173700" lon="1.7812130">
        <ele>1367.5</ele>
        <time>2015-08-12T17:54:20Z</time>
      </trkpt>
      <trkpt lat="42.3173900" lon="1.7811740">
        <ele>1368.6</ele>
        <time>2015-08-12T17:54:22Z</time>
      </trkpt>
      <trkpt lat="42.3174170" lon="1.7811280">
        <ele>1370.0</ele>
        <time>2015-08-12T17:54:23Z</time>
      </trkpt>
      <trkpt lat="42.3174300" lon="1.7810840">
        <ele>1371.3</ele>
        <time>2015-08-12T17:54:24Z</time>
      </trkpt>
      <trkpt lat="42.3174200" lon="1.7810420">
        <ele>1372.8</ele>
        <time>2015-08-12T17:54:25Z</time>
      </trkpt>
      <trkpt lat="42.3174480" lon="1.7810370">
        <ele>1372.7</ele>
        <time>2015-08-12T17:54:27Z</time>
      </trkpt>
      <trkpt lat="42.3174870" lon="1.7810000">
        <ele>1373.7</ele>
        <time>2015-08-12T17:54:29Z</time>
      </trkpt>
      <trkpt lat="42.3175130" lon="1.7809750">
        <ele>1374.3</ele>
        <time>2015-08-12T17:54:31Z</time>
      </trkpt>
      <trkpt lat="42.3175300" lon="1.7809340">
        <ele>1375.5</ele>
        <time>2015-08-12T17:54:33Z</time>
      </trkpt>
      <trkpt lat="42.3175660" lon="1.7809170">
        <ele>1375.8</ele>
        <time>2015-08-12T17:54:35Z</time>
      </trkpt>
      <trkpt lat="42.3175920" lon="1.7809320">
        <ele>1375.2</ele>
        <time>2015-08-12T17:54:36Z</time>
      </trkpt>
      <trkpt lat="42.3176370" lon="1.7809390">
        <ele>1374.6</ele>
        <time>2015-08-12T17:54:38Z</time>
      </trkpt>
      <trkpt lat="42.3176820" lon="1.7809260">
        <ele>1374.7</ele>
        <time>2015-08-12T17:54:40Z</time>
      </trkpt>
      <trkpt lat="42.3177240" lon="1.7809420">
        <ele>1373.9</ele>
        <time>2015-08-12T17:54:42Z</time>
      </trkpt>
      <trkpt lat="42.3177500" lon="1.7809250">
        <ele>1374.3</ele>
        <time>2015-08-12T17:54:43Z</time>
      </trkpt>
      <trkpt lat="42.3177820" lon="1.7809210">
        <ele>1374.2</ele>
        <time>2015-08-12T17:54:45Z</time>
      </trkpt>
      <trkpt lat="42.3178240" lon="1.7809310">
        <ele>1373.6</ele>
        <time>2015-08-12T17:54:47Z</time>
      </trkpt>
      <trkpt lat="42.3178690" lon="1.7809490">
        <ele>1372.7</ele>
        <time>2015-08-12T17:54:49Z</time>
      </trkpt>
      <trkpt lat="42.3179180" lon="1.7809390">
        <ele>1372.7</ele>
        <time>2015-08-12T17:54:51Z</time>
      </trkpt>
      <trkpt lat="42.3179550" lon="1.7809240">
        <ele>1373.0</ele>
        <time>2015-08-12T17:54:53Z</time>
      </trkpt>
      <trkpt lat="42.3179880" lon="1.7809260">
        <ele>1372.8</ele>
        <time>2015-08-12T17:54:55Z</time>
      </trkpt>
      <trkpt lat="42.3180200" lon="1.7809340">
        <ele>1372.4</ele>
        <time>2015-08-12T17:54:57Z</time>
      </trkpt>
      <trkpt lat="42.3180620" lon="1.7809280">
        <ele>1372.4</ele>
        <time>2015-08-12T17:54:59Z</time>
      </trkpt>
      <trkpt lat="42.3180920" lon="1.7808970">
        <ele>1373.3</ele>
        <time>2015-08-12T17:55:02Z</time>
      </trkpt>
      <trkpt lat="42.3181270" lon="1.7808800">
        <ele>1373.6</ele>
        <time>2015-08-12T17:55:04Z</time>
      </trkpt>
      <trkpt lat="42.3181640" lon="1.7808520">
        <ele>1374.4</ele>
        <time>2015-08-12T17:55:06Z</time>
      </trkpt>
      <trkpt lat="42.3182150" lon="1.7808520">
        <ele>1374.2</ele>
        <time>2015-08-12T17:55:08Z</time>
      </trkpt>
      <trkpt lat="42.3182490" lon="1.7808800">
        <ele>1373.1</ele>
        <time>2015-08-12T17:55:10Z</time>
      </trkpt>
      <trkpt lat="42.3182850" lon="1.7808740">
        <ele>1373.2</ele>
        <time>2015-08-12T17:55:12Z</time>
      </trkpt>
      <trkpt lat="42.3183370" lon="1.7808720">
        <ele>1373.0</ele>
        <time>2015-08-12T17:55:14Z</time>
      </trkpt>
      <trkpt lat="42.3183840" lon="1.7808680">
        <ele>1372.9</ele>
        <time>2015-08-12T17:55:16Z</time>
      </trkpt>
      <trkpt lat="42.3184220" lon="1.7808610">
        <ele>1373.0</ele>
        <time>2015-08-12T17:55:18Z</time>
      </trkpt>
      <trkpt lat="42.3184510" lon="1.7808860">
        <ele>1372.1</ele>
        <time>2015-08-12T17:55:21Z</time>
      </trkpt>
      <trkpt lat="42.3184810" lon="1.7809050">
        <ele>1371.3</ele>
        <time>2015-08-12T17:55:23Z</time>
      </trkpt>
      <trkpt lat="42.3185140" lon="1.7808920">
        <ele>1371.6</ele>
        <time>2015-08-12T17:55:26Z</time>
      </trkpt>
      <trkpt lat="42.3185480" lon="1.7808940">
        <ele>1371.4</ele>
        <time>2015-08-12T17:55:28Z</time>
      </trkpt>
      <trkpt lat="42.3185740" lon="1.7808750">
        <ele>1371.9</ele>
        <time>2015-08-12T17:55:32Z</time>
      </trkpt>
      <trkpt lat="42.3185500" lon="1.7808550">
        <ele>1372.6</ele>
        <time>2015-08-12T17:55:35Z</time>
      </trkpt>
      <trkpt lat="42.3185710" lon="1.7808050">
        <ele>1374.2</ele>
        <time>2015-08-12T17:55:37Z</time>
      </trkpt>
      <trkpt lat="42.3185960" lon="1.7807710">
        <ele>1375.2</ele>
        <time>2015-08-12T17:55:41Z</time>
      </trkpt>
      <trkpt lat="42.3186330" lon="1.7807280">
        <ele>1376.4</ele>
        <time>2015-08-12T17:55:43Z</time>
      </trkpt>
      <trkpt lat="42.3186570" lon="1.7806880">
        <ele>1377.6</ele>
        <time>2015-08-12T17:55:45Z</time>
      </trkpt>
      <trkpt lat="42.3186840" lon="1.7806450">
        <ele>1378.9</ele>
        <time>2015-08-12T17:55:47Z</time>
      </trkpt>
      <trkpt lat="42.3187050" lon="1.7806070">
        <ele>1380.0</ele>
        <time>2015-08-12T17:55:50Z</time>
      </trkpt>
      <trkpt lat="42.3187230" lon="1.7805750">
        <ele>1381.0</ele>
        <time>2015-08-12T17:55:52Z</time>
      </trkpt>
      <trkpt lat="42.3187260" lon="1.7805310">
        <ele>1382.4</ele>
        <time>2015-08-12T17:55:55Z</time>
      </trkpt>
      <trkpt lat="42.3187300" lon="1.7804910">
        <ele>1383.7</ele>
        <time>2015-08-12T17:55:57Z</time>
      </trkpt>
      <trkpt lat="42.3187290" lon="1.7804450">
        <ele>1385.2</ele>
        <time>2015-08-12T17:55:59Z</time>
      </trkpt>
      <trkpt lat="42.3187290" lon="1.7804020">
        <ele>1386.4</ele>
        <time>2015-08-12T17:56:02Z</time>
      </trkpt>
      <trkpt lat="42.3187530" lon="1.7803810">
        <ele>1386.7</ele>
        <time>2015-08-12T17:56:04Z</time>
      </trkpt>
      <trkpt lat="42.3187680" lon="1.7803410">
        <ele>1387.3</ele>
        <time>2015-08-12T17:56:06Z</time>
      </trkpt>
      <trkpt lat="42.3187860" lon="1.7803070">
        <ele>1387.7</ele>
        <time>2015-08-12T17:56:08Z</time>
      </trkpt>
      <trkpt lat="42.3187970" lon="1.7802650">
        <ele>1388.4</ele>
        <time>2015-08-12T17:56:10Z</time>
      </trkpt>
      <trkpt lat="42.3188090" lon="1.7802260">
        <ele>1389.1</ele>
        <time>2015-08-12T17:56:12Z</time>
      </trkpt>
      <trkpt lat="42.3188120" lon="1.7801820">
        <ele>1390.0</ele>
        <time>2015-08-12T17:56:15Z</time>
      </trkpt>
      <trkpt lat="42.3188090" lon="1.7801250">
        <ele>1391.4</ele>
        <time>2015-08-12T17:56:18Z</time>
      </trkpt>
      <trkpt lat="42.3188130" lon="1.7800850">
        <ele>1392.2</ele>
        <time>2015-08-12T17:56:20Z</time>
      </trkpt>
      <trkpt lat="42.3188230" lon="1.7800480">
        <ele>1392.9</ele>
        <time>2015-08-12T17:56:23Z</time>
      </trkpt>
      <trkpt lat="42.3188430" lon="1.7800190">
        <ele>1393.1</ele>
        <time>2015-08-12T17:56:25Z</time>
      </trkpt>
      <trkpt lat="42.3188670" lon="1.7799850">
        <ele>1393.4</ele>
        <time>2015-08-12T17:56:28Z</time>
      </trkpt>
      <trkpt lat="42.3188930" lon="1.7799460">
        <ele>1393.8</ele>
        <time>2015-08-12T17:56:31Z</time>
      </trkpt>
      <trkpt lat="42.3189170" lon="1.7799130">
        <ele>1394.0</ele>
        <time>2015-08-12T17:56:34Z</time>
      </trkpt>
      <trkpt lat="42.3189420" lon="1.7798890">
        <ele>1394.1</ele>
        <time>2015-08-12T17:56:37Z</time>
      </trkpt>
      <trkpt lat="42.3189540" lon="1.7798540">
        <ele>1394.7</ele>
        <time>2015-08-12T17:56:39Z</time>
      </trkpt>
      <trkpt lat="42.3189620" lon="1.7798120">
        <ele>1395.5</ele>
        <time>2015-08-12T17:56:41Z</time>
      </trkpt>
      <trkpt lat="42.3189760" lon="1.7797610">
        <ele>1396.4</ele>
        <time>2015-08-12T17:56:43Z</time>
      </trkpt>
      <trkpt lat="42.3189560" lon="1.7797270">
        <ele>1397.6</ele>
        <time>2015-08-12T17:56:45Z</time>
      </trkpt>
      <trkpt lat="42.3189180" lon="1.7797250">
        <ele>1398.4</ele>
        <time>2015-08-12T17:56:47Z</time>
      </trkpt>
      <trkpt lat="42.3188960" lon="1.7797030">
        <ele>1399.4</ele>
        <time>2015-08-12T17:56:49Z</time>
      </trkpt>
      <trkpt lat="42.3188630" lon="1.7797240">
        <ele>1399.6</ele>
        <time>2015-08-12T17:56:52Z</time>
      </trkpt>
      <trkpt lat="42.3188620" lon="1.7797640">
        <ele>1398.6</ele>
        <time>2015-08-12T17:56:54Z</time>
      </trkpt>
      <trkpt lat="42.3188590" lon="1.7798100">
        <ele>1397.6</ele>
        <time>2015-08-12T17:56:57Z</time>
      </trkpt>
      <trkpt lat="42.3188480" lon="1.7798470">
        <ele>1397.0</ele>
        <time>2015-08-12T17:56:59Z</time>
      </trkpt>
      <trkpt lat="42.3188530" lon="1.7798860">
        <ele>1396.0</ele>
        <time>2015-08-12T17:57:01Z</time>
      </trkpt>
      <trkpt lat="42.3188370" lon="1.7799360">
        <ele>1395.2</ele>
        <time>2015-08-12T17:57:03Z</time>
      </trkpt>
      <trkpt lat="42.3188080" lon="1.7799710">
        <ele>1395.0</ele>
        <time>2015-08-12T17:57:05Z</time>
      </trkpt>
      <trkpt lat="42.3187990" lon="1.7800220">
        <ele>1394.0</ele>
        <time>2015-08-12T17:57:07Z</time>
      </trkpt>
      <trkpt lat="42.3187650" lon="1.7800270">
        <ele>1394.6</ele>
        <time>2015-08-12T17:57:10Z</time>
      </trkpt>
      <trkpt lat="42.3187270" lon="1.7800380">
        <ele>1394.8</ele>
        <time>2015-08-12T17:57:12Z</time>
      </trkpt>
      <trkpt lat="42.3186930" lon="1.7800390">
        <ele>1395.0</ele>
        <time>2015-08-12T17:57:14Z</time>
      </trkpt>
      <trkpt lat="42.3186590" lon="1.7800610">
        <ele>1394.7</ele>
        <time>2015-08-12T17:57:17Z</time>
      </trkpt>
      <trkpt lat="42.3186080" lon="1.7800720">
        <ele>1394.8</ele>
        <time>2015-08-12T17:57:20Z</time>
      </trkpt>
      <trkpt lat="42.3185740" lon="1.7800800">
        <ele>1394.8</ele>
        <time>2015-08-12T17:57:22Z</time>
      </trkpt>
      <trkpt lat="42.3185490" lon="1.7800970">
        <ele>1394.6</ele>
        <time>2015-08-12T17:57:24Z</time>
      </trkpt>
      <trkpt lat="42.3185060" lon="1.7801180">
        <ele>1394.3</ele>
        <time>2015-08-12T17:57:29Z</time>
      </trkpt>
      <trkpt lat="42.3184740" lon="1.7801280">
        <ele>1394.3</ele>
        <time>2015-08-12T17:57:31Z</time>
      </trkpt>
      <trkpt lat="42.3184480" lon="1.7801160">
        <ele>1394.7</ele>
        <time>2015-08-12T17:57:33Z</time>
      </trkpt>
      <trkpt lat="42.3184200" lon="1.7801000">
        <ele>1395.3</ele>
        <time>2015-08-12T17:57:35Z</time>
      </trkpt>
      <trkpt lat="42.3183730" lon="1.7801180">
        <ele>1395.1</ele>
        <time>2015-08-12T17:57:37Z</time>
      </trkpt>
      <trkpt lat="42.3183340" lon="1.7801240">
        <ele>1395.2</ele>
        <time>2015-08-12T17:57:39Z</time>
      </trkpt>
      <trkpt lat="42.3183060" lon="1.7801230">
        <ele>1395.4</ele>
        <time>2015-08-12T17:57:41Z</time>
      </trkpt>
      <trkpt lat="42.3182580" lon="1.7801310">
        <ele>1395.5</ele>
        <time>2015-08-12T17:57:44Z</time>
      </trkpt>
      <trkpt lat="42.3182270" lon="1.7801390">
        <ele>1395.5</ele>
        <time>2015-08-12T17:57:47Z</time>
      </trkpt>
      <trkpt lat="42.3181880" lon="1.7801370">
        <ele>1395.8</ele>
        <time>2015-08-12T17:57:49Z</time>
      </trkpt>
      <trkpt lat="42.3181620" lon="1.7801460">
        <ele>1395.7</ele>
        <time>2015-08-12T17:57:51Z</time>
      </trkpt>
      <trkpt lat="42.3181290" lon="1.7801370">
        <ele>1396.1</ele>
        <time>2015-08-12T17:57:54Z</time>
      </trkpt>
      <trkpt lat="42.3180910" lon="1.7801450">
        <ele>1396.1</ele>
        <time>2015-08-12T17:57:57Z</time>
      </trkpt>
      <trkpt lat="42.3180560" lon="1.7801300">
        <ele>1396.8</ele>
        <time>2015-08-12T17:58:01Z</time>
      </trkpt>
      <trkpt lat="42.3180200" lon="1.7801140">
        <ele>1397.4</ele>
        <time>2015-08-12T17:58:03Z</time>
      </trkpt>
      <trkpt lat="42.3179810" lon="1.7800950">
        <ele>1398.2</ele>
        <time>2015-08-12T17:58:06Z</time>
      </trkpt>
      <trkpt lat="42.3179530" lon="1.7800810">
        <ele>1398.8</ele>
        <time>2015-08-12T17:58:08Z</time>
      </trkpt>
      <trkpt lat="42.3179240" lon="1.7800680">
        <ele>1399.4</ele>
        <time>2015-08-12T17:58:10Z</time>
      </trkpt>
      <trkpt lat="42.3178930" lon="1.7800300">
        <ele>1401.0</ele>
        <time>2015-08-12T17:58:13Z</time>
      </trkpt>
      <trkpt lat="42.3178630" lon="1.7800210">
        <ele>1401.8</ele>
        <time>2015-08-12T17:58:16Z</time>
      </trkpt>
      <trkpt lat="42.3178300" lon="1.7799860">
        <ele>1403.5</ele>
        <time>2015-08-12T17:58:19Z</time>
      </trkpt>
      <trkpt lat="42.3178050" lon="1.7799570">
        <ele>1404.9</ele>
        <time>2015-08-12T17:58:22Z</time>
      </trkpt>
      <trkpt lat="42.3177770" lon="1.7799350">
        <ele>1406.2</ele>
        <time>2015-08-12T17:58:24Z</time>
      </trkpt>
      <trkpt lat="42.3177560" lon="1.7799050">
        <ele>1407.6</ele>
        <time>2015-08-12T17:58:26Z</time>
      </trkpt>
      <trkpt lat="42.3177320" lon="1.7798870">
        <ele>1408.7</ele>
        <time>2015-08-12T17:58:28Z</time>
      </trkpt>
      <trkpt lat="42.3177160" lon="1.7798530">
        <ele>1410.2</ele>
        <time>2015-08-12T17:58:29Z</time>
      </trkpt>
      <trkpt lat="42.3177020" lon="1.7798010">
        <ele>1412.3</ele>
        <time>2015-08-12T17:58:31Z</time>
      </trkpt>
      <trkpt lat="42.3176870" lon="1.7797680">
        <ele>1413.8</ele>
        <time>2015-08-12T17:58:33Z</time>
      </trkpt>
      <trkpt lat="42.3176530" lon="1.7797740">
        <ele>1414.4</ele>
        <time>2015-08-12T17:58:36Z</time>
      </trkpt>
      <trkpt lat="42.3176260" lon="1.7797620">
        <ele>1415.5</ele>
        <time>2015-08-12T17:58:38Z</time>
      </trkpt>
      <trkpt lat="42.3176000" lon="1.7797470">
        <ele>1416.6</ele>
        <time>2015-08-12T17:58:43Z</time>
      </trkpt>
      <trkpt lat="42.3175660" lon="1.7797420">
        <ele>1417.6</ele>
        <time>2015-08-12T17:58:45Z</time>
      </trkpt>
      <trkpt lat="42.3175300" lon="1.7797240">
        <ele>1419.2</ele>
        <time>2015-08-12T17:58:48Z</time>
      </trkpt>
      <trkpt lat="42.3175050" lon="1.7797040">
        <ele>1420.6</ele>
        <time>2015-08-12T17:58:50Z</time>
      </trkpt>
      <trkpt lat="42.3174780" lon="1.7796880">
        <ele>1421.9</ele>
        <time>2015-08-12T17:58:52Z</time>
      </trkpt>
      <trkpt lat="42.3174430" lon="1.7797150">
        <ele>1421.7</ele>
        <time>2015-08-12T17:58:54Z</time>
      </trkpt>
      <trkpt lat="42.3174290" lon="1.7796550">
        <ele>1424.5</ele>
        <time>2015-08-12T17:58:56Z</time>
      </trkpt>
      <trkpt lat="42.3174120" lon="1.7795990">
        <ele>1427.3</ele>
        <time>2015-08-12T17:58:58Z</time>
      </trkpt>
      <trkpt lat="42.3173990" lon="1.7795510">
        <ele>1429.7</ele>
        <time>2015-08-12T17:58:59Z</time>
      </trkpt>
      <trkpt lat="42.3173680" lon="1.7795860">
        <ele>1429.0</ele>
        <time>2015-08-12T17:59:01Z</time>
      </trkpt>
      <trkpt lat="42.3173470" lon="1.7795260">
        <ele>1432.3</ele>
        <time>2015-08-12T17:59:03Z</time>
      </trkpt>
      <trkpt lat="42.3173340" lon="1.7794930">
        <ele>1434.1</ele>
        <time>2015-08-12T17:59:04Z</time>
      </trkpt>
      <trkpt lat="42.3173030" lon="1.7794370">
        <ele>1437.5</ele>
        <time>2015-08-12T17:59:06Z</time>
      </trkpt>
      <trkpt lat="42.3172880" lon="1.7794060">
        <ele>1439.3</ele>
        <time>2015-08-12T17:59:08Z</time>
      </trkpt>
      <trkpt lat="42.3172760" lon="1.7793460">
        <ele>1442.4</ele>
        <time>2015-08-12T17:59:10Z</time>
      </trkpt>
      <trkpt lat="42.3172350" lon="1.7795480">
        <ele>1434.4</ele>
        <time>2015-08-12T17:59:13Z</time>
      </trkpt>
      <trkpt lat="42.3172260" lon="1.7795030">
        <ele>1436.8</ele>
        <time>2015-08-12T17:59:14Z</time>
      </trkpt>
      <trkpt lat="42.3172050" lon="1.7795300">
        <ele>1436.1</ele>
        <time>2015-08-12T17:59:17Z</time>
      </trkpt>
      <trkpt lat="42.3171770" lon="1.7794870">
        <ele>1438.9</ele>
        <time>2015-08-12T17:59:20Z</time>
      </trkpt>
      <trkpt lat="42.3171460" lon="1.7795060">
        <ele>1438.9</ele>
        <time>2015-08-12T17:59:21Z</time>
      </trkpt>
      <trkpt lat="42.3171050" lon="1.7795230">
        <ele>1439.3</ele>
        <time>2015-08-12T17:59:23Z</time>
      </trkpt>
      <trkpt lat="42.3170760" lon="1.7795500">
        <ele>1438.8</ele>
        <time>2015-08-12T17:59:25Z</time>
      </trkpt>
      <trkpt lat="42.3170290" lon="1.7795790">
        <ele>1439.0</ele>
        <time>2015-08-12T17:59:27Z</time>
      </trkpt>
      <trkpt lat="42.3169950" lon="1.7795700">
        <ele>1440.5</ele>
        <time>2015-08-12T17:59:29Z</time>
      </trkpt>
      <trkpt lat="42.3169700" lon="1.7795490">
        <ele>1442.3</ele>
        <time>2015-08-12T17:59:32Z</time>
      </trkpt>
      <trkpt lat="42.3169430" lon="1.7795550">
        <ele>1442.9</ele>
        <time>2015-08-12T17:59:34Z</time>
      </trkpt>
      <trkpt lat="42.3169160" lon="1.7795730">
        <ele>1442.9</ele>
        <time>2015-08-12T17:59:36Z</time>
      </trkpt>
      <trkpt lat="42.3168870" lon="1.7795810">
        <ele>1443.5</ele>
        <time>2015-08-12T17:59:38Z</time>
      </trkpt>
      <trkpt lat="42.3168500" lon="1.7795960">
        <ele>1443.9</ele>
        <time>2015-08-12T17:59:40Z</time>
      </trkpt>
      <trkpt lat="42.3168670" lon="1.7795350">
        <ele>1446.3</ele>
        <time>2015-08-12T17:59:43Z</time>
      </trkpt>
      <trkpt lat="42.3169210" lon="1.7794700">
        <ele>1447.7</ele>
        <time>2015-08-12T17:59:45Z</time>
      </trkpt>
      <trkpt lat="42.3169740" lon="1.7794060">
        <ele>1449.1</ele>
        <time>2015-08-12T18:00:22Z</time>
      </trkpt>
      <trkpt lat="42.3170280" lon="1.7793410">
        <ele>1450.4</ele>
        <time>2015-08-12T18:00:33Z</time>
      </trkpt>
      <trkpt lat="42.3170820" lon="1.7792770">
        <ele>1451.7</ele>
        <time>2015-08-12T18:00:34Z</time>
      </trkpt>
      <trkpt lat="42.3171190" lon="1.7792430">
        <ele>1452.2</ele>
        <time>2015-08-12T18:00:36Z</time>
      </trkpt>
      <trkpt lat="42.3171520" lon="1.7792440">
        <ele>1451.1</ele>
        <time>2015-08-12T18:00:37Z</time>
      </trkpt>
      <trkpt lat="42.3171980" lon="1.7792290">
        <ele>1450.3</ele>
        <time>2015-08-12T18:00:39Z</time>
      </trkpt>
      <trkpt lat="42.3172450" lon="1.7792030">
        <ele>1449.9</ele>
        <time>2015-08-12T18:00:41Z</time>
      </trkpt>
      <trkpt lat="42.3172900" lon="1.7792150">
        <ele>1447.9</ele>
        <time>2015-08-12T18:00:43Z</time>
      </trkpt>
      <trkpt lat="42.3173240" lon="1.7792520">
        <ele>1445.1</ele>
        <time>2015-08-12T18:00:45Z</time>
      </trkpt>
      <trkpt lat="42.3173650" lon="1.7792230">
        <ele>1445.1</ele>
        <time>2015-08-12T18:00:48Z</time>
      </trkpt>
      <trkpt lat="42.3173810" lon="1.7791930">
        <ele>1445.8</ele>
        <time>2015-08-12T18:00:49Z</time>
      </trkpt>
      <trkpt lat="42.3174030" lon="1.7791680">
        <ele>1446.2</ele>
        <time>2015-08-12T18:00:51Z</time>
      </trkpt>
      <trkpt lat="42.3174410" lon="1.7791680">
        <ele>1444.9</ele>
        <time>2015-08-12T18:00:55Z</time>
      </trkpt>
      <trkpt lat="42.3174510" lon="1.7791300">
        <ele>1446.2</ele>
        <time>2015-08-12T18:00:56Z</time>
      </trkpt>
      <trkpt lat="42.3174760" lon="1.7791450">
        <ele>1444.7</ele>
        <time>2015-08-12T18:00:57Z</time>
      </trkpt>
      <trkpt lat="42.3175080" lon="1.7791320">
        <ele>1444.2</ele>
        <time>2015-08-12T18:01:00Z</time>
      </trkpt>
      <trkpt lat="42.3175400" lon="1.7791070">
        <ele>1444.1</ele>
        <time>2015-08-12T18:01:02Z</time>
      </trkpt>
      <trkpt lat="42.3175720" lon="1.7790930">
        <ele>1443.6</ele>
        <time>2015-08-12T18:01:04Z</time>
      </trkpt>
      <trkpt lat="42.3175500" lon="1.7790720">
        <ele>1445.2</ele>
        <time>2015-08-12T18:01:05Z</time>
      </trkpt>
      <trkpt lat="42.3176000" lon="1.7790460">
        <ele>1444.5</ele>
        <time>2015-08-12T18:01:07Z</time>
      </trkpt>
      <trkpt lat="42.3176100" lon="1.7790970">
        <ele>1442.1</ele>
        <time>2015-08-12T18:01:09Z</time>
      </trkpt>
      <trkpt lat="42.3176400" lon="1.7790970">
        <ele>1441.1</ele>
        <time>2015-08-12T18:01:13Z</time>
      </trkpt>
      <trkpt lat="42.3176670" lon="1.7790820">
        <ele>1440.7</ele>
        <time>2015-08-12T18:01:17Z</time>
      </trkpt>
      <trkpt lat="42.3176720" lon="1.7790390">
        <ele>1442.3</ele>
        <time>2015-08-12T18:01:18Z</time>
      </trkpt>
      <trkpt lat="42.3177010" lon="1.7790210">
        <ele>1441.9</ele>
        <time>2015-08-12T18:01:21Z</time>
      </trkpt>
      <trkpt lat="42.3177190" lon="1.7789800">
        <ele>1442.9</ele>
        <time>2015-08-12T18:01:24Z</time>
      </trkpt>
      <trkpt lat="42.3177260" lon="1.7789100">
        <ele>1445.4</ele>
        <time>2015-08-12T18:01:28Z</time>
      </trkpt>
      <trkpt lat="42.3177650" lon="1.7789000">
        <ele>1444.3</ele>
        <time>2015-08-12T18:01:30Z</time>
      </trkpt>
      <trkpt lat="42.3177950" lon="1.7788780">
        <ele>1444.0</ele>
        <time>2015-08-12T18:01:33Z</time>
      </trkpt>
      <trkpt lat="42.3178130" lon="1.7788490">
        <ele>1444.4</ele>
        <time>2015-08-12T18:01:35Z</time>
      </trkpt>
      <trkpt lat="42.3178380" lon="1.7788220">
        <ele>1444.4</ele>
        <time>2015-08-12T18:01:37Z</time>
      </trkpt>
      <trkpt lat="42.3178530" lon="1.7787800">
        <ele>1445.4</ele>
        <time>2015-08-12T18:01:39Z</time>
      </trkpt>
      <trkpt lat="42.3178750" lon="1.7787250">
        <ele>1446.8</ele>
        <time>2015-08-12T18:01:41Z</time>
      </trkpt>
      <trkpt lat="42.3179010" lon="1.7787160">
        <ele>1446.2</ele>
        <time>2015-08-12T18:01:43Z</time>
      </trkpt>
      <trkpt lat="42.3179150" lon="1.7786780">
        <ele>1447.3</ele>
        <time>2015-08-12T18:01:46Z</time>
      </trkpt>
      <trkpt lat="42.3179190" lon="1.7786400">
        <ele>1449.0</ele>
        <time>2015-08-12T18:01:48Z</time>
      </trkpt>
      <trkpt lat="42.3179490" lon="1.7786390">
        <ele>1448.3</ele>
        <time>2015-08-12T18:01:53Z</time>
      </trkpt>
      <trkpt lat="42.3179670" lon="1.7785890">
        <ele>1450.1</ele>
        <time>2015-08-12T18:01:55Z</time>
      </trkpt>
      <trkpt lat="42.3179940" lon="1.7785750">
        <ele>1450.0</ele>
        <time>2015-08-12T18:01:56Z</time>
      </trkpt>
      <trkpt lat="42.3180070" lon="1.7785370">
        <ele>1451.4</ele>
        <time>2015-08-12T18:01:58Z</time>
      </trkpt>
      <trkpt lat="42.3180310" lon="1.7784930">
        <ele>1452.7</ele>
        <time>2015-08-12T18:02:00Z</time>
      </trkpt>
      <trkpt lat="42.3180500" lon="1.7784660">
        <ele>1453.4</ele>
        <time>2015-08-12T18:02:02Z</time>
      </trkpt>
      <trkpt lat="42.3180560" lon="1.7784260">
        <ele>1455.0</ele>
        <time>2015-08-12T18:02:04Z</time>
      </trkpt>
      <trkpt lat="42.3180750" lon="1.7783860">
        <ele>1456.2</ele>
        <time>2015-08-12T18:02:06Z</time>
      </trkpt>
      <trkpt lat="42.3181030" lon="1.7783800">
        <ele>1455.7</ele>
        <time>2015-08-12T18:02:08Z</time>
      </trkpt>
      <trkpt lat="42.3181340" lon="1.7783380">
        <ele>1456.7</ele>
        <time>2015-08-12T18:02:11Z</time>
      </trkpt>
      <trkpt lat="42.3181610" lon="1.7783190">
        <ele>1456.7</ele>
        <time>2015-08-12T18:02:13Z</time>
      </trkpt>
      <trkpt lat="42.3181710" lon="1.7782790">
        <ele>1458.1</ele>
        <time>2015-08-12T18:02:17Z</time>
      </trkpt>
      <trkpt lat="42.3181870" lon="1.7782440">
        <ele>1459.1</ele>
        <time>2015-08-12T18:02:18Z</time>
      </trkpt>
      <trkpt lat="42.3182080" lon="1.7782040">
        <ele>1460.2</ele>
        <time>2015-08-12T18:02:21Z</time>
      </trkpt>
      <trkpt lat="42.3182350" lon="1.7781750">
        <ele>1460.6</ele>
        <time>2015-08-12T18:02:23Z</time>
      </trkpt>
      <trkpt lat="42.3182730" lon="1.7781450">
        <ele>1460.7</ele>
        <time>2015-08-12T18:02:25Z</time>
      </trkpt>
      <trkpt lat="42.3182870" lon="1.7781040">
        <ele>1461.9</ele>
        <time>2015-08-12T18:02:27Z</time>
      </trkpt>
      <trkpt lat="42.3183060" lon="1.7780720">
        <ele>1462.6</ele>
        <time>2015-08-12T18:02:29Z</time>
      </trkpt>
      <trkpt lat="42.3182830" lon="1.7780370">
        <ele>1464.8</ele>
        <time>2015-08-12T18:02:30Z</time>
      </trkpt>
      <trkpt lat="42.3183310" lon="1.7780520">
        <ele>1462.6</ele>
        <time>2015-08-12T18:02:32Z</time>
      </trkpt>
      <trkpt lat="42.3183520" lon="1.7780690">
        <ele>1461.3</ele>
        <time>2015-08-12T18:02:40Z</time>
      </trkpt>
      <trkpt lat="42.3183720" lon="1.7780870">
        <ele>1459.9</ele>
        <time>2015-08-12T18:02:41Z</time>
      </trkpt>
      <trkpt lat="42.3183740" lon="1.7781310">
        <ele>1458.1</ele>
        <time>2015-08-12T18:02:42Z</time>
      </trkpt>
      <trkpt lat="42.3184100" lon="1.7781660">
        <ele>1455.6</ele>
        <time>2015-08-12T18:02:43Z</time>
      </trkpt>
      <trkpt lat="42.3184520" lon="1.7781900">
        <ele>1453.4</ele>
        <time>2015-08-12T18:02:45Z</time>
      </trkpt>
      <trkpt lat="42.3184840" lon="1.7781900">
        <ele>1452.5</ele>
        <time>2015-08-12T18:02:46Z</time>
      </trkpt>
      <trkpt lat="42.3185170" lon="1.7782150">
        <ele>1450.5</ele>
        <time>2015-08-12T18:02:48Z</time>
      </trkpt>
      <trkpt lat="42.3185460" lon="1.7782310">
        <ele>1449.1</ele>
        <time>2015-08-12T18:02:51Z</time>
      </trkpt>
      <trkpt lat="42.3185760" lon="1.7782220">
        <ele>1448.5</ele>
        <time>2015-08-12T18:02:54Z</time>
      </trkpt>
      <trkpt lat="42.3186020" lon="1.7781720">
        <ele>1449.6</ele>
        <time>2015-08-12T18:02:58Z</time>
      </trkpt>
      <trkpt lat="42.3186330" lon="1.7781710">
        <ele>1448.7</ele>
        <time>2015-08-12T18:03:00Z</time>
      </trkpt>
      <trkpt lat="42.3186480" lon="1.7781280">
        <ele>1449.8</ele>
        <time>2015-08-12T18:03:02Z</time>
      </trkpt>
      <trkpt lat="42.3186650" lon="1.7780890">
        <ele>1450.7</ele>
        <time>2015-08-12T18:03:03Z</time>
      </trkpt>
      <trkpt lat="42.3186810" lon="1.7780470">
        <ele>1451.7</ele>
        <time>2015-08-12T18:03:05Z</time>
      </trkpt>
      <trkpt lat="42.3186850" lon="1.7779840">
        <ele>1453.8</ele>
        <time>2015-08-12T18:03:07Z</time>
      </trkpt>
      <trkpt lat="42.3186800" lon="1.7779460">
        <ele>1455.3</ele>
        <time>2015-08-12T18:03:09Z</time>
      </trkpt>
      <trkpt lat="42.3186630" lon="1.7779110">
        <ele>1457.1</ele>
        <time>2015-08-12T18:03:11Z</time>
      </trkpt>
      <trkpt lat="42.3186380" lon="1.7778940">
        <ele>1458.5</ele>
        <time>2015-08-12T18:03:13Z</time>
      </trkpt>
      <trkpt lat="42.3186070" lon="1.7778680">
        <ele>1460.3</ele>
        <time>2015-08-12T18:03:21Z</time>
      </trkpt>
      <trkpt lat="42.3185790" lon="1.7778430">
        <ele>1462.0</ele>
        <time>2015-08-12T18:03:24Z</time>
      </trkpt>
      <trkpt lat="42.3185520" lon="1.7778210">
        <ele>1463.6</ele>
        <time>2015-08-12T18:03:26Z</time>
      </trkpt>
      <trkpt lat="42.3185280" lon="1.7777970">
        <ele>1465.2</ele>
        <time>2015-08-12T18:03:28Z</time>
      </trkpt>
      <trkpt lat="42.3185070" lon="1.7777550">
        <ele>1467.2</ele>
        <time>2015-08-12T18:03:30Z</time>
      </trkpt>
      <trkpt lat="42.3184780" lon="1.7777270">
        <ele>1469.1</ele>
        <time>2015-08-12T18:03:32Z</time>
      </trkpt>
      <trkpt lat="42.3184480" lon="1.7777050">
        <ele>1470.8</ele>
        <time>2015-08-12T18:03:34Z</time>
      </trkpt>
      <trkpt lat="42.3184130" lon="1.7777030">
        <ele>1472.0</ele>
        <time>2015-08-12T18:03:37Z</time>
      </trkpt>
      <trkpt lat="42.3183770" lon="1.7776970">
        <ele>1473.5</ele>
        <time>2015-08-12T18:03:39Z</time>
      </trkpt>
      <trkpt lat="42.3183470" lon="1.7777010">
        <ele>1474.4</ele>
        <time>2015-08-12T18:03:42Z</time>
      </trkpt>
      <trkpt lat="42.3183400" lon="1.7777490">
        <ele>1473.1</ele>
        <time>2015-08-12T18:03:48Z</time>
      </trkpt>
      <trkpt lat="42.3183230" lon="1.7778190">
        <ele>1471.5</ele>
        <time>2015-08-12T18:03:52Z</time>
      </trkpt>
      <trkpt lat="42.3182980" lon="1.7778400">
        <ele>1471.6</ele>
        <time>2015-08-12T18:03:54Z</time>
      </trkpt>
      <trkpt lat="42.3182710" lon="1.7778510">
        <ele>1472.2</ele>
        <time>2015-08-12T18:03:55Z</time>
      </trkpt>
      <trkpt lat="42.3182610" lon="1.7778950">
        <ele>1471.1</ele>
        <time>2015-08-12T18:03:58Z</time>
      </trkpt>
      <trkpt lat="42.3182340" lon="1.7779300">
        <ele>1470.8</ele>
        <time>2015-08-12T18:04:00Z</time>
      </trkpt>
      <trkpt lat="42.3182080" lon="1.7779400">
        <ele>1471.2</ele>
        <time>2015-08-12T18:04:02Z</time>
      </trkpt>
      <trkpt lat="42.3181820" lon="1.7779700">
        <ele>1470.8</ele>
        <time>2015-08-12T18:04:03Z</time>
      </trkpt>
      <trkpt lat="42.3181540" lon="1.7779960">
        <ele>1470.7</ele>
        <time>2015-08-12T18:04:06Z</time>
      </trkpt>
      <trkpt lat="42.3181150" lon="1.7780270">
        <ele>1470.6</ele>
        <time>2015-08-12T18:04:09Z</time>
      </trkpt>
      <trkpt lat="42.3180830" lon="1.7780450">
        <ele>1470.8</ele>
        <time>2015-08-12T18:04:11Z</time>
      </trkpt>
      <trkpt lat="42.3180430" lon="1.7780790">
        <ele>1470.6</ele>
        <time>2015-08-12T18:04:13Z</time>
      </trkpt>
      <trkpt lat="42.3180010" lon="1.7780770">
        <ele>1472.0</ele>
        <time>2015-08-12T18:04:15Z</time>
      </trkpt>
      <trkpt lat="42.3179820" lon="1.7780500">
        <ele>1473.8</ele>
        <time>2015-08-12T18:04:16Z</time>
      </trkpt>
      <trkpt lat="42.3179380" lon="1.7780540">
        <ele>1475.1</ele>
        <time>2015-08-12T18:04:18Z</time>
      </trkpt>
      <trkpt lat="42.3179100" lon="1.7780560">
        <ele>1475.9</ele>
        <time>2015-08-12T18:04:19Z</time>
      </trkpt>
      <trkpt lat="42.3178690" lon="1.7780720">
        <ele>1476.4</ele>
        <time>2015-08-12T18:04:21Z</time>
      </trkpt>
      <trkpt lat="42.3178240" lon="1.7780930">
        <ele>1476.8</ele>
        <time>2015-08-12T18:04:23Z</time>
      </trkpt>
      <trkpt lat="42.3177780" lon="1.7781200">
        <ele>1477.1</ele>
        <time>2015-08-12T18:04:25Z</time>
      </trkpt>
      <trkpt lat="42.3177430" lon="1.7781300">
        <ele>1477.8</ele>
        <time>2015-08-12T18:04:27Z</time>
      </trkpt>
      <trkpt lat="42.3176930" lon="1.7781520">
        <ele>1478.4</ele>
        <time>2015-08-12T18:04:29Z</time>
      </trkpt>
      <trkpt lat="42.3176460" lon="1.7781840">
        <ele>1478.5</ele>
        <time>2015-08-12T18:04:31Z</time>
      </trkpt>
      <trkpt lat="42.3176100" lon="1.7782060">
        <ele>1478.8</ele>
        <time>2015-08-12T18:04:33Z</time>
      </trkpt>
      <trkpt lat="42.3175730" lon="1.7782190">
        <ele>1479.5</ele>
        <time>2015-08-12T18:04:35Z</time>
      </trkpt>
      <trkpt lat="42.3175240" lon="1.7782230">
        <ele>1480.9</ele>
        <time>2015-08-12T18:04:37Z</time>
      </trkpt>
      <trkpt lat="42.3174760" lon="1.7782470">
        <ele>1481.5</ele>
        <time>2015-08-12T18:04:39Z</time>
      </trkpt>
      <trkpt lat="42.3174510" lon="1.7782600">
        <ele>1481.8</ele>
        <time>2015-08-12T18:04:40Z</time>
      </trkpt>
      <trkpt lat="42.3173990" lon="1.7782710">
        <ele>1483.1</ele>
        <time>2015-08-12T18:04:42Z</time>
      </trkpt>
      <trkpt lat="42.3173590" lon="1.7783020">
        <ele>1483.3</ele>
        <time>2015-08-12T18:04:44Z</time>
      </trkpt>
      <trkpt lat="42.3173080" lon="1.7783220">
        <ele>1484.2</ele>
        <time>2015-08-12T18:04:46Z</time>
      </trkpt>
      <trkpt lat="42.3172000" lon="1.7783620">
        <ele>1486.5</ele>
        <time>2015-08-12T18:04:51Z</time>
      </trkpt>
      <trkpt lat="42.3171440" lon="1.7783890">
        <ele>1487.4</ele>
        <time>2015-08-12T18:04:54Z</time>
      </trkpt>
      <trkpt lat="42.3171040" lon="1.7784090">
        <ele>1488.1</ele>
        <time>2015-08-12T18:04:56Z</time>
      </trkpt>
      <trkpt lat="42.3170640" lon="1.7784290">
        <ele>1488.8</ele>
        <time>2015-08-12T18:04:58Z</time>
      </trkpt>
      <trkpt lat="42.3170250" lon="1.7784490">
        <ele>1489.3</ele>
        <time>2015-08-12T18:05:00Z</time>
      </trkpt>
      <trkpt lat="42.3167420" lon="1.7786890">
        <ele>1490.1</ele>
        <time>2015-08-12T18:05:04Z</time>
      </trkpt>
      <trkpt lat="42.3169460" lon="1.7784460">
        <ele>1491.9</ele>
        <time>2015-08-12T18:05:05Z</time>
      </trkpt>
      <trkpt lat="42.3169570" lon="1.7784840">
        <ele>1490.3</ele>
        <time>2015-08-12T18:05:07Z</time>
      </trkpt>
      <trkpt lat="42.3169230" lon="1.7785040">
        <ele>1490.6</ele>
        <time>2015-08-12T18:05:08Z</time>
      </trkpt>
      <trkpt lat="42.3169120" lon="1.7785490">
        <ele>1489.4</ele>
        <time>2015-08-12T18:05:09Z</time>
      </trkpt>
      <trkpt lat="42.3168700" lon="1.7785840">
        <ele>1489.6</ele>
        <time>2015-08-12T18:05:11Z</time>
      </trkpt>
      <trkpt lat="42.3168330" lon="1.7786070">
        <ele>1490.0</ele>
        <time>2015-08-12T18:05:12Z</time>
      </trkpt>
      <trkpt lat="42.3167970" lon="1.7786520">
        <ele>1489.6</ele>
        <time>2015-08-12T18:05:14Z</time>
      </trkpt>
      <trkpt lat="42.3167630" lon="1.7786920">
        <ele>1489.3</ele>
        <time>2015-08-12T18:05:16Z</time>
      </trkpt>
      <trkpt lat="42.3167430" lon="1.7787170">
        <ele>1489.1</ele>
        <time>2015-08-12T18:05:17Z</time>
      </trkpt>
      <trkpt lat="42.3167240" lon="1.7787540">
        <ele>1488.5</ele>
        <time>2015-08-12T18:05:18Z</time>
      </trkpt>
      <trkpt lat="42.3166900" lon="1.7787870">
        <ele>1488.0</ele>
        <time>2015-08-12T18:05:20Z</time>
      </trkpt>
      <trkpt lat="42.3166570" lon="1.7788300">
        <ele>1487.0</ele>
        <time>2015-08-12T18:05:22Z</time>
      </trkpt>
      <trkpt lat="42.3166370" lon="1.7788660">
        <ele>1485.9</ele>
        <time>2015-08-12T18:05:23Z</time>
      </trkpt>
      <trkpt lat="42.3166010" lon="1.7788940">
        <ele>1485.7</ele>
        <time>2015-08-12T18:05:25Z</time>
      </trkpt>
      <trkpt lat="42.3165700" lon="1.7789260">
        <ele>1485.2</ele>
        <time>2015-08-12T18:05:28Z</time>
      </trkpt>
      <trkpt lat="42.3165460" lon="1.7789580">
        <ele>1484.4</ele>
        <time>2015-08-12T18:05:30Z</time>
      </trkpt>
      <trkpt lat="42.3165100" lon="1.7789740">
        <ele>1484.8</ele>
        <time>2015-08-12T18:05:32Z</time>
      </trkpt>
      <trkpt lat="42.3164820" lon="1.7789910">
        <ele>1484.9</ele>
        <time>2015-08-12T18:05:34Z</time>
      </trkpt>
      <trkpt lat="42.3164450" lon="1.7790110">
        <ele>1485.2</ele>
        <time>2015-08-12T18:05:36Z</time>
      </trkpt>
      <trkpt lat="42.3164080" lon="1.7790140">
        <ele>1486.2</ele>
        <time>2015-08-12T18:05:39Z</time>
      </trkpt>
      <trkpt lat="42.3163760" lon="1.7790350">
        <ele>1486.2</ele>
        <time>2015-08-12T18:05:41Z</time>
      </trkpt>
      <trkpt lat="42.3163340" lon="1.7790550">
        <ele>1486.6</ele>
        <time>2015-08-12T18:05:43Z</time>
      </trkpt>
      <trkpt lat="42.3162950" lon="1.7790670">
        <ele>1487.3</ele>
        <time>2015-08-12T18:05:45Z</time>
      </trkpt>
      <trkpt lat="42.3162720" lon="1.7790870">
        <ele>1487.1</ele>
        <time>2015-08-12T18:05:47Z</time>
      </trkpt>
      <trkpt lat="42.3162330" lon="1.7790970">
        <ele>1487.2</ele>
        <time>2015-08-12T18:05:50Z</time>
      </trkpt>
      <trkpt lat="42.3162030" lon="1.7791220">
        <ele>1485.9</ele>
        <time>2015-08-12T18:05:53Z</time>
      </trkpt>
      <trkpt lat="42.3161740" lon="1.7791330">
        <ele>1485.2</ele>
        <time>2015-08-12T18:05:55Z</time>
      </trkpt>
      <trkpt lat="42.3161470" lon="1.7791430">
        <ele>1484.5</ele>
        <time>2015-08-12T18:05:57Z</time>
      </trkpt>
      <trkpt lat="42.3161770" lon="1.7791070">
        <ele>1486.5</ele>
        <time>2015-08-12T18:06:00Z</time>
      </trkpt>
      <trkpt lat="42.3161950" lon="1.7790710">
        <ele>1488.3</ele>
        <time>2015-08-12T18:06:02Z</time>
      </trkpt>
      <trkpt lat="42.3162090" lon="1.7790380">
        <ele>1490.0</ele>
        <time>2015-08-12T18:06:04Z</time>
      </trkpt>
      <trkpt lat="42.3162300" lon="1.7789850">
        <ele>1492.6</ele>
        <time>2015-08-12T18:06:06Z</time>
      </trkpt>
      <trkpt lat="42.3162470" lon="1.7789530">
        <ele>1494.2</ele>
        <time>2015-08-12T18:06:08Z</time>
      </trkpt>
      <trkpt lat="42.3162600" lon="1.7789170">
        <ele>1495.7</ele>
        <time>2015-08-12T18:06:11Z</time>
      </trkpt>
      <trkpt lat="42.3163010" lon="1.7789090">
        <ele>1494.7</ele>
        <time>2015-08-12T18:06:13Z</time>
      </trkpt>
      <trkpt lat="42.3163470" lon="1.7789210">
        <ele>1492.6</ele>
        <time>2015-08-12T18:06:15Z</time>
      </trkpt>
      <trkpt lat="42.3163770" lon="1.7789020">
        <ele>1492.6</ele>
        <time>2015-08-12T18:06:17Z</time>
      </trkpt>
      <trkpt lat="42.3164010" lon="1.7788840">
        <ele>1492.7</ele>
        <time>2015-08-12T18:06:19Z</time>
      </trkpt>
      <trkpt lat="42.3164350" lon="1.7788640">
        <ele>1492.5</ele>
        <time>2015-08-12T18:06:23Z</time>
      </trkpt>
      <trkpt lat="42.3164570" lon="1.7788140">
        <ele>1494.2</ele>
        <time>2015-08-12T18:06:26Z</time>
      </trkpt>
      <trkpt lat="42.3164860" lon="1.7788120">
        <ele>1493.4</ele>
        <time>2015-08-12T18:06:28Z</time>
      </trkpt>
      <trkpt lat="42.3165170" lon="1.7787860">
        <ele>1493.6</ele>
        <time>2015-08-12T18:06:31Z</time>
      </trkpt>
      <trkpt lat="42.3165460" lon="1.7788120">
        <ele>1491.4</ele>
        <time>2015-08-12T18:06:34Z</time>
      </trkpt>
      <trkpt lat="42.3165650" lon="1.7787840">
        <ele>1492.2</ele>
        <time>2015-08-12T18:06:35Z</time>
      </trkpt>
      <trkpt lat="42.3165380" lon="1.7786780">
        <ele>1497.1</ele>
        <time>2015-08-12T18:06:36Z</time>
      </trkpt>
      <trkpt lat="42.3165800" lon="1.7786770">
        <ele>1495.7</ele>
        <time>2015-08-12T18:06:38Z</time>
      </trkpt>
      <trkpt lat="42.3166020" lon="1.7786520">
        <ele>1495.9</ele>
        <time>2015-08-12T18:06:40Z</time>
      </trkpt>
      <trkpt lat="42.3166030" lon="1.7786070">
        <ele>1497.3</ele>
        <time>2015-08-12T18:06:42Z</time>
      </trkpt>
      <trkpt lat="42.3166450" lon="1.7785960">
        <ele>1496.4</ele>
        <time>2015-08-12T18:06:44Z</time>
      </trkpt>
      <trkpt lat="42.3166750" lon="1.7785900">
        <ele>1495.6</ele>
        <time>2015-08-12T18:06:47Z</time>
      </trkpt>
      <trkpt lat="42.3166870" lon="1.7785450">
        <ele>1496.7</ele>
        <time>2015-08-12T18:06:49Z</time>
      </trkpt>
      <trkpt lat="42.3167130" lon="1.7785310">
        <ele>1496.4</ele>
        <time>2015-08-12T18:06:51Z</time>
      </trkpt>
      <trkpt lat="42.3167430" lon="1.7785250">
        <ele>1495.6</ele>
        <time>2015-08-12T18:06:54Z</time>
      </trkpt>
      <trkpt lat="42.3167660" lon="1.7784970">
        <ele>1495.9</ele>
        <time>2015-08-12T18:06:56Z</time>
      </trkpt>
      <trkpt lat="42.3168090" lon="1.7784860">
        <ele>1494.9</ele>
        <time>2015-08-12T18:06:58Z</time>
      </trkpt>
      <trkpt lat="42.3168340" lon="1.7784510">
        <ele>1495.3</ele>
        <time>2015-08-12T18:07:00Z</time>
      </trkpt>
      <trkpt lat="42.3168560" lon="1.7784160">
        <ele>1495.8</ele>
        <time>2015-08-12T18:07:03Z</time>
      </trkpt>
      <trkpt lat="42.3169000" lon="1.7783950">
        <ele>1495.1</ele>
        <time>2015-08-12T18:07:06Z</time>
      </trkpt>
      <trkpt lat="42.3169270" lon="1.7783860">
        <ele>1494.6</ele>
        <time>2015-08-12T18:07:08Z</time>
      </trkpt>
      <trkpt lat="42.3169530" lon="1.7783760">
        <ele>1494.1</ele>
        <time>2015-08-12T18:07:10Z</time>
      </trkpt>
      <trkpt lat="42.3169580" lon="1.7783340">
        <ele>1495.4</ele>
        <time>2015-08-12T18:07:12Z</time>
      </trkpt>
      <trkpt lat="42.3169750" lon="1.7782890">
        <ele>1496.4</ele>
        <time>2015-08-12T18:07:15Z</time>
      </trkpt>
      <trkpt lat="42.3169620" lon="1.7782510">
        <ele>1498.1</ele>
        <time>2015-08-12T18:07:18Z</time>
      </trkpt>
      <trkpt lat="42.3169760" lon="1.7782170">
        <ele>1498.9</ele>
        <time>2015-08-12T18:07:22Z</time>
      </trkpt>
      <trkpt lat="42.3170030" lon="1.7781880">
        <ele>1499.0</ele>
        <time>2015-08-12T18:07:24Z</time>
      </trkpt>
      <trkpt lat="42.3170410" lon="1.7781580">
        <ele>1498.9</ele>
        <time>2015-08-12T18:07:26Z</time>
      </trkpt>
      <trkpt lat="42.3170560" lon="1.7781130">
        <ele>1500.0</ele>
        <time>2015-08-12T18:07:28Z</time>
      </trkpt>
      <trkpt lat="42.3170740" lon="1.7780830">
        <ele>1500.5</ele>
        <time>2015-08-12T18:07:32Z</time>
      </trkpt>
      <trkpt lat="42.3170880" lon="1.7780370">
        <ele>1501.7</ele>
        <time>2015-08-12T18:07:33Z</time>
      </trkpt>
      <trkpt lat="42.3171040" lon="1.7779770">
        <ele>1503.3</ele>
        <time>2015-08-12T18:07:36Z</time>
      </trkpt>
      <trkpt lat="42.3171320" lon="1.7779630">
        <ele>1503.0</ele>
        <time>2015-08-12T18:07:38Z</time>
      </trkpt>
      <trkpt lat="42.3171690" lon="1.7779500">
        <ele>1502.3</ele>
        <time>2015-08-12T18:07:39Z</time>
      </trkpt>
      <trkpt lat="42.3172030" lon="1.7779000">
        <ele>1503.1</ele>
        <time>2015-08-12T18:07:41Z</time>
      </trkpt>
      <trkpt lat="42.3172230" lon="1.7778750">
        <ele>1503.3</ele>
        <time>2015-08-12T18:07:43Z</time>
      </trkpt>
      <trkpt lat="42.3172620" lon="1.7778550">
        <ele>1502.8</ele>
        <time>2015-08-12T18:07:50Z</time>
      </trkpt>
      <trkpt lat="42.3172700" lon="1.7778200">
        <ele>1503.7</ele>
        <time>2015-08-12T18:07:52Z</time>
      </trkpt>
      <trkpt lat="42.3173040" lon="1.7778020">
        <ele>1503.3</ele>
        <time>2015-08-12T18:07:54Z</time>
      </trkpt>
      <trkpt lat="42.3173410" lon="1.7777690">
        <ele>1503.3</ele>
        <time>2015-08-12T18:07:57Z</time>
      </trkpt>
      <trkpt lat="42.3173810" lon="1.7777720">
        <ele>1502.1</ele>
        <time>2015-08-12T18:07:59Z</time>
      </trkpt>
      <trkpt lat="42.3174080" lon="1.7777620">
        <ele>1501.6</ele>
        <time>2015-08-12T18:08:01Z</time>
      </trkpt>
      <trkpt lat="42.3174330" lon="1.7777250">
        <ele>1502.1</ele>
        <time>2015-08-12T18:08:03Z</time>
      </trkpt>
      <trkpt lat="42.3174760" lon="1.7776390">
        <ele>1503.7</ele>
        <time>2015-08-12T18:08:06Z</time>
      </trkpt>
      <trkpt lat="42.3174810" lon="1.7775850">
        <ele>1505.3</ele>
        <time>2015-08-12T18:08:10Z</time>
      </trkpt>
      <trkpt lat="42.3174860" lon="1.7775310">
        <ele>1506.9</ele>
        <time>2015-08-12T18:08:11Z</time>
      </trkpt>
      <trkpt lat="42.3175040" lon="1.7774960">
        <ele>1507.5</ele>
        <time>2015-08-12T18:08:13Z</time>
      </trkpt>
      <trkpt lat="42.3175140" lon="1.7774350">
        <ele>1509.2</ele>
        <time>2015-08-12T18:08:15Z</time>
      </trkpt>
      <trkpt lat="42.3175430" lon="1.7774830">
        <ele>1506.9</ele>
        <time>2015-08-12T18:08:16Z</time>
      </trkpt>
      <trkpt lat="42.3175790" lon="1.7774650">
        <ele>1506.5</ele>
        <time>2015-08-12T18:08:20Z</time>
      </trkpt>
      <trkpt lat="42.3176020" lon="1.7774380">
        <ele>1506.7</ele>
        <time>2015-08-12T18:08:23Z</time>
      </trkpt>
      <trkpt lat="42.3176400" lon="1.7774320">
        <ele>1505.9</ele>
        <time>2015-08-12T18:08:25Z</time>
      </trkpt>
      <trkpt lat="42.3176680" lon="1.7774370">
        <ele>1504.9</ele>
        <time>2015-08-12T18:08:27Z</time>
      </trkpt>
      <trkpt lat="42.3177020" lon="1.7774170">
        <ele>1504.7</ele>
        <time>2015-08-12T18:08:28Z</time>
      </trkpt>
      <trkpt lat="42.3177460" lon="1.7773880">
        <ele>1504.4</ele>
        <time>2015-08-12T18:08:30Z</time>
      </trkpt>
      <trkpt lat="42.3177800" lon="1.7773750">
        <ele>1503.9</ele>
        <time>2015-08-12T18:08:32Z</time>
      </trkpt>
      <trkpt lat="42.3178110" lon="1.7773830">
        <ele>1502.8</ele>
        <time>2015-08-12T18:08:34Z</time>
      </trkpt>
      <trkpt lat="42.3178420" lon="1.7773450">
        <ele>1503.2</ele>
        <time>2015-08-12T18:08:38Z</time>
      </trkpt>
      <trkpt lat="42.3178780" lon="1.7773320">
        <ele>1502.7</ele>
        <time>2015-08-12T18:08:41Z</time>
      </trkpt>
      <trkpt lat="42.3179090" lon="1.7773150">
        <ele>1502.4</ele>
        <time>2015-08-12T18:08:43Z</time>
      </trkpt>
      <trkpt lat="42.3179510" lon="1.7772840">
        <ele>1502.0</ele>
        <time>2015-08-12T18:08:45Z</time>
      </trkpt>
      <trkpt lat="42.3179880" lon="1.7772500">
        <ele>1501.8</ele>
        <time>2015-08-12T18:08:47Z</time>
      </trkpt>
      <trkpt lat="42.3180240" lon="1.7772060">
        <ele>1501.9</ele>
        <time>2015-08-12T18:08:49Z</time>
      </trkpt>
      <trkpt lat="42.3180470" lon="1.7771540">
        <ele>1502.8</ele>
        <time>2015-08-12T18:08:52Z</time>
      </trkpt>
      <trkpt lat="42.3180690" lon="1.7771220">
        <ele>1503.1</ele>
        <time>2015-08-12T18:08:53Z</time>
      </trkpt>
      <trkpt lat="42.3180950" lon="1.7770850">
        <ele>1503.3</ele>
        <time>2015-08-12T18:08:57Z</time>
      </trkpt>
      <trkpt lat="42.3181230" lon="1.7771050">
        <ele>1501.6</ele>
        <time>2015-08-12T18:08:59Z</time>
      </trkpt>
      <trkpt lat="42.3181370" lon="1.7770610">
        <ele>1502.5</ele>
        <time>2015-08-12T18:09:02Z</time>
      </trkpt>
      <trkpt lat="42.3181560" lon="1.7769540">
        <ele>1505.4</ele>
        <time>2015-08-12T18:09:05Z</time>
      </trkpt>
      <trkpt lat="42.3181820" lon="1.7769120">
        <ele>1505.8</ele>
        <time>2015-08-12T18:09:08Z</time>
      </trkpt>
      <trkpt lat="42.3181900" lon="1.7768650">
        <ele>1507.1</ele>
        <time>2015-08-12T18:09:10Z</time>
      </trkpt>
      <trkpt lat="42.3181970" lon="1.7768230">
        <ele>1508.2</ele>
        <time>2015-08-12T18:09:12Z</time>
      </trkpt>
      <trkpt lat="42.3182220" lon="1.7767990">
        <ele>1508.1</ele>
        <time>2015-08-12T18:09:13Z</time>
      </trkpt>
      <trkpt lat="42.3182790" lon="1.7768130">
        <ele>1505.7</ele>
        <time>2015-08-12T18:09:14Z</time>
      </trkpt>
      <trkpt lat="42.3183110" lon="1.7767850">
        <ele>1505.5</ele>
        <time>2015-08-12T18:09:16Z</time>
      </trkpt>
      <trkpt lat="42.3183500" lon="1.7767530">
        <ele>1505.2</ele>
        <time>2015-08-12T18:09:18Z</time>
      </trkpt>
      <trkpt lat="42.3183750" lon="1.7767130">
        <ele>1505.7</ele>
        <time>2015-08-12T18:09:21Z</time>
      </trkpt>
      <trkpt lat="42.3184190" lon="1.7767280">
        <ele>1503.7</ele>
        <time>2015-08-12T18:09:24Z</time>
      </trkpt>
      <trkpt lat="42.3184550" lon="1.7767480">
        <ele>1501.7</ele>
        <time>2015-08-12T18:09:26Z</time>
      </trkpt>
      <trkpt lat="42.3184980" lon="1.7767390">
        <ele>1500.6</ele>
        <time>2015-08-12T18:09:29Z</time>
      </trkpt>
      <trkpt lat="42.3185330" lon="1.7767520">
        <ele>1498.9</ele>
        <time>2015-08-12T18:09:35Z</time>
      </trkpt>
      <trkpt lat="42.3185640" lon="1.7767630">
        <ele>1497.4</ele>
        <time>2015-08-12T18:09:36Z</time>
      </trkpt>
      <trkpt lat="42.3186000" lon="1.7767700">
        <ele>1495.9</ele>
        <time>2015-08-12T18:09:37Z</time>
      </trkpt>
      <trkpt lat="42.3186310" lon="1.7767800">
        <ele>1494.5</ele>
        <time>2015-08-12T18:09:39Z</time>
      </trkpt>
      <trkpt lat="42.3186530" lon="1.7767370">
        <ele>1495.3</ele>
        <time>2015-08-12T18:09:40Z</time>
      </trkpt>
      <trkpt lat="42.3186850" lon="1.7767190">
        <ele>1494.8</ele>
        <time>2015-08-12T18:09:41Z</time>
      </trkpt>
      <trkpt lat="42.3187210" lon="1.7766970">
        <ele>1494.4</ele>
        <time>2015-08-12T18:09:43Z</time>
      </trkpt>
      <trkpt lat="42.3187690" lon="1.7766590">
        <ele>1494.5</ele>
        <time>2015-08-12T18:09:45Z</time>
      </trkpt>
      <trkpt lat="42.3188060" lon="1.7766380">
        <ele>1494.6</ele>
        <time>2015-08-12T18:09:48Z</time>
      </trkpt>
      <trkpt lat="42.3188450" lon="1.7766270">
        <ele>1494.3</ele>
        <time>2015-08-12T18:09:50Z</time>
      </trkpt>
      <trkpt lat="42.3188610" lon="1.7765930">
        <ele>1495.3</ele>
        <time>2015-08-12T18:09:52Z</time>
      </trkpt>
      <trkpt lat="42.3188940" lon="1.7765660">
        <ele>1495.7</ele>
        <time>2015-08-12T18:09:54Z</time>
      </trkpt>
      <trkpt lat="42.3189010" lon="1.7765270">
        <ele>1497.0</ele>
        <time>2015-08-12T18:10:00Z</time>
      </trkpt>
      <trkpt lat="42.3189400" lon="1.7765100">
        <ele>1496.9</ele>
        <time>2015-08-12T18:10:02Z</time>
      </trkpt>
      <trkpt lat="42.3189660" lon="1.7764970">
        <ele>1496.9</ele>
        <time>2015-08-12T18:10:03Z</time>
      </trkpt>
      <trkpt lat="42.3189940" lon="1.7764670">
        <ele>1497.5</ele>
        <time>2015-08-12T18:10:04Z</time>
      </trkpt>
      <trkpt lat="42.3190380" lon="1.7764460">
        <ele>1497.4</ele>
        <time>2015-08-12T18:10:06Z</time>
      </trkpt>
      <trkpt lat="42.3190730" lon="1.7764360">
        <ele>1497.1</ele>
        <time>2015-08-12T18:10:08Z</time>
      </trkpt>
      <trkpt lat="42.3191050" lon="1.7763970">
        <ele>1497.9</ele>
        <time>2015-08-12T18:10:10Z</time>
      </trkpt>
      <trkpt lat="42.3191180" lon="1.7763560">
        <ele>1499.2</ele>
        <time>2015-08-12T18:10:12Z</time>
      </trkpt>
      <trkpt lat="42.3191330" lon="1.7763110">
        <ele>1500.5</ele>
        <time>2015-08-12T18:10:14Z</time>
      </trkpt>
      <trkpt lat="42.3191660" lon="1.7762970">
        <ele>1500.3</ele>
        <time>2015-08-12T18:10:16Z</time>
      </trkpt>
      <trkpt lat="42.3192080" lon="1.7762690">
        <ele>1500.5</ele>
        <time>2015-08-12T18:10:18Z</time>
      </trkpt>
      <trkpt lat="42.3192210" lon="1.7762260">
        <ele>1501.7</ele>
        <time>2015-08-12T18:10:20Z</time>
      </trkpt>
      <trkpt lat="42.3192270" lon="1.7761840">
        <ele>1503.0</ele>
        <time>2015-08-12T18:10:22Z</time>
      </trkpt>
      <trkpt lat="42.3192090" lon="1.7761460">
        <ele>1504.6</ele>
        <time>2015-08-12T18:10:25Z</time>
      </trkpt>
      <trkpt lat="42.3191860" lon="1.7761100">
        <ele>1506.2</ele>
        <time>2015-08-12T18:10:26Z</time>
      </trkpt>
      <trkpt lat="42.3191520" lon="1.7761200">
        <ele>1506.6</ele>
        <time>2015-08-12T18:10:31Z</time>
      </trkpt>
      <trkpt lat="42.3191320" lon="1.7761510">
        <ele>1505.9</ele>
        <time>2015-08-12T18:10:33Z</time>
      </trkpt>
      <trkpt lat="42.3191090" lon="1.7761840">
        <ele>1505.3</ele>
        <time>2015-08-12T18:10:35Z</time>
      </trkpt>
      <trkpt lat="42.3190760" lon="1.7762340">
        <ele>1504.3</ele>
        <time>2015-08-12T18:10:37Z</time>
      </trkpt>
      <trkpt lat="42.3190510" lon="1.7762690">
        <ele>1503.5</ele>
        <time>2015-08-12T18:10:38Z</time>
      </trkpt>
      <trkpt lat="42.3190290" lon="1.7762970">
        <ele>1503.0</ele>
        <time>2015-08-12T18:10:39Z</time>
      </trkpt>
      <trkpt lat="42.3190040" lon="1.7763430">
        <ele>1501.8</ele>
        <time>2015-08-12T18:10:41Z</time>
      </trkpt>
      <trkpt lat="42.3190150" lon="1.7763030">
        <ele>1503.0</ele>
        <time>2015-08-12T18:10:42Z</time>
      </trkpt>
      <trkpt lat="42.3189910" lon="1.7763270">
        <ele>1502.6</ele>
        <time>2015-08-12T18:10:44Z</time>
      </trkpt>
      <trkpt lat="42.3189590" lon="1.7763480">
        <ele>1502.4</ele>
        <time>2015-08-12T18:10:46Z</time>
      </trkpt>
      <trkpt lat="42.3189340" lon="1.7763680">
        <ele>1502.2</ele>
        <time>2015-08-12T18:10:48Z</time>
      </trkpt>
      <trkpt lat="42.3188980" lon="1.7763880">
        <ele>1502.1</ele>
        <time>2015-08-12T18:10:50Z</time>
      </trkpt>
      <trkpt lat="42.3188670" lon="1.7764090">
        <ele>1501.9</ele>
        <time>2015-08-12T18:10:52Z</time>
      </trkpt>
      <trkpt lat="42.3188480" lon="1.7764400">
        <ele>1501.1</ele>
        <time>2015-08-12T18:10:54Z</time>
      </trkpt>
      <trkpt lat="42.3188200" lon="1.7764340">
        <ele>1501.9</ele>
        <time>2015-08-12T18:10:56Z</time>
      </trkpt>
      <trkpt lat="42.3187810" lon="1.7764260">
        <ele>1502.9</ele>
        <time>2015-08-12T18:11:00Z</time>
      </trkpt>
      <trkpt lat="42.3187490" lon="1.7764190">
        <ele>1503.7</ele>
        <time>2015-08-12T18:11:02Z</time>
      </trkpt>
      <trkpt lat="42.3187100" lon="1.7764110">
        <ele>1505.3</ele>
        <time>2015-08-12T18:11:05Z</time>
      </trkpt>
      <trkpt lat="42.3186700" lon="1.7764020">
        <ele>1506.9</ele>
        <time>2015-08-12T18:11:08Z</time>
      </trkpt>
      <trkpt lat="42.3186310" lon="1.7763790">
        <ele>1509.0</ele>
        <time>2015-08-12T18:11:10Z</time>
      </trkpt>
      <trkpt lat="42.3185950" lon="1.7763520">
        <ele>1511.2</ele>
        <time>2015-08-12T18:11:13Z</time>
      </trkpt>
      <trkpt lat="42.3185550" lon="1.7763650">
        <ele>1512.0</ele>
        <time>2015-08-12T18:11:15Z</time>
      </trkpt>
      <trkpt lat="42.3185250" lon="1.7763680">
        <ele>1512.8</ele>
        <time>2015-08-12T18:11:17Z</time>
      </trkpt>
      <trkpt lat="42.3184870" lon="1.7763610">
        <ele>1514.3</ele>
        <time>2015-08-12T18:11:20Z</time>
      </trkpt>
      <trkpt lat="42.3184560" lon="1.7763640">
        <ele>1515.2</ele>
        <time>2015-08-12T18:11:23Z</time>
      </trkpt>
      <trkpt lat="42.3184260" lon="1.7763650">
        <ele>1516.1</ele>
        <time>2015-08-12T18:11:25Z</time>
      </trkpt>
      <trkpt lat="42.3183970" lon="1.7763640">
        <ele>1517.1</ele>
        <time>2015-08-12T18:11:29Z</time>
      </trkpt>
      <trkpt lat="42.3183680" lon="1.7763840">
        <ele>1517.3</ele>
        <time>2015-08-12T18:11:31Z</time>
      </trkpt>
      <trkpt lat="42.3183310" lon="1.7763730">
        <ele>1518.9</ele>
        <time>2015-08-12T18:11:34Z</time>
      </trkpt>
      <trkpt lat="42.3183000" lon="1.7763950">
        <ele>1519.1</ele>
        <time>2015-08-12T18:11:37Z</time>
      </trkpt>
      <trkpt lat="42.3182670" lon="1.7764010">
        <ele>1520.0</ele>
        <time>2015-08-12T18:11:40Z</time>
      </trkpt>
      <trkpt lat="42.3182390" lon="1.7764340">
        <ele>1519.8</ele>
        <time>2015-08-12T18:11:43Z</time>
      </trkpt>
      <trkpt lat="42.3182090" lon="1.7764140">
        <ele>1521.4</ele>
        <time>2015-08-12T18:11:44Z</time>
      </trkpt>
      <trkpt lat="42.3181810" lon="1.7764160">
        <ele>1522.3</ele>
        <time>2015-08-12T18:11:46Z</time>
      </trkpt>
      <trkpt lat="42.3181360" lon="1.7764350">
        <ele>1523.1</ele>
        <time>2015-08-12T18:11:50Z</time>
      </trkpt>
      <trkpt lat="42.3181040" lon="1.7764080">
        <ele>1525.0</ele>
        <time>2015-08-12T18:11:53Z</time>
      </trkpt>
      <trkpt lat="42.3180730" lon="1.7763960">
        <ele>1526.4</ele>
        <time>2015-08-12T18:11:56Z</time>
      </trkpt>
      <trkpt lat="42.3180460" lon="1.7763700">
        <ele>1528.1</ele>
        <time>2015-08-12T18:11:58Z</time>
      </trkpt>
      <trkpt lat="42.3180190" lon="1.7763390">
        <ele>1530.0</ele>
        <time>2015-08-12T18:12:01Z</time>
      </trkpt>
      <trkpt lat="42.3180070" lon="1.7763040">
        <ele>1531.5</ele>
        <time>2015-08-12T18:12:03Z</time>
      </trkpt>
      <trkpt lat="42.3180120" lon="1.7762480">
        <ele>1533.1</ele>
        <time>2015-08-12T18:12:06Z</time>
      </trkpt>
      <trkpt lat="42.3180260" lon="1.7762050">
        <ele>1534.1</ele>
        <time>2015-08-12T18:12:09Z</time>
      </trkpt>
      <trkpt lat="42.3180490" lon="1.7761780">
        <ele>1534.2</ele>
        <time>2015-08-12T18:12:11Z</time>
      </trkpt>
      <trkpt lat="42.3180740" lon="1.7761660">
        <ele>1533.9</ele>
        <time>2015-08-12T18:12:13Z</time>
      </trkpt>
      <trkpt lat="42.3181010" lon="1.7761770">
        <ele>1532.7</ele>
        <time>2015-08-12T18:12:21Z</time>
      </trkpt>
      <trkpt lat="42.3181150" lon="1.7761450">
        <ele>1533.3</ele>
        <time>2015-08-12T18:12:23Z</time>
      </trkpt>
      <trkpt lat="42.3181560" lon="1.7761420">
        <ele>1532.1</ele>
        <time>2015-08-12T18:12:26Z</time>
      </trkpt>
      <trkpt lat="42.3181960" lon="1.7761490">
        <ele>1530.6</ele>
        <time>2015-08-12T18:12:28Z</time>
      </trkpt>
      <trkpt lat="42.3182290" lon="1.7761370">
        <ele>1530.0</ele>
        <time>2015-08-12T18:12:30Z</time>
      </trkpt>
      <trkpt lat="42.3182540" lon="1.7761090">
        <ele>1530.2</ele>
        <time>2015-08-12T18:12:32Z</time>
      </trkpt>
      <trkpt lat="42.3182750" lon="1.7760720">
        <ele>1530.8</ele>
        <time>2015-08-12T18:12:35Z</time>
      </trkpt>
      <trkpt lat="42.3183120" lon="1.7760670">
        <ele>1529.8</ele>
        <time>2015-08-12T18:12:36Z</time>
      </trkpt>
      <trkpt lat="42.3183600" lon="1.7760270">
        <ele>1529.7</ele>
        <time>2015-08-12T18:12:38Z</time>
      </trkpt>
      <trkpt lat="42.3183790" lon="1.7760020">
        <ele>1529.9</ele>
        <time>2015-08-12T18:12:39Z</time>
      </trkpt>
      <trkpt lat="42.3183990" lon="1.7759620">
        <ele>1530.7</ele>
        <time>2015-08-12T18:12:42Z</time>
      </trkpt>
      <trkpt lat="42.3184390" lon="1.7759640">
        <ele>1529.4</ele>
        <time>2015-08-12T18:12:45Z</time>
      </trkpt>
      <trkpt lat="42.3184780" lon="1.7759610">
        <ele>1528.3</ele>
        <time>2015-08-12T18:12:48Z</time>
      </trkpt>
      <trkpt lat="42.3185060" lon="1.7759650">
        <ele>1527.3</ele>
        <time>2015-08-12T18:12:51Z</time>
      </trkpt>
      <trkpt lat="42.3185550" lon="1.7759870">
        <ele>1525.1</ele>
        <time>2015-08-12T18:12:53Z</time>
      </trkpt>
      <trkpt lat="42.3185840" lon="1.7759970">
        <ele>1523.9</ele>
        <time>2015-08-12T18:12:54Z</time>
      </trkpt>
      <trkpt lat="42.3186150" lon="1.7759640">
        <ele>1524.1</ele>
        <time>2015-08-12T18:12:56Z</time>
      </trkpt>
      <trkpt lat="42.3186420" lon="1.7759440">
        <ele>1523.9</ele>
        <time>2015-08-12T18:12:57Z</time>
      </trkpt>
      <trkpt lat="42.3186770" lon="1.7758960">
        <ele>1524.5</ele>
        <time>2015-08-12T18:12:59Z</time>
      </trkpt>
      <trkpt lat="42.3187050" lon="1.7758890">
        <ele>1523.9</ele>
        <time>2015-08-12T18:13:01Z</time>
      </trkpt>
      <trkpt lat="42.3187390" lon="1.7758630">
        <ele>1523.8</ele>
        <time>2015-08-12T18:13:05Z</time>
      </trkpt>
      <trkpt lat="42.3187720" lon="1.7758610">
        <ele>1523.1</ele>
        <time>2015-08-12T18:13:07Z</time>
      </trkpt>
      <trkpt lat="42.3188070" lon="1.7758390">
        <ele>1523.1</ele>
        <time>2015-08-12T18:13:09Z</time>
      </trkpt>
      <trkpt lat="42.3188440" lon="1.7758300">
        <ele>1522.6</ele>
        <time>2015-08-12T18:13:12Z</time>
      </trkpt>
      <trkpt lat="42.3188720" lon="1.7758200">
        <ele>1522.4</ele>
        <time>2015-08-12T18:13:14Z</time>
      </trkpt>
      <trkpt lat="42.3188990" lon="1.7758030">
        <ele>1522.4</ele>
        <time>2015-08-12T18:13:17Z</time>
      </trkpt>
      <trkpt lat="42.3189340" lon="1.7757720">
        <ele>1522.7</ele>
        <time>2015-08-12T18:13:20Z</time>
      </trkpt>
      <trkpt lat="42.3189450" lon="1.7757240">
        <ele>1524.1</ele>
        <time>2015-08-12T18:13:22Z</time>
      </trkpt>
      <trkpt lat="42.3189590" lon="1.7756830">
        <ele>1525.2</ele>
        <time>2015-08-12T18:13:25Z</time>
      </trkpt>
      <trkpt lat="42.3189620" lon="1.7756440">
        <ele>1526.5</ele>
        <time>2015-08-12T18:13:28Z</time>
      </trkpt>
      <trkpt lat="42.3189720" lon="1.7756080">
        <ele>1527.5</ele>
        <time>2015-08-12T18:13:30Z</time>
      </trkpt>
      <trkpt lat="42.3189690" lon="1.7755700">
        <ele>1528.8</ele>
        <time>2015-08-12T18:13:33Z</time>
      </trkpt>
      <trkpt lat="42.3189930" lon="1.7754950">
        <ele>1530.8</ele>
        <time>2015-08-12T18:13:37Z</time>
      </trkpt>
      <trkpt lat="42.3189670" lon="1.7754710">
        <ele>1532.2</ele>
        <time>2015-08-12T18:13:39Z</time>
      </trkpt>
      <trkpt lat="42.3189810" lon="1.7754340">
        <ele>1533.1</ele>
        <time>2015-08-12T18:13:41Z</time>
      </trkpt>
      <trkpt lat="42.3189870" lon="1.7753960">
        <ele>1534.2</ele>
        <time>2015-08-12T18:13:44Z</time>
      </trkpt>
      <trkpt lat="42.3190060" lon="1.7753720">
        <ele>1534.4</ele>
        <time>2015-08-12T18:13:45Z</time>
      </trkpt>
      <trkpt lat="42.3190100" lon="1.7753300">
        <ele>1535.5</ele>
        <time>2015-08-12T18:13:47Z</time>
      </trkpt>
      <trkpt lat="42.3190370" lon="1.7752910">
        <ele>1535.9</ele>
        <time>2015-08-12T18:13:51Z</time>
      </trkpt>
      <trkpt lat="42.3190840" lon="1.7752640">
        <ele>1535.7</ele>
        <time>2015-08-12T18:17:29Z</time>
      </trkpt>
      <trkpt lat="42.3191110" lon="1.7752440">
        <ele>1535.7</ele>
        <time>2015-08-12T18:17:31Z</time>
      </trkpt>
      <trkpt lat="42.3191410" lon="1.7752320">
        <ele>1535.4</ele>
        <time>2015-08-12T18:17:32Z</time>
      </trkpt>
      <trkpt lat="42.3191860" lon="1.7752360">
        <ele>1534.3</ele>
        <time>2015-08-12T18:17:34Z</time>
      </trkpt>
      <trkpt lat="42.3192150" lon="1.7752610">
        <ele>1532.9</ele>
        <time>2015-08-12T18:17:36Z</time>
      </trkpt>
      <trkpt lat="42.3192460" lon="1.7752490">
        <ele>1532.6</ele>
        <time>2015-08-12T18:17:38Z</time>
      </trkpt>
      <trkpt lat="42.3192940" lon="1.7752820">
        <ele>1530.6</ele>
        <time>2015-08-12T18:17:42Z</time>
      </trkpt>
      <trkpt lat="42.3193280" lon="1.7752870">
        <ele>1529.7</ele>
        <time>2015-08-12T18:17:44Z</time>
      </trkpt>
      <trkpt lat="42.3193750" lon="1.7752840">
        <ele>1528.8</ele>
        <time>2015-08-12T18:17:47Z</time>
      </trkpt>
      <trkpt lat="42.3194140" lon="1.7752950">
        <ele>1527.6</ele>
        <time>2015-08-12T18:17:49Z</time>
      </trkpt>
      <trkpt lat="42.3194510" lon="1.7752910">
        <ele>1526.9</ele>
        <time>2015-08-12T18:17:51Z</time>
      </trkpt>
      <trkpt lat="42.3194920" lon="1.7752860">
        <ele>1526.2</ele>
        <time>2015-08-12T18:17:54Z</time>
      </trkpt>
      <trkpt lat="42.3195260" lon="1.7752720">
        <ele>1525.9</ele>
        <time>2015-08-12T18:17:56Z</time>
      </trkpt>
      <trkpt lat="42.3195700" lon="1.7752680">
        <ele>1525.1</ele>
        <time>2015-08-12T18:17:58Z</time>
      </trkpt>
      <trkpt lat="42.3196140" lon="1.7752720">
        <ele>1524.6</ele>
        <time>2015-08-12T18:18:02Z</time>
      </trkpt>
      <trkpt lat="42.3196480" lon="1.7752880">
        <ele>1523.9</ele>
        <time>2015-08-12T18:18:04Z</time>
      </trkpt>
      <trkpt lat="42.3196850" lon="1.7752980">
        <ele>1523.5</ele>
        <time>2015-08-12T18:18:06Z</time>
      </trkpt>
      <trkpt lat="42.3197190" lon="1.7753240">
        <ele>1522.5</ele>
        <time>2015-08-12T18:18:12Z</time>
      </trkpt>
      <trkpt lat="42.3197470" lon="1.7753300">
        <ele>1522.2</ele>
        <time>2015-08-12T18:18:13Z</time>
      </trkpt>
      <trkpt lat="42.3197820" lon="1.7753480">
        <ele>1521.5</ele>
        <time>2015-08-12T18:18:15Z</time>
      </trkpt>
      <trkpt lat="42.3198200" lon="1.7753610">
        <ele>1520.9</ele>
        <time>2015-08-12T18:18:16Z</time>
      </trkpt>
      <trkpt lat="42.3198560" lon="1.7753690">
        <ele>1520.5</ele>
        <time>2015-08-12T18:18:18Z</time>
      </trkpt>
      <trkpt lat="42.3198860" lon="1.7753810">
        <ele>1520.1</ele>
        <time>2015-08-12T18:18:20Z</time>
      </trkpt>
      <trkpt lat="42.3199310" lon="1.7754030">
        <ele>1519.2</ele>
        <time>2015-08-12T18:18:22Z</time>
      </trkpt>
      <trkpt lat="42.3199760" lon="1.7754200">
        <ele>1518.5</ele>
        <time>2015-08-12T18:18:24Z</time>
      </trkpt>
      <trkpt lat="42.3200040" lon="1.7754170">
        <ele>1518.5</ele>
        <time>2015-08-12T18:18:26Z</time>
      </trkpt>
      <trkpt lat="42.3200350" lon="1.7754210">
        <ele>1518.2</ele>
        <time>2015-08-12T18:18:28Z</time>
      </trkpt>
      <trkpt lat="42.3200690" lon="1.7754010">
        <ele>1518.7</ele>
        <time>2015-08-12T18:18:31Z</time>
      </trkpt>
      <trkpt lat="42.3201150" lon="1.7753770">
        <ele>1519.3</ele>
        <time>2015-08-12T18:18:33Z</time>
      </trkpt>
      <trkpt lat="42.3201420" lon="1.7753350">
        <ele>1520.6</ele>
        <time>2015-08-12T18:18:36Z</time>
      </trkpt>
      <trkpt lat="42.3201580" lon="1.7753040">
        <ele>1521.5</ele>
        <time>2015-08-12T18:18:37Z</time>
      </trkpt>
      <trkpt lat="42.3201830" lon="1.7752850">
        <ele>1522.0</ele>
        <time>2015-08-12T18:18:39Z</time>
      </trkpt>
      <trkpt lat="42.3202100" lon="1.7752630">
        <ele>1522.6</ele>
        <time>2015-08-12T18:18:41Z</time>
      </trkpt>
      <trkpt lat="42.3202280" lon="1.7752350">
        <ele>1523.4</ele>
        <time>2015-08-12T18:18:43Z</time>
      </trkpt>
      <trkpt lat="42.3202670" lon="1.7752010">
        <ele>1524.3</ele>
        <time>2015-08-12T18:18:45Z</time>
      </trkpt>
      <trkpt lat="42.3203010" lon="1.7751590">
        <ele>1525.5</ele>
        <time>2015-08-12T18:18:47Z</time>
      </trkpt>
      <trkpt lat="42.3203280" lon="1.7751320">
        <ele>1526.2</ele>
        <time>2015-08-12T18:18:50Z</time>
      </trkpt>
      <trkpt lat="42.3203560" lon="1.7751030">
        <ele>1527.0</ele>
        <time>2015-08-12T18:18:52Z</time>
      </trkpt>
      <trkpt lat="42.3203750" lon="1.7750750">
        <ele>1527.8</ele>
        <time>2015-08-12T18:18:54Z</time>
      </trkpt>
      <trkpt lat="42.3203940" lon="1.7750420">
        <ele>1528.8</ele>
        <time>2015-08-12T18:18:56Z</time>
      </trkpt>
      <trkpt lat="42.3204150" lon="1.7750110">
        <ele>1529.7</ele>
        <time>2015-08-12T18:18:58Z</time>
      </trkpt>
      <trkpt lat="42.3204450" lon="1.7750140">
        <ele>1529.4</ele>
        <time>2015-08-12T18:19:00Z</time>
      </trkpt>
      <trkpt lat="42.3204800" lon="1.7749870">
        <ele>1530.1</ele>
        <time>2015-08-12T18:19:03Z</time>
      </trkpt>
      <trkpt lat="42.3205060" lon="1.7749630">
        <ele>1530.7</ele>
        <time>2015-08-12T18:19:05Z</time>
      </trkpt>
      <trkpt lat="42.3205240" lon="1.7749340">
        <ele>1531.4</ele>
        <time>2015-08-12T18:19:07Z</time>
      </trkpt>
      <trkpt lat="42.3205540" lon="1.7749200">
        <ele>1531.7</ele>
        <time>2015-08-12T18:19:09Z</time>
      </trkpt>
      <trkpt lat="42.3206050" lon="1.7749300">
        <ele>1531.1</ele>
        <time>2015-08-12T18:19:11Z</time>
      </trkpt>
      <trkpt lat="42.3206400" lon="1.7749310">
        <ele>1530.9</ele>
        <time>2015-08-12T18:19:13Z</time>
      </trkpt>
      <trkpt lat="42.3206790" lon="1.7749130">
        <ele>1531.2</ele>
        <time>2015-08-12T18:19:15Z</time>
      </trkpt>
      <trkpt lat="42.3207220" lon="1.7749200">
        <ele>1530.7</ele>
        <time>2015-08-12T18:19:20Z</time>
      </trkpt>
      <trkpt lat="42.3207740" lon="1.7748860">
        <ele>1531.5</ele>
        <time>2015-08-12T18:19:22Z</time>
      </trkpt>
      <trkpt lat="42.3208130" lon="1.7748940">
        <ele>1531.0</ele>
        <time>2015-08-12T18:19:24Z</time>
      </trkpt>
      <trkpt lat="42.3208140" lon="1.7748450">
        <ele>1532.4</ele>
        <time>2015-08-12T18:19:25Z</time>
      </trkpt>
      <trkpt lat="42.3208400" lon="1.7748360">
        <ele>1532.5</ele>
        <time>2015-08-12T18:19:26Z</time>
      </trkpt>
      <trkpt lat="42.3208690" lon="1.7748030">
        <ele>1533.3</ele>
        <time>2015-08-12T18:19:29Z</time>
      </trkpt>
      <trkpt lat="42.3208700" lon="1.7747490">
        <ele>1534.9</ele>
        <time>2015-08-12T18:19:34Z</time>
      </trkpt>
      <trkpt lat="42.3208750" lon="1.7747030">
        <ele>1536.2</ele>
        <time>2015-08-12T18:19:37Z</time>
      </trkpt>
      <trkpt lat="42.3209070" lon="1.7746550">
        <ele>1537.4</ele>
        <time>2015-08-12T18:19:41Z</time>
      </trkpt>
      <trkpt lat="42.3209270" lon="1.7746060">
        <ele>1538.7</ele>
        <time>2015-08-12T18:19:44Z</time>
      </trkpt>
      <trkpt lat="42.3209250" lon="1.7745560">
        <ele>1540.3</ele>
        <time>2015-08-12T18:19:45Z</time>
      </trkpt>
      <trkpt lat="42.3209540" lon="1.7745290">
        <ele>1541.0</ele>
        <time>2015-08-12T18:19:47Z</time>
      </trkpt>
      <trkpt lat="42.3209680" lon="1.7744770">
        <ele>1542.8</ele>
        <time>2015-08-12T18:19:49Z</time>
      </trkpt>
      <trkpt lat="42.3210010" lon="1.7744640">
        <ele>1543.0</ele>
        <time>2015-08-12T18:19:52Z</time>
      </trkpt>
      <trkpt lat="42.3210300" lon="1.7744440">
        <ele>1543.5</ele>
        <time>2015-08-12T18:19:54Z</time>
      </trkpt>
      <trkpt lat="42.3210560" lon="1.7744570">
        <ele>1542.8</ele>
        <time>2015-08-12T18:19:55Z</time>
      </trkpt>
      <trkpt lat="42.3210980" lon="1.7744520">
        <ele>1542.7</ele>
        <time>2015-08-12T18:19:58Z</time>
      </trkpt>
      <trkpt lat="42.3211340" lon="1.7744730">
        <ele>1541.7</ele>
        <time>2015-08-12T18:20:00Z</time>
      </trkpt>
      <trkpt lat="42.3211540" lon="1.7744990">
        <ele>1540.6</ele>
        <time>2015-08-12T18:20:01Z</time>
      </trkpt>
      <trkpt lat="42.3211760" lon="1.7745260">
        <ele>1539.5</ele>
        <time>2015-08-12T18:20:02Z</time>
      </trkpt>
      <trkpt lat="42.3211990" lon="1.7745540">
        <ele>1538.4</ele>
        <time>2015-08-12T18:20:04Z</time>
      </trkpt>
      <trkpt lat="42.3212410" lon="1.7745930">
        <ele>1536.8</ele>
        <time>2015-08-12T18:20:06Z</time>
      </trkpt>
      <trkpt lat="42.3212660" lon="1.7746240">
        <ele>1536.0</ele>
        <time>2015-08-12T18:20:09Z</time>
      </trkpt>
      <trkpt lat="42.3212930" lon="1.7746420">
        <ele>1535.6</ele>
        <time>2015-08-12T18:20:11Z</time>
      </trkpt>
      <trkpt lat="42.3213250" lon="1.7746660">
        <ele>1535.1</ele>
        <time>2015-08-12T18:20:13Z</time>
      </trkpt>
      <trkpt lat="42.3213490" lon="1.7746960">
        <ele>1534.3</ele>
        <time>2015-08-12T18:20:15Z</time>
      </trkpt>
      <trkpt lat="42.3213770" lon="1.7747350">
        <ele>1533.3</ele>
        <time>2015-08-12T18:20:17Z</time>
      </trkpt>
      <trkpt lat="42.3214080" lon="1.7747420">
        <ele>1533.3</ele>
        <time>2015-08-12T18:20:19Z</time>
      </trkpt>
      <trkpt lat="42.3214490" lon="1.7747470">
        <ele>1533.3</ele>
        <time>2015-08-12T18:20:21Z</time>
      </trkpt>
      <trkpt lat="42.3214960" lon="1.7747480">
        <ele>1533.5</ele>
        <time>2015-08-12T18:20:23Z</time>
      </trkpt>
      <trkpt lat="42.3215330" lon="1.7747430">
        <ele>1533.8</ele>
        <time>2015-08-12T18:20:25Z</time>
      </trkpt>
      <trkpt lat="42.3215650" lon="1.7747310">
        <ele>1534.2</ele>
        <time>2015-08-12T18:20:27Z</time>
      </trkpt>
      <trkpt lat="42.3216000" lon="1.7747180">
        <ele>1534.8</ele>
        <time>2015-08-12T18:20:29Z</time>
      </trkpt>
      <trkpt lat="42.3216270" lon="1.7746830">
        <ele>1535.9</ele>
        <time>2015-08-12T18:20:31Z</time>
      </trkpt>
      <trkpt lat="42.3216560" lon="1.7746490">
        <ele>1537.0</ele>
        <time>2015-08-12T18:20:33Z</time>
      </trkpt>
      <trkpt lat="42.3216950" lon="1.7746280">
        <ele>1537.8</ele>
        <time>2015-08-12T18:20:35Z</time>
      </trkpt>
      <trkpt lat="42.3217280" lon="1.7745970">
        <ele>1538.9</ele>
        <time>2015-08-12T18:20:37Z</time>
      </trkpt>
      <trkpt lat="42.3217650" lon="1.7745650">
        <ele>1540.2</ele>
        <time>2015-08-12T18:20:39Z</time>
      </trkpt>
      <trkpt lat="42.3218040" lon="1.7745170">
        <ele>1542.2</ele>
        <time>2015-08-12T18:20:41Z</time>
      </trkpt>
      <trkpt lat="42.3218130" lon="1.7744790">
        <ele>1543.8</ele>
        <time>2015-08-12T18:20:44Z</time>
      </trkpt>
      <trkpt lat="42.3218310" lon="1.7744370">
        <ele>1545.5</ele>
        <time>2015-08-12T18:20:46Z</time>
      </trkpt>
      <trkpt lat="42.3218610" lon="1.7744300">
        <ele>1545.9</ele>
        <time>2015-08-12T18:20:48Z</time>
      </trkpt>
      <trkpt lat="42.3219050" lon="1.7744180">
        <ele>1546.7</ele>
        <time>2015-08-12T18:20:50Z</time>
      </trkpt>
      <trkpt lat="42.3219360" lon="1.7743930">
        <ele>1547.9</ele>
        <time>2015-08-12T18:20:52Z</time>
      </trkpt>
      <trkpt lat="42.3219830" lon="1.7743610">
        <ele>1549.4</ele>
        <time>2015-08-12T18:20:54Z</time>
      </trkpt>
      <trkpt lat="42.3220090" lon="1.7743450">
        <ele>1550.2</ele>
        <time>2015-08-12T18:20:55Z</time>
      </trkpt>
      <trkpt lat="42.3220330" lon="1.7743260">
        <ele>1551.2</ele>
        <time>2015-08-12T18:20:56Z</time>
      </trkpt>
      <trkpt lat="42.3220700" lon="1.7743150">
        <ele>1551.9</ele>
        <time>2015-08-12T18:20:58Z</time>
      </trkpt>
      <trkpt lat="42.3220960" lon="1.7743290">
        <ele>1551.3</ele>
        <time>2015-08-12T18:20:59Z</time>
      </trkpt>
      <trkpt lat="42.3221290" lon="1.7743100">
        <ele>1552.0</ele>
        <time>2015-08-12T18:21:01Z</time>
      </trkpt>
      <trkpt lat="42.3221530" lon="1.7742870">
        <ele>1552.8</ele>
        <time>2015-08-12T18:21:03Z</time>
      </trkpt>
      <trkpt lat="42.3221810" lon="1.7742690">
        <ele>1553.5</ele>
        <time>2015-08-12T18:21:06Z</time>
      </trkpt>
      <trkpt lat="42.3222140" lon="1.7742540">
        <ele>1554.0</ele>
        <time>2015-08-12T18:21:08Z</time>
      </trkpt>
      <trkpt lat="42.3222660" lon="1.7742390">
        <ele>1554.4</ele>
        <time>2015-08-12T18:21:11Z</time>
      </trkpt>
      <trkpt lat="42.3222920" lon="1.7742120">
        <ele>1555.4</ele>
        <time>2015-08-12T18:21:12Z</time>
      </trkpt>
      <trkpt lat="42.3223350" lon="1.7742040">
        <ele>1555.6</ele>
        <time>2015-08-12T18:21:13Z</time>
      </trkpt>
      <trkpt lat="42.3223830" lon="1.7741700">
        <ele>1556.8</ele>
        <time>2015-08-12T18:21:15Z</time>
      </trkpt>
      <trkpt lat="42.3224060" lon="1.7741290">
        <ele>1558.4</ele>
        <time>2015-08-12T18:21:18Z</time>
      </trkpt>
      <trkpt lat="42.3224330" lon="1.7741220">
        <ele>1558.6</ele>
        <time>2015-08-12T18:21:21Z</time>
      </trkpt>
      <trkpt lat="42.3224570" lon="1.7740810">
        <ele>1560.1</ele>
        <time>2015-08-12T18:21:22Z</time>
      </trkpt>
      <trkpt lat="42.3224870" lon="1.7740550">
        <ele>1561.1</ele>
        <time>2015-08-12T18:21:24Z</time>
      </trkpt>
      <trkpt lat="42.3225150" lon="1.7740340">
        <ele>1561.9</ele>
        <time>2015-08-12T18:21:25Z</time>
      </trkpt>
      <trkpt lat="42.3225670" lon="1.7740030">
        <ele>1562.9</ele>
        <time>2015-08-12T18:21:27Z</time>
      </trkpt>
      <trkpt lat="42.3226030" lon="1.7739750">
        <ele>1563.9</ele>
        <time>2015-08-12T18:21:28Z</time>
      </trkpt>
      <trkpt lat="42.3226290" lon="1.7739930">
        <ele>1563.1</ele>
        <time>2015-08-12T18:21:30Z</time>
      </trkpt>
      <trkpt lat="42.3226600" lon="1.7739940">
        <ele>1563.0</ele>
        <time>2015-08-12T18:21:32Z</time>
      </trkpt>
      <trkpt lat="42.3226910" lon="1.7739980">
        <ele>1562.7</ele>
        <time>2015-08-12T18:21:35Z</time>
      </trkpt>
      <trkpt lat="42.3227160" lon="1.7739820">
        <ele>1563.3</ele>
        <time>2015-08-12T18:21:36Z</time>
      </trkpt>
      <trkpt lat="42.3227470" lon="1.7739930">
        <ele>1562.7</ele>
        <time>2015-08-12T18:21:37Z</time>
      </trkpt>
      <trkpt lat="42.3227890" lon="1.7740090">
        <ele>1561.9</ele>
        <time>2015-08-12T18:21:39Z</time>
      </trkpt>
      <trkpt lat="42.3228140" lon="1.7739860">
        <ele>1562.7</ele>
        <time>2015-08-12T18:21:41Z</time>
      </trkpt>
      <trkpt lat="42.3228500" lon="1.7740040">
        <ele>1561.9</ele>
        <time>2015-08-12T18:21:43Z</time>
      </trkpt>
      <trkpt lat="42.3228790" lon="1.7740100">
        <ele>1561.5</ele>
        <time>2015-08-12T18:21:44Z</time>
      </trkpt>
      <trkpt lat="42.3229130" lon="1.7740150">
        <ele>1561.2</ele>
        <time>2015-08-12T18:21:46Z</time>
      </trkpt>
      <trkpt lat="42.3229360" lon="1.7740360">
        <ele>1560.4</ele>
        <time>2015-08-12T18:21:47Z</time>
      </trkpt>
      <trkpt lat="42.3229800" lon="1.7740530">
        <ele>1559.9</ele>
        <time>2015-08-12T18:21:49Z</time>
      </trkpt>
      <trkpt lat="42.3230010" lon="1.7740250">
        <ele>1561.2</ele>
        <time>2015-08-12T18:21:54Z</time>
      </trkpt>
      <trkpt lat="42.3230530" lon="1.7740390">
        <ele>1560.9</ele>
        <time>2015-08-12T18:21:56Z</time>
      </trkpt>
      <trkpt lat="42.3230900" lon="1.7740480">
        <ele>1560.7</ele>
        <time>2015-08-12T18:21:58Z</time>
      </trkpt>
      <trkpt lat="42.3231230" lon="1.7740400">
        <ele>1561.2</ele>
        <time>2015-08-12T18:22:01Z</time>
      </trkpt>
      <trkpt lat="42.3231520" lon="1.7740090">
        <ele>1562.6</ele>
        <time>2015-08-12T18:22:03Z</time>
      </trkpt>
      <trkpt lat="42.3231880" lon="1.7740290">
        <ele>1561.9</ele>
        <time>2015-08-12T18:22:05Z</time>
      </trkpt>
      <trkpt lat="42.3232260" lon="1.7740210">
        <ele>1562.4</ele>
        <time>2015-08-12T18:22:07Z</time>
      </trkpt>
      <trkpt lat="42.3232600" lon="1.7740230">
        <ele>1562.5</ele>
        <time>2015-08-12T18:22:09Z</time>
      </trkpt>
      <trkpt lat="42.3232960" lon="1.7740420">
        <ele>1561.9</ele>
        <time>2015-08-12T18:22:11Z</time>
      </trkpt>
      <trkpt lat="42.3233300" lon="1.7740540">
        <ele>1561.6</ele>
        <time>2015-08-12T18:22:13Z</time>
      </trkpt>
      <trkpt lat="42.3233590" lon="1.7740680">
        <ele>1561.1</ele>
        <time>2015-08-12T18:22:15Z</time>
      </trkpt>
      <trkpt lat="42.3233940" lon="1.7740610">
        <ele>1561.6</ele>
        <time>2015-08-12T18:22:17Z</time>
      </trkpt>
      <trkpt lat="42.3234250" lon="1.7740620">
        <ele>1561.7</ele>
        <time>2015-08-12T18:22:19Z</time>
      </trkpt>
      <trkpt lat="42.3234640" lon="1.7740940">
        <ele>1560.6</ele>
        <time>2015-08-12T18:22:22Z</time>
      </trkpt>
      <trkpt lat="42.3234990" lon="1.7741040">
        <ele>1560.4</ele>
        <time>2015-08-12T18:22:26Z</time>
      </trkpt>
      <trkpt lat="42.3235350" lon="1.7741170">
        <ele>1560.0</ele>
        <time>2015-08-12T18:22:28Z</time>
      </trkpt>
      <trkpt lat="42.3235650" lon="1.7741110">
        <ele>1560.4</ele>
        <time>2015-08-12T18:22:30Z</time>
      </trkpt>
      <trkpt lat="42.3235940" lon="1.7740880">
        <ele>1561.5</ele>
        <time>2015-08-12T18:22:32Z</time>
      </trkpt>
      <trkpt lat="42.3236220" lon="1.7740660">
        <ele>1562.5</ele>
        <time>2015-08-12T18:22:34Z</time>
      </trkpt>
      <trkpt lat="42.3236480" lon="1.7740470">
        <ele>1563.4</ele>
        <time>2015-08-12T18:22:36Z</time>
      </trkpt>
      <trkpt lat="42.3236780" lon="1.7740440">
        <ele>1563.7</ele>
        <time>2015-08-12T18:22:38Z</time>
      </trkpt>
      <trkpt lat="42.3237090" lon="1.7740450">
        <ele>1563.8</ele>
        <time>2015-08-12T18:22:40Z</time>
      </trkpt>
      <trkpt lat="42.3237360" lon="1.7740610">
        <ele>1563.2</ele>
        <time>2015-08-12T18:22:41Z</time>
      </trkpt>
      <trkpt lat="42.3237650" lon="1.7740630">
        <ele>1563.2</ele>
        <time>2015-08-12T18:22:42Z</time>
      </trkpt>
      <trkpt lat="42.3238150" lon="1.7740300">
        <ele>1564.4</ele>
        <time>2015-08-12T18:22:44Z</time>
      </trkpt>
      <trkpt lat="42.3238560" lon="1.7740260">
        <ele>1564.5</ele>
        <time>2015-08-12T18:22:46Z</time>
      </trkpt>
      <trkpt lat="42.3238980" lon="1.7739860">
        <ele>1565.9</ele>
        <time>2015-08-12T18:22:48Z</time>
      </trkpt>
      <trkpt lat="42.3239330" lon="1.7739570">
        <ele>1566.8</ele>
        <time>2015-08-12T18:22:50Z</time>
      </trkpt>
      <trkpt lat="42.3239610" lon="1.7739340">
        <ele>1567.5</ele>
        <time>2015-08-12T18:22:53Z</time>
      </trkpt>
      <trkpt lat="42.3239800" lon="1.7738810">
        <ele>1569.2</ele>
        <time>2015-08-12T18:22:55Z</time>
      </trkpt>
      <trkpt lat="42.3239880" lon="1.7738250">
        <ele>1571.1</ele>
        <time>2015-08-12T18:22:57Z</time>
      </trkpt>
      <trkpt lat="42.3239950" lon="1.7737880">
        <ele>1572.3</ele>
        <time>2015-08-12T18:22:59Z</time>
      </trkpt>
      <trkpt lat="42.3240330" lon="1.7738060">
        <ele>1571.4</ele>
        <time>2015-08-12T18:23:01Z</time>
      </trkpt>
      <trkpt lat="42.3240660" lon="1.7737990">
        <ele>1571.4</ele>
        <time>2015-08-12T18:23:03Z</time>
      </trkpt>
      <trkpt lat="42.3240910" lon="1.7737620">
        <ele>1572.3</ele>
        <time>2015-08-12T18:23:06Z</time>
      </trkpt>
      <trkpt lat="42.3241240" lon="1.7737650">
        <ele>1571.9</ele>
        <time>2015-08-12T18:23:08Z</time>
      </trkpt>
      <trkpt lat="42.3241820" lon="1.7737670">
        <ele>1571.3</ele>
        <time>2015-08-12T18:23:10Z</time>
      </trkpt>
      <trkpt lat="42.3242170" lon="1.7737540">
        <ele>1571.4</ele>
        <time>2015-08-12T18:23:12Z</time>
      </trkpt>
      <trkpt lat="42.3242560" lon="1.7737480">
        <ele>1571.2</ele>
        <time>2015-08-12T18:23:15Z</time>
      </trkpt>
      <trkpt lat="42.3242910" lon="1.7737460">
        <ele>1570.8</ele>
        <time>2015-08-12T18:23:17Z</time>
      </trkpt>
      <trkpt lat="42.3243200" lon="1.7737510">
        <ele>1570.5</ele>
        <time>2015-08-12T18:23:19Z</time>
      </trkpt>
      <trkpt lat="42.3243620" lon="1.7737450">
        <ele>1570.1</ele>
        <time>2015-08-12T18:23:22Z</time>
      </trkpt>
      <trkpt lat="42.3243910" lon="1.7737150">
        <ele>1569.9</ele>
        <time>2015-08-12T18:23:25Z</time>
      </trkpt>
      <trkpt lat="42.3244200" lon="1.7736970">
        <ele>1569.5</ele>
        <time>2015-08-12T18:23:27Z</time>
      </trkpt>
      <trkpt lat="42.3244540" lon="1.7736750">
        <ele>1569.1</ele>
        <time>2015-08-12T18:23:29Z</time>
      </trkpt>
      <trkpt lat="42.3244790" lon="1.7736310">
        <ele>1568.7</ele>
        <time>2015-08-12T18:23:32Z</time>
      </trkpt>
      <trkpt lat="42.3244840" lon="1.7735790">
        <ele>1568.5</ele>
        <time>2015-08-12T18:23:35Z</time>
      </trkpt>
      <trkpt lat="42.3244830" lon="1.7735330">
        <ele>1568.4</ele>
        <time>2015-08-12T18:23:39Z</time>
      </trkpt>
      <trkpt lat="42.3244660" lon="1.7734790">
        <ele>1568.6</ele>
        <time>2015-08-12T18:23:42Z</time>
      </trkpt>
      <trkpt lat="42.3244420" lon="1.7734950">
        <ele>1569.0</ele>
        <time>2015-08-12T18:27:32Z</time>
      </trkpt>
      <trkpt lat="42.3244140" lon="1.7734540">
        <ele>1569.5</ele>
        <time>2015-08-12T18:27:56Z</time>
      </trkpt>
      <trkpt lat="42.3244000" lon="1.7734180">
        <ele>1569.8</ele>
        <time>2015-08-12T18:27:57Z</time>
      </trkpt>
      <trkpt lat="42.3243710" lon="1.7734010">
        <ele>1570.4</ele>
        <time>2015-08-12T18:27:59Z</time>
      </trkpt>
      <trkpt lat="42.3243430" lon="1.7733610">
        <ele>1571.1</ele>
        <time>2015-08-12T18:28:02Z</time>
      </trkpt>
      <trkpt lat="42.3242980" lon="1.7733660">
        <ele>1572.1</ele>
        <time>2015-08-12T18:28:04Z</time>
      </trkpt>
      <trkpt lat="42.3242630" lon="1.7733750">
        <ele>1572.8</ele>
        <time>2015-08-12T18:28:06Z</time>
      </trkpt>
      <trkpt lat="42.3242730" lon="1.7733340">
        <ele>1572.8</ele>
        <time>2015-08-12T18:28:07Z</time>
      </trkpt>
      <trkpt lat="42.3242610" lon="1.7732980">
        <ele>1573.2</ele>
        <time>2015-08-12T18:28:08Z</time>
      </trkpt>
      <trkpt lat="42.3242410" lon="1.7732600">
        <ele>1573.9</ele>
        <time>2015-08-12T18:28:10Z</time>
      </trkpt>
      <trkpt lat="42.3242340" lon="1.7732190">
        <ele>1574.3</ele>
        <time>2015-08-12T18:28:12Z</time>
      </trkpt>
      <trkpt lat="42.3242350" lon="1.7731510">
        <ele>1574.7</ele>
        <time>2015-08-12T18:28:14Z</time>
      </trkpt>
      <trkpt lat="42.3242150" lon="1.7731050">
        <ele>1575.5</ele>
        <time>2015-08-12T18:28:16Z</time>
      </trkpt>
      <trkpt lat="42.3242130" lon="1.7730450">
        <ele>1576.0</ele>
        <time>2015-08-12T18:28:18Z</time>
      </trkpt>
      <trkpt lat="42.3242100" lon="1.7729950">
        <ele>1576.4</ele>
        <time>2015-08-12T18:28:20Z</time>
      </trkpt>
      <trkpt lat="42.3242210" lon="1.7729350">
        <ele>1576.4</ele>
        <time>2015-08-12T18:28:22Z</time>
      </trkpt>
      <trkpt lat="42.3242260" lon="1.7728870">
        <ele>1576.0</ele>
        <time>2015-08-12T18:28:24Z</time>
      </trkpt>
      <trkpt lat="42.3242270" lon="1.7728420">
        <ele>1575.5</ele>
        <time>2015-08-12T18:28:25Z</time>
      </trkpt>
      <trkpt lat="42.3242250" lon="1.7728050">
        <ele>1575.2</ele>
        <time>2015-08-12T18:28:26Z</time>
      </trkpt>
      <trkpt lat="42.3242210" lon="1.7727420">
        <ele>1574.6</ele>
        <time>2015-08-12T18:28:28Z</time>
      </trkpt>
      <trkpt lat="42.3242090" lon="1.7726880">
        <ele>1574.5</ele>
        <time>2015-08-12T18:28:29Z</time>
      </trkpt>
      <trkpt lat="42.3242090" lon="1.7726210">
        <ele>1573.8</ele>
        <time>2015-08-12T18:28:31Z</time>
      </trkpt>
      <trkpt lat="42.3242010" lon="1.7725770">
        <ele>1573.5</ele>
        <time>2015-08-12T18:28:32Z</time>
      </trkpt>
      <trkpt lat="42.3242050" lon="1.7725340">
        <ele>1572.9</ele>
        <time>2015-08-12T18:28:33Z</time>
      </trkpt>
      <trkpt lat="42.3242050" lon="1.7724850">
        <ele>1572.4</ele>
        <time>2015-08-12T18:28:34Z</time>
      </trkpt>
      <trkpt lat="42.3242030" lon="1.7724340">
        <ele>1571.9</ele>
        <time>2015-08-12T18:28:35Z</time>
      </trkpt>
      <trkpt lat="42.3242110" lon="1.7723840">
        <ele>1571.2</ele>
        <time>2015-08-12T18:28:36Z</time>
      </trkpt>
      <trkpt lat="42.3242150" lon="1.7723310">
        <ele>1570.5</ele>
        <time>2015-08-12T18:28:37Z</time>
      </trkpt>
      <trkpt lat="42.3242250" lon="1.7722800">
        <ele>1569.7</ele>
        <time>2015-08-12T18:28:38Z</time>
      </trkpt>
      <trkpt lat="42.3242360" lon="1.7722340">
        <ele>1568.9</ele>
        <time>2015-08-12T18:28:39Z</time>
      </trkpt>
      <trkpt lat="42.3242470" lon="1.7721770">
        <ele>1568.0</ele>
        <time>2015-08-12T18:28:40Z</time>
      </trkpt>
      <trkpt lat="42.3242580" lon="1.7721200">
        <ele>1567.2</ele>
        <time>2015-08-12T18:28:41Z</time>
      </trkpt>
      <trkpt lat="42.3242400" lon="1.7720900">
        <ele>1567.3</ele>
        <time>2015-08-12T18:28:42Z</time>
      </trkpt>
      <trkpt lat="42.3242430" lon="1.7720460">
        <ele>1566.3</ele>
        <time>2015-08-12T18:28:43Z</time>
      </trkpt>
      <trkpt lat="42.3242280" lon="1.7719640">
        <ele>1564.8</ele>
        <time>2015-08-12T18:28:45Z</time>
      </trkpt>
      <trkpt lat="42.3241800" lon="1.7719160">
        <ele>1564.8</ele>
        <time>2015-08-12T18:28:46Z</time>
      </trkpt>
      <trkpt lat="42.3241680" lon="1.7718590">
        <ele>1563.7</ele>
        <time>2015-08-12T18:28:47Z</time>
      </trkpt>
      <trkpt lat="42.3241580" lon="1.7718020">
        <ele>1562.6</ele>
        <time>2015-08-12T18:28:48Z</time>
      </trkpt>
      <trkpt lat="42.3241330" lon="1.7717420">
        <ele>1561.7</ele>
        <time>2015-08-12T18:28:49Z</time>
      </trkpt>
      <trkpt lat="42.3241240" lon="1.7716930">
        <ele>1560.7</ele>
        <time>2015-08-12T18:28:50Z</time>
      </trkpt>
      <trkpt lat="42.3241150" lon="1.7716530">
        <ele>1559.9</ele>
        <time>2015-08-12T18:28:51Z</time>
      </trkpt>
      <trkpt lat="42.3240920" lon="1.7716070">
        <ele>1559.3</ele>
        <time>2015-08-12T18:28:52Z</time>
      </trkpt>
      <trkpt lat="42.3240720" lon="1.7715690">
        <ele>1558.7</ele>
        <time>2015-08-12T18:28:53Z</time>
      </trkpt>
      <trkpt lat="42.3240440" lon="1.7715290">
        <ele>1558.3</ele>
        <time>2015-08-12T18:28:54Z</time>
      </trkpt>
      <trkpt lat="42.3240100" lon="1.7714890">
        <ele>1557.9</ele>
        <time>2015-08-12T18:28:55Z</time>
      </trkpt>
      <trkpt lat="42.3239640" lon="1.7714600">
        <ele>1558.0</ele>
        <time>2015-08-12T18:28:56Z</time>
      </trkpt>
      <trkpt lat="42.3239320" lon="1.7714280">
        <ele>1557.7</ele>
        <time>2015-08-12T18:28:57Z</time>
      </trkpt>
      <trkpt lat="42.3239020" lon="1.7714040">
        <ele>1557.6</ele>
        <time>2015-08-12T18:28:58Z</time>
      </trkpt>
      <trkpt lat="42.3238820" lon="1.7713750">
        <ele>1557.2</ele>
        <time>2015-08-12T18:28:59Z</time>
      </trkpt>
      <trkpt lat="42.3238590" lon="1.7713420">
        <ele>1556.7</ele>
        <time>2015-08-12T18:29:00Z</time>
      </trkpt>
      <trkpt lat="42.3238230" lon="1.7713130">
        <ele>1556.6</ele>
        <time>2015-08-12T18:29:01Z</time>
      </trkpt>
      <trkpt lat="42.3237890" lon="1.7712880">
        <ele>1556.4</ele>
        <time>2015-08-12T18:29:02Z</time>
      </trkpt>
      <trkpt lat="42.3237550" lon="1.7712700">
        <ele>1556.5</ele>
        <time>2015-08-12T18:29:03Z</time>
      </trkpt>
      <trkpt lat="42.3237210" lon="1.7712460">
        <ele>1556.3</ele>
        <time>2015-08-12T18:29:04Z</time>
      </trkpt>
      <trkpt lat="42.3236860" lon="1.7712230">
        <ele>1556.1</ele>
        <time>2015-08-12T18:29:05Z</time>
      </trkpt>
      <trkpt lat="42.3236540" lon="1.7711990">
        <ele>1555.9</ele>
        <time>2015-08-12T18:29:06Z</time>
      </trkpt>
      <trkpt lat="42.3236150" lon="1.7711870">
        <ele>1556.2</ele>
        <time>2015-08-12T18:29:07Z</time>
      </trkpt>
      <trkpt lat="42.3235840" lon="1.7711720">
        <ele>1556.2</ele>
        <time>2015-08-12T18:29:08Z</time>
      </trkpt>
      <trkpt lat="42.3235510" lon="1.7711560">
        <ele>1556.2</ele>
        <time>2015-08-12T18:29:09Z</time>
      </trkpt>
      <trkpt lat="42.3235180" lon="1.7711380">
        <ele>1556.2</ele>
        <time>2015-08-12T18:29:10Z</time>
      </trkpt>
      <trkpt lat="42.3234810" lon="1.7710840">
        <ele>1555.2</ele>
        <time>2015-08-12T18:29:12Z</time>
      </trkpt>
      <trkpt lat="42.3234550" lon="1.7710490">
        <ele>1554.6</ele>
        <time>2015-08-12T18:29:13Z</time>
      </trkpt>
      <trkpt lat="42.3234210" lon="1.7710250">
        <ele>1554.5</ele>
        <time>2015-08-12T18:29:14Z</time>
      </trkpt>
      <trkpt lat="42.3233850" lon="1.7709690">
        <ele>1553.5</ele>
        <time>2015-08-12T18:29:16Z</time>
      </trkpt>
      <trkpt lat="42.3233600" lon="1.7709320">
        <ele>1552.8</ele>
        <time>2015-08-12T18:29:17Z</time>
      </trkpt>
      <trkpt lat="42.3233330" lon="1.7708990">
        <ele>1552.3</ele>
        <time>2015-08-12T18:29:18Z</time>
      </trkpt>
      <trkpt lat="42.3233050" lon="1.7708650">
        <ele>1551.8</ele>
        <time>2015-08-12T18:29:19Z</time>
      </trkpt>
      <trkpt lat="42.3232750" lon="1.7708310">
        <ele>1551.3</ele>
        <time>2015-08-12T18:29:20Z</time>
      </trkpt>
      <trkpt lat="42.3232540" lon="1.7708010">
        <ele>1550.9</ele>
        <time>2015-08-12T18:29:21Z</time>
      </trkpt>
      <trkpt lat="42.3232080" lon="1.7708180">
        <ele>1552.0</ele>
        <time>2015-08-12T18:29:22Z</time>
      </trkpt>
      <trkpt lat="42.3231500" lon="1.7708090">
        <ele>1552.7</ele>
        <time>2015-08-12T18:29:24Z</time>
      </trkpt>
      <trkpt lat="42.3231030" lon="1.7707910">
        <ele>1553.0</ele>
        <time>2015-08-12T18:29:25Z</time>
      </trkpt>
      <trkpt lat="42.3230660" lon="1.7707770">
        <ele>1553.2</ele>
        <time>2015-08-12T18:29:26Z</time>
      </trkpt>
      <trkpt lat="42.3230290" lon="1.7707650">
        <ele>1553.4</ele>
        <time>2015-08-12T18:29:27Z</time>
      </trkpt>
      <trkpt lat="42.3230010" lon="1.7707540">
        <ele>1553.6</ele>
        <time>2015-08-12T18:29:28Z</time>
      </trkpt>
      <trkpt lat="42.3229700" lon="1.7707370">
        <ele>1553.6</ele>
        <time>2015-08-12T18:29:29Z</time>
      </trkpt>
      <trkpt lat="42.3229360" lon="1.7707200">
        <ele>1553.7</ele>
        <time>2015-08-12T18:29:30Z</time>
      </trkpt>
      <trkpt lat="42.3229010" lon="1.7706920">
        <ele>1553.7</ele>
        <time>2015-08-12T18:29:31Z</time>
      </trkpt>
      <trkpt lat="42.3228630" lon="1.7706890">
        <ele>1554.6</ele>
        <time>2015-08-12T18:29:32Z</time>
      </trkpt>
      <trkpt lat="42.3228290" lon="1.7706940">
        <ele>1555.6</ele>
        <time>2015-08-12T18:29:33Z</time>
      </trkpt>
      <trkpt lat="42.3228030" lon="1.7706760">
        <ele>1555.8</ele>
        <time>2015-08-12T18:29:34Z</time>
      </trkpt>
      <trkpt lat="42.3227710" lon="1.7706730">
        <ele>1556.6</ele>
        <time>2015-08-12T18:29:35Z</time>
      </trkpt>
      <trkpt lat="42.3227400" lon="1.7706720">
        <ele>1557.4</ele>
        <time>2015-08-12T18:29:36Z</time>
      </trkpt>
      <trkpt lat="42.3227120" lon="1.7706730">
        <ele>1558.2</ele>
        <time>2015-08-12T18:29:37Z</time>
      </trkpt>
      <trkpt lat="42.3226810" lon="1.7706610">
        <ele>1558.6</ele>
        <time>2015-08-12T18:29:38Z</time>
      </trkpt>
      <trkpt lat="42.3226500" lon="1.7706580">
        <ele>1559.4</ele>
        <time>2015-08-12T18:29:39Z</time>
      </trkpt>
      <trkpt lat="42.3225990" lon="1.7706200">
        <ele>1559.7</ele>
        <time>2015-08-12T18:29:40Z</time>
      </trkpt>
      <trkpt lat="42.3225560" lon="1.7705980">
        <ele>1560.2</ele>
        <time>2015-08-12T18:29:41Z</time>
      </trkpt>
      <trkpt lat="42.3225260" lon="1.7705830">
        <ele>1560.5</ele>
        <time>2015-08-12T18:29:42Z</time>
      </trkpt>
      <trkpt lat="42.3224980" lon="1.7705650">
        <ele>1560.7</ele>
        <time>2015-08-12T18:29:43Z</time>
      </trkpt>
      <trkpt lat="42.3224670" lon="1.7705470">
        <ele>1561.0</ele>
        <time>2015-08-12T18:29:44Z</time>
      </trkpt>
      <trkpt lat="42.3224390" lon="1.7705270">
        <ele>1561.2</ele>
        <time>2015-08-12T18:29:45Z</time>
      </trkpt>
      <trkpt lat="42.3224030" lon="1.7704910">
        <ele>1561.1</ele>
        <time>2015-08-12T18:29:47Z</time>
      </trkpt>
      <trkpt lat="42.3223560" lon="1.7704570">
        <ele>1561.3</ele>
        <time>2015-08-12T18:29:49Z</time>
      </trkpt>
      <trkpt lat="42.3223020" lon="1.7704210">
        <ele>1561.6</ele>
        <time>2015-08-12T18:29:51Z</time>
      </trkpt>
      <trkpt lat="42.3222850" lon="1.7703910">
        <ele>1561.1</ele>
        <time>2015-08-12T18:29:52Z</time>
      </trkpt>
      <trkpt lat="42.3222600" lon="1.7703660">
        <ele>1560.9</ele>
        <time>2015-08-12T18:29:53Z</time>
      </trkpt>
      <trkpt lat="42.3222210" lon="1.7703040">
        <ele>1559.9</ele>
        <time>2015-08-12T18:29:54Z</time>
      </trkpt>
      <trkpt lat="42.3221960" lon="1.7702720">
        <ele>1559.6</ele>
        <time>2015-08-12T18:29:55Z</time>
      </trkpt>
      <trkpt lat="42.3221490" lon="1.7702780">
        <ele>1561.0</ele>
        <time>2015-08-12T18:29:56Z</time>
      </trkpt>
      <trkpt lat="42.3221180" lon="1.7702390">
        <ele>1560.5</ele>
        <time>2015-08-12T18:29:57Z</time>
      </trkpt>
      <trkpt lat="42.3220750" lon="1.7701960">
        <ele>1560.3</ele>
        <time>2015-08-12T18:29:58Z</time>
      </trkpt>
      <trkpt lat="42.3220380" lon="1.7701600">
        <ele>1560.2</ele>
        <time>2015-08-12T18:29:59Z</time>
      </trkpt>
      <trkpt lat="42.3220100" lon="1.7701340">
        <ele>1560.1</ele>
        <time>2015-08-12T18:30:00Z</time>
      </trkpt>
      <trkpt lat="42.3219800" lon="1.7701190">
        <ele>1560.5</ele>
        <time>2015-08-12T18:30:01Z</time>
      </trkpt>
      <trkpt lat="42.3219430" lon="1.7701060">
        <ele>1561.1</ele>
        <time>2015-08-12T18:30:02Z</time>
      </trkpt>
      <trkpt lat="42.3219010" lon="1.7700810">
        <ele>1561.4</ele>
        <time>2015-08-12T18:30:03Z</time>
      </trkpt>
      <trkpt lat="42.3218550" lon="1.7700490">
        <ele>1561.6</ele>
        <time>2015-08-12T18:30:04Z</time>
      </trkpt>
      <trkpt lat="42.3218020" lon="1.7700360">
        <ele>1562.6</ele>
        <time>2015-08-12T18:30:05Z</time>
      </trkpt>
      <trkpt lat="42.3217560" lon="1.7700240">
        <ele>1563.4</ele>
        <time>2015-08-12T18:30:06Z</time>
      </trkpt>
      <trkpt lat="42.3217210" lon="1.7699940">
        <ele>1563.4</ele>
        <time>2015-08-12T18:30:07Z</time>
      </trkpt>
      <trkpt lat="42.3216850" lon="1.7699780">
        <ele>1563.8</ele>
        <time>2015-08-12T18:30:08Z</time>
      </trkpt>
      <trkpt lat="42.3216500" lon="1.7699570">
        <ele>1564.0</ele>
        <time>2015-08-12T18:30:09Z</time>
      </trkpt>
      <trkpt lat="42.3216060" lon="1.7699260">
        <ele>1564.2</ele>
        <time>2015-08-12T18:30:10Z</time>
      </trkpt>
      <trkpt lat="42.3215700" lon="1.7698950">
        <ele>1564.1</ele>
        <time>2015-08-12T18:30:11Z</time>
      </trkpt>
      <trkpt lat="42.3215600" lon="1.7698140">
        <ele>1561.7</ele>
        <time>2015-08-12T18:30:12Z</time>
      </trkpt>
      <trkpt lat="42.3215310" lon="1.7697630">
        <ele>1560.8</ele>
        <time>2015-08-12T18:30:13Z</time>
      </trkpt>
      <trkpt lat="42.3215010" lon="1.7697200">
        <ele>1560.2</ele>
        <time>2015-08-12T18:30:14Z</time>
      </trkpt>
      <trkpt lat="42.3214640" lon="1.7696590">
        <ele>1559.1</ele>
        <time>2015-08-12T18:30:15Z</time>
      </trkpt>
      <trkpt lat="42.3214190" lon="1.7696190">
        <ele>1558.9</ele>
        <time>2015-08-12T18:30:16Z</time>
      </trkpt>
      <trkpt lat="42.3214070" lon="1.7695570">
        <ele>1557.5</ele>
        <time>2015-08-12T18:30:17Z</time>
      </trkpt>
      <trkpt lat="42.3213880" lon="1.7695070">
        <ele>1556.8</ele>
        <time>2015-08-12T18:30:18Z</time>
      </trkpt>
      <trkpt lat="42.3213660" lon="1.7694690">
        <ele>1556.5</ele>
        <time>2015-08-12T18:30:19Z</time>
      </trkpt>
      <trkpt lat="42.3213520" lon="1.7694250">
        <ele>1555.9</ele>
        <time>2015-08-12T18:30:20Z</time>
      </trkpt>
      <trkpt lat="42.3213170" lon="1.7693830">
        <ele>1555.8</ele>
        <time>2015-08-12T18:30:21Z</time>
      </trkpt>
      <trkpt lat="42.3212980" lon="1.7693480">
        <ele>1555.5</ele>
        <time>2015-08-12T18:30:22Z</time>
      </trkpt>
      <trkpt lat="42.3212760" lon="1.7693090">
        <ele>1555.1</ele>
        <time>2015-08-12T18:30:23Z</time>
      </trkpt>
      <trkpt lat="42.3212190" lon="1.7692750">
        <ele>1555.6</ele>
        <time>2015-08-12T18:30:24Z</time>
      </trkpt>
      <trkpt lat="42.3212090" lon="1.7692300">
        <ele>1554.8</ele>
        <time>2015-08-12T18:30:25Z</time>
      </trkpt>
      <trkpt lat="42.3211900" lon="1.7691850">
        <ele>1554.2</ele>
        <time>2015-08-12T18:30:26Z</time>
      </trkpt>
      <trkpt lat="42.3211600" lon="1.7691600">
        <ele>1554.2</ele>
        <time>2015-08-12T18:30:27Z</time>
      </trkpt>
      <trkpt lat="42.3211330" lon="1.7691320">
        <ele>1554.2</ele>
        <time>2015-08-12T18:30:28Z</time>
      </trkpt>
      <trkpt lat="42.3211070" lon="1.7691160">
        <ele>1554.3</ele>
        <time>2015-08-12T18:30:29Z</time>
      </trkpt>
      <trkpt lat="42.3210660" lon="1.7690870">
        <ele>1554.5</ele>
        <time>2015-08-12T18:30:30Z</time>
      </trkpt>
      <trkpt lat="42.3210180" lon="1.7690700">
        <ele>1555.1</ele>
        <time>2015-08-12T18:30:31Z</time>
      </trkpt>
      <trkpt lat="42.3209780" lon="1.7690450">
        <ele>1555.4</ele>
        <time>2015-08-12T18:30:32Z</time>
      </trkpt>
      <trkpt lat="42.3209420" lon="1.7690260">
        <ele>1555.7</ele>
        <time>2015-08-12T18:30:33Z</time>
      </trkpt>
      <trkpt lat="42.3209030" lon="1.7690180">
        <ele>1556.3</ele>
        <time>2015-08-12T18:30:34Z</time>
      </trkpt>
      <trkpt lat="42.3208620" lon="1.7690110">
        <ele>1557.0</ele>
        <time>2015-08-12T18:30:35Z</time>
      </trkpt>
      <trkpt lat="42.3208120" lon="1.7689900">
        <ele>1557.6</ele>
        <time>2015-08-12T18:30:37Z</time>
      </trkpt>
      <trkpt lat="42.3207710" lon="1.7689890">
        <ele>1558.4</ele>
        <time>2015-08-12T18:30:38Z</time>
      </trkpt>
      <trkpt lat="42.3207390" lon="1.7689840">
        <ele>1558.9</ele>
        <time>2015-08-12T18:30:39Z</time>
      </trkpt>
      <trkpt lat="42.3207040" lon="1.7689830">
        <ele>1559.6</ele>
        <time>2015-08-12T18:30:40Z</time>
      </trkpt>
      <trkpt lat="42.3206680" lon="1.7689940">
        <ele>1560.6</ele>
        <time>2015-08-12T18:30:41Z</time>
      </trkpt>
      <trkpt lat="42.3206320" lon="1.7690010">
        <ele>1561.6</ele>
        <time>2015-08-12T18:30:42Z</time>
      </trkpt>
      <trkpt lat="42.3205910" lon="1.7690140">
        <ele>1562.7</ele>
        <time>2015-08-12T18:30:43Z</time>
      </trkpt>
      <trkpt lat="42.3205540" lon="1.7690200">
        <ele>1563.6</ele>
        <time>2015-08-12T18:30:44Z</time>
      </trkpt>
      <trkpt lat="42.3205160" lon="1.7689490">
        <ele>1562.7</ele>
        <time>2015-08-12T18:30:45Z</time>
      </trkpt>
      <trkpt lat="42.3204850" lon="1.7689150">
        <ele>1562.5</ele>
        <time>2015-08-12T18:30:46Z</time>
      </trkpt>
      <trkpt lat="42.3204580" lon="1.7688780">
        <ele>1562.2</ele>
        <time>2015-08-12T18:30:47Z</time>
      </trkpt>
      <trkpt lat="42.3204260" lon="1.7688430">
        <ele>1562.0</ele>
        <time>2015-08-12T18:30:48Z</time>
      </trkpt>
      <trkpt lat="42.3203930" lon="1.7688050">
        <ele>1561.9</ele>
        <time>2015-08-12T18:30:50Z</time>
      </trkpt>
      <trkpt lat="42.3203620" lon="1.7687700">
        <ele>1561.9</ele>
        <time>2015-08-12T18:30:51Z</time>
      </trkpt>
      <trkpt lat="42.3203290" lon="1.7687370">
        <ele>1562.4</ele>
        <time>2015-08-12T18:30:52Z</time>
      </trkpt>
      <trkpt lat="42.3202960" lon="1.7687100">
        <ele>1563.4</ele>
        <time>2015-08-12T18:30:53Z</time>
      </trkpt>
      <trkpt lat="42.3202650" lon="1.7686810">
        <ele>1564.4</ele>
        <time>2015-08-12T18:30:54Z</time>
      </trkpt>
      <trkpt lat="42.3202350" lon="1.7686570">
        <ele>1565.4</ele>
        <time>2015-08-12T18:30:55Z</time>
      </trkpt>
      <trkpt lat="42.3201980" lon="1.7686490">
        <ele>1566.4</ele>
        <time>2015-08-12T18:30:56Z</time>
      </trkpt>
      <trkpt lat="42.3201490" lon="1.7686540">
        <ele>1567.6</ele>
        <time>2015-08-12T18:30:57Z</time>
      </trkpt>
      <trkpt lat="42.3201130" lon="1.7686480">
        <ele>1568.6</ele>
        <time>2015-08-12T18:30:58Z</time>
      </trkpt>
      <trkpt lat="42.3200780" lon="1.7686440">
        <ele>1569.6</ele>
        <time>2015-08-12T18:30:59Z</time>
      </trkpt>
      <trkpt lat="42.3200400" lon="1.7686390">
        <ele>1570.6</ele>
        <time>2015-08-12T18:31:00Z</time>
      </trkpt>
      <trkpt lat="42.3200010" lon="1.7686340">
        <ele>1571.7</ele>
        <time>2015-08-12T18:31:01Z</time>
      </trkpt>
      <trkpt lat="42.3199590" lon="1.7686200">
        <ele>1572.9</ele>
        <time>2015-08-12T18:31:02Z</time>
      </trkpt>
      <trkpt lat="42.3199030" lon="1.7686070">
        <ele>1574.4</ele>
        <time>2015-08-12T18:31:03Z</time>
      </trkpt>
      <trkpt lat="42.3198600" lon="1.7685850">
        <ele>1575.7</ele>
        <time>2015-08-12T18:31:04Z</time>
      </trkpt>
      <trkpt lat="42.3198330" lon="1.7685650">
        <ele>1576.5</ele>
        <time>2015-08-12T18:31:05Z</time>
      </trkpt>
      <trkpt lat="42.3197950" lon="1.7685500">
        <ele>1577.6</ele>
        <time>2015-08-12T18:31:06Z</time>
      </trkpt>
      <trkpt lat="42.3197660" lon="1.7685200">
        <ele>1578.6</ele>
        <time>2015-08-12T18:31:07Z</time>
      </trkpt>
      <trkpt lat="42.3197480" lon="1.7684930">
        <ele>1579.2</ele>
        <time>2015-08-12T18:31:08Z</time>
      </trkpt>
      <trkpt lat="42.3197210" lon="1.7684700">
        <ele>1580.0</ele>
        <time>2015-08-12T18:31:09Z</time>
      </trkpt>
      <trkpt lat="42.3196910" lon="1.7684110">
        <ele>1581.2</ele>
        <time>2015-08-12T18:31:11Z</time>
      </trkpt>
      <trkpt lat="42.3196620" lon="1.7683780">
        <ele>1582.2</ele>
        <time>2015-08-12T18:31:12Z</time>
      </trkpt>
      <trkpt lat="42.3196410" lon="1.7683500">
        <ele>1582.9</ele>
        <time>2015-08-12T18:31:13Z</time>
      </trkpt>
      <trkpt lat="42.3196270" lon="1.7683090">
        <ele>1583.5</ele>
        <time>2015-08-12T18:31:14Z</time>
      </trkpt>
      <trkpt lat="42.3196070" lon="1.7682310">
        <ele>1584.5</ele>
        <time>2015-08-12T18:31:16Z</time>
      </trkpt>
      <trkpt lat="42.3197110" lon="1.7681500">
        <ele>1582.2</ele>
        <time>2015-08-12T18:31:18Z</time>
      </trkpt>
      <trkpt lat="42.3197590" lon="1.7681210">
        <ele>1581.1</ele>
        <time>2015-08-12T18:31:19Z</time>
      </trkpt>
      <trkpt lat="42.3197980" lon="1.7680780">
        <ele>1580.4</ele>
        <time>2015-08-12T18:31:20Z</time>
      </trkpt>
      <trkpt lat="42.3198360" lon="1.7680560">
        <ele>1579.5</ele>
        <time>2015-08-12T18:31:21Z</time>
      </trkpt>
      <trkpt lat="42.3198710" lon="1.7680360">
        <ele>1578.7</ele>
        <time>2015-08-12T18:31:22Z</time>
      </trkpt>
      <trkpt lat="42.3199070" lon="1.7679930">
        <ele>1578.0</ele>
        <time>2015-08-12T18:31:23Z</time>
      </trkpt>
      <trkpt lat="42.3199360" lon="1.7679610">
        <ele>1577.4</ele>
        <time>2015-08-12T18:31:24Z</time>
      </trkpt>
      <trkpt lat="42.3199720" lon="1.7679420">
        <ele>1576.6</ele>
        <time>2015-08-12T18:31:25Z</time>
      </trkpt>
      <trkpt lat="42.3199950" lon="1.7679140">
        <ele>1576.2</ele>
        <time>2015-08-12T18:31:26Z</time>
      </trkpt>
      <trkpt lat="42.3200380" lon="1.7678820">
        <ele>1575.5</ele>
        <time>2015-08-12T18:31:27Z</time>
      </trkpt>
      <trkpt lat="42.3200760" lon="1.7678480">
        <ele>1574.9</ele>
        <time>2015-08-12T18:31:28Z</time>
      </trkpt>
      <trkpt lat="42.3201020" lon="1.7678090">
        <ele>1574.7</ele>
        <time>2015-08-12T18:31:29Z</time>
      </trkpt>
      <trkpt lat="42.3201370" lon="1.7677780">
        <ele>1574.2</ele>
        <time>2015-08-12T18:31:30Z</time>
      </trkpt>
      <trkpt lat="42.3201610" lon="1.7677510">
        <ele>1573.9</ele>
        <time>2015-08-12T18:31:31Z</time>
      </trkpt>
      <trkpt lat="42.3201940" lon="1.7677250">
        <ele>1573.4</ele>
        <time>2015-08-12T18:31:32Z</time>
      </trkpt>
      <trkpt lat="42.3202310" lon="1.7676980">
        <ele>1572.7</ele>
        <time>2015-08-12T18:31:33Z</time>
      </trkpt>
      <trkpt lat="42.3202560" lon="1.7676750">
        <ele>1572.3</ele>
        <time>2015-08-12T18:31:34Z</time>
      </trkpt>
      <trkpt lat="42.3202870" lon="1.7676380">
        <ele>1571.9</ele>
        <time>2015-08-12T18:31:35Z</time>
      </trkpt>
      <trkpt lat="42.3203090" lon="1.7676090">
        <ele>1571.7</ele>
        <time>2015-08-12T18:31:36Z</time>
      </trkpt>
      <trkpt lat="42.3203200" lon="1.7675740">
        <ele>1571.8</ele>
        <time>2015-08-12T18:31:37Z</time>
      </trkpt>
      <trkpt lat="42.3203260" lon="1.7675320">
        <ele>1572.2</ele>
        <time>2015-08-12T18:31:38Z</time>
      </trkpt>
      <trkpt lat="42.3203270" lon="1.7674640">
        <ele>1573.0</ele>
        <time>2015-08-12T18:31:40Z</time>
      </trkpt>
      <trkpt lat="42.3203430" lon="1.7674190">
        <ele>1573.1</ele>
        <time>2015-08-12T18:31:42Z</time>
      </trkpt>
      <trkpt lat="42.3203550" lon="1.7673800">
        <ele>1573.2</ele>
        <time>2015-08-12T18:31:44Z</time>
      </trkpt>
      <trkpt lat="42.3203850" lon="1.7673630">
        <ele>1572.6</ele>
        <time>2015-08-12T18:31:46Z</time>
      </trkpt>
      <trkpt lat="42.3204060" lon="1.7673350">
        <ele>1572.3</ele>
        <time>2015-08-12T18:31:48Z</time>
      </trkpt>
      <trkpt lat="42.3204300" lon="1.7673150">
        <ele>1571.9</ele>
        <time>2015-08-12T18:31:50Z</time>
      </trkpt>
      <trkpt lat="42.3204510" lon="1.7672860">
        <ele>1571.9</ele>
        <time>2015-08-12T18:31:52Z</time>
      </trkpt>
      <trkpt lat="42.3204880" lon="1.7672610">
        <ele>1571.4</ele>
        <time>2015-08-12T18:31:54Z</time>
      </trkpt>
      <trkpt lat="42.3205160" lon="1.7672460">
        <ele>1571.0</ele>
        <time>2015-08-12T18:31:55Z</time>
      </trkpt>
      <trkpt lat="42.3205380" lon="1.7672030">
        <ele>1571.1</ele>
        <time>2015-08-12T18:31:57Z</time>
      </trkpt>
      <trkpt lat="42.3205350" lon="1.7671540">
        <ele>1571.7</ele>
        <time>2015-08-12T18:31:59Z</time>
      </trkpt>
      <trkpt lat="42.3205390" lon="1.7670980">
        <ele>1572.3</ele>
        <time>2015-08-12T18:32:01Z</time>
      </trkpt>
      <trkpt lat="42.3205460" lon="1.7670500">
        <ele>1573.1</ele>
        <time>2015-08-12T18:32:04Z</time>
      </trkpt>
      <trkpt lat="42.3205430" lon="1.7669970">
        <ele>1574.4</ele>
        <time>2015-08-12T18:32:06Z</time>
      </trkpt>
      <trkpt lat="42.3205290" lon="1.7669430">
        <ele>1575.9</ele>
        <time>2015-08-12T18:32:09Z</time>
      </trkpt>
      <trkpt lat="42.3205030" lon="1.7669170">
        <ele>1577.0</ele>
        <time>2015-08-12T18:32:12Z</time>
      </trkpt>
      <trkpt lat="42.3204720" lon="1.7668920">
        <ele>1578.1</ele>
        <time>2015-08-12T18:32:15Z</time>
      </trkpt>
      <trkpt lat="42.3204390" lon="1.7668720">
        <ele>1579.2</ele>
        <time>2015-08-12T18:32:18Z</time>
      </trkpt>
      <trkpt lat="42.3204080" lon="1.7668840">
        <ele>1579.5</ele>
        <time>2015-08-12T18:32:32Z</time>
      </trkpt>
      <trkpt lat="42.3203850" lon="1.7668630">
        <ele>1580.6</ele>
        <time>2015-08-12T18:32:37Z</time>
      </trkpt>
      <trkpt lat="42.3203590" lon="1.7668800">
        <ele>1581.0</ele>
        <time>2015-08-12T18:32:40Z</time>
      </trkpt>
      <trkpt lat="42.3203320" lon="1.7669190">
        <ele>1580.9</ele>
        <time>2015-08-12T18:32:43Z</time>
      </trkpt>
      <trkpt lat="42.3203120" lon="1.7669560">
        <ele>1580.8</ele>
        <time>2015-08-12T18:32:46Z</time>
      </trkpt>
      <trkpt lat="42.3202860" lon="1.7669430">
        <ele>1581.8</ele>
        <time>2015-08-12T18:33:25Z</time>
      </trkpt>
      <trkpt lat="42.3202640" lon="1.7669650">
        <ele>1582.0</ele>
        <time>2015-08-12T18:33:30Z</time>
      </trkpt>
      <trkpt lat="42.3202330" lon="1.7669580">
        <ele>1583.0</ele>
        <time>2015-08-12T18:33:35Z</time>
      </trkpt>
      <trkpt lat="42.3202040" lon="1.7669760">
        <ele>1583.5</ele>
        <time>2015-08-12T18:33:40Z</time>
      </trkpt>
      <trkpt lat="42.3201720" lon="1.7669910">
        <ele>1584.1</ele>
        <time>2015-08-12T18:33:45Z</time>
      </trkpt>
      <trkpt lat="42.3201460" lon="1.7670170">
        <ele>1584.4</ele>
        <time>2015-08-12T18:34:09Z</time>
      </trkpt>
      <trkpt lat="42.3201250" lon="1.7670410">
        <ele>1584.5</ele>
        <time>2015-08-12T18:34:13Z</time>
      </trkpt>
      <trkpt lat="42.3201260" lon="1.7670020">
        <ele>1585.2</ele>
        <time>2015-08-12T18:34:18Z</time>
      </trkpt>
      <trkpt lat="42.3200940" lon="1.7670130">
        <ele>1586.0</ele>
        <time>2015-08-12T18:34:29Z</time>
      </trkpt>
      <trkpt lat="42.3200710" lon="1.7670400">
        <ele>1586.2</ele>
        <time>2015-08-12T18:34:32Z</time>
      </trkpt>
      <trkpt lat="42.3200430" lon="1.7670610">
        <ele>1586.6</ele>
        <time>2015-08-12T18:34:36Z</time>
      </trkpt>
      <trkpt lat="42.3200120" lon="1.7670800">
        <ele>1587.2</ele>
        <time>2015-08-12T18:34:46Z</time>
      </trkpt>
      <trkpt lat="42.3199870" lon="1.7670570">
        <ele>1588.3</ele>
        <time>2015-08-12T18:34:50Z</time>
      </trkpt>
      <trkpt lat="42.3199670" lon="1.7671050">
        <ele>1588.2</ele>
        <time>2015-08-12T18:34:59Z</time>
      </trkpt>
      <trkpt lat="42.3199530" lon="1.7671500">
        <ele>1588.0</ele>
        <time>2015-08-12T18:35:02Z</time>
      </trkpt>
      <trkpt lat="42.3199600" lon="1.7671900">
        <ele>1587.2</ele>
        <time>2015-08-12T18:35:05Z</time>
      </trkpt>
      <trkpt lat="42.3199310" lon="1.7671820">
        <ele>1588.2</ele>
        <time>2015-08-12T18:35:08Z</time>
      </trkpt>
      <trkpt lat="42.3199020" lon="1.7671820">
        <ele>1589.0</ele>
        <time>2015-08-12T18:35:20Z</time>
      </trkpt>
      <trkpt lat="42.3198730" lon="1.7671740">
        <ele>1590.0</ele>
        <time>2015-08-12T18:35:31Z</time>
      </trkpt>
      <trkpt lat="42.3198470" lon="1.7671820">
        <ele>1590.7</ele>
        <time>2015-08-12T18:35:36Z</time>
      </trkpt>
      <trkpt lat="42.3198180" lon="1.7671790">
        <ele>1591.6</ele>
        <time>2015-08-12T18:35:42Z</time>
      </trkpt>
      <trkpt lat="42.3197700" lon="1.7672210">
        <ele>1592.4</ele>
        <time>2015-08-12T18:35:49Z</time>
      </trkpt>
      <trkpt lat="42.3197450" lon="1.7672220">
        <ele>1593.1</ele>
        <time>2015-08-12T18:35:56Z</time>
      </trkpt>
      <trkpt lat="42.3197200" lon="1.7672230">
        <ele>1593.8</ele>
        <time>2015-08-12T18:36:27Z</time>
      </trkpt>
      <trkpt lat="42.3196950" lon="1.7672240">
        <ele>1594.5</ele>
        <time>2015-08-12T18:36:58Z</time>
      </trkpt>
      <trkpt lat="42.3196700" lon="1.7672250">
        <ele>1595.2</ele>
        <time>2015-08-12T18:37:00Z</time>
      </trkpt>
      <trkpt lat="42.3196450" lon="1.7672260">
        <ele>1596.0</ele>
        <time>2015-08-12T18:37:07Z</time>
      </trkpt>
      <trkpt lat="42.3196200" lon="1.7672270">
        <ele>1596.7</ele>
        <time>2015-08-12T18:37:41Z</time>
      </trkpt>
      <trkpt lat="42.3195950" lon="1.7672280">
        <ele>1597.4</ele>
        <time>2015-08-12T18:37:42Z</time>
      </trkpt>
      <trkpt lat="42.3195690" lon="1.7672460">
        <ele>1598.0</ele>
        <time>2015-08-12T18:37:44Z</time>
      </trkpt>
      <trkpt lat="42.3195440" lon="1.7672160">
        <ele>1599.5</ele>
        <time>2015-08-12T18:37:52Z</time>
      </trkpt>
      <trkpt lat="42.3195180" lon="1.7672350">
        <ele>1600.3</ele>
        <time>2015-08-12T18:37:56Z</time>
      </trkpt>
      <trkpt lat="42.3194840" lon="1.7672370">
        <ele>1601.6</ele>
        <time>2015-08-12T18:38:11Z</time>
      </trkpt>
      <trkpt lat="42.3194490" lon="1.7672630">
        <ele>1602.6</ele>
        <time>2015-08-12T18:38:13Z</time>
      </trkpt>
      <trkpt lat="42.3194220" lon="1.7672700">
        <ele>1603.6</ele>
        <time>2015-08-12T18:38:14Z</time>
      </trkpt>
      <trkpt lat="42.3193910" lon="1.7672520">
        <ele>1605.2</ele>
        <time>2015-08-12T18:38:17Z</time>
      </trkpt>
      <trkpt lat="42.3193590" lon="1.7672350">
        <ele>1606.7</ele>
        <time>2015-08-12T18:38:20Z</time>
      </trkpt>
      <trkpt lat="42.3193360" lon="1.7671970">
        <ele>1608.3</ele>
        <time>2015-08-12T18:38:22Z</time>
      </trkpt>
      <trkpt lat="42.3192990" lon="1.7672070">
        <ele>1609.6</ele>
        <time>2015-08-12T18:38:52Z</time>
      </trkpt>
      <trkpt lat="42.3192800" lon="1.7672350">
        <ele>1609.9</ele>
        <time>2015-08-12T18:38:55Z</time>
      </trkpt>
      <trkpt lat="42.3193190" lon="1.7672160">
        <ele>1608.7</ele>
        <time>2015-08-12T18:39:02Z</time>
      </trkpt>
      <trkpt lat="42.3192740" lon="1.7672090">
        <ele>1610.6</ele>
        <time>2015-08-12T18:39:06Z</time>
      </trkpt>
      <trkpt lat="42.3192460" lon="1.7672330">
        <ele>1611.4</ele>
        <time>2015-08-12T18:39:10Z</time>
      </trkpt>
      <trkpt lat="42.3192190" lon="1.7672320">
        <ele>1612.5</ele>
        <time>2015-08-12T18:39:23Z</time>
      </trkpt>
      <trkpt lat="42.3191900" lon="1.7672430">
        <ele>1613.5</ele>
        <time>2015-08-12T18:39:43Z</time>
      </trkpt>
      <trkpt lat="42.3191620" lon="1.7672350">
        <ele>1614.7</ele>
        <time>2015-08-12T18:39:54Z</time>
      </trkpt>
      <trkpt lat="42.3191270" lon="1.7672440">
        <ele>1616.0</ele>
        <time>2015-08-12T18:40:03Z</time>
      </trkpt>
      <trkpt lat="42.3190960" lon="1.7672250">
        <ele>1617.6</ele>
        <time>2015-08-12T18:40:08Z</time>
      </trkpt>
      <trkpt lat="42.3190720" lon="1.7671880">
        <ele>1619.2</ele>
        <time>2015-08-12T18:40:10Z</time>
      </trkpt>
      <trkpt lat="42.3190410" lon="1.7671820">
        <ele>1620.5</ele>
        <time>2015-08-12T18:40:13Z</time>
      </trkpt>
      <trkpt lat="42.3190120" lon="1.7671620">
        <ele>1622.0</ele>
        <time>2015-08-12T18:40:17Z</time>
      </trkpt>
      <trkpt lat="42.3190110" lon="1.7672000">
        <ele>1621.4</ele>
        <time>2015-08-12T18:40:32Z</time>
      </trkpt>
      <trkpt lat="42.3189790" lon="1.7672290">
        <ele>1622.3</ele>
        <time>2015-08-12T18:40:51Z</time>
      </trkpt>
      <trkpt lat="42.3189610" lon="1.7672580">
        <ele>1622.5</ele>
        <time>2015-08-12T18:40:53Z</time>
      </trkpt>
      <trkpt lat="42.3189510" lon="1.7672930">
        <ele>1622.3</ele>
        <time>2015-08-12T18:40:54Z</time>
      </trkpt>
      <trkpt lat="42.3189200" lon="1.7672900">
        <ele>1623.6</ele>
        <time>2015-08-12T18:41:03Z</time>
      </trkpt>
      <trkpt lat="42.3189080" lon="1.7673250">
        <ele>1623.5</ele>
        <time>2015-08-12T18:41:08Z</time>
      </trkpt>
      <trkpt lat="42.3188730" lon="1.7673100">
        <ele>1625.2</ele>
        <time>2015-08-12T18:41:11Z</time>
      </trkpt>
      <trkpt lat="42.3188600" lon="1.7673430">
        <ele>1625.2</ele>
        <time>2015-08-12T18:41:17Z</time>
      </trkpt>
      <trkpt lat="42.3188360" lon="1.7673190">
        <ele>1626.6</ele>
        <time>2015-08-12T18:41:31Z</time>
      </trkpt>
      <trkpt lat="42.3188090" lon="1.7673420">
        <ele>1627.3</ele>
        <time>2015-08-12T18:41:36Z</time>
      </trkpt>
      <trkpt lat="42.3187820" lon="1.7673810">
        <ele>1627.7</ele>
        <time>2015-08-12T18:41:47Z</time>
      </trkpt>
      <trkpt lat="42.3187740" lon="1.7674170">
        <ele>1627.4</ele>
        <time>2015-08-12T18:41:49Z</time>
      </trkpt>
      <trkpt lat="42.3187440" lon="1.7673970">
        <ele>1628.9</ele>
        <time>2015-08-12T18:42:21Z</time>
      </trkpt>
      <trkpt lat="42.3187170" lon="1.7673740">
        <ele>1630.2</ele>
        <time>2015-08-12T18:42:23Z</time>
      </trkpt>
      <trkpt lat="42.3187470" lon="1.7673710">
        <ele>1629.3</ele>
        <time>2015-08-12T18:42:32Z</time>
      </trkpt>
      <trkpt lat="42.3187050" lon="1.7673760">
        <ele>1630.6</ele>
        <time>2015-08-12T18:42:43Z</time>
      </trkpt>
      <trkpt lat="42.3186720" lon="1.7673730">
        <ele>1631.8</ele>
        <time>2015-08-12T18:42:53Z</time>
      </trkpt>
      <trkpt lat="42.3186350" lon="1.7673680">
        <ele>1633.1</ele>
        <time>2015-08-12T18:42:55Z</time>
      </trkpt>
      <trkpt lat="42.3186080" lon="1.7673840">
        <ele>1633.7</ele>
        <time>2015-08-12T18:42:57Z</time>
      </trkpt>
      <trkpt lat="42.3185810" lon="1.7673940">
        <ele>1634.5</ele>
        <time>2015-08-12T18:43:08Z</time>
      </trkpt>
      <trkpt lat="42.3185490" lon="1.7673800">
        <ele>1635.8</ele>
        <time>2015-08-12T18:43:24Z</time>
      </trkpt>
      <trkpt lat="42.3185290" lon="1.7674060">
        <ele>1636.1</ele>
        <time>2015-08-12T18:43:25Z</time>
      </trkpt>
      <trkpt lat="42.3185010" lon="1.7673820">
        <ele>1637.4</ele>
        <time>2015-08-12T18:43:34Z</time>
      </trkpt>
      <trkpt lat="42.3185080" lon="1.7673410">
        <ele>1637.8</ele>
        <time>2015-08-12T18:43:46Z</time>
      </trkpt>
      <trkpt lat="42.3184790" lon="1.7673680">
        <ele>1638.3</ele>
        <time>2015-08-12T18:43:53Z</time>
      </trkpt>
      <trkpt lat="42.3184500" lon="1.7673720">
        <ele>1639.3</ele>
        <time>2015-08-12T18:43:56Z</time>
      </trkpt>
      <trkpt lat="42.3184130" lon="1.7673820">
        <ele>1640.4</ele>
        <time>2015-08-12T18:44:02Z</time>
      </trkpt>
      <trkpt lat="42.3183750" lon="1.7674220">
        <ele>1641.1</ele>
        <time>2015-08-12T18:44:05Z</time>
      </trkpt>
      <trkpt lat="42.3183370" lon="1.7674300">
        <ele>1642.3</ele>
        <time>2015-08-12T18:44:07Z</time>
      </trkpt>
      <trkpt lat="42.3183020" lon="1.7674510">
        <ele>1643.2</ele>
        <time>2015-08-12T18:44:12Z</time>
      </trkpt>
      <trkpt lat="42.3182800" lon="1.7674320">
        <ele>1644.2</ele>
        <time>2015-08-12T18:44:15Z</time>
      </trkpt>
      <trkpt lat="42.3182590" lon="1.7674130">
        <ele>1645.2</ele>
        <time>2015-08-12T18:44:27Z</time>
      </trkpt>
      <trkpt lat="42.3182370" lon="1.7673930">
        <ele>1646.2</ele>
        <time>2015-08-12T18:44:38Z</time>
      </trkpt>
      <trkpt lat="42.3182150" lon="1.7673740">
        <ele>1647.2</ele>
        <time>2015-08-12T18:44:59Z</time>
      </trkpt>
      <trkpt lat="42.3181930" lon="1.7673550">
        <ele>1648.1</ele>
        <time>2015-08-12T18:45:07Z</time>
      </trkpt>
      <trkpt lat="42.3181720" lon="1.7673360">
        <ele>1649.1</ele>
        <time>2015-08-12T18:45:11Z</time>
      </trkpt>
      <trkpt lat="42.3181500" lon="1.7673170">
        <ele>1650.0</ele>
        <time>2015-08-12T18:45:17Z</time>
      </trkpt>
      <trkpt lat="42.3181280" lon="1.7672980">
        <ele>1651.0</ele>
        <time>2015-08-12T18:45:19Z</time>
      </trkpt>
      <trkpt lat="42.3181060" lon="1.7672780">
        <ele>1651.9</ele>
        <time>2015-08-12T18:45:38Z</time>
      </trkpt>
      <trkpt lat="42.3180850" lon="1.7672590">
        <ele>1652.8</ele>
        <time>2015-08-12T18:45:48Z</time>
      </trkpt>
      <trkpt lat="42.3180630" lon="1.7672400">
        <ele>1653.7</ele>
        <time>2015-08-12T18:46:38Z</time>
      </trkpt>
      <trkpt lat="42.3180410" lon="1.7672210">
        <ele>1654.7</ele>
        <time>2015-08-12T18:46:39Z</time>
      </trkpt>
      <trkpt lat="42.3180280" lon="1.7671660">
        <ele>1655.7</ele>
        <time>2015-08-12T18:46:44Z</time>
      </trkpt>
      <trkpt lat="42.3180540" lon="1.7671810">
        <ele>1654.7</ele>
        <time>2015-08-12T18:47:05Z</time>
      </trkpt>
      <trkpt lat="42.3180480" lon="1.7672170">
        <ele>1654.5</ele>
        <time>2015-08-12T18:47:18Z</time>
      </trkpt>
      <trkpt lat="42.3180710" lon="1.7672360">
        <ele>1653.5</ele>
        <time>2015-08-12T18:51:41Z</time>
      </trkpt>
      <trkpt lat="42.3180930" lon="1.7672730">
        <ele>1652.4</ele>
        <time>2015-08-12T18:52:38Z</time>
      </trkpt>
      <trkpt lat="42.3180560" lon="1.7672600">
        <ele>1653.7</ele>
        <time>2015-08-12T18:54:46Z</time>
      </trkpt>
      <trkpt lat="42.3180590" lon="1.7672180">
        <ele>1654.1</ele>
        <time>2015-08-12T18:54:47Z</time>
      </trkpt>
      <trkpt lat="42.3180550" lon="1.7671770">
        <ele>1654.7</ele>
        <time>2015-08-12T18:54:48Z</time>
      </trkpt>
      <trkpt lat="42.3180780" lon="1.7671370">
        <ele>1654.4</ele>
        <time>2015-08-12T18:54:55Z</time>
      </trkpt>
      <trkpt lat="42.3180340" lon="1.7671080">
        <ele>1656.1</ele>
        <time>2015-08-12T18:54:58Z</time>
      </trkpt>
      <trkpt lat="42.3180150" lon="1.7670770">
        <ele>1657.0</ele>
        <time>2015-08-12T18:55:06Z</time>
      </trkpt>
      <trkpt lat="42.3180240" lon="1.7670420">
        <ele>1657.0</ele>
        <time>2015-08-12T18:55:14Z</time>
      </trkpt>
      <trkpt lat="42.3180450" lon="1.7670120">
        <ele>1656.5</ele>
        <time>2015-08-12T18:55:25Z</time>
      </trkpt>
      <trkpt lat="42.3180210" lon="1.7670390">
        <ele>1657.1</ele>
        <time>2015-08-12T18:55:36Z</time>
      </trkpt>
      <trkpt lat="42.3180060" lon="1.7670020">
        <ele>1657.8</ele>
        <time>2015-08-12T18:55:39Z</time>
      </trkpt>
      <trkpt lat="42.3180240" lon="1.7669700">
        <ele>1657.5</ele>
        <time>2015-08-12T18:55:40Z</time>
      </trkpt>
      <trkpt lat="42.3180500" lon="1.7669530">
        <ele>1656.8</ele>
        <time>2015-08-12T18:55:42Z</time>
      </trkpt>
      <trkpt lat="42.3180760" lon="1.7669260">
        <ele>1656.2</ele>
        <time>2015-08-12T18:55:45Z</time>
      </trkpt>
      <trkpt lat="42.3181170" lon="1.7668750">
        <ele>1655.4</ele>
        <time>2015-08-12T18:55:47Z</time>
      </trkpt>
      <trkpt lat="42.3181440" lon="1.7668590">
        <ele>1654.7</ele>
        <time>2015-08-12T18:55:49Z</time>
      </trkpt>
      <trkpt lat="42.3181690" lon="1.7668400">
        <ele>1654.1</ele>
        <time>2015-08-12T18:55:51Z</time>
      </trkpt>
      <trkpt lat="42.3181600" lon="1.7667920">
        <ele>1654.7</ele>
        <time>2015-08-12T18:55:55Z</time>
      </trkpt>
      <trkpt lat="42.3181470" lon="1.7667590">
        <ele>1655.4</ele>
        <time>2015-08-12T18:56:03Z</time>
      </trkpt>
      <trkpt lat="42.3181740" lon="1.7667200">
        <ele>1654.9</ele>
        <time>2015-08-12T18:56:32Z</time>
      </trkpt>
      <trkpt lat="42.3181480" lon="1.7666430">
        <ele>1656.2</ele>
        <time>2015-08-12T18:56:34Z</time>
      </trkpt>
      <trkpt lat="42.3181600" lon="1.7665920">
        <ele>1656.3</ele>
        <time>2015-08-12T18:56:39Z</time>
      </trkpt>
      <trkpt lat="42.3181520" lon="1.7665180">
        <ele>1657.1</ele>
        <time>2015-08-12T18:56:42Z</time>
      </trkpt>
      <trkpt lat="42.3181490" lon="1.7664690">
        <ele>1657.6</ele>
        <time>2015-08-12T18:56:45Z</time>
      </trkpt>
      <trkpt lat="42.3181550" lon="1.7664090">
        <ele>1657.9</ele>
        <time>2015-08-12T18:56:48Z</time>
      </trkpt>
      <trkpt lat="42.3181420" lon="1.7663700">
        <ele>1658.6</ele>
        <time>2015-08-12T18:56:50Z</time>
      </trkpt>
      <trkpt lat="42.3181470" lon="1.7663190">
        <ele>1658.8</ele>
        <time>2015-08-12T18:56:53Z</time>
      </trkpt>
      <trkpt lat="42.3181550" lon="1.7662710">
        <ele>1659.0</ele>
        <time>2015-08-12T18:56:56Z</time>
      </trkpt>
      <trkpt lat="42.3181610" lon="1.7662280">
        <ele>1659.2</ele>
        <time>2015-08-12T18:56:58Z</time>
      </trkpt>
      <trkpt lat="42.3181450" lon="1.7661910">
        <ele>1660.2</ele>
        <time>2015-08-12T18:57:00Z</time>
      </trkpt>
      <trkpt lat="42.3181150" lon="1.7661360">
        <ele>1661.7</ele>
        <time>2015-08-12T18:57:03Z</time>
      </trkpt>
      <trkpt lat="42.3180960" lon="1.7660900">
        <ele>1662.8</ele>
        <time>2015-08-12T18:57:06Z</time>
      </trkpt>
      <trkpt lat="42.3180760" lon="1.7660490">
        <ele>1663.9</ele>
        <time>2015-08-12T18:57:08Z</time>
      </trkpt>
      <trkpt lat="42.3181020" lon="1.7660110">
        <ele>1663.7</ele>
        <time>2015-08-12T18:57:10Z</time>
      </trkpt>
      <trkpt lat="42.3181150" lon="1.7659570">
        <ele>1664.0</ele>
        <time>2015-08-12T18:57:12Z</time>
      </trkpt>
      <trkpt lat="42.3181270" lon="1.7659010">
        <ele>1664.3</ele>
        <time>2015-08-12T18:57:14Z</time>
      </trkpt>
      <trkpt lat="42.3181480" lon="1.7658620">
        <ele>1664.3</ele>
        <time>2015-08-12T18:57:16Z</time>
      </trkpt>
      <trkpt lat="42.3181810" lon="1.7658530">
        <ele>1663.5</ele>
        <time>2015-08-12T18:57:19Z</time>
      </trkpt>
      <trkpt lat="42.3182110" lon="1.7658200">
        <ele>1663.0</ele>
        <time>2015-08-12T18:57:22Z</time>
      </trkpt>
      <trkpt lat="42.3182050" lon="1.7657710">
        <ele>1663.8</ele>
        <time>2015-08-12T18:57:23Z</time>
      </trkpt>
      <trkpt lat="42.3182320" lon="1.7657430">
        <ele>1663.5</ele>
        <time>2015-08-12T18:57:25Z</time>
      </trkpt>
      <trkpt lat="42.3182410" lon="1.7656880">
        <ele>1663.9</ele>
        <time>2015-08-12T18:57:27Z</time>
      </trkpt>
      <trkpt lat="42.3182580" lon="1.7656430">
        <ele>1664.1</ele>
        <time>2015-08-12T18:57:29Z</time>
      </trkpt>
      <trkpt lat="42.3182630" lon="1.7655880">
        <ele>1664.6</ele>
        <time>2015-08-12T18:57:31Z</time>
      </trkpt>
      <trkpt lat="42.3182460" lon="1.7655570">
        <ele>1665.5</ele>
        <time>2015-08-12T18:57:32Z</time>
      </trkpt>
      <trkpt lat="42.3182380" lon="1.7655040">
        <ele>1666.4</ele>
        <time>2015-08-12T18:57:34Z</time>
      </trkpt>
      <trkpt lat="42.3182620" lon="1.7654840">
        <ele>1666.0</ele>
        <time>2015-08-12T18:57:38Z</time>
      </trkpt>
      <trkpt lat="42.3182880" lon="1.7654620">
        <ele>1665.6</ele>
        <time>2015-08-12T18:58:00Z</time>
      </trkpt>
      <trkpt lat="42.3182950" lon="1.7654180">
        <ele>1666.0</ele>
        <time>2015-08-12T18:58:05Z</time>
      </trkpt>
      <trkpt lat="42.3182880" lon="1.7653640">
        <ele>1666.5</ele>
        <time>2015-08-12T18:58:09Z</time>
      </trkpt>
      <trkpt lat="42.3182760" lon="1.7653280">
        <ele>1667.0</ele>
        <time>2015-08-12T18:58:26Z</time>
      </trkpt>
      <trkpt lat="42.3182800" lon="1.7652880">
        <ele>1667.2</ele>
        <time>2015-08-12T18:58:39Z</time>
      </trkpt>
      <trkpt lat="42.3182800" lon="1.7652510">
        <ele>1667.4</ele>
        <time>2015-08-12T18:59:02Z</time>
      </trkpt>
      <trkpt lat="42.3182860" lon="1.7652100">
        <ele>1667.5</ele>
        <time>2015-08-12T18:59:17Z</time>
      </trkpt>
      <trkpt lat="42.3182810" lon="1.7651720">
        <ele>1667.8</ele>
        <time>2015-08-12T18:59:21Z</time>
      </trkpt>
      <trkpt lat="42.3182730" lon="1.7651310">
        <ele>1668.2</ele>
        <time>2015-08-12T18:59:26Z</time>
      </trkpt>
      <trkpt lat="42.3182730" lon="1.7650920">
        <ele>1668.4</ele>
        <time>2015-08-12T18:59:32Z</time>
      </trkpt>
      <trkpt lat="42.3183040" lon="1.7650750">
        <ele>1668.0</ele>
        <time>2015-08-12T18:59:35Z</time>
      </trkpt>
      <trkpt lat="42.3183000" lon="1.7650360">
        <ele>1668.3</ele>
        <time>2015-08-12T18:59:39Z</time>
      </trkpt>
      <trkpt lat="42.3183170" lon="1.7650050">
        <ele>1668.2</ele>
        <time>2015-08-12T18:59:49Z</time>
      </trkpt>
      <trkpt lat="42.3182970" lon="1.7649630">
        <ele>1668.8</ele>
        <time>2015-08-12T18:59:52Z</time>
      </trkpt>
      <trkpt lat="42.3183220" lon="1.7649240">
        <ele>1668.7</ele>
        <time>2015-08-12T18:59:55Z</time>
      </trkpt>
      <trkpt lat="42.3183320" lon="1.7648850">
        <ele>1668.8</ele>
        <time>2015-08-12T18:59:57Z</time>
      </trkpt>
      <trkpt lat="42.3183360" lon="1.7648440">
        <ele>1669.1</ele>
        <time>2015-08-12T18:59:59Z</time>
      </trkpt>
      <trkpt lat="42.3183440" lon="1.7648030">
        <ele>1669.3</ele>
        <time>2015-08-12T19:00:01Z</time>
      </trkpt>
      <trkpt lat="42.3183380" lon="1.7647580">
        <ele>1669.7</ele>
        <time>2015-08-12T19:00:04Z</time>
      </trkpt>
      <trkpt lat="42.3183470" lon="1.7647160">
        <ele>1669.9</ele>
        <time>2015-08-12T19:00:07Z</time>
      </trkpt>
      <trkpt lat="42.3183420" lon="1.7646660">
        <ele>1670.3</ele>
        <time>2015-08-12T19:00:10Z</time>
      </trkpt>
      <trkpt lat="42.3183490" lon="1.7646240">
        <ele>1670.6</ele>
        <time>2015-08-12T19:00:16Z</time>
      </trkpt>
      <trkpt lat="42.3183590" lon="1.7645790">
        <ele>1670.7</ele>
        <time>2015-08-12T19:00:20Z</time>
      </trkpt>
      <trkpt lat="42.3183760" lon="1.7645490">
        <ele>1669.8</ele>
        <time>2015-08-12T19:00:22Z</time>
      </trkpt>
      <trkpt lat="42.3183950" lon="1.7645230">
        <ele>1668.9</ele>
        <time>2015-08-12T19:00:39Z</time>
      </trkpt>
      <trkpt lat="42.3183960" lon="1.7644850">
        <ele>1667.8</ele>
        <time>2015-08-12T19:00:45Z</time>
      </trkpt>
      <trkpt lat="42.3183950" lon="1.7644380">
        <ele>1666.4</ele>
        <time>2015-08-12T19:00:48Z</time>
      </trkpt>
      <trkpt lat="42.3183840" lon="1.7644020">
        <ele>1665.3</ele>
        <time>2015-08-12T19:01:04Z</time>
      </trkpt>
      <trkpt lat="42.3183970" lon="1.7643530">
        <ele>1663.9</ele>
        <time>2015-08-12T19:01:10Z</time>
      </trkpt>
      <trkpt lat="42.3184190" lon="1.7643210">
        <ele>1663.0</ele>
        <time>2015-08-12T19:01:18Z</time>
      </trkpt>
      <trkpt lat="42.3183930" lon="1.7642920">
        <ele>1662.1</ele>
        <time>2015-08-12T19:01:21Z</time>
      </trkpt>
      <trkpt lat="42.3183950" lon="1.7642510">
        <ele>1660.9</ele>
        <time>2015-08-12T19:01:43Z</time>
      </trkpt>
      <trkpt lat="42.3184010" lon="1.7642080">
        <ele>1659.6</ele>
        <time>2015-08-12T19:01:52Z</time>
      </trkpt>
      <trkpt lat="42.3183910" lon="1.7641680">
        <ele>1658.4</ele>
        <time>2015-08-12T19:01:57Z</time>
      </trkpt>
      <trkpt lat="42.3183980" lon="1.7641320">
        <ele>1657.4</ele>
        <time>2015-08-12T19:02:04Z</time>
      </trkpt>
      <trkpt lat="42.3183970" lon="1.7640950">
        <ele>1656.3</ele>
        <time>2015-08-12T19:02:09Z</time>
      </trkpt>
      <trkpt lat="42.3183660" lon="1.7640760">
        <ele>1655.4</ele>
        <time>2015-08-12T19:02:28Z</time>
      </trkpt>
      <trkpt lat="42.3183440" lon="1.7640480">
        <ele>1654.4</ele>
        <time>2015-08-12T19:02:32Z</time>
      </trkpt>
      <trkpt lat="42.3183160" lon="1.7640430">
        <ele>1654.0</ele>
        <time>2015-08-12T19:02:38Z</time>
      </trkpt>
      <trkpt lat="42.3182910" lon="1.7640180">
        <ele>1652.9</ele>
        <time>2015-08-12T19:02:51Z</time>
      </trkpt>
      <trkpt lat="42.3182630" lon="1.7640090">
        <ele>1652.4</ele>
        <time>2015-08-12T19:02:53Z</time>
      </trkpt>
      <trkpt lat="42.3182300" lon="1.7640090">
        <ele>1652.0</ele>
        <time>2015-08-12T19:02:56Z</time>
      </trkpt>
      <trkpt lat="42.3181920" lon="1.7639800">
        <ele>1650.6</ele>
        <time>2015-08-12T19:02:57Z</time>
      </trkpt>
      <trkpt lat="42.3181620" lon="1.7639790">
        <ele>1650.3</ele>
        <time>2015-08-12T19:02:58Z</time>
      </trkpt>
      <trkpt lat="42.3181350" lon="1.7639720">
        <ele>1649.7</ele>
        <time>2015-08-12T19:02:59Z</time>
      </trkpt>
      <trkpt lat="42.3181080" lon="1.7639670">
        <ele>1649.3</ele>
        <time>2015-08-12T19:03:00Z</time>
      </trkpt>
      <trkpt lat="42.3180740" lon="1.7639750">
        <ele>1649.2</ele>
        <time>2015-08-12T19:03:01Z</time>
      </trkpt>
      <trkpt lat="42.3180430" lon="1.7639810">
        <ele>1649.1</ele>
        <time>2015-08-12T19:03:02Z</time>
      </trkpt>
      <trkpt lat="42.3180140" lon="1.7639790">
        <ele>1648.7</ele>
        <time>2015-08-12T19:03:04Z</time>
      </trkpt>
      <trkpt lat="42.3179690" lon="1.7639770">
        <ele>1648.1</ele>
        <time>2015-08-12T19:03:06Z</time>
      </trkpt>
      <trkpt lat="42.3179360" lon="1.7639950">
        <ele>1648.5</ele>
        <time>2015-08-12T19:03:09Z</time>
      </trkpt>
      <trkpt lat="42.3178990" lon="1.7639800">
        <ele>1647.4</ele>
        <time>2015-08-12T19:03:12Z</time>
      </trkpt>
      <trkpt lat="42.3178720" lon="1.7639600">
        <ele>1646.1</ele>
        <time>2015-08-12T19:03:14Z</time>
      </trkpt>
      <trkpt lat="42.3178450" lon="1.7639770">
        <ele>1646.5</ele>
        <time>2015-08-12T19:03:17Z</time>
      </trkpt>
      <trkpt lat="42.3177820" lon="1.7639770">
        <ele>1645.5</ele>
        <time>2015-08-12T19:03:20Z</time>
      </trkpt>
      <trkpt lat="42.3177360" lon="1.7639830">
        <ele>1645.1</ele>
        <time>2015-08-12T19:03:22Z</time>
      </trkpt>
      <trkpt lat="42.3177050" lon="1.7639900">
        <ele>1645.0</ele>
        <time>2015-08-12T19:03:23Z</time>
      </trkpt>
      <trkpt lat="42.3176820" lon="1.7640080">
        <ele>1645.5</ele>
        <time>2015-08-12T19:03:24Z</time>
      </trkpt>
      <trkpt lat="42.3176370" lon="1.7640110">
        <ele>1645.0</ele>
        <time>2015-08-12T19:03:26Z</time>
      </trkpt>
      <trkpt lat="42.3175940" lon="1.7639990">
        <ele>1643.8</ele>
        <time>2015-08-12T19:03:28Z</time>
      </trkpt>
      <trkpt lat="42.3175890" lon="1.7639630">
        <ele>1642.0</ele>
        <time>2015-08-12T19:03:29Z</time>
      </trkpt>
      <trkpt lat="42.3175620" lon="1.7639370">
        <ele>1640.2</ele>
        <time>2015-08-12T19:03:31Z</time>
      </trkpt>
      <trkpt lat="42.3175330" lon="1.7639380">
        <ele>1639.8</ele>
        <time>2015-08-12T19:03:33Z</time>
      </trkpt>
      <trkpt lat="42.3174910" lon="1.7639550">
        <ele>1640.1</ele>
        <time>2015-08-12T19:03:35Z</time>
      </trkpt>
      <trkpt lat="42.3174520" lon="1.7639880">
        <ele>1641.2</ele>
        <time>2015-08-12T19:03:37Z</time>
      </trkpt>
      <trkpt lat="42.3174370" lon="1.7640270">
        <ele>1643.1</ele>
        <time>2015-08-12T19:03:40Z</time>
      </trkpt>
      <trkpt lat="42.3174060" lon="1.7640410">
        <ele>1643.4</ele>
        <time>2015-08-12T19:03:42Z</time>
      </trkpt>
      <trkpt lat="42.3173810" lon="1.7640230">
        <ele>1642.1</ele>
        <time>2015-08-12T19:03:45Z</time>
      </trkpt>
      <trkpt lat="42.3173530" lon="1.7640510">
        <ele>1643.3</ele>
        <time>2015-08-12T19:03:46Z</time>
      </trkpt>
      <trkpt lat="42.3172850" lon="1.7640610">
        <ele>1643.0</ele>
        <time>2015-08-12T19:03:47Z</time>
      </trkpt>
      <trkpt lat="42.3172500" lon="1.7640940">
        <ele>1644.5</ele>
        <time>2015-08-12T19:03:48Z</time>
      </trkpt>
      <trkpt lat="42.3172170" lon="1.7641150">
        <ele>1645.3</ele>
        <time>2015-08-12T19:03:49Z</time>
      </trkpt>
      <trkpt lat="42.3171820" lon="1.7641060">
        <ele>1644.4</ele>
        <time>2015-08-12T19:03:50Z</time>
      </trkpt>
      <trkpt lat="42.3171280" lon="1.7641070">
        <ele>1643.8</ele>
        <time>2015-08-12T19:03:51Z</time>
      </trkpt>
      <trkpt lat="42.3170680" lon="1.7641020">
        <ele>1642.9</ele>
        <time>2015-08-12T19:03:52Z</time>
      </trkpt>
      <trkpt lat="42.3170010" lon="1.7640890">
        <ele>1641.6</ele>
        <time>2015-08-12T19:03:53Z</time>
      </trkpt>
      <trkpt lat="42.3169380" lon="1.7640830">
        <ele>1640.8</ele>
        <time>2015-08-12T19:03:54Z</time>
      </trkpt>
      <trkpt lat="42.3168770" lon="1.7640630">
        <ele>1639.1</ele>
        <time>2015-08-12T19:03:55Z</time>
      </trkpt>
      <trkpt lat="42.3168280" lon="1.7640390">
        <ele>1637.3</ele>
        <time>2015-08-12T19:03:56Z</time>
      </trkpt>
      <trkpt lat="42.3167430" lon="1.7640660">
        <ele>1638.4</ele>
        <time>2015-08-12T19:03:58Z</time>
      </trkpt>
      <trkpt lat="42.3166240" lon="1.7640800">
        <ele>1638.4</ele>
        <time>2015-08-12T19:04:00Z</time>
      </trkpt>
      <trkpt lat="42.3165620" lon="1.7640670">
        <ele>1637.2</ele>
        <time>2015-08-12T19:04:01Z</time>
      </trkpt>
      <trkpt lat="42.3165120" lon="1.7640520">
        <ele>1635.9</ele>
        <time>2015-08-12T19:04:02Z</time>
      </trkpt>
      <trkpt lat="42.3164540" lon="1.7640110">
        <ele>1633.0</ele>
        <time>2015-08-12T19:04:03Z</time>
      </trkpt>
      <trkpt lat="42.3163560" lon="1.7640010">
        <ele>1631.8</ele>
        <time>2015-08-12T19:04:04Z</time>
      </trkpt>
      <trkpt lat="42.3162770" lon="1.7640490">
        <ele>1634.1</ele>
        <time>2015-08-12T19:04:05Z</time>
      </trkpt>
      <trkpt lat="42.3162190" lon="1.7640410">
        <ele>1633.7</ele>
        <time>2015-08-12T19:04:06Z</time>
      </trkpt>
      <trkpt lat="42.3161730" lon="1.7640510">
        <ele>1634.7</ele>
        <time>2015-08-12T19:04:07Z</time>
      </trkpt>
      <trkpt lat="42.3161220" lon="1.7640330">
        <ele>1634.0</ele>
        <time>2015-08-12T19:04:08Z</time>
      </trkpt>
      <trkpt lat="42.3160520" lon="1.7640120">
        <ele>1633.3</ele>
        <time>2015-08-12T19:04:09Z</time>
      </trkpt>
      <trkpt lat="42.3160060" lon="1.7639880">
        <ele>1632.2</ele>
        <time>2015-08-12T19:04:10Z</time>
      </trkpt>
      <trkpt lat="42.3159430" lon="1.7639620">
        <ele>1631.1</ele>
        <time>2015-08-12T19:04:11Z</time>
      </trkpt>
      <trkpt lat="42.3159040" lon="1.7639600">
        <ele>1631.3</ele>
        <time>2015-08-12T19:04:12Z</time>
      </trkpt>
      <trkpt lat="42.3158580" lon="1.7639430">
        <ele>1630.6</ele>
        <time>2015-08-12T19:04:13Z</time>
      </trkpt>
      <trkpt lat="42.3158220" lon="1.7639550">
        <ele>1631.6</ele>
        <time>2015-08-12T19:04:14Z</time>
      </trkpt>
      <trkpt lat="42.3157590" lon="1.7639560">
        <ele>1632.2</ele>
        <time>2015-08-12T19:04:15Z</time>
      </trkpt>
      <trkpt lat="42.3157240" lon="1.7639870">
        <ele>1634.4</ele>
        <time>2015-08-12T19:04:16Z</time>
      </trkpt>
      <trkpt lat="42.3156970" lon="1.7640060">
        <ele>1635.7</ele>
        <time>2015-08-12T19:04:17Z</time>
      </trkpt>
      <trkpt lat="42.3156320" lon="1.7640370">
        <ele>1638.2</ele>
        <time>2015-08-12T19:04:19Z</time>
      </trkpt>
      <trkpt lat="42.3155960" lon="1.7640470">
        <ele>1639.1</ele>
        <time>2015-08-12T19:08:35Z</time>
      </trkpt>
      <trkpt lat="42.3155590" lon="1.7640580">
        <ele>1640.1</ele>
        <time>2015-08-12T19:09:31Z</time>
      </trkpt>
      <trkpt lat="42.3155220" lon="1.7640680">
        <ele>1641.0</ele>
        <time>2015-08-12T19:09:32Z</time>
      </trkpt>
      <trkpt lat="42.3154800" lon="1.7640650">
        <ele>1641.1</ele>
        <time>2015-08-12T19:09:33Z</time>
      </trkpt>
      <trkpt lat="42.3154440" lon="1.7640570">
        <ele>1640.9</ele>
        <time>2015-08-12T19:09:34Z</time>
      </trkpt>
      <trkpt lat="42.3154030" lon="1.7640600">
        <ele>1641.8</ele>
        <time>2015-08-12T19:09:35Z</time>
      </trkpt>
      <trkpt lat="42.3153470" lon="1.7640290">
        <ele>1641.5</ele>
        <time>2015-08-12T19:09:36Z</time>
      </trkpt>
      <trkpt lat="42.3152860" lon="1.7640000">
        <ele>1641.6</ele>
        <time>2015-08-12T19:09:37Z</time>
      </trkpt>
      <trkpt lat="42.3152350" lon="1.7639700">
        <ele>1641.4</ele>
        <time>2015-08-12T19:09:38Z</time>
      </trkpt>
      <trkpt lat="42.3151960" lon="1.7639520">
        <ele>1641.6</ele>
        <time>2015-08-12T19:09:39Z</time>
      </trkpt>
      <trkpt lat="42.3151500" lon="1.7639600">
        <ele>1643.5</ele>
        <time>2015-08-12T19:09:41Z</time>
      </trkpt>
      <trkpt lat="42.3151200" lon="1.7639560">
        <ele>1644.2</ele>
        <time>2015-08-12T19:09:42Z</time>
      </trkpt>
      <trkpt lat="42.3150750" lon="1.7639160">
        <ele>1643.4</ele>
        <time>2015-08-12T19:09:43Z</time>
      </trkpt>
      <trkpt lat="42.3150430" lon="1.7638890">
        <ele>1642.9</ele>
        <time>2015-08-12T19:09:45Z</time>
      </trkpt>
      <trkpt lat="42.3150150" lon="1.7639030">
        <ele>1644.6</ele>
        <time>2015-08-12T19:09:46Z</time>
      </trkpt>
      <trkpt lat="42.3149600" lon="1.7638960">
        <ele>1645.9</ele>
        <time>2015-08-12T19:09:48Z</time>
      </trkpt>
      <trkpt lat="42.3149320" lon="1.7638990">
        <ele>1647.0</ele>
        <time>2015-08-12T19:09:49Z</time>
      </trkpt>
      <trkpt lat="42.3148620" lon="1.7639150">
        <ele>1650.1</ele>
        <time>2015-08-12T19:09:51Z</time>
      </trkpt>
      <trkpt lat="42.3148270" lon="1.7639290">
        <ele>1652.0</ele>
        <time>2015-08-12T19:09:52Z</time>
      </trkpt>
      <trkpt lat="42.3147290" lon="1.7639470">
        <ele>1656.1</ele>
        <time>2015-08-12T19:09:54Z</time>
      </trkpt>
      <trkpt lat="42.3146830" lon="1.7639560">
        <ele>1658.0</ele>
        <time>2015-08-12T19:09:55Z</time>
      </trkpt>
      <trkpt lat="42.3146310" lon="1.7639570">
        <ele>1659.7</ele>
        <time>2015-08-12T19:09:56Z</time>
      </trkpt>
      <trkpt lat="42.3145990" lon="1.7639620">
        <ele>1660.9</ele>
        <time>2015-08-12T19:09:57Z</time>
      </trkpt>
      <trkpt lat="42.3145650" lon="1.7639230">
        <ele>1660.1</ele>
        <time>2015-08-12T19:09:58Z</time>
      </trkpt>
      <trkpt lat="42.3145330" lon="1.7638440">
        <ele>1657.3</ele>
        <time>2015-08-12T19:09:59Z</time>
      </trkpt>
      <trkpt lat="42.3144950" lon="1.7638110">
        <ele>1656.9</ele>
        <time>2015-08-12T19:10:00Z</time>
      </trkpt>
      <trkpt lat="42.3144630" lon="1.7637680">
        <ele>1655.9</ele>
        <time>2015-08-12T19:10:01Z</time>
      </trkpt>
      <trkpt lat="42.3144240" lon="1.7637700">
        <ele>1657.3</ele>
        <time>2015-08-12T19:10:02Z</time>
      </trkpt>
      <trkpt lat="42.3143880" lon="1.7637600">
        <ele>1658.0</ele>
        <time>2015-08-12T19:10:03Z</time>
      </trkpt>
      <trkpt lat="42.3143570" lon="1.7637490">
        <ele>1658.6</ele>
        <time>2015-08-12T19:10:04Z</time>
      </trkpt>
      <trkpt lat="42.3144670" lon="1.7637650">
        <ele>1655.6</ele>
        <time>2015-08-12T19:10:05Z</time>
      </trkpt>
      <trkpt lat="42.3144310" lon="1.7637340">
        <ele>1655.5</ele>
        <time>2015-08-12T19:10:07Z</time>
      </trkpt>
      <trkpt lat="42.3144040" lon="1.7637040">
        <ele>1655.4</ele>
        <time>2015-08-12T19:10:08Z</time>
      </trkpt>
      <trkpt lat="42.3143810" lon="1.7636790">
        <ele>1655.2</ele>
        <time>2015-08-12T19:10:09Z</time>
      </trkpt>
      <trkpt lat="42.3143500" lon="1.7636540">
        <ele>1655.3</ele>
        <time>2015-08-12T19:10:10Z</time>
      </trkpt>
      <trkpt lat="42.3143220" lon="1.7636210">
        <ele>1655.0</ele>
        <time>2015-08-12T19:10:11Z</time>
      </trkpt>
      <trkpt lat="42.3142850" lon="1.7636060">
        <ele>1655.6</ele>
        <time>2015-08-12T19:10:13Z</time>
      </trkpt>
      <trkpt lat="42.3142570" lon="1.7635820">
        <ele>1655.6</ele>
        <time>2015-08-12T19:10:16Z</time>
      </trkpt>
      <trkpt lat="42.3142270" lon="1.7635710">
        <ele>1656.1</ele>
        <time>2015-08-12T19:10:19Z</time>
      </trkpt>
      <trkpt lat="42.3141900" lon="1.7635300">
        <ele>1655.7</ele>
        <time>2015-08-12T19:10:21Z</time>
      </trkpt>
      <trkpt lat="42.3141640" lon="1.7634720">
        <ele>1654.2</ele>
        <time>2015-08-12T19:10:23Z</time>
      </trkpt>
      <trkpt lat="42.3141660" lon="1.7634270">
        <ele>1652.4</ele>
        <time>2015-08-12T19:10:24Z</time>
      </trkpt>
      <trkpt lat="42.3141500" lon="1.7633810">
        <ele>1651.1</ele>
        <time>2015-08-12T19:10:25Z</time>
      </trkpt>
      <trkpt lat="42.3141360" lon="1.7633470">
        <ele>1650.2</ele>
        <time>2015-08-12T19:10:26Z</time>
      </trkpt>
      <trkpt lat="42.3141130" lon="1.7633150">
        <ele>1649.5</ele>
        <time>2015-08-12T19:10:27Z</time>
      </trkpt>
      <trkpt lat="42.3141080" lon="1.7632780">
        <ele>1648.2</ele>
        <time>2015-08-12T19:10:28Z</time>
      </trkpt>
      <trkpt lat="42.3141130" lon="1.7631800">
        <ele>1644.2</ele>
        <time>2015-08-12T19:10:29Z</time>
      </trkpt>
      <trkpt lat="42.3140460" lon="1.7631570">
        <ele>1645.0</ele>
        <time>2015-08-12T19:10:30Z</time>
      </trkpt>
      <trkpt lat="42.3140100" lon="1.7630980">
        <ele>1643.5</ele>
        <time>2015-08-12T19:10:31Z</time>
      </trkpt>
      <trkpt lat="42.3139860" lon="1.7630730">
        <ele>1643.1</ele>
        <time>2015-08-12T19:10:32Z</time>
      </trkpt>
      <trkpt lat="42.3139450" lon="1.7630400">
        <ele>1642.7</ele>
        <time>2015-08-12T19:10:33Z</time>
      </trkpt>
      <trkpt lat="42.3138900" lon="1.7629760">
        <ele>1641.3</ele>
        <time>2015-08-12T19:10:35Z</time>
      </trkpt>
      <trkpt lat="42.3138750" lon="1.7629400">
        <ele>1640.1</ele>
        <time>2015-08-12T19:10:36Z</time>
      </trkpt>
      <trkpt lat="42.3138480" lon="1.7628950">
        <ele>1638.7</ele>
        <time>2015-08-12T19:10:37Z</time>
      </trkpt>
      <trkpt lat="42.3138210" lon="1.7628590">
        <ele>1637.4</ele>
        <time>2015-08-12T19:10:38Z</time>
      </trkpt>
      <trkpt lat="42.3138020" lon="1.7628190">
        <ele>1635.7</ele>
        <time>2015-08-12T19:10:39Z</time>
      </trkpt>
      <trkpt lat="42.3137720" lon="1.7628100">
        <ele>1635.8</ele>
        <time>2015-08-12T19:10:56Z</time>
      </trkpt>
      <trkpt lat="42.3137370" lon="1.7628260">
        <ele>1637.1</ele>
        <time>2015-08-12T19:10:59Z</time>
      </trkpt>
      <trkpt lat="42.3137190" lon="1.7627870">
        <ele>1634.9</ele>
        <time>2015-08-12T19:11:00Z</time>
      </trkpt>
      <trkpt lat="42.3137100" lon="1.7627510">
        <ele>1633.0</ele>
        <time>2015-08-12T19:11:05Z</time>
      </trkpt>
      <trkpt lat="42.3136840" lon="1.7627120">
        <ele>1630.8</ele>
        <time>2015-08-12T19:11:07Z</time>
      </trkpt>
      <trkpt lat="42.3136370" lon="1.7626690">
        <ele>1628.4</ele>
        <time>2015-08-12T19:11:09Z</time>
      </trkpt>
      <trkpt lat="42.3136070" lon="1.7626870">
        <ele>1629.3</ele>
        <time>2015-08-12T19:11:11Z</time>
      </trkpt>
      <trkpt lat="42.3135810" lon="1.7627070">
        <ele>1630.3</ele>
        <time>2015-08-12T19:11:13Z</time>
      </trkpt>
      <trkpt lat="42.3135520" lon="1.7627240">
        <ele>1631.2</ele>
        <time>2015-08-12T19:11:15Z</time>
      </trkpt>
      <trkpt lat="42.3135240" lon="1.7627210">
        <ele>1630.9</ele>
        <time>2015-08-12T19:11:18Z</time>
      </trkpt>
      <trkpt lat="42.3134780" lon="1.7627260">
        <ele>1631.1</ele>
        <time>2015-08-12T19:11:22Z</time>
      </trkpt>
      <trkpt lat="42.3134510" lon="1.7627330">
        <ele>1631.4</ele>
        <time>2015-08-12T19:11:23Z</time>
      </trkpt>
      <trkpt lat="42.3134040" lon="1.7627430">
        <ele>1631.8</ele>
        <time>2015-08-12T19:11:25Z</time>
      </trkpt>
      <trkpt lat="42.3133750" lon="1.7627520">
        <ele>1632.2</ele>
        <time>2015-08-12T19:11:26Z</time>
      </trkpt>
      <trkpt lat="42.3133140" lon="1.7627780">
        <ele>1633.4</ele>
        <time>2015-08-12T19:11:28Z</time>
      </trkpt>
      <trkpt lat="42.3132710" lon="1.7628660">
        <ele>1637.7</ele>
        <time>2015-08-12T19:11:29Z</time>
      </trkpt>
      <trkpt lat="42.3132430" lon="1.7628930">
        <ele>1639.0</ele>
        <time>2015-08-12T19:11:30Z</time>
      </trkpt>
      <trkpt lat="42.3132040" lon="1.7629410">
        <ele>1641.0</ele>
        <time>2015-08-12T19:11:31Z</time>
      </trkpt>
      <trkpt lat="42.3131630" lon="1.7629390">
        <ele>1640.8</ele>
        <time>2015-08-12T19:11:33Z</time>
      </trkpt>
      <trkpt lat="42.3130890" lon="1.7629360">
        <ele>1640.4</ele>
        <time>2015-08-12T19:11:35Z</time>
      </trkpt>
      <trkpt lat="42.3130600" lon="1.7629110">
        <ele>1639.2</ele>
        <time>2015-08-12T19:11:36Z</time>
      </trkpt>
      <trkpt lat="42.3130210" lon="1.7629250">
        <ele>1639.7</ele>
        <time>2015-08-12T19:11:37Z</time>
      </trkpt>
      <trkpt lat="42.3129870" lon="1.7629280">
        <ele>1639.7</ele>
        <time>2015-08-12T19:11:38Z</time>
      </trkpt>
      <trkpt lat="42.3129510" lon="1.7629280">
        <ele>1639.6</ele>
        <time>2015-08-12T19:11:40Z</time>
      </trkpt>
      <trkpt lat="42.3129000" lon="1.7629330">
        <ele>1640.1</ele>
        <time>2015-08-12T19:11:42Z</time>
      </trkpt>
      <trkpt lat="42.3128570" lon="1.7629230">
        <ele>1640.9</ele>
        <time>2015-08-12T19:11:44Z</time>
      </trkpt>
      <trkpt lat="42.3128210" lon="1.7629200">
        <ele>1641.8</ele>
        <time>2015-08-12T19:11:46Z</time>
      </trkpt>
      <trkpt lat="42.3127930" lon="1.7628970">
        <ele>1641.5</ele>
        <time>2015-08-12T19:11:47Z</time>
      </trkpt>
      <trkpt lat="42.3127400" lon="1.7628600">
        <ele>1641.1</ele>
        <time>2015-08-12T19:11:49Z</time>
      </trkpt>
      <trkpt lat="42.3126900" lon="1.7628350">
        <ele>1641.3</ele>
        <time>2015-08-12T19:11:50Z</time>
      </trkpt>
      <trkpt lat="42.3126530" lon="1.7628110">
        <ele>1641.2</ele>
        <time>2015-08-12T19:11:51Z</time>
      </trkpt>
      <trkpt lat="42.3126160" lon="1.7628070">
        <ele>1642.0</ele>
        <time>2015-08-12T19:11:52Z</time>
      </trkpt>
      <trkpt lat="42.3125720" lon="1.7628130">
        <ele>1643.5</ele>
        <time>2015-08-12T19:11:53Z</time>
      </trkpt>
      <trkpt lat="42.3125330" lon="1.7627990">
        <ele>1643.9</ele>
        <time>2015-08-12T19:11:54Z</time>
      </trkpt>
      <trkpt lat="42.3124900" lon="1.7627890">
        <ele>1644.6</ele>
        <time>2015-08-12T19:11:55Z</time>
      </trkpt>
      <trkpt lat="42.3124620" lon="1.7627610">
        <ele>1644.0</ele>
        <time>2015-08-12T19:11:56Z</time>
      </trkpt>
      <trkpt lat="42.3124330" lon="1.7627310">
        <ele>1643.3</ele>
        <time>2015-08-12T19:11:58Z</time>
      </trkpt>
      <trkpt lat="42.3124020" lon="1.7626970">
        <ele>1642.5</ele>
        <time>2015-08-12T19:12:00Z</time>
      </trkpt>
      <trkpt lat="42.3123880" lon="1.7626640">
        <ele>1641.3</ele>
        <time>2015-08-12T19:12:01Z</time>
      </trkpt>
      <trkpt lat="42.3123190" lon="1.7626020">
        <ele>1640.1</ele>
        <time>2015-08-12T19:12:03Z</time>
      </trkpt>
      <trkpt lat="42.3122860" lon="1.7625790">
        <ele>1639.9</ele>
        <time>2015-08-12T19:12:04Z</time>
      </trkpt>
      <trkpt lat="42.3122570" lon="1.7625460">
        <ele>1639.1</ele>
        <time>2015-08-12T19:12:05Z</time>
      </trkpt>
      <trkpt lat="42.3122250" lon="1.7625100">
        <ele>1638.2</ele>
        <time>2015-08-12T19:12:06Z</time>
      </trkpt>
      <trkpt lat="42.3122420" lon="1.7624780">
        <ele>1636.1</ele>
        <time>2015-08-12T19:12:08Z</time>
      </trkpt>
      <trkpt lat="42.3122210" lon="1.7624330">
        <ele>1634.5</ele>
        <time>2015-08-12T19:12:10Z</time>
      </trkpt>
      <trkpt lat="42.3122560" lon="1.7624560">
        <ele>1634.7</ele>
        <time>2015-08-12T19:12:12Z</time>
      </trkpt>
      <trkpt lat="42.3122330" lon="1.7624330">
        <ele>1634.2</ele>
        <time>2015-08-12T19:12:15Z</time>
      </trkpt>
      <trkpt lat="42.3122110" lon="1.7624110">
        <ele>1633.7</ele>
        <time>2015-08-12T19:12:16Z</time>
      </trkpt>
      <trkpt lat="42.3121920" lon="1.7623800">
        <ele>1632.7</ele>
        <time>2015-08-12T19:12:17Z</time>
      </trkpt>
      <trkpt lat="42.3121610" lon="1.7623430">
        <ele>1631.7</ele>
        <time>2015-08-12T19:12:19Z</time>
      </trkpt>
      <trkpt lat="42.3121270" lon="1.7623650">
        <ele>1633.7</ele>
        <time>2015-08-12T19:12:21Z</time>
      </trkpt>
      <trkpt lat="42.3120940" lon="1.7623340">
        <ele>1633.0</ele>
        <time>2015-08-12T19:12:24Z</time>
      </trkpt>
      <trkpt lat="42.3120610" lon="1.7623090">
        <ele>1632.6</ele>
        <time>2015-08-12T19:12:27Z</time>
      </trkpt>
      <trkpt lat="42.3120290" lon="1.7622920">
        <ele>1632.4</ele>
        <time>2015-08-12T19:12:29Z</time>
      </trkpt>
      <trkpt lat="42.3120130" lon="1.7622360">
        <ele>1630.0</ele>
        <time>2015-08-12T19:12:32Z</time>
      </trkpt>
      <trkpt lat="42.3119840" lon="1.7622240">
        <ele>1630.1</ele>
        <time>2015-08-12T19:12:34Z</time>
      </trkpt>
      <trkpt lat="42.3119430" lon="1.7622280">
        <ele>1631.1</ele>
        <time>2015-08-12T19:12:37Z</time>
      </trkpt>
      <trkpt lat="42.3119120" lon="1.7622330">
        <ele>1632.0</ele>
        <time>2015-08-12T19:12:39Z</time>
      </trkpt>
      <trkpt lat="42.3118520" lon="1.7622180">
        <ele>1632.6</ele>
        <time>2015-08-12T19:12:41Z</time>
      </trkpt>
      <trkpt lat="42.3117840" lon="1.7622280">
        <ele>1634.6</ele>
        <time>2015-08-12T19:12:43Z</time>
      </trkpt>
      <trkpt lat="42.3117420" lon="1.7622370">
        <ele>1635.8</ele>
        <time>2015-08-12T19:12:44Z</time>
      </trkpt>
      <trkpt lat="42.3117040" lon="1.7622400">
        <ele>1636.8</ele>
        <time>2015-08-12T19:12:45Z</time>
      </trkpt>
      <trkpt lat="42.3116730" lon="1.7622430">
        <ele>1637.6</ele>
        <time>2015-08-12T19:12:46Z</time>
      </trkpt>
      <trkpt lat="42.3116170" lon="1.7622470">
        <ele>1638.9</ele>
        <time>2015-08-12T19:12:47Z</time>
      </trkpt>
      <trkpt lat="42.3115850" lon="1.7622670">
        <ele>1640.4</ele>
        <time>2015-08-12T19:12:49Z</time>
      </trkpt>
      <trkpt lat="42.3115290" lon="1.7622770">
        <ele>1642.0</ele>
        <time>2015-08-12T19:12:51Z</time>
      </trkpt>
      <trkpt lat="42.3115000" lon="1.7622810">
        <ele>1642.7</ele>
        <time>2015-08-12T19:12:52Z</time>
      </trkpt>
      <trkpt lat="42.3114700" lon="1.7622660">
        <ele>1642.8</ele>
        <time>2015-08-12T19:12:53Z</time>
      </trkpt>
      <trkpt lat="42.3114350" lon="1.7622670">
        <ele>1643.5</ele>
        <time>2015-08-12T19:12:55Z</time>
      </trkpt>
      <trkpt lat="42.3113870" lon="1.7622630">
        <ele>1644.4</ele>
        <time>2015-08-12T19:12:57Z</time>
      </trkpt>
      <trkpt lat="42.3113420" lon="1.7622590">
        <ele>1645.2</ele>
        <time>2015-08-12T19:12:59Z</time>
      </trkpt>
      <trkpt lat="42.3113080" lon="1.7622500">
        <ele>1645.6</ele>
        <time>2015-08-12T19:13:00Z</time>
      </trkpt>
      <trkpt lat="42.3112800" lon="1.7622490">
        <ele>1646.1</ele>
        <time>2015-08-12T19:13:01Z</time>
      </trkpt>
      <trkpt lat="42.3112470" lon="1.7622120">
        <ele>1645.7</ele>
        <time>2015-08-12T19:13:02Z</time>
      </trkpt>
      <trkpt lat="42.3112190" lon="1.7622530">
        <ele>1649.0</ele>
        <time>2015-08-12T19:13:03Z</time>
      </trkpt>
      <trkpt lat="42.3111650" lon="1.7622580">
        <ele>1652.7</ele>
        <time>2015-08-12T19:13:05Z</time>
      </trkpt>
      <trkpt lat="42.3111300" lon="1.7622810">
        <ele>1655.8</ele>
        <time>2015-08-12T19:13:06Z</time>
      </trkpt>
      <trkpt lat="42.3110940" lon="1.7622760">
        <ele>1658.0</ele>
        <time>2015-08-12T19:13:07Z</time>
      </trkpt>
      <trkpt lat="42.3110440" lon="1.7622980">
        <ele>1661.9</ele>
        <time>2015-08-12T19:13:09Z</time>
      </trkpt>
      <trkpt lat="42.3109840" lon="1.7623190">
        <ele>1666.5</ele>
        <time>2015-08-12T19:13:11Z</time>
      </trkpt>
      <trkpt lat="42.3109570" lon="1.7623220">
        <ele>1668.3</ele>
        <time>2015-08-12T19:13:12Z</time>
      </trkpt>
      <trkpt lat="42.3109270" lon="1.7623080">
        <ele>1669.8</ele>
        <time>2015-08-12T19:13:13Z</time>
      </trkpt>
      <trkpt lat="42.3109330" lon="1.7622480">
        <ele>1667.7</ele>
        <time>2015-08-12T19:13:14Z</time>
      </trkpt>
      <trkpt lat="42.3108960" lon="1.7621970">
        <ele>1668.8</ele>
        <time>2015-08-12T19:13:16Z</time>
      </trkpt>
      <trkpt lat="42.3108880" lon="1.7621530">
        <ele>1668.1</ele>
        <time>2015-08-12T19:13:17Z</time>
      </trkpt>
      <trkpt lat="42.3108610" lon="1.7621030">
        <ele>1668.6</ele>
        <time>2015-08-12T19:13:18Z</time>
      </trkpt>
      <trkpt lat="42.3107830" lon="1.7620730">
        <ele>1673.5</ele>
        <time>2015-08-12T19:13:19Z</time>
      </trkpt>
      <trkpt lat="42.3107430" lon="1.7620300">
        <ele>1676.1</ele>
        <time>2015-08-12T19:13:20Z</time>
      </trkpt>
      <trkpt lat="42.3106970" lon="1.7620220">
        <ele>1679.2</ele>
        <time>2015-08-12T19:13:21Z</time>
      </trkpt>
      <trkpt lat="42.3106660" lon="1.7619980">
        <ele>1681.3</ele>
        <time>2015-08-12T19:13:22Z</time>
      </trkpt>
      <trkpt lat="42.3106830" lon="1.7619600">
        <ele>1679.9</ele>
        <time>2015-08-12T19:13:23Z</time>
      </trkpt>
      <trkpt lat="42.3106850" lon="1.7618960">
        <ele>1679.5</ele>
        <time>2015-08-12T19:13:26Z</time>
      </trkpt>
      <trkpt lat="42.3107130" lon="1.7618580">
        <ele>1677.4</ele>
        <time>2015-08-12T19:13:28Z</time>
      </trkpt>
      <trkpt lat="42.3107420" lon="1.7618480">
        <ele>1675.3</ele>
        <time>2015-08-12T19:13:30Z</time>
      </trkpt>
      <trkpt lat="42.3107160" lon="1.7618270">
        <ele>1677.0</ele>
        <time>2015-08-12T19:13:35Z</time>
      </trkpt>
      <trkpt lat="42.3106890" lon="1.7618170">
        <ele>1678.9</ele>
        <time>2015-08-12T19:13:42Z</time>
      </trkpt>
      <trkpt lat="42.3106620" lon="1.7617500">
        <ele>1680.4</ele>
        <time>2015-08-12T19:13:44Z</time>
      </trkpt>
      <trkpt lat="42.3106150" lon="1.7616990">
        <ele>1683.5</ele>
        <time>2015-08-12T19:13:45Z</time>
      </trkpt>
      <trkpt lat="42.3105740" lon="1.7616440">
        <ele>1686.0</ele>
        <time>2015-08-12T19:13:46Z</time>
      </trkpt>
      <trkpt lat="42.3105440" lon="1.7616340">
        <ele>1688.1</ele>
        <time>2015-08-12T19:13:51Z</time>
      </trkpt>
      <trkpt lat="42.3105220" lon="1.7615790">
        <ele>1689.3</ele>
        <time>2015-08-12T19:13:55Z</time>
      </trkpt>
      <trkpt lat="42.3105380" lon="1.7615170">
        <ele>1687.9</ele>
        <time>2015-08-12T19:14:03Z</time>
      </trkpt>
      <trkpt lat="42.3105280" lon="1.7614600">
        <ele>1688.4</ele>
        <time>2015-08-12T19:14:05Z</time>
      </trkpt>
      <trkpt lat="42.3105170" lon="1.7613950">
        <ele>1688.8</ele>
        <time>2015-08-12T19:14:07Z</time>
      </trkpt>
      <trkpt lat="42.3105020" lon="1.7613350">
        <ele>1689.6</ele>
        <time>2015-08-12T19:14:08Z</time>
      </trkpt>
      <trkpt lat="42.3104910" lon="1.7612920">
        <ele>1690.1</ele>
        <time>2015-08-12T19:14:09Z</time>
      </trkpt>
      <trkpt lat="42.3104780" lon="1.7612530">
        <ele>1690.8</ele>
        <time>2015-08-12T19:14:10Z</time>
      </trkpt>
      <trkpt lat="42.3104930" lon="1.7611890">
        <ele>1688.7</ele>
        <time>2015-08-12T19:14:12Z</time>
      </trkpt>
      <trkpt lat="42.3104840" lon="1.7611460">
        <ele>1688.6</ele>
        <time>2015-08-12T19:14:14Z</time>
      </trkpt>
      <trkpt lat="42.3104680" lon="1.7611070">
        <ele>1689.0</ele>
        <time>2015-08-12T19:14:16Z</time>
      </trkpt>
      <trkpt lat="42.3104530" lon="1.7610670">
        <ele>1689.2</ele>
        <time>2015-08-12T19:14:18Z</time>
      </trkpt>
      <trkpt lat="42.3104510" lon="1.7610170">
        <ele>1688.4</ele>
        <time>2015-08-12T19:14:20Z</time>
      </trkpt>
      <trkpt lat="42.3105050" lon="1.7610190">
        <ele>1685.1</ele>
        <time>2015-08-12T19:14:21Z</time>
      </trkpt>
      <trkpt lat="42.3105220" lon="1.7609690">
        <ele>1683.3</ele>
        <time>2015-08-12T19:14:24Z</time>
      </trkpt>
      <trkpt lat="42.3105000" lon="1.7609470">
        <ele>1684.2</ele>
        <time>2015-08-12T19:14:25Z</time>
      </trkpt>
      <trkpt lat="42.3104830" lon="1.7609060">
        <ele>1684.5</ele>
        <time>2015-08-12T19:14:27Z</time>
      </trkpt>
      <trkpt lat="42.3104820" lon="1.7608610">
        <ele>1683.8</ele>
        <time>2015-08-12T19:14:28Z</time>
      </trkpt>
      <trkpt lat="42.3104980" lon="1.7608110">
        <ele>1682.0</ele>
        <time>2015-08-12T19:14:30Z</time>
      </trkpt>
      <trkpt lat="42.3104970" lon="1.7607630">
        <ele>1681.3</ele>
        <time>2015-08-12T19:14:33Z</time>
      </trkpt>
      <trkpt lat="42.3105360" lon="1.7607960">
        <ele>1679.7</ele>
        <time>2015-08-12T19:14:38Z</time>
      </trkpt>
      <trkpt lat="42.3105210" lon="1.7607500">
        <ele>1679.8</ele>
        <time>2015-08-12T19:14:40Z</time>
      </trkpt>
      <trkpt lat="42.3105000" lon="1.7607180">
        <ele>1680.4</ele>
        <time>2015-08-12T19:14:42Z</time>
      </trkpt>
      <trkpt lat="42.3105310" lon="1.7607300">
        <ele>1678.9</ele>
        <time>2015-08-12T19:14:50Z</time>
      </trkpt>
      <trkpt lat="42.3105310" lon="1.7606840">
        <ele>1678.2</ele>
        <time>2015-08-12T19:15:30Z</time>
      </trkpt>
      <trkpt lat="42.3105110" lon="1.7606320">
        <ele>1678.4</ele>
        <time>2015-08-12T19:15:32Z</time>
      </trkpt>
      <trkpt lat="42.3105180" lon="1.7605710">
        <ele>1677.0</ele>
        <time>2015-08-12T19:15:42Z</time>
      </trkpt>
      <trkpt lat="42.3104980" lon="1.7605290">
        <ele>1677.3</ele>
        <time>2015-08-12T19:15:45Z</time>
      </trkpt>
      <trkpt lat="42.3104810" lon="1.7604910">
        <ele>1677.4</ele>
        <time>2015-08-12T19:15:48Z</time>
      </trkpt>
      <trkpt lat="42.3104890" lon="1.7604540">
        <ele>1676.4</ele>
        <time>2015-08-12T19:15:53Z</time>
      </trkpt>
      <trkpt lat="42.3105040" lon="1.7603480">
        <ele>1672.4</ele>
        <time>2015-08-12T19:16:12Z</time>
      </trkpt>
      <trkpt lat="42.3105460" lon="1.7603410">
        <ele>1670.3</ele>
        <time>2015-08-12T19:16:19Z</time>
      </trkpt>
      <trkpt lat="42.3105250" lon="1.7602910">
        <ele>1669.2</ele>
        <time>2015-08-12T19:16:23Z</time>
      </trkpt>
      <trkpt lat="42.3105290" lon="1.7602460">
        <ele>1667.3</ele>
        <time>2015-08-12T19:16:25Z</time>
      </trkpt>
      <trkpt lat="42.3105310" lon="1.7602010">
        <ele>1665.5</ele>
        <time>2015-08-12T19:16:27Z</time>
      </trkpt>
      <trkpt lat="42.3105390" lon="1.7601520">
        <ele>1663.3</ele>
        <time>2015-08-12T19:16:30Z</time>
      </trkpt>
      <trkpt lat="42.3105300" lon="1.7601040">
        <ele>1661.7</ele>
        <time>2015-08-12T19:16:33Z</time>
      </trkpt>
      <trkpt lat="42.3105130" lon="1.7600580">
        <ele>1660.4</ele>
        <time>2015-08-12T19:16:36Z</time>
      </trkpt>
      <trkpt lat="42.3105200" lon="1.7600170">
        <ele>1658.6</ele>
        <time>2015-08-12T19:16:38Z</time>
      </trkpt>
      <trkpt lat="42.3105130" lon="1.7599750">
        <ele>1657.1</ele>
        <time>2015-08-12T19:16:42Z</time>
      </trkpt>
      <trkpt lat="42.3104910" lon="1.7599440">
        <ele>1656.5</ele>
        <time>2015-08-12T19:16:46Z</time>
      </trkpt>
      <trkpt lat="42.3104610" lon="1.7599270">
        <ele>1656.6</ele>
        <time>2015-08-12T19:16:48Z</time>
      </trkpt>
      <trkpt lat="42.3104510" lon="1.7598710">
        <ele>1654.6</ele>
        <time>2015-08-12T19:16:51Z</time>
      </trkpt>
      <trkpt lat="42.3104210" lon="1.7598550">
        <ele>1654.6</ele>
        <time>2015-08-12T19:16:58Z</time>
      </trkpt>
      <trkpt lat="42.3103960" lon="1.7598360">
        <ele>1654.3</ele>
        <time>2015-08-12T19:17:01Z</time>
      </trkpt>
      <trkpt lat="42.3103690" lon="1.7597960">
        <ele>1653.1</ele>
        <time>2015-08-12T19:17:03Z</time>
      </trkpt>
      <trkpt lat="42.3103440" lon="1.7597540">
        <ele>1651.7</ele>
        <time>2015-08-12T19:17:05Z</time>
      </trkpt>
      <trkpt lat="42.3103050" lon="1.7596930">
        <ele>1649.7</ele>
        <time>2015-08-12T19:17:07Z</time>
      </trkpt>
      <trkpt lat="42.3102950" lon="1.7596570">
        <ele>1648.2</ele>
        <time>2015-08-12T19:17:08Z</time>
      </trkpt>
      <trkpt lat="42.3102740" lon="1.7596060">
        <ele>1646.3</ele>
        <time>2015-08-12T19:17:10Z</time>
      </trkpt>
      <trkpt lat="42.3102440" lon="1.7595860">
        <ele>1645.8</ele>
        <time>2015-08-12T19:17:12Z</time>
      </trkpt>
      <trkpt lat="42.3101930" lon="1.7595740">
        <ele>1646.0</ele>
        <time>2015-08-12T19:17:14Z</time>
      </trkpt>
      <trkpt lat="42.3101600" lon="1.7595760">
        <ele>1646.6</ele>
        <time>2015-08-12T19:17:16Z</time>
      </trkpt>
      <trkpt lat="42.3101140" lon="1.7595690">
        <ele>1646.9</ele>
        <time>2015-08-12T19:17:18Z</time>
      </trkpt>
      <trkpt lat="42.3100750" lon="1.7595610">
        <ele>1647.1</ele>
        <time>2015-08-12T19:17:20Z</time>
      </trkpt>
      <trkpt lat="42.3100460" lon="1.7595420">
        <ele>1646.5</ele>
        <time>2015-08-12T19:17:22Z</time>
      </trkpt>
      <trkpt lat="42.3100040" lon="1.7595460">
        <ele>1647.3</ele>
        <time>2015-08-12T19:17:24Z</time>
      </trkpt>
      <trkpt lat="42.3099670" lon="1.7595210">
        <ele>1646.5</ele>
        <time>2015-08-12T19:17:26Z</time>
      </trkpt>
      <trkpt lat="42.3099440" lon="1.7595000">
        <ele>1645.6</ele>
        <time>2015-08-12T19:17:29Z</time>
      </trkpt>
      <trkpt lat="42.3099080" lon="1.7594940">
        <ele>1645.8</ele>
        <time>2015-08-12T19:17:31Z</time>
      </trkpt>
      <trkpt lat="42.3098610" lon="1.7594890">
        <ele>1646.2</ele>
        <time>2015-08-12T19:17:33Z</time>
      </trkpt>
      <trkpt lat="42.3098350" lon="1.7594730">
        <ele>1645.7</ele>
        <time>2015-08-12T19:17:35Z</time>
      </trkpt>
      <trkpt lat="42.3098010" lon="1.7594670">
        <ele>1645.8</ele>
        <time>2015-08-12T19:17:37Z</time>
      </trkpt>
      <trkpt lat="42.3097750" lon="1.7594430">
        <ele>1644.8</ele>
        <time>2015-08-12T19:17:40Z</time>
      </trkpt>
      <trkpt lat="42.3097350" lon="1.7594230">
        <ele>1644.2</ele>
        <time>2015-08-12T19:17:43Z</time>
      </trkpt>
      <trkpt lat="42.3097080" lon="1.7594060">
        <ele>1643.6</ele>
        <time>2015-08-12T19:17:44Z</time>
      </trkpt>
      <trkpt lat="42.3096770" lon="1.7593990">
        <ele>1643.6</ele>
        <time>2015-08-12T19:17:47Z</time>
      </trkpt>
      <trkpt lat="42.3096450" lon="1.7593960">
        <ele>1643.9</ele>
        <time>2015-08-12T19:17:49Z</time>
      </trkpt>
      <trkpt lat="42.3096150" lon="1.7593910">
        <ele>1644.0</ele>
        <time>2015-08-12T19:17:51Z</time>
      </trkpt>
      <trkpt lat="42.3095820" lon="1.7594050">
        <ele>1645.3</ele>
        <time>2015-08-12T19:17:53Z</time>
      </trkpt>
      <trkpt lat="42.3095410" lon="1.7594020">
        <ele>1644.9</ele>
        <time>2015-08-12T19:17:56Z</time>
      </trkpt>
      <trkpt lat="42.3094990" lon="1.7594000">
        <ele>1644.6</ele>
        <time>2015-08-12T19:17:59Z</time>
      </trkpt>
      <trkpt lat="42.3094570" lon="1.7593940">
        <ele>1644.0</ele>
        <time>2015-08-12T19:18:02Z</time>
      </trkpt>
      <trkpt lat="42.3094380" lon="1.7593670">
        <ele>1642.3</ele>
        <time>2015-08-12T19:18:03Z</time>
      </trkpt>
      <trkpt lat="42.3094210" lon="1.7593380">
        <ele>1640.6</ele>
        <time>2015-08-12T19:18:04Z</time>
      </trkpt>
      <trkpt lat="42.3093950" lon="1.7593180">
        <ele>1639.3</ele>
        <time>2015-08-12T19:18:05Z</time>
      </trkpt>
      <trkpt lat="42.3093550" lon="1.7592820">
        <ele>1637.1</ele>
        <time>2015-08-12T19:18:07Z</time>
      </trkpt>
      <trkpt lat="42.3093170" lon="1.7593160">
        <ele>1638.9</ele>
        <time>2015-08-12T19:18:08Z</time>
      </trkpt>
      <trkpt lat="42.3092640" lon="1.7593110">
        <ele>1638.4</ele>
        <time>2015-08-12T19:18:10Z</time>
      </trkpt>
      <trkpt lat="42.3092140" lon="1.7592960">
        <ele>1637.3</ele>
        <time>2015-08-12T19:18:12Z</time>
      </trkpt>
      <trkpt lat="42.3091780" lon="1.7592770">
        <ele>1636.1</ele>
        <time>2015-08-12T19:18:14Z</time>
      </trkpt>
      <trkpt lat="42.3091350" lon="1.7592540">
        <ele>1634.7</ele>
        <time>2015-08-12T19:18:16Z</time>
      </trkpt>
      <trkpt lat="42.3091080" lon="1.7592420">
        <ele>1634.0</ele>
        <time>2015-08-12T19:18:18Z</time>
      </trkpt>
      <trkpt lat="42.3090770" lon="1.7592440">
        <ele>1634.0</ele>
        <time>2015-08-12T19:18:20Z</time>
      </trkpt>
      <trkpt lat="42.3090500" lon="1.7592530">
        <ele>1634.4</ele>
        <time>2015-08-12T19:18:24Z</time>
      </trkpt>
      <trkpt lat="42.3089940" lon="1.7592270">
        <ele>1632.8</ele>
        <time>2015-08-12T19:18:27Z</time>
      </trkpt>
      <trkpt lat="42.3089540" lon="1.7591970">
        <ele>1631.1</ele>
        <time>2015-08-12T19:18:30Z</time>
      </trkpt>
      <trkpt lat="42.3089360" lon="1.7591630">
        <ele>1629.3</ele>
        <time>2015-08-12T19:18:34Z</time>
      </trkpt>
      <trkpt lat="42.3088530" lon="1.7591860">
        <ele>1630.2</ele>
        <time>2015-08-12T19:18:37Z</time>
      </trkpt>
      <trkpt lat="42.3088230" lon="1.7591830">
        <ele>1630.0</ele>
        <time>2015-08-12T19:18:38Z</time>
      </trkpt>
      <trkpt lat="42.3087900" lon="1.7592040">
        <ele>1631.0</ele>
        <time>2015-08-12T19:18:39Z</time>
      </trkpt>
      <trkpt lat="42.3087650" lon="1.7592220">
        <ele>1631.8</ele>
        <time>2015-08-12T19:18:40Z</time>
      </trkpt>
      <trkpt lat="42.3087290" lon="1.7592270">
        <ele>1632.4</ele>
        <time>2015-08-12T19:18:42Z</time>
      </trkpt>
      <trkpt lat="42.3086960" lon="1.7592370">
        <ele>1633.4</ele>
        <time>2015-08-12T19:18:45Z</time>
      </trkpt>
      <trkpt lat="42.3086620" lon="1.7592330">
        <ele>1633.7</ele>
        <time>2015-08-12T19:18:47Z</time>
      </trkpt>
      <trkpt lat="42.3086230" lon="1.7592290">
        <ele>1634.2</ele>
        <time>2015-08-12T19:18:49Z</time>
      </trkpt>
      <trkpt lat="42.3086060" lon="1.7592580">
        <ele>1635.9</ele>
        <time>2015-08-12T19:18:59Z</time>
      </trkpt>
      <trkpt lat="42.3085680" lon="1.7592820">
        <ele>1637.7</ele>
        <time>2015-08-12T19:19:31Z</time>
      </trkpt>
      <trkpt lat="42.3085240" lon="1.7592740">
        <ele>1638.0</ele>
        <time>2015-08-12T19:19:33Z</time>
      </trkpt>
      <trkpt lat="42.3085280" lon="1.7593290">
        <ele>1640.6</ele>
        <time>2015-08-12T19:19:34Z</time>
      </trkpt>
      <trkpt lat="42.3084820" lon="1.7593250">
        <ele>1641.1</ele>
        <time>2015-08-12T19:19:36Z</time>
      </trkpt>
      <trkpt lat="42.3084300" lon="1.7593410">
        <ele>1642.7</ele>
        <time>2015-08-12T19:19:37Z</time>
      </trkpt>
      <trkpt lat="42.3083720" lon="1.7593660">
        <ele>1644.8</ele>
        <time>2015-08-12T19:19:39Z</time>
      </trkpt>
      <trkpt lat="42.3083410" lon="1.7593830">
        <ele>1646.1</ele>
        <time>2015-08-12T19:19:40Z</time>
      </trkpt>
      <trkpt lat="42.3082680" lon="1.7593940">
        <ele>1647.8</ele>
        <time>2015-08-12T19:19:42Z</time>
      </trkpt>
      <trkpt lat="42.3082410" lon="1.7594060">
        <ele>1648.8</ele>
        <time>2015-08-12T19:19:43Z</time>
      </trkpt>
      <trkpt lat="42.3082410" lon="1.7594750">
        <ele>1652.1</ele>
        <time>2015-08-12T19:19:45Z</time>
      </trkpt>
      <trkpt lat="42.3081980" lon="1.7594760">
        <ele>1652.8</ele>
        <time>2015-08-12T19:19:47Z</time>
      </trkpt>
      <trkpt lat="42.3081660" lon="1.7595190">
        <ele>1655.3</ele>
        <time>2015-08-12T19:19:49Z</time>
      </trkpt>
      <trkpt lat="42.3081430" lon="1.7595460">
        <ele>1657.0</ele>
        <time>2015-08-12T19:19:50Z</time>
      </trkpt>
      <trkpt lat="42.3080960" lon="1.7595280">
        <ele>1656.8</ele>
        <time>2015-08-12T19:19:51Z</time>
      </trkpt>
      <trkpt lat="42.3080520" lon="1.7595580">
        <ele>1658.9</ele>
        <time>2015-08-12T19:19:52Z</time>
      </trkpt>
      <trkpt lat="42.3080210" lon="1.7595570">
        <ele>1659.3</ele>
        <time>2015-08-12T19:19:53Z</time>
      </trkpt>
      <trkpt lat="42.3079840" lon="1.7595380">
        <ele>1658.9</ele>
        <time>2015-08-12T19:19:55Z</time>
      </trkpt>
      <trkpt lat="42.3079520" lon="1.7595340">
        <ele>1659.2</ele>
        <time>2015-08-12T19:19:57Z</time>
      </trkpt>
      <trkpt lat="42.3079160" lon="1.7595170">
        <ele>1658.9</ele>
        <time>2015-08-12T19:19:59Z</time>
      </trkpt>
      <trkpt lat="42.3078780" lon="1.7595180">
        <ele>1660.8</ele>
        <time>2015-08-12T19:20:02Z</time>
      </trkpt>
      <trkpt lat="42.3078420" lon="1.7595190">
        <ele>1662.7</ele>
        <time>2015-08-12T19:20:04Z</time>
      </trkpt>
      <trkpt lat="42.3078230" lon="1.7594530">
        <ele>1660.5</ele>
        <time>2015-08-12T19:20:05Z</time>
      </trkpt>
      <trkpt lat="42.3077990" lon="1.7594120">
        <ele>1659.7</ele>
        <time>2015-08-12T19:20:06Z</time>
      </trkpt>
      <trkpt lat="42.3077800" lon="1.7593690">
        <ele>1658.7</ele>
        <time>2015-08-12T19:20:07Z</time>
      </trkpt>
      <trkpt lat="42.3077620" lon="1.7593380">
        <ele>1658.1</ele>
        <time>2015-08-12T19:20:08Z</time>
      </trkpt>
      <trkpt lat="42.3077450" lon="1.7593060">
        <ele>1657.4</ele>
        <time>2015-08-12T19:20:09Z</time>
      </trkpt>
      <trkpt lat="42.3077210" lon="1.7592680">
        <ele>1656.8</ele>
        <time>2015-08-12T19:20:11Z</time>
      </trkpt>
      <trkpt lat="42.3076980" lon="1.7592470">
        <ele>1656.9</ele>
        <time>2015-08-12T19:20:27Z</time>
      </trkpt>
      <trkpt lat="42.3076710" lon="1.7591860">
        <ele>1655.4</ele>
        <time>2015-08-12T19:20:29Z</time>
      </trkpt>
      <trkpt lat="42.3076270" lon="1.7591290">
        <ele>1654.8</ele>
        <time>2015-08-12T19:20:30Z</time>
      </trkpt>
      <trkpt lat="42.3076010" lon="1.7590820">
        <ele>1653.8</ele>
        <time>2015-08-12T19:20:32Z</time>
      </trkpt>
      <trkpt lat="42.3075510" lon="1.7590300">
        <ele>1653.8</ele>
        <time>2015-08-12T19:20:33Z</time>
      </trkpt>
      <trkpt lat="42.3075300" lon="1.7589570">
        <ele>1651.4</ele>
        <time>2015-08-12T19:20:35Z</time>
      </trkpt>
      <trkpt lat="42.3074990" lon="1.7589360">
        <ele>1651.9</ele>
        <time>2015-08-12T19:20:36Z</time>
      </trkpt>
      <trkpt lat="42.3074520" lon="1.7588830">
        <ele>1651.6</ele>
        <time>2015-08-12T19:20:38Z</time>
      </trkpt>
      <trkpt lat="42.3074160" lon="1.7588530">
        <ele>1651.9</ele>
        <time>2015-08-12T19:20:39Z</time>
      </trkpt>
      <trkpt lat="42.3073910" lon="1.7588280">
        <ele>1651.9</ele>
        <time>2015-08-12T19:20:40Z</time>
      </trkpt>
      <trkpt lat="42.3073510" lon="1.7588410">
        <ele>1654.5</ele>
        <time>2015-08-12T19:20:42Z</time>
      </trkpt>
      <trkpt lat="42.3073240" lon="1.7588310">
        <ele>1655.3</ele>
        <time>2015-08-12T19:20:45Z</time>
      </trkpt>
      <trkpt lat="42.3072890" lon="1.7587730">
        <ele>1654.2</ele>
        <time>2015-08-12T19:20:49Z</time>
      </trkpt>
      <trkpt lat="42.3072550" lon="1.7587310">
        <ele>1653.9</ele>
        <time>2015-08-12T19:20:51Z</time>
      </trkpt>
      <trkpt lat="42.3072910" lon="1.7587580">
        <ele>1653.4</ele>
        <time>2015-08-12T19:20:53Z</time>
      </trkpt>
      <trkpt lat="42.3072350" lon="1.7587360">
        <ele>1655.1</ele>
        <time>2015-08-12T19:20:56Z</time>
      </trkpt>
      <trkpt lat="42.3072440" lon="1.7586810">
        <ele>1652.3</ele>
        <time>2015-08-12T19:21:00Z</time>
      </trkpt>
      <trkpt lat="42.3072230" lon="1.7586420">
        <ele>1651.7</ele>
        <time>2015-08-12T19:21:15Z</time>
      </trkpt>
      <trkpt lat="42.3072020" lon="1.7586020">
        <ele>1651.0</ele>
        <time>2015-08-12T19:21:16Z</time>
      </trkpt>
      <trkpt lat="42.3071440" lon="1.7585090">
        <ele>1649.9</ele>
        <time>2015-08-12T19:21:17Z</time>
      </trkpt>
      <trkpt lat="42.3071250" lon="1.7584440">
        <ele>1648.1</ele>
        <time>2015-08-12T19:21:18Z</time>
      </trkpt>
      <trkpt lat="42.3070830" lon="1.7583710">
        <ele>1647.1</ele>
        <time>2015-08-12T19:21:19Z</time>
      </trkpt>
      <trkpt lat="42.3070650" lon="1.7583410">
        <ele>1645.9</ele>
        <time>2015-08-12T19:21:20Z</time>
      </trkpt>
      <trkpt lat="42.3070290" lon="1.7583000">
        <ele>1644.2</ele>
        <time>2015-08-12T19:21:21Z</time>
      </trkpt>
      <trkpt lat="42.3069720" lon="1.7582270">
        <ele>1641.3</ele>
        <time>2015-08-12T19:21:22Z</time>
      </trkpt>
      <trkpt lat="42.3069050" lon="1.7581170">
        <ele>1636.7</ele>
        <time>2015-08-12T19:21:25Z</time>
      </trkpt>
      <trkpt lat="42.3068060" lon="1.7580680">
        <ele>1634.7</ele>
        <time>2015-08-12T19:21:26Z</time>
      </trkpt>
      <trkpt lat="42.3067860" lon="1.7580430">
        <ele>1633.6</ele>
        <time>2015-08-12T19:21:28Z</time>
      </trkpt>
      <trkpt lat="42.3067780" lon="1.7580060">
        <ele>1631.9</ele>
        <time>2015-08-12T19:21:30Z</time>
      </trkpt>
      <trkpt lat="42.3067390" lon="1.7579580">
        <ele>1629.8</ele>
        <time>2015-08-12T19:21:33Z</time>
      </trkpt>
      <trkpt lat="42.3067140" lon="1.7579090">
        <ele>1627.8</ele>
        <time>2015-08-12T19:21:37Z</time>
      </trkpt>
      <trkpt lat="42.3067120" lon="1.7578710">
        <ele>1626.6</ele>
        <time>2015-08-12T19:21:39Z</time>
      </trkpt>
      <trkpt lat="42.3066610" lon="1.7578780">
        <ele>1626.8</ele>
        <time>2015-08-12T19:21:48Z</time>
      </trkpt>
      <trkpt lat="42.3066490" lon="1.7578360">
        <ele>1625.5</ele>
        <time>2015-08-12T19:21:51Z</time>
      </trkpt>
      <trkpt lat="42.3066220" lon="1.7578080">
        <ele>1624.6</ele>
        <time>2015-08-12T19:21:53Z</time>
      </trkpt>
      <trkpt lat="42.3066330" lon="1.7577700">
        <ele>1623.4</ele>
        <time>2015-08-12T19:22:05Z</time>
      </trkpt>
      <trkpt lat="42.3065940" lon="1.7577680">
        <ele>1623.4</ele>
        <time>2015-08-12T19:22:11Z</time>
      </trkpt>
      <trkpt lat="42.3065590" lon="1.7577400">
        <ele>1622.5</ele>
        <time>2015-08-12T19:22:15Z</time>
      </trkpt>
      <trkpt lat="42.3065270" lon="1.7577610">
        <ele>1623.2</ele>
        <time>2015-08-12T19:22:45Z</time>
      </trkpt>
      <trkpt lat="42.3065030" lon="1.7577300">
        <ele>1622.3</ele>
        <time>2015-08-12T19:22:46Z</time>
      </trkpt>
      <trkpt lat="42.3064620" lon="1.7577280">
        <ele>1622.2</ele>
        <time>2015-08-12T19:22:56Z</time>
      </trkpt>
      <trkpt lat="42.3064420" lon="1.7577860">
        <ele>1624.0</ele>
        <time>2015-08-12T19:23:00Z</time>
      </trkpt>
      <trkpt lat="42.3064240" lon="1.7578470">
        <ele>1625.9</ele>
        <time>2015-08-12T19:23:02Z</time>
      </trkpt>
      <trkpt lat="42.3063990" lon="1.7578900">
        <ele>1627.2</ele>
        <time>2015-08-12T19:23:04Z</time>
      </trkpt>
      <trkpt lat="42.3063790" lon="1.7578480">
        <ele>1625.9</ele>
        <time>2015-08-12T19:23:06Z</time>
      </trkpt>
      <trkpt lat="42.3063380" lon="1.7578350">
        <ele>1625.5</ele>
        <time>2015-08-12T19:23:08Z</time>
      </trkpt>
      <trkpt lat="42.3063040" lon="1.7578540">
        <ele>1626.1</ele>
        <time>2015-08-12T19:23:09Z</time>
      </trkpt>
      <trkpt lat="42.3062460" lon="1.7578650">
        <ele>1626.4</ele>
        <time>2015-08-12T19:23:11Z</time>
      </trkpt>
      <trkpt lat="42.3061680" lon="1.7579020">
        <ele>1627.4</ele>
        <time>2015-08-12T19:23:13Z</time>
      </trkpt>
      <trkpt lat="42.3061210" lon="1.7578940">
        <ele>1627.1</ele>
        <time>2015-08-12T19:23:14Z</time>
      </trkpt>
      <trkpt lat="42.3060600" lon="1.7578990">
        <ele>1627.1</ele>
        <time>2015-08-12T19:23:16Z</time>
      </trkpt>
      <trkpt lat="42.3060260" lon="1.7578740">
        <ele>1626.4</ele>
        <time>2015-08-12T19:23:18Z</time>
      </trkpt>
      <trkpt lat="42.3059770" lon="1.7578900">
        <ele>1626.7</ele>
        <time>2015-08-12T19:23:20Z</time>
      </trkpt>
      <trkpt lat="42.3059370" lon="1.7579100">
        <ele>1627.1</ele>
        <time>2015-08-12T19:23:22Z</time>
      </trkpt>
      <trkpt lat="42.3058880" lon="1.7579110">
        <ele>1627.0</ele>
        <time>2015-08-12T19:23:25Z</time>
      </trkpt>
      <trkpt lat="42.3058590" lon="1.7579040">
        <ele>1626.8</ele>
        <time>2015-08-12T19:23:26Z</time>
      </trkpt>
      <trkpt lat="42.3058270" lon="1.7579150">
        <ele>1627.0</ele>
        <time>2015-08-12T19:23:28Z</time>
      </trkpt>
      <trkpt lat="42.3057920" lon="1.7579330">
        <ele>1627.6</ele>
        <time>2015-08-12T19:23:30Z</time>
      </trkpt>
      <trkpt lat="42.3057750" lon="1.7579020">
        <ele>1626.6</ele>
        <time>2015-08-12T19:23:36Z</time>
      </trkpt>
      <trkpt lat="42.3056950" lon="1.7578700">
        <ele>1625.9</ele>
        <time>2015-08-12T19:23:39Z</time>
      </trkpt>
      <trkpt lat="42.3056330" lon="1.7578370">
        <ele>1625.3</ele>
        <time>2015-08-12T19:23:40Z</time>
      </trkpt>
      <trkpt lat="42.3055850" lon="1.7578220">
        <ele>1625.1</ele>
        <time>2015-08-12T19:23:41Z</time>
      </trkpt>
      <trkpt lat="42.3055490" lon="1.7578170">
        <ele>1625.0</ele>
        <time>2015-08-12T19:23:42Z</time>
      </trkpt>
      <trkpt lat="42.3055100" lon="1.7578180">
        <ele>1625.1</ele>
        <time>2015-08-12T19:23:44Z</time>
      </trkpt>
      <trkpt lat="42.3054770" lon="1.7578160">
        <ele>1625.0</ele>
        <time>2015-08-12T19:23:45Z</time>
      </trkpt>
      <trkpt lat="42.3054300" lon="1.7578200">
        <ele>1625.1</ele>
        <time>2015-08-12T19:23:48Z</time>
      </trkpt>
      <trkpt lat="42.3053610" lon="1.7577900">
        <ele>1624.8</ele>
        <time>2015-08-12T19:23:50Z</time>
      </trkpt>
      <trkpt lat="42.3053320" lon="1.7577770">
        <ele>1624.8</ele>
        <time>2015-08-12T19:23:51Z</time>
      </trkpt>
      <trkpt lat="42.3052990" lon="1.7577720">
        <ele>1624.8</ele>
        <time>2015-08-12T19:23:52Z</time>
      </trkpt>
      <trkpt lat="42.3052530" lon="1.7577800">
        <ele>1624.9</ele>
        <time>2015-08-12T19:23:54Z</time>
      </trkpt>
      <trkpt lat="42.3052480" lon="1.7578310">
        <ele>1625.1</ele>
        <time>2015-08-12T19:23:56Z</time>
      </trkpt>
      <trkpt lat="42.3052080" lon="1.7578530">
        <ele>1625.2</ele>
        <time>2015-08-12T19:23:58Z</time>
      </trkpt>
      <trkpt lat="42.3051820" lon="1.7578970">
        <ele>1625.4</ele>
        <time>2015-08-12T19:24:00Z</time>
      </trkpt>
      <trkpt lat="42.3051470" lon="1.7578860">
        <ele>1625.3</ele>
        <time>2015-08-12T19:24:02Z</time>
      </trkpt>
      <trkpt lat="42.3051180" lon="1.7578890">
        <ele>1625.2</ele>
        <time>2015-08-12T19:24:08Z</time>
      </trkpt>
      <trkpt lat="42.3050980" lon="1.7578620">
        <ele>1625.2</ele>
        <time>2015-08-12T19:24:10Z</time>
      </trkpt>
      <trkpt lat="42.3050680" lon="1.7578500">
        <ele>1625.1</ele>
        <time>2015-08-12T19:24:13Z</time>
      </trkpt>
      <trkpt lat="42.3050380" lon="1.7578450">
        <ele>1625.1</ele>
        <time>2015-08-12T19:24:14Z</time>
      </trkpt>
      <trkpt lat="42.3049780" lon="1.7578590">
        <ele>1625.0</ele>
        <time>2015-08-12T19:24:16Z</time>
      </trkpt>
      <trkpt lat="42.3049440" lon="1.7578580">
        <ele>1625.0</ele>
        <time>2015-08-12T19:24:18Z</time>
      </trkpt>
      <trkpt lat="42.3049080" lon="1.7578630">
        <ele>1625.0</ele>
        <time>2015-08-12T19:24:20Z</time>
      </trkpt>
      <trkpt lat="42.3048710" lon="1.7578540">
        <ele>1625.0</ele>
        <time>2015-08-12T19:24:21Z</time>
      </trkpt>
      <trkpt lat="42.3048330" lon="1.7578520">
        <ele>1625.0</ele>
        <time>2015-08-12T19:24:23Z</time>
      </trkpt>
      <trkpt lat="42.3047970" lon="1.7578440">
        <ele>1625.0</ele>
        <time>2015-08-12T19:24:24Z</time>
      </trkpt>
      <trkpt lat="42.3047590" lon="1.7578700">
        <ele>1624.8</ele>
        <time>2015-08-12T19:24:25Z</time>
      </trkpt>
      <trkpt lat="42.3047300" lon="1.7578830">
        <ele>1624.6</ele>
        <time>2015-08-12T19:24:26Z</time>
      </trkpt>
      <trkpt lat="42.3046930" lon="1.7578550">
        <ele>1624.8</ele>
        <time>2015-08-12T19:24:28Z</time>
      </trkpt>
      <trkpt lat="42.3046540" lon="1.7578530">
        <ele>1624.8</ele>
        <time>2015-08-12T19:24:30Z</time>
      </trkpt>
      <trkpt lat="42.3046080" lon="1.7578350">
        <ele>1625.0</ele>
        <time>2015-08-12T19:24:32Z</time>
      </trkpt>
      <trkpt lat="42.3045670" lon="1.7578240">
        <ele>1625.7</ele>
        <time>2015-08-12T19:24:34Z</time>
      </trkpt>
      <trkpt lat="42.3045340" lon="1.7578440">
        <ele>1626.5</ele>
        <time>2015-08-12T19:24:35Z</time>
      </trkpt>
      <trkpt lat="42.3045070" lon="1.7578420">
        <ele>1627.4</ele>
        <time>2015-08-12T19:24:36Z</time>
      </trkpt>
      <trkpt lat="42.3044760" lon="1.7578440">
        <ele>1628.4</ele>
        <time>2015-08-12T19:24:37Z</time>
      </trkpt>
      <trkpt lat="42.3044480" lon="1.7578340">
        <ele>1629.5</ele>
        <time>2015-08-12T19:24:38Z</time>
      </trkpt>
      <trkpt lat="42.3044060" lon="1.7578320">
        <ele>1631.0</ele>
        <time>2015-08-12T19:24:39Z</time>
      </trkpt>
      <trkpt lat="42.3043560" lon="1.7578530">
        <ele>1632.3</ele>
        <time>2015-08-12T19:24:41Z</time>
      </trkpt>
      <trkpt lat="42.3043150" lon="1.7578970">
        <ele>1632.8</ele>
        <time>2015-08-12T19:24:43Z</time>
      </trkpt>
      <trkpt lat="42.3042900" lon="1.7579110">
        <ele>1633.3</ele>
        <time>2015-08-12T19:24:44Z</time>
      </trkpt>
      <trkpt lat="42.3042510" lon="1.7579310">
        <ele>1634.5</ele>
        <time>2015-08-12T19:24:46Z</time>
      </trkpt>
      <trkpt lat="42.3042350" lon="1.7579840">
        <ele>1635.5</ele>
        <time>2015-08-12T19:24:48Z</time>
      </trkpt>
      <trkpt lat="42.3042180" lon="1.7580160">
        <ele>1636.2</ele>
        <time>2015-08-12T19:24:53Z</time>
      </trkpt>
      <trkpt lat="42.3042320" lon="1.7580610">
        <ele>1636.3</ele>
        <time>2015-08-12T19:24:56Z</time>
      </trkpt>
      <trkpt lat="42.3041850" lon="1.7580420">
        <ele>1637.3</ele>
        <time>2015-08-12T19:24:58Z</time>
      </trkpt>
      <trkpt lat="42.3041370" lon="1.7580320">
        <ele>1638.5</ele>
        <time>2015-08-12T19:25:00Z</time>
      </trkpt>
      <trkpt lat="42.3041080" lon="1.7580470">
        <ele>1639.3</ele>
        <time>2015-08-12T19:25:12Z</time>
      </trkpt>
      <trkpt lat="42.3040830" lon="1.7580750">
        <ele>1639.9</ele>
        <time>2015-08-12T19:25:37Z</time>
      </trkpt>
      <trkpt lat="42.3040570" lon="1.7581060">
        <ele>1640.6</ele>
        <time>2015-08-12T19:26:04Z</time>
      </trkpt>
      <trkpt lat="42.3040220" lon="1.7581100">
        <ele>1641.4</ele>
        <time>2015-08-12T19:26:06Z</time>
      </trkpt>
      <trkpt lat="42.3039930" lon="1.7581050">
        <ele>1642.0</ele>
        <time>2015-08-12T19:26:11Z</time>
      </trkpt>
      <trkpt lat="42.3039590" lon="1.7580660">
        <ele>1642.9</ele>
        <time>2015-08-12T19:26:14Z</time>
      </trkpt>
      <trkpt lat="42.3039870" lon="1.7580610">
        <ele>1642.3</ele>
        <time>2015-08-12T19:26:24Z</time>
      </trkpt>
      <trkpt lat="42.3039980" lon="1.7580180">
        <ele>1642.1</ele>
        <time>2015-08-12T19:26:27Z</time>
      </trkpt>
      <trkpt lat="42.3039940" lon="1.7579740">
        <ele>1642.3</ele>
        <time>2015-08-12T19:26:31Z</time>
      </trkpt>
      <trkpt lat="42.3039760" lon="1.7579340">
        <ele>1642.9</ele>
        <time>2015-08-12T19:26:33Z</time>
      </trkpt>
      <trkpt lat="42.3039800" lon="1.7578800">
        <ele>1643.9</ele>
        <time>2015-08-12T19:26:36Z</time>
      </trkpt>
      <trkpt lat="42.3039790" lon="1.7578430">
        <ele>1645.0</ele>
        <time>2015-08-12T19:26:38Z</time>
      </trkpt>
      <trkpt lat="42.3039710" lon="1.7577990">
        <ele>1646.5</ele>
        <time>2015-08-12T19:26:46Z</time>
      </trkpt>
      <trkpt lat="42.3039780" lon="1.7577590">
        <ele>1647.4</ele>
        <time>2015-08-12T19:26:50Z</time>
      </trkpt>
      <trkpt lat="42.3039690" lon="1.7577010">
        <ele>1649.4</ele>
        <time>2015-08-12T19:26:55Z</time>
      </trkpt>
      <trkpt lat="42.3039490" lon="1.7576670">
        <ele>1651.1</ele>
        <time>2015-08-12T19:27:06Z</time>
      </trkpt>
      <trkpt lat="42.3039250" lon="1.7576380">
        <ele>1652.9</ele>
        <time>2015-08-12T19:27:09Z</time>
      </trkpt>
      <trkpt lat="42.3039250" lon="1.7576010">
        <ele>1654.0</ele>
        <time>2015-08-12T19:27:12Z</time>
      </trkpt>
      <trkpt lat="42.3039230" lon="1.7575600">
        <ele>1655.3</ele>
        <time>2015-08-12T19:27:15Z</time>
      </trkpt>
      <trkpt lat="42.3039440" lon="1.7574940">
        <ele>1656.4</ele>
        <time>2015-08-12T19:27:17Z</time>
      </trkpt>
      <trkpt lat="42.3039950" lon="1.7574280">
        <ele>1656.1</ele>
        <time>2015-08-12T19:27:19Z</time>
      </trkpt>
      <trkpt lat="42.3040110" lon="1.7573970">
        <ele>1656.2</ele>
        <time>2015-08-12T19:27:20Z</time>
      </trkpt>
      <trkpt lat="42.3040260" lon="1.7573500">
        <ele>1656.8</ele>
        <time>2015-08-12T19:27:22Z</time>
      </trkpt>
      <trkpt lat="42.3040330" lon="1.7573010">
        <ele>1657.8</ele>
        <time>2015-08-12T19:27:25Z</time>
      </trkpt>
      <trkpt lat="42.3040530" lon="1.7572570">
        <ele>1658.0</ele>
        <time>2015-08-12T19:27:27Z</time>
      </trkpt>
      <trkpt lat="42.3040710" lon="1.7572150">
        <ele>1658.2</ele>
        <time>2015-08-12T19:27:30Z</time>
      </trkpt>
      <trkpt lat="42.3040970" lon="1.7571690">
        <ele>1658.1</ele>
        <time>2015-08-12T19:27:32Z</time>
      </trkpt>
      <trkpt lat="42.3041050" lon="1.7571320">
        <ele>1658.6</ele>
        <time>2015-08-12T19:27:33Z</time>
      </trkpt>
      <trkpt lat="42.3041380" lon="1.7570940">
        <ele>1657.8</ele>
        <time>2015-08-12T19:27:35Z</time>
      </trkpt>
      <trkpt lat="42.3041660" lon="1.7570690">
        <ele>1656.6</ele>
        <time>2015-08-12T19:27:38Z</time>
      </trkpt>
      <trkpt lat="42.3041910" lon="1.7570170">
        <ele>1655.7</ele>
        <time>2015-08-12T19:27:40Z</time>
      </trkpt>
      <trkpt lat="42.3041900" lon="1.7569710">
        <ele>1656.1</ele>
        <time>2015-08-12T19:27:41Z</time>
      </trkpt>
      <trkpt lat="42.3042440" lon="1.7569860">
        <ele>1653.1</ele>
        <time>2015-08-12T19:27:43Z</time>
      </trkpt>
      <trkpt lat="42.3042300" lon="1.7569380">
        <ele>1654.2</ele>
        <time>2015-08-12T19:27:45Z</time>
      </trkpt>
      <trkpt lat="42.3042380" lon="1.7568820">
        <ele>1654.2</ele>
        <time>2015-08-12T19:27:48Z</time>
      </trkpt>
      <trkpt lat="42.3042550" lon="1.7568480">
        <ele>1653.6</ele>
        <time>2015-08-12T19:27:50Z</time>
      </trkpt>
      <trkpt lat="42.3042610" lon="1.7567950">
        <ele>1653.7</ele>
        <time>2015-08-12T19:27:52Z</time>
      </trkpt>
      <trkpt lat="42.3042960" lon="1.7567370">
        <ele>1652.3</ele>
        <time>2015-08-12T19:27:55Z</time>
      </trkpt>
      <trkpt lat="42.3042810" lon="1.7566850">
        <ele>1653.5</ele>
        <time>2015-08-12T19:27:57Z</time>
      </trkpt>
      <trkpt lat="42.3042920" lon="1.7566290">
        <ele>1653.4</ele>
        <time>2015-08-12T19:27:59Z</time>
      </trkpt>
      <trkpt lat="42.3043010" lon="1.7565900">
        <ele>1653.2</ele>
        <time>2015-08-12T19:28:01Z</time>
      </trkpt>
      <trkpt lat="42.3043070" lon="1.7565530">
        <ele>1653.2</ele>
        <time>2015-08-12T19:28:02Z</time>
      </trkpt>
      <trkpt lat="42.3043400" lon="1.7565460">
        <ele>1651.5</ele>
        <time>2015-08-12T19:28:05Z</time>
      </trkpt>
      <trkpt lat="42.3043780" lon="1.7565100">
        <ele>1649.7</ele>
        <time>2015-08-12T19:28:08Z</time>
      </trkpt>
      <trkpt lat="42.3044070" lon="1.7565190">
        <ele>1648.1</ele>
        <time>2015-08-12T19:28:10Z</time>
      </trkpt>
      <trkpt lat="42.3044380" lon="1.7564830">
        <ele>1646.8</ele>
        <time>2015-08-12T19:28:12Z</time>
      </trkpt>
      <trkpt lat="42.3044570" lon="1.7564370">
        <ele>1646.1</ele>
        <time>2015-08-12T19:28:15Z</time>
      </trkpt>
      <trkpt lat="42.3044940" lon="1.7564230">
        <ele>1644.3</ele>
        <time>2015-08-12T19:28:20Z</time>
      </trkpt>
      <trkpt lat="42.3045240" lon="1.7564010">
        <ele>1642.9</ele>
        <time>2015-08-12T19:28:23Z</time>
      </trkpt>
      <trkpt lat="42.3045590" lon="1.7563750">
        <ele>1641.2</ele>
        <time>2015-08-12T19:28:25Z</time>
      </trkpt>
      <trkpt lat="42.3045890" lon="1.7563490">
        <ele>1640.0</ele>
        <time>2015-08-12T19:28:27Z</time>
      </trkpt>
      <trkpt lat="42.3045930" lon="1.7563070">
        <ele>1640.3</ele>
        <time>2015-08-12T19:28:30Z</time>
      </trkpt>
      <trkpt lat="42.3046170" lon="1.7562750">
        <ele>1640.0</ele>
        <time>2015-08-12T19:28:32Z</time>
      </trkpt>
      <trkpt lat="42.3046340" lon="1.7562470">
        <ele>1639.8</ele>
        <time>2015-08-12T19:28:34Z</time>
      </trkpt>
      <trkpt lat="42.3046330" lon="1.7562060">
        <ele>1639.5</ele>
        <time>2015-08-12T19:28:36Z</time>
      </trkpt>
      <trkpt lat="42.3046300" lon="1.7561640">
        <ele>1639.1</ele>
        <time>2015-08-12T19:28:39Z</time>
      </trkpt>
      <trkpt lat="42.3046150" lon="1.7561310">
        <ele>1639.1</ele>
        <time>2015-08-12T19:28:41Z</time>
      </trkpt>
      <trkpt lat="42.3045900" lon="1.7561010">
        <ele>1639.3</ele>
        <time>2015-08-12T19:28:45Z</time>
      </trkpt>
      <trkpt lat="42.3045700" lon="1.7560750">
        <ele>1639.8</ele>
        <time>2015-08-12T19:28:47Z</time>
      </trkpt>
      <trkpt lat="42.3045450" lon="1.7560360">
        <ele>1640.5</ele>
        <time>2015-08-12T19:28:49Z</time>
      </trkpt>
      <trkpt lat="42.3045240" lon="1.7560130">
        <ele>1641.3</ele>
        <time>2015-08-12T19:28:52Z</time>
      </trkpt>
      <trkpt lat="42.3044980" lon="1.7559910">
        <ele>1642.3</ele>
        <time>2015-08-12T19:28:55Z</time>
      </trkpt>
      <trkpt lat="42.3044720" lon="1.7559600">
        <ele>1643.1</ele>
        <time>2015-08-12T19:28:58Z</time>
      </trkpt>
      <trkpt lat="42.3044470" lon="1.7559340">
        <ele>1643.9</ele>
        <time>2015-08-12T19:29:01Z</time>
      </trkpt>
      <trkpt lat="42.3044120" lon="1.7559110">
        <ele>1645.2</ele>
        <time>2015-08-12T19:29:05Z</time>
      </trkpt>
      <trkpt lat="42.3043860" lon="1.7558890">
        <ele>1646.1</ele>
        <time>2015-08-12T19:29:08Z</time>
      </trkpt>
      <trkpt lat="42.3043570" lon="1.7558740">
        <ele>1647.2</ele>
        <time>2015-08-12T19:29:10Z</time>
      </trkpt>
      <trkpt lat="42.3043290" lon="1.7558480">
        <ele>1648.0</ele>
        <time>2015-08-12T19:29:14Z</time>
      </trkpt>
      <trkpt lat="42.3042990" lon="1.7558230">
        <ele>1649.0</ele>
        <time>2015-08-12T19:29:17Z</time>
      </trkpt>
      <trkpt lat="42.3042800" lon="1.7557970">
        <ele>1649.4</ele>
        <time>2015-08-12T19:29:21Z</time>
      </trkpt>
      <trkpt lat="42.3042470" lon="1.7557670">
        <ele>1650.3</ele>
        <time>2015-08-12T19:29:24Z</time>
      </trkpt>
      <trkpt lat="42.3042160" lon="1.7557490">
        <ele>1651.3</ele>
        <time>2015-08-12T19:29:26Z</time>
      </trkpt>
      <trkpt lat="42.3041890" lon="1.7557300">
        <ele>1652.1</ele>
        <time>2015-08-12T19:29:29Z</time>
      </trkpt>
      <trkpt lat="42.3041850" lon="1.7556880">
        <ele>1651.4</ele>
        <time>2015-08-12T19:29:34Z</time>
      </trkpt>
      <trkpt lat="42.3041650" lon="1.7556640">
        <ele>1651.8</ele>
        <time>2015-08-12T19:29:37Z</time>
      </trkpt>
      <trkpt lat="42.3041290" lon="1.7556060">
        <ele>1652.1</ele>
        <time>2015-08-12T19:29:40Z</time>
      </trkpt>
      <trkpt lat="42.3040920" lon="1.7555900">
        <ele>1653.3</ele>
        <time>2015-08-12T19:29:43Z</time>
      </trkpt>
      <trkpt lat="42.3040810" lon="1.7555290">
        <ele>1652.4</ele>
        <time>2015-08-12T19:29:46Z</time>
      </trkpt>
      <trkpt lat="42.3040510" lon="1.7554960">
        <ele>1652.9</ele>
        <time>2015-08-12T19:29:49Z</time>
      </trkpt>
      <trkpt lat="42.3040250" lon="1.7554700">
        <ele>1653.3</ele>
        <time>2015-08-12T19:29:52Z</time>
      </trkpt>
      <trkpt lat="42.3039920" lon="1.7554260">
        <ele>1653.5</ele>
        <time>2015-08-12T19:29:55Z</time>
      </trkpt>
      <trkpt lat="42.3039630" lon="1.7553860">
        <ele>1654.1</ele>
        <time>2015-08-12T19:29:58Z</time>
      </trkpt>
      <trkpt lat="42.3039500" lon="1.7553530">
        <ele>1654.2</ele>
        <time>2015-08-12T19:30:02Z</time>
      </trkpt>
      <trkpt lat="42.3039270" lon="1.7553200">
        <ele>1654.7</ele>
        <time>2015-08-12T19:30:05Z</time>
      </trkpt>
      <trkpt lat="42.3039020" lon="1.7552940">
        <ele>1655.3</ele>
        <time>2015-08-12T19:30:07Z</time>
      </trkpt>
      <trkpt lat="42.3038800" lon="1.7552620">
        <ele>1655.7</ele>
        <time>2015-08-12T19:30:11Z</time>
      </trkpt>
      <trkpt lat="42.3038620" lon="1.7552260">
        <ele>1655.8</ele>
        <time>2015-08-12T19:30:14Z</time>
      </trkpt>
      <trkpt lat="42.3038320" lon="1.7551950">
        <ele>1656.4</ele>
        <time>2015-08-12T19:30:18Z</time>
      </trkpt>
      <trkpt lat="42.3038160" lon="1.7551600">
        <ele>1656.4</ele>
        <time>2015-08-12T19:30:21Z</time>
      </trkpt>
      <trkpt lat="42.3037830" lon="1.7551240">
        <ele>1656.9</ele>
        <time>2015-08-12T19:30:24Z</time>
      </trkpt>
      <trkpt lat="42.3037670" lon="1.7550880">
        <ele>1656.8</ele>
        <time>2015-08-12T19:30:27Z</time>
      </trkpt>
      <trkpt lat="42.3037370" lon="1.7550740">
        <ele>1657.4</ele>
        <time>2015-08-12T19:30:29Z</time>
      </trkpt>
      <trkpt lat="42.3037130" lon="1.7550560">
        <ele>1657.8</ele>
        <time>2015-08-12T19:30:31Z</time>
      </trkpt>
      <trkpt lat="42.3036820" lon="1.7550250">
        <ele>1658.2</ele>
        <time>2015-08-12T19:30:34Z</time>
      </trkpt>
      <trkpt lat="42.3036520" lon="1.7550000">
        <ele>1658.6</ele>
        <time>2015-08-12T19:30:37Z</time>
      </trkpt>
      <trkpt lat="42.3036310" lon="1.7549760">
        <ele>1658.9</ele>
        <time>2015-08-12T19:30:39Z</time>
      </trkpt>
      <trkpt lat="42.3036080" lon="1.7549530">
        <ele>1659.3</ele>
        <time>2015-08-12T19:30:41Z</time>
      </trkpt>
      <trkpt lat="42.3035790" lon="1.7549320">
        <ele>1659.9</ele>
        <time>2015-08-12T19:30:43Z</time>
      </trkpt>
      <trkpt lat="42.3035510" lon="1.7549160">
        <ele>1660.5</ele>
        <time>2015-08-12T19:30:45Z</time>
      </trkpt>
      <trkpt lat="42.3035160" lon="1.7548920">
        <ele>1661.2</ele>
        <time>2015-08-12T19:30:49Z</time>
      </trkpt>
      <trkpt lat="42.3034890" lon="1.7548850">
        <ele>1662.0</ele>
        <time>2015-08-12T19:30:51Z</time>
      </trkpt>
      <trkpt lat="42.3034550" lon="1.7548980">
        <ele>1663.1</ele>
        <time>2015-08-12T19:30:55Z</time>
      </trkpt>
      <trkpt lat="42.3034270" lon="1.7549030">
        <ele>1663.9</ele>
        <time>2015-08-12T19:30:57Z</time>
      </trkpt>
      <trkpt lat="42.3033980" lon="1.7548860">
        <ele>1664.6</ele>
        <time>2015-08-12T19:30:59Z</time>
      </trkpt>
      <trkpt lat="42.3033620" lon="1.7548810">
        <ele>1665.6</ele>
        <time>2015-08-12T19:31:02Z</time>
      </trkpt>
      <trkpt lat="42.3033350" lon="1.7548670">
        <ele>1666.3</ele>
        <time>2015-08-12T19:31:04Z</time>
      </trkpt>
      <trkpt lat="42.3033080" lon="1.7548590">
        <ele>1667.1</ele>
        <time>2015-08-12T19:31:06Z</time>
      </trkpt>
      <trkpt lat="42.3032710" lon="1.7548470">
        <ele>1668.1</ele>
        <time>2015-08-12T19:31:09Z</time>
      </trkpt>
      <trkpt lat="42.3032460" lon="1.7548320">
        <ele>1668.8</ele>
        <time>2015-08-12T19:31:11Z</time>
      </trkpt>
      <trkpt lat="42.3032180" lon="1.7548280">
        <ele>1669.6</ele>
        <time>2015-08-12T19:31:13Z</time>
      </trkpt>
      <trkpt lat="42.3031900" lon="1.7548200">
        <ele>1670.4</ele>
        <time>2015-08-12T19:31:15Z</time>
      </trkpt>
      <trkpt lat="42.3031530" lon="1.7548070">
        <ele>1671.5</ele>
        <time>2015-08-12T19:31:18Z</time>
      </trkpt>
      <trkpt lat="42.3031150" lon="1.7547950">
        <ele>1672.6</ele>
        <time>2015-08-12T19:31:21Z</time>
      </trkpt>
      <trkpt lat="42.3030800" lon="1.7547840">
        <ele>1673.7</ele>
        <time>2015-08-12T19:31:23Z</time>
      </trkpt>
      <trkpt lat="42.3030460" lon="1.7547780">
        <ele>1674.7</ele>
        <time>2015-08-12T19:31:26Z</time>
      </trkpt>
      <trkpt lat="42.3030060" lon="1.7547930">
        <ele>1676.0</ele>
        <time>2015-08-12T19:31:29Z</time>
      </trkpt>
      <trkpt lat="42.3029720" lon="1.7547960">
        <ele>1677.0</ele>
        <time>2015-08-12T19:31:31Z</time>
      </trkpt>
      <trkpt lat="42.3029340" lon="1.7548100">
        <ele>1678.2</ele>
        <time>2015-08-12T19:31:34Z</time>
      </trkpt>
      <trkpt lat="42.3028990" lon="1.7548180">
        <ele>1679.1</ele>
        <time>2015-08-12T19:31:37Z</time>
      </trkpt>
      <trkpt lat="42.3028710" lon="1.7548160">
        <ele>1679.8</ele>
        <time>2015-08-12T19:31:39Z</time>
      </trkpt>
      <trkpt lat="42.3028380" lon="1.7548200">
        <ele>1680.5</ele>
        <time>2015-08-12T19:31:41Z</time>
      </trkpt>
      <trkpt lat="42.3028030" lon="1.7548450">
        <ele>1681.2</ele>
        <time>2015-08-12T19:31:43Z</time>
      </trkpt>
      <trkpt lat="42.3027580" lon="1.7548850">
        <ele>1682.2</ele>
        <time>2015-08-12T19:31:45Z</time>
      </trkpt>
      <trkpt lat="42.3027360" lon="1.7549100">
        <ele>1682.6</ele>
        <time>2015-08-12T19:31:50Z</time>
      </trkpt>
      <trkpt lat="42.3027080" lon="1.7549010">
        <ele>1683.2</ele>
        <time>2015-08-12T19:31:52Z</time>
      </trkpt>
      <trkpt lat="42.3026630" lon="1.7548730">
        <ele>1684.3</ele>
        <time>2015-08-12T19:31:55Z</time>
      </trkpt>
      <trkpt lat="42.3026280" lon="1.7548720">
        <ele>1685.1</ele>
        <time>2015-08-12T19:31:58Z</time>
      </trkpt>
      <trkpt lat="42.3025910" lon="1.7548480">
        <ele>1686.0</ele>
        <time>2015-08-12T19:32:00Z</time>
      </trkpt>
      <trkpt lat="42.3025600" lon="1.7548160">
        <ele>1686.8</ele>
        <time>2015-08-12T19:32:02Z</time>
      </trkpt>
      <trkpt lat="42.3025270" lon="1.7547970">
        <ele>1687.6</ele>
        <time>2015-08-12T19:32:04Z</time>
      </trkpt>
      <trkpt lat="42.3024930" lon="1.7547770">
        <ele>1688.5</ele>
        <time>2015-08-12T19:32:06Z</time>
      </trkpt>
      <trkpt lat="42.3024630" lon="1.7547540">
        <ele>1689.2</ele>
        <time>2015-08-12T19:32:08Z</time>
      </trkpt>
      <trkpt lat="42.3024410" lon="1.7546950">
        <ele>1690.0</ele>
        <time>2015-08-12T19:32:10Z</time>
      </trkpt>
      <trkpt lat="42.3024160" lon="1.7546460">
        <ele>1690.8</ele>
        <time>2015-08-12T19:32:12Z</time>
      </trkpt>
      <trkpt lat="42.3024050" lon="1.7546080">
        <ele>1691.2</ele>
        <time>2015-08-12T19:32:13Z</time>
      </trkpt>
      <trkpt lat="42.3023900" lon="1.7545710">
        <ele>1691.8</ele>
        <time>2015-08-12T19:32:14Z</time>
      </trkpt>
      <trkpt lat="42.3023790" lon="1.7545110">
        <ele>1692.6</ele>
        <time>2015-08-12T19:32:16Z</time>
      </trkpt>
      <trkpt lat="42.3024030" lon="1.7544700">
        <ele>1692.4</ele>
        <time>2015-08-12T19:32:19Z</time>
      </trkpt>
      <trkpt lat="42.3024190" lon="1.7544400">
        <ele>1692.2</ele>
        <time>2015-08-12T19:32:21Z</time>
      </trkpt>
      <trkpt lat="42.3024330" lon="1.7543930">
        <ele>1692.3</ele>
        <time>2015-08-12T19:32:25Z</time>
      </trkpt>
      <trkpt lat="42.3024470" lon="1.7543470">
        <ele>1692.4</ele>
        <time>2015-08-12T19:32:27Z</time>
      </trkpt>
      <trkpt lat="42.3024780" lon="1.7543420">
        <ele>1691.6</ele>
        <time>2015-08-12T19:32:28Z</time>
      </trkpt>
      <trkpt lat="42.3024970" lon="1.7543030">
        <ele>1691.4</ele>
        <time>2015-08-12T19:32:30Z</time>
      </trkpt>
      <trkpt lat="42.3025090" lon="1.7542680">
        <ele>1691.4</ele>
        <time>2015-08-12T19:32:32Z</time>
      </trkpt>
      <trkpt lat="42.3025400" lon="1.7542660">
        <ele>1690.6</ele>
        <time>2015-08-12T19:32:35Z</time>
      </trkpt>
      <trkpt lat="42.3025740" lon="1.7542700">
        <ele>1689.7</ele>
        <time>2015-08-12T19:32:37Z</time>
      </trkpt>
      <trkpt lat="42.3025990" lon="1.7542420">
        <ele>1689.2</ele>
        <time>2015-08-12T19:32:38Z</time>
      </trkpt>
      <trkpt lat="42.3026280" lon="1.7542040">
        <ele>1688.7</ele>
        <time>2015-08-12T19:32:39Z</time>
      </trkpt>
      <trkpt lat="42.3026540" lon="1.7541910">
        <ele>1688.1</ele>
        <time>2015-08-12T19:32:41Z</time>
      </trkpt>
      <trkpt lat="42.3026770" lon="1.7541660">
        <ele>1687.6</ele>
        <time>2015-08-12T19:32:43Z</time>
      </trkpt>
      <trkpt lat="42.3027020" lon="1.7541270">
        <ele>1687.2</ele>
        <time>2015-08-12T19:32:45Z</time>
      </trkpt>
      <trkpt lat="42.3027230" lon="1.7540950">
        <ele>1686.8</ele>
        <time>2015-08-12T19:32:47Z</time>
      </trkpt>
      <trkpt lat="42.3027590" lon="1.7540660">
        <ele>1686.0</ele>
        <time>2015-08-12T19:32:49Z</time>
      </trkpt>
      <trkpt lat="42.3027880" lon="1.7540330">
        <ele>1685.3</ele>
        <time>2015-08-12T19:32:53Z</time>
      </trkpt>
      <trkpt lat="42.3028160" lon="1.7540050">
        <ele>1684.7</ele>
        <time>2015-08-12T19:32:55Z</time>
      </trkpt>
      <trkpt lat="42.3028350" lon="1.7539580">
        <ele>1684.4</ele>
        <time>2015-08-12T19:32:58Z</time>
      </trkpt>
      <trkpt lat="42.3028560" lon="1.7539230">
        <ele>1684.0</ele>
        <time>2015-08-12T19:33:00Z</time>
      </trkpt>
      <trkpt lat="42.3028710" lon="1.7538830">
        <ele>1683.7</ele>
        <time>2015-08-12T19:33:02Z</time>
      </trkpt>
      <trkpt lat="42.3028700" lon="1.7538360">
        <ele>1684.0</ele>
        <time>2015-08-12T19:33:05Z</time>
      </trkpt>
      <trkpt lat="42.3029040" lon="1.7538220">
        <ele>1683.0</ele>
        <time>2015-08-12T19:33:07Z</time>
      </trkpt>
      <trkpt lat="42.3029350" lon="1.7538000">
        <ele>1682.2</ele>
        <time>2015-08-12T19:33:09Z</time>
      </trkpt>
      <trkpt lat="42.3029750" lon="1.7538010">
        <ele>1680.9</ele>
        <time>2015-08-12T19:33:11Z</time>
      </trkpt>
      <trkpt lat="42.3030130" lon="1.7537850">
        <ele>1679.8</ele>
        <time>2015-08-12T19:33:12Z</time>
      </trkpt>
      <trkpt lat="42.3030290" lon="1.7537510">
        <ele>1679.5</ele>
        <time>2015-08-12T19:33:14Z</time>
      </trkpt>
      <trkpt lat="42.3030140" lon="1.7537160">
        <ele>1679.8</ele>
        <time>2015-08-12T19:33:17Z</time>
      </trkpt>
      <trkpt lat="42.3029970" lon="1.7536780">
        <ele>1680.0</ele>
        <time>2015-08-12T19:33:19Z</time>
      </trkpt>
      <trkpt lat="42.3029830" lon="1.7536340">
        <ele>1680.1</ele>
        <time>2015-08-12T19:33:23Z</time>
      </trkpt>
      <trkpt lat="42.3029580" lon="1.7536130">
        <ele>1680.7</ele>
        <time>2015-08-12T19:33:26Z</time>
      </trkpt>
      <trkpt lat="42.3029210" lon="1.7535790">
        <ele>1681.4</ele>
        <time>2015-08-12T19:33:28Z</time>
      </trkpt>
      <trkpt lat="42.3029010" lon="1.7535440">
        <ele>1681.7</ele>
        <time>2015-08-12T19:33:29Z</time>
      </trkpt>
      <trkpt lat="42.3028790" lon="1.7534950">
        <ele>1681.9</ele>
        <time>2015-08-12T19:33:32Z</time>
      </trkpt>
      <trkpt lat="42.3028410" lon="1.7534700">
        <ele>1682.8</ele>
        <time>2015-08-12T19:33:35Z</time>
      </trkpt>
      <trkpt lat="42.3028120" lon="1.7534460">
        <ele>1683.3</ele>
        <time>2015-08-12T19:33:39Z</time>
      </trkpt>
      <trkpt lat="42.3027880" lon="1.7534240">
        <ele>1683.8</ele>
        <time>2015-08-12T19:33:41Z</time>
      </trkpt>
      <trkpt lat="42.3027670" lon="1.7533980">
        <ele>1684.1</ele>
        <time>2015-08-12T19:33:44Z</time>
      </trkpt>
      <trkpt lat="42.3027500" lon="1.7533680">
        <ele>1684.3</ele>
        <time>2015-08-12T19:33:47Z</time>
      </trkpt>
      <trkpt lat="42.3027120" lon="1.7533480">
        <ele>1685.1</ele>
        <time>2015-08-12T19:33:50Z</time>
      </trkpt>
      <trkpt lat="42.3026820" lon="1.7533240">
        <ele>1685.6</ele>
        <time>2015-08-12T19:33:53Z</time>
      </trkpt>
      <trkpt lat="42.3026530" lon="1.7533030">
        <ele>1686.1</ele>
        <time>2015-08-12T19:33:59Z</time>
      </trkpt>
      <trkpt lat="42.3026310" lon="1.7532790">
        <ele>1686.4</ele>
        <time>2015-08-12T19:34:03Z</time>
      </trkpt>
      <trkpt lat="42.3025950" lon="1.7532540">
        <ele>1687.0</ele>
        <time>2015-08-12T19:34:07Z</time>
      </trkpt>
      <trkpt lat="42.3025830" lon="1.7532190">
        <ele>1686.9</ele>
        <time>2015-08-12T19:34:09Z</time>
      </trkpt>
      <trkpt lat="42.3025560" lon="1.7532040">
        <ele>1687.4</ele>
        <time>2015-08-12T19:34:11Z</time>
      </trkpt>
      <trkpt lat="42.3025170" lon="1.7531990">
        <ele>1688.3</ele>
        <time>2015-08-12T19:34:14Z</time>
      </trkpt>
      <trkpt lat="42.3024930" lon="1.7531630">
        <ele>1688.4</ele>
        <time>2015-08-12T19:34:16Z</time>
      </trkpt>
      <trkpt lat="42.3024690" lon="1.7531330">
        <ele>1688.6</ele>
        <time>2015-08-12T19:34:18Z</time>
      </trkpt>
      <trkpt lat="42.3024410" lon="1.7531400">
        <ele>1689.4</ele>
        <time>2015-08-12T19:34:22Z</time>
      </trkpt>
      <trkpt lat="42.3024170" lon="1.7530930">
        <ele>1689.3</ele>
        <time>2015-08-12T19:34:24Z</time>
      </trkpt>
      <trkpt lat="42.3023810" lon="1.7530740">
        <ele>1689.9</ele>
        <time>2015-08-12T19:34:26Z</time>
      </trkpt>
      <trkpt lat="42.3023530" lon="1.7530810">
        <ele>1690.6</ele>
        <time>2015-08-12T19:34:28Z</time>
      </trkpt>
      <trkpt lat="42.3023230" lon="1.7530630">
        <ele>1691.1</ele>
        <time>2015-08-12T19:34:30Z</time>
      </trkpt>
      <trkpt lat="42.3022920" lon="1.7530630">
        <ele>1691.8</ele>
        <time>2015-08-12T19:34:33Z</time>
      </trkpt>
      <trkpt lat="42.3022660" lon="1.7530430">
        <ele>1692.1</ele>
        <time>2015-08-12T19:34:36Z</time>
      </trkpt>
      <trkpt lat="42.3022410" lon="1.7529960">
        <ele>1691.9</ele>
        <time>2015-08-12T19:34:39Z</time>
      </trkpt>
      <trkpt lat="42.3022210" lon="1.7529590">
        <ele>1691.7</ele>
        <time>2015-08-12T19:34:42Z</time>
      </trkpt>
      <trkpt lat="42.3022040" lon="1.7529190">
        <ele>1691.4</ele>
        <time>2015-08-12T19:34:45Z</time>
      </trkpt>
      <trkpt lat="42.3021930" lon="1.7528820">
        <ele>1691.5</ele>
        <time>2015-08-12T19:34:47Z</time>
      </trkpt>
      <trkpt lat="42.3021710" lon="1.7528310">
        <ele>1691.9</ele>
        <time>2015-08-12T19:34:49Z</time>
      </trkpt>
      <trkpt lat="42.3021390" lon="1.7528070">
        <ele>1692.4</ele>
        <time>2015-08-12T19:34:51Z</time>
      </trkpt>
      <trkpt lat="42.3021060" lon="1.7527790">
        <ele>1692.9</ele>
        <time>2015-08-12T19:34:54Z</time>
      </trkpt>
      <trkpt lat="42.3020810" lon="1.7527530">
        <ele>1693.3</ele>
        <time>2015-08-12T19:34:56Z</time>
      </trkpt>
      <trkpt lat="42.3020320" lon="1.7527160">
        <ele>1694.3</ele>
        <time>2015-08-12T19:34:59Z</time>
      </trkpt>
      <trkpt lat="42.3020080" lon="1.7526940">
        <ele>1694.8</ele>
        <time>2015-08-12T19:35:00Z</time>
      </trkpt>
      <trkpt lat="42.3019830" lon="1.7526700">
        <ele>1695.3</ele>
        <time>2015-08-12T19:35:02Z</time>
      </trkpt>
      <trkpt lat="42.3019630" lon="1.7526340">
        <ele>1695.6</ele>
        <time>2015-08-12T19:35:04Z</time>
      </trkpt>
      <trkpt lat="42.3019470" lon="1.7525940">
        <ele>1695.8</ele>
        <time>2015-08-12T19:35:05Z</time>
      </trkpt>
      <trkpt lat="42.3019110" lon="1.7525530">
        <ele>1696.5</ele>
        <time>2015-08-12T19:35:07Z</time>
      </trkpt>
      <trkpt lat="42.3018740" lon="1.7525160">
        <ele>1697.2</ele>
        <time>2015-08-12T19:35:10Z</time>
      </trkpt>
      <trkpt lat="42.3018390" lon="1.7525090">
        <ele>1698.1</ele>
        <time>2015-08-12T19:35:12Z</time>
      </trkpt>
      <trkpt lat="42.3018050" lon="1.7524940">
        <ele>1698.8</ele>
        <time>2015-08-12T19:35:14Z</time>
      </trkpt>
      <trkpt lat="42.3017620" lon="1.7524860">
        <ele>1699.8</ele>
        <time>2015-08-12T19:35:16Z</time>
      </trkpt>
      <trkpt lat="42.3017290" lon="1.7524600">
        <ele>1700.5</ele>
        <time>2015-08-12T19:35:18Z</time>
      </trkpt>
      <trkpt lat="42.3017000" lon="1.7524640">
        <ele>1701.3</ele>
        <time>2015-08-12T19:35:21Z</time>
      </trkpt>
      <trkpt lat="42.3016730" lon="1.7524610">
        <ele>1701.9</ele>
        <time>2015-08-12T19:35:25Z</time>
      </trkpt>
      <trkpt lat="42.3016530" lon="1.7524310">
        <ele>1702.3</ele>
        <time>2015-08-12T19:35:27Z</time>
      </trkpt>
      <trkpt lat="42.3016280" lon="1.7524070">
        <ele>1702.8</ele>
        <time>2015-08-12T19:35:30Z</time>
      </trkpt>
      <trkpt lat="42.3015890" lon="1.7523720">
        <ele>1703.6</ele>
        <time>2015-08-12T19:35:33Z</time>
      </trkpt>
      <trkpt lat="42.3015580" lon="1.7523510">
        <ele>1704.3</ele>
        <time>2015-08-12T19:35:36Z</time>
      </trkpt>
      <trkpt lat="42.3015300" lon="1.7523270">
        <ele>1704.9</ele>
        <time>2015-08-12T19:35:40Z</time>
      </trkpt>
      <trkpt lat="42.3015110" lon="1.7522970">
        <ele>1705.3</ele>
        <time>2015-08-12T19:35:43Z</time>
      </trkpt>
      <trkpt lat="42.3014850" lon="1.7522680">
        <ele>1705.8</ele>
        <time>2015-08-12T19:35:46Z</time>
      </trkpt>
      <trkpt lat="42.3014610" lon="1.7522330">
        <ele>1706.3</ele>
        <time>2015-08-12T19:35:49Z</time>
      </trkpt>
      <trkpt lat="42.3014400" lon="1.7522070">
        <ele>1706.7</ele>
        <time>2015-08-12T19:35:51Z</time>
      </trkpt>
      <trkpt lat="42.3014210" lon="1.7521770">
        <ele>1707.1</ele>
        <time>2015-08-12T19:35:53Z</time>
      </trkpt>
      <trkpt lat="42.3013940" lon="1.7521470">
        <ele>1707.6</ele>
        <time>2015-08-12T19:35:56Z</time>
      </trkpt>
      <trkpt lat="42.3013700" lon="1.7521090">
        <ele>1708.1</ele>
        <time>2015-08-12T19:35:59Z</time>
      </trkpt>
      <trkpt lat="42.3013500" lon="1.7520700">
        <ele>1708.6</ele>
        <time>2015-08-12T19:36:02Z</time>
      </trkpt>
      <trkpt lat="42.3013200" lon="1.7520220">
        <ele>1709.9</ele>
        <time>2015-08-12T19:36:05Z</time>
      </trkpt>
      <trkpt lat="42.3013150" lon="1.7519730">
        <ele>1710.6</ele>
        <time>2015-08-12T19:36:09Z</time>
      </trkpt>
      <trkpt lat="42.3013030" lon="1.7519400">
        <ele>1711.3</ele>
        <time>2015-08-12T19:36:14Z</time>
      </trkpt>
      <trkpt lat="42.3013190" lon="1.7519060">
        <ele>1711.3</ele>
        <time>2015-08-12T19:39:58Z</time>
      </trkpt>
      <trkpt lat="42.3013370" lon="1.7518740">
        <ele>1711.3</ele>
        <time>2015-08-12T19:40:00Z</time>
      </trkpt>
      <trkpt lat="42.3013520" lon="1.7518270">
        <ele>1711.5</ele>
        <time>2015-08-12T19:40:03Z</time>
      </trkpt>
      <trkpt lat="42.3013570" lon="1.7517820">
        <ele>1711.9</ele>
        <time>2015-08-12T19:40:06Z</time>
      </trkpt>
      <trkpt lat="42.3013610" lon="1.7517370">
        <ele>1712.3</ele>
        <time>2015-08-12T19:40:08Z</time>
      </trkpt>
      <trkpt lat="42.3013640" lon="1.7516920">
        <ele>1712.8</ele>
        <time>2015-08-12T19:40:11Z</time>
      </trkpt>
      <trkpt lat="42.3013710" lon="1.7516560">
        <ele>1713.1</ele>
        <time>2015-08-12T19:40:13Z</time>
      </trkpt>
      <trkpt lat="42.3013730" lon="1.7516140">
        <ele>1713.6</ele>
        <time>2015-08-12T19:40:16Z</time>
      </trkpt>
      <trkpt lat="42.3013960" lon="1.7515750">
        <ele>1713.6</ele>
        <time>2015-08-12T19:40:19Z</time>
      </trkpt>
      <trkpt lat="42.3014060" lon="1.7515420">
        <ele>1713.8</ele>
        <time>2015-08-12T19:40:21Z</time>
      </trkpt>
      <trkpt lat="42.3014130" lon="1.7515040">
        <ele>1714.1</ele>
        <time>2015-08-12T19:40:24Z</time>
      </trkpt>
      <trkpt lat="42.3014310" lon="1.7514710">
        <ele>1714.2</ele>
        <time>2015-08-12T19:40:26Z</time>
      </trkpt>
      <trkpt lat="42.3014510" lon="1.7514220">
        <ele>1714.4</ele>
        <time>2015-08-12T19:40:29Z</time>
      </trkpt>
      <trkpt lat="42.3014700" lon="1.7513870">
        <ele>1714.5</ele>
        <time>2015-08-12T19:40:32Z</time>
      </trkpt>
      <trkpt lat="42.3014700" lon="1.7513270">
        <ele>1715.3</ele>
        <time>2015-08-12T19:40:35Z</time>
      </trkpt>
      <trkpt lat="42.3014960" lon="1.7512820">
        <ele>1715.4</ele>
        <time>2015-08-12T19:40:38Z</time>
      </trkpt>
      <trkpt lat="42.3015070" lon="1.7512420">
        <ele>1715.8</ele>
        <time>2015-08-12T19:40:40Z</time>
      </trkpt>
      <trkpt lat="42.3015240" lon="1.7512010">
        <ele>1716.1</ele>
        <time>2015-08-12T19:40:42Z</time>
      </trkpt>
      <trkpt lat="42.3015500" lon="1.7511490">
        <ele>1716.5</ele>
        <time>2015-08-12T19:40:45Z</time>
      </trkpt>
      <trkpt lat="42.3015710" lon="1.7511090">
        <ele>1716.8</ele>
        <time>2015-08-12T19:40:47Z</time>
      </trkpt>
      <trkpt lat="42.3015990" lon="1.7510900">
        <ele>1716.7</ele>
        <time>2015-08-12T19:40:49Z</time>
      </trkpt>
      <trkpt lat="42.3016210" lon="1.7510700">
        <ele>1716.7</ele>
        <time>2015-08-12T19:40:51Z</time>
      </trkpt>
      <trkpt lat="42.3016550" lon="1.7510220">
        <ele>1717.0</ele>
        <time>2015-08-12T19:40:54Z</time>
      </trkpt>
      <trkpt lat="42.3016840" lon="1.7510120">
        <ele>1716.8</ele>
        <time>2015-08-12T19:40:56Z</time>
      </trkpt>
      <trkpt lat="42.3018260" lon="1.7505560">
        <ele>1723.3</ele>
        <time>2015-08-12T19:41:25Z</time>
      </trkpt>
      <trkpt lat="42.3018920" lon="1.7506070">
        <ele>1721.7</ele>
        <time>2015-08-12T19:41:27Z</time>
      </trkpt>
      <trkpt lat="42.3019140" lon="1.7505860">
        <ele>1721.9</ele>
        <time>2015-08-12T19:41:28Z</time>
      </trkpt>
      <trkpt lat="42.3019030" lon="1.7505330">
        <ele>1723.0</ele>
        <time>2015-08-12T19:41:30Z</time>
      </trkpt>
      <trkpt lat="42.3019380" lon="1.7504970">
        <ele>1723.4</ele>
        <time>2015-08-12T19:41:33Z</time>
      </trkpt>
      <trkpt lat="42.3019430" lon="1.7504520">
        <ele>1724.3</ele>
        <time>2015-08-12T19:41:35Z</time>
      </trkpt>
      <trkpt lat="42.3019540" lon="1.7503930">
        <ele>1725.6</ele>
        <time>2015-08-12T19:41:38Z</time>
      </trkpt>
      <trkpt lat="42.3019730" lon="1.7503430">
        <ele>1726.9</ele>
        <time>2015-08-12T19:41:40Z</time>
      </trkpt>
      <trkpt lat="42.3020150" lon="1.7503080">
        <ele>1727.6</ele>
        <time>2015-08-12T19:41:43Z</time>
      </trkpt>
      <trkpt lat="42.3020490" lon="1.7502880">
        <ele>1727.9</ele>
        <time>2015-08-12T19:41:45Z</time>
      </trkpt>
      <trkpt lat="42.3020950" lon="1.7502420">
        <ele>1729.0</ele>
        <time>2015-08-12T19:41:49Z</time>
      </trkpt>
      <trkpt lat="42.3021290" lon="1.7502380">
        <ele>1729.0</ele>
        <time>2015-08-12T19:41:52Z</time>
      </trkpt>
      <trkpt lat="42.3021550" lon="1.7502150">
        <ele>1729.6</ele>
        <time>2015-08-12T19:41:54Z</time>
      </trkpt>
      <trkpt lat="42.3021920" lon="1.7502460">
        <ele>1728.6</ele>
        <time>2015-08-12T19:41:57Z</time>
      </trkpt>
      <trkpt lat="42.3022300" lon="1.7502540">
        <ele>1728.3</ele>
        <time>2015-08-12T19:42:02Z</time>
      </trkpt>
      <trkpt lat="42.3022510" lon="1.7502850">
        <ele>1727.3</ele>
        <time>2015-08-12T19:42:04Z</time>
      </trkpt>
      <trkpt lat="42.3022750" lon="1.7503110">
        <ele>1726.5</ele>
        <time>2015-08-12T19:42:06Z</time>
      </trkpt>
      <trkpt lat="42.3022980" lon="1.7503390">
        <ele>1725.7</ele>
        <time>2015-08-12T19:42:08Z</time>
      </trkpt>
      <trkpt lat="42.3023210" lon="1.7503770">
        <ele>1724.5</ele>
        <time>2015-08-12T19:42:10Z</time>
      </trkpt>
      <trkpt lat="42.3023410" lon="1.7504150">
        <ele>1723.4</ele>
        <time>2015-08-12T19:42:12Z</time>
      </trkpt>
      <trkpt lat="42.3023500" lon="1.7504560">
        <ele>1722.5</ele>
        <time>2015-08-12T19:42:14Z</time>
      </trkpt>
      <trkpt lat="42.3023880" lon="1.7504710">
        <ele>1722.1</ele>
        <time>2015-08-12T19:42:16Z</time>
      </trkpt>
      <trkpt lat="42.3024220" lon="1.7504960">
        <ele>1721.5</ele>
        <time>2015-08-12T19:42:19Z</time>
      </trkpt>
      <trkpt lat="42.3024500" lon="1.7505250">
        <ele>1720.8</ele>
        <time>2015-08-12T19:42:23Z</time>
      </trkpt>
      <trkpt lat="42.3024790" lon="1.7505250">
        <ele>1720.8</ele>
        <time>2015-08-12T19:42:24Z</time>
      </trkpt>
      <trkpt lat="42.3025010" lon="1.7504620">
        <ele>1722.0</ele>
        <time>2015-08-12T19:42:25Z</time>
      </trkpt>
      <trkpt lat="42.3025110" lon="1.7505170">
        <ele>1720.9</ele>
        <time>2015-08-12T19:42:27Z</time>
      </trkpt>
      <trkpt lat="42.3025560" lon="1.7505170">
        <ele>1720.8</ele>
        <time>2015-08-12T19:42:29Z</time>
      </trkpt>
      <trkpt lat="42.3025690" lon="1.7505530">
        <ele>1720.0</ele>
        <time>2015-08-12T19:42:31Z</time>
      </trkpt>
      <trkpt lat="42.3026090" lon="1.7505280">
        <ele>1720.4</ele>
        <time>2015-08-12T19:42:34Z</time>
      </trkpt>
      <trkpt lat="42.3026330" lon="1.7504990">
        <ele>1721.0</ele>
        <time>2015-08-12T19:42:36Z</time>
      </trkpt>
      <trkpt lat="42.3026620" lon="1.7504860">
        <ele>1721.2</ele>
        <time>2015-08-12T19:42:38Z</time>
      </trkpt>
      <trkpt lat="42.3027000" lon="1.7504750">
        <ele>1721.3</ele>
        <time>2015-08-12T19:42:40Z</time>
      </trkpt>
      <trkpt lat="42.3027370" lon="1.7503790">
        <ele>1723.4</ele>
        <time>2015-08-12T19:42:47Z</time>
      </trkpt>
      <trkpt lat="42.3027470" lon="1.7503250">
        <ele>1724.9</ele>
        <time>2015-08-12T19:42:51Z</time>
      </trkpt>
      <trkpt lat="42.3027720" lon="1.7503000">
        <ele>1725.5</ele>
        <time>2015-08-12T19:42:54Z</time>
      </trkpt>
      <trkpt lat="42.3027710" lon="1.7502610">
        <ele>1726.5</ele>
        <time>2015-08-12T19:42:56Z</time>
      </trkpt>
      <trkpt lat="42.3027680" lon="1.7501970">
        <ele>1728.3</ele>
        <time>2015-08-12T19:42:59Z</time>
      </trkpt>
      <trkpt lat="42.3028060" lon="1.7501780">
        <ele>1728.6</ele>
        <time>2015-08-12T19:43:01Z</time>
      </trkpt>
      <trkpt lat="42.3028340" lon="1.7501460">
        <ele>1729.4</ele>
        <time>2015-08-12T19:43:05Z</time>
      </trkpt>
      <trkpt lat="42.3028660" lon="1.7501180">
        <ele>1730.0</ele>
        <time>2015-08-12T19:43:08Z</time>
      </trkpt>
      <trkpt lat="42.3028890" lon="1.7500760">
        <ele>1731.1</ele>
        <time>2015-08-12T19:43:11Z</time>
      </trkpt>
      <trkpt lat="42.3029190" lon="1.7500630">
        <ele>1731.3</ele>
        <time>2015-08-12T19:43:13Z</time>
      </trkpt>
      <trkpt lat="42.3029340" lon="1.7500220">
        <ele>1732.4</ele>
        <time>2015-08-12T19:43:15Z</time>
      </trkpt>
      <trkpt lat="42.3029500" lon="1.7499740">
        <ele>1733.6</ele>
        <time>2015-08-12T19:43:17Z</time>
      </trkpt>
      <trkpt lat="42.3029700" lon="1.7499360">
        <ele>1734.5</ele>
        <time>2015-08-12T19:43:19Z</time>
      </trkpt>
      <trkpt lat="42.3029990" lon="1.7498770">
        <ele>1736.0</ele>
        <time>2015-08-12T19:43:21Z</time>
      </trkpt>
      <trkpt lat="42.3030240" lon="1.7498520">
        <ele>1736.6</ele>
        <time>2015-08-12T19:43:23Z</time>
      </trkpt>
      <trkpt lat="42.3030510" lon="1.7498420">
        <ele>1736.7</ele>
        <time>2015-08-12T19:43:25Z</time>
      </trkpt>
      <trkpt lat="42.3030770" lon="1.7498250">
        <ele>1737.1</ele>
        <time>2015-08-12T19:43:28Z</time>
      </trkpt>
      <trkpt lat="42.3030860" lon="1.7497880">
        <ele>1738.0</ele>
        <time>2015-08-12T19:43:30Z</time>
      </trkpt>
      <trkpt lat="42.3031070" lon="1.7497620">
        <ele>1738.6</ele>
        <time>2015-08-12T19:43:32Z</time>
      </trkpt>
      <trkpt lat="42.3031440" lon="1.7497510">
        <ele>1738.7</ele>
        <time>2015-08-12T19:43:35Z</time>
      </trkpt>
      <trkpt lat="42.3031560" lon="1.7496990">
        <ele>1740.0</ele>
        <time>2015-08-12T19:43:37Z</time>
      </trkpt>
      <trkpt lat="42.3031840" lon="1.7496540">
        <ele>1741.0</ele>
        <time>2015-08-12T19:43:40Z</time>
      </trkpt>
      <trkpt lat="42.3032010" lon="1.7496140">
        <ele>1741.9</ele>
        <time>2015-08-12T19:43:42Z</time>
      </trkpt>
      <trkpt lat="42.3032240" lon="1.7495890">
        <ele>1742.4</ele>
        <time>2015-08-12T19:43:45Z</time>
      </trkpt>
      <trkpt lat="42.3032360" lon="1.7495230">
        <ele>1743.8</ele>
        <time>2015-08-12T19:43:49Z</time>
      </trkpt>
      <trkpt lat="42.3032080" lon="1.7495260">
        <ele>1743.9</ele>
        <time>2015-08-12T19:43:51Z</time>
      </trkpt>
      <trkpt lat="42.3032370" lon="1.7495140">
        <ele>1743.9</ele>
        <time>2015-08-12T19:43:52Z</time>
      </trkpt>
      <trkpt lat="42.3032440" lon="1.7494750">
        <ele>1744.7</ele>
        <time>2015-08-12T19:43:55Z</time>
      </trkpt>
      <trkpt lat="42.3032310" lon="1.7494230">
        <ele>1745.9</ele>
        <time>2015-08-12T19:43:57Z</time>
      </trkpt>
      <trkpt lat="42.3032250" lon="1.7493800">
        <ele>1746.9</ele>
        <time>2015-08-12T19:44:04Z</time>
      </trkpt>
      <trkpt lat="42.3032020" lon="1.7493590">
        <ele>1747.5</ele>
        <time>2015-08-12T19:44:13Z</time>
      </trkpt>
      <trkpt lat="42.3032010" lon="1.7493230">
        <ele>1748.3</ele>
        <time>2015-08-12T19:44:32Z</time>
      </trkpt>
      <trkpt lat="42.3032010" lon="1.7492840">
        <ele>1749.2</ele>
        <time>2015-08-12T19:44:33Z</time>
      </trkpt>
      <trkpt lat="42.3032000" lon="1.7492400">
        <ele>1750.2</ele>
        <time>2015-08-12T19:44:35Z</time>
      </trkpt>
      <trkpt lat="42.3032340" lon="1.7492030">
        <ele>1750.6</ele>
        <time>2015-08-12T19:44:39Z</time>
      </trkpt>
      <trkpt lat="42.3032470" lon="1.7491650">
        <ele>1751.3</ele>
        <time>2015-08-12T19:44:42Z</time>
      </trkpt>
      <trkpt lat="42.3032540" lon="1.7491140">
        <ele>1752.3</ele>
        <time>2015-08-12T19:44:44Z</time>
      </trkpt>
      <trkpt lat="42.3032710" lon="1.7490740">
        <ele>1752.9</ele>
        <time>2015-08-12T19:44:46Z</time>
      </trkpt>
      <trkpt lat="42.3032870" lon="1.7490390">
        <ele>1753.4</ele>
        <time>2015-08-12T19:44:48Z</time>
      </trkpt>
      <trkpt lat="42.3033120" lon="1.7489990">
        <ele>1753.9</ele>
        <time>2015-08-12T19:44:51Z</time>
      </trkpt>
      <trkpt lat="42.3033210" lon="1.7489520">
        <ele>1754.7</ele>
        <time>2015-08-12T19:44:54Z</time>
      </trkpt>
      <trkpt lat="42.3033250" lon="1.7489130">
        <ele>1755.4</ele>
        <time>2015-08-12T19:44:56Z</time>
      </trkpt>
      <trkpt lat="42.3033380" lon="1.7488810">
        <ele>1755.8</ele>
        <time>2015-08-12T19:44:58Z</time>
      </trkpt>
      <trkpt lat="42.3033530" lon="1.7488370">
        <ele>1756.5</ele>
        <time>2015-08-12T19:45:01Z</time>
      </trkpt>
      <trkpt lat="42.3033630" lon="1.7487880">
        <ele>1757.2</ele>
        <time>2015-08-12T19:45:04Z</time>
      </trkpt>
      <trkpt lat="42.3033710" lon="1.7487390">
        <ele>1758.1</ele>
        <time>2015-08-12T19:45:07Z</time>
      </trkpt>
      <trkpt lat="42.3033900" lon="1.7487060">
        <ele>1758.5</ele>
        <time>2015-08-12T19:45:09Z</time>
      </trkpt>
      <trkpt lat="42.3034050" lon="1.7486620">
        <ele>1759.3</ele>
        <time>2015-08-12T19:45:12Z</time>
      </trkpt>
      <trkpt lat="42.3034250" lon="1.7486280">
        <ele>1759.7</ele>
        <time>2015-08-12T19:45:15Z</time>
      </trkpt>
      <trkpt lat="42.3034500" lon="1.7486120">
        <ele>1759.7</ele>
        <time>2015-08-12T19:45:17Z</time>
      </trkpt>
      <trkpt lat="42.3034900" lon="1.7486210">
        <ele>1758.7</ele>
        <time>2015-08-12T19:45:20Z</time>
      </trkpt>
      <trkpt lat="42.3035190" lon="1.7486340">
        <ele>1757.9</ele>
        <time>2015-08-12T19:45:22Z</time>
      </trkpt>
      <trkpt lat="42.3035470" lon="1.7486590">
        <ele>1756.8</ele>
        <time>2015-08-12T19:45:24Z</time>
      </trkpt>
      <trkpt lat="42.3035670" lon="1.7486900">
        <ele>1755.7</ele>
        <time>2015-08-12T19:45:26Z</time>
      </trkpt>
      <trkpt lat="42.3035840" lon="1.7487320">
        <ele>1754.4</ele>
        <time>2015-08-12T19:45:28Z</time>
      </trkpt>
      <trkpt lat="42.3035920" lon="1.7487770">
        <ele>1753.4</ele>
        <time>2015-08-12T19:45:31Z</time>
      </trkpt>
      <trkpt lat="42.3036130" lon="1.7488170">
        <ele>1752.4</ele>
        <time>2015-08-12T19:45:33Z</time>
      </trkpt>
      <trkpt lat="42.3036220" lon="1.7488530">
        <ele>1751.7</ele>
        <time>2015-08-12T19:45:36Z</time>
      </trkpt>
      <trkpt lat="42.3036310" lon="1.7488880">
        <ele>1751.1</ele>
        <time>2015-08-12T19:45:38Z</time>
      </trkpt>
      <trkpt lat="42.3036410" lon="1.7489290">
        <ele>1750.3</ele>
        <time>2015-08-12T19:45:40Z</time>
      </trkpt>
      <trkpt lat="42.3036530" lon="1.7489790">
        <ele>1749.4</ele>
        <time>2015-08-12T19:45:42Z</time>
      </trkpt>
      <trkpt lat="42.3036670" lon="1.7490110">
        <ele>1748.7</ele>
        <time>2015-08-12T19:45:44Z</time>
      </trkpt>
      <trkpt lat="42.3036950" lon="1.7490290">
        <ele>1748.1</ele>
        <time>2015-08-12T19:45:46Z</time>
      </trkpt>
      <trkpt lat="42.3037120" lon="1.7490580">
        <ele>1747.4</ele>
        <time>2015-08-12T19:45:49Z</time>
      </trkpt>
      <trkpt lat="42.3037290" lon="1.7490930">
        <ele>1746.7</ele>
        <time>2015-08-12T19:45:51Z</time>
      </trkpt>
      <trkpt lat="42.3037430" lon="1.7491360">
        <ele>1746.0</ele>
        <time>2015-08-12T19:45:53Z</time>
      </trkpt>
      <trkpt lat="42.3037560" lon="1.7491820">
        <ele>1745.5</ele>
        <time>2015-08-12T19:45:55Z</time>
      </trkpt>
      <trkpt lat="42.3038080" lon="1.7492380">
        <ele>1746.8</ele>
        <time>2015-08-12T19:46:00Z</time>
      </trkpt>
      <trkpt lat="42.3038340" lon="1.7493030">
        <ele>1746.9</ele>
        <time>2015-08-12T19:46:02Z</time>
      </trkpt>
      <trkpt lat="42.3038550" lon="1.7493510">
        <ele>1747.1</ele>
        <time>2015-08-12T19:46:04Z</time>
      </trkpt>
      <trkpt lat="42.3038590" lon="1.7493900">
        <ele>1746.8</ele>
        <time>2015-08-12T19:46:06Z</time>
      </trkpt>
      <trkpt lat="42.3038750" lon="1.7494280">
        <ele>1747.0</ele>
        <time>2015-08-12T19:46:08Z</time>
      </trkpt>
      <trkpt lat="42.3039110" lon="1.7495330">
        <ele>1747.2</ele>
        <time>2015-08-12T19:46:14Z</time>
      </trkpt>
      <trkpt lat="42.3039240" lon="1.7495740">
        <ele>1747.2</ele>
        <time>2015-08-12T19:46:17Z</time>
      </trkpt>
      <trkpt lat="42.3039390" lon="1.7496330">
        <ele>1746.7</ele>
        <time>2015-08-12T19:46:20Z</time>
      </trkpt>
      <trkpt lat="42.3039520" lon="1.7496720">
        <ele>1746.5</ele>
        <time>2015-08-12T19:46:22Z</time>
      </trkpt>
      <trkpt lat="42.3039540" lon="1.7497420">
        <ele>1745.3</ele>
        <time>2015-08-12T19:46:25Z</time>
      </trkpt>
      <trkpt lat="42.3039550" lon="1.7497790">
        <ele>1744.6</ele>
        <time>2015-08-12T19:46:27Z</time>
      </trkpt>
      <trkpt lat="42.3039440" lon="1.7498190">
        <ele>1743.4</ele>
        <time>2015-08-12T19:46:30Z</time>
      </trkpt>
      <trkpt lat="42.3039460" lon="1.7498760">
        <ele>1742.3</ele>
        <time>2015-08-12T19:46:33Z</time>
      </trkpt>
      <trkpt lat="42.3039370" lon="1.7499210">
        <ele>1741.1</ele>
        <time>2015-08-12T19:46:35Z</time>
      </trkpt>
      <trkpt lat="42.3039510" lon="1.7499880">
        <ele>1740.4</ele>
        <time>2015-08-12T19:46:37Z</time>
      </trkpt>
      <trkpt lat="42.3039230" lon="1.7500130">
        <ele>1738.6</ele>
        <time>2015-08-12T19:46:38Z</time>
      </trkpt>
      <trkpt lat="42.3039340" lon="1.7500740">
        <ele>1737.9</ele>
        <time>2015-08-12T19:46:41Z</time>
      </trkpt>
      <trkpt lat="42.3039480" lon="1.7501290">
        <ele>1737.5</ele>
        <time>2015-08-12T19:46:43Z</time>
      </trkpt>
      <trkpt lat="42.3039710" lon="1.7501780">
        <ele>1737.7</ele>
        <time>2015-08-12T19:46:45Z</time>
      </trkpt>
      <trkpt lat="42.3039810" lon="1.7502260">
        <ele>1737.3</ele>
        <time>2015-08-12T19:46:47Z</time>
      </trkpt>
      <trkpt lat="42.3039810" lon="1.7502670">
        <ele>1736.5</ele>
        <time>2015-08-12T19:46:49Z</time>
      </trkpt>
      <trkpt lat="42.3039930" lon="1.7503210">
        <ele>1736.0</ele>
        <time>2015-08-12T19:46:52Z</time>
      </trkpt>
      <trkpt lat="42.3040120" lon="1.7503520">
        <ele>1736.4</ele>
        <time>2015-08-12T19:46:54Z</time>
      </trkpt>
      <trkpt lat="42.3040300" lon="1.7503890">
        <ele>1736.6</ele>
        <time>2015-08-12T19:46:57Z</time>
      </trkpt>
      <trkpt lat="42.3040400" lon="1.7504270">
        <ele>1736.4</ele>
        <time>2015-08-12T19:47:00Z</time>
      </trkpt>
      <trkpt lat="42.3040100" lon="1.7504730">
        <ele>1734.0</ele>
        <time>2015-08-12T19:47:03Z</time>
      </trkpt>
      <trkpt lat="42.3040350" lon="1.7505260">
        <ele>1734.2</ele>
        <time>2015-08-12T19:47:06Z</time>
      </trkpt>
      <trkpt lat="42.3040550" lon="1.7505720">
        <ele>1734.2</ele>
        <time>2015-08-12T19:47:08Z</time>
      </trkpt>
      <trkpt lat="42.3040560" lon="1.7506200">
        <ele>1733.3</ele>
        <time>2015-08-12T19:47:10Z</time>
      </trkpt>
      <trkpt lat="42.3040830" lon="1.7506620">
        <ele>1733.8</ele>
        <time>2015-08-12T19:47:13Z</time>
      </trkpt>
      <trkpt lat="42.3041030" lon="1.7506950">
        <ele>1734.1</ele>
        <time>2015-08-12T19:47:16Z</time>
      </trkpt>
      <trkpt lat="42.3041340" lon="1.7507200">
        <ele>1735.1</ele>
        <time>2015-08-12T19:47:19Z</time>
      </trkpt>
      <trkpt lat="42.3041480" lon="1.7507530">
        <ele>1735.0</ele>
        <time>2015-08-12T19:47:21Z</time>
      </trkpt>
      <trkpt lat="42.3041690" lon="1.7507820">
        <ele>1735.4</ele>
        <time>2015-08-12T19:47:24Z</time>
      </trkpt>
      <trkpt lat="42.3041710" lon="1.7508190">
        <ele>1734.8</ele>
        <time>2015-08-12T19:47:26Z</time>
      </trkpt>
      <trkpt lat="42.3042120" lon="1.7508500">
        <ele>1736.0</ele>
        <time>2015-08-12T19:47:28Z</time>
      </trkpt>
      <trkpt lat="42.3042180" lon="1.7509230">
        <ele>1734.8</ele>
        <time>2015-08-12T19:47:30Z</time>
      </trkpt>
      <trkpt lat="42.3042220" lon="1.7509640">
        <ele>1734.1</ele>
        <time>2015-08-12T19:47:31Z</time>
      </trkpt>
      <trkpt lat="42.3042530" lon="1.7509930">
        <ele>1734.9</ele>
        <time>2015-08-12T19:47:33Z</time>
      </trkpt>
      <trkpt lat="42.3042880" lon="1.7510230">
        <ele>1735.9</ele>
        <time>2015-08-12T19:47:36Z</time>
      </trkpt>
      <trkpt lat="42.3043110" lon="1.7510750">
        <ele>1735.8</ele>
        <time>2015-08-12T19:47:39Z</time>
      </trkpt>
      <trkpt lat="42.3043440" lon="1.7511080">
        <ele>1736.5</ele>
        <time>2015-08-12T19:47:42Z</time>
      </trkpt>
      <trkpt lat="42.3043720" lon="1.7511220">
        <ele>1737.5</ele>
        <time>2015-08-12T19:47:45Z</time>
      </trkpt>
      <trkpt lat="42.3043840" lon="1.7511580">
        <ele>1737.2</ele>
        <time>2015-08-12T19:47:48Z</time>
      </trkpt>
      <trkpt lat="42.3044150" lon="1.7511700">
        <ele>1738.3</ele>
        <time>2015-08-12T19:47:52Z</time>
      </trkpt>
      <trkpt lat="42.3044590" lon="1.7511800">
        <ele>1740.1</ele>
        <time>2015-08-12T19:47:54Z</time>
      </trkpt>
      <trkpt lat="42.3044730" lon="1.7511380">
        <ele>1741.7</ele>
        <time>2015-08-12T19:47:57Z</time>
      </trkpt>
      <trkpt lat="42.3045090" lon="1.7511420">
        <ele>1743.2</ele>
        <time>2015-08-12T19:48:01Z</time>
      </trkpt>
      <trkpt lat="42.3045390" lon="1.7511370">
        <ele>1744.7</ele>
        <time>2015-08-12T19:48:04Z</time>
      </trkpt>
      <trkpt lat="42.3045600" lon="1.7511680">
        <ele>1744.9</ele>
        <time>2015-08-12T19:48:07Z</time>
      </trkpt>
      <trkpt lat="42.3045920" lon="1.7511820">
        <ele>1746.1</ele>
        <time>2015-08-12T19:48:10Z</time>
      </trkpt>
      <trkpt lat="42.3046390" lon="1.7511920">
        <ele>1748.6</ele>
        <time>2015-08-12T19:48:13Z</time>
      </trkpt>
      <trkpt lat="42.3046710" lon="1.7511980">
        <ele>1750.3</ele>
        <time>2015-08-12T19:48:16Z</time>
      </trkpt>
      <trkpt lat="42.3046990" lon="1.7512270">
        <ele>1751.2</ele>
        <time>2015-08-12T19:48:20Z</time>
      </trkpt>
      <trkpt lat="42.3047250" lon="1.7512380">
        <ele>1752.4</ele>
        <time>2015-08-12T19:48:24Z</time>
      </trkpt>
      <trkpt lat="42.3047530" lon="1.7512520">
        <ele>1753.7</ele>
        <time>2015-08-12T19:48:26Z</time>
      </trkpt>
      <trkpt lat="42.3047760" lon="1.7512860">
        <ele>1753.8</ele>
        <time>2015-08-12T19:48:28Z</time>
      </trkpt>
      <trkpt lat="42.3048260" lon="1.7513350">
        <ele>1754.9</ele>
        <time>2015-08-12T19:48:31Z</time>
      </trkpt>
      <trkpt lat="42.3048670" lon="1.7513590">
        <ele>1756.3</ele>
        <time>2015-08-12T19:48:33Z</time>
      </trkpt>
      <trkpt lat="42.3048960" lon="1.7513810">
        <ele>1757.1</ele>
        <time>2015-08-12T19:48:36Z</time>
      </trkpt>
      <trkpt lat="42.3049230" lon="1.7513970">
        <ele>1758.0</ele>
        <time>2015-08-12T19:48:50Z</time>
      </trkpt>
      <trkpt lat="42.3049450" lon="1.7514350">
        <ele>1757.7</ele>
        <time>2015-08-12T19:49:46Z</time>
      </trkpt>
      <trkpt lat="42.3049660" lon="1.7513990">
        <ele>1760.3</ele>
        <time>2015-08-12T19:49:48Z</time>
      </trkpt>
      <trkpt lat="42.3049980" lon="1.7514060">
        <ele>1761.8</ele>
        <time>2015-08-12T19:49:50Z</time>
      </trkpt>
      <trkpt lat="42.3050270" lon="1.7514220">
        <ele>1762.8</ele>
        <time>2015-08-12T19:49:51Z</time>
      </trkpt>
      <trkpt lat="42.3050660" lon="1.7514350">
        <ele>1764.4</ele>
        <time>2015-08-12T19:49:53Z</time>
      </trkpt>
      <trkpt lat="42.3051010" lon="1.7514580">
        <ele>1765.4</ele>
        <time>2015-08-12T19:49:57Z</time>
      </trkpt>
      <trkpt lat="42.3051160" lon="1.7514890">
        <ele>1765.0</ele>
        <time>2015-08-12T19:49:59Z</time>
      </trkpt>
      <trkpt lat="42.3051570" lon="1.7515120">
        <ele>1766.3</ele>
        <time>2015-08-12T19:50:01Z</time>
      </trkpt>
      <trkpt lat="42.3051630" lon="1.7515580">
        <ele>1764.7</ele>
        <time>2015-08-12T19:50:02Z</time>
      </trkpt>
      <trkpt lat="42.3052110" lon="1.7516120">
        <ele>1765.0</ele>
        <time>2015-08-12T19:50:04Z</time>
      </trkpt>
      <trkpt lat="42.3052280" lon="1.7516520">
        <ele>1764.3</ele>
        <time>2015-08-12T19:50:07Z</time>
      </trkpt>
      <trkpt lat="42.3052410" lon="1.7517090">
        <ele>1762.5</ele>
        <time>2015-08-12T19:50:10Z</time>
      </trkpt>
      <trkpt lat="42.3052670" lon="1.7517500">
        <ele>1762.1</ele>
        <time>2015-08-12T19:50:14Z</time>
      </trkpt>
      <trkpt lat="42.3052950" lon="1.7517730">
        <ele>1762.6</ele>
        <time>2015-08-12T19:50:17Z</time>
      </trkpt>
      <trkpt lat="42.3053300" lon="1.7517940">
        <ele>1763.5</ele>
        <time>2015-08-12T19:50:20Z</time>
      </trkpt>
      <trkpt lat="42.3053500" lon="1.7518450">
        <ele>1762.3</ele>
        <time>2015-08-12T19:50:22Z</time>
      </trkpt>
      <trkpt lat="42.3053690" lon="1.7518880">
        <ele>1761.3</ele>
        <time>2015-08-12T19:50:25Z</time>
      </trkpt>
      <trkpt lat="42.3053970" lon="1.7519180">
        <ele>1761.4</ele>
        <time>2015-08-12T19:50:27Z</time>
      </trkpt>
      <trkpt lat="42.3054230" lon="1.7519530">
        <ele>1760.9</ele>
        <time>2015-08-12T19:50:29Z</time>
      </trkpt>
      <trkpt lat="42.3054460" lon="1.7519920">
        <ele>1759.4</ele>
        <time>2015-08-12T19:50:33Z</time>
      </trkpt>
      <trkpt lat="42.3054880" lon="1.7520280">
        <ele>1758.5</ele>
        <time>2015-08-12T19:50:35Z</time>
      </trkpt>
      <trkpt lat="42.3055130" lon="1.7520530">
        <ele>1757.8</ele>
        <time>2015-08-12T19:50:36Z</time>
      </trkpt>
      <trkpt lat="42.3055380" lon="1.7520400">
        <ele>1758.7</ele>
        <time>2015-08-12T19:50:39Z</time>
      </trkpt>
      <trkpt lat="42.3055660" lon="1.7520460">
        <ele>1758.9</ele>
        <time>2015-08-12T19:50:42Z</time>
      </trkpt>
      <trkpt lat="42.3056000" lon="1.7520640">
        <ele>1758.6</ele>
        <time>2015-08-12T19:50:44Z</time>
      </trkpt>
      <trkpt lat="42.3056340" lon="1.7520830">
        <ele>1758.4</ele>
        <time>2015-08-12T19:50:46Z</time>
      </trkpt>
      <trkpt lat="42.3056660" lon="1.7521040">
        <ele>1758.2</ele>
        <time>2015-08-12T19:50:48Z</time>
      </trkpt>
      <trkpt lat="42.3057010" lon="1.7521150">
        <ele>1758.4</ele>
        <time>2015-08-12T19:50:50Z</time>
      </trkpt>
      <trkpt lat="42.3057310" lon="1.7521420">
        <ele>1758.1</ele>
        <time>2015-08-12T19:50:52Z</time>
      </trkpt>
      <trkpt lat="42.3057610" lon="1.7521470">
        <ele>1758.5</ele>
        <time>2015-08-12T19:50:54Z</time>
      </trkpt>
      <trkpt lat="42.3058020" lon="1.7521470">
        <ele>1759.2</ele>
        <time>2015-08-12T19:50:56Z</time>
      </trkpt>
      <trkpt lat="42.3058320" lon="1.7521240">
        <ele>1760.3</ele>
        <time>2015-08-12T19:50:58Z</time>
      </trkpt>
      <trkpt lat="42.3058890" lon="1.7520430">
        <ele>1763.7</ele>
        <time>2015-08-12T19:51:04Z</time>
      </trkpt>
      <trkpt lat="42.3059150" lon="1.7518430">
        <ele>1770.5</ele>
        <time>2015-08-12T19:51:14Z</time>
      </trkpt>
      <trkpt lat="42.3059560" lon="1.7515720">
        <ele>1779.4</ele>
        <time>2015-08-12T19:51:19Z</time>
      </trkpt>
      <trkpt lat="42.3059520" lon="1.7514120">
        <ele>1784.4</ele>
        <time>2015-08-12T19:51:21Z</time>
      </trkpt>
      <trkpt lat="42.3059790" lon="1.7514960">
        <ele>1781.8</ele>
        <time>2015-08-12T19:51:23Z</time>
      </trkpt>
      <trkpt lat="42.3059400" lon="1.7513820">
        <ele>1785.3</ele>
        <time>2015-08-12T19:51:24Z</time>
      </trkpt>
      <trkpt lat="42.3059750" lon="1.7513560">
        <ele>1786.1</ele>
        <time>2015-08-12T19:51:26Z</time>
      </trkpt>
      <trkpt lat="42.3059950" lon="1.7512900">
        <ele>1788.0</ele>
        <time>2015-08-12T19:51:29Z</time>
      </trkpt>
      <trkpt lat="42.3060200" lon="1.7512510">
        <ele>1789.1</ele>
        <time>2015-08-12T19:51:30Z</time>
      </trkpt>
      <trkpt lat="42.3060280" lon="1.7512160">
        <ele>1789.3</ele>
        <time>2015-08-12T19:51:31Z</time>
      </trkpt>
      <trkpt lat="42.3060450" lon="1.7511790">
        <ele>1789.4</ele>
        <time>2015-08-12T19:51:32Z</time>
      </trkpt>
      <trkpt lat="42.3060480" lon="1.7511160">
        <ele>1789.7</ele>
        <time>2015-08-12T19:51:33Z</time>
      </trkpt>
      <trkpt lat="42.3060700" lon="1.7510720">
        <ele>1789.8</ele>
        <time>2015-08-12T19:51:34Z</time>
      </trkpt>
      <trkpt lat="42.3060670" lon="1.7510080">
        <ele>1790.1</ele>
        <time>2015-08-12T19:51:36Z</time>
      </trkpt>
      <trkpt lat="42.3060990" lon="1.7509710">
        <ele>1790.0</ele>
        <time>2015-08-12T19:51:37Z</time>
      </trkpt>
      <trkpt lat="42.3061120" lon="1.7509330">
        <ele>1790.0</ele>
        <time>2015-08-12T19:51:38Z</time>
      </trkpt>
      <trkpt lat="42.3061130" lon="1.7508900">
        <ele>1790.2</ele>
        <time>2015-08-12T19:51:39Z</time>
      </trkpt>
      <trkpt lat="42.3061350" lon="1.7508510">
        <ele>1790.0</ele>
        <time>2015-08-12T19:51:40Z</time>
      </trkpt>
      <trkpt lat="42.3061540" lon="1.7508070">
        <ele>1789.9</ele>
        <time>2015-08-12T19:51:41Z</time>
      </trkpt>
      <trkpt lat="42.3061690" lon="1.7507580">
        <ele>1789.8</ele>
        <time>2015-08-12T19:51:42Z</time>
      </trkpt>
      <trkpt lat="42.3061930" lon="1.7507090">
        <ele>1789.6</ele>
        <time>2015-08-12T19:51:44Z</time>
      </trkpt>
      <trkpt lat="42.3062200" lon="1.7506860">
        <ele>1789.2</ele>
        <time>2015-08-12T19:51:45Z</time>
      </trkpt>
      <trkpt lat="42.3062010" lon="1.7506340">
        <ele>1789.6</ele>
        <time>2015-08-12T19:51:46Z</time>
      </trkpt>
      <trkpt lat="42.3062060" lon="1.7505950">
        <ele>1789.6</ele>
        <time>2015-08-12T19:51:47Z</time>
      </trkpt>
      <trkpt lat="42.3062070" lon="1.7505540">
        <ele>1789.7</ele>
        <time>2015-08-12T19:51:48Z</time>
      </trkpt>
      <trkpt lat="42.3061980" lon="1.7505140">
        <ele>1790.0</ele>
        <time>2015-08-12T19:51:49Z</time>
      </trkpt>
      <trkpt lat="42.3061860" lon="1.7504720">
        <ele>1790.3</ele>
        <time>2015-08-12T19:51:50Z</time>
      </trkpt>
      <trkpt lat="42.3061800" lon="1.7504210">
        <ele>1790.6</ele>
        <time>2015-08-12T19:51:51Z</time>
      </trkpt>
      <trkpt lat="42.3061940" lon="1.7503810">
        <ele>1790.1</ele>
        <time>2015-08-12T19:51:52Z</time>
      </trkpt>
      <trkpt lat="42.3062170" lon="1.7503200">
        <ele>1789.2</ele>
        <time>2015-08-12T19:51:54Z</time>
      </trkpt>
      <trkpt lat="42.3062230" lon="1.7502760">
        <ele>1788.8</ele>
        <time>2015-08-12T19:51:55Z</time>
      </trkpt>
      <trkpt lat="42.3062290" lon="1.7502310">
        <ele>1788.4</ele>
        <time>2015-08-12T19:51:56Z</time>
      </trkpt>
      <trkpt lat="42.3062370" lon="1.7501950">
        <ele>1788.0</ele>
        <time>2015-08-12T19:51:57Z</time>
      </trkpt>
      <trkpt lat="42.3062440" lon="1.7501310">
        <ele>1787.4</ele>
        <time>2015-08-12T19:51:59Z</time>
      </trkpt>
      <trkpt lat="42.3062070" lon="1.7500850">
        <ele>1788.1</ele>
        <time>2015-08-12T19:52:00Z</time>
      </trkpt>
      <trkpt lat="42.3061990" lon="1.7500150">
        <ele>1788.0</ele>
        <time>2015-08-12T19:52:02Z</time>
      </trkpt>
      <trkpt lat="42.3061980" lon="1.7499710">
        <ele>1787.7</ele>
        <time>2015-08-12T19:52:03Z</time>
      </trkpt>
      <trkpt lat="42.3062040" lon="1.7499280">
        <ele>1787.3</ele>
        <time>2015-08-12T19:52:04Z</time>
      </trkpt>
      <trkpt lat="42.3062130" lon="1.7498450">
        <ele>1786.6</ele>
        <time>2015-08-12T19:52:06Z</time>
      </trkpt>
      <trkpt lat="42.3062090" lon="1.7497960">
        <ele>1786.5</ele>
        <time>2015-08-12T19:52:07Z</time>
      </trkpt>
      <trkpt lat="42.3062090" lon="1.7497580">
        <ele>1786.3</ele>
        <time>2015-08-12T19:52:08Z</time>
      </trkpt>
      <trkpt lat="42.3062100" lon="1.7496750">
        <ele>1785.8</ele>
        <time>2015-08-12T19:52:09Z</time>
      </trkpt>
      <trkpt lat="42.3062020" lon="1.7496340">
        <ele>1785.8</ele>
        <time>2015-08-12T19:52:10Z</time>
      </trkpt>
      <trkpt lat="42.3062000" lon="1.7495960">
        <ele>1785.6</ele>
        <time>2015-08-12T19:52:11Z</time>
      </trkpt>
      <trkpt lat="42.3061860" lon="1.7495360">
        <ele>1785.8</ele>
        <time>2015-08-12T19:52:12Z</time>
      </trkpt>
      <trkpt lat="42.3061770" lon="1.7494710">
        <ele>1785.8</ele>
        <time>2015-08-12T19:52:13Z</time>
      </trkpt>
      <trkpt lat="42.3061330" lon="1.7494030">
        <ele>1786.8</ele>
        <time>2015-08-12T19:52:15Z</time>
      </trkpt>
      <trkpt lat="42.3061200" lon="1.7493470">
        <ele>1787.0</ele>
        <time>2015-08-12T19:52:17Z</time>
      </trkpt>
      <trkpt lat="42.3061170" lon="1.7493040">
        <ele>1786.9</ele>
        <time>2015-08-12T19:52:18Z</time>
      </trkpt>
      <trkpt lat="42.3061150" lon="1.7492630">
        <ele>1786.7</ele>
        <time>2015-08-12T19:52:19Z</time>
      </trkpt>
      <trkpt lat="42.3061020" lon="1.7491980">
        <ele>1786.9</ele>
        <time>2015-08-12T19:52:21Z</time>
      </trkpt>
      <trkpt lat="42.3060970" lon="1.7491600">
        <ele>1786.8</ele>
        <time>2015-08-12T19:52:23Z</time>
      </trkpt>
      <trkpt lat="42.3060980" lon="1.7491000">
        <ele>1786.5</ele>
        <time>2015-08-12T19:52:25Z</time>
      </trkpt>
      <trkpt lat="42.3060990" lon="1.7490600">
        <ele>1786.3</ele>
        <time>2015-08-12T19:52:27Z</time>
      </trkpt>
      <trkpt lat="42.3061180" lon="1.7490050">
        <ele>1785.5</ele>
        <time>2015-08-12T19:52:31Z</time>
      </trkpt>
      <trkpt lat="42.3061450" lon="1.7490000">
        <ele>1784.6</ele>
        <time>2015-08-12T19:52:33Z</time>
      </trkpt>
      <trkpt lat="42.3062030" lon="1.7489840">
        <ele>1782.6</ele>
        <time>2015-08-12T19:52:35Z</time>
      </trkpt>
      <trkpt lat="42.3062170" lon="1.7490460">
        <ele>1782.5</ele>
        <time>2015-08-12T19:52:36Z</time>
      </trkpt>
      <trkpt lat="42.3062370" lon="1.7490880">
        <ele>1782.0</ele>
        <time>2015-08-12T19:52:37Z</time>
      </trkpt>
      <trkpt lat="42.3062600" lon="1.7491150">
        <ele>1781.8</ele>
        <time>2015-08-12T19:52:38Z</time>
      </trkpt>
      <trkpt lat="42.3062810" lon="1.7491710">
        <ele>1782.0</ele>
        <time>2015-08-12T19:52:40Z</time>
      </trkpt>
      <trkpt lat="42.3063090" lon="1.7492250">
        <ele>1782.2</ele>
        <time>2015-08-12T19:52:42Z</time>
      </trkpt>
      <trkpt lat="42.3063320" lon="1.7492550">
        <ele>1782.3</ele>
        <time>2015-08-12T19:52:43Z</time>
      </trkpt>
      <trkpt lat="42.3063610" lon="1.7492740">
        <ele>1782.2</ele>
        <time>2015-08-12T19:52:46Z</time>
      </trkpt>
      <trkpt lat="42.3063890" lon="1.7492680">
        <ele>1782.1</ele>
        <time>2015-08-12T19:52:51Z</time>
      </trkpt>
      <trkpt lat="42.3064120" lon="1.7491700">
        <ele>1782.1</ele>
        <time>2015-08-13T08:44:59Z</time>
      </trkpt>
      <trkpt lat="42.3064040" lon="1.7492170">
        <ele>1782.1</ele>
        <time>2015-08-13T08:46:34Z</time>
      </trkpt>
      <trkpt lat="42.3064270" lon="1.7492480">
        <ele>1782.1</ele>
        <time>2015-08-13T08:46:36Z</time>
      </trkpt>
      <trkpt lat="42.3064450" lon="1.7492830">
        <ele>1782.0</ele>
        <time>2015-08-13T08:46:38Z</time>
      </trkpt>
      <trkpt lat="42.3064580" lon="1.7493540">
        <ele>1781.8</ele>
        <time>2015-08-13T08:46:41Z</time>
      </trkpt>
      <trkpt lat="42.3064790" lon="1.7493840">
        <ele>1781.7</ele>
        <time>2015-08-13T08:46:43Z</time>
      </trkpt>
      <trkpt lat="42.3065090" lon="1.7494000">
        <ele>1781.4</ele>
        <time>2015-08-13T08:46:45Z</time>
      </trkpt>
      <trkpt lat="42.3065350" lon="1.7494170">
        <ele>1781.2</ele>
        <time>2015-08-13T08:46:46Z</time>
      </trkpt>
      <trkpt lat="42.3065520" lon="1.7494470">
        <ele>1781.0</ele>
        <time>2015-08-13T08:46:49Z</time>
      </trkpt>
      <trkpt lat="42.3065640" lon="1.7494650">
        <ele>1780.8</ele>
        <time>2015-08-13T08:46:50Z</time>
      </trkpt>
      <trkpt lat="42.3065280" lon="1.7494910">
        <ele>1781.0</ele>
        <time>2015-08-13T08:46:56Z</time>
      </trkpt>
      <trkpt lat="42.3065190" lon="1.7494960">
        <ele>1781.1</ele>
        <time>2015-08-13T08:47:05Z</time>
      </trkpt>
      <trkpt lat="42.3065110" lon="1.7495020">
        <ele>1781.1</ele>
        <time>2015-08-13T08:47:06Z</time>
      </trkpt>
      <trkpt lat="42.3065110" lon="1.7495030">
        <ele>1781.1</ele>
        <time>2015-08-13T08:47:07Z</time>
      </trkpt>
      <trkpt lat="42.3065720" lon="1.7495130">
        <ele>1780.5</ele>
        <time>2015-08-13T08:49:01Z</time>
      </trkpt>
      <trkpt lat="42.3066070" lon="1.7495200">
        <ele>1780.1</ele>
        <time>2015-08-13T08:49:03Z</time>
      </trkpt>
      <trkpt lat="42.3066360" lon="1.7495210">
        <ele>1779.8</ele>
        <time>2015-08-13T08:49:04Z</time>
      </trkpt>
      <trkpt lat="42.3066830" lon="1.7495540">
        <ele>1779.0</ele>
        <time>2015-08-13T08:49:06Z</time>
      </trkpt>
      <trkpt lat="42.3066960" lon="1.7495880">
        <ele>1778.6</ele>
        <time>2015-08-13T08:49:24Z</time>
      </trkpt>
      <trkpt lat="42.3067330" lon="1.7496320">
        <ele>1777.9</ele>
        <time>2015-08-13T08:49:29Z</time>
      </trkpt>
      <trkpt lat="42.3067810" lon="1.7496510">
        <ele>1777.1</ele>
        <time>2015-08-13T08:49:31Z</time>
      </trkpt>
      <trkpt lat="42.3068160" lon="1.7496640">
        <ele>1776.4</ele>
        <time>2015-08-13T08:49:32Z</time>
      </trkpt>
      <trkpt lat="42.3068410" lon="1.7496980">
        <ele>1775.7</ele>
        <time>2015-08-13T08:49:34Z</time>
      </trkpt>
      <trkpt lat="42.3068550" lon="1.7497320">
        <ele>1775.2</ele>
        <time>2015-08-13T08:49:38Z</time>
      </trkpt>
      <trkpt lat="42.3068810" lon="1.7497620">
        <ele>1774.4</ele>
        <time>2015-08-13T08:49:40Z</time>
      </trkpt>
      <trkpt lat="42.3069070" lon="1.7498030">
        <ele>1773.5</ele>
        <time>2015-08-13T08:49:41Z</time>
      </trkpt>
      <trkpt lat="42.3069350" lon="1.7498400">
        <ele>1772.5</ele>
        <time>2015-08-13T08:49:44Z</time>
      </trkpt>
      <trkpt lat="42.3069580" lon="1.7498610">
        <ele>1771.8</ele>
        <time>2015-08-13T08:49:46Z</time>
      </trkpt>
      <trkpt lat="42.3069770" lon="1.7498990">
        <ele>1770.9</ele>
        <time>2015-08-13T08:49:49Z</time>
      </trkpt>
      <trkpt lat="42.3070070" lon="1.7499100">
        <ele>1770.1</ele>
        <time>2015-08-13T08:49:52Z</time>
      </trkpt>
      <trkpt lat="42.3070400" lon="1.7499230">
        <ele>1769.2</ele>
        <time>2015-08-13T08:49:54Z</time>
      </trkpt>
      <trkpt lat="42.3070780" lon="1.7499050">
        <ele>1768.7</ele>
        <time>2015-08-13T08:50:04Z</time>
      </trkpt>
      <trkpt lat="42.3071030" lon="1.7498790">
        <ele>1769.7</ele>
        <time>2015-08-13T08:50:12Z</time>
      </trkpt>
      <trkpt lat="42.3071400" lon="1.7499180">
        <ele>1770.3</ele>
        <time>2015-08-13T08:51:25Z</time>
      </trkpt>
      <trkpt lat="42.3071640" lon="1.7499350">
        <ele>1770.8</ele>
        <time>2015-08-13T08:51:26Z</time>
      </trkpt>
      <trkpt lat="42.3071860" lon="1.7499740">
        <ele>1770.8</ele>
        <time>2015-08-13T08:51:28Z</time>
      </trkpt>
      <trkpt lat="42.3072120" lon="1.7500070">
        <ele>1771.0</ele>
        <time>2015-08-13T08:51:30Z</time>
      </trkpt>
      <trkpt lat="42.3072620" lon="1.7499870">
        <ele>1773.0</ele>
        <time>2015-08-13T08:51:32Z</time>
      </trkpt>
      <trkpt lat="42.3072550" lon="1.7499510">
        <ele>1773.5</ele>
        <time>2015-08-13T08:51:33Z</time>
      </trkpt>
      <trkpt lat="42.3072270" lon="1.7499750">
        <ele>1772.1</ele>
        <time>2015-08-13T08:51:34Z</time>
      </trkpt>
      <trkpt lat="42.3072380" lon="1.7499360">
        <ele>1773.2</ele>
        <time>2015-08-13T08:51:36Z</time>
      </trkpt>
      <trkpt lat="42.3072690" lon="1.7499730">
        <ele>1773.5</ele>
        <time>2015-08-13T08:51:41Z</time>
      </trkpt>
      <trkpt lat="42.3073120" lon="1.7499700">
        <ele>1774.9</ele>
        <time>2015-08-13T08:51:44Z</time>
      </trkpt>
      <trkpt lat="42.3073390" lon="1.7499840">
        <ele>1775.5</ele>
        <time>2015-08-13T08:52:03Z</time>
      </trkpt>
      <trkpt lat="42.3074240" lon="1.7500210">
        <ele>1777.3</ele>
        <time>2015-08-13T08:52:13Z</time>
      </trkpt>
      <trkpt lat="42.3075320" lon="1.7502410">
        <ele>1774.9</ele>
        <time>2015-08-13T08:52:16Z</time>
      </trkpt>
      <trkpt lat="42.3075700" lon="1.7502680">
        <ele>1775.2</ele>
        <time>2015-08-13T08:52:17Z</time>
      </trkpt>
      <trkpt lat="42.3076110" lon="1.7502900">
        <ele>1775.6</ele>
        <time>2015-08-13T08:52:19Z</time>
      </trkpt>
      <trkpt lat="42.3076520" lon="1.7502980">
        <ele>1776.4</ele>
        <time>2015-08-13T08:52:21Z</time>
      </trkpt>
      <trkpt lat="42.3076730" lon="1.7504090">
        <ele>1773.7</ele>
        <time>2015-08-13T08:52:23Z</time>
      </trkpt>
      <trkpt lat="42.3077190" lon="1.7503930">
        <ele>1775.2</ele>
        <time>2015-08-13T08:52:24Z</time>
      </trkpt>
      <trkpt lat="42.3077590" lon="1.7504180">
        <ele>1775.4</ele>
        <time>2015-08-13T08:52:26Z</time>
      </trkpt>
      <trkpt lat="42.3078140" lon="1.7504050">
        <ele>1777.0</ele>
        <time>2015-08-13T08:52:28Z</time>
      </trkpt>
      <trkpt lat="42.3078390" lon="1.7503750">
        <ele>1778.6</ele>
        <time>2015-08-13T08:52:29Z</time>
      </trkpt>
      <trkpt lat="42.3078840" lon="1.7503530">
        <ele>1780.4</ele>
        <time>2015-08-13T08:52:31Z</time>
      </trkpt>
      <trkpt lat="42.3079220" lon="1.7503630">
        <ele>1781.0</ele>
        <time>2015-08-13T08:52:33Z</time>
      </trkpt>
      <trkpt lat="42.3079550" lon="1.7503330">
        <ele>1782.6</ele>
        <time>2015-08-13T08:52:34Z</time>
      </trkpt>
      <trkpt lat="42.3080080" lon="1.7503550">
        <ele>1782.8</ele>
        <time>2015-08-13T08:52:36Z</time>
      </trkpt>
      <trkpt lat="42.3080390" lon="1.7503430">
        <ele>1783.8</ele>
        <time>2015-08-13T08:52:37Z</time>
      </trkpt>
      <trkpt lat="42.3080720" lon="1.7503540">
        <ele>1784.0</ele>
        <time>2015-08-13T08:52:38Z</time>
      </trkpt>
      <trkpt lat="42.3081080" lon="1.7503230">
        <ele>1785.8</ele>
        <time>2015-08-13T08:52:41Z</time>
      </trkpt>
      <trkpt lat="42.3081490" lon="1.7503220">
        <ele>1786.6</ele>
        <time>2015-08-13T08:52:43Z</time>
      </trkpt>
      <trkpt lat="42.3081740" lon="1.7503400">
        <ele>1786.4</ele>
        <time>2015-08-13T08:52:44Z</time>
      </trkpt>
      <trkpt lat="42.3082280" lon="1.7503500">
        <ele>1787.1</ele>
        <time>2015-08-13T08:52:46Z</time>
      </trkpt>
      <trkpt lat="42.3082760" lon="1.7503520">
        <ele>1787.9</ele>
        <time>2015-08-13T08:52:47Z</time>
      </trkpt>
      <trkpt lat="42.3083010" lon="1.7503820">
        <ele>1787.2</ele>
        <time>2015-08-13T08:52:48Z</time>
      </trkpt>
      <trkpt lat="42.3083560" lon="1.7503940">
        <ele>1787.8</ele>
        <time>2015-08-13T08:52:50Z</time>
      </trkpt>
      <trkpt lat="42.3083850" lon="1.7503790">
        <ele>1788.9</ele>
        <time>2015-08-13T08:52:51Z</time>
      </trkpt>
      <trkpt lat="42.3084410" lon="1.7503510">
        <ele>1791.0</ele>
        <time>2015-08-13T08:52:54Z</time>
      </trkpt>
      <trkpt lat="42.3084510" lon="1.7503130">
        <ele>1792.6</ele>
        <time>2015-08-13T08:52:55Z</time>
      </trkpt>
      <trkpt lat="42.3084850" lon="1.7502980">
        <ele>1793.8</ele>
        <time>2015-08-13T08:52:56Z</time>
      </trkpt>
      <trkpt lat="42.3085110" lon="1.7502720">
        <ele>1795.4</ele>
        <time>2015-08-13T08:52:57Z</time>
      </trkpt>
      <trkpt lat="42.3085800" lon="1.7502210">
        <ele>1798.7</ele>
        <time>2015-08-13T08:52:59Z</time>
      </trkpt>
      <trkpt lat="42.3086130" lon="1.7502250">
        <ele>1799.2</ele>
        <time>2015-08-13T08:53:01Z</time>
      </trkpt>
      <trkpt lat="42.3086530" lon="1.7502440">
        <ele>1799.2</ele>
        <time>2015-08-13T08:53:05Z</time>
      </trkpt>
      <trkpt lat="42.3086860" lon="1.7502520">
        <ele>1799.5</ele>
        <time>2015-08-13T08:53:10Z</time>
      </trkpt>
      <trkpt lat="42.3087160" lon="1.7502610">
        <ele>1799.7</ele>
        <time>2015-08-13T08:53:17Z</time>
      </trkpt>
      <trkpt lat="42.3087450" lon="1.7502830">
        <ele>1799.4</ele>
        <time>2015-08-13T08:53:20Z</time>
      </trkpt>
      <trkpt lat="42.3087740" lon="1.7503070">
        <ele>1797.8</ele>
        <time>2015-08-13T08:53:22Z</time>
      </trkpt>
      <trkpt lat="42.3088050" lon="1.7503170">
        <ele>1796.6</ele>
        <time>2015-08-13T08:53:30Z</time>
      </trkpt>
      <trkpt lat="42.3088310" lon="1.7503280">
        <ele>1795.5</ele>
        <time>2015-08-13T08:54:17Z</time>
      </trkpt>
      <trkpt lat="42.3088500" lon="1.7503550">
        <ele>1793.9</ele>
        <time>2015-08-13T08:54:30Z</time>
      </trkpt>
      <trkpt lat="42.3088820" lon="1.7503050">
        <ele>1795.1</ele>
        <time>2015-08-13T08:54:41Z</time>
      </trkpt>
      <trkpt lat="42.3089140" lon="1.7502810">
        <ele>1795.3</ele>
        <time>2015-08-13T08:54:42Z</time>
      </trkpt>
      <trkpt lat="42.3089480" lon="1.7502470">
        <ele>1795.8</ele>
        <time>2015-08-13T08:54:43Z</time>
      </trkpt>
      <trkpt lat="42.3089870" lon="1.7501960">
        <ele>1796.9</ele>
        <time>2015-08-13T08:54:44Z</time>
      </trkpt>
      <trkpt lat="42.3090040" lon="1.7501370">
        <ele>1798.9</ele>
        <time>2015-08-13T08:54:45Z</time>
      </trkpt>
      <trkpt lat="42.3090380" lon="1.7501070">
        <ele>1799.3</ele>
        <time>2015-08-13T08:54:47Z</time>
      </trkpt>
      <trkpt lat="42.3090690" lon="1.7500840">
        <ele>1799.5</ele>
        <time>2015-08-13T08:54:48Z</time>
      </trkpt>
      <trkpt lat="42.3090910" lon="1.7500510">
        <ele>1800.3</ele>
        <time>2015-08-13T08:54:49Z</time>
      </trkpt>
      <trkpt lat="42.3091110" lon="1.7500180">
        <ele>1801.1</ele>
        <time>2015-08-13T08:54:50Z</time>
      </trkpt>
      <trkpt lat="42.3091280" lon="1.7500480">
        <ele>1799.5</ele>
        <time>2015-08-13T08:54:51Z</time>
      </trkpt>
      <trkpt lat="42.3091560" lon="1.7500500">
        <ele>1798.7</ele>
        <time>2015-08-13T08:54:52Z</time>
      </trkpt>
      <trkpt lat="42.3092040" lon="1.7500570">
        <ele>1797.2</ele>
        <time>2015-08-13T08:54:54Z</time>
      </trkpt>
      <trkpt lat="42.3092320" lon="1.7500440">
        <ele>1797.0</ele>
        <time>2015-08-13T08:54:55Z</time>
      </trkpt>
      <trkpt lat="42.3092680" lon="1.7500200">
        <ele>1797.1</ele>
        <time>2015-08-13T08:54:57Z</time>
      </trkpt>
      <trkpt lat="42.3093360" lon="1.7500250">
        <ele>1795.2</ele>
        <time>2015-08-13T08:54:58Z</time>
      </trkpt>
      <trkpt lat="42.3094070" lon="1.7500270">
        <ele>1793.3</ele>
        <time>2015-08-13T08:54:59Z</time>
      </trkpt>
      <trkpt lat="42.3094490" lon="1.7499920">
        <ele>1793.7</ele>
        <time>2015-08-13T08:55:00Z</time>
      </trkpt>
      <trkpt lat="42.3095320" lon="1.7498990">
        <ele>1795.6</ele>
        <time>2015-08-13T08:55:01Z</time>
      </trkpt>
      <trkpt lat="42.3096080" lon="1.7499030">
        <ele>1793.5</ele>
        <time>2015-08-13T08:55:02Z</time>
      </trkpt>
      <trkpt lat="42.3096720" lon="1.7499000">
        <ele>1791.9</ele>
        <time>2015-08-13T08:55:03Z</time>
      </trkpt>
      <trkpt lat="42.3097440" lon="1.7498820">
        <ele>1790.6</ele>
        <time>2015-08-13T08:55:04Z</time>
      </trkpt>
      <trkpt lat="42.3099350" lon="1.7498130">
        <ele>1788.4</ele>
        <time>2015-08-13T08:55:09Z</time>
      </trkpt>
      <trkpt lat="42.3100920" lon="1.7497850">
        <ele>1785.4</ele>
        <time>2015-08-13T08:55:13Z</time>
      </trkpt>
      <trkpt lat="42.3101290" lon="1.7497780">
        <ele>1784.7</ele>
        <time>2015-08-13T08:55:14Z</time>
      </trkpt>
      <trkpt lat="42.3101650" lon="1.7497720">
        <ele>1784.0</ele>
        <time>2015-08-13T08:55:15Z</time>
      </trkpt>
      <trkpt lat="42.3102380" lon="1.7497580">
        <ele>1782.7</ele>
        <time>2015-08-13T08:55:17Z</time>
      </trkpt>
      <trkpt lat="42.3103110" lon="1.7497450">
        <ele>1781.3</ele>
        <time>2015-08-13T08:55:19Z</time>
      </trkpt>
      <trkpt lat="42.3103480" lon="1.7497390">
        <ele>1780.6</ele>
        <time>2015-08-13T08:55:20Z</time>
      </trkpt>
      <trkpt lat="42.3103840" lon="1.7497320">
        <ele>1779.9</ele>
        <time>2015-08-13T08:55:21Z</time>
      </trkpt>
      <trkpt lat="42.3104210" lon="1.7497250">
        <ele>1779.3</ele>
        <time>2015-08-13T08:55:22Z</time>
      </trkpt>
      <trkpt lat="42.3104570" lon="1.7497190">
        <ele>1778.9</ele>
        <time>2015-08-13T08:55:23Z</time>
      </trkpt>
      <trkpt lat="42.3111310" lon="1.7495720">
        <ele>1771.9</ele>
        <time>2015-08-13T08:56:02Z</time>
      </trkpt>
      <trkpt lat="42.3111100" lon="1.7495990">
        <ele>1771.2</ele>
        <time>2015-08-13T08:56:22Z</time>
      </trkpt>
      <trkpt lat="42.3111190" lon="1.7495580">
        <ele>1772.8</ele>
        <time>2015-08-13T08:57:10Z</time>
      </trkpt>
      <trkpt lat="42.3111470" lon="1.7495710">
        <ele>1771.6</ele>
        <time>2015-08-13T08:57:12Z</time>
      </trkpt>
      <trkpt lat="42.3111570" lon="1.7495350">
        <ele>1773.0</ele>
        <time>2015-08-13T08:57:19Z</time>
      </trkpt>
      <trkpt lat="42.3111890" lon="1.7495060">
        <ele>1773.6</ele>
        <time>2015-08-13T08:57:23Z</time>
      </trkpt>
      <trkpt lat="42.3111840" lon="1.7494520">
        <ele>1776.1</ele>
        <time>2015-08-13T08:57:24Z</time>
      </trkpt>
      <trkpt lat="42.3111800" lon="1.7494110">
        <ele>1778.0</ele>
        <time>2015-08-13T08:57:25Z</time>
      </trkpt>
      <trkpt lat="42.3111940" lon="1.7493460">
        <ele>1780.5</ele>
        <time>2015-08-13T08:57:27Z</time>
      </trkpt>
      <trkpt lat="42.3112350" lon="1.7492570">
        <ele>1783.5</ele>
        <time>2015-08-13T08:57:28Z</time>
      </trkpt>
      <trkpt lat="42.3112620" lon="1.7491830">
        <ele>1785.9</ele>
        <time>2015-08-13T08:57:31Z</time>
      </trkpt>
      <trkpt lat="42.3112920" lon="1.7491600">
        <ele>1785.9</ele>
        <time>2015-08-13T08:57:32Z</time>
      </trkpt>
      <trkpt lat="42.3113160" lon="1.7491320">
        <ele>1786.4</ele>
        <time>2015-08-13T08:57:33Z</time>
      </trkpt>
      <trkpt lat="42.3113500" lon="1.7491000">
        <ele>1786.6</ele>
        <time>2015-08-13T08:57:35Z</time>
      </trkpt>
      <trkpt lat="42.3113790" lon="1.7490440">
        <ele>1787.9</ele>
        <time>2015-08-13T08:57:36Z</time>
      </trkpt>
      <trkpt lat="42.3114280" lon="1.7490250">
        <ele>1787.1</ele>
        <time>2015-08-13T08:57:37Z</time>
      </trkpt>
      <trkpt lat="42.3114570" lon="1.7490020">
        <ele>1787.0</ele>
        <time>2015-08-13T08:57:38Z</time>
      </trkpt>
      <trkpt lat="42.3115470" lon="1.7489310">
        <ele>1786.6</ele>
        <time>2015-08-13T08:57:39Z</time>
      </trkpt>
      <trkpt lat="42.3115870" lon="1.7489020">
        <ele>1786.3</ele>
        <time>2015-08-13T08:57:40Z</time>
      </trkpt>
      <trkpt lat="42.3116370" lon="1.7488690">
        <ele>1785.7</ele>
        <time>2015-08-13T08:57:42Z</time>
      </trkpt>
      <trkpt lat="42.3116720" lon="1.7488650">
        <ele>1784.6</ele>
        <time>2015-08-13T08:57:43Z</time>
      </trkpt>
      <trkpt lat="42.3117840" lon="1.7488270">
        <ele>1781.8</ele>
        <time>2015-08-13T08:57:45Z</time>
      </trkpt>
      <trkpt lat="42.3118540" lon="1.7488480">
        <ele>1778.5</ele>
        <time>2015-08-13T08:57:47Z</time>
      </trkpt>
      <trkpt lat="42.3119080" lon="1.7488590">
        <ele>1776.2</ele>
        <time>2015-08-13T08:57:49Z</time>
      </trkpt>
      <trkpt lat="42.3119600" lon="1.7488770">
        <ele>1773.7</ele>
        <time>2015-08-13T08:57:50Z</time>
      </trkpt>
      <trkpt lat="42.3120070" lon="1.7489030">
        <ele>1771.2</ele>
        <time>2015-08-13T08:57:51Z</time>
      </trkpt>
      <trkpt lat="42.3120620" lon="1.7489090">
        <ele>1769.0</ele>
        <time>2015-08-13T08:57:52Z</time>
      </trkpt>
      <trkpt lat="42.3120900" lon="1.7489190">
        <ele>1767.9</ele>
        <time>2015-08-13T08:57:53Z</time>
      </trkpt>
      <trkpt lat="42.3120830" lon="1.7488500">
        <ele>1770.0</ele>
        <time>2015-08-13T08:57:54Z</time>
      </trkpt>
      <trkpt lat="42.3121530" lon="1.7488340">
        <ele>1770.6</ele>
        <time>2015-08-13T08:57:56Z</time>
      </trkpt>
      <trkpt lat="42.3121800" lon="1.7488380">
        <ele>1770.5</ele>
        <time>2015-08-13T08:57:57Z</time>
      </trkpt>
      <trkpt lat="42.3122280" lon="1.7488130">
        <ele>1771.4</ele>
        <time>2015-08-13T08:57:58Z</time>
      </trkpt>
      <trkpt lat="42.3122740" lon="1.7488080">
        <ele>1771.6</ele>
        <time>2015-08-13T08:57:59Z</time>
      </trkpt>
      <trkpt lat="42.3123110" lon="1.7487990">
        <ele>1772.0</ele>
        <time>2015-08-13T08:58:00Z</time>
      </trkpt>
      <trkpt lat="42.3123450" lon="1.7488170">
        <ele>1771.4</ele>
        <time>2015-08-13T08:58:01Z</time>
      </trkpt>
      <trkpt lat="42.3123580" lon="1.7488600">
        <ele>1770.1</ele>
        <time>2015-08-13T08:58:03Z</time>
      </trkpt>
      <trkpt lat="42.3123480" lon="1.7488830">
        <ele>1769.3</ele>
        <time>2015-08-13T08:58:05Z</time>
      </trkpt>
      <trkpt lat="42.3123380" lon="1.7489050">
        <ele>1768.6</ele>
        <time>2015-08-13T08:58:06Z</time>
      </trkpt>
      <trkpt lat="42.3123830" lon="1.7488990">
        <ele>1768.8</ele>
        <time>2015-08-13T08:58:09Z</time>
      </trkpt>
      <trkpt lat="42.3124130" lon="1.7488870">
        <ele>1769.2</ele>
        <time>2015-08-13T08:58:11Z</time>
      </trkpt>
      <trkpt lat="42.3124320" lon="1.7489190">
        <ele>1768.2</ele>
        <time>2015-08-13T08:58:12Z</time>
      </trkpt>
      <trkpt lat="42.3124340" lon="1.7489840">
        <ele>1766.0</ele>
        <time>2015-08-13T08:58:13Z</time>
      </trkpt>
      <trkpt lat="42.3124630" lon="1.7490010">
        <ele>1765.4</ele>
        <time>2015-08-13T08:58:14Z</time>
      </trkpt>
      <trkpt lat="42.3124900" lon="1.7490450">
        <ele>1763.9</ele>
        <time>2015-08-13T08:58:15Z</time>
      </trkpt>
      <trkpt lat="42.3125110" lon="1.7490910">
        <ele>1762.3</ele>
        <time>2015-08-13T08:58:17Z</time>
      </trkpt>
      <trkpt lat="42.3125710" lon="1.7491480">
        <ele>1760.3</ele>
        <time>2015-08-13T08:58:18Z</time>
      </trkpt>
      <trkpt lat="42.3126750" lon="1.7491710">
        <ele>1759.3</ele>
        <time>2015-08-13T08:58:19Z</time>
      </trkpt>
      <trkpt lat="42.3127030" lon="1.7492130">
        <ele>1757.7</ele>
        <time>2015-08-13T08:58:20Z</time>
      </trkpt>
      <trkpt lat="42.3127340" lon="1.7492290">
        <ele>1757.0</ele>
        <time>2015-08-13T08:58:21Z</time>
      </trkpt>
      <trkpt lat="42.3127800" lon="1.7492540">
        <ele>1756.0</ele>
        <time>2015-08-13T08:58:23Z</time>
      </trkpt>
      <trkpt lat="42.3128190" lon="1.7492640">
        <ele>1755.5</ele>
        <time>2015-08-13T08:58:24Z</time>
      </trkpt>
      <trkpt lat="42.3128490" lon="1.7492710">
        <ele>1755.2</ele>
        <time>2015-08-13T08:58:25Z</time>
      </trkpt>
      <trkpt lat="42.3128950" lon="1.7492700">
        <ele>1755.1</ele>
        <time>2015-08-13T08:58:27Z</time>
      </trkpt>
      <trkpt lat="42.3129330" lon="1.7493070">
        <ele>1753.8</ele>
        <time>2015-08-13T08:58:29Z</time>
      </trkpt>
      <trkpt lat="42.3129660" lon="1.7493200">
        <ele>1753.8</ele>
        <time>2015-08-13T08:58:31Z</time>
      </trkpt>
      <trkpt lat="42.3130040" lon="1.7493220">
        <ele>1754.3</ele>
        <time>2015-08-13T08:58:33Z</time>
      </trkpt>
      <trkpt lat="42.3130320" lon="1.7493310">
        <ele>1754.3</ele>
        <time>2015-08-13T08:58:34Z</time>
      </trkpt>
      <trkpt lat="42.3130760" lon="1.7493580">
        <ele>1753.9</ele>
        <time>2015-08-13T08:58:36Z</time>
      </trkpt>
      <trkpt lat="42.3131900" lon="1.7494530">
        <ele>1751.9</ele>
        <time>2015-08-13T08:58:38Z</time>
      </trkpt>
      <trkpt lat="42.3132320" lon="1.7495030">
        <ele>1750.6</ele>
        <time>2015-08-13T08:58:39Z</time>
      </trkpt>
      <trkpt lat="42.3132720" lon="1.7495640">
        <ele>1748.8</ele>
        <time>2015-08-13T08:58:40Z</time>
      </trkpt>
      <trkpt lat="42.3133230" lon="1.7496000">
        <ele>1748.2</ele>
        <time>2015-08-13T08:58:41Z</time>
      </trkpt>
      <trkpt lat="42.3133460" lon="1.7496870">
        <ele>1745.0</ele>
        <time>2015-08-13T08:58:43Z</time>
      </trkpt>
      <trkpt lat="42.3133570" lon="1.7497300">
        <ele>1743.4</ele>
        <time>2015-08-13T08:58:44Z</time>
      </trkpt>
      <trkpt lat="42.3133910" lon="1.7497750">
        <ele>1742.1</ele>
        <time>2015-08-13T08:58:46Z</time>
      </trkpt>
      <trkpt lat="42.3134210" lon="1.7498190">
        <ele>1740.8</ele>
        <time>2015-08-13T08:58:47Z</time>
      </trkpt>
      <trkpt lat="42.3134900" lon="1.7498720">
        <ele>1739.7</ele>
        <time>2015-08-13T08:58:49Z</time>
      </trkpt>
      <trkpt lat="42.3135130" lon="1.7498970">
        <ele>1739.1</ele>
        <time>2015-08-13T08:58:50Z</time>
      </trkpt>
      <trkpt lat="42.3135690" lon="1.7498710">
        <ele>1740.9</ele>
        <time>2015-08-13T08:58:51Z</time>
      </trkpt>
      <trkpt lat="42.3136220" lon="1.7499090">
        <ele>1740.2</ele>
        <time>2015-08-13T08:58:52Z</time>
      </trkpt>
      <trkpt lat="42.3136530" lon="1.7499340">
        <ele>1739.7</ele>
        <time>2015-08-13T08:58:53Z</time>
      </trkpt>
      <trkpt lat="42.3136830" lon="1.7499530">
        <ele>1739.4</ele>
        <time>2015-08-13T08:58:54Z</time>
      </trkpt>
      <trkpt lat="42.3137390" lon="1.7499420">
        <ele>1740.6</ele>
        <time>2015-08-13T08:58:55Z</time>
      </trkpt>
      <trkpt lat="42.3137760" lon="1.7499680">
        <ele>1739.8</ele>
        <time>2015-08-13T08:58:56Z</time>
      </trkpt>
      <trkpt lat="42.3138390" lon="1.7499770">
        <ele>1739.6</ele>
        <time>2015-08-13T08:58:57Z</time>
      </trkpt>
      <trkpt lat="42.3138730" lon="1.7499770">
        <ele>1739.7</ele>
        <time>2015-08-13T08:58:58Z</time>
      </trkpt>
      <trkpt lat="42.3139060" lon="1.7499920">
        <ele>1739.3</ele>
        <time>2015-08-13T08:58:59Z</time>
      </trkpt>
      <trkpt lat="42.3139460" lon="1.7500000">
        <ele>1739.1</ele>
        <time>2015-08-13T08:59:00Z</time>
      </trkpt>
      <trkpt lat="42.3139900" lon="1.7500310">
        <ele>1738.2</ele>
        <time>2015-08-13T08:59:01Z</time>
      </trkpt>
      <trkpt lat="42.3140180" lon="1.7500470">
        <ele>1737.7</ele>
        <time>2015-08-13T08:59:02Z</time>
      </trkpt>
      <trkpt lat="42.3140460" lon="1.7500540">
        <ele>1737.6</ele>
        <time>2015-08-13T08:59:07Z</time>
      </trkpt>
      <trkpt lat="42.3140580" lon="1.7500920">
        <ele>1736.4</ele>
        <time>2015-08-13T08:59:12Z</time>
      </trkpt>
      <trkpt lat="42.3140990" lon="1.7501040">
        <ele>1736.2</ele>
        <time>2015-08-13T09:00:03Z</time>
      </trkpt>
      <trkpt lat="42.3141290" lon="1.7500370">
        <ele>1738.5</ele>
        <time>2015-08-13T09:00:09Z</time>
      </trkpt>
      <trkpt lat="42.3141430" lon="1.7500730">
        <ele>1737.4</ele>
        <time>2015-08-13T09:00:13Z</time>
      </trkpt>
      <trkpt lat="42.3141670" lon="1.7500950">
        <ele>1736.8</ele>
        <time>2015-08-13T09:00:22Z</time>
      </trkpt>
      <trkpt lat="42.3141980" lon="1.7501090">
        <ele>1736.6</ele>
        <time>2015-08-13T09:00:41Z</time>
      </trkpt>
      <trkpt lat="42.3142260" lon="1.7501050">
        <ele>1736.8</ele>
        <time>2015-08-13T09:00:43Z</time>
      </trkpt>
      <trkpt lat="42.3142400" lon="1.7500710">
        <ele>1737.9</ele>
        <time>2015-08-13T09:01:33Z</time>
      </trkpt>
      <trkpt lat="42.3142850" lon="1.7500550">
        <ele>1738.6</ele>
        <time>2015-08-13T09:01:35Z</time>
      </trkpt>
      <trkpt lat="42.3143940" lon="1.7498630">
        <ele>1744.0</ele>
        <time>2015-08-13T09:01:40Z</time>
      </trkpt>
      <trkpt lat="42.3144180" lon="1.7498210">
        <ele>1745.0</ele>
        <time>2015-08-13T09:01:41Z</time>
      </trkpt>
      <trkpt lat="42.3144940" lon="1.7497680">
        <ele>1746.2</ele>
        <time>2015-08-13T09:01:42Z</time>
      </trkpt>
      <trkpt lat="42.3145470" lon="1.7497280">
        <ele>1747.0</ele>
        <time>2015-08-13T09:01:43Z</time>
      </trkpt>
      <trkpt lat="42.3146010" lon="1.7496930">
        <ele>1746.5</ele>
        <time>2015-08-13T09:01:44Z</time>
      </trkpt>
      <trkpt lat="42.3145960" lon="1.7496240">
        <ele>1748.3</ele>
        <time>2015-08-13T09:01:45Z</time>
      </trkpt>
      <trkpt lat="42.3146130" lon="1.7495600">
        <ele>1748.3</ele>
        <time>2015-08-13T09:01:46Z</time>
      </trkpt>
      <trkpt lat="42.3146450" lon="1.7494980">
        <ele>1747.1</ele>
        <time>2015-08-13T09:01:47Z</time>
      </trkpt>
      <trkpt lat="42.3146800" lon="1.7494400">
        <ele>1745.6</ele>
        <time>2015-08-13T09:01:48Z</time>
      </trkpt>
      <trkpt lat="42.3146760" lon="1.7493950">
        <ele>1746.5</ele>
        <time>2015-08-13T09:01:49Z</time>
      </trkpt>
      <trkpt lat="42.3147000" lon="1.7493450">
        <ele>1745.7</ele>
        <time>2015-08-13T09:01:50Z</time>
      </trkpt>
      <trkpt lat="42.3147440" lon="1.7492580">
        <ele>1744.1</ele>
        <time>2015-08-13T09:01:51Z</time>
      </trkpt>
      <trkpt lat="42.3147300" lon="1.7491990">
        <ele>1746.0</ele>
        <time>2015-08-13T09:01:52Z</time>
      </trkpt>
      <trkpt lat="42.3147630" lon="1.7491550">
        <ele>1744.5</ele>
        <time>2015-08-13T09:01:53Z</time>
      </trkpt>
      <trkpt lat="42.3147900" lon="1.7490970">
        <ele>1743.7</ele>
        <time>2015-08-13T09:01:54Z</time>
      </trkpt>
      <trkpt lat="42.3148140" lon="1.7490480">
        <ele>1743.0</ele>
        <time>2015-08-13T09:01:55Z</time>
      </trkpt>
      <trkpt lat="42.3148160" lon="1.7489640">
        <ele>1744.2</ele>
        <time>2015-08-13T09:01:56Z</time>
      </trkpt>
      <trkpt lat="42.3148090" lon="1.7489150">
        <ele>1745.5</ele>
        <time>2015-08-13T09:01:57Z</time>
      </trkpt>
      <trkpt lat="42.3148400" lon="1.7487830">
        <ele>1745.7</ele>
        <time>2015-08-13T09:01:58Z</time>
      </trkpt>
      <trkpt lat="42.3148630" lon="1.7486860">
        <ele>1747.4</ele>
        <time>2015-08-13T09:01:59Z</time>
      </trkpt>
      <trkpt lat="42.3148830" lon="1.7486290">
        <ele>1748.4</ele>
        <time>2015-08-13T09:02:00Z</time>
      </trkpt>
      <trkpt lat="42.3148950" lon="1.7485590">
        <ele>1750.4</ele>
        <time>2015-08-13T09:02:01Z</time>
      </trkpt>
      <trkpt lat="42.3148840" lon="1.7484800">
        <ele>1754.2</ele>
        <time>2015-08-13T09:02:02Z</time>
      </trkpt>
      <trkpt lat="42.3149380" lon="1.7483720">
        <ele>1755.4</ele>
        <time>2015-08-13T09:02:04Z</time>
      </trkpt>
      <trkpt lat="42.3149550" lon="1.7483230">
        <ele>1756.4</ele>
        <time>2015-08-13T09:02:05Z</time>
      </trkpt>
      <trkpt lat="42.3151890" lon="1.7483870">
        <ele>1740.7</ele>
        <time>2015-08-13T09:02:07Z</time>
      </trkpt>
      <trkpt lat="42.3152360" lon="1.7483600">
        <ele>1739.3</ele>
        <time>2015-08-13T09:02:08Z</time>
      </trkpt>
      <trkpt lat="42.3152610" lon="1.7482890">
        <ele>1741.1</ele>
        <time>2015-08-13T09:02:09Z</time>
      </trkpt>
      <trkpt lat="42.3152870" lon="1.7482410">
        <ele>1741.8</ele>
        <time>2015-08-13T09:02:10Z</time>
      </trkpt>
      <trkpt lat="42.3153260" lon="1.7482120">
        <ele>1741.0</ele>
        <time>2015-08-13T09:02:11Z</time>
      </trkpt>
      <trkpt lat="42.3153610" lon="1.7481740">
        <ele>1740.9</ele>
        <time>2015-08-13T09:02:12Z</time>
      </trkpt>
      <trkpt lat="42.3153960" lon="1.7481380">
        <ele>1740.7</ele>
        <time>2015-08-13T09:02:13Z</time>
      </trkpt>
      <trkpt lat="42.3154460" lon="1.7481330">
        <ele>1739.4</ele>
        <time>2015-08-13T09:02:15Z</time>
      </trkpt>
      <trkpt lat="42.3154790" lon="1.7481170">
        <ele>1739.6</ele>
        <time>2015-08-13T09:02:16Z</time>
      </trkpt>
      <trkpt lat="42.3155120" lon="1.7481340">
        <ele>1738.3</ele>
        <time>2015-08-13T09:02:17Z</time>
      </trkpt>
      <trkpt lat="42.3157040" lon="1.7479990">
        <ele>1741.6</ele>
        <time>2015-08-13T09:02:19Z</time>
      </trkpt>
      <trkpt lat="42.3157210" lon="1.7480440">
        <ele>1739.1</ele>
        <time>2015-08-13T09:02:20Z</time>
      </trkpt>
      <trkpt lat="42.3157460" lon="1.7480630">
        <ele>1737.8</ele>
        <time>2015-08-13T09:02:21Z</time>
      </trkpt>
      <trkpt lat="42.3157620" lon="1.7480960">
        <ele>1736.0</ele>
        <time>2015-08-13T09:02:22Z</time>
      </trkpt>
      <trkpt lat="42.3157980" lon="1.7481610">
        <ele>1732.2</ele>
        <time>2015-08-13T09:02:23Z</time>
      </trkpt>
      <trkpt lat="42.3158320" lon="1.7481810">
        <ele>1730.7</ele>
        <time>2015-08-13T09:02:24Z</time>
      </trkpt>
      <trkpt lat="42.3158570" lon="1.7482770">
        <ele>1725.6</ele>
        <time>2015-08-13T09:02:25Z</time>
      </trkpt>
      <trkpt lat="42.3158620" lon="1.7483360">
        <ele>1722.6</ele>
        <time>2015-08-13T09:02:26Z</time>
      </trkpt>
      <trkpt lat="42.3159120" lon="1.7483630">
        <ele>1720.4</ele>
        <time>2015-08-13T09:02:27Z</time>
      </trkpt>
      <trkpt lat="42.3159510" lon="1.7483790">
        <ele>1719.0</ele>
        <time>2015-08-13T09:02:28Z</time>
      </trkpt>
      <trkpt lat="42.3160080" lon="1.7484030">
        <ele>1716.8</ele>
        <time>2015-08-13T09:02:29Z</time>
      </trkpt>
      <trkpt lat="42.3160510" lon="1.7484290">
        <ele>1714.7</ele>
        <time>2015-08-13T09:02:30Z</time>
      </trkpt>
      <trkpt lat="42.3160830" lon="1.7484560">
        <ele>1712.8</ele>
        <time>2015-08-13T09:02:31Z</time>
      </trkpt>
      <trkpt lat="42.3161220" lon="1.7484770">
        <ele>1711.1</ele>
        <time>2015-08-13T09:02:32Z</time>
      </trkpt>
      <trkpt lat="42.3161570" lon="1.7484690">
        <ele>1710.8</ele>
        <time>2015-08-13T09:02:33Z</time>
      </trkpt>
      <trkpt lat="42.3162060" lon="1.7484740">
        <ele>1709.7</ele>
        <time>2015-08-13T09:02:34Z</time>
      </trkpt>
      <trkpt lat="42.3162340" lon="1.7484850">
        <ele>1708.6</ele>
        <time>2015-08-13T09:02:35Z</time>
      </trkpt>
      <trkpt lat="42.3162850" lon="1.7485400">
        <ele>1706.1</ele>
        <time>2015-08-13T09:02:36Z</time>
      </trkpt>
      <trkpt lat="42.3163210" lon="1.7485720">
        <ele>1705.1</ele>
        <time>2015-08-13T09:02:37Z</time>
      </trkpt>
      <trkpt lat="42.3163580" lon="1.7485900">
        <ele>1704.8</ele>
        <time>2015-08-13T09:02:38Z</time>
      </trkpt>
      <trkpt lat="42.3164520" lon="1.7485790">
        <ele>1706.8</ele>
        <time>2015-08-13T09:02:39Z</time>
      </trkpt>
      <trkpt lat="42.3165190" lon="1.7486200">
        <ele>1705.8</ele>
        <time>2015-08-13T09:02:40Z</time>
      </trkpt>
      <trkpt lat="42.3165640" lon="1.7486350">
        <ele>1705.8</ele>
        <time>2015-08-13T09:02:41Z</time>
      </trkpt>
      <trkpt lat="42.3166320" lon="1.7487180">
        <ele>1702.9</ele>
        <time>2015-08-13T09:02:42Z</time>
      </trkpt>
      <trkpt lat="42.3166950" lon="1.7487590">
        <ele>1702.0</ele>
        <time>2015-08-13T09:02:43Z</time>
      </trkpt>
      <trkpt lat="42.3167670" lon="1.7488040">
        <ele>1701.0</ele>
        <time>2015-08-13T09:02:44Z</time>
      </trkpt>
      <trkpt lat="42.3168280" lon="1.7488210">
        <ele>1701.1</ele>
        <time>2015-08-13T09:02:45Z</time>
      </trkpt>
      <trkpt lat="42.3168350" lon="1.7488690">
        <ele>1698.8</ele>
        <time>2015-08-13T09:02:46Z</time>
      </trkpt>
      <trkpt lat="42.3168820" lon="1.7488840">
        <ele>1698.7</ele>
        <time>2015-08-13T09:02:47Z</time>
      </trkpt>
      <trkpt lat="42.3169260" lon="1.7488590">
        <ele>1700.7</ele>
        <time>2015-08-13T09:02:48Z</time>
      </trkpt>
      <trkpt lat="42.3169770" lon="1.7488750">
        <ele>1700.6</ele>
        <time>2015-08-13T09:02:49Z</time>
      </trkpt>
      <trkpt lat="42.3170180" lon="1.7488870">
        <ele>1700.6</ele>
        <time>2015-08-13T09:02:50Z</time>
      </trkpt>
      <trkpt lat="42.3170740" lon="1.7489200">
        <ele>1699.7</ele>
        <time>2015-08-13T09:02:51Z</time>
      </trkpt>
      <trkpt lat="42.3171160" lon="1.7489700">
        <ele>1696.7</ele>
        <time>2015-08-13T09:02:52Z</time>
      </trkpt>
      <trkpt lat="42.3171730" lon="1.7490080">
        <ele>1693.9</ele>
        <time>2015-08-13T09:02:53Z</time>
      </trkpt>
      <trkpt lat="42.3172030" lon="1.7490500">
        <ele>1691.3</ele>
        <time>2015-08-13T09:02:54Z</time>
      </trkpt>
      <trkpt lat="42.3172500" lon="1.7489980">
        <ele>1693.4</ele>
        <time>2015-08-13T09:02:55Z</time>
      </trkpt>
      <trkpt lat="42.3172920" lon="1.7490050">
        <ele>1692.5</ele>
        <time>2015-08-13T09:02:56Z</time>
      </trkpt>
      <trkpt lat="42.3173190" lon="1.7489760">
        <ele>1693.7</ele>
        <time>2015-08-13T09:02:57Z</time>
      </trkpt>
      <trkpt lat="42.3173750" lon="1.7489470">
        <ele>1694.4</ele>
        <time>2015-08-13T09:02:58Z</time>
      </trkpt>
      <trkpt lat="42.3174230" lon="1.7489360">
        <ele>1694.3</ele>
        <time>2015-08-13T09:02:59Z</time>
      </trkpt>
      <trkpt lat="42.3174570" lon="1.7489200">
        <ele>1694.6</ele>
        <time>2015-08-13T09:03:00Z</time>
      </trkpt>
      <trkpt lat="42.3175180" lon="1.7488830">
        <ele>1695.6</ele>
        <time>2015-08-13T09:03:01Z</time>
      </trkpt>
      <trkpt lat="42.3175540" lon="1.7488840">
        <ele>1695.1</ele>
        <time>2015-08-13T09:03:02Z</time>
      </trkpt>
      <trkpt lat="42.3176010" lon="1.7488400">
        <ele>1696.5</ele>
        <time>2015-08-13T09:03:03Z</time>
      </trkpt>
      <trkpt lat="42.3176440" lon="1.7488280">
        <ele>1696.5</ele>
        <time>2015-08-13T09:03:04Z</time>
      </trkpt>
      <trkpt lat="42.3176850" lon="1.7488190">
        <ele>1696.3</ele>
        <time>2015-08-13T09:03:05Z</time>
      </trkpt>
      <trkpt lat="42.3177310" lon="1.7487510">
        <ele>1698.8</ele>
        <time>2015-08-13T09:03:06Z</time>
      </trkpt>
      <trkpt lat="42.3177790" lon="1.7487010">
        <ele>1699.6</ele>
        <time>2015-08-13T09:03:07Z</time>
      </trkpt>
      <trkpt lat="42.3178410" lon="1.7486720">
        <ele>1699.5</ele>
        <time>2015-08-13T09:03:08Z</time>
      </trkpt>
      <trkpt lat="42.3178960" lon="1.7486370">
        <ele>1699.5</ele>
        <time>2015-08-13T09:03:09Z</time>
      </trkpt>
      <trkpt lat="42.3179790" lon="1.7485720">
        <ele>1699.3</ele>
        <time>2015-08-13T09:03:10Z</time>
      </trkpt>
      <trkpt lat="42.3180310" lon="1.7485480">
        <ele>1698.6</ele>
        <time>2015-08-13T09:03:11Z</time>
      </trkpt>
      <trkpt lat="42.3180890" lon="1.7485430">
        <ele>1697.3</ele>
        <time>2015-08-13T09:03:12Z</time>
      </trkpt>
      <trkpt lat="42.3181470" lon="1.7485300">
        <ele>1696.2</ele>
        <time>2015-08-13T09:03:13Z</time>
      </trkpt>
      <trkpt lat="42.3181950" lon="1.7485030">
        <ele>1695.9</ele>
        <time>2015-08-13T09:03:14Z</time>
      </trkpt>
      <trkpt lat="42.3182480" lon="1.7485120">
        <ele>1694.3</ele>
        <time>2015-08-13T09:03:15Z</time>
      </trkpt>
      <trkpt lat="42.3182180" lon="1.7486280">
        <ele>1691.3</ele>
        <time>2015-08-13T09:03:16Z</time>
      </trkpt>
      <trkpt lat="42.3182360" lon="1.7486730">
        <ele>1689.3</ele>
        <time>2015-08-13T09:03:17Z</time>
      </trkpt>
      <trkpt lat="42.3182450" lon="1.7487270">
        <ele>1687.3</ele>
        <time>2015-08-13T09:03:18Z</time>
      </trkpt>
      <trkpt lat="42.3182430" lon="1.7486810">
        <ele>1688.9</ele>
        <time>2015-08-13T09:03:19Z</time>
      </trkpt>
      <trkpt lat="42.3183150" lon="1.7487780">
        <ele>1683.3</ele>
        <time>2015-08-13T09:03:23Z</time>
      </trkpt>
      <trkpt lat="42.3183920" lon="1.7488060">
        <ele>1679.8</ele>
        <time>2015-08-13T09:03:26Z</time>
      </trkpt>
      <trkpt lat="42.3184270" lon="1.7488030">
        <ele>1679.0</ele>
        <time>2015-08-13T09:03:27Z</time>
      </trkpt>
      <trkpt lat="42.3184730" lon="1.7488220">
        <ele>1676.8</ele>
        <time>2015-08-13T09:03:28Z</time>
      </trkpt>
      <trkpt lat="42.3185410" lon="1.7488480">
        <ele>1673.7</ele>
        <time>2015-08-13T09:03:29Z</time>
      </trkpt>
      <trkpt lat="42.3185910" lon="1.7489020">
        <ele>1669.9</ele>
        <time>2015-08-13T09:03:30Z</time>
      </trkpt>
      <trkpt lat="42.3186280" lon="1.7489400">
        <ele>1667.2</ele>
        <time>2015-08-13T09:03:31Z</time>
      </trkpt>
      <trkpt lat="42.3186740" lon="1.7489870">
        <ele>1663.9</ele>
        <time>2015-08-13T09:03:32Z</time>
      </trkpt>
      <trkpt lat="42.3187240" lon="1.7489920">
        <ele>1662.3</ele>
        <time>2015-08-13T09:03:33Z</time>
      </trkpt>
      <trkpt lat="42.3187900" lon="1.7489950">
        <ele>1661.8</ele>
        <time>2015-08-13T09:03:34Z</time>
      </trkpt>
      <trkpt lat="42.3188260" lon="1.7490170">
        <ele>1661.3</ele>
        <time>2015-08-13T09:03:35Z</time>
      </trkpt>
      <trkpt lat="42.3188650" lon="1.7490530">
        <ele>1660.1</ele>
        <time>2015-08-13T09:03:36Z</time>
      </trkpt>
      <trkpt lat="42.3189280" lon="1.7490840">
        <ele>1659.5</ele>
        <time>2015-08-13T09:03:37Z</time>
      </trkpt>
      <trkpt lat="42.3189700" lon="1.7491100">
        <ele>1658.8</ele>
        <time>2015-08-13T09:03:38Z</time>
      </trkpt>
      <trkpt lat="42.3190140" lon="1.7491310">
        <ele>1658.4</ele>
        <time>2015-08-13T09:03:39Z</time>
      </trkpt>
      <trkpt lat="42.3190580" lon="1.7491720">
        <ele>1657.1</ele>
        <time>2015-08-13T09:03:40Z</time>
      </trkpt>
      <trkpt lat="42.3191220" lon="1.7492210">
        <ele>1655.7</ele>
        <time>2015-08-13T09:03:41Z</time>
      </trkpt>
      <trkpt lat="42.3191300" lon="1.7492730">
        <ele>1653.6</ele>
        <time>2015-08-13T09:03:42Z</time>
      </trkpt>
      <trkpt lat="42.3191600" lon="1.7493070">
        <ele>1652.5</ele>
        <time>2015-08-13T09:03:43Z</time>
      </trkpt>
      <trkpt lat="42.3191970" lon="1.7494020">
        <ele>1649.0</ele>
        <time>2015-08-13T09:03:44Z</time>
      </trkpt>
      <trkpt lat="42.3192550" lon="1.7494750">
        <ele>1646.6</ele>
        <time>2015-08-13T09:03:45Z</time>
      </trkpt>
      <trkpt lat="42.3193370" lon="1.7495260">
        <ele>1645.4</ele>
        <time>2015-08-13T09:03:46Z</time>
      </trkpt>
      <trkpt lat="42.3194200" lon="1.7496010">
        <ele>1643.5</ele>
        <time>2015-08-13T09:03:47Z</time>
      </trkpt>
      <trkpt lat="42.3194420" lon="1.7496700">
        <ele>1641.5</ele>
        <time>2015-08-13T09:03:48Z</time>
      </trkpt>
      <trkpt lat="42.3193990" lon="1.7497140">
        <ele>1639.5</ele>
        <time>2015-08-13T09:03:49Z</time>
      </trkpt>
      <trkpt lat="42.3194260" lon="1.7497570">
        <ele>1638.5</ele>
        <time>2015-08-13T09:03:50Z</time>
      </trkpt>
      <trkpt lat="42.3194230" lon="1.7497990">
        <ele>1637.0</ele>
        <time>2015-08-13T09:03:51Z</time>
      </trkpt>
      <trkpt lat="42.3194640" lon="1.7498280">
        <ele>1636.7</ele>
        <time>2015-08-13T09:03:52Z</time>
      </trkpt>
      <trkpt lat="42.3194780" lon="1.7498710">
        <ele>1635.5</ele>
        <time>2015-08-13T09:03:54Z</time>
      </trkpt>
      <trkpt lat="42.3195120" lon="1.7498490">
        <ele>1636.7</ele>
        <time>2015-08-13T09:03:55Z</time>
      </trkpt>
      <trkpt lat="42.3195580" lon="1.7498810">
        <ele>1636.3</ele>
        <time>2015-08-13T09:04:06Z</time>
      </trkpt>
      <trkpt lat="42.3195770" lon="1.7499020">
        <ele>1636.0</ele>
        <time>2015-08-13T09:04:07Z</time>
      </trkpt>
      <trkpt lat="42.3195650" lon="1.7498650">
        <ele>1636.9</ele>
        <time>2015-08-13T09:04:09Z</time>
      </trkpt>
      <trkpt lat="42.3195940" lon="1.7498990">
        <ele>1636.3</ele>
        <time>2015-08-13T09:04:13Z</time>
      </trkpt>
      <trkpt lat="42.3195810" lon="1.7499440">
        <ele>1634.7</ele>
        <time>2015-08-13T09:04:18Z</time>
      </trkpt>
      <trkpt lat="42.3195530" lon="1.7499720">
        <ele>1633.4</ele>
        <time>2015-08-13T09:04:19Z</time>
      </trkpt>
      <trkpt lat="42.3195480" lon="1.7499350">
        <ele>1634.5</ele>
        <time>2015-08-13T09:04:25Z</time>
      </trkpt>
      <trkpt lat="42.3195750" lon="1.7499080">
        <ele>1635.7</ele>
        <time>2015-08-13T09:05:09Z</time>
      </trkpt>
      <trkpt lat="42.3196010" lon="1.7498810">
        <ele>1636.9</ele>
        <time>2015-08-13T09:05:10Z</time>
      </trkpt>
      <trkpt lat="42.3196590" lon="1.7498560">
        <ele>1638.2</ele>
        <time>2015-08-13T09:05:12Z</time>
      </trkpt>
      <trkpt lat="42.3196860" lon="1.7498770">
        <ele>1637.9</ele>
        <time>2015-08-13T09:05:15Z</time>
      </trkpt>
      <trkpt lat="42.3197160" lon="1.7498970">
        <ele>1637.5</ele>
        <time>2015-08-13T09:05:17Z</time>
      </trkpt>
      <trkpt lat="42.3197610" lon="1.7498730">
        <ele>1638.7</ele>
        <time>2015-08-13T09:05:20Z</time>
      </trkpt>
      <trkpt lat="42.3197800" lon="1.7499400">
        <ele>1636.9</ele>
        <time>2015-08-13T09:05:21Z</time>
      </trkpt>
      <trkpt lat="42.3198050" lon="1.7499810">
        <ele>1635.8</ele>
        <time>2015-08-13T09:05:22Z</time>
      </trkpt>
      <trkpt lat="42.3198290" lon="1.7500050">
        <ele>1635.4</ele>
        <time>2015-08-13T09:05:23Z</time>
      </trkpt>
      <trkpt lat="42.3198570" lon="1.7500330">
        <ele>1634.8</ele>
        <time>2015-08-13T09:05:25Z</time>
      </trkpt>
      <trkpt lat="42.3198750" lon="1.7500670">
        <ele>1633.9</ele>
        <time>2015-08-13T09:05:30Z</time>
      </trkpt>
      <trkpt lat="42.3200230" lon="1.7502610">
        <ele>1629.5</ele>
        <time>2015-08-13T09:05:39Z</time>
      </trkpt>
      <trkpt lat="42.3200530" lon="1.7503030">
        <ele>1628.5</ele>
        <time>2015-08-13T09:05:40Z</time>
      </trkpt>
      <trkpt lat="42.3200800" lon="1.7503340">
        <ele>1627.9</ele>
        <time>2015-08-13T09:05:41Z</time>
      </trkpt>
      <trkpt lat="42.3201960" lon="1.7503300">
        <ele>1629.2</ele>
        <time>2015-08-13T09:05:42Z</time>
      </trkpt>
      <trkpt lat="42.3202680" lon="1.7503640">
        <ele>1629.0</ele>
        <time>2015-08-13T09:05:43Z</time>
      </trkpt>
      <trkpt lat="42.3203360" lon="1.7503910">
        <ele>1628.9</ele>
        <time>2015-08-13T09:05:44Z</time>
      </trkpt>
      <trkpt lat="42.3203910" lon="1.7503820">
        <ele>1629.8</ele>
        <time>2015-08-13T09:05:45Z</time>
      </trkpt>
      <trkpt lat="42.3204590" lon="1.7503700">
        <ele>1630.0</ele>
        <time>2015-08-13T09:05:46Z</time>
      </trkpt>
      <trkpt lat="42.3205150" lon="1.7503630">
        <ele>1629.6</ele>
        <time>2015-08-13T09:05:47Z</time>
      </trkpt>
      <trkpt lat="42.3205720" lon="1.7503040">
        <ele>1631.0</ele>
        <time>2015-08-13T09:05:48Z</time>
      </trkpt>
      <trkpt lat="42.3206340" lon="1.7502490">
        <ele>1632.2</ele>
        <time>2015-08-13T09:05:49Z</time>
      </trkpt>
      <trkpt lat="42.3207000" lon="1.7502170">
        <ele>1632.7</ele>
        <time>2015-08-13T09:05:50Z</time>
      </trkpt>
      <trkpt lat="42.3207550" lon="1.7501770">
        <ele>1633.7</ele>
        <time>2015-08-13T09:05:51Z</time>
      </trkpt>
      <trkpt lat="42.3210580" lon="1.7500720">
        <ele>1635.6</ele>
        <time>2015-08-13T09:05:53Z</time>
      </trkpt>
      <trkpt lat="42.3211730" lon="1.7500410">
        <ele>1636.2</ele>
        <time>2015-08-13T09:05:54Z</time>
      </trkpt>
      <trkpt lat="42.3212690" lon="1.7500110">
        <ele>1636.8</ele>
        <time>2015-08-13T09:05:55Z</time>
      </trkpt>
      <trkpt lat="42.3213710" lon="1.7499810">
        <ele>1637.0</ele>
        <time>2015-08-13T09:05:56Z</time>
      </trkpt>
      <trkpt lat="42.3214470" lon="1.7499960">
        <ele>1635.5</ele>
        <time>2015-08-13T09:05:57Z</time>
      </trkpt>
      <trkpt lat="42.3215040" lon="1.7500200">
        <ele>1633.9</ele>
        <time>2015-08-13T09:05:58Z</time>
      </trkpt>
      <trkpt lat="42.3215670" lon="1.7500240">
        <ele>1633.0</ele>
        <time>2015-08-13T09:05:59Z</time>
      </trkpt>
      <trkpt lat="42.3216480" lon="1.7500520">
        <ele>1630.9</ele>
        <time>2015-08-13T09:06:00Z</time>
      </trkpt>
      <trkpt lat="42.3217180" lon="1.7500980">
        <ele>1628.1</ele>
        <time>2015-08-13T09:06:01Z</time>
      </trkpt>
      <trkpt lat="42.3217600" lon="1.7501720">
        <ele>1624.3</ele>
        <time>2015-08-13T09:06:02Z</time>
      </trkpt>
      <trkpt lat="42.3217550" lon="1.7502990">
        <ele>1618.6</ele>
        <time>2015-08-13T09:06:03Z</time>
      </trkpt>
      <trkpt lat="42.3217930" lon="1.7504070">
        <ele>1613.3</ele>
        <time>2015-08-13T09:06:04Z</time>
      </trkpt>
      <trkpt lat="42.3218350" lon="1.7504330">
        <ele>1611.7</ele>
        <time>2015-08-13T09:06:05Z</time>
      </trkpt>
      <trkpt lat="42.3218790" lon="1.7504380">
        <ele>1610.9</ele>
        <time>2015-08-13T09:06:06Z</time>
      </trkpt>
      <trkpt lat="42.3219380" lon="1.7504300">
        <ele>1610.4</ele>
        <time>2015-08-13T09:06:07Z</time>
      </trkpt>
      <trkpt lat="42.3219900" lon="1.7504310">
        <ele>1609.7</ele>
        <time>2015-08-13T09:06:08Z</time>
      </trkpt>
      <trkpt lat="42.3220510" lon="1.7504660">
        <ele>1607.6</ele>
        <time>2015-08-13T09:06:09Z</time>
      </trkpt>
      <trkpt lat="42.3221140" lon="1.7504690">
        <ele>1607.1</ele>
        <time>2015-08-13T09:06:10Z</time>
      </trkpt>
      <trkpt lat="42.3221900" lon="1.7504620">
        <ele>1607.4</ele>
        <time>2015-08-13T09:06:11Z</time>
      </trkpt>
      <trkpt lat="42.3222640" lon="1.7504510">
        <ele>1607.9</ele>
        <time>2015-08-13T09:06:12Z</time>
      </trkpt>
      <trkpt lat="42.3223320" lon="1.7504400">
        <ele>1608.4</ele>
        <time>2015-08-13T09:06:13Z</time>
      </trkpt>
      <trkpt lat="42.3224690" lon="1.7504260">
        <ele>1609.1</ele>
        <time>2015-08-13T09:06:14Z</time>
      </trkpt>
      <trkpt lat="42.3225960" lon="1.7503820">
        <ele>1611.0</ele>
        <time>2015-08-13T09:06:15Z</time>
      </trkpt>
      <trkpt lat="42.3226690" lon="1.7503330">
        <ele>1613.1</ele>
        <time>2015-08-13T09:06:16Z</time>
      </trkpt>
      <trkpt lat="42.3227430" lon="1.7503220">
        <ele>1613.5</ele>
        <time>2015-08-13T09:06:17Z</time>
      </trkpt>
      <trkpt lat="42.3228350" lon="1.7502520">
        <ele>1616.2</ele>
        <time>2015-08-13T09:06:18Z</time>
      </trkpt>
      <trkpt lat="42.3229200" lon="1.7502140">
        <ele>1617.4</ele>
        <time>2015-08-13T09:06:19Z</time>
      </trkpt>
      <trkpt lat="42.3230290" lon="1.7501940">
        <ele>1614.7</ele>
        <time>2015-08-13T09:06:20Z</time>
      </trkpt>
      <trkpt lat="42.3230820" lon="1.7501600">
        <ele>1614.3</ele>
        <time>2015-08-13T09:06:21Z</time>
      </trkpt>
      <trkpt lat="42.3231470" lon="1.7500840">
        <ele>1615.2</ele>
        <time>2015-08-13T09:06:22Z</time>
      </trkpt>
      <trkpt lat="42.3232170" lon="1.7500300">
        <ele>1615.3</ele>
        <time>2015-08-13T09:06:23Z</time>
      </trkpt>
      <trkpt lat="42.3233040" lon="1.7499940">
        <ele>1614.1</ele>
        <time>2015-08-13T09:06:24Z</time>
      </trkpt>
      <trkpt lat="42.3233630" lon="1.7499280">
        <ele>1615.2</ele>
        <time>2015-08-13T09:06:25Z</time>
      </trkpt>
      <trkpt lat="42.3234360" lon="1.7498780">
        <ele>1615.2</ele>
        <time>2015-08-13T09:06:26Z</time>
      </trkpt>
      <trkpt lat="42.3234860" lon="1.7498380">
        <ele>1615.5</ele>
        <time>2015-08-13T09:06:27Z</time>
      </trkpt>
      <trkpt lat="42.3235310" lon="1.7498060">
        <ele>1615.7</ele>
        <time>2015-08-13T09:06:28Z</time>
      </trkpt>
      <trkpt lat="42.3236680" lon="1.7497980">
        <ele>1612.2</ele>
        <time>2015-08-13T09:06:29Z</time>
      </trkpt>
      <trkpt lat="42.3237670" lon="1.7497700">
        <ele>1610.5</ele>
        <time>2015-08-13T09:06:30Z</time>
      </trkpt>
      <trkpt lat="42.3238550" lon="1.7497560">
        <ele>1607.1</ele>
        <time>2015-08-13T09:06:31Z</time>
      </trkpt>
      <trkpt lat="42.3238720" lon="1.7497030">
        <ele>1608.8</ele>
        <time>2015-08-13T09:06:32Z</time>
      </trkpt>
      <trkpt lat="42.3239290" lon="1.7496700">
        <ele>1607.7</ele>
        <time>2015-08-13T09:06:33Z</time>
      </trkpt>
      <trkpt lat="42.3240320" lon="1.7496820">
        <ele>1602.3</ele>
        <time>2015-08-13T09:06:34Z</time>
      </trkpt>
      <trkpt lat="42.3241090" lon="1.7496360">
        <ele>1600.8</ele>
        <time>2015-08-13T09:06:36Z</time>
      </trkpt>
      <trkpt lat="42.3241730" lon="1.7495520">
        <ele>1601.4</ele>
        <time>2015-08-13T09:06:37Z</time>
      </trkpt>
      <trkpt lat="42.3242260" lon="1.7494630">
        <ele>1602.3</ele>
        <time>2015-08-13T09:06:38Z</time>
      </trkpt>
      <trkpt lat="42.3242770" lon="1.7493750">
        <ele>1603.4</ele>
        <time>2015-08-13T09:06:39Z</time>
      </trkpt>
      <trkpt lat="42.3243120" lon="1.7492560">
        <ele>1606.6</ele>
        <time>2015-08-13T09:06:40Z</time>
      </trkpt>
      <trkpt lat="42.3243390" lon="1.7491740">
        <ele>1608.6</ele>
        <time>2015-08-13T09:06:41Z</time>
      </trkpt>
      <trkpt lat="42.3243730" lon="1.7490770">
        <ele>1611.0</ele>
        <time>2015-08-13T09:06:42Z</time>
      </trkpt>
      <trkpt lat="42.3244140" lon="1.7490590">
        <ele>1610.1</ele>
        <time>2015-08-13T09:06:43Z</time>
      </trkpt>
      <trkpt lat="42.3244670" lon="1.7490680">
        <ele>1607.5</ele>
        <time>2015-08-13T09:06:44Z</time>
      </trkpt>
      <trkpt lat="42.3244910" lon="1.7491120">
        <ele>1604.7</ele>
        <time>2015-08-13T09:06:45Z</time>
      </trkpt>
      <trkpt lat="42.3245310" lon="1.7490820">
        <ele>1604.2</ele>
        <time>2015-08-13T09:06:46Z</time>
      </trkpt>
      <trkpt lat="42.3245710" lon="1.7491900">
        <ele>1598.0</ele>
        <time>2015-08-13T09:06:47Z</time>
      </trkpt>
      <trkpt lat="42.3245920" lon="1.7492350">
        <ele>1595.6</ele>
        <time>2015-08-13T09:06:48Z</time>
      </trkpt>
      <trkpt lat="42.3246350" lon="1.7492640">
        <ele>1594.5</ele>
        <time>2015-08-13T09:06:49Z</time>
      </trkpt>
      <trkpt lat="42.3246670" lon="1.7492630">
        <ele>1594.6</ele>
        <time>2015-08-13T09:06:50Z</time>
      </trkpt>
      <trkpt lat="42.3246990" lon="1.7493530">
        <ele>1590.6</ele>
        <time>2015-08-13T09:06:51Z</time>
      </trkpt>
      <trkpt lat="42.3247030" lon="1.7494470">
        <ele>1586.5</ele>
        <time>2015-08-13T09:06:52Z</time>
      </trkpt>
      <trkpt lat="42.3247270" lon="1.7494790">
        <ele>1585.0</ele>
        <time>2015-08-13T09:06:53Z</time>
      </trkpt>
      <trkpt lat="42.3247400" lon="1.7495250">
        <ele>1582.9</ele>
        <time>2015-08-13T09:06:54Z</time>
      </trkpt>
      <trkpt lat="42.3247660" lon="1.7495620">
        <ele>1581.1</ele>
        <time>2015-08-13T09:06:55Z</time>
      </trkpt>
      <trkpt lat="42.3248290" lon="1.7495960">
        <ele>1579.2</ele>
        <time>2015-08-13T09:06:59Z</time>
      </trkpt>
      <trkpt lat="42.3248640" lon="1.7495970">
        <ele>1579.0</ele>
        <time>2015-08-13T09:07:03Z</time>
      </trkpt>
      <trkpt lat="42.3248980" lon="1.7495970">
        <ele>1578.8</ele>
        <time>2015-08-13T09:07:06Z</time>
      </trkpt>
      <trkpt lat="42.3249330" lon="1.7495980">
        <ele>1578.6</ele>
        <time>2015-08-13T09:07:53Z</time>
      </trkpt>
      <trkpt lat="42.3249680" lon="1.7495980">
        <ele>1578.4</ele>
        <time>2015-08-13T09:07:54Z</time>
      </trkpt>
      <trkpt lat="42.3250220" lon="1.7495610">
        <ele>1580.0</ele>
        <time>2015-08-13T09:07:55Z</time>
      </trkpt>
      <trkpt lat="42.3251020" lon="1.7495040">
        <ele>1582.6</ele>
        <time>2015-08-13T09:07:57Z</time>
      </trkpt>
      <trkpt lat="42.3251330" lon="1.7494960">
        <ele>1582.9</ele>
        <time>2015-08-13T09:07:59Z</time>
      </trkpt>
      <trkpt lat="42.3251880" lon="1.7494650">
        <ele>1584.4</ele>
        <time>2015-08-13T09:08:01Z</time>
      </trkpt>
      <trkpt lat="42.3252000" lon="1.7494220">
        <ele>1586.7</ele>
        <time>2015-08-13T09:08:02Z</time>
      </trkpt>
      <trkpt lat="42.3252320" lon="1.7493680">
        <ele>1589.5</ele>
        <time>2015-08-13T09:08:03Z</time>
      </trkpt>
      <trkpt lat="42.3252530" lon="1.7493450">
        <ele>1590.8</ele>
        <time>2015-08-13T09:08:04Z</time>
      </trkpt>
      <trkpt lat="42.3252710" lon="1.7493150">
        <ele>1592.4</ele>
        <time>2015-08-13T09:08:05Z</time>
      </trkpt>
      <trkpt lat="42.3253090" lon="1.7492710">
        <ele>1594.9</ele>
        <time>2015-08-13T09:08:07Z</time>
      </trkpt>
      <trkpt lat="42.3253290" lon="1.7492360">
        <ele>1596.9</ele>
        <time>2015-08-13T09:08:09Z</time>
      </trkpt>
      <trkpt lat="42.3253620" lon="1.7492950">
        <ele>1593.6</ele>
        <time>2015-08-13T09:08:11Z</time>
      </trkpt>
      <trkpt lat="42.3253910" lon="1.7492670">
        <ele>1595.2</ele>
        <time>2015-08-13T09:08:14Z</time>
      </trkpt>
      <trkpt lat="42.3254040" lon="1.7492980">
        <ele>1593.4</ele>
        <time>2015-08-13T09:08:15Z</time>
      </trkpt>
      <trkpt lat="42.3254290" lon="1.7492710">
        <ele>1595.1</ele>
        <time>2015-08-13T09:08:16Z</time>
      </trkpt>
      <trkpt lat="42.3255070" lon="1.7492900">
        <ele>1594.6</ele>
        <time>2015-08-13T09:08:18Z</time>
      </trkpt>
      <trkpt lat="42.3255590" lon="1.7493020">
        <ele>1594.2</ele>
        <time>2015-08-13T09:08:19Z</time>
      </trkpt>
      <trkpt lat="42.3255990" lon="1.7493160">
        <ele>1593.7</ele>
        <time>2015-08-13T09:08:20Z</time>
      </trkpt>
      <trkpt lat="42.3256670" lon="1.7493110">
        <ele>1594.5</ele>
        <time>2015-08-13T09:08:22Z</time>
      </trkpt>
      <trkpt lat="42.3256990" lon="1.7493330">
        <ele>1593.4</ele>
        <time>2015-08-13T09:08:23Z</time>
      </trkpt>
      <trkpt lat="42.3257260" lon="1.7493360">
        <ele>1593.4</ele>
        <time>2015-08-13T09:08:24Z</time>
      </trkpt>
      <trkpt lat="42.3257600" lon="1.7493860">
        <ele>1590.6</ele>
        <time>2015-08-13T09:08:25Z</time>
      </trkpt>
      <trkpt lat="42.3257780" lon="1.7494570">
        <ele>1586.4</ele>
        <time>2015-08-13T09:08:26Z</time>
      </trkpt>
      <trkpt lat="42.3257860" lon="1.7495000">
        <ele>1583.8</ele>
        <time>2015-08-13T09:08:27Z</time>
      </trkpt>
      <trkpt lat="42.3257940" lon="1.7495480">
        <ele>1581.0</ele>
        <time>2015-08-13T09:08:28Z</time>
      </trkpt>
      <trkpt lat="42.3258240" lon="1.7495770">
        <ele>1579.3</ele>
        <time>2015-08-13T09:08:30Z</time>
      </trkpt>
      <trkpt lat="42.3258440" lon="1.7496070">
        <ele>1577.7</ele>
        <time>2015-08-13T09:08:31Z</time>
      </trkpt>
      <trkpt lat="42.3258860" lon="1.7495860">
        <ele>1579.1</ele>
        <time>2015-08-13T09:08:33Z</time>
      </trkpt>
      <trkpt lat="42.3259110" lon="1.7495710">
        <ele>1580.1</ele>
        <time>2015-08-13T09:08:36Z</time>
      </trkpt>
      <trkpt lat="42.3259490" lon="1.7495430">
        <ele>1582.1</ele>
        <time>2015-08-13T09:08:38Z</time>
      </trkpt>
      <trkpt lat="42.3261510" lon="1.7495610">
        <ele>1582.0</ele>
        <time>2015-08-13T09:08:40Z</time>
      </trkpt>
      <trkpt lat="42.3261980" lon="1.7496100">
        <ele>1579.2</ele>
        <time>2015-08-13T09:08:41Z</time>
      </trkpt>
      <trkpt lat="42.3262430" lon="1.7496310">
        <ele>1578.2</ele>
        <time>2015-08-13T09:08:42Z</time>
      </trkpt>
      <trkpt lat="42.3262770" lon="1.7496640">
        <ele>1576.7</ele>
        <time>2015-08-13T09:08:43Z</time>
      </trkpt>
      <trkpt lat="42.3263180" lon="1.7496840">
        <ele>1576.1</ele>
        <time>2015-08-13T09:08:44Z</time>
      </trkpt>
      <trkpt lat="42.3263300" lon="1.7497570">
        <ele>1572.1</ele>
        <time>2015-08-13T09:08:45Z</time>
      </trkpt>
      <trkpt lat="42.3263610" lon="1.7497910">
        <ele>1570.6</ele>
        <time>2015-08-13T09:08:46Z</time>
      </trkpt>
      <trkpt lat="42.3264080" lon="1.7498320">
        <ele>1569.0</ele>
        <time>2015-08-13T09:08:47Z</time>
      </trkpt>
      <trkpt lat="42.3264380" lon="1.7499050">
        <ele>1565.3</ele>
        <time>2015-08-13T09:08:48Z</time>
      </trkpt>
      <trkpt lat="42.3264900" lon="1.7499330">
        <ele>1564.6</ele>
        <time>2015-08-13T09:08:49Z</time>
      </trkpt>
      <trkpt lat="42.3265210" lon="1.7499040">
        <ele>1566.7</ele>
        <time>2015-08-13T09:08:50Z</time>
      </trkpt>
      <trkpt lat="42.3265490" lon="1.7499290">
        <ele>1565.7</ele>
        <time>2015-08-13T09:08:51Z</time>
      </trkpt>
      <trkpt lat="42.3266050" lon="1.7499680">
        <ele>1564.5</ele>
        <time>2015-08-13T09:08:53Z</time>
      </trkpt>
      <trkpt lat="42.3266260" lon="1.7500060">
        <ele>1562.8</ele>
        <time>2015-08-13T09:08:55Z</time>
      </trkpt>
      <trkpt lat="42.3266490" lon="1.7500330">
        <ele>1561.7</ele>
        <time>2015-08-13T09:08:57Z</time>
      </trkpt>
      <trkpt lat="42.3267000" lon="1.7500700">
        <ele>1560.6</ele>
        <time>2015-08-13T09:08:59Z</time>
      </trkpt>
      <trkpt lat="42.3267440" lon="1.7500990">
        <ele>1559.8</ele>
        <time>2015-08-13T09:09:00Z</time>
      </trkpt>
      <trkpt lat="42.3267600" lon="1.7501280">
        <ele>1558.5</ele>
        <time>2015-08-13T09:09:01Z</time>
      </trkpt>
      <trkpt lat="42.3267840" lon="1.7501470">
        <ele>1558.0</ele>
        <time>2015-08-13T09:09:02Z</time>
      </trkpt>
      <trkpt lat="42.3268330" lon="1.7501390">
        <ele>1559.3</ele>
        <time>2015-08-13T09:09:03Z</time>
      </trkpt>
      <trkpt lat="42.3268880" lon="1.7501370">
        <ele>1560.3</ele>
        <time>2015-08-13T09:09:04Z</time>
      </trkpt>
      <trkpt lat="42.3269290" lon="1.7501480">
        <ele>1560.5</ele>
        <time>2015-08-13T09:09:05Z</time>
      </trkpt>
      <trkpt lat="42.3269610" lon="1.7501530">
        <ele>1560.8</ele>
        <time>2015-08-13T09:09:06Z</time>
      </trkpt>
      <trkpt lat="42.3270020" lon="1.7501640">
        <ele>1561.0</ele>
        <time>2015-08-13T09:09:08Z</time>
      </trkpt>
      <trkpt lat="42.3270480" lon="1.7501310">
        <ele>1563.4</ele>
        <time>2015-08-13T09:09:09Z</time>
      </trkpt>
      <trkpt lat="42.3271140" lon="1.7501090">
        <ele>1565.0</ele>
        <time>2015-08-13T09:09:10Z</time>
      </trkpt>
      <trkpt lat="42.3271800" lon="1.7500210">
        <ele>1569.1</ele>
        <time>2015-08-13T09:09:11Z</time>
      </trkpt>
      <trkpt lat="42.3272550" lon="1.7499710">
        <ele>1571.2</ele>
        <time>2015-08-13T09:09:12Z</time>
      </trkpt>
      <trkpt lat="42.3272980" lon="1.7499530">
        <ele>1571.9</ele>
        <time>2015-08-13T09:09:13Z</time>
      </trkpt>
      <trkpt lat="42.3273270" lon="1.7499230">
        <ele>1573.2</ele>
        <time>2015-08-13T09:09:14Z</time>
      </trkpt>
      <trkpt lat="42.3273490" lon="1.7498560">
        <ele>1576.4</ele>
        <time>2015-08-13T09:09:15Z</time>
      </trkpt>
      <trkpt lat="42.3273820" lon="1.7498310">
        <ele>1577.5</ele>
        <time>2015-08-13T09:09:16Z</time>
      </trkpt>
      <trkpt lat="42.3274230" lon="1.7498210">
        <ele>1577.8</ele>
        <time>2015-08-13T09:09:17Z</time>
      </trkpt>
      <trkpt lat="42.3274640" lon="1.7498150">
        <ele>1577.9</ele>
        <time>2015-08-13T09:09:18Z</time>
      </trkpt>
      <trkpt lat="42.3275080" lon="1.7498340">
        <ele>1576.8</ele>
        <time>2015-08-13T09:09:19Z</time>
      </trkpt>
      <trkpt lat="42.3275890" lon="1.7498650">
        <ele>1574.9</ele>
        <time>2015-08-13T09:09:20Z</time>
      </trkpt>
      <trkpt lat="42.3276540" lon="1.7498730">
        <ele>1574.2</ele>
        <time>2015-08-13T09:09:21Z</time>
      </trkpt>
      <trkpt lat="42.3277020" lon="1.7498500">
        <ele>1575.1</ele>
        <time>2015-08-13T09:09:22Z</time>
      </trkpt>
      <trkpt lat="42.3278040" lon="1.7498070">
        <ele>1576.8</ele>
        <time>2015-08-13T09:09:23Z</time>
      </trkpt>
      <trkpt lat="42.3278620" lon="1.7498090">
        <ele>1576.4</ele>
        <time>2015-08-13T09:09:24Z</time>
      </trkpt>
      <trkpt lat="42.3279270" lon="1.7498640">
        <ele>1573.6</ele>
        <time>2015-08-13T09:09:25Z</time>
      </trkpt>
      <trkpt lat="42.3279910" lon="1.7498990">
        <ele>1572.1</ele>
        <time>2015-08-13T09:09:26Z</time>
      </trkpt>
      <trkpt lat="42.3280470" lon="1.7499190">
        <ele>1571.4</ele>
        <time>2015-08-13T09:09:27Z</time>
      </trkpt>
      <trkpt lat="42.3280810" lon="1.7499780">
        <ele>1568.7</ele>
        <time>2015-08-13T09:09:28Z</time>
      </trkpt>
      <trkpt lat="42.3281070" lon="1.7500230">
        <ele>1566.7</ele>
        <time>2015-08-13T09:09:29Z</time>
      </trkpt>
      <trkpt lat="42.3281550" lon="1.7500520">
        <ele>1565.6</ele>
        <time>2015-08-13T09:09:30Z</time>
      </trkpt>
      <trkpt lat="42.3282030" lon="1.7501470">
        <ele>1561.3</ele>
        <time>2015-08-13T09:09:31Z</time>
      </trkpt>
      <trkpt lat="42.3282620" lon="1.7502370">
        <ele>1557.4</ele>
        <time>2015-08-13T09:09:32Z</time>
      </trkpt>
      <trkpt lat="42.3283200" lon="1.7502770">
        <ele>1555.9</ele>
        <time>2015-08-13T09:09:33Z</time>
      </trkpt>
      <trkpt lat="42.3283660" lon="1.7503230">
        <ele>1554.0</ele>
        <time>2015-08-13T09:09:34Z</time>
      </trkpt>
      <trkpt lat="42.3284180" lon="1.7504710">
        <ele>1547.4</ele>
        <time>2015-08-13T09:09:35Z</time>
      </trkpt>
      <trkpt lat="42.3284670" lon="1.7505560">
        <ele>1543.7</ele>
        <time>2015-08-13T09:09:36Z</time>
      </trkpt>
      <trkpt lat="42.3285470" lon="1.7506050">
        <ele>1541.9</ele>
        <time>2015-08-13T09:09:37Z</time>
      </trkpt>
      <trkpt lat="42.3285830" lon="1.7506310">
        <ele>1540.9</ele>
        <time>2015-08-13T09:09:38Z</time>
      </trkpt>
      <trkpt lat="42.3286320" lon="1.7506660">
        <ele>1539.6</ele>
        <time>2015-08-13T09:09:39Z</time>
      </trkpt>
      <trkpt lat="42.3286880" lon="1.7506720">
        <ele>1539.7</ele>
        <time>2015-08-13T09:09:40Z</time>
      </trkpt>
      <trkpt lat="42.3287320" lon="1.7506960">
        <ele>1538.8</ele>
        <time>2015-08-13T09:09:41Z</time>
      </trkpt>
      <trkpt lat="42.3288030" lon="1.7506020">
        <ele>1542.5</ele>
        <time>2015-08-13T09:09:42Z</time>
      </trkpt>
      <trkpt lat="42.3288540" lon="1.7505720">
        <ele>1543.1</ele>
        <time>2015-08-13T09:09:43Z</time>
      </trkpt>
      <trkpt lat="42.3289060" lon="1.7505470">
        <ele>1543.4</ele>
        <time>2015-08-13T09:09:44Z</time>
      </trkpt>
      <trkpt lat="42.3289560" lon="1.7505270">
        <ele>1543.5</ele>
        <time>2015-08-13T09:09:45Z</time>
      </trkpt>
      <trkpt lat="42.3289960" lon="1.7505200">
        <ele>1543.2</ele>
        <time>2015-08-13T09:09:46Z</time>
      </trkpt>
      <trkpt lat="42.3290350" lon="1.7505020">
        <ele>1543.3</ele>
        <time>2015-08-13T09:09:47Z</time>
      </trkpt>
      <trkpt lat="42.3290720" lon="1.7504850">
        <ele>1543.4</ele>
        <time>2015-08-13T09:09:48Z</time>
      </trkpt>
      <trkpt lat="42.3291560" lon="1.7504890">
        <ele>1541.8</ele>
        <time>2015-08-13T09:09:49Z</time>
      </trkpt>
      <trkpt lat="42.3291970" lon="1.7504460">
        <ele>1542.8</ele>
        <time>2015-08-13T09:09:50Z</time>
      </trkpt>
      <trkpt lat="42.3292360" lon="1.7504040">
        <ele>1543.7</ele>
        <time>2015-08-13T09:09:51Z</time>
      </trkpt>
      <trkpt lat="42.3292600" lon="1.7503830">
        <ele>1544.1</ele>
        <time>2015-08-13T09:09:52Z</time>
      </trkpt>
      <trkpt lat="42.3292850" lon="1.7503550">
        <ele>1544.7</ele>
        <time>2015-08-13T09:09:53Z</time>
      </trkpt>
      <trkpt lat="42.3293200" lon="1.7503170">
        <ele>1545.5</ele>
        <time>2015-08-13T09:09:54Z</time>
      </trkpt>
      <trkpt lat="42.3293680" lon="1.7502840">
        <ele>1545.8</ele>
        <time>2015-08-13T09:09:55Z</time>
      </trkpt>
      <trkpt lat="42.3294000" lon="1.7502610">
        <ele>1546.0</ele>
        <time>2015-08-13T09:09:56Z</time>
      </trkpt>
      <trkpt lat="42.3294750" lon="1.7501730">
        <ele>1547.7</ele>
        <time>2015-08-13T09:09:57Z</time>
      </trkpt>
      <trkpt lat="42.3295350" lon="1.7500950">
        <ele>1549.2</ele>
        <time>2015-08-13T09:09:58Z</time>
      </trkpt>
      <trkpt lat="42.3295600" lon="1.7500760">
        <ele>1549.4</ele>
        <time>2015-08-13T09:09:59Z</time>
      </trkpt>
      <trkpt lat="42.3296340" lon="1.7500320">
        <ele>1547.3</ele>
        <time>2015-08-13T09:10:00Z</time>
      </trkpt>
      <trkpt lat="42.3295750" lon="1.7499890">
        <ele>1552.1</ele>
        <time>2015-08-13T09:10:01Z</time>
      </trkpt>
      <trkpt lat="42.3295780" lon="1.7499150">
        <ele>1554.6</ele>
        <time>2015-08-13T09:10:02Z</time>
      </trkpt>
      <trkpt lat="42.3295710" lon="1.7498610">
        <ele>1556.6</ele>
        <time>2015-08-13T09:10:03Z</time>
      </trkpt>
      <trkpt lat="42.3295510" lon="1.7498340">
        <ele>1558.1</ele>
        <time>2015-08-13T09:10:05Z</time>
      </trkpt>
      <trkpt lat="42.3295430" lon="1.7497390">
        <ele>1561.6</ele>
        <time>2015-08-13T09:10:07Z</time>
      </trkpt>
      <trkpt lat="42.3295490" lon="1.7496550">
        <ele>1564.4</ele>
        <time>2015-08-13T09:10:08Z</time>
      </trkpt>
      <trkpt lat="42.3295940" lon="1.7495650">
        <ele>1566.0</ele>
        <time>2015-08-13T09:10:09Z</time>
      </trkpt>
      <trkpt lat="42.3296220" lon="1.7495110">
        <ele>1566.1</ele>
        <time>2015-08-13T09:10:10Z</time>
      </trkpt>
      <trkpt lat="42.3296280" lon="1.7494690">
        <ele>1567.2</ele>
        <time>2015-08-13T09:10:11Z</time>
      </trkpt>
      <trkpt lat="42.3296870" lon="1.7494200">
        <ele>1565.6</ele>
        <time>2015-08-13T09:10:12Z</time>
      </trkpt>
      <trkpt lat="42.3297920" lon="1.7493530">
        <ele>1562.1</ele>
        <time>2015-08-13T09:10:13Z</time>
      </trkpt>
      <trkpt lat="42.3298380" lon="1.7492980">
        <ele>1561.8</ele>
        <time>2015-08-13T09:10:14Z</time>
      </trkpt>
      <trkpt lat="42.3298970" lon="1.7492540">
        <ele>1560.4</ele>
        <time>2015-08-13T09:10:15Z</time>
      </trkpt>
      <trkpt lat="42.3299380" lon="1.7492120">
        <ele>1560.0</ele>
        <time>2015-08-13T09:10:16Z</time>
      </trkpt>
      <trkpt lat="42.3299910" lon="1.7492320">
        <ele>1556.4</ele>
        <time>2015-08-13T09:10:17Z</time>
      </trkpt>
      <trkpt lat="42.3300400" lon="1.7492640">
        <ele>1552.4</ele>
        <time>2015-08-13T09:10:18Z</time>
      </trkpt>
      <trkpt lat="42.3300840" lon="1.7492620">
        <ele>1550.1</ele>
        <time>2015-08-13T09:10:19Z</time>
      </trkpt>
      <trkpt lat="42.3301490" lon="1.7493320">
        <ele>1543.3</ele>
        <time>2015-08-13T09:10:20Z</time>
      </trkpt>
      <trkpt lat="42.3301740" lon="1.7494230">
        <ele>1537.6</ele>
        <time>2015-08-13T09:10:21Z</time>
      </trkpt>
      <trkpt lat="42.3302130" lon="1.7494440">
        <ele>1534.3</ele>
        <time>2015-08-13T09:10:22Z</time>
      </trkpt>
      <trkpt lat="42.3304480" lon="1.7493430">
        <ele>1527.8</ele>
        <time>2015-08-13T09:10:24Z</time>
      </trkpt>
      <trkpt lat="42.3305130" lon="1.7493620">
        <ele>1526.3</ele>
        <time>2015-08-13T09:10:25Z</time>
      </trkpt>
      <trkpt lat="42.3305700" lon="1.7493800">
        <ele>1525.0</ele>
        <time>2015-08-13T09:10:26Z</time>
      </trkpt>
      <trkpt lat="42.3305640" lon="1.7494720">
        <ele>1520.1</ele>
        <time>2015-08-13T09:10:27Z</time>
      </trkpt>
      <trkpt lat="42.3305950" lon="1.7495080">
        <ele>1518.0</ele>
        <time>2015-08-13T09:10:29Z</time>
      </trkpt>
      <trkpt lat="42.3306210" lon="1.7495740">
        <ele>1514.3</ele>
        <time>2015-08-13T09:10:30Z</time>
      </trkpt>
      <trkpt lat="42.3306500" lon="1.7495670">
        <ele>1514.5</ele>
        <time>2015-08-13T09:10:31Z</time>
      </trkpt>
      <trkpt lat="42.3306770" lon="1.7495850">
        <ele>1513.4</ele>
        <time>2015-08-13T09:10:32Z</time>
      </trkpt>
      <trkpt lat="42.3307260" lon="1.7496340">
        <ele>1510.9</ele>
        <time>2015-08-13T09:10:33Z</time>
      </trkpt>
      <trkpt lat="42.3307710" lon="1.7496630">
        <ele>1509.2</ele>
        <time>2015-08-13T09:10:34Z</time>
      </trkpt>
      <trkpt lat="42.3308070" lon="1.7496990">
        <ele>1507.1</ele>
        <time>2015-08-13T09:10:35Z</time>
      </trkpt>
      <trkpt lat="42.3308470" lon="1.7497270">
        <ele>1505.4</ele>
        <time>2015-08-13T09:10:36Z</time>
      </trkpt>
      <trkpt lat="42.3309060" lon="1.7497530">
        <ele>1503.4</ele>
        <time>2015-08-13T09:10:37Z</time>
      </trkpt>
      <trkpt lat="42.3309530" lon="1.7497620">
        <ele>1502.4</ele>
        <time>2015-08-13T09:10:39Z</time>
      </trkpt>
      <trkpt lat="42.3309890" lon="1.7497590">
        <ele>1502.1</ele>
        <time>2015-08-13T09:10:46Z</time>
      </trkpt>
      <trkpt lat="42.3310730" lon="1.7498400">
        <ele>1496.6</ele>
        <time>2015-08-13T09:10:49Z</time>
      </trkpt>
      <trkpt lat="42.3311110" lon="1.7498500">
        <ele>1495.4</ele>
        <time>2015-08-13T09:10:50Z</time>
      </trkpt>
      <trkpt lat="42.3311450" lon="1.7498360">
        <ele>1495.7</ele>
        <time>2015-08-13T09:10:51Z</time>
      </trkpt>
      <trkpt lat="42.3311700" lon="1.7498510">
        <ele>1494.5</ele>
        <time>2015-08-13T09:10:52Z</time>
      </trkpt>
      <trkpt lat="42.3312010" lon="1.7498510">
        <ele>1494.0</ele>
        <time>2015-08-13T09:10:53Z</time>
      </trkpt>
      <trkpt lat="42.3312560" lon="1.7497860">
        <ele>1497.3</ele>
        <time>2015-08-13T09:10:54Z</time>
      </trkpt>
      <trkpt lat="42.3313190" lon="1.7497020">
        <ele>1501.5</ele>
        <time>2015-08-13T09:10:55Z</time>
      </trkpt>
      <trkpt lat="42.3313580" lon="1.7496750">
        <ele>1502.5</ele>
        <time>2015-08-13T09:10:56Z</time>
      </trkpt>
      <trkpt lat="42.3314270" lon="1.7496040">
        <ele>1505.6</ele>
        <time>2015-08-13T09:10:57Z</time>
      </trkpt>
      <trkpt lat="42.3314760" lon="1.7496080">
        <ele>1504.5</ele>
        <time>2015-08-13T09:10:58Z</time>
      </trkpt>
      <trkpt lat="42.3315010" lon="1.7495450">
        <ele>1507.5</ele>
        <time>2015-08-13T09:10:59Z</time>
      </trkpt>
      <trkpt lat="42.3315670" lon="1.7495120">
        <ele>1508.1</ele>
        <time>2015-08-13T09:11:00Z</time>
      </trkpt>
      <trkpt lat="42.3316010" lon="1.7494870">
        <ele>1508.9</ele>
        <time>2015-08-13T09:11:01Z</time>
      </trkpt>
      <trkpt lat="42.3316430" lon="1.7494430">
        <ele>1510.6</ele>
        <time>2015-08-13T09:11:02Z</time>
      </trkpt>
      <trkpt lat="42.3316780" lon="1.7494380">
        <ele>1510.2</ele>
        <time>2015-08-13T09:11:03Z</time>
      </trkpt>
      <trkpt lat="42.3317310" lon="1.7494720">
        <ele>1507.5</ele>
        <time>2015-08-13T09:11:04Z</time>
      </trkpt>
      <trkpt lat="42.3317670" lon="1.7494960">
        <ele>1505.5</ele>
        <time>2015-08-13T09:11:05Z</time>
      </trkpt>
      <trkpt lat="42.3318130" lon="1.7495260">
        <ele>1503.1</ele>
        <time>2015-08-13T09:11:06Z</time>
      </trkpt>
      <trkpt lat="42.3318480" lon="1.7495540">
        <ele>1500.9</ele>
        <time>2015-08-13T09:11:07Z</time>
      </trkpt>
      <trkpt lat="42.3318840" lon="1.7495550">
        <ele>1500.2</ele>
        <time>2015-08-13T09:11:09Z</time>
      </trkpt>
      <trkpt lat="42.3319320" lon="1.7495680">
        <ele>1498.6</ele>
        <time>2015-08-13T09:11:11Z</time>
      </trkpt>
      <trkpt lat="42.3319880" lon="1.7495470">
        <ele>1498.8</ele>
        <time>2015-08-13T09:11:13Z</time>
      </trkpt>
      <trkpt lat="42.3320240" lon="1.7495660">
        <ele>1497.1</ele>
        <time>2015-08-13T09:11:15Z</time>
      </trkpt>
      <trkpt lat="42.3320620" lon="1.7495800">
        <ele>1495.6</ele>
        <time>2015-08-13T09:11:17Z</time>
      </trkpt>
      <trkpt lat="42.3321030" lon="1.7495730">
        <ele>1495.6</ele>
        <time>2015-08-13T09:11:19Z</time>
      </trkpt>
      <trkpt lat="42.3321350" lon="1.7496030">
        <ele>1494.1</ele>
        <time>2015-08-13T09:11:21Z</time>
      </trkpt>
      <trkpt lat="42.3321870" lon="1.7496480">
        <ele>1491.8</ele>
        <time>2015-08-13T09:11:23Z</time>
      </trkpt>
      <trkpt lat="42.3322110" lon="1.7496700">
        <ele>1490.7</ele>
        <time>2015-08-13T09:11:24Z</time>
      </trkpt>
      <trkpt lat="42.3322500" lon="1.7496970">
        <ele>1489.3</ele>
        <time>2015-08-13T09:11:26Z</time>
      </trkpt>
      <trkpt lat="42.3322940" lon="1.7497010">
        <ele>1489.1</ele>
        <time>2015-08-13T09:11:28Z</time>
      </trkpt>
      <trkpt lat="42.3323240" lon="1.7496980">
        <ele>1489.3</ele>
        <time>2015-08-13T09:11:29Z</time>
      </trkpt>
      <trkpt lat="42.3323580" lon="1.7497140">
        <ele>1488.4</ele>
        <time>2015-08-13T09:11:31Z</time>
      </trkpt>
      <trkpt lat="42.3324080" lon="1.7497170">
        <ele>1488.3</ele>
        <time>2015-08-13T09:11:33Z</time>
      </trkpt>
      <trkpt lat="42.3324400" lon="1.7497170">
        <ele>1488.3</ele>
        <time>2015-08-13T09:11:35Z</time>
      </trkpt>
      <trkpt lat="42.3324710" lon="1.7497150">
        <ele>1488.4</ele>
        <time>2015-08-13T09:11:37Z</time>
      </trkpt>
      <trkpt lat="42.3325000" lon="1.7497060">
        <ele>1488.9</ele>
        <time>2015-08-13T09:11:39Z</time>
      </trkpt>
      <trkpt lat="42.3325290" lon="1.7496880">
        <ele>1490.0</ele>
        <time>2015-08-13T09:11:41Z</time>
      </trkpt>
      <trkpt lat="42.3325560" lon="1.7496600">
        <ele>1491.7</ele>
        <time>2015-08-13T09:11:43Z</time>
      </trkpt>
      <trkpt lat="42.3325960" lon="1.7496680">
        <ele>1491.2</ele>
        <time>2015-08-13T09:11:44Z</time>
      </trkpt>
      <trkpt lat="42.3326600" lon="1.7496310">
        <ele>1493.5</ele>
        <time>2015-08-13T09:11:46Z</time>
      </trkpt>
      <trkpt lat="42.3326640" lon="1.7495860">
        <ele>1496.2</ele>
        <time>2015-08-13T09:11:49Z</time>
      </trkpt>
      <trkpt lat="42.3326950" lon="1.7495710">
        <ele>1497.3</ele>
        <time>2015-08-13T09:11:51Z</time>
      </trkpt>
      <trkpt lat="42.3327480" lon="1.7495570">
        <ele>1498.4</ele>
        <time>2015-08-13T09:11:53Z</time>
      </trkpt>
      <trkpt lat="42.3327840" lon="1.7495340">
        <ele>1500.0</ele>
        <time>2015-08-13T09:11:55Z</time>
      </trkpt>
      <trkpt lat="42.3328210" lon="1.7495100">
        <ele>1501.8</ele>
        <time>2015-08-13T09:11:59Z</time>
      </trkpt>
      <trkpt lat="42.3328480" lon="1.7495160">
        <ele>1501.5</ele>
        <time>2015-08-13T09:12:00Z</time>
      </trkpt>
      <trkpt lat="42.3329020" lon="1.7495210">
        <ele>1501.3</ele>
        <time>2015-08-13T09:12:02Z</time>
      </trkpt>
      <trkpt lat="42.3329720" lon="1.7495280">
        <ele>1501.4</ele>
        <time>2015-08-13T09:12:05Z</time>
      </trkpt>
      <trkpt lat="42.3330090" lon="1.7495240">
        <ele>1502.0</ele>
        <time>2015-08-13T09:12:11Z</time>
      </trkpt>
      <trkpt lat="42.3330470" lon="1.7495210">
        <ele>1502.6</ele>
        <time>2015-08-13T09:12:51Z</time>
      </trkpt>
      <trkpt lat="42.3330840" lon="1.7495170">
        <ele>1503.2</ele>
        <time>2015-08-13T09:18:22Z</time>
      </trkpt>
      <trkpt lat="42.3331210" lon="1.7495130">
        <ele>1503.8</ele>
        <time>2015-08-13T09:18:23Z</time>
      </trkpt>
      <trkpt lat="42.3331630" lon="1.7495060">
        <ele>1504.6</ele>
        <time>2015-08-13T09:18:25Z</time>
      </trkpt>
      <trkpt lat="42.3332070" lon="1.7495360">
        <ele>1503.1</ele>
        <time>2015-08-13T09:18:26Z</time>
      </trkpt>
      <trkpt lat="42.3332600" lon="1.7495810">
        <ele>1500.9</ele>
        <time>2015-08-13T09:18:28Z</time>
      </trkpt>
      <trkpt lat="42.3332760" lon="1.7496170">
        <ele>1498.8</ele>
        <time>2015-08-13T09:18:29Z</time>
      </trkpt>
      <trkpt lat="42.3333220" lon="1.7496640">
        <ele>1496.4</ele>
        <time>2015-08-13T09:18:30Z</time>
      </trkpt>
      <trkpt lat="42.3333710" lon="1.7498220">
        <ele>1487.4</ele>
        <time>2015-08-13T09:18:32Z</time>
      </trkpt>
      <trkpt lat="42.3333990" lon="1.7498880">
        <ele>1483.7</ele>
        <time>2015-08-13T09:18:33Z</time>
      </trkpt>
      <trkpt lat="42.3334120" lon="1.7499410">
        <ele>1480.6</ele>
        <time>2015-08-13T09:18:35Z</time>
      </trkpt>
      <trkpt lat="42.3334290" lon="1.7499780">
        <ele>1478.6</ele>
        <time>2015-08-13T09:18:36Z</time>
      </trkpt>
      <trkpt lat="42.3334620" lon="1.7500180">
        <ele>1476.6</ele>
        <time>2015-08-13T09:18:38Z</time>
      </trkpt>
      <trkpt lat="42.3334960" lon="1.7500450">
        <ele>1475.4</ele>
        <time>2015-08-13T09:18:39Z</time>
      </trkpt>
      <trkpt lat="42.3334910" lon="1.7501210">
        <ele>1470.8</ele>
        <time>2015-08-13T09:18:41Z</time>
      </trkpt>
      <trkpt lat="42.3334810" lon="1.7501820">
        <ele>1467.0</ele>
        <time>2015-08-13T09:18:42Z</time>
      </trkpt>
      <trkpt lat="42.3335000" lon="1.7502330">
        <ele>1464.2</ele>
        <time>2015-08-13T09:18:43Z</time>
      </trkpt>
      <trkpt lat="42.3335090" lon="1.7502980">
        <ele>1460.4</ele>
        <time>2015-08-13T09:18:46Z</time>
      </trkpt>
      <trkpt lat="42.3335020" lon="1.7503510">
        <ele>1457.1</ele>
        <time>2015-08-13T09:18:47Z</time>
      </trkpt>
      <trkpt lat="42.3334920" lon="1.7504140">
        <ele>1453.1</ele>
        <time>2015-08-13T09:18:48Z</time>
      </trkpt>
      <trkpt lat="42.3335120" lon="1.7504460">
        <ele>1451.5</ele>
        <time>2015-08-13T09:18:49Z</time>
      </trkpt>
      <trkpt lat="42.3335090" lon="1.7504930">
        <ele>1448.7</ele>
        <time>2015-08-13T09:18:51Z</time>
      </trkpt>
      <trkpt lat="42.3335420" lon="1.7504990">
        <ele>1448.9</ele>
        <time>2015-08-13T09:18:53Z</time>
      </trkpt>
      <trkpt lat="42.3335860" lon="1.7505180">
        <ele>1448.4</ele>
        <time>2015-08-13T09:18:55Z</time>
      </trkpt>
      <trkpt lat="42.3336310" lon="1.7505250">
        <ele>1448.7</ele>
        <time>2015-08-13T09:18:57Z</time>
      </trkpt>
      <trkpt lat="42.3336680" lon="1.7505350">
        <ele>1448.7</ele>
        <time>2015-08-13T09:19:00Z</time>
      </trkpt>
      <trkpt lat="42.3336840" lon="1.7505840">
        <ele>1446.1</ele>
        <time>2015-08-13T09:19:02Z</time>
      </trkpt>
      <trkpt lat="42.3336540" lon="1.7507090">
        <ele>1438.2</ele>
        <time>2015-08-13T09:19:03Z</time>
      </trkpt>
      <trkpt lat="42.3336670" lon="1.7507730">
        <ele>1434.7</ele>
        <time>2015-08-13T09:19:04Z</time>
      </trkpt>
      <trkpt lat="42.3336640" lon="1.7508240">
        <ele>1431.6</ele>
        <time>2015-08-13T09:19:05Z</time>
      </trkpt>
      <trkpt lat="42.3336910" lon="1.7507490">
        <ele>1436.5</ele>
        <time>2015-08-13T09:19:06Z</time>
      </trkpt>
      <trkpt lat="42.3337550" lon="1.7507290">
        <ele>1438.8</ele>
        <time>2015-08-13T09:19:29Z</time>
      </trkpt>
      <trkpt lat="42.3337960" lon="1.7507330">
        <ele>1440.1</ele>
        <time>2015-08-13T09:19:30Z</time>
      </trkpt>
      <trkpt lat="42.3338650" lon="1.7506870">
        <ele>1445.2</ele>
        <time>2015-08-13T09:19:31Z</time>
      </trkpt>
      <trkpt lat="42.3338950" lon="1.7506900">
        <ele>1446.1</ele>
        <time>2015-08-13T09:19:32Z</time>
      </trkpt>
      <trkpt lat="42.3338980" lon="1.7506500">
        <ele>1448.6</ele>
        <time>2015-08-13T09:19:35Z</time>
      </trkpt>
      <trkpt lat="42.3339140" lon="1.7506080">
        <ele>1451.7</ele>
        <time>2015-08-13T09:19:37Z</time>
      </trkpt>
      <trkpt lat="42.3339650" lon="1.7506350">
        <ele>1451.9</ele>
        <time>2015-08-13T09:19:39Z</time>
      </trkpt>
      <trkpt lat="42.3340200" lon="1.7506310">
        <ele>1454.1</ele>
        <time>2015-08-13T09:19:40Z</time>
      </trkpt>
      <trkpt lat="42.3340410" lon="1.7506660">
        <ele>1452.8</ele>
        <time>2015-08-13T09:19:41Z</time>
      </trkpt>
      <trkpt lat="42.3340690" lon="1.7506780">
        <ele>1453.1</ele>
        <time>2015-08-13T09:19:42Z</time>
      </trkpt>
      <trkpt lat="42.3340880" lon="1.7507090">
        <ele>1452.0</ele>
        <time>2015-08-13T09:19:43Z</time>
      </trkpt>
      <trkpt lat="42.3341210" lon="1.7507530">
        <ele>1450.6</ele>
        <time>2015-08-13T09:19:44Z</time>
      </trkpt>
      <trkpt lat="42.3341310" lon="1.7508190">
        <ele>1447.1</ele>
        <time>2015-08-13T09:19:45Z</time>
      </trkpt>
      <trkpt lat="42.3341540" lon="1.7509050">
        <ele>1442.8</ele>
        <time>2015-08-13T09:19:46Z</time>
      </trkpt>
      <trkpt lat="42.3341830" lon="1.7509550">
        <ele>1440.9</ele>
        <time>2015-08-13T09:19:47Z</time>
      </trkpt>
      <trkpt lat="42.3342390" lon="1.7509530">
        <ele>1443.1</ele>
        <time>2015-08-13T09:19:48Z</time>
      </trkpt>
      <trkpt lat="42.3342790" lon="1.7509660">
        <ele>1443.7</ele>
        <time>2015-08-13T09:19:49Z</time>
      </trkpt>
      <trkpt lat="42.3343180" lon="1.7509640">
        <ele>1445.3</ele>
        <time>2015-08-13T09:19:50Z</time>
      </trkpt>
      <trkpt lat="42.3343390" lon="1.7509920">
        <ele>1444.4</ele>
        <time>2015-08-13T09:19:51Z</time>
      </trkpt>
      <trkpt lat="42.3343640" lon="1.7510100">
        <ele>1444.2</ele>
        <time>2015-08-13T09:19:52Z</time>
      </trkpt>
      <trkpt lat="42.3343970" lon="1.7510410">
        <ele>1443.6</ele>
        <time>2015-08-13T09:19:53Z</time>
      </trkpt>
      <trkpt lat="42.3344220" lon="1.7510980">
        <ele>1441.1</ele>
        <time>2015-08-13T09:19:55Z</time>
      </trkpt>
      <trkpt lat="42.3344510" lon="1.7510610">
        <ele>1444.3</ele>
        <time>2015-08-13T09:19:56Z</time>
      </trkpt>
      <trkpt lat="42.3344940" lon="1.7510610">
        <ele>1445.9</ele>
        <time>2015-08-13T09:19:58Z</time>
      </trkpt>
      <trkpt lat="42.3345260" lon="1.7510490">
        <ele>1447.8</ele>
        <time>2015-08-13T09:20:00Z</time>
      </trkpt>
      <trkpt lat="42.3345650" lon="1.7510660">
        <ele>1448.2</ele>
        <time>2015-08-13T09:20:03Z</time>
      </trkpt>
      <trkpt lat="42.3345930" lon="1.7510910">
        <ele>1447.3</ele>
        <time>2015-08-13T09:20:05Z</time>
      </trkpt>
      <trkpt lat="42.3346240" lon="1.7511000">
        <ele>1446.6</ele>
        <time>2015-08-13T09:20:09Z</time>
      </trkpt>
      <trkpt lat="42.3346440" lon="1.7511340">
        <ele>1444.6</ele>
        <time>2015-08-13T09:20:11Z</time>
      </trkpt>
      <trkpt lat="42.3346600" lon="1.7511760">
        <ele>1442.2</ele>
        <time>2015-08-13T09:20:13Z</time>
      </trkpt>
      <trkpt lat="42.3346690" lon="1.7512330">
        <ele>1439.0</ele>
        <time>2015-08-13T09:20:15Z</time>
      </trkpt>
      <trkpt lat="42.3346850" lon="1.7512650">
        <ele>1437.1</ele>
        <time>2015-08-13T09:20:16Z</time>
      </trkpt>
      <trkpt lat="42.3347250" lon="1.7512580">
        <ele>1437.6</ele>
        <time>2015-08-13T09:20:18Z</time>
      </trkpt>
      <trkpt lat="42.3347610" lon="1.7512190">
        <ele>1439.8</ele>
        <time>2015-08-13T09:20:19Z</time>
      </trkpt>
      <trkpt lat="42.3347890" lon="1.7512150">
        <ele>1440.0</ele>
        <time>2015-08-13T09:20:20Z</time>
      </trkpt>
      <trkpt lat="42.3348140" lon="1.7511990">
        <ele>1440.9</ele>
        <time>2015-08-13T09:20:25Z</time>
      </trkpt>
      <trkpt lat="42.3348390" lon="1.7511690">
        <ele>1442.3</ele>
        <time>2015-08-13T09:20:28Z</time>
      </trkpt>
      <trkpt lat="42.3348740" lon="1.7511580">
        <ele>1442.8</ele>
        <time>2015-08-13T09:20:30Z</time>
      </trkpt>
      <trkpt lat="42.3349010" lon="1.7511410">
        <ele>1443.5</ele>
        <time>2015-08-13T09:20:32Z</time>
      </trkpt>
      <trkpt lat="42.3349300" lon="1.7511410">
        <ele>1443.5</ele>
        <time>2015-08-13T09:20:34Z</time>
      </trkpt>
      <trkpt lat="42.3349640" lon="1.7511380">
        <ele>1443.5</ele>
        <time>2015-08-13T09:20:37Z</time>
      </trkpt>
      <trkpt lat="42.3350010" lon="1.7511240">
        <ele>1444.0</ele>
        <time>2015-08-13T09:20:40Z</time>
      </trkpt>
      <trkpt lat="42.3350310" lon="1.7511100">
        <ele>1444.5</ele>
        <time>2015-08-13T09:20:42Z</time>
      </trkpt>
      <trkpt lat="42.3350560" lon="1.7510780">
        <ele>1445.8</ele>
        <time>2015-08-13T09:20:43Z</time>
      </trkpt>
      <trkpt lat="42.3350770" lon="1.7510420">
        <ele>1447.1</ele>
        <time>2015-08-13T09:20:44Z</time>
      </trkpt>
      <trkpt lat="42.3350920" lon="1.7509880">
        <ele>1449.2</ele>
        <time>2015-08-13T09:20:46Z</time>
      </trkpt>
      <trkpt lat="42.3351070" lon="1.7509350">
        <ele>1451.2</ele>
        <time>2015-08-13T09:20:48Z</time>
      </trkpt>
      <trkpt lat="42.3350970" lon="1.7508770">
        <ele>1453.7</ele>
        <time>2015-08-13T09:20:50Z</time>
      </trkpt>
      <trkpt lat="42.3350950" lon="1.7508390">
        <ele>1455.2</ele>
        <time>2015-08-13T09:20:52Z</time>
      </trkpt>
      <trkpt lat="42.3351020" lon="1.7507970">
        <ele>1456.8</ele>
        <time>2015-08-13T09:20:55Z</time>
      </trkpt>
      <trkpt lat="42.3351230" lon="1.7507660">
        <ele>1457.7</ele>
        <time>2015-08-13T09:20:57Z</time>
      </trkpt>
      <trkpt lat="42.3351410" lon="1.7507120">
        <ele>1459.5</ele>
        <time>2015-08-13T09:20:59Z</time>
      </trkpt>
      <trkpt lat="42.3351610" lon="1.7506810">
        <ele>1460.3</ele>
        <time>2015-08-13T09:21:00Z</time>
      </trkpt>
      <trkpt lat="42.3351920" lon="1.7506310">
        <ele>1461.6</ele>
        <time>2015-08-13T09:21:02Z</time>
      </trkpt>
      <trkpt lat="42.3352040" lon="1.7505980">
        <ele>1462.5</ele>
        <time>2015-08-13T09:21:04Z</time>
      </trkpt>
      <trkpt lat="42.3352220" lon="1.7505560">
        <ele>1463.6</ele>
        <time>2015-08-13T09:21:06Z</time>
      </trkpt>
      <trkpt lat="42.3352310" lon="1.7505210">
        <ele>1464.6</ele>
        <time>2015-08-13T09:21:07Z</time>
      </trkpt>
      <trkpt lat="42.3352520" lon="1.7504960">
        <ele>1465.0</ele>
        <time>2015-08-13T09:21:08Z</time>
      </trkpt>
      <trkpt lat="42.3352690" lon="1.7504630">
        <ele>1465.7</ele>
        <time>2015-08-13T09:21:10Z</time>
      </trkpt>
      <trkpt lat="42.3353430" lon="1.7503720">
        <ele>1465.6</ele>
        <time>2015-08-13T09:21:12Z</time>
      </trkpt>
      <trkpt lat="42.3353640" lon="1.7503430">
        <ele>1465.2</ele>
        <time>2015-08-13T09:21:13Z</time>
      </trkpt>
      <trkpt lat="42.3353680" lon="1.7502970">
        <ele>1465.5</ele>
        <time>2015-08-13T09:21:14Z</time>
      </trkpt>
      <trkpt lat="42.3353660" lon="1.7502060">
        <ele>1466.5</ele>
        <time>2015-08-13T09:21:16Z</time>
      </trkpt>
      <trkpt lat="42.3353630" lon="1.7501600">
        <ele>1467.0</ele>
        <time>2015-08-13T09:21:17Z</time>
      </trkpt>
      <trkpt lat="42.3353950" lon="1.7501400">
        <ele>1466.1</ele>
        <time>2015-08-13T09:21:18Z</time>
      </trkpt>
      <trkpt lat="42.3354120" lon="1.7500980">
        <ele>1465.8</ele>
        <time>2015-08-13T09:21:19Z</time>
      </trkpt>
      <trkpt lat="42.3353910" lon="1.7500570">
        <ele>1467.0</ele>
        <time>2015-08-13T09:21:20Z</time>
      </trkpt>
      <trkpt lat="42.3353910" lon="1.7500100">
        <ele>1467.4</ele>
        <time>2015-08-13T09:21:21Z</time>
      </trkpt>
      <trkpt lat="42.3353810" lon="1.7499730">
        <ele>1468.1</ele>
        <time>2015-08-13T09:21:22Z</time>
      </trkpt>
      <trkpt lat="42.3356110" lon="1.7498500">
        <ele>1455.4</ele>
        <time>2015-08-13T09:21:24Z</time>
      </trkpt>
      <trkpt lat="42.3356710" lon="1.7497540">
        <ele>1452.2</ele>
        <time>2015-08-13T09:21:25Z</time>
      </trkpt>
      <trkpt lat="42.3356680" lon="1.7496540">
        <ele>1453.0</ele>
        <time>2015-08-13T09:21:26Z</time>
      </trkpt>
      <trkpt lat="42.3356950" lon="1.7495700">
        <ele>1451.6</ele>
        <time>2015-08-13T09:21:27Z</time>
      </trkpt>
      <trkpt lat="42.3357360" lon="1.7494760">
        <ele>1449.1</ele>
        <time>2015-08-13T09:21:28Z</time>
      </trkpt>
      <trkpt lat="42.3357660" lon="1.7494030">
        <ele>1447.2</ele>
        <time>2015-08-13T09:21:29Z</time>
      </trkpt>
      <trkpt lat="42.3357960" lon="1.7493110">
        <ele>1445.4</ele>
        <time>2015-08-13T09:21:30Z</time>
      </trkpt>
      <trkpt lat="42.3358230" lon="1.7492270">
        <ele>1443.8</ele>
        <time>2015-08-13T09:21:31Z</time>
      </trkpt>
      <trkpt lat="42.3358460" lon="1.7491540">
        <ele>1442.5</ele>
        <time>2015-08-13T09:21:32Z</time>
      </trkpt>
      <trkpt lat="42.3358570" lon="1.7490770">
        <ele>1441.9</ele>
        <time>2015-08-13T09:21:33Z</time>
      </trkpt>
      <trkpt lat="42.3358560" lon="1.7489740">
        <ele>1442.2</ele>
        <time>2015-08-13T09:21:34Z</time>
      </trkpt>
      <trkpt lat="42.3358730" lon="1.7489040">
        <ele>1441.2</ele>
        <time>2015-08-13T09:21:35Z</time>
      </trkpt>
      <trkpt lat="42.3360610" lon="1.7487440">
        <ele>1429.9</ele>
        <time>2015-08-13T09:21:37Z</time>
      </trkpt>
      <trkpt lat="42.3360780" lon="1.7486790">
        <ele>1429.9</ele>
        <time>2015-08-13T09:21:38Z</time>
      </trkpt>
      <trkpt lat="42.3361140" lon="1.7486170">
        <ele>1428.6</ele>
        <time>2015-08-13T09:21:39Z</time>
      </trkpt>
      <trkpt lat="42.3361370" lon="1.7485510">
        <ele>1428.3</ele>
        <time>2015-08-13T09:21:40Z</time>
      </trkpt>
      <trkpt lat="42.3361740" lon="1.7484930">
        <ele>1426.9</ele>
        <time>2015-08-13T09:21:41Z</time>
      </trkpt>
      <trkpt lat="42.3361120" lon="1.7484330">
        <ele>1431.7</ele>
        <time>2015-08-13T09:21:42Z</time>
      </trkpt>
      <trkpt lat="42.3361460" lon="1.7483570">
        <ele>1430.9</ele>
        <time>2015-08-13T09:21:43Z</time>
      </trkpt>
      <trkpt lat="42.3361330" lon="1.7483020">
        <ele>1432.5</ele>
        <time>2015-08-13T09:21:44Z</time>
      </trkpt>
      <trkpt lat="42.3361420" lon="1.7482360">
        <ele>1433.1</ele>
        <time>2015-08-13T09:21:45Z</time>
      </trkpt>
      <trkpt lat="42.3361760" lon="1.7481650">
        <ele>1432.2</ele>
        <time>2015-08-13T09:21:46Z</time>
      </trkpt>
      <trkpt lat="42.3362120" lon="1.7481120">
        <ele>1430.9</ele>
        <time>2015-08-13T09:21:47Z</time>
      </trkpt>
      <trkpt lat="42.3362240" lon="1.7480600">
        <ele>1431.1</ele>
        <time>2015-08-13T09:21:48Z</time>
      </trkpt>
      <trkpt lat="42.3363050" lon="1.7481050">
        <ele>1426.8</ele>
        <time>2015-08-13T09:21:49Z</time>
      </trkpt>
      <trkpt lat="42.3363370" lon="1.7480820">
        <ele>1426.1</ele>
        <time>2015-08-13T09:21:51Z</time>
      </trkpt>
      <trkpt lat="42.3363740" lon="1.7480800">
        <ele>1424.8</ele>
        <time>2015-08-13T09:21:53Z</time>
      </trkpt>
      <trkpt lat="42.3364160" lon="1.7480780">
        <ele>1423.3</ele>
        <time>2015-08-13T09:21:55Z</time>
      </trkpt>
      <trkpt lat="42.3364960" lon="1.7480860">
        <ele>1420.2</ele>
        <time>2015-08-13T09:21:57Z</time>
      </trkpt>
      <trkpt lat="42.3365590" lon="1.7480970">
        <ele>1417.7</ele>
        <time>2015-08-13T09:21:58Z</time>
      </trkpt>
      <trkpt lat="42.3366020" lon="1.7480940">
        <ele>1416.2</ele>
        <time>2015-08-13T09:21:59Z</time>
      </trkpt>
      <trkpt lat="42.3366550" lon="1.7480790">
        <ele>1414.6</ele>
        <time>2015-08-13T09:22:00Z</time>
      </trkpt>
      <trkpt lat="42.3367090" lon="1.7480880">
        <ele>1412.5</ele>
        <time>2015-08-13T09:22:01Z</time>
      </trkpt>
      <trkpt lat="42.3367480" lon="1.7480660">
        <ele>1411.6</ele>
        <time>2015-08-13T09:22:05Z</time>
      </trkpt>
      <trkpt lat="42.3367670" lon="1.7480320">
        <ele>1411.7</ele>
        <time>2015-08-13T09:22:07Z</time>
      </trkpt>
      <trkpt lat="42.3368060" lon="1.7480910">
        <ele>1408.9</ele>
        <time>2015-08-13T09:22:09Z</time>
      </trkpt>
      <trkpt lat="42.3368650" lon="1.7481170">
        <ele>1406.0</ele>
        <time>2015-08-13T09:22:11Z</time>
      </trkpt>
      <trkpt lat="42.3368950" lon="1.7481330">
        <ele>1404.5</ele>
        <time>2015-08-13T09:22:12Z</time>
      </trkpt>
      <trkpt lat="42.3369380" lon="1.7481560">
        <ele>1402.3</ele>
        <time>2015-08-13T09:22:13Z</time>
      </trkpt>
      <trkpt lat="42.3369690" lon="1.7481580">
        <ele>1401.0</ele>
        <time>2015-08-13T09:22:14Z</time>
      </trkpt>
      <trkpt lat="42.3370040" lon="1.7481430">
        <ele>1400.2</ele>
        <time>2015-08-13T09:22:15Z</time>
      </trkpt>
      <trkpt lat="42.3370480" lon="1.7481560">
        <ele>1398.1</ele>
        <time>2015-08-13T09:22:16Z</time>
      </trkpt>
      <trkpt lat="42.3370770" lon="1.7481490">
        <ele>1397.3</ele>
        <time>2015-08-13T09:22:17Z</time>
      </trkpt>
      <trkpt lat="42.3371080" lon="1.7481390">
        <ele>1396.7</ele>
        <time>2015-08-13T09:22:18Z</time>
      </trkpt>
      <trkpt lat="42.3371860" lon="1.7481540">
        <ele>1394.2</ele>
        <time>2015-08-13T09:22:20Z</time>
      </trkpt>
      <trkpt lat="42.3372380" lon="1.7481790">
        <ele>1392.2</ele>
        <time>2015-08-13T09:22:21Z</time>
      </trkpt>
      <trkpt lat="42.3372840" lon="1.7481990">
        <ele>1390.4</ele>
        <time>2015-08-13T09:22:22Z</time>
      </trkpt>
      <trkpt lat="42.3373370" lon="1.7482130">
        <ele>1388.7</ele>
        <time>2015-08-13T09:22:23Z</time>
      </trkpt>
      <trkpt lat="42.3373760" lon="1.7482070">
        <ele>1387.8</ele>
        <time>2015-08-13T09:22:24Z</time>
      </trkpt>
      <trkpt lat="42.3373660" lon="1.7482720">
        <ele>1386.3</ele>
        <time>2015-08-13T09:22:25Z</time>
      </trkpt>
      <trkpt lat="42.3373860" lon="1.7483090">
        <ele>1384.7</ele>
        <time>2015-08-13T09:22:26Z</time>
      </trkpt>
      <trkpt lat="42.3374130" lon="1.7483350">
        <ele>1383.3</ele>
        <time>2015-08-13T09:22:27Z</time>
      </trkpt>
      <trkpt lat="42.3374460" lon="1.7483800">
        <ele>1381.3</ele>
        <time>2015-08-13T09:22:28Z</time>
      </trkpt>
      <trkpt lat="42.3374810" lon="1.7484230">
        <ele>1379.3</ele>
        <time>2015-08-13T09:22:29Z</time>
      </trkpt>
      <trkpt lat="42.3375220" lon="1.7484320">
        <ele>1378.1</ele>
        <time>2015-08-13T09:22:30Z</time>
      </trkpt>
      <trkpt lat="42.3375460" lon="1.7484660">
        <ele>1376.6</ele>
        <time>2015-08-13T09:22:31Z</time>
      </trkpt>
      <trkpt lat="42.3375620" lon="1.7485230">
        <ele>1374.7</ele>
        <time>2015-08-13T09:22:32Z</time>
      </trkpt>
      <trkpt lat="42.3375680" lon="1.7485610">
        <ele>1373.5</ele>
        <time>2015-08-13T09:22:33Z</time>
      </trkpt>
      <trkpt lat="42.3375920" lon="1.7485960">
        <ele>1372.1</ele>
        <time>2015-08-13T09:22:40Z</time>
      </trkpt>
      <trkpt lat="42.3376540" lon="1.7486460">
        <ele>1369.4</ele>
        <time>2015-08-13T09:22:42Z</time>
      </trkpt>
      <trkpt lat="42.3376910" lon="1.7486990">
        <ele>1367.2</ele>
        <time>2015-08-13T09:22:43Z</time>
      </trkpt>
      <trkpt lat="42.3377200" lon="1.7487520">
        <ele>1365.2</ele>
        <time>2015-08-13T09:22:44Z</time>
      </trkpt>
      <trkpt lat="42.3377560" lon="1.7488050">
        <ele>1363.4</ele>
        <time>2015-08-13T09:22:45Z</time>
      </trkpt>
      <trkpt lat="42.3377730" lon="1.7488370">
        <ele>1362.4</ele>
        <time>2015-08-13T09:22:46Z</time>
      </trkpt>
      <trkpt lat="42.3377990" lon="1.7488700">
        <ele>1361.2</ele>
        <time>2015-08-13T09:22:47Z</time>
      </trkpt>
      <trkpt lat="42.3378450" lon="1.7489010">
        <ele>1359.5</ele>
        <time>2015-08-13T09:22:48Z</time>
      </trkpt>
      <trkpt lat="42.3378770" lon="1.7489240">
        <ele>1358.4</ele>
        <time>2015-08-13T09:22:49Z</time>
      </trkpt>
      <trkpt lat="42.3379320" lon="1.7489370">
        <ele>1356.9</ele>
        <time>2015-08-13T09:22:51Z</time>
      </trkpt>
      <trkpt lat="42.3379690" lon="1.7489490">
        <ele>1356.0</ele>
        <time>2015-08-13T09:22:53Z</time>
      </trkpt>
      <trkpt lat="42.3379990" lon="1.7489630">
        <ele>1355.3</ele>
        <time>2015-08-13T09:22:57Z</time>
      </trkpt>
      <trkpt lat="42.3380240" lon="1.7489500">
        <ele>1355.1</ele>
        <time>2015-08-13T09:23:04Z</time>
      </trkpt>
      <trkpt lat="42.3380640" lon="1.7489800">
        <ele>1353.9</ele>
        <time>2015-08-13T09:24:03Z</time>
      </trkpt>
      <trkpt lat="42.3380960" lon="1.7489930">
        <ele>1353.1</ele>
        <time>2015-08-13T09:24:06Z</time>
      </trkpt>
      <trkpt lat="42.3381270" lon="1.7490130">
        <ele>1352.3</ele>
        <time>2015-08-13T09:24:08Z</time>
      </trkpt>
      <trkpt lat="42.3381630" lon="1.7490260">
        <ele>1351.5</ele>
        <time>2015-08-13T09:24:09Z</time>
      </trkpt>
      <trkpt lat="42.3382000" lon="1.7490520">
        <ele>1350.6</ele>
        <time>2015-08-13T09:24:10Z</time>
      </trkpt>
      <trkpt lat="42.3382550" lon="1.7490850">
        <ele>1349.3</ele>
        <time>2015-08-13T09:24:11Z</time>
      </trkpt>
      <trkpt lat="42.3383000" lon="1.7491110">
        <ele>1348.3</ele>
        <time>2015-08-13T09:24:12Z</time>
      </trkpt>
      <trkpt lat="42.3383380" lon="1.7491160">
        <ele>1347.8</ele>
        <time>2015-08-13T09:24:13Z</time>
      </trkpt>
      <trkpt lat="42.3383750" lon="1.7491350">
        <ele>1347.1</ele>
        <time>2015-08-13T09:24:14Z</time>
      </trkpt>
      <trkpt lat="42.3384050" lon="1.7491920">
        <ele>1346.1</ele>
        <time>2015-08-13T09:24:16Z</time>
      </trkpt>
      <trkpt lat="42.3384470" lon="1.7492130">
        <ele>1345.4</ele>
        <time>2015-08-13T09:24:17Z</time>
      </trkpt>
      <trkpt lat="42.3384880" lon="1.7492340">
        <ele>1344.8</ele>
        <time>2015-08-13T09:24:18Z</time>
      </trkpt>
      <trkpt lat="42.3385900" lon="1.7492160">
        <ele>1343.7</ele>
        <time>2015-08-13T09:24:19Z</time>
      </trkpt>
      <trkpt lat="42.3386390" lon="1.7492360">
        <ele>1343.1</ele>
        <time>2015-08-13T09:24:20Z</time>
      </trkpt>
      <trkpt lat="42.3386860" lon="1.7492740">
        <ele>1342.4</ele>
        <time>2015-08-13T09:24:21Z</time>
      </trkpt>
      <trkpt lat="42.3387360" lon="1.7493350">
        <ele>1341.7</ele>
        <time>2015-08-13T09:24:22Z</time>
      </trkpt>
      <trkpt lat="42.3387760" lon="1.7493700">
        <ele>1340.6</ele>
        <time>2015-08-13T09:24:23Z</time>
      </trkpt>
      <trkpt lat="42.3388190" lon="1.7494290">
        <ele>1338.9</ele>
        <time>2015-08-13T09:24:24Z</time>
      </trkpt>
      <trkpt lat="42.3388100" lon="1.7494640">
        <ele>1339.2</ele>
        <time>2015-08-13T09:24:25Z</time>
      </trkpt>
      <trkpt lat="42.3388300" lon="1.7495340">
        <ele>1338.3</ele>
        <time>2015-08-13T09:24:26Z</time>
      </trkpt>
      <trkpt lat="42.3388540" lon="1.7496090">
        <ele>1337.3</ele>
        <time>2015-08-13T09:24:27Z</time>
      </trkpt>
      <trkpt lat="42.3388970" lon="1.7496740">
        <ele>1335.8</ele>
        <time>2015-08-13T09:24:28Z</time>
      </trkpt>
      <trkpt lat="42.3389350" lon="1.7497470">
        <ele>1334.4</ele>
        <time>2015-08-13T09:24:29Z</time>
      </trkpt>
      <trkpt lat="42.3389540" lon="1.7498570">
        <ele>1333.6</ele>
        <time>2015-08-13T09:24:30Z</time>
      </trkpt>
      <trkpt lat="42.3389590" lon="1.7499430">
        <ele>1333.4</ele>
        <time>2015-08-13T09:24:31Z</time>
      </trkpt>
      <trkpt lat="42.3390260" lon="1.7500500">
        <ele>1331.2</ele>
        <time>2015-08-13T09:24:32Z</time>
      </trkpt>
      <trkpt lat="42.3390530" lon="1.7501220">
        <ele>1330.3</ele>
        <time>2015-08-13T09:24:33Z</time>
      </trkpt>
      <trkpt lat="42.3390780" lon="1.7502650">
        <ele>1329.6</ele>
        <time>2015-08-13T09:24:34Z</time>
      </trkpt>
      <trkpt lat="42.3390690" lon="1.7503400">
        <ele>1329.8</ele>
        <time>2015-08-13T09:24:35Z</time>
      </trkpt>
      <trkpt lat="42.3391310" lon="1.7503550">
        <ele>1328.0</ele>
        <time>2015-08-13T09:24:36Z</time>
      </trkpt>
      <trkpt lat="42.3391830" lon="1.7504480">
        <ele>1326.3</ele>
        <time>2015-08-13T09:24:37Z</time>
      </trkpt>
      <trkpt lat="42.3392010" lon="1.7505130">
        <ele>1325.2</ele>
        <time>2015-08-13T09:24:38Z</time>
      </trkpt>
      <trkpt lat="42.3392340" lon="1.7505450">
        <ele>1324.0</ele>
        <time>2015-08-13T09:24:39Z</time>
      </trkpt>
      <trkpt lat="42.3392720" lon="1.7505890">
        <ele>1322.7</ele>
        <time>2015-08-13T09:24:40Z</time>
      </trkpt>
      <trkpt lat="42.3393030" lon="1.7506460">
        <ele>1321.4</ele>
        <time>2015-08-13T09:24:41Z</time>
      </trkpt>
      <trkpt lat="42.3393080" lon="1.7507020">
        <ele>1320.9</ele>
        <time>2015-08-13T09:24:43Z</time>
      </trkpt>
      <trkpt lat="42.3393630" lon="1.7507720">
        <ele>1319.1</ele>
        <time>2015-08-13T09:24:44Z</time>
      </trkpt>
      <trkpt lat="42.3394080" lon="1.7508120">
        <ele>1317.7</ele>
        <time>2015-08-13T09:24:45Z</time>
      </trkpt>
      <trkpt lat="42.3394480" lon="1.7508570">
        <ele>1316.5</ele>
        <time>2015-08-13T09:24:46Z</time>
      </trkpt>
      <trkpt lat="42.3394560" lon="1.7509530">
        <ele>1315.9</ele>
        <time>2015-08-13T09:24:47Z</time>
      </trkpt>
      <trkpt lat="42.3394740" lon="1.7510270">
        <ele>1315.1</ele>
        <time>2015-08-13T09:24:48Z</time>
      </trkpt>
      <trkpt lat="42.3395410" lon="1.7511120">
        <ele>1313.3</ele>
        <time>2015-08-13T09:24:49Z</time>
      </trkpt>
      <trkpt lat="42.3395730" lon="1.7512170">
        <ele>1312.3</ele>
        <time>2015-08-13T09:24:50Z</time>
      </trkpt>
      <trkpt lat="42.3395750" lon="1.7513230">
        <ele>1311.7</ele>
        <time>2015-08-13T09:24:51Z</time>
      </trkpt>
      <trkpt lat="42.3395390" lon="1.7513810">
        <ele>1312.0</ele>
        <time>2015-08-13T09:24:52Z</time>
      </trkpt>
      <trkpt lat="42.3395200" lon="1.7514920">
        <ele>1311.6</ele>
        <time>2015-08-13T09:24:53Z</time>
      </trkpt>
      <trkpt lat="42.3395220" lon="1.7516000">
        <ele>1310.8</ele>
        <time>2015-08-13T09:24:54Z</time>
      </trkpt>
      <trkpt lat="42.3395500" lon="1.7516850">
        <ele>1309.9</ele>
        <time>2015-08-13T09:24:55Z</time>
      </trkpt>
      <trkpt lat="42.3395650" lon="1.7517820">
        <ele>1309.1</ele>
        <time>2015-08-13T09:24:56Z</time>
      </trkpt>
      <trkpt lat="42.3395730" lon="1.7518560">
        <ele>1308.5</ele>
        <time>2015-08-13T09:24:57Z</time>
      </trkpt>
      <trkpt lat="42.3395920" lon="1.7519490">
        <ele>1307.5</ele>
        <time>2015-08-13T09:24:58Z</time>
      </trkpt>
      <trkpt lat="42.3395680" lon="1.7520450">
        <ele>1307.4</ele>
        <time>2015-08-13T09:24:59Z</time>
      </trkpt>
      <trkpt lat="42.3395700" lon="1.7520950">
        <ele>1306.9</ele>
        <time>2015-08-13T09:25:00Z</time>
      </trkpt>
      <trkpt lat="42.3395880" lon="1.7521460">
        <ele>1305.3</ele>
        <time>2015-08-13T09:25:01Z</time>
      </trkpt>
      <trkpt lat="42.3395990" lon="1.7521870">
        <ele>1304.0</ele>
        <time>2015-08-13T09:25:02Z</time>
      </trkpt>
      <trkpt lat="42.3396160" lon="1.7522310">
        <ele>1302.4</ele>
        <time>2015-08-13T09:25:03Z</time>
      </trkpt>
      <trkpt lat="42.3396250" lon="1.7522820">
        <ele>1301.0</ele>
        <time>2015-08-13T09:25:04Z</time>
      </trkpt>
      <trkpt lat="42.3397710" lon="1.7524220">
        <ele>1294.3</ele>
        <time>2015-08-13T09:25:06Z</time>
      </trkpt>
      <trkpt lat="42.3398030" lon="1.7525090">
        <ele>1291.8</ele>
        <time>2015-08-13T09:25:07Z</time>
      </trkpt>
      <trkpt lat="42.3398090" lon="1.7525790">
        <ele>1290.3</ele>
        <time>2015-08-13T09:25:08Z</time>
      </trkpt>
      <trkpt lat="42.3398270" lon="1.7526300">
        <ele>1288.9</ele>
        <time>2015-08-13T09:25:09Z</time>
      </trkpt>
      <trkpt lat="42.3397960" lon="1.7527180">
        <ele>1287.6</ele>
        <time>2015-08-13T09:25:10Z</time>
      </trkpt>
      <trkpt lat="42.3398010" lon="1.7527620">
        <ele>1286.6</ele>
        <time>2015-08-13T09:25:11Z</time>
      </trkpt>
      <trkpt lat="42.3398070" lon="1.7528000">
        <ele>1285.7</ele>
        <time>2015-08-13T09:25:12Z</time>
      </trkpt>
      <trkpt lat="42.3398100" lon="1.7528720">
        <ele>1284.2</ele>
        <time>2015-08-13T09:25:13Z</time>
      </trkpt>
      <trkpt lat="42.3398020" lon="1.7529590">
        <ele>1282.4</ele>
        <time>2015-08-13T09:25:14Z</time>
      </trkpt>
      <trkpt lat="42.3397820" lon="1.7530570">
        <ele>1280.5</ele>
        <time>2015-08-13T09:25:15Z</time>
      </trkpt>
      <trkpt lat="42.3397450" lon="1.7531300">
        <ele>1279.1</ele>
        <time>2015-08-13T09:25:16Z</time>
      </trkpt>
      <trkpt lat="42.3397400" lon="1.7532100">
        <ele>1277.2</ele>
        <time>2015-08-13T09:25:17Z</time>
      </trkpt>
      <trkpt lat="42.3397480" lon="1.7532950">
        <ele>1275.2</ele>
        <time>2015-08-13T09:25:18Z</time>
      </trkpt>
      <trkpt lat="42.3397500" lon="1.7533420">
        <ele>1274.1</ele>
        <time>2015-08-13T09:25:19Z</time>
      </trkpt>
      <trkpt lat="42.3397850" lon="1.7533620">
        <ele>1273.6</ele>
        <time>2015-08-13T09:25:21Z</time>
      </trkpt>
      <trkpt lat="42.3398070" lon="1.7533870">
        <ele>1273.1</ele>
        <time>2015-08-13T09:25:23Z</time>
      </trkpt>
      <trkpt lat="42.3398380" lon="1.7534360">
        <ele>1272.0</ele>
        <time>2015-08-13T09:25:24Z</time>
      </trkpt>
      <trkpt lat="42.3398570" lon="1.7534670">
        <ele>1271.4</ele>
        <time>2015-08-13T09:25:26Z</time>
      </trkpt>
      <trkpt lat="42.3398360" lon="1.7534410">
        <ele>1271.9</ele>
        <time>2015-08-13T09:25:29Z</time>
      </trkpt>
      <trkpt lat="42.3398630" lon="1.7534560">
        <ele>1271.7</ele>
        <time>2015-08-13T09:25:48Z</time>
      </trkpt>
      <trkpt lat="42.3399130" lon="1.7534960">
        <ele>1271.0</ele>
        <time>2015-08-13T09:25:56Z</time>
      </trkpt>
      <trkpt lat="42.3399480" lon="1.7534880">
        <ele>1271.3</ele>
        <time>2015-08-13T09:25:57Z</time>
      </trkpt>
      <trkpt lat="42.3399820" lon="1.7535100">
        <ele>1271.0</ele>
        <time>2015-08-13T09:25:58Z</time>
      </trkpt>
      <trkpt lat="42.3400120" lon="1.7535410">
        <ele>1270.6</ele>
        <time>2015-08-13T09:25:59Z</time>
      </trkpt>
      <trkpt lat="42.3400660" lon="1.7535950">
        <ele>1270.0</ele>
        <time>2015-08-13T09:26:00Z</time>
      </trkpt>
      <trkpt lat="42.3401010" lon="1.7536260">
        <ele>1269.7</ele>
        <time>2015-08-13T09:26:01Z</time>
      </trkpt>
      <trkpt lat="42.3401920" lon="1.7536750">
        <ele>1269.7</ele>
        <time>2015-08-13T09:26:02Z</time>
      </trkpt>
      <trkpt lat="42.3402340" lon="1.7537120">
        <ele>1269.7</ele>
        <time>2015-08-13T09:26:03Z</time>
      </trkpt>
      <trkpt lat="42.3402880" lon="1.7537630">
        <ele>1269.5</ele>
        <time>2015-08-13T09:26:04Z</time>
      </trkpt>
      <trkpt lat="42.3403370" lon="1.7537990">
        <ele>1269.3</ele>
        <time>2015-08-13T09:26:05Z</time>
      </trkpt>
      <trkpt lat="42.3403940" lon="1.7538340">
        <ele>1269.3</ele>
        <time>2015-08-13T09:26:06Z</time>
      </trkpt>
      <trkpt lat="42.3404290" lon="1.7538660">
        <ele>1268.7</ele>
        <time>2015-08-13T09:26:07Z</time>
      </trkpt>
      <trkpt lat="42.3404560" lon="1.7538790">
        <ele>1268.2</ele>
        <time>2015-08-13T09:26:08Z</time>
      </trkpt>
      <trkpt lat="42.3404680" lon="1.7539150">
        <ele>1267.4</ele>
        <time>2015-08-13T09:26:09Z</time>
      </trkpt>
      <trkpt lat="42.3404740" lon="1.7539580">
        <ele>1266.7</ele>
        <time>2015-08-13T09:26:15Z</time>
      </trkpt>
      <trkpt lat="42.3404940" lon="1.7539890">
        <ele>1266.0</ele>
        <time>2015-08-13T09:26:53Z</time>
      </trkpt>
      <trkpt lat="42.3405180" lon="1.7540060">
        <ele>1265.5</ele>
        <time>2015-08-13T09:27:40Z</time>
      </trkpt>
      <trkpt lat="42.3405540" lon="1.7540310">
        <ele>1264.8</ele>
        <time>2015-08-13T09:28:09Z</time>
      </trkpt>
      <trkpt lat="42.3405840" lon="1.7540590">
        <ele>1264.2</ele>
        <time>2015-08-13T09:28:11Z</time>
      </trkpt>
      <trkpt lat="42.3406190" lon="1.7540810">
        <ele>1263.7</ele>
        <time>2015-08-13T09:28:13Z</time>
      </trkpt>
      <trkpt lat="42.3406490" lon="1.7541120">
        <ele>1263.1</ele>
        <time>2015-08-13T09:28:16Z</time>
      </trkpt>
      <trkpt lat="42.3407110" lon="1.7541390">
        <ele>1262.5</ele>
        <time>2015-08-13T09:28:19Z</time>
      </trkpt>
      <trkpt lat="42.3407480" lon="1.7541520">
        <ele>1262.2</ele>
        <time>2015-08-13T09:28:20Z</time>
      </trkpt>
      <trkpt lat="42.3407940" lon="1.7541460">
        <ele>1262.1</ele>
        <time>2015-08-13T09:28:21Z</time>
      </trkpt>
      <trkpt lat="42.3408400" lon="1.7541390">
        <ele>1261.9</ele>
        <time>2015-08-13T09:28:22Z</time>
      </trkpt>
      <trkpt lat="42.3408840" lon="1.7541340">
        <ele>1261.7</ele>
        <time>2015-08-13T09:28:23Z</time>
      </trkpt>
      <trkpt lat="42.3409150" lon="1.7541300">
        <ele>1261.5</ele>
        <time>2015-08-13T09:28:24Z</time>
      </trkpt>
      <trkpt lat="42.3409480" lon="1.7541210">
        <ele>1261.4</ele>
        <time>2015-08-13T09:28:25Z</time>
      </trkpt>
      <trkpt lat="42.3409980" lon="1.7541100">
        <ele>1261.1</ele>
        <time>2015-08-13T09:28:27Z</time>
      </trkpt>
      <trkpt lat="42.3410270" lon="1.7541040">
        <ele>1260.9</ele>
        <time>2015-08-13T09:28:28Z</time>
      </trkpt>
      <trkpt lat="42.3410620" lon="1.7541050">
        <ele>1260.7</ele>
        <time>2015-08-13T09:28:29Z</time>
      </trkpt>
      <trkpt lat="42.3410910" lon="1.7541060">
        <ele>1260.5</ele>
        <time>2015-08-13T09:28:30Z</time>
      </trkpt>
      <trkpt lat="42.3411230" lon="1.7541040">
        <ele>1260.3</ele>
        <time>2015-08-13T09:28:31Z</time>
      </trkpt>
      <trkpt lat="42.3411580" lon="1.7541050">
        <ele>1260.1</ele>
        <time>2015-08-13T09:28:32Z</time>
      </trkpt>
      <trkpt lat="42.3411920" lon="1.7541000">
        <ele>1259.9</ele>
        <time>2015-08-13T09:28:33Z</time>
      </trkpt>
      <trkpt lat="42.3412170" lon="1.7540860">
        <ele>1259.6</ele>
        <time>2015-08-13T09:28:34Z</time>
      </trkpt>
      <trkpt lat="42.3412500" lon="1.7540730">
        <ele>1259.3</ele>
        <time>2015-08-13T09:28:35Z</time>
      </trkpt>
      <trkpt lat="42.3412860" lon="1.7540730">
        <ele>1259.1</ele>
        <time>2015-08-13T09:28:36Z</time>
      </trkpt>
      <trkpt lat="42.3413210" lon="1.7540610">
        <ele>1258.7</ele>
        <time>2015-08-13T09:28:37Z</time>
      </trkpt>
      <trkpt lat="42.3413580" lon="1.7540700">
        <ele>1258.5</ele>
        <time>2015-08-13T09:28:38Z</time>
      </trkpt>
      <trkpt lat="42.3413950" lon="1.7540750">
        <ele>1258.3</ele>
        <time>2015-08-13T09:28:39Z</time>
      </trkpt>
      <trkpt lat="42.3414330" lon="1.7540830">
        <ele>1258.1</ele>
        <time>2015-08-13T09:28:40Z</time>
      </trkpt>
      <trkpt lat="42.3414750" lon="1.7540900">
        <ele>1257.9</ele>
        <time>2015-08-13T09:28:41Z</time>
      </trkpt>
      <trkpt lat="42.3414990" lon="1.7541150">
        <ele>1258.0</ele>
        <time>2015-08-13T09:28:43Z</time>
      </trkpt>
      <trkpt lat="42.3415300" lon="1.7541340">
        <ele>1258.1</ele>
        <time>2015-08-13T09:28:44Z</time>
      </trkpt>
      <trkpt lat="42.3415540" lon="1.7541570">
        <ele>1258.2</ele>
        <time>2015-08-13T09:28:45Z</time>
      </trkpt>
      <trkpt lat="42.3415970" lon="1.7541900">
        <ele>1258.4</ele>
        <time>2015-08-13T09:28:46Z</time>
      </trkpt>
      <trkpt lat="42.3416280" lon="1.7541990">
        <ele>1258.4</ele>
        <time>2015-08-13T09:28:47Z</time>
      </trkpt>
      <trkpt lat="42.3416600" lon="1.7542190">
        <ele>1258.6</ele>
        <time>2015-08-13T09:28:48Z</time>
      </trkpt>
      <trkpt lat="42.3416890" lon="1.7542400">
        <ele>1258.8</ele>
        <time>2015-08-13T09:28:49Z</time>
      </trkpt>
      <trkpt lat="42.3417250" lon="1.7542580">
        <ele>1258.9</ele>
        <time>2015-08-13T09:28:50Z</time>
      </trkpt>
      <trkpt lat="42.3417530" lon="1.7542860">
        <ele>1259.3</ele>
        <time>2015-08-13T09:28:51Z</time>
      </trkpt>
      <trkpt lat="42.3417830" lon="1.7543120">
        <ele>1259.6</ele>
        <time>2015-08-13T09:28:52Z</time>
      </trkpt>
      <trkpt lat="42.3418140" lon="1.7543530">
        <ele>1260.3</ele>
        <time>2015-08-13T09:28:53Z</time>
      </trkpt>
      <trkpt lat="42.3418410" lon="1.7544070">
        <ele>1261.2</ele>
        <time>2015-08-13T09:28:54Z</time>
      </trkpt>
      <trkpt lat="42.3418720" lon="1.7544700">
        <ele>1262.4</ele>
        <time>2015-08-13T09:28:55Z</time>
      </trkpt>
      <trkpt lat="42.3419000" lon="1.7545190">
        <ele>1263.3</ele>
        <time>2015-08-13T09:28:56Z</time>
      </trkpt>
      <trkpt lat="42.3419570" lon="1.7546120">
        <ele>1264.8</ele>
        <time>2015-08-13T09:28:58Z</time>
      </trkpt>
      <trkpt lat="42.3419890" lon="1.7547220">
        <ele>1265.6</ele>
        <time>2015-08-13T09:28:59Z</time>
      </trkpt>
      <trkpt lat="42.3420110" lon="1.7547510">
        <ele>1265.8</ele>
        <time>2015-08-13T09:29:00Z</time>
      </trkpt>
      <trkpt lat="42.3420260" lon="1.7548150">
        <ele>1266.3</ele>
        <time>2015-08-13T09:29:02Z</time>
      </trkpt>
      <trkpt lat="42.3420690" lon="1.7548310">
        <ele>1266.7</ele>
        <time>2015-08-13T09:29:03Z</time>
      </trkpt>
      <trkpt lat="42.3421040" lon="1.7548740">
        <ele>1266.7</ele>
        <time>2015-08-13T09:29:05Z</time>
      </trkpt>
      <trkpt lat="42.3422710" lon="1.7548680">
        <ele>1263.1</ele>
        <time>2015-08-13T09:29:07Z</time>
      </trkpt>
      <trkpt lat="42.3423110" lon="1.7548840">
        <ele>1262.4</ele>
        <time>2015-08-13T09:29:08Z</time>
      </trkpt>
      <trkpt lat="42.3423510" lon="1.7548930">
        <ele>1261.7</ele>
        <time>2015-08-13T09:29:09Z</time>
      </trkpt>
      <trkpt lat="42.3423890" lon="1.7549020">
        <ele>1261.0</ele>
        <time>2015-08-13T09:29:10Z</time>
      </trkpt>
      <trkpt lat="42.3424260" lon="1.7549030">
        <ele>1260.2</ele>
        <time>2015-08-13T09:29:11Z</time>
      </trkpt>
      <trkpt lat="42.3424540" lon="1.7549290">
        <ele>1259.9</ele>
        <time>2015-08-13T09:29:12Z</time>
      </trkpt>
      <trkpt lat="42.3424870" lon="1.7549340">
        <ele>1259.2</ele>
        <time>2015-08-13T09:29:13Z</time>
      </trkpt>
      <trkpt lat="42.3425890" lon="1.7549710">
        <ele>1257.4</ele>
        <time>2015-08-13T09:29:14Z</time>
      </trkpt>
      <trkpt lat="42.3426440" lon="1.7549920">
        <ele>1256.5</ele>
        <time>2015-08-13T09:29:15Z</time>
      </trkpt>
      <trkpt lat="42.3426800" lon="1.7549860">
        <ele>1255.7</ele>
        <time>2015-08-13T09:29:16Z</time>
      </trkpt>
      <trkpt lat="42.3428500" lon="1.7550070">
        <ele>1252.4</ele>
        <time>2015-08-13T09:29:19Z</time>
      </trkpt>
      <trkpt lat="42.3429120" lon="1.7550350">
        <ele>1251.4</ele>
        <time>2015-08-13T09:29:20Z</time>
      </trkpt>
      <trkpt lat="42.3429890" lon="1.7550400">
        <ele>1250.3</ele>
        <time>2015-08-13T09:29:21Z</time>
      </trkpt>
      <trkpt lat="42.3430530" lon="1.7550490">
        <ele>1249.5</ele>
        <time>2015-08-13T09:29:22Z</time>
      </trkpt>
      <trkpt lat="42.3431050" lon="1.7550700">
        <ele>1248.9</ele>
        <time>2015-08-13T09:29:23Z</time>
      </trkpt>
      <trkpt lat="42.3431390" lon="1.7550660">
        <ele>1248.4</ele>
        <time>2015-08-13T09:29:24Z</time>
      </trkpt>
      <trkpt lat="42.3432140" lon="1.7550710">
        <ele>1247.3</ele>
        <time>2015-08-13T09:29:25Z</time>
      </trkpt>
      <trkpt lat="42.3432710" lon="1.7550930">
        <ele>1246.7</ele>
        <time>2015-08-13T09:29:26Z</time>
      </trkpt>
      <trkpt lat="42.3433120" lon="1.7551000">
        <ele>1246.2</ele>
        <time>2015-08-13T09:29:27Z</time>
      </trkpt>
      <trkpt lat="42.3433480" lon="1.7551130">
        <ele>1245.8</ele>
        <time>2015-08-13T09:29:28Z</time>
      </trkpt>
      <trkpt lat="42.3434010" lon="1.7550950">
        <ele>1244.8</ele>
        <time>2015-08-13T09:29:29Z</time>
      </trkpt>
      <trkpt lat="42.3434480" lon="1.7550800">
        <ele>1244.0</ele>
        <time>2015-08-13T09:29:30Z</time>
      </trkpt>
      <trkpt lat="42.3434710" lon="1.7551060">
        <ele>1244.0</ele>
        <time>2015-08-13T09:29:31Z</time>
      </trkpt>
      <trkpt lat="42.3435090" lon="1.7550980">
        <ele>1243.3</ele>
        <time>2015-08-13T09:29:32Z</time>
      </trkpt>
      <trkpt lat="42.3435530" lon="1.7550970">
        <ele>1242.7</ele>
        <time>2015-08-13T09:29:33Z</time>
      </trkpt>
      <trkpt lat="42.3436060" lon="1.7550870">
        <ele>1241.8</ele>
        <time>2015-08-13T09:29:34Z</time>
      </trkpt>
      <trkpt lat="42.3436420" lon="1.7550800">
        <ele>1241.1</ele>
        <time>2015-08-13T09:29:35Z</time>
      </trkpt>
      <trkpt lat="42.3436920" lon="1.7550450">
        <ele>1240.0</ele>
        <time>2015-08-13T09:29:36Z</time>
      </trkpt>
      <trkpt lat="42.3437270" lon="1.7550360">
        <ele>1239.3</ele>
        <time>2015-08-13T09:29:37Z</time>
      </trkpt>
      <trkpt lat="42.3437630" lon="1.7550140">
        <ele>1238.6</ele>
        <time>2015-08-13T09:29:38Z</time>
      </trkpt>
      <trkpt lat="42.3438030" lon="1.7550060">
        <ele>1238.3</ele>
        <time>2015-08-13T09:29:39Z</time>
      </trkpt>
      <trkpt lat="42.3438420" lon="1.7549880">
        <ele>1237.8</ele>
        <time>2015-08-13T09:29:40Z</time>
      </trkpt>
      <trkpt lat="42.3438790" lon="1.7549780">
        <ele>1237.5</ele>
        <time>2015-08-13T09:29:41Z</time>
      </trkpt>
      <trkpt lat="42.3439180" lon="1.7549470">
        <ele>1236.9</ele>
        <time>2015-08-13T09:29:42Z</time>
      </trkpt>
      <trkpt lat="42.3439580" lon="1.7549160">
        <ele>1236.3</ele>
        <time>2015-08-13T09:29:43Z</time>
      </trkpt>
      <trkpt lat="42.3439980" lon="1.7548960">
        <ele>1235.9</ele>
        <time>2015-08-13T09:29:44Z</time>
      </trkpt>
      <trkpt lat="42.3440600" lon="1.7548390">
        <ele>1234.9</ele>
        <time>2015-08-13T09:29:45Z</time>
      </trkpt>
      <trkpt lat="42.3440950" lon="1.7548170">
        <ele>1234.5</ele>
        <time>2015-08-13T09:29:46Z</time>
      </trkpt>
      <trkpt lat="42.3441300" lon="1.7548070">
        <ele>1234.2</ele>
        <time>2015-08-13T09:29:47Z</time>
      </trkpt>
      <trkpt lat="42.3441660" lon="1.7547810">
        <ele>1233.8</ele>
        <time>2015-08-13T09:29:48Z</time>
      </trkpt>
      <trkpt lat="42.3441990" lon="1.7547550">
        <ele>1233.3</ele>
        <time>2015-08-13T09:29:49Z</time>
      </trkpt>
      <trkpt lat="42.3442600" lon="1.7547300">
        <ele>1232.8</ele>
        <time>2015-08-13T09:29:51Z</time>
      </trkpt>
      <trkpt lat="42.3442920" lon="1.7547160">
        <ele>1232.5</ele>
        <time>2015-08-13T09:29:52Z</time>
      </trkpt>
      <trkpt lat="42.3443250" lon="1.7547010">
        <ele>1232.2</ele>
        <time>2015-08-13T09:29:53Z</time>
      </trkpt>
      <trkpt lat="42.3443610" lon="1.7546960">
        <ele>1232.0</ele>
        <time>2015-08-13T09:29:54Z</time>
      </trkpt>
      <trkpt lat="42.3444000" lon="1.7546900">
        <ele>1231.8</ele>
        <time>2015-08-13T09:29:55Z</time>
      </trkpt>
      <trkpt lat="42.3444350" lon="1.7547070">
        <ele>1231.8</ele>
        <time>2015-08-13T09:29:56Z</time>
      </trkpt>
      <trkpt lat="42.3444730" lon="1.7547060">
        <ele>1231.6</ele>
        <time>2015-08-13T09:29:57Z</time>
      </trkpt>
      <trkpt lat="42.3445040" lon="1.7547010">
        <ele>1231.5</ele>
        <time>2015-08-13T09:29:58Z</time>
      </trkpt>
      <trkpt lat="42.3445450" lon="1.7547100">
        <ele>1231.4</ele>
        <time>2015-08-13T09:29:59Z</time>
      </trkpt>
      <trkpt lat="42.3445840" lon="1.7546990">
        <ele>1231.1</ele>
        <time>2015-08-13T09:30:00Z</time>
      </trkpt>
      <trkpt lat="42.3446270" lon="1.7546810">
        <ele>1231.1</ele>
        <time>2015-08-13T09:30:01Z</time>
      </trkpt>
      <trkpt lat="42.3446780" lon="1.7546830">
        <ele>1231.3</ele>
        <time>2015-08-13T09:30:02Z</time>
      </trkpt>
      <trkpt lat="42.3447130" lon="1.7546670">
        <ele>1231.3</ele>
        <time>2015-08-13T09:30:03Z</time>
      </trkpt>
      <trkpt lat="42.3447870" lon="1.7546690">
        <ele>1231.6</ele>
        <time>2015-08-13T09:30:04Z</time>
      </trkpt>
      <trkpt lat="42.3448140" lon="1.7546800">
        <ele>1231.8</ele>
        <time>2015-08-13T09:30:05Z</time>
      </trkpt>
      <trkpt lat="42.3448660" lon="1.7547000">
        <ele>1232.2</ele>
        <time>2015-08-13T09:30:07Z</time>
      </trkpt>
      <trkpt lat="42.3449070" lon="1.7547050">
        <ele>1232.4</ele>
        <time>2015-08-13T09:30:08Z</time>
      </trkpt>
      <trkpt lat="42.3449450" lon="1.7546980">
        <ele>1232.5</ele>
        <time>2015-08-13T09:30:09Z</time>
      </trkpt>
      <trkpt lat="42.3449940" lon="1.7546630">
        <ele>1232.5</ele>
        <time>2015-08-13T09:30:10Z</time>
      </trkpt>
      <trkpt lat="42.3450450" lon="1.7546510">
        <ele>1232.6</ele>
        <time>2015-08-13T09:30:11Z</time>
      </trkpt>
      <trkpt lat="42.3450730" lon="1.7546660">
        <ele>1232.8</ele>
        <time>2015-08-13T09:30:13Z</time>
      </trkpt>
      <trkpt lat="42.3451210" lon="1.7546790">
        <ele>1233.1</ele>
        <time>2015-08-13T09:30:15Z</time>
      </trkpt>
      <trkpt lat="42.3451570" lon="1.7546530">
        <ele>1233.1</ele>
        <time>2015-08-13T09:30:16Z</time>
      </trkpt>
      <trkpt lat="42.3451770" lon="1.7546260">
        <ele>1233.0</ele>
        <time>2015-08-13T09:30:18Z</time>
      </trkpt>
      <trkpt lat="42.3452090" lon="1.7546150">
        <ele>1233.1</ele>
        <time>2015-08-13T09:30:20Z</time>
      </trkpt>
      <trkpt lat="42.3452390" lon="1.7546290">
        <ele>1233.3</ele>
        <time>2015-08-13T09:30:24Z</time>
      </trkpt>
      <trkpt lat="42.3452650" lon="1.7546220">
        <ele>1233.4</ele>
        <time>2015-08-13T09:30:29Z</time>
      </trkpt>
      <trkpt lat="42.3453000" lon="1.7546170">
        <ele>1233.6</ele>
        <time>2015-08-13T09:30:37Z</time>
      </trkpt>
      <trkpt lat="42.3453580" lon="1.7546170">
        <ele>1233.8</ele>
        <time>2015-08-13T09:30:39Z</time>
      </trkpt>
      <trkpt lat="42.3453910" lon="1.7546170">
        <ele>1234.0</ele>
        <time>2015-08-13T09:30:40Z</time>
      </trkpt>
      <trkpt lat="42.3454240" lon="1.7546170">
        <ele>1234.1</ele>
        <time>2015-08-13T09:30:41Z</time>
      </trkpt>
      <trkpt lat="42.3454520" lon="1.7546030">
        <ele>1234.0</ele>
        <time>2015-08-13T09:30:42Z</time>
      </trkpt>
      <trkpt lat="42.3454900" lon="1.7545940">
        <ele>1233.8</ele>
        <time>2015-08-13T09:30:43Z</time>
      </trkpt>
      <trkpt lat="42.3455260" lon="1.7545960">
        <ele>1233.8</ele>
        <time>2015-08-13T09:30:44Z</time>
      </trkpt>
      <trkpt lat="42.3455540" lon="1.7545800">
        <ele>1233.6</ele>
        <time>2015-08-13T09:30:45Z</time>
      </trkpt>
      <trkpt lat="42.3455880" lon="1.7545640">
        <ele>1233.3</ele>
        <time>2015-08-13T09:30:46Z</time>
      </trkpt>
      <trkpt lat="42.3456220" lon="1.7545330">
        <ele>1232.7</ele>
        <time>2015-08-13T09:30:47Z</time>
      </trkpt>
      <trkpt lat="42.3456670" lon="1.7544960">
        <ele>1232.0</ele>
        <time>2015-08-13T09:30:48Z</time>
      </trkpt>
      <trkpt lat="42.3457060" lon="1.7544860">
        <ele>1231.8</ele>
        <time>2015-08-13T09:30:49Z</time>
      </trkpt>
      <trkpt lat="42.3457430" lon="1.7544590">
        <ele>1231.2</ele>
        <time>2015-08-13T09:30:50Z</time>
      </trkpt>
      <trkpt lat="42.3457720" lon="1.7544000">
        <ele>1230.3</ele>
        <time>2015-08-13T09:30:51Z</time>
      </trkpt>
      <trkpt lat="42.3458130" lon="1.7543710">
        <ele>1229.7</ele>
        <time>2015-08-13T09:30:52Z</time>
      </trkpt>
      <trkpt lat="42.3458440" lon="1.7543900">
        <ele>1230.0</ele>
        <time>2015-08-13T09:30:54Z</time>
      </trkpt>
      <trkpt lat="42.3458780" lon="1.7543790">
        <ele>1229.7</ele>
        <time>2015-08-13T09:30:55Z</time>
      </trkpt>
      <trkpt lat="42.3459320" lon="1.7543460">
        <ele>1229.1</ele>
        <time>2015-08-13T09:30:57Z</time>
      </trkpt>
      <trkpt lat="42.3459890" lon="1.7543360">
        <ele>1228.9</ele>
        <time>2015-08-13T09:30:58Z</time>
      </trkpt>
      <trkpt lat="42.3460420" lon="1.7543250">
        <ele>1228.6</ele>
        <time>2015-08-13T09:30:59Z</time>
      </trkpt>
      <trkpt lat="42.3460990" lon="1.7543230">
        <ele>1228.5</ele>
        <time>2015-08-13T09:31:00Z</time>
      </trkpt>
      <trkpt lat="42.3461460" lon="1.7543350">
        <ele>1228.6</ele>
        <time>2015-08-13T09:31:01Z</time>
      </trkpt>
      <trkpt lat="42.3461970" lon="1.7543440">
        <ele>1228.6</ele>
        <time>2015-08-13T09:31:02Z</time>
      </trkpt>
      <trkpt lat="42.3462750" lon="1.7543140">
        <ele>1228.0</ele>
        <time>2015-08-13T09:31:04Z</time>
      </trkpt>
      <trkpt lat="42.3463130" lon="1.7542790">
        <ele>1227.3</ele>
        <time>2015-08-13T09:31:05Z</time>
      </trkpt>
      <trkpt lat="42.3463550" lon="1.7542530">
        <ele>1226.7</ele>
        <time>2015-08-13T09:31:06Z</time>
      </trkpt>
      <trkpt lat="42.3464040" lon="1.7542440">
        <ele>1226.4</ele>
        <time>2015-08-13T09:31:07Z</time>
      </trkpt>
      <trkpt lat="42.3464450" lon="1.7542190">
        <ele>1225.9</ele>
        <time>2015-08-13T09:31:08Z</time>
      </trkpt>
      <trkpt lat="42.3464830" lon="1.7541750">
        <ele>1225.3</ele>
        <time>2015-08-13T09:31:09Z</time>
      </trkpt>
      <trkpt lat="42.3465150" lon="1.7541520">
        <ele>1224.9</ele>
        <time>2015-08-13T09:31:10Z</time>
      </trkpt>
      <trkpt lat="42.3465430" lon="1.7541390">
        <ele>1224.7</ele>
        <time>2015-08-13T09:31:11Z</time>
      </trkpt>
      <trkpt lat="42.3465740" lon="1.7541300">
        <ele>1224.5</ele>
        <time>2015-08-13T09:31:12Z</time>
      </trkpt>
      <trkpt lat="42.3466010" lon="1.7541150">
        <ele>1224.3</ele>
        <time>2015-08-13T09:31:13Z</time>
      </trkpt>
      <trkpt lat="42.3466290" lon="1.7540980">
        <ele>1224.0</ele>
        <time>2015-08-13T09:31:14Z</time>
      </trkpt>
      <trkpt lat="42.3466740" lon="1.7540620">
        <ele>1223.6</ele>
        <time>2015-08-13T09:31:16Z</time>
      </trkpt>
      <trkpt lat="42.3466950" lon="1.7540000">
        <ele>1223.1</ele>
        <time>2015-08-13T09:31:18Z</time>
      </trkpt>
      <trkpt lat="42.3467140" lon="1.7539550">
        <ele>1222.7</ele>
        <time>2015-08-13T09:31:19Z</time>
      </trkpt>
      <trkpt lat="42.3467550" lon="1.7539000">
        <ele>1222.3</ele>
        <time>2015-08-13T09:31:21Z</time>
      </trkpt>
      <trkpt lat="42.3467800" lon="1.7538640">
        <ele>1222.0</ele>
        <time>2015-08-13T09:31:22Z</time>
      </trkpt>
      <trkpt lat="42.3468220" lon="1.7538280">
        <ele>1221.9</ele>
        <time>2015-08-13T09:31:24Z</time>
      </trkpt>
      <trkpt lat="42.3468800" lon="1.7537860">
        <ele>1221.7</ele>
        <time>2015-08-13T09:31:26Z</time>
      </trkpt>
      <trkpt lat="42.3469170" lon="1.7537550">
        <ele>1221.6</ele>
        <time>2015-08-13T09:31:27Z</time>
      </trkpt>
      <trkpt lat="42.3469330" lon="1.7537240">
        <ele>1221.2</ele>
        <time>2015-08-13T09:31:28Z</time>
      </trkpt>
      <trkpt lat="42.3469610" lon="1.7536910">
        <ele>1220.7</ele>
        <time>2015-08-13T09:31:29Z</time>
      </trkpt>
      <trkpt lat="42.3469830" lon="1.7536630">
        <ele>1220.3</ele>
        <time>2015-08-13T09:31:30Z</time>
      </trkpt>
      <trkpt lat="42.3470140" lon="1.7536370">
        <ele>1219.9</ele>
        <time>2015-08-13T09:31:31Z</time>
      </trkpt>
      <trkpt lat="42.3470480" lon="1.7536090">
        <ele>1219.5</ele>
        <time>2015-08-13T09:31:32Z</time>
      </trkpt>
      <trkpt lat="42.3470820" lon="1.7535660">
        <ele>1218.9</ele>
        <time>2015-08-13T09:31:33Z</time>
      </trkpt>
      <trkpt lat="42.3471130" lon="1.7535310">
        <ele>1218.3</ele>
        <time>2015-08-13T09:31:34Z</time>
      </trkpt>
      <trkpt lat="42.3471600" lon="1.7535040">
        <ele>1217.8</ele>
        <time>2015-08-13T09:31:36Z</time>
      </trkpt>
      <trkpt lat="42.3471880" lon="1.7534760">
        <ele>1217.4</ele>
        <time>2015-08-13T09:31:37Z</time>
      </trkpt>
      <trkpt lat="42.3472220" lon="1.7534560">
        <ele>1217.0</ele>
        <time>2015-08-13T09:31:38Z</time>
      </trkpt>
      <trkpt lat="42.3472760" lon="1.7534430">
        <ele>1216.8</ele>
        <time>2015-08-13T09:31:39Z</time>
      </trkpt>
      <trkpt lat="42.3473180" lon="1.7534310">
        <ele>1216.6</ele>
        <time>2015-08-13T09:31:40Z</time>
      </trkpt>
      <trkpt lat="42.3473790" lon="1.7534950">
        <ele>1217.5</ele>
        <time>2015-08-13T09:31:42Z</time>
      </trkpt>
      <trkpt lat="42.3474120" lon="1.7535210">
        <ele>1217.9</ele>
        <time>2015-08-13T09:31:43Z</time>
      </trkpt>
      <trkpt lat="42.3474490" lon="1.7535410">
        <ele>1218.2</ele>
        <time>2015-08-13T09:31:44Z</time>
      </trkpt>
      <trkpt lat="42.3474920" lon="1.7535590">
        <ele>1218.4</ele>
        <time>2015-08-13T09:31:45Z</time>
      </trkpt>
      <trkpt lat="42.3475260" lon="1.7535440">
        <ele>1218.1</ele>
        <time>2015-08-13T09:31:46Z</time>
      </trkpt>
      <trkpt lat="42.3475720" lon="1.7535640">
        <ele>1218.4</ele>
        <time>2015-08-13T09:31:47Z</time>
      </trkpt>
      <trkpt lat="42.3476130" lon="1.7535790">
        <ele>1218.5</ele>
        <time>2015-08-13T09:31:48Z</time>
      </trkpt>
      <trkpt lat="42.3476590" lon="1.7536410">
        <ele>1219.2</ele>
        <time>2015-08-13T09:31:49Z</time>
      </trkpt>
      <trkpt lat="42.3477020" lon="1.7536640">
        <ele>1219.5</ele>
        <time>2015-08-13T09:31:50Z</time>
      </trkpt>
      <trkpt lat="42.3477490" lon="1.7536810">
        <ele>1219.6</ele>
        <time>2015-08-13T09:31:51Z</time>
      </trkpt>
      <trkpt lat="42.3477940" lon="1.7536770">
        <ele>1219.4</ele>
        <time>2015-08-13T09:31:52Z</time>
      </trkpt>
      <trkpt lat="42.3478300" lon="1.7536790">
        <ele>1219.4</ele>
        <time>2015-08-13T09:31:53Z</time>
      </trkpt>
      <trkpt lat="42.3478770" lon="1.7536830">
        <ele>1219.4</ele>
        <time>2015-08-13T09:31:54Z</time>
      </trkpt>
      <trkpt lat="42.3479270" lon="1.7536820">
        <ele>1219.2</ele>
        <time>2015-08-13T09:31:55Z</time>
      </trkpt>
      <trkpt lat="42.3479980" lon="1.7536660">
        <ele>1218.4</ele>
        <time>2015-08-13T09:31:56Z</time>
      </trkpt>
      <trkpt lat="42.3480590" lon="1.7536600">
        <ele>1217.8</ele>
        <time>2015-08-13T09:31:57Z</time>
      </trkpt>
      <trkpt lat="42.3481130" lon="1.7536640">
        <ele>1217.4</ele>
        <time>2015-08-13T09:31:58Z</time>
      </trkpt>
      <trkpt lat="42.3481610" lon="1.7536670">
        <ele>1217.0</ele>
        <time>2015-08-13T09:31:59Z</time>
      </trkpt>
      <trkpt lat="42.3482010" lon="1.7536680">
        <ele>1216.7</ele>
        <time>2015-08-13T09:32:00Z</time>
      </trkpt>
      <trkpt lat="42.3482340" lon="1.7536730">
        <ele>1216.4</ele>
        <time>2015-08-13T09:32:01Z</time>
      </trkpt>
      <trkpt lat="42.3482870" lon="1.7536890">
        <ele>1216.1</ele>
        <time>2015-08-13T09:32:02Z</time>
      </trkpt>
      <trkpt lat="42.3483310" lon="1.7537320">
        <ele>1215.9</ele>
        <time>2015-08-13T09:32:03Z</time>
      </trkpt>
      <trkpt lat="42.3483820" lon="1.7537490">
        <ele>1215.5</ele>
        <time>2015-08-13T09:32:04Z</time>
      </trkpt>
      <trkpt lat="42.3484260" lon="1.7537650">
        <ele>1215.2</ele>
        <time>2015-08-13T09:32:05Z</time>
      </trkpt>
      <trkpt lat="42.3484600" lon="1.7537890">
        <ele>1215.0</ele>
        <time>2015-08-13T09:32:06Z</time>
      </trkpt>
      <trkpt lat="42.3485010" lon="1.7538110">
        <ele>1214.7</ele>
        <time>2015-08-13T09:32:07Z</time>
      </trkpt>
      <trkpt lat="42.3485490" lon="1.7538350">
        <ele>1214.4</ele>
        <time>2015-08-13T09:32:08Z</time>
      </trkpt>
      <trkpt lat="42.3485830" lon="1.7538700">
        <ele>1214.3</ele>
        <time>2015-08-13T09:32:09Z</time>
      </trkpt>
      <trkpt lat="42.3485030" lon="1.7538890">
        <ele>1215.1</ele>
        <time>2015-08-13T09:32:10Z</time>
      </trkpt>
      <trkpt lat="42.3485320" lon="1.7539050">
        <ele>1214.9</ele>
        <time>2015-08-13T09:32:57Z</time>
      </trkpt>
      <trkpt lat="42.3485480" lon="1.7538750">
        <ele>1214.6</ele>
        <time>2015-08-13T09:33:02Z</time>
      </trkpt>
      <trkpt lat="42.3485740" lon="1.7538860">
        <ele>1214.4</ele>
        <time>2015-08-13T09:33:08Z</time>
      </trkpt>
      <trkpt lat="42.3486100" lon="1.7538900">
        <ele>1214.1</ele>
        <time>2015-08-13T09:33:09Z</time>
      </trkpt>
      <trkpt lat="42.3486460" lon="1.7538990">
        <ele>1213.8</ele>
        <time>2015-08-13T09:33:10Z</time>
      </trkpt>
      <trkpt lat="42.3487130" lon="1.7539280">
        <ele>1213.4</ele>
        <time>2015-08-13T09:33:12Z</time>
      </trkpt>
      <trkpt lat="42.3487600" lon="1.7539810">
        <ele>1213.2</ele>
        <time>2015-08-13T09:33:13Z</time>
      </trkpt>
      <trkpt lat="42.3488000" lon="1.7540060">
        <ele>1212.5</ele>
        <time>2015-08-13T09:33:14Z</time>
      </trkpt>
      <trkpt lat="42.3488360" lon="1.7540360">
        <ele>1211.9</ele>
        <time>2015-08-13T09:33:15Z</time>
      </trkpt>
      <trkpt lat="42.3488700" lon="1.7540440">
        <ele>1211.3</ele>
        <time>2015-08-13T09:33:16Z</time>
      </trkpt>
      <trkpt lat="42.3489140" lon="1.7540560">
        <ele>1210.5</ele>
        <time>2015-08-13T09:33:17Z</time>
      </trkpt>
      <trkpt lat="42.3489540" lon="1.7540650">
        <ele>1209.8</ele>
        <time>2015-08-13T09:33:18Z</time>
      </trkpt>
      <trkpt lat="42.3489950" lon="1.7540840">
        <ele>1209.2</ele>
        <time>2015-08-13T09:33:20Z</time>
      </trkpt>
      <trkpt lat="42.3490400" lon="1.7540260">
        <ele>1207.6</ele>
        <time>2015-08-13T09:33:21Z</time>
      </trkpt>
      <trkpt lat="42.3490700" lon="1.7540000">
        <ele>1206.7</ele>
        <time>2015-08-13T09:33:22Z</time>
      </trkpt>
      <trkpt lat="42.3491040" lon="1.7540140">
        <ele>1206.1</ele>
        <time>2015-08-13T09:33:23Z</time>
      </trkpt>
      <trkpt lat="42.3491340" lon="1.7540080">
        <ele>1205.4</ele>
        <time>2015-08-13T09:33:24Z</time>
      </trkpt>
      <trkpt lat="42.3491710" lon="1.7540020">
        <ele>1204.5</ele>
        <time>2015-08-13T09:33:26Z</time>
      </trkpt>
      <trkpt lat="42.3492010" lon="1.7540000">
        <ele>1203.9</ele>
        <time>2015-08-13T09:33:27Z</time>
      </trkpt>
      <trkpt lat="42.3492290" lon="1.7540000">
        <ele>1203.3</ele>
        <time>2015-08-13T09:33:28Z</time>
      </trkpt>
      <trkpt lat="42.3492700" lon="1.7539520">
        <ele>1201.6</ele>
        <time>2015-08-13T09:33:30Z</time>
      </trkpt>
      <trkpt lat="42.3493120" lon="1.7539490">
        <ele>1200.6</ele>
        <time>2015-08-13T09:33:31Z</time>
      </trkpt>
      <trkpt lat="42.3493540" lon="1.7539400">
        <ele>1199.5</ele>
        <time>2015-08-13T09:33:32Z</time>
      </trkpt>
      <trkpt lat="42.3493990" lon="1.7539350">
        <ele>1198.4</ele>
        <time>2015-08-13T09:33:33Z</time>
      </trkpt>
      <trkpt lat="42.3494420" lon="1.7538980">
        <ele>1196.7</ele>
        <time>2015-08-13T09:33:34Z</time>
      </trkpt>
      <trkpt lat="42.3494900" lon="1.7538920">
        <ele>1195.4</ele>
        <time>2015-08-13T09:33:35Z</time>
      </trkpt>
      <trkpt lat="42.3495380" lon="1.7538820">
        <ele>1194.1</ele>
        <time>2015-08-13T09:33:36Z</time>
      </trkpt>
      <trkpt lat="42.3495880" lon="1.7538780">
        <ele>1192.8</ele>
        <time>2015-08-13T09:33:37Z</time>
      </trkpt>
      <trkpt lat="42.3496350" lon="1.7538710">
        <ele>1191.5</ele>
        <time>2015-08-13T09:33:38Z</time>
      </trkpt>
      <trkpt lat="42.3496970" lon="1.7538660">
        <ele>1189.9</ele>
        <time>2015-08-13T09:33:39Z</time>
      </trkpt>
      <trkpt lat="42.3497590" lon="1.7538660">
        <ele>1188.4</ele>
        <time>2015-08-13T09:33:40Z</time>
      </trkpt>
      <trkpt lat="42.3498110" lon="1.7538590">
        <ele>1187.0</ele>
        <time>2015-08-13T09:33:41Z</time>
      </trkpt>
      <trkpt lat="42.3498700" lon="1.7538780">
        <ele>1186.1</ele>
        <time>2015-08-13T09:33:42Z</time>
      </trkpt>
      <trkpt lat="42.3499230" lon="1.7538880">
        <ele>1185.1</ele>
        <time>2015-08-13T09:33:43Z</time>
      </trkpt>
      <trkpt lat="42.3499850" lon="1.7539280">
        <ele>1184.7</ele>
        <time>2015-08-13T09:33:44Z</time>
      </trkpt>
      <trkpt lat="42.3500540" lon="1.7539640">
        <ele>1184.0</ele>
        <time>2015-08-13T09:33:45Z</time>
      </trkpt>
      <trkpt lat="42.3501130" lon="1.7540160">
        <ele>1184.1</ele>
        <time>2015-08-13T09:33:46Z</time>
      </trkpt>
      <trkpt lat="42.3501800" lon="1.7540820">
        <ele>1184.5</ele>
        <time>2015-08-13T09:33:47Z</time>
      </trkpt>
      <trkpt lat="42.3502300" lon="1.7541520">
        <ele>1185.5</ele>
        <time>2015-08-13T09:33:48Z</time>
      </trkpt>
      <trkpt lat="42.3502770" lon="1.7542300">
        <ele>1186.8</ele>
        <time>2015-08-13T09:33:49Z</time>
      </trkpt>
      <trkpt lat="42.3503220" lon="1.7543110">
        <ele>1188.4</ele>
        <time>2015-08-13T09:33:50Z</time>
      </trkpt>
      <trkpt lat="42.3503630" lon="1.7544040">
        <ele>1190.4</ele>
        <time>2015-08-13T09:33:51Z</time>
      </trkpt>
      <trkpt lat="42.3503950" lon="1.7544880">
        <ele>1192.4</ele>
        <time>2015-08-13T09:33:52Z</time>
      </trkpt>
      <trkpt lat="42.3504350" lon="1.7545720">
        <ele>1193.9</ele>
        <time>2015-08-13T09:33:53Z</time>
      </trkpt>
      <trkpt lat="42.3504660" lon="1.7546270">
        <ele>1193.8</ele>
        <time>2015-08-13T09:33:54Z</time>
      </trkpt>
      <trkpt lat="42.3504360" lon="1.7546900">
        <ele>1196.1</ele>
        <time>2015-08-13T09:33:55Z</time>
      </trkpt>
      <trkpt lat="42.3504400" lon="1.7547670">
        <ele>1197.4</ele>
        <time>2015-08-13T09:33:56Z</time>
      </trkpt>
      <trkpt lat="42.3504450" lon="1.7548520">
        <ele>1198.7</ele>
        <time>2015-08-13T09:33:57Z</time>
      </trkpt>
      <trkpt lat="42.3504340" lon="1.7549500">
        <ele>1200.9</ele>
        <time>2015-08-13T09:33:58Z</time>
      </trkpt>
      <trkpt lat="42.3504200" lon="1.7550560">
        <ele>1203.4</ele>
        <time>2015-08-13T09:33:59Z</time>
      </trkpt>
      <trkpt lat="42.3504090" lon="1.7551480">
        <ele>1205.3</ele>
        <time>2015-08-13T09:34:00Z</time>
      </trkpt>
      <trkpt lat="42.3504030" lon="1.7552370">
        <ele>1207.0</ele>
        <time>2015-08-13T09:34:01Z</time>
      </trkpt>
      <trkpt lat="42.3504160" lon="1.7553620">
        <ele>1209.0</ele>
        <time>2015-08-13T09:34:02Z</time>
      </trkpt>
      <trkpt lat="42.3504700" lon="1.7554510">
        <ele>1207.5</ele>
        <time>2015-08-13T09:34:03Z</time>
      </trkpt>
      <trkpt lat="42.3504950" lon="1.7555570">
        <ele>1206.4</ele>
        <time>2015-08-13T09:34:04Z</time>
      </trkpt>
      <trkpt lat="42.3505140" lon="1.7556000">
        <ele>1205.5</ele>
        <time>2015-08-13T09:34:05Z</time>
      </trkpt>
      <trkpt lat="42.3505620" lon="1.7556330">
        <ele>1203.5</ele>
        <time>2015-08-13T09:34:06Z</time>
      </trkpt>
      <trkpt lat="42.3505910" lon="1.7556350">
        <ele>1202.2</ele>
        <time>2015-08-13T09:34:07Z</time>
      </trkpt>
      <trkpt lat="42.3506930" lon="1.7556960">
        <ele>1198.0</ele>
        <time>2015-08-13T09:34:08Z</time>
      </trkpt>
      <trkpt lat="42.3507750" lon="1.7557510">
        <ele>1194.6</ele>
        <time>2015-08-13T09:34:09Z</time>
      </trkpt>
      <trkpt lat="42.3508130" lon="1.7558260">
        <ele>1193.3</ele>
        <time>2015-08-13T09:34:10Z</time>
      </trkpt>
      <trkpt lat="42.3508660" lon="1.7558750">
        <ele>1191.3</ele>
        <time>2015-08-13T09:34:11Z</time>
      </trkpt>
      <trkpt lat="42.3509230" lon="1.7559080">
        <ele>1189.2</ele>
        <time>2015-08-13T09:34:12Z</time>
      </trkpt>
      <trkpt lat="42.3509520" lon="1.7559390">
        <ele>1188.2</ele>
        <time>2015-08-13T09:34:13Z</time>
      </trkpt>
      <trkpt lat="42.3509820" lon="1.7559480">
        <ele>1187.0</ele>
        <time>2015-08-13T09:34:14Z</time>
      </trkpt>
      <trkpt lat="42.3510130" lon="1.7559540">
        <ele>1185.9</ele>
        <time>2015-08-13T09:34:15Z</time>
      </trkpt>
      <trkpt lat="42.3510460" lon="1.7559560">
        <ele>1184.6</ele>
        <time>2015-08-13T09:34:16Z</time>
      </trkpt>
      <trkpt lat="42.3510740" lon="1.7560000">
        <ele>1183.7</ele>
        <time>2015-08-13T09:34:17Z</time>
      </trkpt>
      <trkpt lat="42.3510990" lon="1.7560280">
        <ele>1183.0</ele>
        <time>2015-08-13T09:34:18Z</time>
      </trkpt>
      <trkpt lat="42.3511460" lon="1.7560920">
        <ele>1181.6</ele>
        <time>2015-08-13T09:34:20Z</time>
      </trkpt>
      <trkpt lat="42.3511710" lon="1.7561180">
        <ele>1180.9</ele>
        <time>2015-08-13T09:34:21Z</time>
      </trkpt>
      <trkpt lat="42.3511950" lon="1.7561380">
        <ele>1180.1</ele>
        <time>2015-08-13T09:34:22Z</time>
      </trkpt>
      <trkpt lat="42.3512230" lon="1.7561650">
        <ele>1179.3</ele>
        <time>2015-08-13T09:34:23Z</time>
      </trkpt>
      <trkpt lat="42.3512510" lon="1.7561850">
        <ele>1178.4</ele>
        <time>2015-08-13T09:34:24Z</time>
      </trkpt>
      <trkpt lat="42.3513060" lon="1.7562270">
        <ele>1177.2</ele>
        <time>2015-08-13T09:34:26Z</time>
      </trkpt>
      <trkpt lat="42.3513430" lon="1.7562680">
        <ele>1176.6</ele>
        <time>2015-08-13T09:34:27Z</time>
      </trkpt>
      <trkpt lat="42.3513830" lon="1.7563000">
        <ele>1175.9</ele>
        <time>2015-08-13T09:34:28Z</time>
      </trkpt>
      <trkpt lat="42.3514200" lon="1.7563300">
        <ele>1175.2</ele>
        <time>2015-08-13T09:34:29Z</time>
      </trkpt>
      <trkpt lat="42.3514590" lon="1.7563640">
        <ele>1174.6</ele>
        <time>2015-08-13T09:34:30Z</time>
      </trkpt>
      <trkpt lat="42.3514930" lon="1.7564010">
        <ele>1174.1</ele>
        <time>2015-08-13T09:34:31Z</time>
      </trkpt>
      <trkpt lat="42.3515270" lon="1.7564280">
        <ele>1173.5</ele>
        <time>2015-08-13T09:34:32Z</time>
      </trkpt>
      <trkpt lat="42.3515660" lon="1.7564580">
        <ele>1172.8</ele>
        <time>2015-08-13T09:34:33Z</time>
      </trkpt>
      <trkpt lat="42.3516050" lon="1.7564950">
        <ele>1172.2</ele>
        <time>2015-08-13T09:34:34Z</time>
      </trkpt>
      <trkpt lat="42.3516390" lon="1.7565470">
        <ele>1171.9</ele>
        <time>2015-08-13T09:34:35Z</time>
      </trkpt>
      <trkpt lat="42.3516370" lon="1.7566270">
        <ele>1173.1</ele>
        <time>2015-08-13T09:34:36Z</time>
      </trkpt>
      <trkpt lat="42.3516380" lon="1.7566940">
        <ele>1174.0</ele>
        <time>2015-08-13T09:34:37Z</time>
      </trkpt>
      <trkpt lat="42.3516320" lon="1.7567840">
        <ele>1175.4</ele>
        <time>2015-08-13T09:34:38Z</time>
      </trkpt>
      <trkpt lat="42.3516310" lon="1.7568590">
        <ele>1176.5</ele>
        <time>2015-08-13T09:34:39Z</time>
      </trkpt>
      <trkpt lat="42.3516240" lon="1.7569490">
        <ele>1177.9</ele>
        <time>2015-08-13T09:34:40Z</time>
      </trkpt>
      <trkpt lat="42.3516320" lon="1.7570470">
        <ele>1179.0</ele>
        <time>2015-08-13T09:34:41Z</time>
      </trkpt>
      <trkpt lat="42.3515780" lon="1.7571150">
        <ele>1180.8</ele>
        <time>2015-08-13T09:34:42Z</time>
      </trkpt>
      <trkpt lat="42.3515520" lon="1.7571790">
        <ele>1180.9</ele>
        <time>2015-08-13T09:34:43Z</time>
      </trkpt>
      <trkpt lat="42.3515170" lon="1.7572430">
        <ele>1181.2</ele>
        <time>2015-08-13T09:34:44Z</time>
      </trkpt>
      <trkpt lat="42.3514970" lon="1.7573040">
        <ele>1181.1</ele>
        <time>2015-08-13T09:34:45Z</time>
      </trkpt>
      <trkpt lat="42.3514830" lon="1.7573580">
        <ele>1180.9</ele>
        <time>2015-08-13T09:34:46Z</time>
      </trkpt>
      <trkpt lat="42.3514670" lon="1.7574330">
        <ele>1180.5</ele>
        <time>2015-08-13T09:34:47Z</time>
      </trkpt>
      <trkpt lat="42.3514590" lon="1.7574760">
        <ele>1180.3</ele>
        <time>2015-08-13T09:34:48Z</time>
      </trkpt>
      <trkpt lat="42.3514350" lon="1.7575220">
        <ele>1180.4</ele>
        <time>2015-08-13T09:34:49Z</time>
      </trkpt>
      <trkpt lat="42.3514110" lon="1.7575600">
        <ele>1180.7</ele>
        <time>2015-08-13T09:34:50Z</time>
      </trkpt>
      <trkpt lat="42.3513870" lon="1.7576230">
        <ele>1180.6</ele>
        <time>2015-08-13T09:34:51Z</time>
      </trkpt>
      <trkpt lat="42.3513650" lon="1.7576900">
        <ele>1180.5</ele>
        <time>2015-08-13T09:34:52Z</time>
      </trkpt>
      <trkpt lat="42.3513930" lon="1.7577300">
        <ele>1179.2</ele>
        <time>2015-08-13T09:34:53Z</time>
      </trkpt>
      <trkpt lat="42.3514060" lon="1.7577640">
        <ele>1178.5</ele>
        <time>2015-08-13T09:34:54Z</time>
      </trkpt>
      <trkpt lat="42.3514080" lon="1.7577180">
        <ele>1178.9</ele>
        <time>2015-08-13T09:34:56Z</time>
      </trkpt>
      <trkpt lat="42.3514330" lon="1.7576740">
        <ele>1178.7</ele>
        <time>2015-08-13T09:34:57Z</time>
      </trkpt>
      <trkpt lat="42.3515000" lon="1.7576260">
        <ele>1177.4</ele>
        <time>2015-08-13T09:34:58Z</time>
      </trkpt>
      <trkpt lat="42.3515320" lon="1.7575840">
        <ele>1176.9</ele>
        <time>2015-08-13T09:34:59Z</time>
      </trkpt>
      <trkpt lat="42.3515540" lon="1.7575540">
        <ele>1176.6</ele>
        <time>2015-08-13T09:35:00Z</time>
      </trkpt>
      <trkpt lat="42.3515740" lon="1.7575220">
        <ele>1176.4</ele>
        <time>2015-08-13T09:35:01Z</time>
      </trkpt>
      <trkpt lat="42.3515980" lon="1.7574970">
        <ele>1176.0</ele>
        <time>2015-08-13T09:35:02Z</time>
      </trkpt>
      <trkpt lat="42.3516320" lon="1.7574600">
        <ele>1175.4</ele>
        <time>2015-08-13T09:35:03Z</time>
      </trkpt>
      <trkpt lat="42.3516660" lon="1.7574130">
        <ele>1175.0</ele>
        <time>2015-08-13T09:35:04Z</time>
      </trkpt>
      <trkpt lat="42.3516990" lon="1.7573730">
        <ele>1174.4</ele>
        <time>2015-08-13T09:35:05Z</time>
      </trkpt>
      <trkpt lat="42.3517500" lon="1.7573170">
        <ele>1173.5</ele>
        <time>2015-08-13T09:35:06Z</time>
      </trkpt>
      <trkpt lat="42.3518120" lon="1.7572760">
        <ele>1172.1</ele>
        <time>2015-08-13T09:35:07Z</time>
      </trkpt>
      <trkpt lat="42.3518740" lon="1.7572260">
        <ele>1170.8</ele>
        <time>2015-08-13T09:35:08Z</time>
      </trkpt>
      <trkpt lat="42.3519210" lon="1.7571730">
        <ele>1170.0</ele>
        <time>2015-08-13T09:35:09Z</time>
      </trkpt>
      <trkpt lat="42.3519540" lon="1.7571200">
        <ele>1169.5</ele>
        <time>2015-08-13T09:35:10Z</time>
      </trkpt>
      <trkpt lat="42.3520010" lon="1.7570520">
        <ele>1168.1</ele>
        <time>2015-08-13T09:35:11Z</time>
      </trkpt>
      <trkpt lat="42.3520490" lon="1.7569860">
        <ele>1165.7</ele>
        <time>2015-08-13T09:35:12Z</time>
      </trkpt>
      <trkpt lat="42.3520780" lon="1.7569080">
        <ele>1163.8</ele>
        <time>2015-08-13T09:35:13Z</time>
      </trkpt>
      <trkpt lat="42.3521320" lon="1.7568350">
        <ele>1161.2</ele>
        <time>2015-08-13T09:35:14Z</time>
      </trkpt>
      <trkpt lat="42.3521860" lon="1.7567650">
        <ele>1158.7</ele>
        <time>2015-08-13T09:35:15Z</time>
      </trkpt>
      <trkpt lat="42.3522310" lon="1.7566940">
        <ele>1156.4</ele>
        <time>2015-08-13T09:35:16Z</time>
      </trkpt>
      <trkpt lat="42.3522720" lon="1.7566190">
        <ele>1154.3</ele>
        <time>2015-08-13T09:35:17Z</time>
      </trkpt>
      <trkpt lat="42.3523120" lon="1.7565540">
        <ele>1152.3</ele>
        <time>2015-08-13T09:35:18Z</time>
      </trkpt>
      <trkpt lat="42.3523470" lon="1.7564840">
        <ele>1150.5</ele>
        <time>2015-08-13T09:35:19Z</time>
      </trkpt>
      <trkpt lat="42.3523510" lon="1.7564020">
        <ele>1149.4</ele>
        <time>2015-08-13T09:35:20Z</time>
      </trkpt>
      <trkpt lat="42.3523530" lon="1.7563210">
        <ele>1148.4</ele>
        <time>2015-08-13T09:35:21Z</time>
      </trkpt>
      <trkpt lat="42.3523440" lon="1.7562540">
        <ele>1147.9</ele>
        <time>2015-08-13T09:35:22Z</time>
      </trkpt>
      <trkpt lat="42.3522730" lon="1.7562260">
        <ele>1149.4</ele>
        <time>2015-08-13T09:35:23Z</time>
      </trkpt>
      <trkpt lat="42.3522240" lon="1.7561780">
        <ele>1150.0</ele>
        <time>2015-08-13T09:35:24Z</time>
      </trkpt>
      <trkpt lat="42.3521890" lon="1.7561170">
        <ele>1150.0</ele>
        <time>2015-08-13T09:35:25Z</time>
      </trkpt>
      <trkpt lat="42.3522120" lon="1.7560620">
        <ele>1148.5</ele>
        <time>2015-08-13T09:35:27Z</time>
      </trkpt>
      <trkpt lat="42.3522320" lon="1.7560070">
        <ele>1147.1</ele>
        <time>2015-08-13T09:35:29Z</time>
      </trkpt>
      <trkpt lat="42.3522130" lon="1.7559770">
        <ele>1147.1</ele>
        <time>2015-08-13T09:35:31Z</time>
      </trkpt>
      <trkpt lat="42.3521960" lon="1.7559470">
        <ele>1147.1</ele>
        <time>2015-08-13T09:35:33Z</time>
      </trkpt>
      <trkpt lat="42.3522340" lon="1.7559380">
        <ele>1145.9</ele>
        <time>2015-08-13T09:35:35Z</time>
      </trkpt>
      <trkpt lat="42.3522070" lon="1.7559550">
        <ele>1146.9</ele>
        <time>2015-08-13T09:35:37Z</time>
      </trkpt>
      <trkpt lat="42.3522310" lon="1.7559890">
        <ele>1146.8</ele>
        <time>2015-08-13T09:35:53Z</time>
      </trkpt>
      <trkpt lat="42.3522780" lon="1.7560100">
        <ele>1145.8</ele>
        <time>2015-08-13T09:35:55Z</time>
      </trkpt>
      <trkpt lat="42.3523190" lon="1.7560430">
        <ele>1145.2</ele>
        <time>2015-08-13T09:35:56Z</time>
      </trkpt>
      <trkpt lat="42.3523790" lon="1.7560800">
        <ele>1144.1</ele>
        <time>2015-08-13T09:35:57Z</time>
      </trkpt>
      <trkpt lat="42.3524330" lon="1.7561170">
        <ele>1143.2</ele>
        <time>2015-08-13T09:35:58Z</time>
      </trkpt>
      <trkpt lat="42.3524810" lon="1.7561420">
        <ele>1142.3</ele>
        <time>2015-08-13T09:35:59Z</time>
      </trkpt>
      <trkpt lat="42.3525320" lon="1.7561760">
        <ele>1141.4</ele>
        <time>2015-08-13T09:36:00Z</time>
      </trkpt>
      <trkpt lat="42.3525830" lon="1.7562160">
        <ele>1140.7</ele>
        <time>2015-08-13T09:36:01Z</time>
      </trkpt>
      <trkpt lat="42.3526310" lon="1.7562390">
        <ele>1139.7</ele>
        <time>2015-08-13T09:36:02Z</time>
      </trkpt>
      <trkpt lat="42.3526770" lon="1.7562570">
        <ele>1138.7</ele>
        <time>2015-08-13T09:36:03Z</time>
      </trkpt>
      <trkpt lat="42.3527080" lon="1.7562950">
        <ele>1138.2</ele>
        <time>2015-08-13T09:36:04Z</time>
      </trkpt>
      <trkpt lat="42.3527510" lon="1.7563220">
        <ele>1137.2</ele>
        <time>2015-08-13T09:36:05Z</time>
      </trkpt>
      <trkpt lat="42.3527900" lon="1.7563570">
        <ele>1136.5</ele>
        <time>2015-08-13T09:36:06Z</time>
      </trkpt>
      <trkpt lat="42.3528280" lon="1.7564000">
        <ele>1135.8</ele>
        <time>2015-08-13T09:36:07Z</time>
      </trkpt>
      <trkpt lat="42.3528480" lon="1.7564560">
        <ele>1135.7</ele>
        <time>2015-08-13T09:36:08Z</time>
      </trkpt>
      <trkpt lat="42.3528720" lon="1.7565120">
        <ele>1135.5</ele>
        <time>2015-08-13T09:36:09Z</time>
      </trkpt>
      <trkpt lat="42.3529010" lon="1.7565620">
        <ele>1135.1</ele>
        <time>2015-08-13T09:36:10Z</time>
      </trkpt>
      <trkpt lat="42.3529310" lon="1.7566090">
        <ele>1134.7</ele>
        <time>2015-08-13T09:36:11Z</time>
      </trkpt>
      <trkpt lat="42.3529620" lon="1.7566640">
        <ele>1134.5</ele>
        <time>2015-08-13T09:36:12Z</time>
      </trkpt>
      <trkpt lat="42.3529910" lon="1.7567340">
        <ele>1134.4</ele>
        <time>2015-08-13T09:36:13Z</time>
      </trkpt>
      <trkpt lat="42.3530380" lon="1.7567930">
        <ele>1133.9</ele>
        <time>2015-08-13T09:36:14Z</time>
      </trkpt>
      <trkpt lat="42.3531020" lon="1.7567960">
        <ele>1132.5</ele>
        <time>2015-08-13T09:36:15Z</time>
      </trkpt>
      <trkpt lat="42.3531560" lon="1.7568170">
        <ele>1131.5</ele>
        <time>2015-08-13T09:36:16Z</time>
      </trkpt>
      <trkpt lat="42.3532110" lon="1.7568150">
        <ele>1130.3</ele>
        <time>2015-08-13T09:36:17Z</time>
      </trkpt>
      <trkpt lat="42.3532620" lon="1.7568190">
        <ele>1129.2</ele>
        <time>2015-08-13T09:36:18Z</time>
      </trkpt>
      <trkpt lat="42.3533190" lon="1.7568180">
        <ele>1127.9</ele>
        <time>2015-08-13T09:36:19Z</time>
      </trkpt>
      <trkpt lat="42.3533640" lon="1.7568290">
        <ele>1127.0</ele>
        <time>2015-08-13T09:36:20Z</time>
      </trkpt>
      <trkpt lat="42.3534050" lon="1.7568380">
        <ele>1126.2</ele>
        <time>2015-08-13T09:36:21Z</time>
      </trkpt>
      <trkpt lat="42.3534400" lon="1.7568570">
        <ele>1125.6</ele>
        <time>2015-08-13T09:36:22Z</time>
      </trkpt>
      <trkpt lat="42.3534640" lon="1.7569150">
        <ele>1125.6</ele>
        <time>2015-08-13T09:36:24Z</time>
      </trkpt>
      <trkpt lat="42.3534460" lon="1.7569480">
        <ele>1126.3</ele>
        <time>2015-08-13T09:36:25Z</time>
      </trkpt>
      <trkpt lat="42.3534320" lon="1.7569830">
        <ele>1127.0</ele>
        <time>2015-08-13T09:36:26Z</time>
      </trkpt>
      <trkpt lat="42.3534140" lon="1.7570400">
        <ele>1127.9</ele>
        <time>2015-08-13T09:36:28Z</time>
      </trkpt>
      <trkpt lat="42.3534110" lon="1.7569930">
        <ele>1127.5</ele>
        <time>2015-08-13T09:36:31Z</time>
      </trkpt>
      <trkpt lat="42.3534060" lon="1.7569560">
        <ele>1127.3</ele>
        <time>2015-08-13T09:36:35Z</time>
      </trkpt>
      <trkpt lat="42.3534100" lon="1.7569120">
        <ele>1126.8</ele>
        <time>2015-08-13T09:36:48Z</time>
      </trkpt>
      <trkpt lat="42.3534270" lon="1.7568820">
        <ele>1126.1</ele>
        <time>2015-08-13T09:36:50Z</time>
      </trkpt>
      <trkpt lat="42.3534460" lon="1.7568430">
        <ele>1125.4</ele>
        <time>2015-08-13T09:36:52Z</time>
      </trkpt>
      <trkpt lat="42.3534670" lon="1.7568140">
        <ele>1124.6</ele>
        <time>2015-08-13T09:36:54Z</time>
      </trkpt>
      <trkpt lat="42.3534880" lon="1.7567800">
        <ele>1123.9</ele>
        <time>2015-08-13T09:36:57Z</time>
      </trkpt>
      <trkpt lat="42.3535140" lon="1.7567440">
        <ele>1123.0</ele>
        <time>2015-08-13T09:37:00Z</time>
      </trkpt>
      <trkpt lat="42.3535230" lon="1.7566860">
        <ele>1122.2</ele>
        <time>2015-08-13T09:37:02Z</time>
      </trkpt>
      <trkpt lat="42.3535100" lon="1.7566470">
        <ele>1122.1</ele>
        <time>2015-08-13T09:37:03Z</time>
      </trkpt>
      <trkpt lat="42.3534960" lon="1.7565900">
        <ele>1121.9</ele>
        <time>2015-08-13T09:37:05Z</time>
      </trkpt>
      <trkpt lat="42.3534890" lon="1.7565510">
        <ele>1121.7</ele>
        <time>2015-08-13T09:37:07Z</time>
      </trkpt>
      <trkpt lat="42.3534790" lon="1.7565020">
        <ele>1121.5</ele>
        <time>2015-08-13T09:37:10Z</time>
      </trkpt>
      <trkpt lat="42.3534680" lon="1.7564570">
        <ele>1121.3</ele>
        <time>2015-08-13T09:37:13Z</time>
      </trkpt>
      <trkpt lat="42.3534520" lon="1.7564230">
        <ele>1121.4</ele>
        <time>2015-08-13T09:37:15Z</time>
      </trkpt>
      <trkpt lat="42.3534450" lon="1.7563820">
        <ele>1121.2</ele>
        <time>2015-08-13T09:37:19Z</time>
      </trkpt>
      <trkpt lat="42.3534250" lon="1.7563510">
        <ele>1121.3</ele>
        <time>2015-08-13T09:37:21Z</time>
      </trkpt>
      <trkpt lat="42.3534570" lon="1.7563460">
        <ele>1120.6</ele>
        <time>2015-08-13T09:37:26Z</time>
      </trkpt>
      <trkpt lat="42.3534710" lon="1.7563810">
        <ele>1120.6</ele>
        <time>2015-08-13T09:37:29Z</time>
      </trkpt>
      <trkpt lat="42.3534930" lon="1.7564150">
        <ele>1120.4</ele>
        <time>2015-08-13T09:37:31Z</time>
      </trkpt>
      <trkpt lat="42.3535090" lon="1.7564470">
        <ele>1120.3</ele>
        <time>2015-08-13T09:37:34Z</time>
      </trkpt>
      <trkpt lat="42.3535230" lon="1.7564810">
        <ele>1120.3</ele>
        <time>2015-08-13T09:37:37Z</time>
      </trkpt>
      <trkpt lat="42.3535240" lon="1.7565200">
        <ele>1120.7</ele>
        <time>2015-08-13T09:37:40Z</time>
      </trkpt>
      <trkpt lat="42.3535290" lon="1.7565760">
        <ele>1121.1</ele>
        <time>2015-08-13T09:37:42Z</time>
      </trkpt>
      <trkpt lat="42.3535400" lon="1.7566260">
        <ele>1121.3</ele>
        <time>2015-08-13T09:37:45Z</time>
      </trkpt>
      <trkpt lat="42.3535560" lon="1.7566690">
        <ele>1121.3</ele>
        <time>2015-08-13T09:37:47Z</time>
      </trkpt>
      <trkpt lat="42.3535760" lon="1.7567240">
        <ele>1121.4</ele>
        <time>2015-08-13T09:37:50Z</time>
      </trkpt>
      <trkpt lat="42.3536130" lon="1.7567770">
        <ele>1121.1</ele>
        <time>2015-08-13T09:37:52Z</time>
      </trkpt>
      <trkpt lat="42.3536400" lon="1.7568170">
        <ele>1120.9</ele>
        <time>2015-08-13T09:37:53Z</time>
      </trkpt>
      <trkpt lat="42.3536730" lon="1.7568630">
        <ele>1120.6</ele>
        <time>2015-08-13T09:37:54Z</time>
      </trkpt>
      <trkpt lat="42.3537070" lon="1.7569290">
        <ele>1120.5</ele>
        <time>2015-08-13T09:37:55Z</time>
      </trkpt>
      <trkpt lat="42.3537410" lon="1.7569920">
        <ele>1120.3</ele>
        <time>2015-08-13T09:37:56Z</time>
      </trkpt>
      <trkpt lat="42.3537650" lon="1.7570630">
        <ele>1120.7</ele>
        <time>2015-08-13T09:37:57Z</time>
      </trkpt>
      <trkpt lat="42.3537930" lon="1.7571360">
        <ele>1120.7</ele>
        <time>2015-08-13T09:37:58Z</time>
      </trkpt>
      <trkpt lat="42.3538280" lon="1.7571970">
        <ele>1120.5</ele>
        <time>2015-08-13T09:37:59Z</time>
      </trkpt>
      <trkpt lat="42.3538540" lon="1.7572540">
        <ele>1120.3</ele>
        <time>2015-08-13T09:38:00Z</time>
      </trkpt>
      <trkpt lat="42.3538870" lon="1.7573200">
        <ele>1120.0</ele>
        <time>2015-08-13T09:38:01Z</time>
      </trkpt>
      <trkpt lat="42.3539230" lon="1.7573780">
        <ele>1119.8</ele>
        <time>2015-08-13T09:38:02Z</time>
      </trkpt>
      <trkpt lat="42.3539530" lon="1.7574240">
        <ele>1119.5</ele>
        <time>2015-08-13T09:38:03Z</time>
      </trkpt>
      <trkpt lat="42.3539830" lon="1.7574610">
        <ele>1119.2</ele>
        <time>2015-08-13T09:38:04Z</time>
      </trkpt>
      <trkpt lat="42.3540110" lon="1.7575040">
        <ele>1119.0</ele>
        <time>2015-08-13T09:38:05Z</time>
      </trkpt>
      <trkpt lat="42.3540430" lon="1.7575410">
        <ele>1118.7</ele>
        <time>2015-08-13T09:38:08Z</time>
      </trkpt>
      <trkpt lat="42.3540610" lon="1.7575720">
        <ele>1118.5</ele>
        <time>2015-08-13T09:38:29Z</time>
      </trkpt>
      <trkpt lat="42.3540660" lon="1.7576340">
        <ele>1118.5</ele>
        <time>2015-08-13T09:38:31Z</time>
      </trkpt>
      <trkpt lat="42.3540600" lon="1.7576870">
        <ele>1118.6</ele>
        <time>2015-08-13T09:38:33Z</time>
      </trkpt>
      <trkpt lat="42.3540600" lon="1.7577360">
        <ele>1118.6</ele>
        <time>2015-08-13T09:38:34Z</time>
      </trkpt>
      <trkpt lat="42.3540260" lon="1.7577800">
        <ele>1119.0</ele>
        <time>2015-08-13T09:38:35Z</time>
      </trkpt>
      <trkpt lat="42.3540110" lon="1.7578150">
        <ele>1119.1</ele>
        <time>2015-08-13T09:38:36Z</time>
      </trkpt>
      <trkpt lat="42.3540030" lon="1.7578600">
        <ele>1119.2</ele>
        <time>2015-08-13T09:38:37Z</time>
      </trkpt>
      <trkpt lat="42.3539790" lon="1.7579320">
        <ele>1119.4</ele>
        <time>2015-08-13T09:38:38Z</time>
      </trkpt>
      <trkpt lat="42.3539550" lon="1.7579930">
        <ele>1118.9</ele>
        <time>2015-08-13T09:38:39Z</time>
      </trkpt>
      <trkpt lat="42.3539430" lon="1.7580660">
        <ele>1118.2</ele>
        <time>2015-08-13T09:38:40Z</time>
      </trkpt>
      <trkpt lat="42.3539220" lon="1.7581290">
        <ele>1117.7</ele>
        <time>2015-08-13T09:38:41Z</time>
      </trkpt>
      <trkpt lat="42.3538890" lon="1.7581820">
        <ele>1117.5</ele>
        <time>2015-08-13T09:38:42Z</time>
      </trkpt>
      <trkpt lat="42.3538750" lon="1.7582380">
        <ele>1117.1</ele>
        <time>2015-08-13T09:38:43Z</time>
      </trkpt>
      <trkpt lat="42.3538610" lon="1.7582800">
        <ele>1116.8</ele>
        <time>2015-08-13T09:38:44Z</time>
      </trkpt>
      <trkpt lat="42.3538500" lon="1.7583140">
        <ele>1116.5</ele>
        <time>2015-08-13T09:38:45Z</time>
      </trkpt>
      <trkpt lat="42.3539470" lon="1.7583540">
        <ele>1114.9</ele>
        <time>2015-08-13T09:39:03Z</time>
      </trkpt>
      <trkpt lat="42.3540020" lon="1.7583910">
        <ele>1113.8</ele>
        <time>2015-08-13T09:39:06Z</time>
      </trkpt>
      <trkpt lat="42.3540560" lon="1.7584290">
        <ele>1112.7</ele>
        <time>2015-08-13T09:39:23Z</time>
      </trkpt>
      <trkpt lat="42.3541110" lon="1.7584670">
        <ele>1111.6</ele>
        <time>2015-08-13T09:39:24Z</time>
      </trkpt>
      <trkpt lat="42.3541960" lon="1.7585270">
        <ele>1109.8</ele>
        <time>2015-08-13T09:39:25Z</time>
      </trkpt>
      <trkpt lat="42.3542730" lon="1.7585900">
        <ele>1108.1</ele>
        <time>2015-08-13T09:39:26Z</time>
      </trkpt>
      <trkpt lat="42.3543650" lon="1.7586510">
        <ele>1106.1</ele>
        <time>2015-08-13T09:39:27Z</time>
      </trkpt>
      <trkpt lat="42.3544640" lon="1.7586930">
        <ele>1104.3</ele>
        <time>2015-08-13T09:39:28Z</time>
      </trkpt>
      <trkpt lat="42.3545510" lon="1.7587430">
        <ele>1102.5</ele>
        <time>2015-08-13T09:39:29Z</time>
      </trkpt>
      <trkpt lat="42.3546060" lon="1.7587810">
        <ele>1101.3</ele>
        <time>2015-08-13T09:39:30Z</time>
      </trkpt>
      <trkpt lat="42.3546520" lon="1.7588100">
        <ele>1100.7</ele>
        <time>2015-08-13T09:39:31Z</time>
      </trkpt>
      <trkpt lat="42.3547040" lon="1.7588220">
        <ele>1100.3</ele>
        <time>2015-08-13T09:39:32Z</time>
      </trkpt>
      <trkpt lat="42.3547380" lon="1.7588370">
        <ele>1099.9</ele>
        <time>2015-08-13T09:39:33Z</time>
      </trkpt>
      <trkpt lat="42.3548030" lon="1.7588190">
        <ele>1100.1</ele>
        <time>2015-08-13T09:39:34Z</time>
      </trkpt>
      <trkpt lat="42.3548690" lon="1.7588020">
        <ele>1100.3</ele>
        <time>2015-08-13T09:39:35Z</time>
      </trkpt>
      <trkpt lat="42.3549330" lon="1.7587700">
        <ele>1100.8</ele>
        <time>2015-08-13T09:39:36Z</time>
      </trkpt>
      <trkpt lat="42.3549930" lon="1.7587420">
        <ele>1101.1</ele>
        <time>2015-08-13T09:39:37Z</time>
      </trkpt>
      <trkpt lat="42.3550680" lon="1.7587160">
        <ele>1101.3</ele>
        <time>2015-08-13T09:39:38Z</time>
      </trkpt>
      <trkpt lat="42.3551280" lon="1.7586870">
        <ele>1101.6</ele>
        <time>2015-08-13T09:39:39Z</time>
      </trkpt>
      <trkpt lat="42.3551840" lon="1.7586640">
        <ele>1101.8</ele>
        <time>2015-08-13T09:39:40Z</time>
      </trkpt>
      <trkpt lat="42.3552390" lon="1.7586390">
        <ele>1102.0</ele>
        <time>2015-08-13T09:39:41Z</time>
      </trkpt>
      <trkpt lat="42.3553140" lon="1.7586480">
        <ele>1101.7</ele>
        <time>2015-08-13T09:39:42Z</time>
      </trkpt>
      <trkpt lat="42.3553630" lon="1.7586510">
        <ele>1101.5</ele>
        <time>2015-08-13T09:39:43Z</time>
      </trkpt>
      <trkpt lat="42.3554510" lon="1.7586290">
        <ele>1101.3</ele>
        <time>2015-08-13T09:39:44Z</time>
      </trkpt>
      <trkpt lat="42.3555030" lon="1.7586190">
        <ele>1100.8</ele>
        <time>2015-08-13T09:39:45Z</time>
      </trkpt>
      <trkpt lat="42.3555840" lon="1.7586010">
        <ele>1100.0</ele>
        <time>2015-08-13T09:39:46Z</time>
      </trkpt>
      <trkpt lat="42.3556690" lon="1.7585630">
        <ele>1099.5</ele>
        <time>2015-08-13T09:39:47Z</time>
      </trkpt>
      <trkpt lat="42.3557610" lon="1.7585220">
        <ele>1099.0</ele>
        <time>2015-08-13T09:39:48Z</time>
      </trkpt>
      <trkpt lat="42.3558270" lon="1.7584810">
        <ele>1098.8</ele>
        <time>2015-08-13T09:39:49Z</time>
      </trkpt>
      <trkpt lat="42.3558830" lon="1.7584320">
        <ele>1098.9</ele>
        <time>2015-08-13T09:39:50Z</time>
      </trkpt>
      <trkpt lat="42.3559290" lon="1.7583790">
        <ele>1099.1</ele>
        <time>2015-08-13T09:39:51Z</time>
      </trkpt>
      <trkpt lat="42.3559770" lon="1.7583190">
        <ele>1099.5</ele>
        <time>2015-08-13T09:39:52Z</time>
      </trkpt>
      <trkpt lat="42.3560340" lon="1.7582530">
        <ele>1099.9</ele>
        <time>2015-08-13T09:39:53Z</time>
      </trkpt>
      <trkpt lat="42.3560750" lon="1.7581880">
        <ele>1100.5</ele>
        <time>2015-08-13T09:39:54Z</time>
      </trkpt>
      <trkpt lat="42.3561180" lon="1.7581200">
        <ele>1101.1</ele>
        <time>2015-08-13T09:39:55Z</time>
      </trkpt>
      <trkpt lat="42.3561640" lon="1.7580450">
        <ele>1101.8</ele>
        <time>2015-08-13T09:39:56Z</time>
      </trkpt>
      <trkpt lat="42.3562090" lon="1.7579960">
        <ele>1102.1</ele>
        <time>2015-08-13T09:39:57Z</time>
      </trkpt>
      <trkpt lat="42.3562740" lon="1.7579520">
        <ele>1101.7</ele>
        <time>2015-08-13T09:39:58Z</time>
      </trkpt>
      <trkpt lat="42.3563360" lon="1.7579260">
        <ele>1100.5</ele>
        <time>2015-08-13T09:39:59Z</time>
      </trkpt>
      <trkpt lat="42.3563880" lon="1.7579450">
        <ele>1098.7</ele>
        <time>2015-08-13T09:40:00Z</time>
      </trkpt>
      <trkpt lat="42.3564550" lon="1.7579440">
        <ele>1096.9</ele>
        <time>2015-08-13T09:40:01Z</time>
      </trkpt>
      <trkpt lat="42.3565220" lon="1.7579870">
        <ele>1094.3</ele>
        <time>2015-08-13T09:40:02Z</time>
      </trkpt>
      <trkpt lat="42.3565600" lon="1.7580530">
        <ele>1092.2</ele>
        <time>2015-08-13T09:40:03Z</time>
      </trkpt>
      <trkpt lat="42.3566090" lon="1.7580950">
        <ele>1090.2</ele>
        <time>2015-08-13T09:40:04Z</time>
      </trkpt>
      <trkpt lat="42.3566540" lon="1.7581620">
        <ele>1087.9</ele>
        <time>2015-08-13T09:40:05Z</time>
      </trkpt>
      <trkpt lat="42.3566770" lon="1.7582200">
        <ele>1086.3</ele>
        <time>2015-08-13T09:40:06Z</time>
      </trkpt>
      <trkpt lat="42.3567010" lon="1.7583000">
        <ele>1084.4</ele>
        <time>2015-08-13T09:40:07Z</time>
      </trkpt>
      <trkpt lat="42.3567370" lon="1.7583750">
        <ele>1082.2</ele>
        <time>2015-08-13T09:40:08Z</time>
      </trkpt>
      <trkpt lat="42.3567740" lon="1.7584450">
        <ele>1080.1</ele>
        <time>2015-08-13T09:40:09Z</time>
      </trkpt>
      <trkpt lat="42.3568080" lon="1.7585210">
        <ele>1077.9</ele>
        <time>2015-08-13T09:40:11Z</time>
      </trkpt>
      <trkpt lat="42.3568450" lon="1.7585540">
        <ele>1076.4</ele>
        <time>2015-08-13T09:40:12Z</time>
      </trkpt>
      <trkpt lat="42.3568910" lon="1.7585450">
        <ele>1075.3</ele>
        <time>2015-08-13T09:40:14Z</time>
      </trkpt>
      <trkpt lat="42.3569510" lon="1.7585320">
        <ele>1073.9</ele>
        <time>2015-08-13T09:40:16Z</time>
      </trkpt>
      <trkpt lat="42.3569960" lon="1.7585230">
        <ele>1072.9</ele>
        <time>2015-08-13T09:40:17Z</time>
      </trkpt>
      <trkpt lat="42.3570260" lon="1.7585010">
        <ele>1072.4</ele>
        <time>2015-08-13T09:40:18Z</time>
      </trkpt>
      <trkpt lat="42.3570610" lon="1.7584750">
        <ele>1071.9</ele>
        <time>2015-08-13T09:40:19Z</time>
      </trkpt>
      <trkpt lat="42.3570970" lon="1.7584360">
        <ele>1071.7</ele>
        <time>2015-08-13T09:40:20Z</time>
      </trkpt>
      <trkpt lat="42.3571360" lon="1.7583910">
        <ele>1071.7</ele>
        <time>2015-08-13T09:40:21Z</time>
      </trkpt>
      <trkpt lat="42.3571630" lon="1.7583620">
        <ele>1071.6</ele>
        <time>2015-08-13T09:40:22Z</time>
      </trkpt>
      <trkpt lat="42.3571870" lon="1.7583170">
        <ele>1071.8</ele>
        <time>2015-08-13T09:40:24Z</time>
      </trkpt>
      <trkpt lat="42.3572030" lon="1.7582850">
        <ele>1072.0</ele>
        <time>2015-08-13T09:40:25Z</time>
      </trkpt>
      <trkpt lat="42.3572400" lon="1.7582340">
        <ele>1071.9</ele>
        <time>2015-08-13T09:40:27Z</time>
      </trkpt>
      <trkpt lat="42.3572700" lon="1.7581840">
        <ele>1072.0</ele>
        <time>2015-08-13T09:40:29Z</time>
      </trkpt>
      <trkpt lat="42.3572850" lon="1.7581460">
        <ele>1072.2</ele>
        <time>2015-08-13T09:40:30Z</time>
      </trkpt>
      <trkpt lat="42.3573200" lon="1.7581010">
        <ele>1072.0</ele>
        <time>2015-08-13T09:40:32Z</time>
      </trkpt>
      <trkpt lat="42.3573570" lon="1.7580630">
        <ele>1071.7</ele>
        <time>2015-08-13T09:40:34Z</time>
      </trkpt>
      <trkpt lat="42.3573770" lon="1.7580290">
        <ele>1071.6</ele>
        <time>2015-08-13T09:40:35Z</time>
      </trkpt>
      <trkpt lat="42.3573970" lon="1.7580000">
        <ele>1071.5</ele>
        <time>2015-08-13T09:40:36Z</time>
      </trkpt>
      <trkpt lat="42.3574210" lon="1.7579650">
        <ele>1071.4</ele>
        <time>2015-08-13T09:40:37Z</time>
      </trkpt>
      <trkpt lat="42.3574550" lon="1.7579420">
        <ele>1070.8</ele>
        <time>2015-08-13T09:40:39Z</time>
      </trkpt>
      <trkpt lat="42.3574680" lon="1.7579470">
        <ele>1070.4</ele>
        <time>2015-08-13T09:40:42Z</time>
      </trkpt>
      <trkpt lat="42.3574810" lon="1.7579510">
        <ele>1070.1</ele>
        <time>2015-08-13T09:40:59Z</time>
      </trkpt>
      <trkpt lat="42.3574930" lon="1.7579560">
        <ele>1069.8</ele>
        <time>2015-08-13T09:42:20Z</time>
      </trkpt>
      <trkpt lat="42.3575060" lon="1.7579610">
        <ele>1069.4</ele>
        <time>2015-08-13T09:42:45Z</time>
      </trkpt>
      <trkpt lat="42.3575190" lon="1.7579660">
        <ele>1069.1</ele>
        <time>2015-08-13T09:42:46Z</time>
      </trkpt>
      <trkpt lat="42.3575650" lon="1.7579380">
        <ele>1068.2</ele>
        <time>2015-08-13T09:45:36Z</time>
      </trkpt>
      <trkpt lat="42.3575400" lon="1.7579100">
        <ele>1069.1</ele>
        <time>2015-08-13T09:45:46Z</time>
      </trkpt>
      <trkpt lat="42.3575570" lon="1.7579520">
        <ele>1068.3</ele>
        <time>2015-08-13T09:46:27Z</time>
      </trkpt>
      <trkpt lat="42.3575310" lon="1.7579380">
        <ele>1069.0</ele>
        <time>2015-08-13T09:46:44Z</time>
      </trkpt>
      <trkpt lat="42.3575520" lon="1.7579660">
        <ele>1068.3</ele>
        <time>2015-08-13T09:46:57Z</time>
      </trkpt>
      <trkpt lat="42.3575290" lon="1.7579450">
        <ele>1069.0</ele>
        <time>2015-08-13T09:47:02Z</time>
      </trkpt>
      <trkpt lat="42.3575040" lon="1.7579170">
        <ele>1069.9</ele>
        <time>2015-08-13T09:47:19Z</time>
      </trkpt>
      <trkpt lat="42.3575280" lon="1.7578980">
        <ele>1069.6</ele>
        <time>2015-08-13T09:48:18Z</time>
      </trkpt>
      <trkpt lat="42.3575350" lon="1.7579490">
        <ele>1068.8</ele>
        <time>2015-08-13T09:48:28Z</time>
      </trkpt>
      <trkpt lat="42.3575460" lon="1.7579920">
        <ele>1068.2</ele>
        <time>2015-08-13T09:48:32Z</time>
      </trkpt>
      <trkpt lat="42.3575930" lon="1.7580250">
        <ele>1066.8</ele>
        <time>2015-08-13T09:49:19Z</time>
      </trkpt>
      <trkpt lat="42.3575810" lon="1.7579920">
        <ele>1067.4</ele>
        <time>2015-08-13T09:49:37Z</time>
      </trkpt>
      <trkpt lat="42.3575560" lon="1.7579640">
        <ele>1068.2</ele>
        <time>2015-08-13T09:50:00Z</time>
      </trkpt>
      <trkpt lat="42.3575620" lon="1.7580010">
        <ele>1067.7</ele>
        <time>2015-08-13T09:50:08Z</time>
      </trkpt>
      <trkpt lat="42.3575530" lon="1.7579650">
        <ele>1068.3</ele>
        <time>2015-08-13T09:50:21Z</time>
      </trkpt>
      <trkpt lat="42.3575800" lon="1.7579760">
        <ele>1067.5</ele>
        <time>2015-08-13T09:50:35Z</time>
      </trkpt>
      <trkpt lat="42.3575550" lon="1.7579620">
        <ele>1068.2</ele>
        <time>2015-08-13T09:51:03Z</time>
      </trkpt>
      <trkpt lat="42.3575270" lon="1.7579500">
        <ele>1069.0</ele>
        <time>2015-08-13T09:51:20Z</time>
      </trkpt>
      <trkpt lat="42.3575720" lon="1.7579550">
        <ele>1067.9</ele>
        <time>2015-08-13T09:53:02Z</time>
      </trkpt>
      <trkpt lat="42.3575450" lon="1.7579670">
        <ele>1068.4</ele>
        <time>2015-08-13T09:53:26Z</time>
      </trkpt>
      <trkpt lat="42.3575520" lon="1.7579310">
        <ele>1068.6</ele>
        <time>2015-08-13T09:53:46Z</time>
      </trkpt>
      <trkpt lat="42.3575660" lon="1.7579690">
        <ele>1067.9</ele>
        <time>2015-08-13T09:53:53Z</time>
      </trkpt>
      <trkpt lat="42.3575840" lon="1.7580010">
        <ele>1067.2</ele>
        <time>2015-08-13T09:53:56Z</time>
      </trkpt>
      <trkpt lat="42.3575590" lon="1.7579860">
        <ele>1067.9</ele>
        <time>2015-08-13T09:54:00Z</time>
      </trkpt>
      <trkpt lat="42.3575880" lon="1.7579930">
        <ele>1067.2</ele>
        <time>2015-08-13T09:54:35Z</time>
      </trkpt>
      <trkpt lat="42.3575690" lon="1.7579620">
        <ele>1067.9</ele>
        <time>2015-08-13T09:54:39Z</time>
      </trkpt>
      <trkpt lat="42.3575480" lon="1.7579130">
        <ele>1068.9</ele>
        <time>2015-08-13T09:55:07Z</time>
      </trkpt>
      <trkpt lat="42.3575650" lon="1.7579490">
        <ele>1068.1</ele>
        <time>2015-08-13T09:55:14Z</time>
      </trkpt>
      <trkpt lat="42.3575420" lon="1.7579280">
        <ele>1068.9</ele>
        <time>2015-08-13T09:55:19Z</time>
      </trkpt>
      <trkpt lat="42.3575120" lon="1.7578930">
        <ele>1070.0</ele>
        <time>2015-08-13T09:57:29Z</time>
      </trkpt>
      <trkpt lat="42.3575050" lon="1.7578460">
        <ele>1070.7</ele>
        <time>2015-08-13T09:57:32Z</time>
      </trkpt>
      <trkpt lat="42.3575090" lon="1.7578040">
        <ele>1071.1</ele>
        <time>2015-08-13T09:57:33Z</time>
      </trkpt>
      <trkpt lat="42.3575380" lon="1.7577910">
        <ele>1070.6</ele>
        <time>2015-08-13T09:57:35Z</time>
      </trkpt>
      <trkpt lat="42.3575840" lon="1.7577560">
        <ele>1069.9</ele>
        <time>2015-08-13T09:57:37Z</time>
      </trkpt>
      <trkpt lat="42.3576170" lon="1.7577330">
        <ele>1069.4</ele>
        <time>2015-08-13T09:57:38Z</time>
      </trkpt>
      <trkpt lat="42.3576490" lon="1.7577100">
        <ele>1068.9</ele>
        <time>2015-08-13T09:57:39Z</time>
      </trkpt>
      <trkpt lat="42.3576670" lon="1.7576790">
        <ele>1068.8</ele>
        <time>2015-08-13T09:57:40Z</time>
      </trkpt>
      <trkpt lat="42.3576940" lon="1.7576430">
        <ele>1068.6</ele>
        <time>2015-08-13T09:57:41Z</time>
      </trkpt>
      <trkpt lat="42.3577120" lon="1.7576060">
        <ele>1068.6</ele>
        <time>2015-08-13T09:57:42Z</time>
      </trkpt>
      <trkpt lat="42.3577460" lon="1.7575600">
        <ele>1068.4</ele>
        <time>2015-08-13T09:57:43Z</time>
      </trkpt>
      <trkpt lat="42.3577940" lon="1.7575330">
        <ele>1067.5</ele>
        <time>2015-08-13T09:57:44Z</time>
      </trkpt>
      <trkpt lat="42.3578330" lon="1.7575000">
        <ele>1067.0</ele>
        <time>2015-08-13T09:57:45Z</time>
      </trkpt>
      <trkpt lat="42.3578630" lon="1.7574450">
        <ele>1066.9</ele>
        <time>2015-08-13T09:57:46Z</time>
      </trkpt>
      <trkpt lat="42.3579010" lon="1.7573890">
        <ele>1066.7</ele>
        <time>2015-08-13T09:57:47Z</time>
      </trkpt>
      <trkpt lat="42.3579320" lon="1.7573320">
        <ele>1066.7</ele>
        <time>2015-08-13T09:57:48Z</time>
      </trkpt>
      <trkpt lat="42.3579680" lon="1.7572700">
        <ele>1066.7</ele>
        <time>2015-08-13T09:57:49Z</time>
      </trkpt>
      <trkpt lat="42.3580150" lon="1.7572050">
        <ele>1066.5</ele>
        <time>2015-08-13T09:57:50Z</time>
      </trkpt>
      <trkpt lat="42.3580610" lon="1.7571340">
        <ele>1066.3</ele>
        <time>2015-08-13T09:57:51Z</time>
      </trkpt>
      <trkpt lat="42.3580980" lon="1.7570620">
        <ele>1066.2</ele>
        <time>2015-08-13T09:57:52Z</time>
      </trkpt>
      <trkpt lat="42.3581490" lon="1.7569960">
        <ele>1065.5</ele>
        <time>2015-08-13T09:57:53Z</time>
      </trkpt>
      <trkpt lat="42.3581970" lon="1.7569130">
        <ele>1064.9</ele>
        <time>2015-08-13T09:57:54Z</time>
      </trkpt>
      <trkpt lat="42.3582380" lon="1.7568360">
        <ele>1064.4</ele>
        <time>2015-08-13T09:57:55Z</time>
      </trkpt>
      <trkpt lat="42.3582910" lon="1.7567610">
        <ele>1063.5</ele>
        <time>2015-08-13T09:57:56Z</time>
      </trkpt>
      <trkpt lat="42.3583370" lon="1.7566900">
        <ele>1062.8</ele>
        <time>2015-08-13T09:57:57Z</time>
      </trkpt>
      <trkpt lat="42.3583860" lon="1.7566210">
        <ele>1061.9</ele>
        <time>2015-08-13T09:57:58Z</time>
      </trkpt>
      <trkpt lat="42.3584350" lon="1.7565370">
        <ele>1061.1</ele>
        <time>2015-08-13T09:57:59Z</time>
      </trkpt>
      <trkpt lat="42.3584720" lon="1.7564400">
        <ele>1060.6</ele>
        <time>2015-08-13T09:58:00Z</time>
      </trkpt>
      <trkpt lat="42.3585140" lon="1.7563500">
        <ele>1059.9</ele>
        <time>2015-08-13T09:58:01Z</time>
      </trkpt>
      <trkpt lat="42.3585500" lon="1.7562460">
        <ele>1059.2</ele>
        <time>2015-08-13T09:58:02Z</time>
      </trkpt>
      <trkpt lat="42.3585800" lon="1.7561410">
        <ele>1057.5</ele>
        <time>2015-08-13T09:58:03Z</time>
      </trkpt>
      <trkpt lat="42.3586050" lon="1.7560310">
        <ele>1055.9</ele>
        <time>2015-08-13T09:58:04Z</time>
      </trkpt>
      <trkpt lat="42.3586300" lon="1.7559250">
        <ele>1054.4</ele>
        <time>2015-08-13T09:58:05Z</time>
      </trkpt>
      <trkpt lat="42.3586550" lon="1.7558140">
        <ele>1052.8</ele>
        <time>2015-08-13T09:58:06Z</time>
      </trkpt>
      <trkpt lat="42.3586850" lon="1.7556950">
        <ele>1051.0</ele>
        <time>2015-08-13T09:58:07Z</time>
      </trkpt>
      <trkpt lat="42.3587000" lon="1.7556060">
        <ele>1049.9</ele>
        <time>2015-08-13T09:58:08Z</time>
      </trkpt>
      <trkpt lat="42.3587220" lon="1.7554910">
        <ele>1048.3</ele>
        <time>2015-08-13T09:58:09Z</time>
      </trkpt>
      <trkpt lat="42.3587500" lon="1.7553960">
        <ele>1047.0</ele>
        <time>2015-08-13T09:58:10Z</time>
      </trkpt>
      <trkpt lat="42.3587710" lon="1.7552950">
        <ele>1046.6</ele>
        <time>2015-08-13T09:58:11Z</time>
      </trkpt>
      <trkpt lat="42.3587830" lon="1.7551910">
        <ele>1046.4</ele>
        <time>2015-08-13T09:58:12Z</time>
      </trkpt>
      <trkpt lat="42.3588010" lon="1.7550820">
        <ele>1046.1</ele>
        <time>2015-08-13T09:58:13Z</time>
      </trkpt>
      <trkpt lat="42.3588380" lon="1.7549870">
        <ele>1045.6</ele>
        <time>2015-08-13T09:58:14Z</time>
      </trkpt>
      <trkpt lat="42.3588830" lon="1.7548920">
        <ele>1045.1</ele>
        <time>2015-08-13T09:58:15Z</time>
      </trkpt>
      <trkpt lat="42.3589390" lon="1.7547900">
        <ele>1044.5</ele>
        <time>2015-08-13T09:58:16Z</time>
      </trkpt>
      <trkpt lat="42.3589940" lon="1.7546940">
        <ele>1044.0</ele>
        <time>2015-08-13T09:58:17Z</time>
      </trkpt>
      <trkpt lat="42.3590460" lon="1.7546010">
        <ele>1043.5</ele>
        <time>2015-08-13T09:58:18Z</time>
      </trkpt>
      <trkpt lat="42.3590890" lon="1.7545110">
        <ele>1043.0</ele>
        <time>2015-08-13T09:58:19Z</time>
      </trkpt>
      <trkpt lat="42.3591360" lon="1.7544190">
        <ele>1042.5</ele>
        <time>2015-08-13T09:58:20Z</time>
      </trkpt>
      <trkpt lat="42.3591820" lon="1.7543210">
        <ele>1041.9</ele>
        <time>2015-08-13T09:58:21Z</time>
      </trkpt>
      <trkpt lat="42.3592280" lon="1.7542370">
        <ele>1041.3</ele>
        <time>2015-08-13T09:58:22Z</time>
      </trkpt>
      <trkpt lat="42.3592820" lon="1.7541810">
        <ele>1040.7</ele>
        <time>2015-08-13T09:58:23Z</time>
      </trkpt>
      <trkpt lat="42.3593320" lon="1.7541220">
        <ele>1040.2</ele>
        <time>2015-08-13T09:58:24Z</time>
      </trkpt>
      <trkpt lat="42.3593990" lon="1.7541120">
        <ele>1039.5</ele>
        <time>2015-08-13T09:58:25Z</time>
      </trkpt>
      <trkpt lat="42.3594690" lon="1.7540900">
        <ele>1038.9</ele>
        <time>2015-08-13T09:58:26Z</time>
      </trkpt>
      <trkpt lat="42.3595350" lon="1.7540870">
        <ele>1038.2</ele>
        <time>2015-08-13T09:58:27Z</time>
      </trkpt>
      <trkpt lat="42.3596060" lon="1.7540870">
        <ele>1037.6</ele>
        <time>2015-08-13T09:58:28Z</time>
      </trkpt>
      <trkpt lat="42.3596710" lon="1.7540860">
        <ele>1037.2</ele>
        <time>2015-08-13T09:58:29Z</time>
      </trkpt>
      <trkpt lat="42.3597370" lon="1.7540850">
        <ele>1036.7</ele>
        <time>2015-08-13T09:58:30Z</time>
      </trkpt>
      <trkpt lat="42.3598020" lon="1.7540810">
        <ele>1036.2</ele>
        <time>2015-08-13T09:58:31Z</time>
      </trkpt>
      <trkpt lat="42.3598710" lon="1.7540680">
        <ele>1035.7</ele>
        <time>2015-08-13T09:58:32Z</time>
      </trkpt>
      <trkpt lat="42.3599400" lon="1.7540540">
        <ele>1035.2</ele>
        <time>2015-08-13T09:58:33Z</time>
      </trkpt>
      <trkpt lat="42.3600130" lon="1.7540420">
        <ele>1034.6</ele>
        <time>2015-08-13T09:58:34Z</time>
      </trkpt>
      <trkpt lat="42.3600860" lon="1.7540320">
        <ele>1034.1</ele>
        <time>2015-08-13T09:58:35Z</time>
      </trkpt>
      <trkpt lat="42.3601600" lon="1.7540230">
        <ele>1033.5</ele>
        <time>2015-08-13T09:58:36Z</time>
      </trkpt>
      <trkpt lat="42.3602340" lon="1.7540130">
        <ele>1032.9</ele>
        <time>2015-08-13T09:58:37Z</time>
      </trkpt>
      <trkpt lat="42.3603090" lon="1.7540040">
        <ele>1032.4</ele>
        <time>2015-08-13T09:58:38Z</time>
      </trkpt>
      <trkpt lat="42.3603850" lon="1.7540010">
        <ele>1031.8</ele>
        <time>2015-08-13T09:58:39Z</time>
      </trkpt>
      <trkpt lat="42.3604590" lon="1.7540010">
        <ele>1031.5</ele>
        <time>2015-08-13T09:58:40Z</time>
      </trkpt>
      <trkpt lat="42.3605300" lon="1.7539950">
        <ele>1031.2</ele>
        <time>2015-08-13T09:58:41Z</time>
      </trkpt>
      <trkpt lat="42.3606050" lon="1.7539980">
        <ele>1030.9</ele>
        <time>2015-08-13T09:58:42Z</time>
      </trkpt>
      <trkpt lat="42.3606760" lon="1.7539940">
        <ele>1030.7</ele>
        <time>2015-08-13T09:58:43Z</time>
      </trkpt>
      <trkpt lat="42.3607570" lon="1.7539700">
        <ele>1030.4</ele>
        <time>2015-08-13T09:58:44Z</time>
      </trkpt>
      <trkpt lat="42.3608000" lon="1.7539140">
        <ele>1030.2</ele>
        <time>2015-08-13T09:58:45Z</time>
      </trkpt>
      <trkpt lat="42.3607820" lon="1.7538380">
        <ele>1030.2</ele>
        <time>2015-08-13T09:58:46Z</time>
      </trkpt>
      <trkpt lat="42.3607730" lon="1.7537460">
        <ele>1030.1</ele>
        <time>2015-08-13T09:58:47Z</time>
      </trkpt>
      <trkpt lat="42.3607860" lon="1.7536670">
        <ele>1029.9</ele>
        <time>2015-08-13T09:58:48Z</time>
      </trkpt>
      <trkpt lat="42.3607800" lon="1.7535640">
        <ele>1029.6</ele>
        <time>2015-08-13T09:58:49Z</time>
      </trkpt>
      <trkpt lat="42.3607640" lon="1.7534940">
        <ele>1029.4</ele>
        <time>2015-08-13T09:58:50Z</time>
      </trkpt>
      <trkpt lat="42.3607620" lon="1.7534160">
        <ele>1029.2</ele>
        <time>2015-08-13T09:58:51Z</time>
      </trkpt>
      <trkpt lat="42.3607540" lon="1.7533520">
        <ele>1029.0</ele>
        <time>2015-08-13T09:58:52Z</time>
      </trkpt>
      <trkpt lat="42.3607470" lon="1.7532840">
        <ele>1028.9</ele>
        <time>2015-08-13T09:58:53Z</time>
      </trkpt>
      <trkpt lat="42.3607410" lon="1.7532200">
        <ele>1028.7</ele>
        <time>2015-08-13T09:58:54Z</time>
      </trkpt>
      <trkpt lat="42.3607190" lon="1.7531380">
        <ele>1028.5</ele>
        <time>2015-08-13T09:58:55Z</time>
      </trkpt>
      <trkpt lat="42.3607130" lon="1.7530690">
        <ele>1028.4</ele>
        <time>2015-08-13T09:58:56Z</time>
      </trkpt>
      <trkpt lat="42.3607030" lon="1.7529920">
        <ele>1028.2</ele>
        <time>2015-08-13T09:58:57Z</time>
      </trkpt>
      <trkpt lat="42.3606840" lon="1.7529270">
        <ele>1028.1</ele>
        <time>2015-08-13T09:58:58Z</time>
      </trkpt>
      <trkpt lat="42.3606660" lon="1.7528590">
        <ele>1028.3</ele>
        <time>2015-08-13T09:58:59Z</time>
      </trkpt>
      <trkpt lat="42.3606550" lon="1.7527950">
        <ele>1028.5</ele>
        <time>2015-08-13T09:59:00Z</time>
      </trkpt>
      <trkpt lat="42.3606310" lon="1.7527330">
        <ele>1028.8</ele>
        <time>2015-08-13T09:59:01Z</time>
      </trkpt>
      <trkpt lat="42.3606000" lon="1.7526650">
        <ele>1029.1</ele>
        <time>2015-08-13T09:59:02Z</time>
      </trkpt>
      <trkpt lat="42.3605950" lon="1.7525960">
        <ele>1029.3</ele>
        <time>2015-08-13T09:59:03Z</time>
      </trkpt>
      <trkpt lat="42.3605860" lon="1.7525250">
        <ele>1029.6</ele>
        <time>2015-08-13T09:59:04Z</time>
      </trkpt>
      <trkpt lat="42.3605780" lon="1.7524500">
        <ele>1029.9</ele>
        <time>2015-08-13T09:59:05Z</time>
      </trkpt>
      <trkpt lat="42.3605730" lon="1.7523910">
        <ele>1030.1</ele>
        <time>2015-08-13T09:59:06Z</time>
      </trkpt>
      <trkpt lat="42.3605610" lon="1.7523210">
        <ele>1030.4</ele>
        <time>2015-08-13T09:59:07Z</time>
      </trkpt>
      <trkpt lat="42.3605600" lon="1.7522480">
        <ele>1030.6</ele>
        <time>2015-08-13T09:59:08Z</time>
      </trkpt>
      <trkpt lat="42.3605580" lon="1.7521800">
        <ele>1030.8</ele>
        <time>2015-08-13T09:59:09Z</time>
      </trkpt>
      <trkpt lat="42.3605470" lon="1.7521160">
        <ele>1031.1</ele>
        <time>2015-08-13T09:59:10Z</time>
      </trkpt>
      <trkpt lat="42.3605410" lon="1.7520460">
        <ele>1031.2</ele>
        <time>2015-08-13T09:59:11Z</time>
      </trkpt>
      <trkpt lat="42.3605310" lon="1.7519790">
        <ele>1031.3</ele>
        <time>2015-08-13T09:59:12Z</time>
      </trkpt>
      <trkpt lat="42.3605160" lon="1.7519080">
        <ele>1031.4</ele>
        <time>2015-08-13T09:59:13Z</time>
      </trkpt>
      <trkpt lat="42.3605110" lon="1.7518310">
        <ele>1031.4</ele>
        <time>2015-08-13T09:59:14Z</time>
      </trkpt>
      <trkpt lat="42.3605010" lon="1.7517690">
        <ele>1031.5</ele>
        <time>2015-08-13T09:59:15Z</time>
      </trkpt>
      <trkpt lat="42.3605010" lon="1.7517300">
        <ele>1031.5</ele>
        <time>2015-08-13T09:59:16Z</time>
      </trkpt>
      <trkpt lat="42.3604860" lon="1.7516590">
        <ele>1031.5</ele>
        <time>2015-08-13T09:59:17Z</time>
      </trkpt>
      <trkpt lat="42.3604660" lon="1.7516110">
        <ele>1031.7</ele>
        <time>2015-08-13T09:59:18Z</time>
      </trkpt>
      <trkpt lat="42.3604570" lon="1.7515640">
        <ele>1031.7</ele>
        <time>2015-08-13T09:59:19Z</time>
      </trkpt>
      <trkpt lat="42.3604480" lon="1.7515190">
        <ele>1031.8</ele>
        <time>2015-08-13T09:59:20Z</time>
      </trkpt>
      <trkpt lat="42.3604440" lon="1.7514790">
        <ele>1031.8</ele>
        <time>2015-08-13T09:59:21Z</time>
      </trkpt>
      <trkpt lat="42.3604390" lon="1.7514330">
        <ele>1031.8</ele>
        <time>2015-08-13T09:59:22Z</time>
      </trkpt>
      <trkpt lat="42.3604420" lon="1.7513850">
        <ele>1031.8</ele>
        <time>2015-08-13T09:59:23Z</time>
      </trkpt>
      <trkpt lat="42.3604460" lon="1.7513230">
        <ele>1031.8</ele>
        <time>2015-08-13T09:59:24Z</time>
      </trkpt>
      <trkpt lat="42.3604270" lon="1.7512700">
        <ele>1031.9</ele>
        <time>2015-08-13T09:59:25Z</time>
      </trkpt>
      <trkpt lat="42.3604190" lon="1.7512130">
        <ele>1031.9</ele>
        <time>2015-08-13T09:59:26Z</time>
      </trkpt>
      <trkpt lat="42.3604200" lon="1.7511540">
        <ele>1031.7</ele>
        <time>2015-08-13T09:59:27Z</time>
      </trkpt>
      <trkpt lat="42.3604180" lon="1.7511130">
        <ele>1031.7</ele>
        <time>2015-08-13T09:59:28Z</time>
      </trkpt>
      <trkpt lat="42.3603860" lon="1.7510620">
        <ele>1031.8</ele>
        <time>2015-08-13T09:59:29Z</time>
      </trkpt>
      <trkpt lat="42.3603740" lon="1.7510170">
        <ele>1031.7</ele>
        <time>2015-08-13T09:59:30Z</time>
      </trkpt>
      <trkpt lat="42.3603720" lon="1.7509750">
        <ele>1031.6</ele>
        <time>2015-08-13T09:59:31Z</time>
      </trkpt>
      <trkpt lat="42.3603620" lon="1.7509160">
        <ele>1031.6</ele>
        <time>2015-08-13T09:59:32Z</time>
      </trkpt>
      <trkpt lat="42.3603550" lon="1.7508350">
        <ele>1031.4</ele>
        <time>2015-08-13T09:59:34Z</time>
      </trkpt>
      <trkpt lat="42.3603510" lon="1.7507710">
        <ele>1031.3</ele>
        <time>2015-08-13T09:59:35Z</time>
      </trkpt>
      <trkpt lat="42.3603420" lon="1.7507260">
        <ele>1031.2</ele>
        <time>2015-08-13T09:59:36Z</time>
      </trkpt>
      <trkpt lat="42.3603240" lon="1.7506670">
        <ele>1031.2</ele>
        <time>2015-08-13T09:59:37Z</time>
      </trkpt>
      <trkpt lat="42.3602920" lon="1.7505890">
        <ele>1031.2</ele>
        <time>2015-08-13T09:59:39Z</time>
      </trkpt>
      <trkpt lat="42.3602770" lon="1.7505290">
        <ele>1031.1</ele>
        <time>2015-08-13T09:59:40Z</time>
      </trkpt>
      <trkpt lat="42.3602590" lon="1.7504740">
        <ele>1031.1</ele>
        <time>2015-08-13T09:59:41Z</time>
      </trkpt>
      <trkpt lat="42.3602580" lon="1.7504350">
        <ele>1031.0</ele>
        <time>2015-08-13T09:59:42Z</time>
      </trkpt>
      <trkpt lat="42.3602520" lon="1.7503730">
        <ele>1031.2</ele>
        <time>2015-08-13T09:59:43Z</time>
      </trkpt>
      <trkpt lat="42.3602440" lon="1.7503080">
        <ele>1031.5</ele>
        <time>2015-08-13T09:59:44Z</time>
      </trkpt>
      <trkpt lat="42.3602270" lon="1.7502530">
        <ele>1031.8</ele>
        <time>2015-08-13T09:59:45Z</time>
      </trkpt>
      <trkpt lat="42.3602500" lon="1.7501950">
        <ele>1031.9</ele>
        <time>2015-08-13T09:59:46Z</time>
      </trkpt>
      <trkpt lat="42.3602640" lon="1.7501470">
        <ele>1031.9</ele>
        <time>2015-08-13T09:59:47Z</time>
      </trkpt>
      <trkpt lat="42.3602610" lon="1.7500850">
        <ele>1032.2</ele>
        <time>2015-08-13T09:59:48Z</time>
      </trkpt>
      <trkpt lat="42.3602580" lon="1.7500480">
        <ele>1032.4</ele>
        <time>2015-08-13T09:59:49Z</time>
      </trkpt>
      <trkpt lat="42.3602610" lon="1.7499960">
        <ele>1032.5</ele>
        <time>2015-08-13T09:59:50Z</time>
      </trkpt>
      <trkpt lat="42.3602550" lon="1.7499380">
        <ele>1032.8</ele>
        <time>2015-08-13T09:59:51Z</time>
      </trkpt>
      <trkpt lat="42.3602540" lon="1.7498910">
        <ele>1033.0</ele>
        <time>2015-08-13T09:59:52Z</time>
      </trkpt>
      <trkpt lat="42.3602450" lon="1.7498270">
        <ele>1033.3</ele>
        <time>2015-08-13T09:59:53Z</time>
      </trkpt>
      <trkpt lat="42.3602440" lon="1.7497580">
        <ele>1033.6</ele>
        <time>2015-08-13T09:59:54Z</time>
      </trkpt>
      <trkpt lat="42.3602290" lon="1.7496860">
        <ele>1034.0</ele>
        <time>2015-08-13T09:59:55Z</time>
      </trkpt>
      <trkpt lat="42.3602340" lon="1.7496390">
        <ele>1034.1</ele>
        <time>2015-08-13T09:59:56Z</time>
      </trkpt>
      <trkpt lat="42.3602370" lon="1.7495860">
        <ele>1034.3</ele>
        <time>2015-08-13T09:59:57Z</time>
      </trkpt>
      <trkpt lat="42.3602300" lon="1.7495190">
        <ele>1034.5</ele>
        <time>2015-08-13T09:59:58Z</time>
      </trkpt>
      <trkpt lat="42.3602240" lon="1.7494520">
        <ele>1034.6</ele>
        <time>2015-08-13T09:59:59Z</time>
      </trkpt>
      <trkpt lat="42.3602200" lon="1.7494040">
        <ele>1034.7</ele>
        <time>2015-08-13T10:00:00Z</time>
      </trkpt>
      <trkpt lat="42.3602200" lon="1.7493490">
        <ele>1034.8</ele>
        <time>2015-08-13T10:00:01Z</time>
      </trkpt>
      <trkpt lat="42.3602130" lon="1.7493050">
        <ele>1035.0</ele>
        <time>2015-08-13T10:00:02Z</time>
      </trkpt>
      <trkpt lat="42.3602060" lon="1.7492460">
        <ele>1035.1</ele>
        <time>2015-08-13T10:00:03Z</time>
      </trkpt>
      <trkpt lat="42.3602190" lon="1.7491830">
        <ele>1035.1</ele>
        <time>2015-08-13T10:00:04Z</time>
      </trkpt>
      <trkpt lat="42.3602160" lon="1.7491330">
        <ele>1035.2</ele>
        <time>2015-08-13T10:00:05Z</time>
      </trkpt>
      <trkpt lat="42.3602180" lon="1.7490810">
        <ele>1035.3</ele>
        <time>2015-08-13T10:00:06Z</time>
      </trkpt>
      <trkpt lat="42.3602220" lon="1.7490240">
        <ele>1035.4</ele>
        <time>2015-08-13T10:00:07Z</time>
      </trkpt>
      <trkpt lat="42.3602180" lon="1.7489680">
        <ele>1035.5</ele>
        <time>2015-08-13T10:00:08Z</time>
      </trkpt>
      <trkpt lat="42.3602240" lon="1.7489070">
        <ele>1035.6</ele>
        <time>2015-08-13T10:00:09Z</time>
      </trkpt>
      <trkpt lat="42.3602170" lon="1.7488460">
        <ele>1035.7</ele>
        <time>2015-08-13T10:00:10Z</time>
      </trkpt>
      <trkpt lat="42.3602220" lon="1.7487930">
        <ele>1035.8</ele>
        <time>2015-08-13T10:00:11Z</time>
      </trkpt>
      <trkpt lat="42.3602250" lon="1.7487290">
        <ele>1035.8</ele>
        <time>2015-08-13T10:00:12Z</time>
      </trkpt>
      <trkpt lat="42.3602200" lon="1.7486800">
        <ele>1035.9</ele>
        <time>2015-08-13T10:00:13Z</time>
      </trkpt>
      <trkpt lat="42.3602150" lon="1.7486290">
        <ele>1036.0</ele>
        <time>2015-08-13T10:00:14Z</time>
      </trkpt>
      <trkpt lat="42.3602260" lon="1.7485750">
        <ele>1035.9</ele>
        <time>2015-08-13T10:00:15Z</time>
      </trkpt>
      <trkpt lat="42.3602190" lon="1.7485150">
        <ele>1036.0</ele>
        <time>2015-08-13T10:00:16Z</time>
      </trkpt>
      <trkpt lat="42.3602100" lon="1.7484580">
        <ele>1036.1</ele>
        <time>2015-08-13T10:00:17Z</time>
      </trkpt>
      <trkpt lat="42.3602080" lon="1.7484130">
        <ele>1036.1</ele>
        <time>2015-08-13T10:00:18Z</time>
      </trkpt>
      <trkpt lat="42.3602050" lon="1.7483680">
        <ele>1036.1</ele>
        <time>2015-08-13T10:00:19Z</time>
      </trkpt>
      <trkpt lat="42.3602140" lon="1.7483180">
        <ele>1036.1</ele>
        <time>2015-08-13T10:00:20Z</time>
      </trkpt>
      <trkpt lat="42.3602130" lon="1.7482730">
        <ele>1036.1</ele>
        <time>2015-08-13T10:00:21Z</time>
      </trkpt>
      <trkpt lat="42.3602180" lon="1.7482350">
        <ele>1036.1</ele>
        <time>2015-08-13T10:00:22Z</time>
      </trkpt>
      <trkpt lat="42.3602180" lon="1.7481950">
        <ele>1036.1</ele>
        <time>2015-08-13T10:00:23Z</time>
      </trkpt>
      <trkpt lat="42.3602150" lon="1.7481570">
        <ele>1036.1</ele>
        <time>2015-08-13T10:00:24Z</time>
      </trkpt>
      <trkpt lat="42.3602110" lon="1.7481070">
        <ele>1036.2</ele>
        <time>2015-08-13T10:00:25Z</time>
      </trkpt>
      <trkpt lat="42.3602190" lon="1.7480710">
        <ele>1036.1</ele>
        <time>2015-08-13T10:00:26Z</time>
      </trkpt>
      <trkpt lat="42.3602080" lon="1.7480130">
        <ele>1036.2</ele>
        <time>2015-08-13T10:00:27Z</time>
      </trkpt>
      <trkpt lat="42.3602020" lon="1.7479750">
        <ele>1036.3</ele>
        <time>2015-08-13T10:00:28Z</time>
      </trkpt>
      <trkpt lat="42.3602040" lon="1.7479010">
        <ele>1036.3</ele>
        <time>2015-08-13T10:00:30Z</time>
      </trkpt>
      <trkpt lat="42.3602140" lon="1.7478590">
        <ele>1036.2</ele>
        <time>2015-08-13T10:00:31Z</time>
      </trkpt>
      <trkpt lat="42.3602170" lon="1.7478220">
        <ele>1036.1</ele>
        <time>2015-08-13T10:00:32Z</time>
      </trkpt>
      <trkpt lat="42.3602180" lon="1.7477780">
        <ele>1036.1</ele>
        <time>2015-08-13T10:00:33Z</time>
      </trkpt>
      <trkpt lat="42.3602020" lon="1.7477430">
        <ele>1036.3</ele>
        <time>2015-08-13T10:00:34Z</time>
      </trkpt>
      <trkpt lat="42.3602010" lon="1.7477000">
        <ele>1036.3</ele>
        <time>2015-08-13T10:00:35Z</time>
      </trkpt>
      <trkpt lat="42.3602010" lon="1.7476560">
        <ele>1036.2</ele>
        <time>2015-08-13T10:00:36Z</time>
      </trkpt>
      <trkpt lat="42.3601930" lon="1.7476150">
        <ele>1036.3</ele>
        <time>2015-08-13T10:00:37Z</time>
      </trkpt>
      <trkpt lat="42.3601910" lon="1.7475760">
        <ele>1036.3</ele>
        <time>2015-08-13T10:00:38Z</time>
      </trkpt>
      <trkpt lat="42.3601820" lon="1.7475290">
        <ele>1036.3</ele>
        <time>2015-08-13T10:00:39Z</time>
      </trkpt>
      <trkpt lat="42.3601510" lon="1.7474720">
        <ele>1036.6</ele>
        <time>2015-08-13T10:00:40Z</time>
      </trkpt>
      <trkpt lat="42.3601350" lon="1.7474240">
        <ele>1036.6</ele>
        <time>2015-08-13T10:00:41Z</time>
      </trkpt>
      <trkpt lat="42.3601180" lon="1.7473760">
        <ele>1036.7</ele>
        <time>2015-08-13T10:00:42Z</time>
      </trkpt>
      <trkpt lat="42.3601040" lon="1.7473280">
        <ele>1036.8</ele>
        <time>2015-08-13T10:00:43Z</time>
      </trkpt>
      <trkpt lat="42.3601030" lon="1.7472910">
        <ele>1036.7</ele>
        <time>2015-08-13T10:00:44Z</time>
      </trkpt>
      <trkpt lat="42.3600960" lon="1.7472390">
        <ele>1036.7</ele>
        <time>2015-08-13T10:00:45Z</time>
      </trkpt>
      <trkpt lat="42.3600860" lon="1.7472050">
        <ele>1036.7</ele>
        <time>2015-08-13T10:00:46Z</time>
      </trkpt>
      <trkpt lat="42.3600810" lon="1.7471660">
        <ele>1036.7</ele>
        <time>2015-08-13T10:00:47Z</time>
      </trkpt>
      <trkpt lat="42.3600630" lon="1.7470990">
        <ele>1036.7</ele>
        <time>2015-08-13T10:00:49Z</time>
      </trkpt>
      <trkpt lat="42.3600590" lon="1.7470390">
        <ele>1036.7</ele>
        <time>2015-08-13T10:00:51Z</time>
      </trkpt>
      <trkpt lat="42.3600430" lon="1.7469830">
        <ele>1036.8</ele>
        <time>2015-08-13T10:00:53Z</time>
      </trkpt>
      <trkpt lat="42.3600350" lon="1.7469470">
        <ele>1036.8</ele>
        <time>2015-08-13T10:00:54Z</time>
      </trkpt>
      <trkpt lat="42.3600250" lon="1.7468710">
        <ele>1036.8</ele>
        <time>2015-08-13T10:00:56Z</time>
      </trkpt>
      <trkpt lat="42.3599900" lon="1.7468180">
        <ele>1036.9</ele>
        <time>2015-08-13T10:00:58Z</time>
      </trkpt>
      <trkpt lat="42.3599740" lon="1.7467880">
        <ele>1036.9</ele>
        <time>2015-08-13T10:00:59Z</time>
      </trkpt>
      <trkpt lat="42.3599590" lon="1.7467450">
        <ele>1036.9</ele>
        <time>2015-08-13T10:01:00Z</time>
      </trkpt>
      <trkpt lat="42.3599430" lon="1.7467030">
        <ele>1037.0</ele>
        <time>2015-08-13T10:01:01Z</time>
      </trkpt>
      <trkpt lat="42.3599300" lon="1.7466590">
        <ele>1037.0</ele>
        <time>2015-08-13T10:01:02Z</time>
      </trkpt>
      <trkpt lat="42.3599100" lon="1.7466190">
        <ele>1037.0</ele>
        <time>2015-08-13T10:01:03Z</time>
      </trkpt>
      <trkpt lat="42.3598960" lon="1.7465760">
        <ele>1037.0</ele>
        <time>2015-08-13T10:01:04Z</time>
      </trkpt>
      <trkpt lat="42.3598810" lon="1.7465340">
        <ele>1037.0</ele>
        <time>2015-08-13T10:01:05Z</time>
      </trkpt>
      <trkpt lat="42.3598540" lon="1.7464880">
        <ele>1037.0</ele>
        <time>2015-08-13T10:01:06Z</time>
      </trkpt>
      <trkpt lat="42.3598340" lon="1.7464490">
        <ele>1037.0</ele>
        <time>2015-08-13T10:01:07Z</time>
      </trkpt>
      <trkpt lat="42.3598160" lon="1.7464130">
        <ele>1036.9</ele>
        <time>2015-08-13T10:01:08Z</time>
      </trkpt>
      <trkpt lat="42.3597960" lon="1.7463720">
        <ele>1036.9</ele>
        <time>2015-08-13T10:01:09Z</time>
      </trkpt>
      <trkpt lat="42.3597770" lon="1.7463270">
        <ele>1036.9</ele>
        <time>2015-08-13T10:01:10Z</time>
      </trkpt>
      <trkpt lat="42.3597610" lon="1.7462790">
        <ele>1036.8</ele>
        <time>2015-08-13T10:01:11Z</time>
      </trkpt>
      <trkpt lat="42.3597380" lon="1.7462280">
        <ele>1036.8</ele>
        <time>2015-08-13T10:01:12Z</time>
      </trkpt>
      <trkpt lat="42.3597280" lon="1.7461870">
        <ele>1036.8</ele>
        <time>2015-08-13T10:01:13Z</time>
      </trkpt>
      <trkpt lat="42.3597100" lon="1.7461460">
        <ele>1036.8</ele>
        <time>2015-08-13T10:01:14Z</time>
      </trkpt>
      <trkpt lat="42.3596970" lon="1.7460990">
        <ele>1036.9</ele>
        <time>2015-08-13T10:01:15Z</time>
      </trkpt>
      <trkpt lat="42.3596850" lon="1.7460490">
        <ele>1036.9</ele>
        <time>2015-08-13T10:01:16Z</time>
      </trkpt>
      <trkpt lat="42.3596700" lon="1.7459980">
        <ele>1037.0</ele>
        <time>2015-08-13T10:01:17Z</time>
      </trkpt>
      <trkpt lat="42.3596560" lon="1.7459480">
        <ele>1037.1</ele>
        <time>2015-08-13T10:01:18Z</time>
      </trkpt>
      <trkpt lat="42.3596450" lon="1.7459040">
        <ele>1037.1</ele>
        <time>2015-08-13T10:01:19Z</time>
      </trkpt>
      <trkpt lat="42.3596350" lon="1.7458570">
        <ele>1037.2</ele>
        <time>2015-08-13T10:01:20Z</time>
      </trkpt>
      <trkpt lat="42.3596220" lon="1.7458120">
        <ele>1037.3</ele>
        <time>2015-08-13T10:01:21Z</time>
      </trkpt>
      <trkpt lat="42.3596160" lon="1.7457650">
        <ele>1037.4</ele>
        <time>2015-08-13T10:01:22Z</time>
      </trkpt>
      <trkpt lat="42.3595940" lon="1.7457390">
        <ele>1037.5</ele>
        <time>2015-08-13T10:01:23Z</time>
      </trkpt>
      <trkpt lat="42.3595890" lon="1.7456980">
        <ele>1037.6</ele>
        <time>2015-08-13T10:01:24Z</time>
      </trkpt>
      <trkpt lat="42.3595770" lon="1.7456540">
        <ele>1037.8</ele>
        <time>2015-08-13T10:01:25Z</time>
      </trkpt>
      <trkpt lat="42.3595620" lon="1.7456170">
        <ele>1037.9</ele>
        <time>2015-08-13T10:01:26Z</time>
      </trkpt>
      <trkpt lat="42.3595470" lon="1.7455620">
        <ele>1038.1</ele>
        <time>2015-08-13T10:01:27Z</time>
      </trkpt>
      <trkpt lat="42.3595370" lon="1.7455020">
        <ele>1038.2</ele>
        <time>2015-08-13T10:01:28Z</time>
      </trkpt>
      <trkpt lat="42.3595190" lon="1.7454580">
        <ele>1038.4</ele>
        <time>2015-08-13T10:01:29Z</time>
      </trkpt>
      <trkpt lat="42.3595120" lon="1.7454060">
        <ele>1038.5</ele>
        <time>2015-08-13T10:01:30Z</time>
      </trkpt>
      <trkpt lat="42.3594950" lon="1.7453570">
        <ele>1038.7</ele>
        <time>2015-08-13T10:01:31Z</time>
      </trkpt>
      <trkpt lat="42.3594850" lon="1.7453130">
        <ele>1038.8</ele>
        <time>2015-08-13T10:01:32Z</time>
      </trkpt>
      <trkpt lat="42.3594770" lon="1.7452620">
        <ele>1038.9</ele>
        <time>2015-08-13T10:01:33Z</time>
      </trkpt>
      <trkpt lat="42.3594680" lon="1.7452190">
        <ele>1039.0</ele>
        <time>2015-08-13T10:01:34Z</time>
      </trkpt>
      <trkpt lat="42.3594540" lon="1.7451770">
        <ele>1039.1</ele>
        <time>2015-08-13T10:01:35Z</time>
      </trkpt>
      <trkpt lat="42.3594430" lon="1.7451260">
        <ele>1039.2</ele>
        <time>2015-08-13T10:01:36Z</time>
      </trkpt>
      <trkpt lat="42.3594380" lon="1.7450730">
        <ele>1039.2</ele>
        <time>2015-08-13T10:01:37Z</time>
      </trkpt>
      <trkpt lat="42.3594310" lon="1.7450330">
        <ele>1039.3</ele>
        <time>2015-08-13T10:01:38Z</time>
      </trkpt>
      <trkpt lat="42.3594280" lon="1.7449850">
        <ele>1039.3</ele>
        <time>2015-08-13T10:01:39Z</time>
      </trkpt>
      <trkpt lat="42.3594220" lon="1.7449350">
        <ele>1039.4</ele>
        <time>2015-08-13T10:01:40Z</time>
      </trkpt>
      <trkpt lat="42.3594140" lon="1.7448880">
        <ele>1039.5</ele>
        <time>2015-08-13T10:01:41Z</time>
      </trkpt>
      <trkpt lat="42.3594080" lon="1.7448470">
        <ele>1039.5</ele>
        <time>2015-08-13T10:01:42Z</time>
      </trkpt>
      <trkpt lat="42.3593990" lon="1.7447970">
        <ele>1039.6</ele>
        <time>2015-08-13T10:01:43Z</time>
      </trkpt>
      <trkpt lat="42.3593960" lon="1.7447340">
        <ele>1039.6</ele>
        <time>2015-08-13T10:01:44Z</time>
      </trkpt>
      <trkpt lat="42.3593810" lon="1.7446750">
        <ele>1039.7</ele>
        <time>2015-08-13T10:01:45Z</time>
      </trkpt>
      <trkpt lat="42.3593770" lon="1.7446380">
        <ele>1039.7</ele>
        <time>2015-08-13T10:01:46Z</time>
      </trkpt>
      <trkpt lat="42.3593750" lon="1.7445970">
        <ele>1039.7</ele>
        <time>2015-08-13T10:01:47Z</time>
      </trkpt>
      <trkpt lat="42.3593710" lon="1.7445530">
        <ele>1039.9</ele>
        <time>2015-08-13T10:01:48Z</time>
      </trkpt>
      <trkpt lat="42.3593720" lon="1.7444960">
        <ele>1040.1</ele>
        <time>2015-08-13T10:01:49Z</time>
      </trkpt>
      <trkpt lat="42.3593580" lon="1.7444560">
        <ele>1040.3</ele>
        <time>2015-08-13T10:01:50Z</time>
      </trkpt>
      <trkpt lat="42.3593470" lon="1.7444170">
        <ele>1040.5</ele>
        <time>2015-08-13T10:01:51Z</time>
      </trkpt>
      <trkpt lat="42.3593440" lon="1.7443710">
        <ele>1040.7</ele>
        <time>2015-08-13T10:01:52Z</time>
      </trkpt>
      <trkpt lat="42.3593430" lon="1.7443240">
        <ele>1040.9</ele>
        <time>2015-08-13T10:01:53Z</time>
      </trkpt>
      <trkpt lat="42.3593380" lon="1.7442730">
        <ele>1041.1</ele>
        <time>2015-08-13T10:01:54Z</time>
      </trkpt>
      <trkpt lat="42.3593290" lon="1.7442200">
        <ele>1041.4</ele>
        <time>2015-08-13T10:01:55Z</time>
      </trkpt>
      <trkpt lat="42.3593220" lon="1.7441750">
        <ele>1041.6</ele>
        <time>2015-08-13T10:01:56Z</time>
      </trkpt>
      <trkpt lat="42.3593180" lon="1.7441240">
        <ele>1041.8</ele>
        <time>2015-08-13T10:01:57Z</time>
      </trkpt>
      <trkpt lat="42.3593100" lon="1.7440850">
        <ele>1042.0</ele>
        <time>2015-08-13T10:01:58Z</time>
      </trkpt>
      <trkpt lat="42.3593030" lon="1.7440460">
        <ele>1042.2</ele>
        <time>2015-08-13T10:01:59Z</time>
      </trkpt>
      <trkpt lat="42.3593160" lon="1.7440060">
        <ele>1042.3</ele>
        <time>2015-08-13T10:02:00Z</time>
      </trkpt>
      <trkpt lat="42.3593110" lon="1.7439570">
        <ele>1042.5</ele>
        <time>2015-08-13T10:02:01Z</time>
      </trkpt>
      <trkpt lat="42.3593000" lon="1.7438910">
        <ele>1042.8</ele>
        <time>2015-08-13T10:02:03Z</time>
      </trkpt>
      <trkpt lat="42.3593010" lon="1.7438540">
        <ele>1042.9</ele>
        <time>2015-08-13T10:02:04Z</time>
      </trkpt>
      <trkpt lat="42.3592980" lon="1.7437870">
        <ele>1043.2</ele>
        <time>2015-08-13T10:02:06Z</time>
      </trkpt>
      <trkpt lat="42.3592960" lon="1.7437380">
        <ele>1043.4</ele>
        <time>2015-08-13T10:02:07Z</time>
      </trkpt>
      <trkpt lat="42.3593110" lon="1.7436710">
        <ele>1043.7</ele>
        <time>2015-08-13T10:02:09Z</time>
      </trkpt>
      <trkpt lat="42.3593240" lon="1.7436230">
        <ele>1043.9</ele>
        <time>2015-08-13T10:02:10Z</time>
      </trkpt>
      <trkpt lat="42.3593370" lon="1.7435580">
        <ele>1044.1</ele>
        <time>2015-08-13T10:02:12Z</time>
      </trkpt>
      <trkpt lat="42.3593260" lon="1.7434950">
        <ele>1044.5</ele>
        <time>2015-08-13T10:02:14Z</time>
      </trkpt>
      <trkpt lat="42.3593090" lon="1.7434380">
        <ele>1044.8</ele>
        <time>2015-08-13T10:02:16Z</time>
      </trkpt>
      <trkpt lat="42.3593080" lon="1.7433610">
        <ele>1045.2</ele>
        <time>2015-08-13T10:02:18Z</time>
      </trkpt>
      <trkpt lat="42.3592970" lon="1.7433020">
        <ele>1045.5</ele>
        <time>2015-08-13T10:02:20Z</time>
      </trkpt>
      <trkpt lat="42.3592950" lon="1.7432630">
        <ele>1045.7</ele>
        <time>2015-08-13T10:02:22Z</time>
      </trkpt>
      <trkpt lat="42.3592990" lon="1.7432250">
        <ele>1045.9</ele>
        <time>2015-08-13T10:02:24Z</time>
      </trkpt>
      <trkpt lat="42.3593050" lon="1.7431770">
        <ele>1046.1</ele>
        <time>2015-08-13T10:02:26Z</time>
      </trkpt>
      <trkpt lat="42.3593110" lon="1.7431310">
        <ele>1046.3</ele>
        <time>2015-08-13T10:02:28Z</time>
      </trkpt>
      <trkpt lat="42.3593140" lon="1.7430810">
        <ele>1046.5</ele>
        <time>2015-08-13T10:02:30Z</time>
      </trkpt>
      <trkpt lat="42.3593130" lon="1.7430340">
        <ele>1046.7</ele>
        <time>2015-08-13T10:02:31Z</time>
      </trkpt>
      <trkpt lat="42.3593150" lon="1.7429710">
        <ele>1047.0</ele>
        <time>2015-08-13T10:02:33Z</time>
      </trkpt>
      <trkpt lat="42.3593100" lon="1.7429200">
        <ele>1047.3</ele>
        <time>2015-08-13T10:02:35Z</time>
      </trkpt>
      <trkpt lat="42.3593190" lon="1.7428850">
        <ele>1047.4</ele>
        <time>2015-08-13T10:02:36Z</time>
      </trkpt>
      <trkpt lat="42.3593200" lon="1.7428240">
        <ele>1047.8</ele>
        <time>2015-08-13T10:02:38Z</time>
      </trkpt>
      <trkpt lat="42.3593280" lon="1.7427880">
        <ele>1048.0</ele>
        <time>2015-08-13T10:02:39Z</time>
      </trkpt>
      <trkpt lat="42.3593280" lon="1.7427350">
        <ele>1048.2</ele>
        <time>2015-08-13T10:02:41Z</time>
      </trkpt>
      <trkpt lat="42.3593120" lon="1.7426820">
        <ele>1048.6</ele>
        <time>2015-08-13T10:02:43Z</time>
      </trkpt>
      <trkpt lat="42.3593180" lon="1.7426210">
        <ele>1048.9</ele>
        <time>2015-08-13T10:02:45Z</time>
      </trkpt>
      <trkpt lat="42.3593160" lon="1.7425690">
        <ele>1049.2</ele>
        <time>2015-08-13T10:02:47Z</time>
      </trkpt>
      <trkpt lat="42.3593240" lon="1.7425130">
        <ele>1049.5</ele>
        <time>2015-08-13T10:02:49Z</time>
      </trkpt>
      <trkpt lat="42.3593240" lon="1.7424750">
        <ele>1049.7</ele>
        <time>2015-08-13T10:02:50Z</time>
      </trkpt>
      <trkpt lat="42.3593210" lon="1.7424130">
        <ele>1050.1</ele>
        <time>2015-08-13T10:02:52Z</time>
      </trkpt>
      <trkpt lat="42.3593190" lon="1.7423490">
        <ele>1050.5</ele>
        <time>2015-08-13T10:02:54Z</time>
      </trkpt>
      <trkpt lat="42.3593060" lon="1.7423080">
        <ele>1050.7</ele>
        <time>2015-08-13T10:02:56Z</time>
      </trkpt>
      <trkpt lat="42.3593050" lon="1.7422600">
        <ele>1051.0</ele>
        <time>2015-08-13T10:02:58Z</time>
      </trkpt>
      <trkpt lat="42.3593040" lon="1.7422110">
        <ele>1051.3</ele>
        <time>2015-08-13T10:03:00Z</time>
      </trkpt>
      <trkpt lat="42.3592940" lon="1.7421520">
        <ele>1051.7</ele>
        <time>2015-08-13T10:03:02Z</time>
      </trkpt>
      <trkpt lat="42.3592940" lon="1.7421020">
        <ele>1051.9</ele>
        <time>2015-08-13T10:03:03Z</time>
      </trkpt>
      <trkpt lat="42.3593170" lon="1.7420680">
        <ele>1052.0</ele>
        <time>2015-08-13T10:03:05Z</time>
      </trkpt>
      <trkpt lat="42.3593230" lon="1.7420290">
        <ele>1052.2</ele>
        <time>2015-08-13T10:03:07Z</time>
      </trkpt>
      <trkpt lat="42.3593000" lon="1.7419930">
        <ele>1052.5</ele>
        <time>2015-08-13T10:03:10Z</time>
      </trkpt>
      <trkpt lat="42.3592960" lon="1.7419390">
        <ele>1052.7</ele>
        <time>2015-08-13T10:03:12Z</time>
      </trkpt>
      <trkpt lat="42.3592680" lon="1.7418920">
        <ele>1053.1</ele>
        <time>2015-08-13T10:03:14Z</time>
      </trkpt>
      <trkpt lat="42.3592680" lon="1.7418380">
        <ele>1053.3</ele>
        <time>2015-08-13T10:03:16Z</time>
      </trkpt>
      <trkpt lat="42.3592870" lon="1.7418010">
        <ele>1053.4</ele>
        <time>2015-08-13T10:03:19Z</time>
      </trkpt>
      <trkpt lat="42.3592890" lon="1.7417520">
        <ele>1053.6</ele>
        <time>2015-08-13T10:03:21Z</time>
      </trkpt>
      <trkpt lat="42.3592850" lon="1.7417100">
        <ele>1053.9</ele>
        <time>2015-08-13T10:03:23Z</time>
      </trkpt>
      <trkpt lat="42.3592810" lon="1.7416650">
        <ele>1054.1</ele>
        <time>2015-08-13T10:03:26Z</time>
      </trkpt>
      <trkpt lat="42.3592760" lon="1.7416200">
        <ele>1054.3</ele>
        <time>2015-08-13T10:03:28Z</time>
      </trkpt>
      <trkpt lat="42.3592800" lon="1.7415760">
        <ele>1054.5</ele>
        <time>2015-08-13T10:03:30Z</time>
      </trkpt>
      <trkpt lat="42.3592960" lon="1.7415260">
        <ele>1054.7</ele>
        <time>2015-08-13T10:03:32Z</time>
      </trkpt>
      <trkpt lat="42.3592940" lon="1.7414830">
        <ele>1054.9</ele>
        <time>2015-08-13T10:03:34Z</time>
      </trkpt>
      <trkpt lat="42.3592850" lon="1.7414310">
        <ele>1055.2</ele>
        <time>2015-08-13T10:03:36Z</time>
      </trkpt>
      <trkpt lat="42.3592590" lon="1.7413700">
        <ele>1055.6</ele>
        <time>2015-08-13T10:03:38Z</time>
      </trkpt>
      <trkpt lat="42.3592480" lon="1.7413260">
        <ele>1055.8</ele>
        <time>2015-08-13T10:03:40Z</time>
      </trkpt>
      <trkpt lat="42.3592360" lon="1.7412890">
        <ele>1056.1</ele>
        <time>2015-08-13T10:03:42Z</time>
      </trkpt>
      <trkpt lat="42.3592230" lon="1.7412570">
        <ele>1056.3</ele>
        <time>2015-08-13T10:03:45Z</time>
      </trkpt>
      <trkpt lat="42.3592350" lon="1.7412020">
        <ele>1056.4</ele>
        <time>2015-08-13T10:03:47Z</time>
      </trkpt>
      <trkpt lat="42.3592310" lon="1.7411490">
        <ele>1056.6</ele>
        <time>2015-08-13T10:03:50Z</time>
      </trkpt>
      <trkpt lat="42.3592500" lon="1.7411170">
        <ele>1056.7</ele>
        <time>2015-08-13T10:03:52Z</time>
      </trkpt>
      <trkpt lat="42.3592280" lon="1.7410910">
        <ele>1056.9</ele>
        <time>2015-08-13T10:03:53Z</time>
      </trkpt>
      <trkpt lat="42.3592370" lon="1.7410260">
        <ele>1057.1</ele>
        <time>2015-08-13T10:03:56Z</time>
      </trkpt>
      <trkpt lat="42.3592280" lon="1.7409730">
        <ele>1057.3</ele>
        <time>2015-08-13T10:03:58Z</time>
      </trkpt>
      <trkpt lat="42.3592460" lon="1.7409410">
        <ele>1057.3</ele>
        <time>2015-08-13T10:03:59Z</time>
      </trkpt>
      <trkpt lat="42.3592370" lon="1.7409030">
        <ele>1057.5</ele>
        <time>2015-08-13T10:04:01Z</time>
      </trkpt>
      <trkpt lat="42.3592340" lon="1.7408550">
        <ele>1057.7</ele>
        <time>2015-08-13T10:04:03Z</time>
      </trkpt>
      <trkpt lat="42.3592210" lon="1.7408220">
        <ele>1057.8</ele>
        <time>2015-08-13T10:04:04Z</time>
      </trkpt>
      <trkpt lat="42.3592270" lon="1.7407640">
        <ele>1058.0</ele>
        <time>2015-08-13T10:04:07Z</time>
      </trkpt>
      <trkpt lat="42.3592220" lon="1.7407150">
        <ele>1058.2</ele>
        <time>2015-08-13T10:04:09Z</time>
      </trkpt>
      <trkpt lat="42.3592250" lon="1.7406730">
        <ele>1058.4</ele>
        <time>2015-08-13T10:04:11Z</time>
      </trkpt>
      <trkpt lat="42.3592400" lon="1.7406340">
        <ele>1058.5</ele>
        <time>2015-08-13T10:04:13Z</time>
      </trkpt>
      <trkpt lat="42.3592560" lon="1.7405920">
        <ele>1058.5</ele>
        <time>2015-08-13T10:04:15Z</time>
      </trkpt>
      <trkpt lat="42.3592450" lon="1.7405320">
        <ele>1058.8</ele>
        <time>2015-08-13T10:04:17Z</time>
      </trkpt>
      <trkpt lat="42.3592530" lon="1.7404700">
        <ele>1059.0</ele>
        <time>2015-08-13T10:04:19Z</time>
      </trkpt>
      <trkpt lat="42.3592460" lon="1.7404190">
        <ele>1059.2</ele>
        <time>2015-08-13T10:04:21Z</time>
      </trkpt>
      <trkpt lat="42.3592380" lon="1.7403700">
        <ele>1059.3</ele>
        <time>2015-08-13T10:04:23Z</time>
      </trkpt>
      <trkpt lat="42.3592180" lon="1.7403260">
        <ele>1059.5</ele>
        <time>2015-08-13T10:04:25Z</time>
      </trkpt>
      <trkpt lat="42.3592070" lon="1.7402860">
        <ele>1059.6</ele>
        <time>2015-08-13T10:04:27Z</time>
      </trkpt>
      <trkpt lat="42.3591970" lon="1.7402490">
        <ele>1059.7</ele>
        <time>2015-08-13T10:04:29Z</time>
      </trkpt>
      <trkpt lat="42.3592080" lon="1.7401950">
        <ele>1059.7</ele>
        <time>2015-08-13T10:04:31Z</time>
      </trkpt>
      <trkpt lat="42.3592100" lon="1.7401520">
        <ele>1059.8</ele>
        <time>2015-08-13T10:04:33Z</time>
      </trkpt>
      <trkpt lat="42.3592080" lon="1.7401030">
        <ele>1059.9</ele>
        <time>2015-08-13T10:04:35Z</time>
      </trkpt>
      <trkpt lat="42.3592060" lon="1.7400500">
        <ele>1060.0</ele>
        <time>2015-08-13T10:04:37Z</time>
      </trkpt>
      <trkpt lat="42.3592070" lon="1.7399980">
        <ele>1060.1</ele>
        <time>2015-08-13T10:04:39Z</time>
      </trkpt>
      <trkpt lat="42.3591990" lon="1.7399450">
        <ele>1060.3</ele>
        <time>2015-08-13T10:04:41Z</time>
      </trkpt>
      <trkpt lat="42.3591850" lon="1.7399030">
        <ele>1060.5</ele>
        <time>2015-08-13T10:04:43Z</time>
      </trkpt>
      <trkpt lat="42.3591720" lon="1.7398510">
        <ele>1060.8</ele>
        <time>2015-08-13T10:04:45Z</time>
      </trkpt>
      <trkpt lat="42.3591600" lon="1.7397900">
        <ele>1061.1</ele>
        <time>2015-08-13T10:04:47Z</time>
      </trkpt>
      <trkpt lat="42.3591420" lon="1.7397480">
        <ele>1061.5</ele>
        <time>2015-08-13T10:04:50Z</time>
      </trkpt>
      <trkpt lat="42.3591280" lon="1.7397040">
        <ele>1061.8</ele>
        <time>2015-08-13T10:04:51Z</time>
      </trkpt>
      <trkpt lat="42.3591040" lon="1.7396630">
        <ele>1062.4</ele>
        <time>2015-08-13T10:04:53Z</time>
      </trkpt>
      <trkpt lat="42.3590870" lon="1.7396280">
        <ele>1062.8</ele>
        <time>2015-08-13T10:04:55Z</time>
      </trkpt>
      <trkpt lat="42.3590440" lon="1.7395860">
        <ele>1063.7</ele>
        <time>2015-08-13T10:04:57Z</time>
      </trkpt>
      <trkpt lat="42.3590290" lon="1.7395460">
        <ele>1064.0</ele>
        <time>2015-08-13T10:04:59Z</time>
      </trkpt>
      <trkpt lat="42.3589920" lon="1.7395280">
        <ele>1064.7</ele>
        <time>2015-08-13T10:05:00Z</time>
      </trkpt>
      <trkpt lat="42.3589390" lon="1.7395040">
        <ele>1065.6</ele>
        <time>2015-08-13T10:05:02Z</time>
      </trkpt>
      <trkpt lat="42.3589070" lon="1.7394650">
        <ele>1066.2</ele>
        <time>2015-08-13T10:05:04Z</time>
      </trkpt>
      <trkpt lat="42.3588700" lon="1.7394440">
        <ele>1066.9</ele>
        <time>2015-08-13T10:05:05Z</time>
      </trkpt>
      <trkpt lat="42.3588600" lon="1.7394050">
        <ele>1067.0</ele>
        <time>2015-08-13T10:05:08Z</time>
      </trkpt>
      <trkpt lat="42.3588370" lon="1.7394320">
        <ele>1067.5</ele>
        <time>2015-08-13T10:05:12Z</time>
      </trkpt>
      <trkpt lat="42.3588380" lon="1.7393960">
        <ele>1067.4</ele>
        <time>2015-08-13T10:06:32Z</time>
      </trkpt>
      <trkpt lat="42.3588210" lon="1.7393630">
        <ele>1067.7</ele>
        <time>2015-08-13T10:11:32Z</time>
      </trkpt>
      <trkpt lat="42.3588080" lon="1.7393010">
        <ele>1068.0</ele>
        <time>2015-08-13T10:11:35Z</time>
      </trkpt>
      <trkpt lat="42.3588150" lon="1.7392600">
        <ele>1067.9</ele>
        <time>2015-08-13T10:11:36Z</time>
      </trkpt>
      <trkpt lat="42.3588140" lon="1.7392040">
        <ele>1067.9</ele>
        <time>2015-08-13T10:11:37Z</time>
      </trkpt>
      <trkpt lat="42.3588140" lon="1.7391650">
        <ele>1067.9</ele>
        <time>2015-08-13T10:11:38Z</time>
      </trkpt>
      <trkpt lat="42.3588110" lon="1.7391120">
        <ele>1067.9</ele>
        <time>2015-08-13T10:11:39Z</time>
      </trkpt>
      <trkpt lat="42.3588070" lon="1.7390570">
        <ele>1068.0</ele>
        <time>2015-08-13T10:11:40Z</time>
      </trkpt>
      <trkpt lat="42.3587960" lon="1.7390050">
        <ele>1068.2</ele>
        <time>2015-08-13T10:11:41Z</time>
      </trkpt>
      <trkpt lat="42.3587930" lon="1.7389520">
        <ele>1068.3</ele>
        <time>2015-08-13T10:11:42Z</time>
      </trkpt>
      <trkpt lat="42.3588030" lon="1.7388040">
        <ele>1068.1</ele>
        <time>2015-08-13T10:11:44Z</time>
      </trkpt>
      <trkpt lat="42.3587790" lon="1.7387420">
        <ele>1068.5</ele>
        <time>2015-08-13T10:11:45Z</time>
      </trkpt>
      <trkpt lat="42.3587620" lon="1.7386850">
        <ele>1068.5</ele>
        <time>2015-08-13T10:11:46Z</time>
      </trkpt>
      <trkpt lat="42.3587490" lon="1.7386340">
        <ele>1068.5</ele>
        <time>2015-08-13T10:11:47Z</time>
      </trkpt>
      <trkpt lat="42.3587390" lon="1.7385790">
        <ele>1068.3</ele>
        <time>2015-08-13T10:11:48Z</time>
      </trkpt>
      <trkpt lat="42.3587320" lon="1.7385230">
        <ele>1068.1</ele>
        <time>2015-08-13T10:11:49Z</time>
      </trkpt>
      <trkpt lat="42.3587360" lon="1.7384800">
        <ele>1067.9</ele>
        <time>2015-08-13T10:11:50Z</time>
      </trkpt>
      <trkpt lat="42.3587380" lon="1.7384230">
        <ele>1067.6</ele>
        <time>2015-08-13T10:11:51Z</time>
      </trkpt>
      <trkpt lat="42.3587360" lon="1.7383730">
        <ele>1067.3</ele>
        <time>2015-08-13T10:11:52Z</time>
      </trkpt>
      <trkpt lat="42.3587320" lon="1.7383190">
        <ele>1067.1</ele>
        <time>2015-08-13T10:11:53Z</time>
      </trkpt>
      <trkpt lat="42.3587320" lon="1.7382720">
        <ele>1066.9</ele>
        <time>2015-08-13T10:11:54Z</time>
      </trkpt>
      <trkpt lat="42.3587340" lon="1.7382070">
        <ele>1066.5</ele>
        <time>2015-08-13T10:11:55Z</time>
      </trkpt>
      <trkpt lat="42.3587360" lon="1.7381520">
        <ele>1066.3</ele>
        <time>2015-08-13T10:11:56Z</time>
      </trkpt>
      <trkpt lat="42.3587450" lon="1.7381070">
        <ele>1066.0</ele>
        <time>2015-08-13T10:11:57Z</time>
      </trkpt>
      <trkpt lat="42.3587500" lon="1.7380610">
        <ele>1065.7</ele>
        <time>2015-08-13T10:11:58Z</time>
      </trkpt>
      <trkpt lat="42.3587710" lon="1.7380100">
        <ele>1065.2</ele>
        <time>2015-08-13T10:11:59Z</time>
      </trkpt>
      <trkpt lat="42.3587870" lon="1.7379680">
        <ele>1064.9</ele>
        <time>2015-08-13T10:12:00Z</time>
      </trkpt>
      <trkpt lat="42.3587850" lon="1.7379120">
        <ele>1064.6</ele>
        <time>2015-08-13T10:12:01Z</time>
      </trkpt>
      <trkpt lat="42.3587750" lon="1.7378680">
        <ele>1064.5</ele>
        <time>2015-08-13T10:12:02Z</time>
      </trkpt>
      <trkpt lat="42.3587730" lon="1.7378190">
        <ele>1064.3</ele>
        <time>2015-08-13T10:12:03Z</time>
      </trkpt>
      <trkpt lat="42.3587730" lon="1.7377710">
        <ele>1064.1</ele>
        <time>2015-08-13T10:12:04Z</time>
      </trkpt>
      <trkpt lat="42.3587690" lon="1.7376950">
        <ele>1063.8</ele>
        <time>2015-08-13T10:12:06Z</time>
      </trkpt>
      <trkpt lat="42.3587680" lon="1.7376460">
        <ele>1063.5</ele>
        <time>2015-08-13T10:12:07Z</time>
      </trkpt>
      <trkpt lat="42.3587610" lon="1.7376000">
        <ele>1063.4</ele>
        <time>2015-08-13T10:12:08Z</time>
      </trkpt>
      <trkpt lat="42.3587410" lon="1.7375560">
        <ele>1063.3</ele>
        <time>2015-08-13T10:12:09Z</time>
      </trkpt>
      <trkpt lat="42.3587230" lon="1.7375200">
        <ele>1063.3</ele>
        <time>2015-08-13T10:12:10Z</time>
      </trkpt>
      <trkpt lat="42.3587140" lon="1.7374800">
        <ele>1063.2</ele>
        <time>2015-08-13T10:12:11Z</time>
      </trkpt>
      <trkpt lat="42.3587080" lon="1.7374300">
        <ele>1063.0</ele>
        <time>2015-08-13T10:12:12Z</time>
      </trkpt>
      <trkpt lat="42.3587000" lon="1.7373800">
        <ele>1062.8</ele>
        <time>2015-08-13T10:12:13Z</time>
      </trkpt>
      <trkpt lat="42.3586820" lon="1.7373370">
        <ele>1062.8</ele>
        <time>2015-08-13T10:12:14Z</time>
      </trkpt>
      <trkpt lat="42.3586590" lon="1.7372700">
        <ele>1062.6</ele>
        <time>2015-08-13T10:12:16Z</time>
      </trkpt>
      <trkpt lat="42.3586400" lon="1.7372410">
        <ele>1062.7</ele>
        <time>2015-08-13T10:12:17Z</time>
      </trkpt>
      <trkpt lat="42.3586180" lon="1.7371710">
        <ele>1062.5</ele>
        <time>2015-08-13T10:12:18Z</time>
      </trkpt>
      <trkpt lat="42.3585970" lon="1.7371070">
        <ele>1062.4</ele>
        <time>2015-08-13T10:12:19Z</time>
      </trkpt>
      <trkpt lat="42.3585700" lon="1.7370440">
        <ele>1062.3</ele>
        <time>2015-08-13T10:12:20Z</time>
      </trkpt>
      <trkpt lat="42.3585560" lon="1.7369770">
        <ele>1062.0</ele>
        <time>2015-08-13T10:12:21Z</time>
      </trkpt>
      <trkpt lat="42.3585370" lon="1.7369190">
        <ele>1061.9</ele>
        <time>2015-08-13T10:12:22Z</time>
      </trkpt>
      <trkpt lat="42.3585290" lon="1.7368730">
        <ele>1061.7</ele>
        <time>2015-08-13T10:12:23Z</time>
      </trkpt>
      <trkpt lat="42.3585250" lon="1.7368310">
        <ele>1061.5</ele>
        <time>2015-08-13T10:12:24Z</time>
      </trkpt>
      <trkpt lat="42.3585280" lon="1.7367870">
        <ele>1061.2</ele>
        <time>2015-08-13T10:12:25Z</time>
      </trkpt>
      <trkpt lat="42.3585220" lon="1.7367420">
        <ele>1061.0</ele>
        <time>2015-08-13T10:12:27Z</time>
      </trkpt>
      <trkpt lat="42.3585230" lon="1.7367040">
        <ele>1060.8</ele>
        <time>2015-08-13T10:12:29Z</time>
      </trkpt>
      <trkpt lat="42.3585180" lon="1.7366510">
        <ele>1060.5</ele>
        <time>2015-08-13T10:12:32Z</time>
      </trkpt>
      <trkpt lat="42.3585040" lon="1.7365950">
        <ele>1060.3</ele>
        <time>2015-08-13T10:12:35Z</time>
      </trkpt>
      <trkpt lat="42.3585720" lon="1.7365580">
        <ele>1059.5</ele>
        <time>2015-08-13T10:12:37Z</time>
      </trkpt>
      <trkpt lat="42.3586050" lon="1.7365480">
        <ele>1059.1</ele>
        <time>2015-08-13T10:12:38Z</time>
      </trkpt>
      <trkpt lat="42.3586340" lon="1.7365280">
        <ele>1058.7</ele>
        <time>2015-08-13T10:12:39Z</time>
      </trkpt>
      <trkpt lat="42.3586770" lon="1.7365200">
        <ele>1058.3</ele>
        <time>2015-08-13T10:12:40Z</time>
      </trkpt>
      <trkpt lat="42.3587140" lon="1.7365180">
        <ele>1057.9</ele>
        <time>2015-08-13T10:12:41Z</time>
      </trkpt>
      <trkpt lat="42.3587490" lon="1.7365170">
        <ele>1057.6</ele>
        <time>2015-08-13T10:12:42Z</time>
      </trkpt>
      <trkpt lat="42.3587820" lon="1.7364930">
        <ele>1057.3</ele>
        <time>2015-08-13T10:12:44Z</time>
      </trkpt>
      <trkpt lat="42.3587880" lon="1.7364560">
        <ele>1057.0</ele>
        <time>2015-08-13T10:13:05Z</time>
      </trkpt>
      <trkpt lat="42.3587740" lon="1.7364220">
        <ele>1056.9</ele>
        <time>2015-08-13T10:13:09Z</time>
      </trkpt>
      <trkpt lat="42.3587570" lon="1.7364670">
        <ele>1057.3</ele>
        <time>2015-08-13T10:13:13Z</time>
      </trkpt>
      <trkpt lat="42.3587270" lon="1.7364750">
        <ele>1057.6</ele>
        <time>2015-08-13T10:13:28Z</time>
      </trkpt>
      <trkpt lat="42.3586930" lon="1.7364950">
        <ele>1058.0</ele>
        <time>2015-08-13T10:13:30Z</time>
      </trkpt>
      <trkpt lat="42.3586720" lon="1.7365190">
        <ele>1058.3</ele>
        <time>2015-08-13T10:13:31Z</time>
      </trkpt>
      <trkpt lat="42.3586320" lon="1.7365480">
        <ele>1058.9</ele>
        <time>2015-08-13T10:13:33Z</time>
      </trkpt>
      <trkpt lat="42.3586080" lon="1.7365860">
        <ele>1059.3</ele>
        <time>2015-08-13T10:13:34Z</time>
      </trkpt>
      <trkpt lat="42.3585550" lon="1.7365890">
        <ele>1059.8</ele>
        <time>2015-08-13T10:13:35Z</time>
      </trkpt>
      <trkpt lat="42.3585080" lon="1.7366070">
        <ele>1060.3</ele>
        <time>2015-08-13T10:13:37Z</time>
      </trkpt>
      <trkpt lat="42.3584650" lon="1.7366140">
        <ele>1060.8</ele>
        <time>2015-08-13T10:13:39Z</time>
      </trkpt>
      <trkpt lat="42.3584510" lon="1.7364950">
        <ele>1060.2</ele>
        <time>2015-08-13T10:13:40Z</time>
      </trkpt>
      <trkpt lat="42.3584210" lon="1.7364560">
        <ele>1060.3</ele>
        <time>2015-08-13T10:13:41Z</time>
      </trkpt>
      <trkpt lat="42.3583930" lon="1.7364090">
        <ele>1060.3</ele>
        <time>2015-08-13T10:13:42Z</time>
      </trkpt>
      <trkpt lat="42.3583660" lon="1.7363450">
        <ele>1060.2</ele>
        <time>2015-08-13T10:13:43Z</time>
      </trkpt>
      <trkpt lat="42.3583500" lon="1.7362900">
        <ele>1060.1</ele>
        <time>2015-08-13T10:13:44Z</time>
      </trkpt>
      <trkpt lat="42.3583190" lon="1.7362360">
        <ele>1060.0</ele>
        <time>2015-08-13T10:13:45Z</time>
      </trkpt>
      <trkpt lat="42.3582920" lon="1.7361830">
        <ele>1060.0</ele>
        <time>2015-08-13T10:13:46Z</time>
      </trkpt>
      <trkpt lat="42.3582720" lon="1.7361240">
        <ele>1059.7</ele>
        <time>2015-08-13T10:13:47Z</time>
      </trkpt>
      <trkpt lat="42.3582500" lon="1.7360610">
        <ele>1059.5</ele>
        <time>2015-08-13T10:13:48Z</time>
      </trkpt>
      <trkpt lat="42.3582340" lon="1.7360210">
        <ele>1059.4</ele>
        <time>2015-08-13T10:13:49Z</time>
      </trkpt>
      <trkpt lat="42.3582160" lon="1.7359750">
        <ele>1059.3</ele>
        <time>2015-08-13T10:13:50Z</time>
      </trkpt>
      <trkpt lat="42.3582090" lon="1.7359260">
        <ele>1059.0</ele>
        <time>2015-08-13T10:13:51Z</time>
      </trkpt>
      <trkpt lat="42.3581970" lon="1.7358750">
        <ele>1058.8</ele>
        <time>2015-08-13T10:13:52Z</time>
      </trkpt>
      <trkpt lat="42.3581840" lon="1.7358370">
        <ele>1058.6</ele>
        <time>2015-08-13T10:13:54Z</time>
      </trkpt>
      <trkpt lat="42.3582030" lon="1.7357920">
        <ele>1058.1</ele>
        <time>2015-08-13T10:13:56Z</time>
      </trkpt>
      <trkpt lat="42.3582150" lon="1.7357510">
        <ele>1057.8</ele>
        <time>2015-08-13T10:13:58Z</time>
      </trkpt>
      <trkpt lat="42.3582250" lon="1.7357040">
        <ele>1057.4</ele>
        <time>2015-08-13T10:14:00Z</time>
      </trkpt>
      <trkpt lat="42.3582510" lon="1.7356690">
        <ele>1056.9</ele>
        <time>2015-08-13T10:14:01Z</time>
      </trkpt>
      <trkpt lat="42.3582690" lon="1.7356230">
        <ele>1056.4</ele>
        <time>2015-08-13T10:14:03Z</time>
      </trkpt>
      <trkpt lat="42.3582710" lon="1.7355780">
        <ele>1056.1</ele>
        <time>2015-08-13T10:14:06Z</time>
      </trkpt>
      <trkpt lat="42.3582900" lon="1.7355500">
        <ele>1055.8</ele>
        <time>2015-08-13T10:14:08Z</time>
      </trkpt>
      <trkpt lat="42.3583070" lon="1.7355150">
        <ele>1055.4</ele>
        <time>2015-08-13T10:14:11Z</time>
      </trkpt>
      <trkpt lat="42.3582850" lon="1.7354890">
        <ele>1055.4</ele>
        <time>2015-08-13T10:14:14Z</time>
      </trkpt>
      <trkpt lat="42.3582520" lon="1.7355110">
        <ele>1055.8</ele>
        <time>2015-08-13T10:14:15Z</time>
      </trkpt>
      <trkpt lat="42.3582320" lon="1.7355580">
        <ele>1056.3</ele>
        <time>2015-08-13T10:14:17Z</time>
      </trkpt>
      <trkpt lat="42.3582040" lon="1.7356060">
        <ele>1056.9</ele>
        <time>2015-08-13T10:14:19Z</time>
      </trkpt>
      <trkpt lat="42.3581840" lon="1.7356510">
        <ele>1057.4</ele>
        <time>2015-08-13T10:14:21Z</time>
      </trkpt>
      <trkpt lat="42.3581590" lon="1.7357010">
        <ele>1057.9</ele>
        <time>2015-08-13T10:14:23Z</time>
      </trkpt>
      <trkpt lat="42.3581320" lon="1.7357020">
        <ele>1058.2</ele>
        <time>2015-08-13T10:14:26Z</time>
      </trkpt>
      <trkpt lat="42.3581110" lon="1.7356560">
        <ele>1058.0</ele>
        <time>2015-08-13T10:14:28Z</time>
      </trkpt>
      <trkpt lat="42.3580810" lon="1.7356060">
        <ele>1057.9</ele>
        <time>2015-08-13T10:14:30Z</time>
      </trkpt>
      <trkpt lat="42.3580480" lon="1.7355880">
        <ele>1058.1</ele>
        <time>2015-08-13T10:14:32Z</time>
      </trkpt>
      <trkpt lat="42.3580280" lon="1.7355570">
        <ele>1058.1</ele>
        <time>2015-08-13T10:14:33Z</time>
      </trkpt>
      <trkpt lat="42.3579910" lon="1.7355030">
        <ele>1058.0</ele>
        <time>2015-08-13T10:14:35Z</time>
      </trkpt>
      <trkpt lat="42.3579570" lon="1.7354740">
        <ele>1058.1</ele>
        <time>2015-08-13T10:14:36Z</time>
      </trkpt>
      <trkpt lat="42.3579040" lon="1.7353930">
        <ele>1058.3</ele>
        <time>2015-08-13T10:14:38Z</time>
      </trkpt>
      <trkpt lat="42.3578830" lon="1.7353620">
        <ele>1058.8</ele>
        <time>2015-08-13T10:14:39Z</time>
      </trkpt>
      <trkpt lat="42.3578610" lon="1.7353240">
        <ele>1059.4</ele>
        <time>2015-08-13T10:14:40Z</time>
      </trkpt>
      <trkpt lat="42.3578320" lon="1.7352660">
        <ele>1060.2</ele>
        <time>2015-08-13T10:14:41Z</time>
      </trkpt>
      <trkpt lat="42.3577930" lon="1.7352290">
        <ele>1061.1</ele>
        <time>2015-08-13T10:14:42Z</time>
      </trkpt>
      <trkpt lat="42.3577350" lon="1.7351970">
        <ele>1062.4</ele>
        <time>2015-08-13T10:14:43Z</time>
      </trkpt>
      <trkpt lat="42.3576740" lon="1.7351380">
        <ele>1063.9</ele>
        <time>2015-08-13T10:14:44Z</time>
      </trkpt>
      <trkpt lat="42.3576360" lon="1.7350840">
        <ele>1064.9</ele>
        <time>2015-08-13T10:14:45Z</time>
      </trkpt>
      <trkpt lat="42.3576050" lon="1.7350350">
        <ele>1065.7</ele>
        <time>2015-08-13T10:14:46Z</time>
      </trkpt>
      <trkpt lat="42.3575540" lon="1.7349990">
        <ele>1066.9</ele>
        <time>2015-08-13T10:14:47Z</time>
      </trkpt>
      <trkpt lat="42.3575230" lon="1.7349620">
        <ele>1067.7</ele>
        <time>2015-08-13T10:14:48Z</time>
      </trkpt>
      <trkpt lat="42.3574670" lon="1.7349050">
        <ele>1069.1</ele>
        <time>2015-08-13T10:14:50Z</time>
      </trkpt>
      <trkpt lat="42.3574240" lon="1.7348890">
        <ele>1070.1</ele>
        <time>2015-08-13T10:14:51Z</time>
      </trkpt>
      <trkpt lat="42.3573930" lon="1.7348380">
        <ele>1071.0</ele>
        <time>2015-08-13T10:14:52Z</time>
      </trkpt>
      <trkpt lat="42.3573570" lon="1.7348190">
        <ele>1071.9</ele>
        <time>2015-08-13T10:14:54Z</time>
      </trkpt>
      <trkpt lat="42.3573460" lon="1.7347680">
        <ele>1072.4</ele>
        <time>2015-08-13T10:14:57Z</time>
      </trkpt>
      <trkpt lat="42.3573290" lon="1.7347200">
        <ele>1073.0</ele>
        <time>2015-08-13T10:14:59Z</time>
      </trkpt>
      <trkpt lat="42.3573250" lon="1.7346810">
        <ele>1073.3</ele>
        <time>2015-08-13T10:15:02Z</time>
      </trkpt>
      <trkpt lat="42.3573220" lon="1.7346410">
        <ele>1073.5</ele>
        <time>2015-08-13T10:15:03Z</time>
      </trkpt>
      <trkpt lat="42.3573300" lon="1.7345970">
        <ele>1073.6</ele>
        <time>2015-08-13T10:15:05Z</time>
      </trkpt>
      <trkpt lat="42.3573410" lon="1.7345580">
        <ele>1073.4</ele>
        <time>2015-08-13T10:15:12Z</time>
      </trkpt>
      <trkpt lat="42.3573320" lon="1.7345140">
        <ele>1073.5</ele>
        <time>2015-08-13T10:15:21Z</time>
      </trkpt>
      <trkpt lat="42.3573200" lon="1.7344710">
        <ele>1073.7</ele>
        <time>2015-08-13T10:15:23Z</time>
      </trkpt>
      <trkpt lat="42.3573070" lon="1.7344320">
        <ele>1073.9</ele>
        <time>2015-08-13T10:15:28Z</time>
      </trkpt>
      <trkpt lat="42.3573270" lon="1.7343960">
        <ele>1073.4</ele>
        <time>2015-08-13T10:15:31Z</time>
      </trkpt>
      <trkpt lat="42.3573060" lon="1.7343130">
        <ele>1073.6</ele>
        <time>2015-08-13T10:15:34Z</time>
      </trkpt>
      <trkpt lat="42.3572840" lon="1.7342640">
        <ele>1074.0</ele>
        <time>2015-08-13T10:15:36Z</time>
      </trkpt>
      <trkpt lat="42.3573050" lon="1.7342310">
        <ele>1073.5</ele>
        <time>2015-08-13T10:15:39Z</time>
      </trkpt>
      <trkpt lat="42.3573220" lon="1.7341990">
        <ele>1073.1</ele>
        <time>2015-08-13T10:15:43Z</time>
      </trkpt>
      <trkpt lat="42.3572920" lon="1.7341720">
        <ele>1073.6</ele>
        <time>2015-08-13T10:15:48Z</time>
      </trkpt>
      <trkpt lat="42.3572660" lon="1.7341870">
        <ele>1074.2</ele>
        <time>2015-08-13T10:15:52Z</time>
      </trkpt>
      <trkpt lat="42.3572530" lon="1.7341510">
        <ele>1074.4</ele>
        <time>2015-08-13T10:15:57Z</time>
      </trkpt>
      <trkpt lat="42.3572470" lon="1.7341140">
        <ele>1074.4</ele>
        <time>2015-08-13T10:16:01Z</time>
      </trkpt>
      <trkpt lat="42.3572390" lon="1.7340650">
        <ele>1074.5</ele>
        <time>2015-08-13T10:16:04Z</time>
      </trkpt>
      <trkpt lat="42.3572110" lon="1.7340370">
        <ele>1075.0</ele>
        <time>2015-08-13T10:16:14Z</time>
      </trkpt>
      <trkpt lat="42.3571920" lon="1.7339950">
        <ele>1075.3</ele>
        <time>2015-08-13T10:16:20Z</time>
      </trkpt>
      <trkpt lat="42.3571740" lon="1.7339630">
        <ele>1075.6</ele>
        <time>2015-08-13T10:16:25Z</time>
      </trkpt>
      <trkpt lat="42.3571430" lon="1.7339800">
        <ele>1076.3</ele>
        <time>2015-08-13T10:16:32Z</time>
      </trkpt>
      <trkpt lat="42.3571090" lon="1.7339720">
        <ele>1077.0</ele>
        <time>2015-08-13T10:16:35Z</time>
      </trkpt>
      <trkpt lat="42.3570780" lon="1.7339590">
        <ele>1077.6</ele>
        <time>2015-08-13T10:16:39Z</time>
      </trkpt>
      <trkpt lat="42.3570470" lon="1.7339190">
        <ele>1077.8</ele>
        <time>2015-08-13T10:16:46Z</time>
      </trkpt>
      <trkpt lat="42.3570300" lon="1.7338880">
        <ele>1078.0</ele>
        <time>2015-08-13T10:16:51Z</time>
      </trkpt>
      <trkpt lat="42.3570070" lon="1.7338550">
        <ele>1078.2</ele>
        <time>2015-08-13T10:17:06Z</time>
      </trkpt>
      <trkpt lat="42.3569720" lon="1.7338230">
        <ele>1078.5</ele>
        <time>2015-08-13T10:17:09Z</time>
      </trkpt>
      <trkpt lat="42.3569520" lon="1.7337870">
        <ele>1078.7</ele>
        <time>2015-08-13T10:17:12Z</time>
      </trkpt>
      <trkpt lat="42.3568890" lon="1.7337530">
        <ele>1079.3</ele>
        <time>2015-08-13T10:17:14Z</time>
      </trkpt>
      <trkpt lat="42.3568650" lon="1.7337060">
        <ele>1079.2</ele>
        <time>2015-08-13T10:17:16Z</time>
      </trkpt>
      <trkpt lat="42.3568550" lon="1.7336460">
        <ele>1078.7</ele>
        <time>2015-08-13T10:17:18Z</time>
      </trkpt>
      <trkpt lat="42.3568390" lon="1.7335750">
        <ele>1078.1</ele>
        <time>2015-08-13T10:17:20Z</time>
      </trkpt>
      <trkpt lat="42.3568320" lon="1.7335380">
        <ele>1077.8</ele>
        <time>2015-08-13T10:17:25Z</time>
      </trkpt>
      <trkpt lat="42.3568270" lon="1.7334950">
        <ele>1077.4</ele>
        <time>2015-08-13T10:17:27Z</time>
      </trkpt>
      <trkpt lat="42.3567810" lon="1.7334820">
        <ele>1077.9</ele>
        <time>2015-08-13T10:17:28Z</time>
      </trkpt>
      <trkpt lat="42.3567390" lon="1.7334830">
        <ele>1078.4</ele>
        <time>2015-08-13T10:17:29Z</time>
      </trkpt>
      <trkpt lat="42.3567510" lon="1.7334500">
        <ele>1077.9</ele>
        <time>2015-08-13T10:17:31Z</time>
      </trkpt>
      <trkpt lat="42.3567180" lon="1.7334400">
        <ele>1078.2</ele>
        <time>2015-08-13T10:17:32Z</time>
      </trkpt>
      <trkpt lat="42.3566560" lon="1.7333700">
        <ele>1078.3</ele>
        <time>2015-08-13T10:17:35Z</time>
      </trkpt>
      <trkpt lat="42.3566150" lon="1.7333450">
        <ele>1078.5</ele>
        <time>2015-08-13T10:17:36Z</time>
      </trkpt>
      <trkpt lat="42.3565870" lon="1.7333250">
        <ele>1078.7</ele>
        <time>2015-08-13T10:17:38Z</time>
      </trkpt>
      <trkpt lat="42.3565610" lon="1.7333510">
        <ele>1079.3</ele>
        <time>2015-08-13T10:17:40Z</time>
      </trkpt>
      <trkpt lat="42.3565340" lon="1.7333490">
        <ele>1079.6</ele>
        <time>2015-08-13T10:17:41Z</time>
      </trkpt>
      <trkpt lat="42.3565750" lon="1.7333410">
        <ele>1079.0</ele>
        <time>2015-08-13T10:17:42Z</time>
      </trkpt>
      <trkpt lat="42.3565970" lon="1.7333150">
        <ele>1078.4</ele>
        <time>2015-08-13T10:17:44Z</time>
      </trkpt>
      <trkpt lat="42.3565870" lon="1.7332710">
        <ele>1078.1</ele>
        <time>2015-08-13T10:17:48Z</time>
      </trkpt>
      <trkpt lat="42.3565570" lon="1.7332660">
        <ele>1078.5</ele>
        <time>2015-08-13T10:17:49Z</time>
      </trkpt>
      <trkpt lat="42.3565450" lon="1.7331850">
        <ele>1077.8</ele>
        <time>2015-08-13T10:17:54Z</time>
      </trkpt>
      <trkpt lat="42.3565370" lon="1.7331500">
        <ele>1077.5</ele>
        <time>2015-08-13T10:17:57Z</time>
      </trkpt>
      <trkpt lat="42.3565290" lon="1.7331160">
        <ele>1077.3</ele>
        <time>2015-08-13T10:17:58Z</time>
      </trkpt>
      <trkpt lat="42.3565400" lon="1.7330590">
        <ele>1076.6</ele>
        <time>2015-08-13T10:18:00Z</time>
      </trkpt>
      <trkpt lat="42.3565300" lon="1.7330060">
        <ele>1076.2</ele>
        <time>2015-08-13T10:18:03Z</time>
      </trkpt>
      <trkpt lat="42.3565200" lon="1.7329610">
        <ele>1075.9</ele>
        <time>2015-08-13T10:18:06Z</time>
      </trkpt>
      <trkpt lat="42.3565300" lon="1.7329250">
        <ele>1075.4</ele>
        <time>2015-08-13T10:18:09Z</time>
      </trkpt>
      <trkpt lat="42.3564900" lon="1.7328980">
        <ele>1075.8</ele>
        <time>2015-08-13T10:18:12Z</time>
      </trkpt>
      <trkpt lat="42.3564590" lon="1.7328600">
        <ele>1076.0</ele>
        <time>2015-08-13T10:18:15Z</time>
      </trkpt>
      <trkpt lat="42.3564240" lon="1.7328370">
        <ele>1076.4</ele>
        <time>2015-08-13T10:18:16Z</time>
      </trkpt>
      <trkpt lat="42.3563990" lon="1.7327950">
        <ele>1076.6</ele>
        <time>2015-08-13T10:18:20Z</time>
      </trkpt>
      <trkpt lat="42.3563700" lon="1.7327830">
        <ele>1076.9</ele>
        <time>2015-08-13T10:18:21Z</time>
      </trkpt>
      <trkpt lat="42.3563310" lon="1.7327450">
        <ele>1077.3</ele>
        <time>2015-08-13T10:18:23Z</time>
      </trkpt>
      <trkpt lat="42.3563100" lon="1.7327130">
        <ele>1077.5</ele>
        <time>2015-08-13T10:18:25Z</time>
      </trkpt>
      <trkpt lat="42.3562780" lon="1.7327020">
        <ele>1077.9</ele>
        <time>2015-08-13T10:18:27Z</time>
      </trkpt>
      <trkpt lat="42.3562390" lon="1.7327250">
        <ele>1078.4</ele>
        <time>2015-08-13T10:18:30Z</time>
      </trkpt>
      <trkpt lat="42.3562110" lon="1.7327380">
        <ele>1078.7</ele>
        <time>2015-08-13T10:18:33Z</time>
      </trkpt>
      <trkpt lat="42.3561720" lon="1.7327390">
        <ele>1079.1</ele>
        <time>2015-08-13T10:18:34Z</time>
      </trkpt>
      <trkpt lat="42.3561170" lon="1.7326950">
        <ele>1079.5</ele>
        <time>2015-08-13T10:18:36Z</time>
      </trkpt>
      <trkpt lat="42.3560900" lon="1.7326790">
        <ele>1079.7</ele>
        <time>2015-08-13T10:18:38Z</time>
      </trkpt>
      <trkpt lat="42.3560630" lon="1.7326690">
        <ele>1079.9</ele>
        <time>2015-08-13T10:18:39Z</time>
      </trkpt>
      <trkpt lat="42.3560200" lon="1.7326740">
        <ele>1080.3</ele>
        <time>2015-08-13T10:18:41Z</time>
      </trkpt>
      <trkpt lat="42.3560090" lon="1.7326060">
        <ele>1080.2</ele>
        <time>2015-08-13T10:18:42Z</time>
      </trkpt>
      <trkpt lat="42.3559700" lon="1.7325740">
        <ele>1080.5</ele>
        <time>2015-08-13T10:18:44Z</time>
      </trkpt>
      <trkpt lat="42.3559440" lon="1.7325640">
        <ele>1080.7</ele>
        <time>2015-08-13T10:18:45Z</time>
      </trkpt>
      <trkpt lat="42.3559030" lon="1.7325440">
        <ele>1081.0</ele>
        <time>2015-08-13T10:18:47Z</time>
      </trkpt>
      <trkpt lat="42.3558310" lon="1.7324890">
        <ele>1081.5</ele>
        <time>2015-08-13T10:18:49Z</time>
      </trkpt>
      <trkpt lat="42.3557920" lon="1.7325080">
        <ele>1081.9</ele>
        <time>2015-08-13T10:18:51Z</time>
      </trkpt>
      <trkpt lat="42.3557350" lon="1.7324940">
        <ele>1082.4</ele>
        <time>2015-08-13T10:18:53Z</time>
      </trkpt>
      <trkpt lat="42.3557000" lon="1.7324890">
        <ele>1082.7</ele>
        <time>2015-08-13T10:18:54Z</time>
      </trkpt>
      <trkpt lat="42.3556700" lon="1.7324730">
        <ele>1083.0</ele>
        <time>2015-08-13T10:18:56Z</time>
      </trkpt>
      <trkpt lat="42.3556320" lon="1.7324520">
        <ele>1083.3</ele>
        <time>2015-08-13T10:18:58Z</time>
      </trkpt>
      <trkpt lat="42.3555980" lon="1.7324430">
        <ele>1083.6</ele>
        <time>2015-08-13T10:19:00Z</time>
      </trkpt>
      <trkpt lat="42.3555630" lon="1.7324440">
        <ele>1083.9</ele>
        <time>2015-08-13T10:19:01Z</time>
      </trkpt>
      <trkpt lat="42.3555210" lon="1.7324400">
        <ele>1084.3</ele>
        <time>2015-08-13T10:19:02Z</time>
      </trkpt>
      <trkpt lat="42.3554600" lon="1.7324040">
        <ele>1084.7</ele>
        <time>2015-08-13T10:19:04Z</time>
      </trkpt>
      <trkpt lat="42.3554310" lon="1.7323900">
        <ele>1085.0</ele>
        <time>2015-08-13T10:19:05Z</time>
      </trkpt>
      <trkpt lat="42.3554010" lon="1.7323510">
        <ele>1085.2</ele>
        <time>2015-08-13T10:19:06Z</time>
      </trkpt>
      <trkpt lat="42.3553500" lon="1.7323070">
        <ele>1085.8</ele>
        <time>2015-08-13T10:19:07Z</time>
      </trkpt>
      <trkpt lat="42.3552710" lon="1.7322590">
        <ele>1086.8</ele>
        <time>2015-08-13T10:19:08Z</time>
      </trkpt>
      <trkpt lat="42.3552390" lon="1.7322310">
        <ele>1087.2</ele>
        <time>2015-08-13T10:19:09Z</time>
      </trkpt>
      <trkpt lat="42.3552000" lon="1.7321910">
        <ele>1087.7</ele>
        <time>2015-08-13T10:19:10Z</time>
      </trkpt>
      <trkpt lat="42.3551680" lon="1.7321600">
        <ele>1088.1</ele>
        <time>2015-08-13T10:19:11Z</time>
      </trkpt>
      <trkpt lat="42.3551400" lon="1.7321200">
        <ele>1088.4</ele>
        <time>2015-08-13T10:19:12Z</time>
      </trkpt>
      <trkpt lat="42.3551160" lon="1.7320800">
        <ele>1088.7</ele>
        <time>2015-08-13T10:19:13Z</time>
      </trkpt>
      <trkpt lat="42.3550870" lon="1.7320460">
        <ele>1089.5</ele>
        <time>2015-08-13T10:19:15Z</time>
      </trkpt>
      <trkpt lat="42.3550460" lon="1.7319920">
        <ele>1090.6</ele>
        <time>2015-08-13T10:19:17Z</time>
      </trkpt>
      <trkpt lat="42.3550210" lon="1.7319520">
        <ele>1091.3</ele>
        <time>2015-08-13T10:19:18Z</time>
      </trkpt>
      <trkpt lat="42.3549910" lon="1.7318990">
        <ele>1092.2</ele>
        <time>2015-08-13T10:19:20Z</time>
      </trkpt>
      <trkpt lat="42.3549630" lon="1.7318750">
        <ele>1092.8</ele>
        <time>2015-08-13T10:19:22Z</time>
      </trkpt>
      <trkpt lat="42.3549290" lon="1.7318470">
        <ele>1093.4</ele>
        <time>2015-08-13T10:19:24Z</time>
      </trkpt>
      <trkpt lat="42.3549400" lon="1.7318010">
        <ele>1093.7</ele>
        <time>2015-08-13T10:19:26Z</time>
      </trkpt>
      <trkpt lat="42.3549270" lon="1.7317690">
        <ele>1094.1</ele>
        <time>2015-08-13T10:19:28Z</time>
      </trkpt>
      <trkpt lat="42.3549240" lon="1.7317150">
        <ele>1094.5</ele>
        <time>2015-08-13T10:19:31Z</time>
      </trkpt>
      <trkpt lat="42.3549010" lon="1.7316760">
        <ele>1095.1</ele>
        <time>2015-08-13T10:19:33Z</time>
      </trkpt>
      <trkpt lat="42.3548860" lon="1.7316450">
        <ele>1095.5</ele>
        <time>2015-08-13T10:19:35Z</time>
      </trkpt>
      <trkpt lat="42.3548570" lon="1.7316480">
        <ele>1095.8</ele>
        <time>2015-08-13T10:19:37Z</time>
      </trkpt>
      <trkpt lat="42.3548290" lon="1.7316110">
        <ele>1096.4</ele>
        <time>2015-08-13T10:19:39Z</time>
      </trkpt>
      <trkpt lat="42.3548410" lon="1.7315480">
        <ele>1096.7</ele>
        <time>2015-08-13T10:19:42Z</time>
      </trkpt>
      <trkpt lat="42.3548100" lon="1.7315220">
        <ele>1097.3</ele>
        <time>2015-08-13T10:19:47Z</time>
      </trkpt>
      <trkpt lat="42.3547860" lon="1.7314990">
        <ele>1097.7</ele>
        <time>2015-08-13T10:19:54Z</time>
      </trkpt>
      <trkpt lat="42.3547660" lon="1.7314590">
        <ele>1098.1</ele>
        <time>2015-08-13T10:20:00Z</time>
      </trkpt>
      <trkpt lat="42.3547190" lon="1.7314370">
        <ele>1098.7</ele>
        <time>2015-08-13T10:20:30Z</time>
      </trkpt>
      <trkpt lat="42.3546770" lon="1.7314220">
        <ele>1099.2</ele>
        <time>2015-08-13T10:20:32Z</time>
      </trkpt>
      <trkpt lat="42.3546530" lon="1.7313960">
        <ele>1099.6</ele>
        <time>2015-08-13T10:20:34Z</time>
      </trkpt>
      <trkpt lat="42.3546460" lon="1.7313440">
        <ele>1100.0</ele>
        <time>2015-08-13T10:20:36Z</time>
      </trkpt>
      <trkpt lat="42.3546250" lon="1.7312970">
        <ele>1100.4</ele>
        <time>2015-08-13T10:20:38Z</time>
      </trkpt>
      <trkpt lat="42.3545940" lon="1.7312640">
        <ele>1100.8</ele>
        <time>2015-08-13T10:20:40Z</time>
      </trkpt>
      <trkpt lat="42.3545820" lon="1.7312300">
        <ele>1101.3</ele>
        <time>2015-08-13T10:20:43Z</time>
      </trkpt>
      <trkpt lat="42.3545690" lon="1.7311970">
        <ele>1101.9</ele>
        <time>2015-08-13T10:20:44Z</time>
      </trkpt>
      <trkpt lat="42.3545330" lon="1.7311360">
        <ele>1103.5</ele>
        <time>2015-08-13T10:20:48Z</time>
      </trkpt>
      <trkpt lat="42.3545180" lon="1.7311010">
        <ele>1104.2</ele>
        <time>2015-08-13T10:20:50Z</time>
      </trkpt>
      <trkpt lat="42.3545020" lon="1.7310650">
        <ele>1105.0</ele>
        <time>2015-08-13T10:20:53Z</time>
      </trkpt>
      <trkpt lat="42.3544860" lon="1.7310300">
        <ele>1105.7</ele>
        <time>2015-08-13T10:20:56Z</time>
      </trkpt>
      <trkpt lat="42.3544710" lon="1.7309950">
        <ele>1106.5</ele>
        <time>2015-08-13T10:20:59Z</time>
      </trkpt>
      <trkpt lat="42.3544550" lon="1.7309600">
        <ele>1107.3</ele>
        <time>2015-08-13T10:21:00Z</time>
      </trkpt>
      <trkpt lat="42.3544320" lon="1.7309370">
        <ele>1108.0</ele>
        <time>2015-08-13T10:21:03Z</time>
      </trkpt>
      <trkpt lat="42.3544290" lon="1.7309000">
        <ele>1108.5</ele>
        <time>2015-08-13T10:21:19Z</time>
      </trkpt>
      <trkpt lat="42.3544070" lon="1.7308600">
        <ele>1109.5</ele>
        <time>2015-08-13T10:21:22Z</time>
      </trkpt>
      <trkpt lat="42.3543810" lon="1.7308300">
        <ele>1110.4</ele>
        <time>2015-08-13T10:21:25Z</time>
      </trkpt>
      <trkpt lat="42.3543500" lon="1.7308310">
        <ele>1111.1</ele>
        <time>2015-08-13T10:21:32Z</time>
      </trkpt>
      <trkpt lat="42.3543190" lon="1.7308170">
        <ele>1111.9</ele>
        <time>2015-08-13T10:21:36Z</time>
      </trkpt>
      <trkpt lat="42.3542960" lon="1.7307550">
        <ele>1113.1</ele>
        <time>2015-08-13T10:22:01Z</time>
      </trkpt>
      <trkpt lat="42.3542700" lon="1.7307210">
        <ele>1114.1</ele>
        <time>2015-08-13T10:22:02Z</time>
      </trkpt>
      <trkpt lat="42.3542580" lon="1.7306830">
        <ele>1114.8</ele>
        <time>2015-08-13T10:22:05Z</time>
      </trkpt>
      <trkpt lat="42.3542560" lon="1.7306400">
        <ele>1115.4</ele>
        <time>2015-08-13T10:22:07Z</time>
      </trkpt>
      <trkpt lat="42.3542230" lon="1.7306270">
        <ele>1116.3</ele>
        <time>2015-08-13T10:22:08Z</time>
      </trkpt>
      <trkpt lat="42.3542210" lon="1.7305910">
        <ele>1116.7</ele>
        <time>2015-08-13T10:22:10Z</time>
      </trkpt>
      <trkpt lat="42.3542200" lon="1.7305540">
        <ele>1117.2</ele>
        <time>2015-08-13T10:22:18Z</time>
      </trkpt>
      <trkpt lat="42.3542100" lon="1.7305190">
        <ele>1117.8</ele>
        <time>2015-08-13T10:22:21Z</time>
      </trkpt>
      <trkpt lat="42.3541940" lon="1.7304870">
        <ele>1118.6</ele>
        <time>2015-08-13T10:22:25Z</time>
      </trkpt>
      <trkpt lat="42.3542220" lon="1.7305050">
        <ele>1117.7</ele>
        <time>2015-08-13T10:22:26Z</time>
      </trkpt>
      <trkpt lat="42.3542720" lon="1.7304840">
        <ele>1116.9</ele>
        <time>2015-08-13T10:22:29Z</time>
      </trkpt>
      <trkpt lat="42.3542890" lon="1.7304790">
        <ele>1116.6</ele>
        <time>2015-08-13T10:22:32Z</time>
      </trkpt>
      <trkpt lat="42.3543050" lon="1.7304740">
        <ele>1116.3</ele>
        <time>2015-08-13T10:24:36Z</time>
      </trkpt>
      <trkpt lat="42.3543210" lon="1.7304690">
        <ele>1116.0</ele>
        <time>2015-08-13T10:24:37Z</time>
      </trkpt>
      <trkpt lat="42.3543830" lon="1.7304710">
        <ele>1114.7</ele>
        <time>2015-08-13T10:24:38Z</time>
      </trkpt>
      <trkpt lat="42.3544180" lon="1.7305170">
        <ele>1113.4</ele>
        <time>2015-08-13T10:24:39Z</time>
      </trkpt>
      <trkpt lat="42.3544540" lon="1.7305030">
        <ele>1112.8</ele>
        <time>2015-08-13T10:24:41Z</time>
      </trkpt>
      <trkpt lat="42.3544900" lon="1.7305230">
        <ele>1111.7</ele>
        <time>2015-08-13T10:24:43Z</time>
      </trkpt>
      <trkpt lat="42.3545240" lon="1.7305190">
        <ele>1111.1</ele>
        <time>2015-08-13T10:24:44Z</time>
      </trkpt>
      <trkpt lat="42.3545710" lon="1.7305440">
        <ele>1109.7</ele>
        <time>2015-08-13T10:24:45Z</time>
      </trkpt>
      <trkpt lat="42.3545450" lon="1.7304720">
        <ele>1111.2</ele>
        <time>2015-08-13T10:24:48Z</time>
      </trkpt>
      <trkpt lat="42.3545100" lon="1.7304390">
        <ele>1112.3</ele>
        <time>2015-08-13T10:24:49Z</time>
      </trkpt>
      <trkpt lat="42.3545020" lon="1.7303990">
        <ele>1112.8</ele>
        <time>2015-08-13T10:24:51Z</time>
      </trkpt>
      <trkpt lat="42.3545290" lon="1.7303870">
        <ele>1112.3</ele>
        <time>2015-08-13T10:24:52Z</time>
      </trkpt>
      <trkpt lat="42.3545680" lon="1.7303580">
        <ele>1111.6</ele>
        <time>2015-08-13T10:24:54Z</time>
      </trkpt>
      <trkpt lat="42.3545650" lon="1.7303200">
        <ele>1111.8</ele>
        <time>2015-08-13T10:24:56Z</time>
      </trkpt>
      <trkpt lat="42.3545610" lon="1.7302710">
        <ele>1112.1</ele>
        <time>2015-08-13T10:24:59Z</time>
      </trkpt>
      <trkpt lat="42.3545610" lon="1.7302210">
        <ele>1112.4</ele>
        <time>2015-08-13T10:25:01Z</time>
      </trkpt>
      <trkpt lat="42.3545670" lon="1.7301670">
        <ele>1112.5</ele>
        <time>2015-08-13T10:25:03Z</time>
      </trkpt>
      <trkpt lat="42.3545700" lon="1.7301180">
        <ele>1112.7</ele>
        <time>2015-08-13T10:25:05Z</time>
      </trkpt>
      <trkpt lat="42.3545470" lon="1.7300890">
        <ele>1113.2</ele>
        <time>2015-08-13T10:25:06Z</time>
      </trkpt>
      <trkpt lat="42.3545400" lon="1.7300440">
        <ele>1113.6</ele>
        <time>2015-08-13T10:25:08Z</time>
      </trkpt>
      <trkpt lat="42.3545180" lon="1.7299950">
        <ele>1114.2</ele>
        <time>2015-08-13T10:25:10Z</time>
      </trkpt>
      <trkpt lat="42.3545150" lon="1.7299420">
        <ele>1114.4</ele>
        <time>2015-08-13T10:25:13Z</time>
      </trkpt>
      <trkpt lat="42.3545340" lon="1.7299030">
        <ele>1114.3</ele>
        <time>2015-08-13T10:25:15Z</time>
      </trkpt>
      <trkpt lat="42.3545330" lon="1.7298640">
        <ele>1114.5</ele>
        <time>2015-08-13T10:25:17Z</time>
      </trkpt>
      <trkpt lat="42.3545310" lon="1.7298190">
        <ele>1114.7</ele>
        <time>2015-08-13T10:25:19Z</time>
      </trkpt>
      <trkpt lat="42.3545250" lon="1.7297720">
        <ele>1115.0</ele>
        <time>2015-08-13T10:25:21Z</time>
      </trkpt>
      <trkpt lat="42.3545440" lon="1.7297210">
        <ele>1114.9</ele>
        <time>2015-08-13T10:25:24Z</time>
      </trkpt>
      <trkpt lat="42.3545500" lon="1.7296720">
        <ele>1115.0</ele>
        <time>2015-08-13T10:25:26Z</time>
      </trkpt>
      <trkpt lat="42.3545680" lon="1.7296390">
        <ele>1114.9</ele>
        <time>2015-08-13T10:25:28Z</time>
      </trkpt>
      <trkpt lat="42.3545710" lon="1.7295920">
        <ele>1115.1</ele>
        <time>2015-08-13T10:25:30Z</time>
      </trkpt>
      <trkpt lat="42.3545860" lon="1.7295400">
        <ele>1114.6</ele>
        <time>2015-08-13T10:25:33Z</time>
      </trkpt>
      <trkpt lat="42.3545970" lon="1.7295050">
        <ele>1114.1</ele>
        <time>2015-08-13T10:25:34Z</time>
      </trkpt>
      <trkpt lat="42.3546170" lon="1.7294370">
        <ele>1113.3</ele>
        <time>2015-08-13T10:25:36Z</time>
      </trkpt>
      <trkpt lat="42.3546530" lon="1.7294060">
        <ele>1112.6</ele>
        <time>2015-08-13T10:25:38Z</time>
      </trkpt>
      <trkpt lat="42.3546500" lon="1.7293530">
        <ele>1112.1</ele>
        <time>2015-08-13T10:25:40Z</time>
      </trkpt>
      <trkpt lat="42.3546780" lon="1.7293000">
        <ele>1111.4</ele>
        <time>2015-08-13T10:25:42Z</time>
      </trkpt>
      <trkpt lat="42.3546790" lon="1.7292390">
        <ele>1110.8</ele>
        <time>2015-08-13T10:25:45Z</time>
      </trkpt>
      <trkpt lat="42.3546950" lon="1.7292070">
        <ele>1110.4</ele>
        <time>2015-08-13T10:25:48Z</time>
      </trkpt>
      <trkpt lat="42.3547130" lon="1.7291750">
        <ele>1109.9</ele>
        <time>2015-08-13T10:25:50Z</time>
      </trkpt>
      <trkpt lat="42.3547210" lon="1.7291330">
        <ele>1109.5</ele>
        <time>2015-08-13T10:25:52Z</time>
      </trkpt>
      <trkpt lat="42.3547280" lon="1.7290740">
        <ele>1108.9</ele>
        <time>2015-08-13T10:25:54Z</time>
      </trkpt>
      <trkpt lat="42.3547260" lon="1.7290340">
        <ele>1108.5</ele>
        <time>2015-08-13T10:25:55Z</time>
      </trkpt>
      <trkpt lat="42.3547330" lon="1.7289930">
        <ele>1108.1</ele>
        <time>2015-08-13T10:25:57Z</time>
      </trkpt>
      <trkpt lat="42.3547490" lon="1.7289430">
        <ele>1107.5</ele>
        <time>2015-08-13T10:26:00Z</time>
      </trkpt>
      <trkpt lat="42.3547480" lon="1.7288980">
        <ele>1107.1</ele>
        <time>2015-08-13T10:26:03Z</time>
      </trkpt>
      <trkpt lat="42.3547380" lon="1.7288480">
        <ele>1106.8</ele>
        <time>2015-08-13T10:26:06Z</time>
      </trkpt>
      <trkpt lat="42.3547480" lon="1.7288110">
        <ele>1106.4</ele>
        <time>2015-08-13T10:26:09Z</time>
      </trkpt>
      <trkpt lat="42.3547240" lon="1.7287760">
        <ele>1106.2</ele>
        <time>2015-08-13T10:26:26Z</time>
      </trkpt>
      <trkpt lat="42.3547320" lon="1.7287270">
        <ele>1105.6</ele>
        <time>2015-08-13T10:26:28Z</time>
      </trkpt>
      <trkpt lat="42.3547440" lon="1.7286830">
        <ele>1105.0</ele>
        <time>2015-08-13T10:26:29Z</time>
      </trkpt>
      <trkpt lat="42.3547520" lon="1.7286180">
        <ele>1104.2</ele>
        <time>2015-08-13T10:26:31Z</time>
      </trkpt>
      <trkpt lat="42.3547570" lon="1.7285790">
        <ele>1103.7</ele>
        <time>2015-08-13T10:26:32Z</time>
      </trkpt>
      <trkpt lat="42.3547720" lon="1.7285410">
        <ele>1103.1</ele>
        <time>2015-08-13T10:26:33Z</time>
      </trkpt>
      <trkpt lat="42.3547960" lon="1.7285060">
        <ele>1102.5</ele>
        <time>2015-08-13T10:26:34Z</time>
      </trkpt>
      <trkpt lat="42.3548260" lon="1.7284770">
        <ele>1102.0</ele>
        <time>2015-08-13T10:26:35Z</time>
      </trkpt>
      <trkpt lat="42.3548490" lon="1.7284550">
        <ele>1101.6</ele>
        <time>2015-08-13T10:26:36Z</time>
      </trkpt>
      <trkpt lat="42.3548790" lon="1.7284340">
        <ele>1101.2</ele>
        <time>2015-08-13T10:26:37Z</time>
      </trkpt>
      <trkpt lat="42.3549140" lon="1.7284260">
        <ele>1101.0</ele>
        <time>2015-08-13T10:26:38Z</time>
      </trkpt>
      <trkpt lat="42.3549530" lon="1.7284120">
        <ele>1100.6</ele>
        <time>2015-08-13T10:26:39Z</time>
      </trkpt>
      <trkpt lat="42.3549800" lon="1.7283850">
        <ele>1100.2</ele>
        <time>2015-08-13T10:26:40Z</time>
      </trkpt>
      <trkpt lat="42.3550290" lon="1.7283260">
        <ele>1099.3</ele>
        <time>2015-08-13T10:26:41Z</time>
      </trkpt>
      <trkpt lat="42.3550680" lon="1.7282970">
        <ele>1098.8</ele>
        <time>2015-08-13T10:26:42Z</time>
      </trkpt>
      <trkpt lat="42.3551190" lon="1.7281670">
        <ele>1097.2</ele>
        <time>2015-08-13T10:26:43Z</time>
      </trkpt>
      <trkpt lat="42.3551550" lon="1.7281200">
        <ele>1096.6</ele>
        <time>2015-08-13T10:26:44Z</time>
      </trkpt>
      <trkpt lat="42.3552080" lon="1.7280930">
        <ele>1096.2</ele>
        <time>2015-08-13T10:26:45Z</time>
      </trkpt>
      <trkpt lat="42.3552640" lon="1.7280530">
        <ele>1095.6</ele>
        <time>2015-08-13T10:26:46Z</time>
      </trkpt>
      <trkpt lat="42.3553140" lon="1.7280120">
        <ele>1095.1</ele>
        <time>2015-08-13T10:26:47Z</time>
      </trkpt>
      <trkpt lat="42.3553010" lon="1.7278960">
        <ele>1093.9</ele>
        <time>2015-08-13T10:26:48Z</time>
      </trkpt>
      <trkpt lat="42.3553460" lon="1.7278210">
        <ele>1092.5</ele>
        <time>2015-08-13T10:26:49Z</time>
      </trkpt>
      <trkpt lat="42.3553670" lon="1.7277610">
        <ele>1091.4</ele>
        <time>2015-08-13T10:26:50Z</time>
      </trkpt>
      <trkpt lat="42.3553860" lon="1.7276960">
        <ele>1090.3</ele>
        <time>2015-08-13T10:26:51Z</time>
      </trkpt>
      <trkpt lat="42.3554000" lon="1.7276330">
        <ele>1089.2</ele>
        <time>2015-08-13T10:26:52Z</time>
      </trkpt>
      <trkpt lat="42.3553560" lon="1.7275530">
        <ele>1087.9</ele>
        <time>2015-08-13T10:26:53Z</time>
      </trkpt>
      <trkpt lat="42.3553260" lon="1.7274570">
        <ele>1086.2</ele>
        <time>2015-08-13T10:26:54Z</time>
      </trkpt>
      <trkpt lat="42.3553050" lon="1.7273870">
        <ele>1084.9</ele>
        <time>2015-08-13T10:26:55Z</time>
      </trkpt>
      <trkpt lat="42.3552760" lon="1.7272740">
        <ele>1082.9</ele>
        <time>2015-08-13T10:26:56Z</time>
      </trkpt>
      <trkpt lat="42.3553200" lon="1.7271860">
        <ele>1081.4</ele>
        <time>2015-08-13T10:26:57Z</time>
      </trkpt>
      <trkpt lat="42.3552920" lon="1.7270890">
        <ele>1079.7</ele>
        <time>2015-08-13T10:26:58Z</time>
      </trkpt>
      <trkpt lat="42.3553410" lon="1.7270310">
        <ele>1079.6</ele>
        <time>2015-08-13T10:26:59Z</time>
      </trkpt>
      <trkpt lat="42.3553780" lon="1.7269540">
        <ele>1079.7</ele>
        <time>2015-08-13T10:27:00Z</time>
      </trkpt>
      <trkpt lat="42.3553950" lon="1.7268860">
        <ele>1079.6</ele>
        <time>2015-08-13T10:27:01Z</time>
      </trkpt>
      <trkpt lat="42.3553950" lon="1.7268470">
        <ele>1079.6</ele>
        <time>2015-08-13T10:27:02Z</time>
      </trkpt>
      <trkpt lat="42.3553720" lon="1.7268680">
        <ele>1079.5</ele>
        <time>2015-08-13T10:27:04Z</time>
      </trkpt>
      <trkpt lat="42.3553400" lon="1.7268720">
        <ele>1079.3</ele>
        <time>2015-08-13T10:27:06Z</time>
      </trkpt>
      <trkpt lat="42.3553130" lon="1.7268650">
        <ele>1079.2</ele>
        <time>2015-08-13T10:27:07Z</time>
      </trkpt>
      <trkpt lat="42.3552750" lon="1.7268870">
        <ele>1079.0</ele>
        <time>2015-08-13T10:27:09Z</time>
      </trkpt>
      <trkpt lat="42.3552580" lon="1.7268470">
        <ele>1078.8</ele>
        <time>2015-08-13T10:27:13Z</time>
      </trkpt>
      <trkpt lat="42.3552710" lon="1.7267960">
        <ele>1078.8</ele>
        <time>2015-08-13T10:27:21Z</time>
      </trkpt>
      <trkpt lat="42.3552440" lon="1.7268430">
        <ele>1078.7</ele>
        <time>2015-08-13T10:27:23Z</time>
      </trkpt>
      <trkpt lat="42.3552200" lon="1.7268710">
        <ele>1078.7</ele>
        <time>2015-08-13T10:27:24Z</time>
      </trkpt>
      <trkpt lat="42.3551580" lon="1.7269500">
        <ele>1078.6</ele>
        <time>2015-08-13T10:27:26Z</time>
      </trkpt>
      <trkpt lat="42.3551470" lon="1.7269860">
        <ele>1078.7</ele>
        <time>2015-08-13T10:27:27Z</time>
      </trkpt>
      <trkpt lat="42.3551010" lon="1.7270640">
        <ele>1078.8</ele>
        <time>2015-08-13T10:27:29Z</time>
      </trkpt>
      <trkpt lat="42.3550840" lon="1.7271020">
        <ele>1079.2</ele>
        <time>2015-08-13T10:27:30Z</time>
      </trkpt>
      <trkpt lat="42.3550400" lon="1.7271410">
        <ele>1079.8</ele>
        <time>2015-08-13T10:27:31Z</time>
      </trkpt>
      <trkpt lat="42.3549420" lon="1.7271800">
        <ele>1080.2</ele>
        <time>2015-08-13T10:27:32Z</time>
      </trkpt>
      <trkpt lat="42.3548650" lon="1.7272300">
        <ele>1081.1</ele>
        <time>2015-08-13T10:27:33Z</time>
      </trkpt>
      <trkpt lat="42.3547660" lon="1.7272450">
        <ele>1081.1</ele>
        <time>2015-08-13T10:27:34Z</time>
      </trkpt>
      <trkpt lat="42.3547120" lon="1.7272680">
        <ele>1081.5</ele>
        <time>2015-08-13T10:27:35Z</time>
      </trkpt>
      <trkpt lat="42.3546370" lon="1.7272630">
        <ele>1081.2</ele>
        <time>2015-08-13T10:27:36Z</time>
      </trkpt>
      <trkpt lat="42.3545700" lon="1.7272670">
        <ele>1081.3</ele>
        <time>2015-08-13T10:27:37Z</time>
      </trkpt>
      <trkpt lat="42.3545350" lon="1.7273220">
        <ele>1082.8</ele>
        <time>2015-08-13T10:27:38Z</time>
      </trkpt>
      <trkpt lat="42.3544600" lon="1.7273160">
        <ele>1083.2</ele>
        <time>2015-08-13T10:27:39Z</time>
      </trkpt>
      <trkpt lat="42.3543990" lon="1.7273070">
        <ele>1083.4</ele>
        <time>2015-08-13T10:27:40Z</time>
      </trkpt>
      <trkpt lat="42.3543470" lon="1.7272830">
        <ele>1083.2</ele>
        <time>2015-08-13T10:27:41Z</time>
      </trkpt>
      <trkpt lat="42.3543040" lon="1.7272780">
        <ele>1083.4</ele>
        <time>2015-08-13T10:27:42Z</time>
      </trkpt>
      <trkpt lat="42.3542690" lon="1.7272370">
        <ele>1082.7</ele>
        <time>2015-08-13T10:27:43Z</time>
      </trkpt>
      <trkpt lat="42.3542280" lon="1.7272150">
        <ele>1082.5</ele>
        <time>2015-08-13T10:27:44Z</time>
      </trkpt>
      <trkpt lat="42.3541950" lon="1.7271540">
        <ele>1081.4</ele>
        <time>2015-08-13T10:27:45Z</time>
      </trkpt>
      <trkpt lat="42.3541630" lon="1.7271070">
        <ele>1080.6</ele>
        <time>2015-08-13T10:27:46Z</time>
      </trkpt>
      <trkpt lat="42.3541210" lon="1.7270310">
        <ele>1079.4</ele>
        <time>2015-08-13T10:27:47Z</time>
      </trkpt>
      <trkpt lat="42.3540710" lon="1.7270090">
        <ele>1079.4</ele>
        <time>2015-08-13T10:27:48Z</time>
      </trkpt>
      <trkpt lat="42.3540330" lon="1.7269610">
        <ele>1078.7</ele>
        <time>2015-08-13T10:27:49Z</time>
      </trkpt>
      <trkpt lat="42.3539870" lon="1.7269050">
        <ele>1077.8</ele>
        <time>2015-08-13T10:27:50Z</time>
      </trkpt>
      <trkpt lat="42.3539370" lon="1.7268690">
        <ele>1077.3</ele>
        <time>2015-08-13T10:27:51Z</time>
      </trkpt>
      <trkpt lat="42.3538860" lon="1.7268450">
        <ele>1076.9</ele>
        <time>2015-08-13T10:27:52Z</time>
      </trkpt>
      <trkpt lat="42.3538350" lon="1.7267940">
        <ele>1075.9</ele>
        <time>2015-08-13T10:27:53Z</time>
      </trkpt>
      <trkpt lat="42.3537840" lon="1.7267570">
        <ele>1075.1</ele>
        <time>2015-08-13T10:27:54Z</time>
      </trkpt>
      <trkpt lat="42.3537210" lon="1.7266660">
        <ele>1072.9</ele>
        <time>2015-08-13T10:27:55Z</time>
      </trkpt>
      <trkpt lat="42.3536460" lon="1.7266340">
        <ele>1071.9</ele>
        <time>2015-08-13T10:27:56Z</time>
      </trkpt>
      <trkpt lat="42.3535700" lon="1.7266630">
        <ele>1072.4</ele>
        <time>2015-08-13T10:27:57Z</time>
      </trkpt>
      <trkpt lat="42.3534790" lon="1.7266860">
        <ele>1072.6</ele>
        <time>2015-08-13T10:27:58Z</time>
      </trkpt>
      <trkpt lat="42.3534020" lon="1.7266920">
        <ele>1072.6</ele>
        <time>2015-08-13T10:27:59Z</time>
      </trkpt>
      <trkpt lat="42.3533020" lon="1.7266490">
        <ele>1071.2</ele>
        <time>2015-08-13T10:28:00Z</time>
      </trkpt>
      <trkpt lat="42.3531750" lon="1.7265130">
        <ele>1067.7</ele>
        <time>2015-08-13T10:28:01Z</time>
      </trkpt>
      <trkpt lat="42.3530790" lon="1.7264660">
        <ele>1066.4</ele>
        <time>2015-08-13T10:28:02Z</time>
      </trkpt>
      <trkpt lat="42.3529900" lon="1.7263530">
        <ele>1063.5</ele>
        <time>2015-08-13T10:28:03Z</time>
      </trkpt>
      <trkpt lat="42.3529030" lon="1.7263170">
        <ele>1062.4</ele>
        <time>2015-08-13T10:28:04Z</time>
      </trkpt>
      <trkpt lat="42.3528190" lon="1.7262130">
        <ele>1060.0</ele>
        <time>2015-08-13T10:28:05Z</time>
      </trkpt>
      <trkpt lat="42.3527360" lon="1.7262060">
        <ele>1059.4</ele>
        <time>2015-08-13T10:28:06Z</time>
      </trkpt>
      <trkpt lat="42.3526490" lon="1.7261600">
        <ele>1058.5</ele>
        <time>2015-08-13T10:28:07Z</time>
      </trkpt>
      <trkpt lat="42.3525670" lon="1.7261650">
        <ele>1058.1</ele>
        <time>2015-08-13T10:28:08Z</time>
      </trkpt>
      <trkpt lat="42.3525000" lon="1.7261370">
        <ele>1057.5</ele>
        <time>2015-08-13T10:28:09Z</time>
      </trkpt>
      <trkpt lat="42.3524430" lon="1.7261230">
        <ele>1057.1</ele>
        <time>2015-08-13T10:28:10Z</time>
      </trkpt>
      <trkpt lat="42.3524550" lon="1.7261690">
        <ele>1057.5</ele>
        <time>2015-08-13T10:28:11Z</time>
      </trkpt>
      <trkpt lat="42.3524160" lon="1.7262060">
        <ele>1057.6</ele>
        <time>2015-08-13T10:28:12Z</time>
      </trkpt>
      <trkpt lat="42.3523890" lon="1.7261810">
        <ele>1057.3</ele>
        <time>2015-08-13T10:28:13Z</time>
      </trkpt>
      <trkpt lat="42.3523540" lon="1.7261740">
        <ele>1057.0</ele>
        <time>2015-08-13T10:28:14Z</time>
      </trkpt>
      <trkpt lat="42.3523340" lon="1.7261460">
        <ele>1056.7</ele>
        <time>2015-08-13T10:28:15Z</time>
      </trkpt>
      <trkpt lat="42.3523190" lon="1.7261090">
        <ele>1056.3</ele>
        <time>2015-08-13T10:28:16Z</time>
      </trkpt>
      <trkpt lat="42.3522910" lon="1.7260880">
        <ele>1056.0</ele>
        <time>2015-08-13T10:28:18Z</time>
      </trkpt>
      <trkpt lat="42.3522630" lon="1.7260840">
        <ele>1055.9</ele>
        <time>2015-08-13T10:28:24Z</time>
      </trkpt>
      <trkpt lat="42.3522440" lon="1.7259820">
        <ele>1055.0</ele>
        <time>2015-08-13T10:28:57Z</time>
      </trkpt>
      <trkpt lat="42.3522510" lon="1.7260220">
        <ele>1055.4</ele>
        <time>2015-08-13T10:29:02Z</time>
      </trkpt>
      <trkpt lat="42.3522300" lon="1.7259920">
        <ele>1055.1</ele>
        <time>2015-08-13T10:29:55Z</time>
      </trkpt>
      <trkpt lat="42.3522550" lon="1.7260270">
        <ele>1055.4</ele>
        <time>2015-08-13T10:29:57Z</time>
      </trkpt>
      <trkpt lat="42.3522720" lon="1.7260760">
        <ele>1055.9</ele>
        <time>2015-08-13T10:30:00Z</time>
      </trkpt>
      <trkpt lat="42.3523130" lon="1.7260500">
        <ele>1055.8</ele>
        <time>2015-08-13T10:30:17Z</time>
      </trkpt>
      <trkpt lat="42.3523450" lon="1.7260350">
        <ele>1055.9</ele>
        <time>2015-08-13T10:30:20Z</time>
      </trkpt>
      <trkpt lat="42.3523220" lon="1.7259970">
        <ele>1055.5</ele>
        <time>2015-08-13T10:30:21Z</time>
      </trkpt>
      <trkpt lat="42.3522810" lon="1.7259960">
        <ele>1055.3</ele>
        <time>2015-08-13T10:30:22Z</time>
      </trkpt>
      <trkpt lat="42.3522640" lon="1.7260500">
        <ele>1055.6</ele>
        <time>2015-08-13T10:30:38Z</time>
      </trkpt>
      <trkpt lat="42.3522610" lon="1.7260120">
        <ele>1055.3</ele>
        <time>2015-08-13T10:30:40Z</time>
      </trkpt>
      <trkpt lat="42.3522810" lon="1.7260440">
        <ele>1055.7</ele>
        <time>2015-08-13T10:30:43Z</time>
      </trkpt>
      <trkpt lat="42.3522650" lon="1.7260100">
        <ele>1055.3</ele>
        <time>2015-08-13T10:30:46Z</time>
      </trkpt>
      <trkpt lat="42.3522350" lon="1.7259960">
        <ele>1055.1</ele>
        <time>2015-08-13T10:31:15Z</time>
      </trkpt>
      <trkpt lat="42.3522600" lon="1.7259800">
        <ele>1055.1</ele>
        <time>2015-08-13T10:31:19Z</time>
      </trkpt>
      <trkpt lat="42.3522670" lon="1.7260370">
        <ele>1055.5</ele>
        <time>2015-08-13T10:31:50Z</time>
      </trkpt>
      <trkpt lat="42.3522470" lon="1.7259740">
        <ele>1055.0</ele>
        <time>2015-08-13T10:32:01Z</time>
      </trkpt>
      <trkpt lat="42.3522780" lon="1.7260090">
        <ele>1055.4</ele>
        <time>2015-08-13T10:32:03Z</time>
      </trkpt>
      <trkpt lat="42.3522750" lon="1.7259260">
        <ele>1054.8</ele>
        <time>2015-08-13T10:32:33Z</time>
      </trkpt>
      <trkpt lat="42.3522720" lon="1.7258970">
        <ele>1054.5</ele>
        <time>2015-08-13T10:32:34Z</time>
      </trkpt>
      <trkpt lat="42.3522870" lon="1.7259320">
        <ele>1054.8</ele>
        <time>2015-08-13T10:32:36Z</time>
      </trkpt>
      <trkpt lat="42.3522990" lon="1.7259680">
        <ele>1055.2</ele>
        <time>2015-08-13T10:32:43Z</time>
      </trkpt>
      <trkpt lat="42.3523200" lon="1.7260370">
        <ele>1055.8</ele>
        <time>2015-08-13T10:32:45Z</time>
      </trkpt>
      <trkpt lat="42.3523130" lon="1.7260740">
        <ele>1056.0</ele>
        <time>2015-08-13T10:32:49Z</time>
      </trkpt>
      <trkpt lat="42.3523030" lon="1.7260300">
        <ele>1055.7</ele>
        <time>2015-08-13T10:32:50Z</time>
      </trkpt>
      <trkpt lat="42.3522800" lon="1.7260530">
        <ele>1055.7</ele>
        <time>2015-08-13T10:32:58Z</time>
      </trkpt>
      <trkpt lat="42.3522630" lon="1.7259870">
        <ele>1055.2</ele>
        <time>2015-08-13T10:33:13Z</time>
      </trkpt>
      <trkpt lat="42.3522770" lon="1.7260230">
        <ele>1055.5</ele>
        <time>2015-08-13T10:33:15Z</time>
      </trkpt>
      <trkpt lat="42.3522900" lon="1.7260570">
        <ele>1055.8</ele>
        <time>2015-08-13T10:33:18Z</time>
      </trkpt>
      <trkpt lat="42.3522860" lon="1.7260980">
        <ele>1056.1</ele>
        <time>2015-08-13T10:33:22Z</time>
      </trkpt>
      <trkpt lat="42.3522580" lon="1.7260640">
        <ele>1055.7</ele>
        <time>2015-08-13T10:33:26Z</time>
      </trkpt>
      <trkpt lat="42.3522600" lon="1.7260220">
        <ele>1055.4</ele>
        <time>2015-08-13T10:33:28Z</time>
      </trkpt>
      <trkpt lat="42.3522900" lon="1.7260550">
        <ele>1055.8</ele>
        <time>2015-08-13T10:34:01Z</time>
      </trkpt>
      <trkpt lat="42.3522870" lon="1.7261120">
        <ele>1056.2</ele>
        <time>2015-08-13T10:34:10Z</time>
      </trkpt>
      <trkpt lat="42.3522360" lon="1.7261370">
        <ele>1056.1</ele>
        <time>2015-08-13T10:34:12Z</time>
      </trkpt>
      <trkpt lat="42.3521750" lon="1.7261330">
        <ele>1055.8</ele>
        <time>2015-08-13T10:34:13Z</time>
      </trkpt>
      <trkpt lat="42.3520860" lon="1.7260970">
        <ele>1055.1</ele>
        <time>2015-08-13T10:34:14Z</time>
      </trkpt>
      <trkpt lat="42.3520500" lon="1.7260980">
        <ele>1055.2</ele>
        <time>2015-08-13T10:34:15Z</time>
      </trkpt>
      <trkpt lat="42.3519930" lon="1.7261300">
        <ele>1055.5</ele>
        <time>2015-08-13T10:34:16Z</time>
      </trkpt>
      <trkpt lat="42.3519330" lon="1.7261450">
        <ele>1055.8</ele>
        <time>2015-08-13T10:34:17Z</time>
      </trkpt>
      <trkpt lat="42.3518890" lon="1.7261700">
        <ele>1056.1</ele>
        <time>2015-08-13T10:34:18Z</time>
      </trkpt>
      <trkpt lat="42.3518240" lon="1.7261920">
        <ele>1056.3</ele>
        <time>2015-08-13T10:34:19Z</time>
      </trkpt>
      <trkpt lat="42.3517540" lon="1.7262030">
        <ele>1056.6</ele>
        <time>2015-08-13T10:34:20Z</time>
      </trkpt>
      <trkpt lat="42.3516990" lon="1.7262150">
        <ele>1056.8</ele>
        <time>2015-08-13T10:34:21Z</time>
      </trkpt>
      <trkpt lat="42.3515950" lon="1.7262070">
        <ele>1057.0</ele>
        <time>2015-08-13T10:34:22Z</time>
      </trkpt>
      <trkpt lat="42.3514980" lon="1.7262300">
        <ele>1057.3</ele>
        <time>2015-08-13T10:34:23Z</time>
      </trkpt>
      <trkpt lat="42.3514490" lon="1.7262290">
        <ele>1057.5</ele>
        <time>2015-08-13T10:34:24Z</time>
      </trkpt>
      <trkpt lat="42.3513730" lon="1.7262370">
        <ele>1057.7</ele>
        <time>2015-08-13T10:34:25Z</time>
      </trkpt>
      <trkpt lat="42.3512600" lon="1.7262020">
        <ele>1057.9</ele>
        <time>2015-08-13T10:34:26Z</time>
      </trkpt>
      <trkpt lat="42.3511130" lon="1.7261240">
        <ele>1059.0</ele>
        <time>2015-08-13T10:34:27Z</time>
      </trkpt>
      <trkpt lat="42.3510190" lon="1.7260910">
        <ele>1059.8</ele>
        <time>2015-08-13T10:34:28Z</time>
      </trkpt>
      <trkpt lat="42.3509230" lon="1.7259920">
        <ele>1060.7</ele>
        <time>2015-08-13T10:34:29Z</time>
      </trkpt>
      <trkpt lat="42.3508710" lon="1.7259110">
        <ele>1061.3</ele>
        <time>2015-08-13T10:34:30Z</time>
      </trkpt>
      <trkpt lat="42.3508800" lon="1.7258300">
        <ele>1061.2</ele>
        <time>2015-08-13T10:34:31Z</time>
      </trkpt>
      <trkpt lat="42.3508420" lon="1.7257520">
        <ele>1061.7</ele>
        <time>2015-08-13T10:34:32Z</time>
      </trkpt>
      <trkpt lat="42.3507940" lon="1.7256670">
        <ele>1062.3</ele>
        <time>2015-08-13T10:34:33Z</time>
      </trkpt>
      <trkpt lat="42.3507500" lon="1.7256090">
        <ele>1063.0</ele>
        <time>2015-08-13T10:34:34Z</time>
      </trkpt>
      <trkpt lat="42.3507070" lon="1.7255420">
        <ele>1063.6</ele>
        <time>2015-08-13T10:34:35Z</time>
      </trkpt>
      <trkpt lat="42.3506970" lon="1.7254870">
        <ele>1063.9</ele>
        <time>2015-08-13T10:34:36Z</time>
      </trkpt>
      <trkpt lat="42.3506640" lon="1.7254460">
        <ele>1064.4</ele>
        <time>2015-08-13T10:34:37Z</time>
      </trkpt>
      <trkpt lat="42.3506680" lon="1.7253960">
        <ele>1064.6</ele>
        <time>2015-08-13T10:34:38Z</time>
      </trkpt>
      <trkpt lat="42.3506500" lon="1.7253600">
        <ele>1065.2</ele>
        <time>2015-08-13T10:34:39Z</time>
      </trkpt>
      <trkpt lat="42.3506330" lon="1.7253180">
        <ele>1065.9</ele>
        <time>2015-08-13T10:34:40Z</time>
      </trkpt>
      <trkpt lat="42.3506540" lon="1.7252740">
        <ele>1066.0</ele>
        <time>2015-08-13T10:34:42Z</time>
      </trkpt>
      <trkpt lat="42.3506540" lon="1.7252230">
        <ele>1066.5</ele>
        <time>2015-08-13T10:34:43Z</time>
      </trkpt>
      <trkpt lat="42.3506570" lon="1.7251860">
        <ele>1066.8</ele>
        <time>2015-08-13T10:34:44Z</time>
      </trkpt>
      <trkpt lat="42.3506770" lon="1.7251270">
        <ele>1067.0</ele>
        <time>2015-08-13T10:34:45Z</time>
      </trkpt>
      <trkpt lat="42.3506890" lon="1.7250710">
        <ele>1067.3</ele>
        <time>2015-08-13T10:34:46Z</time>
      </trkpt>
      <trkpt lat="42.3506910" lon="1.7250120">
        <ele>1067.8</ele>
        <time>2015-08-13T10:34:47Z</time>
      </trkpt>
      <trkpt lat="42.3507200" lon="1.7249510">
        <ele>1067.7</ele>
        <time>2015-08-13T10:34:48Z</time>
      </trkpt>
      <trkpt lat="42.3507220" lon="1.7249070">
        <ele>1068.1</ele>
        <time>2015-08-13T10:34:49Z</time>
      </trkpt>
      <trkpt lat="42.3507340" lon="1.7248570">
        <ele>1068.3</ele>
        <time>2015-08-13T10:34:50Z</time>
      </trkpt>
      <trkpt lat="42.3507240" lon="1.7247980">
        <ele>1069.0</ele>
        <time>2015-08-13T10:34:51Z</time>
      </trkpt>
      <trkpt lat="42.3507340" lon="1.7247490">
        <ele>1069.2</ele>
        <time>2015-08-13T10:34:52Z</time>
      </trkpt>
      <trkpt lat="42.3507120" lon="1.7246790">
        <ele>1070.3</ele>
        <time>2015-08-13T10:34:54Z</time>
      </trkpt>
      <trkpt lat="42.3507210" lon="1.7246050">
        <ele>1070.8</ele>
        <time>2015-08-13T10:34:56Z</time>
      </trkpt>
      <trkpt lat="42.3507220" lon="1.7245670">
        <ele>1071.1</ele>
        <time>2015-08-13T10:34:57Z</time>
      </trkpt>
      <trkpt lat="42.3507420" lon="1.7245410">
        <ele>1070.8</ele>
        <time>2015-08-13T10:34:58Z</time>
      </trkpt>
      <trkpt lat="42.3507600" lon="1.7244960">
        <ele>1070.7</ele>
        <time>2015-08-13T10:34:59Z</time>
      </trkpt>
      <trkpt lat="42.3507810" lon="1.7244450">
        <ele>1070.6</ele>
        <time>2015-08-13T10:35:00Z</time>
      </trkpt>
      <trkpt lat="42.3508000" lon="1.7243980">
        <ele>1070.5</ele>
        <time>2015-08-13T10:35:01Z</time>
      </trkpt>
      <trkpt lat="42.3508190" lon="1.7243390">
        <ele>1070.6</ele>
        <time>2015-08-13T10:35:02Z</time>
      </trkpt>
      <trkpt lat="42.3508370" lon="1.7242970">
        <ele>1070.5</ele>
        <time>2015-08-13T10:35:03Z</time>
      </trkpt>
      <trkpt lat="42.3508590" lon="1.7242500">
        <ele>1070.4</ele>
        <time>2015-08-13T10:35:04Z</time>
      </trkpt>
      <trkpt lat="42.3508930" lon="1.7241710">
        <ele>1070.3</ele>
        <time>2015-08-13T10:35:05Z</time>
      </trkpt>
      <trkpt lat="42.3509420" lon="1.7241020">
        <ele>1069.8</ele>
        <time>2015-08-13T10:35:06Z</time>
      </trkpt>
      <trkpt lat="42.3509870" lon="1.7240750">
        <ele>1069.1</ele>
        <time>2015-08-13T10:35:07Z</time>
      </trkpt>
      <trkpt lat="42.3510510" lon="1.7240810">
        <ele>1067.6</ele>
        <time>2015-08-13T10:35:08Z</time>
      </trkpt>
      <trkpt lat="42.3510790" lon="1.7240440">
        <ele>1067.3</ele>
        <time>2015-08-13T10:35:09Z</time>
      </trkpt>
      <trkpt lat="42.3511130" lon="1.7239980">
        <ele>1067.1</ele>
        <time>2015-08-13T10:35:10Z</time>
      </trkpt>
      <trkpt lat="42.3511390" lon="1.7239480">
        <ele>1067.0</ele>
        <time>2015-08-13T10:35:11Z</time>
      </trkpt>
      <trkpt lat="42.3511660" lon="1.7238850">
        <ele>1067.2</ele>
        <time>2015-08-13T10:35:12Z</time>
      </trkpt>
      <trkpt lat="42.3511920" lon="1.7238210">
        <ele>1067.4</ele>
        <time>2015-08-13T10:35:13Z</time>
      </trkpt>
      <trkpt lat="42.3512200" lon="1.7237620">
        <ele>1067.5</ele>
        <time>2015-08-13T10:35:14Z</time>
      </trkpt>
      <trkpt lat="42.3512400" lon="1.7236930">
        <ele>1068.2</ele>
        <time>2015-08-13T10:35:15Z</time>
      </trkpt>
      <trkpt lat="42.3512650" lon="1.7236330">
        <ele>1068.9</ele>
        <time>2015-08-13T10:35:16Z</time>
      </trkpt>
      <trkpt lat="42.3513040" lon="1.7235690">
        <ele>1069.7</ele>
        <time>2015-08-13T10:35:17Z</time>
      </trkpt>
      <trkpt lat="42.3513500" lon="1.7235340">
        <ele>1070.0</ele>
        <time>2015-08-13T10:35:18Z</time>
      </trkpt>
      <trkpt lat="42.3513790" lon="1.7234970">
        <ele>1070.4</ele>
        <time>2015-08-13T10:35:19Z</time>
      </trkpt>
      <trkpt lat="42.3514200" lon="1.7234520">
        <ele>1070.9</ele>
        <time>2015-08-13T10:35:20Z</time>
      </trkpt>
      <trkpt lat="42.3514630" lon="1.7234090">
        <ele>1071.3</ele>
        <time>2015-08-13T10:35:21Z</time>
      </trkpt>
      <trkpt lat="42.3514850" lon="1.7233680">
        <ele>1071.9</ele>
        <time>2015-08-13T10:35:22Z</time>
      </trkpt>
      <trkpt lat="42.3515270" lon="1.7233240">
        <ele>1072.3</ele>
        <time>2015-08-13T10:35:23Z</time>
      </trkpt>
      <trkpt lat="42.3515670" lon="1.7233100">
        <ele>1072.3</ele>
        <time>2015-08-13T10:35:24Z</time>
      </trkpt>
      <trkpt lat="42.3515840" lon="1.7232730">
        <ele>1072.8</ele>
        <time>2015-08-13T10:35:25Z</time>
      </trkpt>
      <trkpt lat="42.3516150" lon="1.7232470">
        <ele>1073.0</ele>
        <time>2015-08-13T10:35:26Z</time>
      </trkpt>
      <trkpt lat="42.3516540" lon="1.7232220">
        <ele>1073.1</ele>
        <time>2015-08-13T10:35:27Z</time>
      </trkpt>
      <trkpt lat="42.3516960" lon="1.7232250">
        <ele>1072.8</ele>
        <time>2015-08-13T10:35:28Z</time>
      </trkpt>
      <trkpt lat="42.3517360" lon="1.7232210">
        <ele>1072.6</ele>
        <time>2015-08-13T10:35:29Z</time>
      </trkpt>
      <trkpt lat="42.3517780" lon="1.7232160">
        <ele>1072.4</ele>
        <time>2015-08-13T10:35:30Z</time>
      </trkpt>
      <trkpt lat="42.3518140" lon="1.7232230">
        <ele>1072.0</ele>
        <time>2015-08-13T10:35:31Z</time>
      </trkpt>
      <trkpt lat="42.3518400" lon="1.7232330">
        <ele>1071.7</ele>
        <time>2015-08-13T10:35:32Z</time>
      </trkpt>
      <trkpt lat="42.3518690" lon="1.7232280">
        <ele>1071.6</ele>
        <time>2015-08-13T10:35:35Z</time>
      </trkpt>
      <trkpt lat="42.3519080" lon="1.7232200">
        <ele>1071.5</ele>
        <time>2015-08-13T10:35:38Z</time>
      </trkpt>
      <trkpt lat="42.3519360" lon="1.7232110">
        <ele>1071.4</ele>
        <time>2015-08-13T10:35:40Z</time>
      </trkpt>
      <trkpt lat="42.3519800" lon="1.7231980">
        <ele>1071.3</ele>
        <time>2015-08-13T10:35:43Z</time>
      </trkpt>
      <trkpt lat="42.3520140" lon="1.7231720">
        <ele>1071.5</ele>
        <time>2015-08-13T10:35:45Z</time>
      </trkpt>
      <trkpt lat="42.3520460" lon="1.7231380">
        <ele>1071.8</ele>
        <time>2015-08-13T10:35:47Z</time>
      </trkpt>
      <trkpt lat="42.3520710" lon="1.7231140">
        <ele>1072.0</ele>
        <time>2015-08-13T10:35:49Z</time>
      </trkpt>
      <trkpt lat="42.3520850" lon="1.7230610">
        <ele>1072.7</ele>
        <time>2015-08-13T10:35:51Z</time>
      </trkpt>
      <trkpt lat="42.3520980" lon="1.7230080">
        <ele>1073.3</ele>
        <time>2015-08-13T10:35:53Z</time>
      </trkpt>
      <trkpt lat="42.3521200" lon="1.7229730">
        <ele>1073.4</ele>
        <time>2015-08-13T10:35:56Z</time>
      </trkpt>
      <trkpt lat="42.3521290" lon="1.7229370">
        <ele>1073.8</ele>
        <time>2015-08-13T10:36:02Z</time>
      </trkpt>
      <trkpt lat="42.3521580" lon="1.7228900">
        <ele>1073.9</ele>
        <time>2015-08-13T10:36:05Z</time>
      </trkpt>
      <trkpt lat="42.3521740" lon="1.7228540">
        <ele>1074.2</ele>
        <time>2015-08-13T10:36:08Z</time>
      </trkpt>
      <trkpt lat="42.3522180" lon="1.7228460">
        <ele>1073.4</ele>
        <time>2015-08-13T10:36:10Z</time>
      </trkpt>
      <trkpt lat="42.3522370" lon="1.7228180">
        <ele>1073.5</ele>
        <time>2015-08-13T10:36:12Z</time>
      </trkpt>
      <trkpt lat="42.3522550" lon="1.7227800">
        <ele>1073.7</ele>
        <time>2015-08-13T10:36:14Z</time>
      </trkpt>
      <trkpt lat="42.3522630" lon="1.7227330">
        <ele>1074.3</ele>
        <time>2015-08-13T10:36:17Z</time>
      </trkpt>
      <trkpt lat="42.3522850" lon="1.7227080">
        <ele>1074.2</ele>
        <time>2015-08-13T10:36:18Z</time>
      </trkpt>
      <trkpt lat="42.3523220" lon="1.7226900">
        <ele>1073.7</ele>
        <time>2015-08-13T10:36:21Z</time>
      </trkpt>
      <trkpt lat="42.3523340" lon="1.7226110">
        <ele>1074.7</ele>
        <time>2015-08-13T10:36:23Z</time>
      </trkpt>
      <trkpt lat="42.3523420" lon="1.7225540">
        <ele>1075.4</ele>
        <time>2015-08-13T10:36:25Z</time>
      </trkpt>
      <trkpt lat="42.3523380" lon="1.7225100">
        <ele>1076.2</ele>
        <time>2015-08-13T10:36:28Z</time>
      </trkpt>
      <trkpt lat="42.3523670" lon="1.7224960">
        <ele>1075.8</ele>
        <time>2015-08-13T10:36:30Z</time>
      </trkpt>
      <trkpt lat="42.3523890" lon="1.7224690">
        <ele>1075.7</ele>
        <time>2015-08-13T10:36:32Z</time>
      </trkpt>
      <trkpt lat="42.3523890" lon="1.7224190">
        <ele>1076.5</ele>
        <time>2015-08-13T10:36:35Z</time>
      </trkpt>
      <trkpt lat="42.3524110" lon="1.7223690">
        <ele>1076.7</ele>
        <time>2015-08-13T10:36:39Z</time>
      </trkpt>
      <trkpt lat="42.3524270" lon="1.7223260">
        <ele>1077.0</ele>
        <time>2015-08-13T10:36:41Z</time>
      </trkpt>
      <trkpt lat="42.3524110" lon="1.7222870">
        <ele>1078.0</ele>
        <time>2015-08-13T10:36:45Z</time>
      </trkpt>
      <trkpt lat="42.3524070" lon="1.7222500">
        <ele>1078.7</ele>
        <time>2015-08-13T10:36:48Z</time>
      </trkpt>
      <trkpt lat="42.3523890" lon="1.7221990">
        <ele>1079.9</ele>
        <time>2015-08-13T10:36:51Z</time>
      </trkpt>
      <trkpt lat="42.3523820" lon="1.7221520">
        <ele>1080.8</ele>
        <time>2015-08-13T10:36:55Z</time>
      </trkpt>
      <trkpt lat="42.3523600" lon="1.7221280">
        <ele>1081.7</ele>
        <time>2015-08-13T10:36:59Z</time>
      </trkpt>
      <trkpt lat="42.3523190" lon="1.7221060">
        <ele>1083.0</ele>
        <time>2015-08-13T10:37:02Z</time>
      </trkpt>
      <trkpt lat="42.3523510" lon="1.7220720">
        <ele>1082.8</ele>
        <time>2015-08-13T10:37:05Z</time>
      </trkpt>
      <trkpt lat="42.3523530" lon="1.7220310">
        <ele>1083.5</ele>
        <time>2015-08-13T10:37:09Z</time>
      </trkpt>
      <trkpt lat="42.3523650" lon="1.7219830">
        <ele>1084.1</ele>
        <time>2015-08-13T10:37:18Z</time>
      </trkpt>
      <trkpt lat="42.3522970" lon="1.7219880">
        <ele>1085.7</ele>
        <time>2015-08-13T10:37:27Z</time>
      </trkpt>
      <trkpt lat="42.3522900" lon="1.7220250">
        <ele>1085.2</ele>
        <time>2015-08-13T10:37:29Z</time>
      </trkpt>
      <trkpt lat="42.3522560" lon="1.7220680">
        <ele>1085.2</ele>
        <time>2015-08-13T10:37:31Z</time>
      </trkpt>
      <trkpt lat="42.3522530" lon="1.7221150">
        <ele>1084.4</ele>
        <time>2015-08-13T10:37:35Z</time>
      </trkpt>
      <trkpt lat="42.3522430" lon="1.7221510">
        <ele>1084.1</ele>
        <time>2015-08-13T10:37:41Z</time>
      </trkpt>
      <trkpt lat="42.3522360" lon="1.7221880">
        <ele>1083.6</ele>
        <time>2015-08-13T10:37:43Z</time>
      </trkpt>
      <trkpt lat="42.3522410" lon="1.7222320">
        <ele>1082.8</ele>
        <time>2015-08-13T10:37:46Z</time>
      </trkpt>
      <trkpt lat="42.3522450" lon="1.7222890">
        <ele>1081.8</ele>
        <time>2015-08-13T10:37:48Z</time>
      </trkpt>
      <trkpt lat="42.3522330" lon="1.7223640">
        <ele>1080.9</ele>
        <time>2015-08-13T10:37:50Z</time>
      </trkpt>
      <trkpt lat="42.3522180" lon="1.7223980">
        <ele>1080.7</ele>
        <time>2015-08-13T10:37:51Z</time>
      </trkpt>
      <trkpt lat="42.3521970" lon="1.7224610">
        <ele>1080.1</ele>
        <time>2015-08-13T10:37:53Z</time>
      </trkpt>
      <trkpt lat="42.3521450" lon="1.7223780">
        <ele>1082.6</ele>
        <time>2015-08-13T10:37:54Z</time>
      </trkpt>
      <trkpt lat="42.3521180" lon="1.7223460">
        <ele>1083.8</ele>
        <time>2015-08-13T10:37:57Z</time>
      </trkpt>
      <trkpt lat="42.3520990" lon="1.7223050">
        <ele>1084.9</ele>
        <time>2015-08-13T10:37:59Z</time>
      </trkpt>
      <trkpt lat="42.3521070" lon="1.7222330">
        <ele>1085.9</ele>
        <time>2015-08-13T10:38:02Z</time>
      </trkpt>
      <trkpt lat="42.3520980" lon="1.7221980">
        <ele>1086.7</ele>
        <time>2015-08-13T10:38:06Z</time>
      </trkpt>
      <trkpt lat="42.3521030" lon="1.7221390">
        <ele>1087.6</ele>
        <time>2015-08-13T10:38:09Z</time>
      </trkpt>
      <trkpt lat="42.3521170" lon="1.7221050">
        <ele>1087.8</ele>
        <time>2015-08-13T10:38:12Z</time>
      </trkpt>
      <trkpt lat="42.3521140" lon="1.7220650">
        <ele>1088.7</ele>
        <time>2015-08-13T10:38:16Z</time>
      </trkpt>
      <trkpt lat="42.3521070" lon="1.7220250">
        <ele>1089.7</ele>
        <time>2015-08-13T10:38:18Z</time>
      </trkpt>
      <trkpt lat="42.3521200" lon="1.7219730">
        <ele>1090.5</ele>
        <time>2015-08-13T10:38:20Z</time>
      </trkpt>
      <trkpt lat="42.3521360" lon="1.7219170">
        <ele>1091.2</ele>
        <time>2015-08-13T10:38:22Z</time>
      </trkpt>
      <trkpt lat="42.3521410" lon="1.7218640">
        <ele>1092.2</ele>
        <time>2015-08-13T10:38:24Z</time>
      </trkpt>
      <trkpt lat="42.3521630" lon="1.7218370">
        <ele>1092.2</ele>
        <time>2015-08-13T10:38:31Z</time>
      </trkpt>
      <trkpt lat="42.3521650" lon="1.7217980">
        <ele>1092.9</ele>
        <time>2015-08-13T10:38:34Z</time>
      </trkpt>
      <trkpt lat="42.3521390" lon="1.7217570">
        <ele>1094.5</ele>
        <time>2015-08-13T10:38:36Z</time>
      </trkpt>
      <trkpt lat="42.3521460" lon="1.7217050">
        <ele>1095.4</ele>
        <time>2015-08-13T10:38:39Z</time>
      </trkpt>
      <trkpt lat="42.3521460" lon="1.7216520">
        <ele>1096.5</ele>
        <time>2015-08-13T10:38:42Z</time>
      </trkpt>
      <trkpt lat="42.3521370" lon="1.7216050">
        <ele>1097.7</ele>
        <time>2015-08-13T10:38:44Z</time>
      </trkpt>
      <trkpt lat="42.3521050" lon="1.7215770">
        <ele>1099.3</ele>
        <time>2015-08-13T10:38:49Z</time>
      </trkpt>
      <trkpt lat="42.3521050" lon="1.7215220">
        <ele>1100.5</ele>
        <time>2015-08-13T10:38:52Z</time>
      </trkpt>
      <trkpt lat="42.3521030" lon="1.7214730">
        <ele>1101.6</ele>
        <time>2015-08-13T10:38:55Z</time>
      </trkpt>
      <trkpt lat="42.3521170" lon="1.7214380">
        <ele>1101.9</ele>
        <time>2015-08-13T10:38:57Z</time>
      </trkpt>
      <trkpt lat="42.3521340" lon="1.7214000">
        <ele>1102.1</ele>
        <time>2015-08-13T10:39:00Z</time>
      </trkpt>
      <trkpt lat="42.3521700" lon="1.7213490">
        <ele>1102.0</ele>
        <time>2015-08-13T10:39:03Z</time>
      </trkpt>
      <trkpt lat="42.3521390" lon="1.7213210">
        <ele>1103.6</ele>
        <time>2015-08-13T10:39:05Z</time>
      </trkpt>
      <trkpt lat="42.3521550" lon="1.7212830">
        <ele>1103.9</ele>
        <time>2015-08-13T10:39:07Z</time>
      </trkpt>
      <trkpt lat="42.3521760" lon="1.7212370">
        <ele>1104.2</ele>
        <time>2015-08-13T10:39:10Z</time>
      </trkpt>
      <trkpt lat="42.3521720" lon="1.7211900">
        <ele>1105.4</ele>
        <time>2015-08-13T10:39:12Z</time>
      </trkpt>
      <trkpt lat="42.3521830" lon="1.7211280">
        <ele>1106.6</ele>
        <time>2015-08-13T10:39:16Z</time>
      </trkpt>
      <trkpt lat="42.3521730" lon="1.7210880">
        <ele>1107.8</ele>
        <time>2015-08-13T10:39:23Z</time>
      </trkpt>
      <trkpt lat="42.3521630" lon="1.7210430">
        <ele>1109.2</ele>
        <time>2015-08-13T10:39:26Z</time>
      </trkpt>
      <trkpt lat="42.3521720" lon="1.7209980">
        <ele>1110.0</ele>
        <time>2015-08-13T10:39:28Z</time>
      </trkpt>
      <trkpt lat="42.3521930" lon="1.7209320">
        <ele>1110.9</ele>
        <time>2015-08-13T10:39:31Z</time>
      </trkpt>
      <trkpt lat="42.3522130" lon="1.7208780">
        <ele>1111.6</ele>
        <time>2015-08-13T10:39:33Z</time>
      </trkpt>
      <trkpt lat="42.3522360" lon="1.7208510">
        <ele>1111.6</ele>
        <time>2015-08-13T10:39:34Z</time>
      </trkpt>
      <trkpt lat="42.3522440" lon="1.7208130">
        <ele>1112.3</ele>
        <time>2015-08-13T10:39:37Z</time>
      </trkpt>
      <trkpt lat="42.3522440" lon="1.7207640">
        <ele>1113.5</ele>
        <time>2015-08-13T10:39:39Z</time>
      </trkpt>
      <trkpt lat="42.3522630" lon="1.7207320">
        <ele>1113.7</ele>
        <time>2015-08-13T10:39:41Z</time>
      </trkpt>
      <trkpt lat="42.3522710" lon="1.7206930">
        <ele>1114.4</ele>
        <time>2015-08-13T10:39:43Z</time>
      </trkpt>
      <trkpt lat="42.3522730" lon="1.7206510">
        <ele>1115.4</ele>
        <time>2015-08-13T10:39:46Z</time>
      </trkpt>
      <trkpt lat="42.3523180" lon="1.7206120">
        <ele>1115.2</ele>
        <time>2015-08-13T10:39:48Z</time>
      </trkpt>
      <trkpt lat="42.3523030" lon="1.7205720">
        <ele>1116.6</ele>
        <time>2015-08-13T10:39:50Z</time>
      </trkpt>
      <trkpt lat="42.3523190" lon="1.7205240">
        <ele>1117.4</ele>
        <time>2015-08-13T10:39:53Z</time>
      </trkpt>
      <trkpt lat="42.3523290" lon="1.7204900">
        <ele>1118.0</ele>
        <time>2015-08-13T10:39:55Z</time>
      </trkpt>
      <trkpt lat="42.3523510" lon="1.7204620">
        <ele>1118.1</ele>
        <time>2015-08-13T10:39:59Z</time>
      </trkpt>
      <trkpt lat="42.3523560" lon="1.7204170">
        <ele>1119.1</ele>
        <time>2015-08-13T10:40:03Z</time>
      </trkpt>
      <trkpt lat="42.3523500" lon="1.7203630">
        <ele>1120.8</ele>
        <time>2015-08-13T10:40:05Z</time>
      </trkpt>
      <trkpt lat="42.3523620" lon="1.7203160">
        <ele>1121.8</ele>
        <time>2015-08-13T10:40:10Z</time>
      </trkpt>
      <trkpt lat="42.3523770" lon="1.7202830">
        <ele>1122.3</ele>
        <time>2015-08-13T10:40:13Z</time>
      </trkpt>
      <trkpt lat="42.3524020" lon="1.7202500">
        <ele>1122.7</ele>
        <time>2015-08-13T10:40:18Z</time>
      </trkpt>
      <trkpt lat="42.3523800" lon="1.7202200">
        <ele>1124.0</ele>
        <time>2015-08-13T10:40:21Z</time>
      </trkpt>
      <trkpt lat="42.3524330" lon="1.7202210">
        <ele>1122.8</ele>
        <time>2015-08-13T10:40:24Z</time>
      </trkpt>
      <trkpt lat="42.3524550" lon="1.7201950">
        <ele>1123.0</ele>
        <time>2015-08-13T10:40:26Z</time>
      </trkpt>
      <trkpt lat="42.3524830" lon="1.7201670">
        <ele>1123.2</ele>
        <time>2015-08-13T10:40:29Z</time>
      </trkpt>
      <trkpt lat="42.3524980" lon="1.7201210">
        <ele>1124.2</ele>
        <time>2015-08-13T10:40:33Z</time>
      </trkpt>
      <trkpt lat="42.3525050" lon="1.7200720">
        <ele>1125.5</ele>
        <time>2015-08-13T10:40:35Z</time>
      </trkpt>
      <trkpt lat="42.3525070" lon="1.7200310">
        <ele>1126.7</ele>
        <time>2015-08-13T10:40:38Z</time>
      </trkpt>
      <trkpt lat="42.3525170" lon="1.7199950">
        <ele>1127.6</ele>
        <time>2015-08-13T10:40:42Z</time>
      </trkpt>
      <trkpt lat="42.3525100" lon="1.7199470">
        <ele>1129.1</ele>
        <time>2015-08-13T10:40:46Z</time>
      </trkpt>
      <trkpt lat="42.3525250" lon="1.7199160">
        <ele>1129.8</ele>
        <time>2015-08-13T10:40:48Z</time>
      </trkpt>
      <trkpt lat="42.3525280" lon="1.7198720">
        <ele>1131.0</ele>
        <time>2015-08-13T10:40:51Z</time>
      </trkpt>
      <trkpt lat="42.3525120" lon="1.7198420">
        <ele>1132.2</ele>
        <time>2015-08-13T10:40:53Z</time>
      </trkpt>
      <trkpt lat="42.3525230" lon="1.7198020">
        <ele>1133.2</ele>
        <time>2015-08-13T10:40:58Z</time>
      </trkpt>
      <trkpt lat="42.3525380" lon="1.7197680">
        <ele>1133.9</ele>
        <time>2015-08-13T10:41:00Z</time>
      </trkpt>
      <trkpt lat="42.3525460" lon="1.7197300">
        <ele>1134.9</ele>
        <time>2015-08-13T10:41:02Z</time>
      </trkpt>
      <trkpt lat="42.3525820" lon="1.7196860">
        <ele>1135.7</ele>
        <time>2015-08-13T10:41:05Z</time>
      </trkpt>
      <trkpt lat="42.3526100" lon="1.7196630">
        <ele>1136.0</ele>
        <time>2015-08-13T10:41:07Z</time>
      </trkpt>
      <trkpt lat="42.3526260" lon="1.7196270">
        <ele>1136.8</ele>
        <time>2015-08-13T10:41:10Z</time>
      </trkpt>
      <trkpt lat="42.3526510" lon="1.7195900">
        <ele>1137.6</ele>
        <time>2015-08-13T10:41:14Z</time>
      </trkpt>
      <trkpt lat="42.3526880" lon="1.7196050">
        <ele>1136.6</ele>
        <time>2015-08-13T10:41:16Z</time>
      </trkpt>
      <trkpt lat="42.3527230" lon="1.7195910">
        <ele>1136.5</ele>
        <time>2015-08-13T10:41:18Z</time>
      </trkpt>
      <trkpt lat="42.3527510" lon="1.7195860">
        <ele>1136.3</ele>
        <time>2015-08-13T10:41:21Z</time>
      </trkpt>
      <trkpt lat="42.3527540" lon="1.7195470">
        <ele>1137.0</ele>
        <time>2015-08-13T10:41:23Z</time>
      </trkpt>
      <trkpt lat="42.3527880" lon="1.7195080">
        <ele>1137.2</ele>
        <time>2015-08-13T10:41:26Z</time>
      </trkpt>
      <trkpt lat="42.3528260" lon="1.7194900">
        <ele>1137.0</ele>
        <time>2015-08-13T10:41:28Z</time>
      </trkpt>
      <trkpt lat="42.3528250" lon="1.7194490">
        <ele>1137.7</ele>
        <time>2015-08-13T10:41:31Z</time>
      </trkpt>
      <trkpt lat="42.3528110" lon="1.7194140">
        <ele>1138.6</ele>
        <time>2015-08-13T10:41:33Z</time>
      </trkpt>
      <trkpt lat="42.3527940" lon="1.7193790">
        <ele>1139.4</ele>
        <time>2015-08-13T10:41:35Z</time>
      </trkpt>
      <trkpt lat="42.3528290" lon="1.7193630">
        <ele>1139.2</ele>
        <time>2015-08-13T10:41:38Z</time>
      </trkpt>
      <trkpt lat="42.3528720" lon="1.7193340">
        <ele>1139.1</ele>
        <time>2015-08-13T10:41:41Z</time>
      </trkpt>
      <trkpt lat="42.3529000" lon="1.7193320">
        <ele>1138.8</ele>
        <time>2015-08-13T10:41:42Z</time>
      </trkpt>
      <trkpt lat="42.3529080" lon="1.7192960">
        <ele>1139.3</ele>
        <time>2015-08-13T10:41:43Z</time>
      </trkpt>
      <trkpt lat="42.3529320" lon="1.7193140">
        <ele>1138.2</ele>
        <time>2015-08-13T10:41:44Z</time>
      </trkpt>
      <trkpt lat="42.3529630" lon="1.7192940">
        <ele>1137.4</ele>
        <time>2015-08-13T10:41:46Z</time>
      </trkpt>
      <trkpt lat="42.3529900" lon="1.7192670">
        <ele>1136.8</ele>
        <time>2015-08-13T10:41:52Z</time>
      </trkpt>
      <trkpt lat="42.3530090" lon="1.7192390">
        <ele>1136.6</ele>
        <time>2015-08-13T10:41:54Z</time>
      </trkpt>
      <trkpt lat="42.3530370" lon="1.7192210">
        <ele>1135.8</ele>
        <time>2015-08-13T10:41:56Z</time>
      </trkpt>
      <trkpt lat="42.3530650" lon="1.7192010">
        <ele>1135.1</ele>
        <time>2015-08-13T10:42:01Z</time>
      </trkpt>
      <trkpt lat="42.3530940" lon="1.7192020">
        <ele>1134.0</ele>
        <time>2015-08-13T10:42:04Z</time>
      </trkpt>
      <trkpt lat="42.3531150" lon="1.7191640">
        <ele>1133.9</ele>
        <time>2015-08-13T10:42:11Z</time>
      </trkpt>
      <trkpt lat="42.3531390" lon="1.7191420">
        <ele>1133.5</ele>
        <time>2015-08-13T10:42:14Z</time>
      </trkpt>
      <trkpt lat="42.3531500" lon="1.7190790">
        <ele>1134.3</ele>
        <time>2015-08-13T10:42:18Z</time>
      </trkpt>
      <trkpt lat="42.3531610" lon="1.7190360">
        <ele>1134.7</ele>
        <time>2015-08-13T10:42:21Z</time>
      </trkpt>
      <trkpt lat="42.3531560" lon="1.7189980">
        <ele>1135.7</ele>
        <time>2015-08-13T10:42:23Z</time>
      </trkpt>
      <trkpt lat="42.3531520" lon="1.7189550">
        <ele>1136.7</ele>
        <time>2015-08-13T10:42:25Z</time>
      </trkpt>
      <trkpt lat="42.3531150" lon="1.7189370">
        <ele>1138.4</ele>
        <time>2015-08-13T10:42:27Z</time>
      </trkpt>
      <trkpt lat="42.3531000" lon="1.7189030">
        <ele>1139.6</ele>
        <time>2015-08-13T10:42:29Z</time>
      </trkpt>
      <trkpt lat="42.3531210" lon="1.7188650">
        <ele>1139.6</ele>
        <time>2015-08-13T10:42:31Z</time>
      </trkpt>
      <trkpt lat="42.3531440" lon="1.7188350">
        <ele>1139.4</ele>
        <time>2015-08-13T10:42:33Z</time>
      </trkpt>
      <trkpt lat="42.3531530" lon="1.7187820">
        <ele>1140.1</ele>
        <time>2015-08-13T10:42:36Z</time>
      </trkpt>
      <trkpt lat="42.3531690" lon="1.7187420">
        <ele>1140.3</ele>
        <time>2015-08-13T10:42:38Z</time>
      </trkpt>
      <trkpt lat="42.3531890" lon="1.7187010">
        <ele>1140.2</ele>
        <time>2015-08-13T10:42:40Z</time>
      </trkpt>
      <trkpt lat="42.3532280" lon="1.7186750">
        <ele>1139.3</ele>
        <time>2015-08-13T10:42:43Z</time>
      </trkpt>
      <trkpt lat="42.3532490" lon="1.7186470">
        <ele>1139.0</ele>
        <time>2015-08-13T10:42:45Z</time>
      </trkpt>
      <trkpt lat="42.3532780" lon="1.7186120">
        <ele>1138.6</ele>
        <time>2015-08-13T10:42:48Z</time>
      </trkpt>
      <trkpt lat="42.3532940" lon="1.7185790">
        <ele>1138.6</ele>
        <time>2015-08-13T10:42:51Z</time>
      </trkpt>
      <trkpt lat="42.3533030" lon="1.7185360">
        <ele>1139.0</ele>
        <time>2015-08-13T10:42:54Z</time>
      </trkpt>
      <trkpt lat="42.3533220" lon="1.7184900">
        <ele>1139.1</ele>
        <time>2015-08-13T10:42:58Z</time>
      </trkpt>
      <trkpt lat="42.3533350" lon="1.7184450">
        <ele>1139.4</ele>
        <time>2015-08-13T10:43:02Z</time>
      </trkpt>
      <trkpt lat="42.3533600" lon="1.7184260">
        <ele>1138.9</ele>
        <time>2015-08-13T10:43:04Z</time>
      </trkpt>
      <trkpt lat="42.3533830" lon="1.7183820">
        <ele>1138.9</ele>
        <time>2015-08-13T10:43:07Z</time>
      </trkpt>
      <trkpt lat="42.3533980" lon="1.7183230">
        <ele>1139.4</ele>
        <time>2015-08-13T10:43:10Z</time>
      </trkpt>
      <trkpt lat="42.3534030" lon="1.7182760">
        <ele>1140.1</ele>
        <time>2015-08-13T10:43:12Z</time>
      </trkpt>
      <trkpt lat="42.3533930" lon="1.7182420">
        <ele>1141.0</ele>
        <time>2015-08-13T10:43:14Z</time>
      </trkpt>
      <trkpt lat="42.3533830" lon="1.7181940">
        <ele>1142.1</ele>
        <time>2015-08-13T10:43:16Z</time>
      </trkpt>
      <trkpt lat="42.3533770" lon="1.7181480">
        <ele>1143.0</ele>
        <time>2015-08-13T10:43:18Z</time>
      </trkpt>
      <trkpt lat="42.3533790" lon="1.7180980">
        <ele>1143.8</ele>
        <time>2015-08-13T10:43:20Z</time>
      </trkpt>
      <trkpt lat="42.3533900" lon="1.7180630">
        <ele>1144.0</ele>
        <time>2015-08-13T10:43:22Z</time>
      </trkpt>
      <trkpt lat="42.3533910" lon="1.7180230">
        <ele>1144.7</ele>
        <time>2015-08-13T10:43:24Z</time>
      </trkpt>
      <trkpt lat="42.3534140" lon="1.7179790">
        <ele>1144.8</ele>
        <time>2015-08-13T10:43:27Z</time>
      </trkpt>
      <trkpt lat="42.3534440" lon="1.7179420">
        <ele>1144.6</ele>
        <time>2015-08-13T10:43:30Z</time>
      </trkpt>
      <trkpt lat="42.3534710" lon="1.7179110">
        <ele>1144.4</ele>
        <time>2015-08-13T10:43:32Z</time>
      </trkpt>
      <trkpt lat="42.3534810" lon="1.7178750">
        <ele>1144.6</ele>
        <time>2015-08-13T10:43:34Z</time>
      </trkpt>
      <trkpt lat="42.3534890" lon="1.7178350">
        <ele>1144.8</ele>
        <time>2015-08-13T10:43:36Z</time>
      </trkpt>
      <trkpt lat="42.3535040" lon="1.7177950">
        <ele>1144.9</ele>
        <time>2015-08-13T10:43:39Z</time>
      </trkpt>
      <trkpt lat="42.3535110" lon="1.7177510">
        <ele>1145.2</ele>
        <time>2015-08-13T10:43:41Z</time>
      </trkpt>
      <trkpt lat="42.3535140" lon="1.7177100">
        <ele>1145.5</ele>
        <time>2015-08-13T10:43:43Z</time>
      </trkpt>
      <trkpt lat="42.3535240" lon="1.7176700">
        <ele>1145.7</ele>
        <time>2015-08-13T10:43:45Z</time>
      </trkpt>
      <trkpt lat="42.3535500" lon="1.7176280">
        <ele>1145.5</ele>
        <time>2015-08-13T10:43:47Z</time>
      </trkpt>
      <trkpt lat="42.3535690" lon="1.7175890">
        <ele>1145.4</ele>
        <time>2015-08-13T10:43:50Z</time>
      </trkpt>
      <trkpt lat="42.3535910" lon="1.7175320">
        <ele>1145.4</ele>
        <time>2015-08-13T10:43:53Z</time>
      </trkpt>
      <trkpt lat="42.3536040" lon="1.7174960">
        <ele>1145.5</ele>
        <time>2015-08-13T10:43:55Z</time>
      </trkpt>
      <trkpt lat="42.3536210" lon="1.7174540">
        <ele>1145.5</ele>
        <time>2015-08-13T10:43:57Z</time>
      </trkpt>
      <trkpt lat="42.3536320" lon="1.7173940">
        <ele>1145.8</ele>
        <time>2015-08-13T10:43:59Z</time>
      </trkpt>
      <trkpt lat="42.3536420" lon="1.7173550">
        <ele>1146.0</ele>
        <time>2015-08-13T10:44:01Z</time>
      </trkpt>
      <trkpt lat="42.3536560" lon="1.7173140">
        <ele>1146.1</ele>
        <time>2015-08-13T10:44:03Z</time>
      </trkpt>
      <trkpt lat="42.3536730" lon="1.7172820">
        <ele>1146.0</ele>
        <time>2015-08-13T10:44:05Z</time>
      </trkpt>
      <trkpt lat="42.3536910" lon="1.7172470">
        <ele>1145.8</ele>
        <time>2015-08-13T10:44:08Z</time>
      </trkpt>
      <trkpt lat="42.3537150" lon="1.7172180">
        <ele>1145.5</ele>
        <time>2015-08-13T10:44:10Z</time>
      </trkpt>
      <trkpt lat="42.3537180" lon="1.7171780">
        <ele>1145.9</ele>
        <time>2015-08-13T10:44:13Z</time>
      </trkpt>
      <trkpt lat="42.3537380" lon="1.7171370">
        <ele>1145.8</ele>
        <time>2015-08-13T10:44:16Z</time>
      </trkpt>
      <trkpt lat="42.3537350" lon="1.7170860">
        <ele>1146.4</ele>
        <time>2015-08-13T10:44:19Z</time>
      </trkpt>
      <trkpt lat="42.3537330" lon="1.7170480">
        <ele>1146.5</ele>
        <time>2015-08-13T10:44:21Z</time>
      </trkpt>
      <trkpt lat="42.3537470" lon="1.7170150">
        <ele>1146.2</ele>
        <time>2015-08-13T10:44:23Z</time>
      </trkpt>
      <trkpt lat="42.3537620" lon="1.7169680">
        <ele>1145.7</ele>
        <time>2015-08-13T10:44:26Z</time>
      </trkpt>
      <trkpt lat="42.3537770" lon="1.7169300">
        <ele>1145.3</ele>
        <time>2015-08-13T10:44:28Z</time>
      </trkpt>
      <trkpt lat="42.3537790" lon="1.7168930">
        <ele>1145.3</ele>
        <time>2015-08-13T10:44:30Z</time>
      </trkpt>
      <trkpt lat="42.3537740" lon="1.7168550">
        <ele>1145.5</ele>
        <time>2015-08-13T10:44:32Z</time>
      </trkpt>
      <trkpt lat="42.3537680" lon="1.7168080">
        <ele>1145.8</ele>
        <time>2015-08-13T10:44:35Z</time>
      </trkpt>
      <trkpt lat="42.3537910" lon="1.7167800">
        <ele>1145.2</ele>
        <time>2015-08-13T10:44:37Z</time>
      </trkpt>
      <trkpt lat="42.3538000" lon="1.7167460">
        <ele>1145.0</ele>
        <time>2015-08-13T10:44:39Z</time>
      </trkpt>
      <trkpt lat="42.3537790" lon="1.7167060">
        <ele>1145.7</ele>
        <time>2015-08-13T10:44:42Z</time>
      </trkpt>
      <trkpt lat="42.3537560" lon="1.7166680">
        <ele>1146.3</ele>
        <time>2015-08-13T10:44:44Z</time>
      </trkpt>
      <trkpt lat="42.3537590" lon="1.7166210">
        <ele>1146.3</ele>
        <time>2015-08-13T10:44:46Z</time>
      </trkpt>
      <trkpt lat="42.3537400" lon="1.7165540">
        <ele>1146.9</ele>
        <time>2015-08-13T10:44:49Z</time>
      </trkpt>
      <trkpt lat="42.3537320" lon="1.7165050">
        <ele>1147.2</ele>
        <time>2015-08-13T10:44:51Z</time>
      </trkpt>
      <trkpt lat="42.3537350" lon="1.7164590">
        <ele>1147.2</ele>
        <time>2015-08-13T10:44:53Z</time>
      </trkpt>
      <trkpt lat="42.3537110" lon="1.7164370">
        <ele>1148.0</ele>
        <time>2015-08-13T10:44:54Z</time>
      </trkpt>
      <trkpt lat="42.3536760" lon="1.7164140">
        <ele>1149.1</ele>
        <time>2015-08-13T10:44:57Z</time>
      </trkpt>
      <trkpt lat="42.3536490" lon="1.7164000">
        <ele>1149.9</ele>
        <time>2015-08-13T10:44:59Z</time>
      </trkpt>
      <trkpt lat="42.3536250" lon="1.7163620">
        <ele>1150.7</ele>
        <time>2015-08-13T10:45:01Z</time>
      </trkpt>
      <trkpt lat="42.3535960" lon="1.7163150">
        <ele>1151.7</ele>
        <time>2015-08-13T10:45:03Z</time>
      </trkpt>
      <trkpt lat="42.3535670" lon="1.7162800">
        <ele>1152.6</ele>
        <time>2015-08-13T10:45:05Z</time>
      </trkpt>
      <trkpt lat="42.3535470" lon="1.7162480">
        <ele>1153.4</ele>
        <time>2015-08-13T10:45:06Z</time>
      </trkpt>
      <trkpt lat="42.3535290" lon="1.7162190">
        <ele>1154.3</ele>
        <time>2015-08-13T10:45:07Z</time>
      </trkpt>
      <trkpt lat="42.3535230" lon="1.7161750">
        <ele>1155.0</ele>
        <time>2015-08-13T10:45:08Z</time>
      </trkpt>
      <trkpt lat="42.3535080" lon="1.7161340">
        <ele>1155.9</ele>
        <time>2015-08-13T10:45:09Z</time>
      </trkpt>
      <trkpt lat="42.3534950" lon="1.7160950">
        <ele>1156.7</ele>
        <time>2015-08-13T10:45:10Z</time>
      </trkpt>
      <trkpt lat="42.3534830" lon="1.7160530">
        <ele>1157.6</ele>
        <time>2015-08-13T10:45:11Z</time>
      </trkpt>
      <trkpt lat="42.3534760" lon="1.7160110">
        <ele>1158.2</ele>
        <time>2015-08-13T10:45:12Z</time>
      </trkpt>
      <trkpt lat="42.3535040" lon="1.7159870">
        <ele>1157.8</ele>
        <time>2015-08-13T10:45:13Z</time>
      </trkpt>
      <trkpt lat="42.3535280" lon="1.7159420">
        <ele>1157.6</ele>
        <time>2015-08-13T10:45:14Z</time>
      </trkpt>
      <trkpt lat="42.3535490" lon="1.7159100">
        <ele>1157.5</ele>
        <time>2015-08-13T10:45:15Z</time>
      </trkpt>
      <trkpt lat="42.3535750" lon="1.7158790">
        <ele>1157.2</ele>
        <time>2015-08-13T10:45:16Z</time>
      </trkpt>
      <trkpt lat="42.3536290" lon="1.7158670">
        <ele>1156.0</ele>
        <time>2015-08-13T10:45:18Z</time>
      </trkpt>
      <trkpt lat="42.3536650" lon="1.7158450">
        <ele>1155.4</ele>
        <time>2015-08-13T10:45:20Z</time>
      </trkpt>
      <trkpt lat="42.3536910" lon="1.7158320">
        <ele>1155.0</ele>
        <time>2015-08-13T10:45:22Z</time>
      </trkpt>
      <trkpt lat="42.3537210" lon="1.7158270">
        <ele>1154.3</ele>
        <time>2015-08-13T10:45:25Z</time>
      </trkpt>
      <trkpt lat="42.3537540" lon="1.7157920">
        <ele>1154.1</ele>
        <time>2015-08-13T10:45:28Z</time>
      </trkpt>
      <trkpt lat="42.3537970" lon="1.7157810">
        <ele>1153.6</ele>
        <time>2015-08-13T10:45:30Z</time>
      </trkpt>
      <trkpt lat="42.3538390" lon="1.7157710">
        <ele>1153.1</ele>
        <time>2015-08-13T10:45:32Z</time>
      </trkpt>
      <trkpt lat="42.3538800" lon="1.7157720">
        <ele>1152.5</ele>
        <time>2015-08-13T10:45:35Z</time>
      </trkpt>
      <trkpt lat="42.3539200" lon="1.7157570">
        <ele>1152.2</ele>
        <time>2015-08-13T10:45:37Z</time>
      </trkpt>
      <trkpt lat="42.3539630" lon="1.7157660">
        <ele>1151.4</ele>
        <time>2015-08-13T10:45:39Z</time>
      </trkpt>
      <trkpt lat="42.3539960" lon="1.7157570">
        <ele>1151.0</ele>
        <time>2015-08-13T10:45:41Z</time>
      </trkpt>
      <trkpt lat="42.3540380" lon="1.7157340">
        <ele>1150.8</ele>
        <time>2015-08-13T10:45:43Z</time>
      </trkpt>
      <trkpt lat="42.3540730" lon="1.7157050">
        <ele>1150.7</ele>
        <time>2015-08-13T10:45:45Z</time>
      </trkpt>
      <trkpt lat="42.3541100" lon="1.7156720">
        <ele>1150.7</ele>
        <time>2015-08-13T10:45:48Z</time>
      </trkpt>
      <trkpt lat="42.3541400" lon="1.7156720">
        <ele>1150.3</ele>
        <time>2015-08-13T10:45:50Z</time>
      </trkpt>
      <trkpt lat="42.3541820" lon="1.7156520">
        <ele>1150.0</ele>
        <time>2015-08-13T10:45:52Z</time>
      </trkpt>
      <trkpt lat="42.3542210" lon="1.7156320">
        <ele>1149.7</ele>
        <time>2015-08-13T10:45:54Z</time>
      </trkpt>
      <trkpt lat="42.3542440" lon="1.7155930">
        <ele>1150.0</ele>
        <time>2015-08-13T10:45:57Z</time>
      </trkpt>
      <trkpt lat="42.3542720" lon="1.7155640">
        <ele>1150.1</ele>
        <time>2015-08-13T10:45:59Z</time>
      </trkpt>
      <trkpt lat="42.3542920" lon="1.7155350">
        <ele>1150.3</ele>
        <time>2015-08-13T10:46:00Z</time>
      </trkpt>
      <trkpt lat="42.3543230" lon="1.7154950">
        <ele>1150.5</ele>
        <time>2015-08-13T10:46:02Z</time>
      </trkpt>
      <trkpt lat="42.3543690" lon="1.7154780">
        <ele>1150.1</ele>
        <time>2015-08-13T10:46:04Z</time>
      </trkpt>
      <trkpt lat="42.3543880" lon="1.7154260">
        <ele>1150.7</ele>
        <time>2015-08-13T10:46:06Z</time>
      </trkpt>
      <trkpt lat="42.3544130" lon="1.7153830">
        <ele>1150.7</ele>
        <time>2015-08-13T10:46:08Z</time>
      </trkpt>
      <trkpt lat="42.3544350" lon="1.7153410">
        <ele>1150.7</ele>
        <time>2015-08-13T10:46:10Z</time>
      </trkpt>
      <trkpt lat="42.3544580" lon="1.7153010">
        <ele>1150.6</ele>
        <time>2015-08-13T10:46:12Z</time>
      </trkpt>
      <trkpt lat="42.3544690" lon="1.7152620">
        <ele>1150.7</ele>
        <time>2015-08-13T10:46:14Z</time>
      </trkpt>
      <trkpt lat="42.3544980" lon="1.7152150">
        <ele>1150.5</ele>
        <time>2015-08-13T10:46:16Z</time>
      </trkpt>
      <trkpt lat="42.3545240" lon="1.7151870">
        <ele>1150.3</ele>
        <time>2015-08-13T10:46:18Z</time>
      </trkpt>
      <trkpt lat="42.3545360" lon="1.7151540">
        <ele>1150.3</ele>
        <time>2015-08-13T10:46:19Z</time>
      </trkpt>
      <trkpt lat="42.3545510" lon="1.7150980">
        <ele>1150.4</ele>
        <time>2015-08-13T10:46:21Z</time>
      </trkpt>
      <trkpt lat="42.3545420" lon="1.7150450">
        <ele>1150.9</ele>
        <time>2015-08-13T10:46:23Z</time>
      </trkpt>
      <trkpt lat="42.3545710" lon="1.7150000">
        <ele>1150.7</ele>
        <time>2015-08-13T10:46:25Z</time>
      </trkpt>
      <trkpt lat="42.3545750" lon="1.7149420">
        <ele>1151.0</ele>
        <time>2015-08-13T10:46:27Z</time>
      </trkpt>
      <trkpt lat="42.3545800" lon="1.7148910">
        <ele>1151.2</ele>
        <time>2015-08-13T10:46:29Z</time>
      </trkpt>
      <trkpt lat="42.3545890" lon="1.7148240">
        <ele>1151.4</ele>
        <time>2015-08-13T10:46:31Z</time>
      </trkpt>
      <trkpt lat="42.3545940" lon="1.7147870">
        <ele>1151.6</ele>
        <time>2015-08-13T10:46:33Z</time>
      </trkpt>
      <trkpt lat="42.3546010" lon="1.7147470">
        <ele>1151.6</ele>
        <time>2015-08-13T10:46:35Z</time>
      </trkpt>
      <trkpt lat="42.3546000" lon="1.7146930">
        <ele>1152.0</ele>
        <time>2015-08-13T10:46:37Z</time>
      </trkpt>
      <trkpt lat="42.3545840" lon="1.7146640">
        <ele>1152.5</ele>
        <time>2015-08-13T10:46:38Z</time>
      </trkpt>
      <trkpt lat="42.3545800" lon="1.7146180">
        <ele>1152.9</ele>
        <time>2015-08-13T10:46:39Z</time>
      </trkpt>
      <trkpt lat="42.3545710" lon="1.7145610">
        <ele>1153.3</ele>
        <time>2015-08-13T10:46:41Z</time>
      </trkpt>
      <trkpt lat="42.3545520" lon="1.7145150">
        <ele>1153.9</ele>
        <time>2015-08-13T10:46:43Z</time>
      </trkpt>
      <trkpt lat="42.3545410" lon="1.7144650">
        <ele>1154.4</ele>
        <time>2015-08-13T10:46:45Z</time>
      </trkpt>
      <trkpt lat="42.3545290" lon="1.7144240">
        <ele>1154.8</ele>
        <time>2015-08-13T10:46:47Z</time>
      </trkpt>
      <trkpt lat="42.3545140" lon="1.7143930">
        <ele>1155.2</ele>
        <time>2015-08-13T10:46:49Z</time>
      </trkpt>
      <trkpt lat="42.3545000" lon="1.7143520">
        <ele>1155.6</ele>
        <time>2015-08-13T10:46:51Z</time>
      </trkpt>
      <trkpt lat="42.3544890" lon="1.7142900">
        <ele>1156.1</ele>
        <time>2015-08-13T10:46:53Z</time>
      </trkpt>
      <trkpt lat="42.3544760" lon="1.7142270">
        <ele>1156.6</ele>
        <time>2015-08-13T10:46:55Z</time>
      </trkpt>
      <trkpt lat="42.3544640" lon="1.7141790">
        <ele>1157.0</ele>
        <time>2015-08-13T10:46:57Z</time>
      </trkpt>
      <trkpt lat="42.3544340" lon="1.7141230">
        <ele>1157.7</ele>
        <time>2015-08-13T10:46:59Z</time>
      </trkpt>
      <trkpt lat="42.3544240" lon="1.7140860">
        <ele>1158.0</ele>
        <time>2015-08-13T10:47:00Z</time>
      </trkpt>
      <trkpt lat="42.3544050" lon="1.7140340">
        <ele>1158.5</ele>
        <time>2015-08-13T10:47:02Z</time>
      </trkpt>
      <trkpt lat="42.3543840" lon="1.7139840">
        <ele>1159.0</ele>
        <time>2015-08-13T10:47:04Z</time>
      </trkpt>
      <trkpt lat="42.3543690" lon="1.7139290">
        <ele>1159.4</ele>
        <time>2015-08-13T10:47:06Z</time>
      </trkpt>
      <trkpt lat="42.3543410" lon="1.7138770">
        <ele>1160.1</ele>
        <time>2015-08-13T10:47:08Z</time>
      </trkpt>
      <trkpt lat="42.3543160" lon="1.7138330">
        <ele>1160.6</ele>
        <time>2015-08-13T10:47:10Z</time>
      </trkpt>
      <trkpt lat="42.3542830" lon="1.7137920">
        <ele>1161.2</ele>
        <time>2015-08-13T10:47:12Z</time>
      </trkpt>
      <trkpt lat="42.3542570" lon="1.7137540">
        <ele>1161.7</ele>
        <time>2015-08-13T10:47:14Z</time>
      </trkpt>
      <trkpt lat="42.3542330" lon="1.7137130">
        <ele>1162.1</ele>
        <time>2015-08-13T10:47:15Z</time>
      </trkpt>
      <trkpt lat="42.3542330" lon="1.7136640">
        <ele>1162.1</ele>
        <time>2015-08-13T10:47:17Z</time>
      </trkpt>
      <trkpt lat="42.3542220" lon="1.7136070">
        <ele>1162.3</ele>
        <time>2015-08-13T10:47:19Z</time>
      </trkpt>
      <trkpt lat="42.3541890" lon="1.7135510">
        <ele>1162.7</ele>
        <time>2015-08-13T10:47:21Z</time>
      </trkpt>
      <trkpt lat="42.3541890" lon="1.7134950">
        <ele>1162.7</ele>
        <time>2015-08-13T10:47:24Z</time>
      </trkpt>
      <trkpt lat="42.3541870" lon="1.7134360">
        <ele>1162.8</ele>
        <time>2015-08-13T10:47:26Z</time>
      </trkpt>
      <trkpt lat="42.3542250" lon="1.7134260">
        <ele>1162.4</ele>
        <time>2015-08-13T10:47:28Z</time>
      </trkpt>
      <trkpt lat="42.3542330" lon="1.7133670">
        <ele>1162.3</ele>
        <time>2015-08-13T10:47:30Z</time>
      </trkpt>
      <trkpt lat="42.3542310" lon="1.7133250">
        <ele>1162.4</ele>
        <time>2015-08-13T10:47:33Z</time>
      </trkpt>
      <trkpt lat="42.3542360" lon="1.7132880">
        <ele>1162.4</ele>
        <time>2015-08-13T10:47:34Z</time>
      </trkpt>
      <trkpt lat="42.3542400" lon="1.7132480">
        <ele>1162.4</ele>
        <time>2015-08-13T10:47:35Z</time>
      </trkpt>
      <trkpt lat="42.3542320" lon="1.7131980">
        <ele>1162.5</ele>
        <time>2015-08-13T10:47:37Z</time>
      </trkpt>
      <trkpt lat="42.3542340" lon="1.7131540">
        <ele>1162.5</ele>
        <time>2015-08-13T10:47:38Z</time>
      </trkpt>
      <trkpt lat="42.3542230" lon="1.7130830">
        <ele>1162.6</ele>
        <time>2015-08-13T10:47:39Z</time>
      </trkpt>
      <trkpt lat="42.3542330" lon="1.7130270">
        <ele>1162.6</ele>
        <time>2015-08-13T10:47:41Z</time>
      </trkpt>
      <trkpt lat="42.3542550" lon="1.7129670">
        <ele>1162.5</ele>
        <time>2015-08-13T10:47:43Z</time>
      </trkpt>
      <trkpt lat="42.3542690" lon="1.7129210">
        <ele>1162.5</ele>
        <time>2015-08-13T10:47:45Z</time>
      </trkpt>
      <trkpt lat="42.3542760" lon="1.7128710">
        <ele>1162.1</ele>
        <time>2015-08-13T10:47:47Z</time>
      </trkpt>
      <trkpt lat="42.3542840" lon="1.7128040">
        <ele>1161.4</ele>
        <time>2015-08-13T10:47:49Z</time>
      </trkpt>
      <trkpt lat="42.3542890" lon="1.7127470">
        <ele>1160.9</ele>
        <time>2015-08-13T10:47:51Z</time>
      </trkpt>
      <trkpt lat="42.3543060" lon="1.7126940">
        <ele>1160.4</ele>
        <time>2015-08-13T10:47:53Z</time>
      </trkpt>
      <trkpt lat="42.3543170" lon="1.7126430">
        <ele>1159.9</ele>
        <time>2015-08-13T10:47:55Z</time>
      </trkpt>
      <trkpt lat="42.3543240" lon="1.7125930">
        <ele>1159.4</ele>
        <time>2015-08-13T10:47:57Z</time>
      </trkpt>
      <trkpt lat="42.3543260" lon="1.7125450">
        <ele>1159.0</ele>
        <time>2015-08-13T10:48:00Z</time>
      </trkpt>
      <trkpt lat="42.3543030" lon="1.7125120">
        <ele>1158.8</ele>
        <time>2015-08-13T10:48:01Z</time>
      </trkpt>
      <trkpt lat="42.3542950" lon="1.7124770">
        <ele>1158.5</ele>
        <time>2015-08-13T10:48:04Z</time>
      </trkpt>
      <trkpt lat="42.3543060" lon="1.7124420">
        <ele>1158.2</ele>
        <time>2015-08-13T10:48:23Z</time>
      </trkpt>
      <trkpt lat="42.3543120" lon="1.7125000">
        <ele>1158.6</ele>
        <time>2015-08-13T10:48:27Z</time>
      </trkpt>
      <trkpt lat="42.3543130" lon="1.7125470">
        <ele>1159.0</ele>
        <time>2015-08-13T10:48:29Z</time>
      </trkpt>
      <trkpt lat="42.3543000" lon="1.7125870">
        <ele>1159.5</ele>
        <time>2015-08-13T10:48:32Z</time>
      </trkpt>
      <trkpt lat="42.3542900" lon="1.7126260">
        <ele>1159.8</ele>
        <time>2015-08-13T10:48:35Z</time>
      </trkpt>
      <trkpt lat="42.3542860" lon="1.7126670">
        <ele>1160.2</ele>
        <time>2015-08-13T10:48:38Z</time>
      </trkpt>
      <trkpt lat="42.3542720" lon="1.7127050">
        <ele>1160.6</ele>
        <time>2015-08-13T10:48:41Z</time>
      </trkpt>
      <trkpt lat="42.3542700" lon="1.7127460">
        <ele>1161.0</ele>
        <time>2015-08-13T10:48:43Z</time>
      </trkpt>
      <trkpt lat="42.3542640" lon="1.7127880">
        <ele>1161.4</ele>
        <time>2015-08-13T10:48:46Z</time>
      </trkpt>
      <trkpt lat="42.3542560" lon="1.7128230">
        <ele>1161.7</ele>
        <time>2015-08-13T10:49:40Z</time>
      </trkpt>
      <trkpt lat="42.3542490" lon="1.7127870">
        <ele>1161.5</ele>
        <time>2015-08-13T10:49:45Z</time>
      </trkpt>
      <trkpt lat="42.3542050" lon="1.7127830">
        <ele>1161.6</ele>
        <time>2015-08-13T10:55:01Z</time>
      </trkpt>
      <trkpt lat="42.3542380" lon="1.7127830">
        <ele>1161.5</ele>
        <time>2015-08-13T10:55:06Z</time>
      </trkpt>
      <trkpt lat="42.3542680" lon="1.7127980">
        <ele>1161.5</ele>
        <time>2015-08-13T10:55:16Z</time>
      </trkpt>
      <trkpt lat="42.3542440" lon="1.7128210">
        <ele>1161.8</ele>
        <time>2015-08-13T10:56:05Z</time>
      </trkpt>
      <trkpt lat="42.3542780" lon="1.7128290">
        <ele>1161.7</ele>
        <time>2015-08-13T11:02:07Z</time>
      </trkpt>
      <trkpt lat="42.3542880" lon="1.7128640">
        <ele>1162.0</ele>
        <time>2015-08-13T11:02:15Z</time>
      </trkpt>
      <trkpt lat="42.3543160" lon="1.7129080">
        <ele>1162.2</ele>
        <time>2015-08-13T11:03:20Z</time>
      </trkpt>
      <trkpt lat="42.3542900" lon="1.7128870">
        <ele>1162.1</ele>
        <time>2015-08-13T11:03:25Z</time>
      </trkpt>
      <trkpt lat="42.3543140" lon="1.7129040">
        <ele>1162.2</ele>
        <time>2015-08-13T11:03:55Z</time>
      </trkpt>
      <trkpt lat="42.3542950" lon="1.7128690">
        <ele>1162.0</ele>
        <time>2015-08-13T11:05:02Z</time>
      </trkpt>
      <trkpt lat="42.3542750" lon="1.7128420">
        <ele>1161.8</ele>
        <time>2015-08-13T11:05:54Z</time>
      </trkpt>
      <trkpt lat="42.3542500" lon="1.7128650">
        <ele>1162.1</ele>
        <time>2015-08-13T11:06:21Z</time>
      </trkpt>
      <trkpt lat="42.3542310" lon="1.7129130">
        <ele>1162.7</ele>
        <time>2015-08-13T11:06:25Z</time>
      </trkpt>
      <trkpt lat="42.3542200" lon="1.7129550">
        <ele>1162.7</ele>
        <time>2015-08-13T11:06:27Z</time>
      </trkpt>
      <trkpt lat="42.3542180" lon="1.7130170">
        <ele>1162.7</ele>
        <time>2015-08-13T11:06:36Z</time>
      </trkpt>
      <trkpt lat="42.3542060" lon="1.7130850">
        <ele>1162.7</ele>
        <time>2015-08-13T11:06:38Z</time>
      </trkpt>
      <trkpt lat="42.3541970" lon="1.7131380">
        <ele>1162.8</ele>
        <time>2015-08-13T11:06:40Z</time>
      </trkpt>
      <trkpt lat="42.3541790" lon="1.7131820">
        <ele>1162.9</ele>
        <time>2015-08-13T11:06:42Z</time>
      </trkpt>
      <trkpt lat="42.3541550" lon="1.7132460">
        <ele>1163.1</ele>
        <time>2015-08-13T11:06:44Z</time>
      </trkpt>
      <trkpt lat="42.3541190" lon="1.7132960">
        <ele>1163.4</ele>
        <time>2015-08-13T11:06:46Z</time>
      </trkpt>
      <trkpt lat="42.3541010" lon="1.7133580">
        <ele>1163.6</ele>
        <time>2015-08-13T11:06:48Z</time>
      </trkpt>
      <trkpt lat="42.3540960" lon="1.7133970">
        <ele>1163.7</ele>
        <time>2015-08-13T11:06:49Z</time>
      </trkpt>
      <trkpt lat="42.3541130" lon="1.7134400">
        <ele>1163.6</ele>
        <time>2015-08-13T11:06:50Z</time>
      </trkpt>
      <trkpt lat="42.3541200" lon="1.7134770">
        <ele>1163.5</ele>
        <time>2015-08-13T11:06:51Z</time>
      </trkpt>
      <trkpt lat="42.3540940" lon="1.7135300">
        <ele>1163.9</ele>
        <time>2015-08-13T11:06:53Z</time>
      </trkpt>
      <trkpt lat="42.3540700" lon="1.7135950">
        <ele>1164.2</ele>
        <time>2015-08-13T11:06:55Z</time>
      </trkpt>
      <trkpt lat="42.3540610" lon="1.7136320">
        <ele>1164.4</ele>
        <time>2015-08-13T11:06:56Z</time>
      </trkpt>
      <trkpt lat="42.3540310" lon="1.7136950">
        <ele>1164.9</ele>
        <time>2015-08-13T11:06:58Z</time>
      </trkpt>
      <trkpt lat="42.3540090" lon="1.7137190">
        <ele>1165.2</ele>
        <time>2015-08-13T11:07:00Z</time>
      </trkpt>
      <trkpt lat="42.3540200" lon="1.7137600">
        <ele>1165.1</ele>
        <time>2015-08-13T11:07:02Z</time>
      </trkpt>
      <trkpt lat="42.3540300" lon="1.7138050">
        <ele>1164.9</ele>
        <time>2015-08-13T11:07:03Z</time>
      </trkpt>
      <trkpt lat="42.3540290" lon="1.7138610">
        <ele>1164.8</ele>
        <time>2015-08-13T11:07:05Z</time>
      </trkpt>
      <trkpt lat="42.3540190" lon="1.7139010">
        <ele>1164.9</ele>
        <time>2015-08-13T11:07:06Z</time>
      </trkpt>
      <trkpt lat="42.3540100" lon="1.7139780">
        <ele>1164.9</ele>
        <time>2015-08-13T11:07:08Z</time>
      </trkpt>
      <trkpt lat="42.3540130" lon="1.7140140">
        <ele>1164.8</ele>
        <time>2015-08-13T11:07:09Z</time>
      </trkpt>
      <trkpt lat="42.3540060" lon="1.7140880">
        <ele>1164.8</ele>
        <time>2015-08-13T11:07:11Z</time>
      </trkpt>
      <trkpt lat="42.3540080" lon="1.7141350">
        <ele>1164.7</ele>
        <time>2015-08-13T11:07:12Z</time>
      </trkpt>
      <trkpt lat="42.3539940" lon="1.7141690">
        <ele>1164.9</ele>
        <time>2015-08-13T11:07:13Z</time>
      </trkpt>
      <trkpt lat="42.3539640" lon="1.7142010">
        <ele>1165.4</ele>
        <time>2015-08-13T11:07:14Z</time>
      </trkpt>
      <trkpt lat="42.3539530" lon="1.7142490">
        <ele>1165.5</ele>
        <time>2015-08-13T11:07:15Z</time>
      </trkpt>
      <trkpt lat="42.3539410" lon="1.7142880">
        <ele>1165.7</ele>
        <time>2015-08-13T11:07:16Z</time>
      </trkpt>
      <trkpt lat="42.3539280" lon="1.7143250">
        <ele>1165.8</ele>
        <time>2015-08-13T11:07:17Z</time>
      </trkpt>
      <trkpt lat="42.3539160" lon="1.7143610">
        <ele>1166.0</ele>
        <time>2015-08-13T11:07:18Z</time>
      </trkpt>
      <trkpt lat="42.3539100" lon="1.7144010">
        <ele>1166.1</ele>
        <time>2015-08-13T11:07:19Z</time>
      </trkpt>
      <trkpt lat="42.3539020" lon="1.7144430">
        <ele>1166.2</ele>
        <time>2015-08-13T11:07:20Z</time>
      </trkpt>
      <trkpt lat="42.3538870" lon="1.7145140">
        <ele>1166.4</ele>
        <time>2015-08-13T11:07:22Z</time>
      </trkpt>
      <trkpt lat="42.3538550" lon="1.7145520">
        <ele>1167.0</ele>
        <time>2015-08-13T11:07:24Z</time>
      </trkpt>
      <trkpt lat="42.3538290" lon="1.7146010">
        <ele>1167.3</ele>
        <time>2015-08-13T11:07:26Z</time>
      </trkpt>
      <trkpt lat="42.3538080" lon="1.7146570">
        <ele>1167.1</ele>
        <time>2015-08-13T11:07:28Z</time>
      </trkpt>
      <trkpt lat="42.3537610" lon="1.7146680">
        <ele>1167.9</ele>
        <time>2015-08-13T11:07:30Z</time>
      </trkpt>
      <trkpt lat="42.3537260" lon="1.7147090">
        <ele>1167.9</ele>
        <time>2015-08-13T11:07:32Z</time>
      </trkpt>
      <trkpt lat="42.3536900" lon="1.7147530">
        <ele>1167.9</ele>
        <time>2015-08-13T11:07:34Z</time>
      </trkpt>
      <trkpt lat="42.3536580" lon="1.7147600">
        <ele>1168.2</ele>
        <time>2015-08-13T11:07:35Z</time>
      </trkpt>
      <trkpt lat="42.3536070" lon="1.7147860">
        <ele>1168.6</ele>
        <time>2015-08-13T11:07:37Z</time>
      </trkpt>
      <trkpt lat="42.3535810" lon="1.7148100">
        <ele>1168.7</ele>
        <time>2015-08-13T11:07:38Z</time>
      </trkpt>
      <trkpt lat="42.3535440" lon="1.7148270">
        <ele>1169.0</ele>
        <time>2015-08-13T11:07:39Z</time>
      </trkpt>
      <trkpt lat="42.3534960" lon="1.7148370">
        <ele>1169.6</ele>
        <time>2015-08-13T11:07:41Z</time>
      </trkpt>
      <trkpt lat="42.3534670" lon="1.7148440">
        <ele>1169.9</ele>
        <time>2015-08-13T11:07:42Z</time>
      </trkpt>
      <trkpt lat="42.3534180" lon="1.7148690">
        <ele>1170.3</ele>
        <time>2015-08-13T11:07:44Z</time>
      </trkpt>
      <trkpt lat="42.3533720" lon="1.7148620">
        <ele>1171.0</ele>
        <time>2015-08-13T11:07:46Z</time>
      </trkpt>
      <trkpt lat="42.3533360" lon="1.7148530">
        <ele>1171.5</ele>
        <time>2015-08-13T11:07:47Z</time>
      </trkpt>
      <trkpt lat="42.3533060" lon="1.7148510">
        <ele>1171.9</ele>
        <time>2015-08-13T11:07:48Z</time>
      </trkpt>
      <trkpt lat="42.3532740" lon="1.7148460">
        <ele>1172.4</ele>
        <time>2015-08-13T11:07:49Z</time>
      </trkpt>
      <trkpt lat="42.3532450" lon="1.7148340">
        <ele>1172.8</ele>
        <time>2015-08-13T11:07:50Z</time>
      </trkpt>
      <trkpt lat="42.3532010" lon="1.7148350">
        <ele>1173.4</ele>
        <time>2015-08-13T11:07:52Z</time>
      </trkpt>
      <trkpt lat="42.3531690" lon="1.7148610">
        <ele>1173.7</ele>
        <time>2015-08-13T11:07:54Z</time>
      </trkpt>
      <trkpt lat="42.3531200" lon="1.7148770">
        <ele>1174.2</ele>
        <time>2015-08-13T11:07:56Z</time>
      </trkpt>
      <trkpt lat="42.3530770" lon="1.7148870">
        <ele>1174.8</ele>
        <time>2015-08-13T11:07:58Z</time>
      </trkpt>
      <trkpt lat="42.3530280" lon="1.7148990">
        <ele>1175.4</ele>
        <time>2015-08-13T11:08:00Z</time>
      </trkpt>
      <trkpt lat="42.3530070" lon="1.7148730">
        <ele>1175.8</ele>
        <time>2015-08-13T11:08:01Z</time>
      </trkpt>
      <trkpt lat="42.3529750" lon="1.7149100">
        <ele>1176.0</ele>
        <time>2015-08-13T11:08:03Z</time>
      </trkpt>
      <trkpt lat="42.3529380" lon="1.7149500">
        <ele>1176.4</ele>
        <time>2015-08-13T11:08:05Z</time>
      </trkpt>
      <trkpt lat="42.3529090" lon="1.7149360">
        <ele>1176.8</ele>
        <time>2015-08-13T11:08:07Z</time>
      </trkpt>
      <trkpt lat="42.3528800" lon="1.7149360">
        <ele>1177.3</ele>
        <time>2015-08-13T11:08:09Z</time>
      </trkpt>
      <trkpt lat="42.3528410" lon="1.7149160">
        <ele>1177.9</ele>
        <time>2015-08-13T11:08:12Z</time>
      </trkpt>
      <trkpt lat="42.3527950" lon="1.7149140">
        <ele>1178.6</ele>
        <time>2015-08-13T11:08:14Z</time>
      </trkpt>
      <trkpt lat="42.3527710" lon="1.7148910">
        <ele>1179.0</ele>
        <time>2015-08-13T11:08:16Z</time>
      </trkpt>
      <trkpt lat="42.3527380" lon="1.7148740">
        <ele>1179.5</ele>
        <time>2015-08-13T11:08:18Z</time>
      </trkpt>
      <trkpt lat="42.3527060" lon="1.7148820">
        <ele>1180.0</ele>
        <time>2015-08-13T11:08:20Z</time>
      </trkpt>
      <trkpt lat="42.3526590" lon="1.7148960">
        <ele>1180.6</ele>
        <time>2015-08-13T11:08:22Z</time>
      </trkpt>
      <trkpt lat="42.3526160" lon="1.7149060">
        <ele>1181.2</ele>
        <time>2015-08-13T11:08:24Z</time>
      </trkpt>
      <trkpt lat="42.3525900" lon="1.7149330">
        <ele>1181.5</ele>
        <time>2015-08-13T11:08:25Z</time>
      </trkpt>
      <trkpt lat="42.3525610" lon="1.7149410">
        <ele>1182.0</ele>
        <time>2015-08-13T11:08:27Z</time>
      </trkpt>
      <trkpt lat="42.3525170" lon="1.7149320">
        <ele>1182.6</ele>
        <time>2015-08-13T11:08:29Z</time>
      </trkpt>
      <trkpt lat="42.3524740" lon="1.7149490">
        <ele>1183.2</ele>
        <time>2015-08-13T11:08:31Z</time>
      </trkpt>
      <trkpt lat="42.3524350" lon="1.7149280">
        <ele>1183.8</ele>
        <time>2015-08-13T11:08:33Z</time>
      </trkpt>
      <trkpt lat="42.3524010" lon="1.7149440">
        <ele>1184.3</ele>
        <time>2015-08-13T11:08:35Z</time>
      </trkpt>
      <trkpt lat="42.3523630" lon="1.7149580">
        <ele>1184.9</ele>
        <time>2015-08-13T11:08:37Z</time>
      </trkpt>
      <trkpt lat="42.3523370" lon="1.7149420">
        <ele>1185.3</ele>
        <time>2015-08-13T11:08:39Z</time>
      </trkpt>
      <trkpt lat="42.3522980" lon="1.7149400">
        <ele>1185.8</ele>
        <time>2015-08-13T11:08:41Z</time>
      </trkpt>
      <trkpt lat="42.3522680" lon="1.7149570">
        <ele>1186.3</ele>
        <time>2015-08-13T11:08:44Z</time>
      </trkpt>
      <trkpt lat="42.3522410" lon="1.7149740">
        <ele>1186.7</ele>
        <time>2015-08-13T11:08:46Z</time>
      </trkpt>
      <trkpt lat="42.3522240" lon="1.7150040">
        <ele>1186.9</ele>
        <time>2015-08-13T11:08:48Z</time>
      </trkpt>
      <trkpt lat="42.3522300" lon="1.7150430">
        <ele>1186.8</ele>
        <time>2015-08-13T11:08:51Z</time>
      </trkpt>
      <trkpt lat="42.3522310" lon="1.7150800">
        <ele>1186.7</ele>
        <time>2015-08-13T11:08:53Z</time>
      </trkpt>
      <trkpt lat="42.3522250" lon="1.7151270">
        <ele>1186.8</ele>
        <time>2015-08-13T11:08:56Z</time>
      </trkpt>
      <trkpt lat="42.3522470" lon="1.7151500">
        <ele>1186.4</ele>
        <time>2015-08-13T11:08:57Z</time>
      </trkpt>
      <trkpt lat="42.3522460" lon="1.7151980">
        <ele>1186.4</ele>
        <time>2015-08-13T11:08:59Z</time>
      </trkpt>
      <trkpt lat="42.3522560" lon="1.7152460">
        <ele>1186.2</ele>
        <time>2015-08-13T11:09:01Z</time>
      </trkpt>
      <trkpt lat="42.3522310" lon="1.7152930">
        <ele>1186.6</ele>
        <time>2015-08-13T11:09:03Z</time>
      </trkpt>
      <trkpt lat="42.3522480" lon="1.7153520">
        <ele>1186.3</ele>
        <time>2015-08-13T11:09:05Z</time>
      </trkpt>
      <trkpt lat="42.3522610" lon="1.7154100">
        <ele>1186.0</ele>
        <time>2015-08-13T11:09:07Z</time>
      </trkpt>
      <trkpt lat="42.3522840" lon="1.7154620">
        <ele>1185.6</ele>
        <time>2015-08-13T11:09:09Z</time>
      </trkpt>
      <trkpt lat="42.3522830" lon="1.7155030">
        <ele>1185.5</ele>
        <time>2015-08-13T11:09:11Z</time>
      </trkpt>
      <trkpt lat="42.3522830" lon="1.7155660">
        <ele>1185.4</ele>
        <time>2015-08-13T11:09:13Z</time>
      </trkpt>
      <trkpt lat="42.3523010" lon="1.7156220">
        <ele>1185.0</ele>
        <time>2015-08-13T11:09:15Z</time>
      </trkpt>
      <trkpt lat="42.3523100" lon="1.7156680">
        <ele>1184.8</ele>
        <time>2015-08-13T11:09:17Z</time>
      </trkpt>
      <trkpt lat="42.3523200" lon="1.7157170">
        <ele>1184.6</ele>
        <time>2015-08-13T11:09:19Z</time>
      </trkpt>
      <trkpt lat="42.3523170" lon="1.7157680">
        <ele>1184.5</ele>
        <time>2015-08-13T11:09:21Z</time>
      </trkpt>
      <trkpt lat="42.3523190" lon="1.7158290">
        <ele>1184.4</ele>
        <time>2015-08-13T11:09:23Z</time>
      </trkpt>
      <trkpt lat="42.3523230" lon="1.7158670">
        <ele>1184.3</ele>
        <time>2015-08-13T11:09:24Z</time>
      </trkpt>
      <trkpt lat="42.3523260" lon="1.7159040">
        <ele>1184.2</ele>
        <time>2015-08-13T11:09:25Z</time>
      </trkpt>
      <trkpt lat="42.3523120" lon="1.7159400">
        <ele>1184.4</ele>
        <time>2015-08-13T11:09:27Z</time>
      </trkpt>
      <trkpt lat="42.3522920" lon="1.7159780">
        <ele>1184.7</ele>
        <time>2015-08-13T11:09:29Z</time>
      </trkpt>
      <trkpt lat="42.3522600" lon="1.7160140">
        <ele>1185.2</ele>
        <time>2015-08-13T11:09:31Z</time>
      </trkpt>
      <trkpt lat="42.3522210" lon="1.7160350">
        <ele>1185.8</ele>
        <time>2015-08-13T11:09:33Z</time>
      </trkpt>
      <trkpt lat="42.3521800" lon="1.7160600">
        <ele>1186.5</ele>
        <time>2015-08-13T11:09:35Z</time>
      </trkpt>
      <trkpt lat="42.3521430" lon="1.7160930">
        <ele>1187.1</ele>
        <time>2015-08-13T11:09:37Z</time>
      </trkpt>
      <trkpt lat="42.3521180" lon="1.7161140">
        <ele>1187.5</ele>
        <time>2015-08-13T11:09:38Z</time>
      </trkpt>
      <trkpt lat="42.3520800" lon="1.7161320">
        <ele>1188.2</ele>
        <time>2015-08-13T11:09:40Z</time>
      </trkpt>
      <trkpt lat="42.3520360" lon="1.7161250">
        <ele>1188.4</ele>
        <time>2015-08-13T11:09:42Z</time>
      </trkpt>
      <trkpt lat="42.3520080" lon="1.7161200">
        <ele>1188.6</ele>
        <time>2015-08-13T11:09:43Z</time>
      </trkpt>
      <trkpt lat="42.3519760" lon="1.7161390">
        <ele>1188.8</ele>
        <time>2015-08-13T11:09:45Z</time>
      </trkpt>
      <trkpt lat="42.3519370" lon="1.7161690">
        <ele>1188.9</ele>
        <time>2015-08-13T11:09:47Z</time>
      </trkpt>
      <trkpt lat="42.3519030" lon="1.7162000">
        <ele>1189.0</ele>
        <time>2015-08-13T11:09:49Z</time>
      </trkpt>
      <trkpt lat="42.3518900" lon="1.7162530">
        <ele>1188.9</ele>
        <time>2015-08-13T11:09:51Z</time>
      </trkpt>
      <trkpt lat="42.3518740" lon="1.7162990">
        <ele>1188.7</ele>
        <time>2015-08-13T11:09:53Z</time>
      </trkpt>
      <trkpt lat="42.3518650" lon="1.7163490">
        <ele>1188.4</ele>
        <time>2015-08-13T11:09:55Z</time>
      </trkpt>
      <trkpt lat="42.3518500" lon="1.7164040">
        <ele>1188.2</ele>
        <time>2015-08-13T11:09:57Z</time>
      </trkpt>
      <trkpt lat="42.3518260" lon="1.7164290">
        <ele>1188.1</ele>
        <time>2015-08-13T11:10:00Z</time>
      </trkpt>
      <trkpt lat="42.3518050" lon="1.7164570">
        <ele>1188.0</ele>
        <time>2015-08-13T11:10:02Z</time>
      </trkpt>
      <trkpt lat="42.3518040" lon="1.7164960">
        <ele>1187.8</ele>
        <time>2015-08-13T11:10:03Z</time>
      </trkpt>
      <trkpt lat="42.3517960" lon="1.7165510">
        <ele>1187.4</ele>
        <time>2015-08-13T11:10:06Z</time>
      </trkpt>
      <trkpt lat="42.3517790" lon="1.7166020">
        <ele>1187.2</ele>
        <time>2015-08-13T11:10:08Z</time>
      </trkpt>
      <trkpt lat="42.3517570" lon="1.7166620">
        <ele>1186.8</ele>
        <time>2015-08-13T11:10:10Z</time>
      </trkpt>
      <trkpt lat="42.3517240" lon="1.7166840">
        <ele>1186.7</ele>
        <time>2015-08-13T11:10:12Z</time>
      </trkpt>
      <trkpt lat="42.3517040" lon="1.7167110">
        <ele>1186.6</ele>
        <time>2015-08-13T11:10:14Z</time>
      </trkpt>
      <trkpt lat="42.3516710" lon="1.7167390">
        <ele>1186.5</ele>
        <time>2015-08-13T11:10:16Z</time>
      </trkpt>
      <trkpt lat="42.3516460" lon="1.7167580">
        <ele>1186.4</ele>
        <time>2015-08-13T11:10:18Z</time>
      </trkpt>
      <trkpt lat="42.3516120" lon="1.7167920">
        <ele>1186.2</ele>
        <time>2015-08-13T11:10:20Z</time>
      </trkpt>
      <trkpt lat="42.3515710" lon="1.7168250">
        <ele>1186.0</ele>
        <time>2015-08-13T11:10:22Z</time>
      </trkpt>
      <trkpt lat="42.3515410" lon="1.7168490">
        <ele>1185.9</ele>
        <time>2015-08-13T11:10:24Z</time>
      </trkpt>
      <trkpt lat="42.3515100" lon="1.7168660">
        <ele>1185.8</ele>
        <time>2015-08-13T11:10:26Z</time>
      </trkpt>
      <trkpt lat="42.3514760" lon="1.7168780">
        <ele>1185.7</ele>
        <time>2015-08-13T11:10:28Z</time>
      </trkpt>
      <trkpt lat="42.3514440" lon="1.7168820">
        <ele>1185.7</ele>
        <time>2015-08-13T11:10:30Z</time>
      </trkpt>
      <trkpt lat="42.3514010" lon="1.7168890">
        <ele>1185.7</ele>
        <time>2015-08-13T11:10:32Z</time>
      </trkpt>
      <trkpt lat="42.3513540" lon="1.7168790">
        <ele>1185.8</ele>
        <time>2015-08-13T11:10:34Z</time>
      </trkpt>
      <trkpt lat="42.3513180" lon="1.7168690">
        <ele>1186.0</ele>
        <time>2015-08-13T11:10:37Z</time>
      </trkpt>
      <trkpt lat="42.3512810" lon="1.7168520">
        <ele>1186.2</ele>
        <time>2015-08-13T11:10:39Z</time>
      </trkpt>
      <trkpt lat="42.3512480" lon="1.7168340">
        <ele>1186.4</ele>
        <time>2015-08-13T11:10:41Z</time>
      </trkpt>
      <trkpt lat="42.3512160" lon="1.7167860">
        <ele>1186.5</ele>
        <time>2015-08-13T11:10:43Z</time>
      </trkpt>
      <trkpt lat="42.3511800" lon="1.7167480">
        <ele>1186.4</ele>
        <time>2015-08-13T11:10:45Z</time>
      </trkpt>
      <trkpt lat="42.3511530" lon="1.7167160">
        <ele>1186.4</ele>
        <time>2015-08-13T11:10:47Z</time>
      </trkpt>
      <trkpt lat="42.3511230" lon="1.7166940">
        <ele>1186.3</ele>
        <time>2015-08-13T11:10:50Z</time>
      </trkpt>
      <trkpt lat="42.3511140" lon="1.7166520">
        <ele>1186.7</ele>
        <time>2015-08-13T11:10:52Z</time>
      </trkpt>
      <trkpt lat="42.3510930" lon="1.7166280">
        <ele>1186.7</ele>
        <time>2015-08-13T11:10:54Z</time>
      </trkpt>
      <trkpt lat="42.3510680" lon="1.7165720">
        <ele>1187.1</ele>
        <time>2015-08-13T11:10:56Z</time>
      </trkpt>
      <trkpt lat="42.3510460" lon="1.7165400">
        <ele>1187.2</ele>
        <time>2015-08-13T11:10:58Z</time>
      </trkpt>
      <trkpt lat="42.3510390" lon="1.7164950">
        <ele>1187.7</ele>
        <time>2015-08-13T11:11:00Z</time>
      </trkpt>
      <trkpt lat="42.3510080" lon="1.7164630">
        <ele>1187.8</ele>
        <time>2015-08-13T11:11:02Z</time>
      </trkpt>
      <trkpt lat="42.3509860" lon="1.7164410">
        <ele>1187.8</ele>
        <time>2015-08-13T11:11:03Z</time>
      </trkpt>
      <trkpt lat="42.3509640" lon="1.7164010">
        <ele>1188.1</ele>
        <time>2015-08-13T11:11:05Z</time>
      </trkpt>
      <trkpt lat="42.3509460" lon="1.7163710">
        <ele>1188.3</ele>
        <time>2015-08-13T11:11:07Z</time>
      </trkpt>
      <trkpt lat="42.3509340" lon="1.7163280">
        <ele>1188.8</ele>
        <time>2015-08-13T11:11:09Z</time>
      </trkpt>
      <trkpt lat="42.3509170" lon="1.7162760">
        <ele>1189.3</ele>
        <time>2015-08-13T11:11:11Z</time>
      </trkpt>
      <trkpt lat="42.3508920" lon="1.7162220">
        <ele>1189.8</ele>
        <time>2015-08-13T11:11:13Z</time>
      </trkpt>
      <trkpt lat="42.3508850" lon="1.7161690">
        <ele>1190.4</ele>
        <time>2015-08-13T11:11:15Z</time>
      </trkpt>
      <trkpt lat="42.3508680" lon="1.7161290">
        <ele>1190.8</ele>
        <time>2015-08-13T11:11:17Z</time>
      </trkpt>
      <trkpt lat="42.3508550" lon="1.7160870">
        <ele>1191.3</ele>
        <time>2015-08-13T11:11:19Z</time>
      </trkpt>
      <trkpt lat="42.3508380" lon="1.7160390">
        <ele>1191.8</ele>
        <time>2015-08-13T11:11:21Z</time>
      </trkpt>
      <trkpt lat="42.3508240" lon="1.7160010">
        <ele>1192.2</ele>
        <time>2015-08-13T11:11:23Z</time>
      </trkpt>
      <trkpt lat="42.3508090" lon="1.7159550">
        <ele>1192.8</ele>
        <time>2015-08-13T11:11:25Z</time>
      </trkpt>
      <trkpt lat="42.3507950" lon="1.7159220">
        <ele>1193.2</ele>
        <time>2015-08-13T11:11:27Z</time>
      </trkpt>
      <trkpt lat="42.3507750" lon="1.7158930">
        <ele>1193.5</ele>
        <time>2015-08-13T11:11:28Z</time>
      </trkpt>
      <trkpt lat="42.3507610" lon="1.7158480">
        <ele>1194.0</ele>
        <time>2015-08-13T11:11:30Z</time>
      </trkpt>
      <trkpt lat="42.3507400" lon="1.7158070">
        <ele>1194.5</ele>
        <time>2015-08-13T11:11:32Z</time>
      </trkpt>
      <trkpt lat="42.3507290" lon="1.7157670">
        <ele>1195.1</ele>
        <time>2015-08-13T11:11:34Z</time>
      </trkpt>
      <trkpt lat="42.3507120" lon="1.7157300">
        <ele>1195.5</ele>
        <time>2015-08-13T11:11:36Z</time>
      </trkpt>
      <trkpt lat="42.3506960" lon="1.7156800">
        <ele>1196.2</ele>
        <time>2015-08-13T11:11:38Z</time>
      </trkpt>
      <trkpt lat="42.3506750" lon="1.7156420">
        <ele>1196.7</ele>
        <time>2015-08-13T11:11:40Z</time>
      </trkpt>
      <trkpt lat="42.3506590" lon="1.7156020">
        <ele>1197.3</ele>
        <time>2015-08-13T11:11:42Z</time>
      </trkpt>
      <trkpt lat="42.3506320" lon="1.7155560">
        <ele>1197.9</ele>
        <time>2015-08-13T11:11:44Z</time>
      </trkpt>
      <trkpt lat="42.3506160" lon="1.7155080">
        <ele>1198.6</ele>
        <time>2015-08-13T11:11:46Z</time>
      </trkpt>
      <trkpt lat="42.3505940" lon="1.7154610">
        <ele>1199.3</ele>
        <time>2015-08-13T11:11:49Z</time>
      </trkpt>
      <trkpt lat="42.3505700" lon="1.7154310">
        <ele>1199.8</ele>
        <time>2015-08-13T11:11:51Z</time>
      </trkpt>
      <trkpt lat="42.3505480" lon="1.7154030">
        <ele>1200.1</ele>
        <time>2015-08-13T11:11:53Z</time>
      </trkpt>
      <trkpt lat="42.3505330" lon="1.7153730">
        <ele>1200.2</ele>
        <time>2015-08-13T11:11:55Z</time>
      </trkpt>
      <trkpt lat="42.3505170" lon="1.7153350">
        <ele>1200.4</ele>
        <time>2015-08-13T11:11:58Z</time>
      </trkpt>
      <trkpt lat="42.3504970" lon="1.7153000">
        <ele>1200.6</ele>
        <time>2015-08-13T11:12:00Z</time>
      </trkpt>
      <trkpt lat="42.3504750" lon="1.7152640">
        <ele>1200.8</ele>
        <time>2015-08-13T11:12:03Z</time>
      </trkpt>
      <trkpt lat="42.3504700" lon="1.7152140">
        <ele>1201.1</ele>
        <time>2015-08-13T11:12:08Z</time>
      </trkpt>
      <trkpt lat="42.3504460" lon="1.7151830">
        <ele>1201.3</ele>
        <time>2015-08-13T11:12:10Z</time>
      </trkpt>
      <trkpt lat="42.3504390" lon="1.7151450">
        <ele>1201.6</ele>
        <time>2015-08-13T11:12:13Z</time>
      </trkpt>
      <trkpt lat="42.3504310" lon="1.7150920">
        <ele>1201.9</ele>
        <time>2015-08-13T11:12:16Z</time>
      </trkpt>
      <trkpt lat="42.3504000" lon="1.7150540">
        <ele>1202.3</ele>
        <time>2015-08-13T11:12:18Z</time>
      </trkpt>
      <trkpt lat="42.3503840" lon="1.7150080">
        <ele>1202.8</ele>
        <time>2015-08-13T11:12:20Z</time>
      </trkpt>
      <trkpt lat="42.3503790" lon="1.7149670">
        <ele>1203.2</ele>
        <time>2015-08-13T11:12:22Z</time>
      </trkpt>
      <trkpt lat="42.3503800" lon="1.7149250">
        <ele>1203.4</ele>
        <time>2015-08-13T11:12:24Z</time>
      </trkpt>
      <trkpt lat="42.3503980" lon="1.7148900">
        <ele>1203.4</ele>
        <time>2015-08-13T11:12:26Z</time>
      </trkpt>
      <trkpt lat="42.3504150" lon="1.7148560">
        <ele>1203.4</ele>
        <time>2015-08-13T11:12:28Z</time>
      </trkpt>
      <trkpt lat="42.3504290" lon="1.7148110">
        <ele>1203.5</ele>
        <time>2015-08-13T11:12:30Z</time>
      </trkpt>
      <trkpt lat="42.3504500" lon="1.7147620">
        <ele>1203.7</ele>
        <time>2015-08-13T11:12:32Z</time>
      </trkpt>
      <trkpt lat="42.3504650" lon="1.7147230">
        <ele>1203.8</ele>
        <time>2015-08-13T11:12:33Z</time>
      </trkpt>
      <trkpt lat="42.3504690" lon="1.7146660">
        <ele>1204.1</ele>
        <time>2015-08-13T11:12:36Z</time>
      </trkpt>
      <trkpt lat="42.3504710" lon="1.7146210">
        <ele>1204.3</ele>
        <time>2015-08-13T11:12:38Z</time>
      </trkpt>
      <trkpt lat="42.3504600" lon="1.7145680">
        <ele>1204.4</ele>
        <time>2015-08-13T11:12:40Z</time>
      </trkpt>
      <trkpt lat="42.3504510" lon="1.7145170">
        <ele>1204.0</ele>
        <time>2015-08-13T11:12:42Z</time>
      </trkpt>
      <trkpt lat="42.3504230" lon="1.7144780">
        <ele>1203.9</ele>
        <time>2015-08-13T11:12:44Z</time>
      </trkpt>
      <trkpt lat="42.3503960" lon="1.7144480">
        <ele>1204.2</ele>
        <time>2015-08-13T11:12:46Z</time>
      </trkpt>
      <trkpt lat="42.3503710" lon="1.7144160">
        <ele>1204.4</ele>
        <time>2015-08-13T11:12:48Z</time>
      </trkpt>
      <trkpt lat="42.3503430" lon="1.7143950">
        <ele>1204.8</ele>
        <time>2015-08-13T11:12:50Z</time>
      </trkpt>
      <trkpt lat="42.3503080" lon="1.7143710">
        <ele>1205.4</ele>
        <time>2015-08-13T11:12:53Z</time>
      </trkpt>
      <trkpt lat="42.3502730" lon="1.7143390">
        <ele>1205.9</ele>
        <time>2015-08-13T11:12:56Z</time>
      </trkpt>
      <trkpt lat="42.3502560" lon="1.7143010">
        <ele>1206.0</ele>
        <time>2015-08-13T11:12:59Z</time>
      </trkpt>
      <trkpt lat="42.3502300" lon="1.7142790">
        <ele>1206.5</ele>
        <time>2015-08-13T11:13:01Z</time>
      </trkpt>
      <trkpt lat="42.3502060" lon="1.7142610">
        <ele>1206.9</ele>
        <time>2015-08-13T11:13:02Z</time>
      </trkpt>
      <trkpt lat="42.3501850" lon="1.7142340">
        <ele>1207.2</ele>
        <time>2015-08-13T11:13:06Z</time>
      </trkpt>
      <trkpt lat="42.3501550" lon="1.7142280">
        <ele>1207.9</ele>
        <time>2015-08-13T11:13:09Z</time>
      </trkpt>
      <trkpt lat="42.3501240" lon="1.7142250">
        <ele>1208.6</ele>
        <time>2015-08-13T11:13:11Z</time>
      </trkpt>
      <trkpt lat="42.3500850" lon="1.7142190">
        <ele>1209.5</ele>
        <time>2015-08-13T11:13:14Z</time>
      </trkpt>
      <trkpt lat="42.3500430" lon="1.7142080">
        <ele>1210.4</ele>
        <time>2015-08-13T11:13:17Z</time>
      </trkpt>
      <trkpt lat="42.3500020" lon="1.7141990">
        <ele>1211.4</ele>
        <time>2015-08-13T11:13:20Z</time>
      </trkpt>
      <trkpt lat="42.3499700" lon="1.7141930">
        <ele>1212.1</ele>
        <time>2015-08-13T11:13:22Z</time>
      </trkpt>
      <trkpt lat="42.3499430" lon="1.7141890">
        <ele>1212.8</ele>
        <time>2015-08-13T11:13:24Z</time>
      </trkpt>
      <trkpt lat="42.3499070" lon="1.7141650">
        <ele>1213.5</ele>
        <time>2015-08-13T11:13:26Z</time>
      </trkpt>
      <trkpt lat="42.3498800" lon="1.7141490">
        <ele>1214.1</ele>
        <time>2015-08-13T11:13:28Z</time>
      </trkpt>
      <trkpt lat="42.3498500" lon="1.7141320">
        <ele>1214.8</ele>
        <time>2015-08-13T11:13:30Z</time>
      </trkpt>
      <trkpt lat="42.3498190" lon="1.7141170">
        <ele>1215.5</ele>
        <time>2015-08-13T11:13:32Z</time>
      </trkpt>
      <trkpt lat="42.3497840" lon="1.7140940">
        <ele>1216.3</ele>
        <time>2015-08-13T11:13:34Z</time>
      </trkpt>
      <trkpt lat="42.3497520" lon="1.7140680">
        <ele>1217.1</ele>
        <time>2015-08-13T11:13:36Z</time>
      </trkpt>
      <trkpt lat="42.3497210" lon="1.7140390">
        <ele>1217.8</ele>
        <time>2015-08-13T11:13:38Z</time>
      </trkpt>
      <trkpt lat="42.3497080" lon="1.7140060">
        <ele>1218.0</ele>
        <time>2015-08-13T11:13:40Z</time>
      </trkpt>
      <trkpt lat="42.3496900" lon="1.7139670">
        <ele>1218.4</ele>
        <time>2015-08-13T11:13:42Z</time>
      </trkpt>
      <trkpt lat="42.3496780" lon="1.7139300">
        <ele>1218.7</ele>
        <time>2015-08-13T11:13:44Z</time>
      </trkpt>
      <trkpt lat="42.3496790" lon="1.7138910">
        <ele>1218.5</ele>
        <time>2015-08-13T11:13:46Z</time>
      </trkpt>
      <trkpt lat="42.3496750" lon="1.7138550">
        <ele>1218.6</ele>
        <time>2015-08-13T11:13:48Z</time>
      </trkpt>
      <trkpt lat="42.3496420" lon="1.7138120">
        <ele>1219.4</ele>
        <time>2015-08-13T11:13:51Z</time>
      </trkpt>
      <trkpt lat="42.3496210" lon="1.7137580">
        <ele>1219.9</ele>
        <time>2015-08-13T11:13:53Z</time>
      </trkpt>
      <trkpt lat="42.3495970" lon="1.7137360">
        <ele>1220.3</ele>
        <time>2015-08-13T11:13:55Z</time>
      </trkpt>
      <trkpt lat="42.3495920" lon="1.7136920">
        <ele>1219.6</ele>
        <time>2015-08-13T11:13:57Z</time>
      </trkpt>
      <trkpt lat="42.3495750" lon="1.7136480">
        <ele>1219.3</ele>
        <time>2015-08-13T11:13:59Z</time>
      </trkpt>
      <trkpt lat="42.3495650" lon="1.7135840">
        <ele>1218.4</ele>
        <time>2015-08-13T11:14:01Z</time>
      </trkpt>
      <trkpt lat="42.3495720" lon="1.7135450">
        <ele>1217.4</ele>
        <time>2015-08-13T11:14:03Z</time>
      </trkpt>
      <trkpt lat="42.3495350" lon="1.7134950">
        <ele>1217.6</ele>
        <time>2015-08-13T11:14:06Z</time>
      </trkpt>
      <trkpt lat="42.3495080" lon="1.7134650">
        <ele>1217.9</ele>
        <time>2015-08-13T11:14:08Z</time>
      </trkpt>
      <trkpt lat="42.3494740" lon="1.7134180">
        <ele>1218.1</ele>
        <time>2015-08-13T11:14:11Z</time>
      </trkpt>
      <trkpt lat="42.3494410" lon="1.7133760">
        <ele>1218.4</ele>
        <time>2015-08-13T11:14:13Z</time>
      </trkpt>
      <trkpt lat="42.3494110" lon="1.7133530">
        <ele>1219.0</ele>
        <time>2015-08-13T11:14:15Z</time>
      </trkpt>
      <trkpt lat="42.3493840" lon="1.7133010">
        <ele>1219.0</ele>
        <time>2015-08-13T11:14:19Z</time>
      </trkpt>
      <trkpt lat="42.3493560" lon="1.7132610">
        <ele>1219.3</ele>
        <time>2015-08-13T11:14:21Z</time>
      </trkpt>
      <trkpt lat="42.3493300" lon="1.7132260">
        <ele>1219.7</ele>
        <time>2015-08-13T11:14:23Z</time>
      </trkpt>
      <trkpt lat="42.3493160" lon="1.7131950">
        <ele>1219.6</ele>
        <time>2015-08-13T11:14:24Z</time>
      </trkpt>
      <trkpt lat="42.3492930" lon="1.7131650">
        <ele>1220.0</ele>
        <time>2015-08-13T11:14:26Z</time>
      </trkpt>
      <trkpt lat="42.3492680" lon="1.7131290">
        <ele>1220.3</ele>
        <time>2015-08-13T11:14:28Z</time>
      </trkpt>
      <trkpt lat="42.3492450" lon="1.7130850">
        <ele>1220.5</ele>
        <time>2015-08-13T11:14:30Z</time>
      </trkpt>
      <trkpt lat="42.3492210" lon="1.7130660">
        <ele>1221.1</ele>
        <time>2015-08-13T11:14:31Z</time>
      </trkpt>
      <trkpt lat="42.3491960" lon="1.7130360">
        <ele>1221.6</ele>
        <time>2015-08-13T11:14:33Z</time>
      </trkpt>
      <trkpt lat="42.3491550" lon="1.7130160">
        <ele>1222.8</ele>
        <time>2015-08-13T11:14:35Z</time>
      </trkpt>
      <trkpt lat="42.3491270" lon="1.7129890">
        <ele>1223.5</ele>
        <time>2015-08-13T11:14:37Z</time>
      </trkpt>
      <trkpt lat="42.3491060" lon="1.7129480">
        <ele>1223.7</ele>
        <time>2015-08-13T11:14:39Z</time>
      </trkpt>
      <trkpt lat="42.3490760" lon="1.7129090">
        <ele>1224.4</ele>
        <time>2015-08-13T11:14:42Z</time>
      </trkpt>
      <trkpt lat="42.3490520" lon="1.7128770">
        <ele>1224.9</ele>
        <time>2015-08-13T11:14:44Z</time>
      </trkpt>
      <trkpt lat="42.3490220" lon="1.7128450">
        <ele>1225.6</ele>
        <time>2015-08-13T11:14:46Z</time>
      </trkpt>
      <trkpt lat="42.3489990" lon="1.7128040">
        <ele>1225.9</ele>
        <time>2015-08-13T11:14:50Z</time>
      </trkpt>
      <trkpt lat="42.3489780" lon="1.7127730">
        <ele>1226.3</ele>
        <time>2015-08-13T11:14:53Z</time>
      </trkpt>
      <trkpt lat="42.3489460" lon="1.7127490">
        <ele>1227.2</ele>
        <time>2015-08-13T11:14:57Z</time>
      </trkpt>
      <trkpt lat="42.3489070" lon="1.7127230">
        <ele>1228.4</ele>
        <time>2015-08-13T11:14:59Z</time>
      </trkpt>
      <trkpt lat="42.3488780" lon="1.7127060">
        <ele>1229.3</ele>
        <time>2015-08-13T11:15:01Z</time>
      </trkpt>
      <trkpt lat="42.3488400" lon="1.7126870">
        <ele>1230.5</ele>
        <time>2015-08-13T11:15:03Z</time>
      </trkpt>
      <trkpt lat="42.3488150" lon="1.7126600">
        <ele>1231.1</ele>
        <time>2015-08-13T11:15:05Z</time>
      </trkpt>
      <trkpt lat="42.3487760" lon="1.7126270">
        <ele>1232.2</ele>
        <time>2015-08-13T11:15:07Z</time>
      </trkpt>
      <trkpt lat="42.3487490" lon="1.7126050">
        <ele>1232.9</ele>
        <time>2015-08-13T11:15:09Z</time>
      </trkpt>
      <trkpt lat="42.3487140" lon="1.7125690">
        <ele>1233.5</ele>
        <time>2015-08-13T11:15:11Z</time>
      </trkpt>
      <trkpt lat="42.3486930" lon="1.7125190">
        <ele>1233.5</ele>
        <time>2015-08-13T11:15:13Z</time>
      </trkpt>
      <trkpt lat="42.3486650" lon="1.7125110">
        <ele>1234.3</ele>
        <time>2015-08-13T11:15:15Z</time>
      </trkpt>
      <trkpt lat="42.3486350" lon="1.7124770">
        <ele>1234.7</ele>
        <time>2015-08-13T11:15:17Z</time>
      </trkpt>
      <trkpt lat="42.3486140" lon="1.7124510">
        <ele>1235.0</ele>
        <time>2015-08-13T11:15:19Z</time>
      </trkpt>
      <trkpt lat="42.3485820" lon="1.7124100">
        <ele>1235.3</ele>
        <time>2015-08-13T11:15:21Z</time>
      </trkpt>
      <trkpt lat="42.3485640" lon="1.7123780">
        <ele>1235.4</ele>
        <time>2015-08-13T11:15:23Z</time>
      </trkpt>
      <trkpt lat="42.3485340" lon="1.7123380">
        <ele>1235.7</ele>
        <time>2015-08-13T11:15:25Z</time>
      </trkpt>
      <trkpt lat="42.3484970" lon="1.7122910">
        <ele>1236.1</ele>
        <time>2015-08-13T11:15:27Z</time>
      </trkpt>
      <trkpt lat="42.3484650" lon="1.7122510">
        <ele>1236.4</ele>
        <time>2015-08-13T11:15:29Z</time>
      </trkpt>
      <trkpt lat="42.3484420" lon="1.7122270">
        <ele>1236.7</ele>
        <time>2015-08-13T11:15:31Z</time>
      </trkpt>
      <trkpt lat="42.3484380" lon="1.7121880">
        <ele>1236.2</ele>
        <time>2015-08-13T11:15:33Z</time>
      </trkpt>
      <trkpt lat="42.3484190" lon="1.7121590">
        <ele>1236.3</ele>
        <time>2015-08-13T11:15:35Z</time>
      </trkpt>
      <trkpt lat="42.3484010" lon="1.7121040">
        <ele>1236.0</ele>
        <time>2015-08-13T11:15:37Z</time>
      </trkpt>
      <trkpt lat="42.3483790" lon="1.7120540">
        <ele>1235.5</ele>
        <time>2015-08-13T11:15:39Z</time>
      </trkpt>
      <trkpt lat="42.3483790" lon="1.7120150">
        <ele>1234.6</ele>
        <time>2015-08-13T11:15:41Z</time>
      </trkpt>
      <trkpt lat="42.3483540" lon="1.7119630">
        <ele>1234.0</ele>
        <time>2015-08-13T11:15:43Z</time>
      </trkpt>
      <trkpt lat="42.3483190" lon="1.7119300">
        <ele>1234.1</ele>
        <time>2015-08-13T11:15:45Z</time>
      </trkpt>
      <trkpt lat="42.3482820" lon="1.7118990">
        <ele>1234.3</ele>
        <time>2015-08-13T11:15:47Z</time>
      </trkpt>
      <trkpt lat="42.3482660" lon="1.7118590">
        <ele>1233.7</ele>
        <time>2015-08-13T11:15:49Z</time>
      </trkpt>
      <trkpt lat="42.3482400" lon="1.7118120">
        <ele>1233.2</ele>
        <time>2015-08-13T11:15:51Z</time>
      </trkpt>
      <trkpt lat="42.3482270" lon="1.7117770">
        <ele>1232.7</ele>
        <time>2015-08-13T11:15:53Z</time>
      </trkpt>
      <trkpt lat="42.3482210" lon="1.7117410">
        <ele>1231.9</ele>
        <time>2015-08-13T11:15:55Z</time>
      </trkpt>
      <trkpt lat="42.3482030" lon="1.7116890">
        <ele>1231.0</ele>
        <time>2015-08-13T11:15:58Z</time>
      </trkpt>
      <trkpt lat="42.3481730" lon="1.7116530">
        <ele>1230.8</ele>
        <time>2015-08-13T11:16:00Z</time>
      </trkpt>
      <trkpt lat="42.3481500" lon="1.7116220">
        <ele>1230.6</ele>
        <time>2015-08-13T11:16:02Z</time>
      </trkpt>
      <trkpt lat="42.3481250" lon="1.7115860">
        <ele>1230.3</ele>
        <time>2015-08-13T11:16:05Z</time>
      </trkpt>
      <trkpt lat="42.3481000" lon="1.7115460">
        <ele>1229.8</ele>
        <time>2015-08-13T11:16:07Z</time>
      </trkpt>
      <trkpt lat="42.3480770" lon="1.7115060">
        <ele>1229.3</ele>
        <time>2015-08-13T11:16:09Z</time>
      </trkpt>
      <trkpt lat="42.3480520" lon="1.7114900">
        <ele>1229.5</ele>
        <time>2015-08-13T11:16:11Z</time>
      </trkpt>
      <trkpt lat="42.3480200" lon="1.7114520">
        <ele>1229.2</ele>
        <time>2015-08-13T11:16:14Z</time>
      </trkpt>
      <trkpt lat="42.3479880" lon="1.7114370">
        <ele>1229.5</ele>
        <time>2015-08-13T11:16:16Z</time>
      </trkpt>
      <trkpt lat="42.3479570" lon="1.7114290">
        <ele>1230.0</ele>
        <time>2015-08-13T11:16:17Z</time>
      </trkpt>
      <trkpt lat="42.3479220" lon="1.7114380">
        <ele>1231.1</ele>
        <time>2015-08-13T11:16:19Z</time>
      </trkpt>
      <trkpt lat="42.3478830" lon="1.7114070">
        <ele>1230.8</ele>
        <time>2015-08-13T11:16:21Z</time>
      </trkpt>
      <trkpt lat="42.3478560" lon="1.7114010">
        <ele>1231.1</ele>
        <time>2015-08-13T11:16:24Z</time>
      </trkpt>
      <trkpt lat="42.3478220" lon="1.7113780">
        <ele>1231.0</ele>
        <time>2015-08-13T11:16:26Z</time>
      </trkpt>
      <trkpt lat="42.3477920" lon="1.7113510">
        <ele>1230.7</ele>
        <time>2015-08-13T11:16:28Z</time>
      </trkpt>
      <trkpt lat="42.3477460" lon="1.7113440">
        <ele>1231.3</ele>
        <time>2015-08-13T11:16:30Z</time>
      </trkpt>
      <trkpt lat="42.3477110" lon="1.7113340">
        <ele>1231.5</ele>
        <time>2015-08-13T11:16:32Z</time>
      </trkpt>
      <trkpt lat="42.3476750" lon="1.7113200">
        <ele>1231.8</ele>
        <time>2015-08-13T11:16:34Z</time>
      </trkpt>
      <trkpt lat="42.3476440" lon="1.7112910">
        <ele>1231.6</ele>
        <time>2015-08-13T11:16:37Z</time>
      </trkpt>
      <trkpt lat="42.3476130" lon="1.7113080">
        <ele>1232.5</ele>
        <time>2015-08-13T11:16:40Z</time>
      </trkpt>
      <trkpt lat="42.3475770" lon="1.7113050">
        <ele>1233.0</ele>
        <time>2015-08-13T11:16:43Z</time>
      </trkpt>
      <trkpt lat="42.3475430" lon="1.7112930">
        <ele>1233.3</ele>
        <time>2015-08-13T11:16:45Z</time>
      </trkpt>
      <trkpt lat="42.3475120" lon="1.7112920">
        <ele>1233.7</ele>
        <time>2015-08-13T11:16:47Z</time>
      </trkpt>
      <trkpt lat="42.3474770" lon="1.7112790">
        <ele>1234.0</ele>
        <time>2015-08-13T11:16:49Z</time>
      </trkpt>
      <trkpt lat="42.3474400" lon="1.7112790">
        <ele>1234.6</ele>
        <time>2015-08-13T11:16:51Z</time>
      </trkpt>
      <trkpt lat="42.3474040" lon="1.7112810">
        <ele>1235.3</ele>
        <time>2015-08-13T11:16:53Z</time>
      </trkpt>
      <trkpt lat="42.3473720" lon="1.7112690">
        <ele>1235.5</ele>
        <time>2015-08-13T11:16:55Z</time>
      </trkpt>
      <trkpt lat="42.3473490" lon="1.7112950">
        <ele>1236.4</ele>
        <time>2015-08-13T11:16:57Z</time>
      </trkpt>
      <trkpt lat="42.3473240" lon="1.7113100">
        <ele>1237.2</ele>
        <time>2015-08-13T11:17:00Z</time>
      </trkpt>
      <trkpt lat="42.3472940" lon="1.7113220">
        <ele>1237.9</ele>
        <time>2015-08-13T11:17:03Z</time>
      </trkpt>
      <trkpt lat="42.3472570" lon="1.7113000">
        <ele>1238.0</ele>
        <time>2015-08-13T11:17:04Z</time>
      </trkpt>
      <trkpt lat="42.3472200" lon="1.7113060">
        <ele>1238.7</ele>
        <time>2015-08-13T11:17:06Z</time>
      </trkpt>
      <trkpt lat="42.3471790" lon="1.7113010">
        <ele>1239.3</ele>
        <time>2015-08-13T11:17:08Z</time>
      </trkpt>
      <trkpt lat="42.3471400" lon="1.7112830">
        <ele>1239.6</ele>
        <time>2015-08-13T11:17:10Z</time>
      </trkpt>
      <trkpt lat="42.3471110" lon="1.7112930">
        <ele>1240.3</ele>
        <time>2015-08-13T11:17:12Z</time>
      </trkpt>
      <trkpt lat="42.3470730" lon="1.7113250">
        <ele>1241.5</ele>
        <time>2015-08-13T11:17:17Z</time>
      </trkpt>
      <trkpt lat="42.3470440" lon="1.7113080">
        <ele>1242.0</ele>
        <time>2015-08-13T11:17:19Z</time>
      </trkpt>
      <trkpt lat="42.3470180" lon="1.7113250">
        <ele>1242.9</ele>
        <time>2015-08-13T11:17:21Z</time>
      </trkpt>
      <trkpt lat="42.3469740" lon="1.7113280">
        <ele>1244.0</ele>
        <time>2015-08-13T11:17:24Z</time>
      </trkpt>
      <trkpt lat="42.3469360" lon="1.7113200">
        <ele>1244.8</ele>
        <time>2015-08-13T11:17:26Z</time>
      </trkpt>
      <trkpt lat="42.3469010" lon="1.7113480">
        <ele>1246.0</ele>
        <time>2015-08-13T11:17:28Z</time>
      </trkpt>
      <trkpt lat="42.3468570" lon="1.7113500">
        <ele>1247.1</ele>
        <time>2015-08-13T11:17:30Z</time>
      </trkpt>
      <trkpt lat="42.3468270" lon="1.7113180">
        <ele>1247.5</ele>
        <time>2015-08-13T11:17:33Z</time>
      </trkpt>
      <trkpt lat="42.3467940" lon="1.7112990">
        <ele>1248.1</ele>
        <time>2015-08-13T11:17:34Z</time>
      </trkpt>
      <trkpt lat="42.3467580" lon="1.7113290">
        <ele>1249.3</ele>
        <time>2015-08-13T11:17:36Z</time>
      </trkpt>
      <trkpt lat="42.3467310" lon="1.7113660">
        <ele>1250.2</ele>
        <time>2015-08-13T11:17:38Z</time>
      </trkpt>
      <trkpt lat="42.3467040" lon="1.7113770">
        <ele>1251.0</ele>
        <time>2015-08-13T11:17:40Z</time>
      </trkpt>
      <trkpt lat="42.3466790" lon="1.7113960">
        <ele>1251.7</ele>
        <time>2015-08-13T11:17:42Z</time>
      </trkpt>
      <trkpt lat="42.3466530" lon="1.7114120">
        <ele>1252.4</ele>
        <time>2015-08-13T11:17:43Z</time>
      </trkpt>
      <trkpt lat="42.3466200" lon="1.7114200">
        <ele>1253.2</ele>
        <time>2015-08-13T11:17:45Z</time>
      </trkpt>
      <trkpt lat="42.3465830" lon="1.7114320">
        <ele>1254.0</ele>
        <time>2015-08-13T11:17:47Z</time>
      </trkpt>
      <trkpt lat="42.3465520" lon="1.7114390">
        <ele>1254.7</ele>
        <time>2015-08-13T11:17:49Z</time>
      </trkpt>
      <trkpt lat="42.3465200" lon="1.7114610">
        <ele>1255.5</ele>
        <time>2015-08-13T11:17:51Z</time>
      </trkpt>
      <trkpt lat="42.3464820" lon="1.7114950">
        <ele>1256.4</ele>
        <time>2015-08-13T11:17:55Z</time>
      </trkpt>
      <trkpt lat="42.3464530" lon="1.7115180">
        <ele>1257.0</ele>
        <time>2015-08-13T11:17:57Z</time>
      </trkpt>
      <trkpt lat="42.3464460" lon="1.7115580">
        <ele>1257.2</ele>
        <time>2015-08-13T11:18:00Z</time>
      </trkpt>
      <trkpt lat="42.3464030" lon="1.7115880">
        <ele>1258.0</ele>
        <time>2015-08-13T11:18:02Z</time>
      </trkpt>
      <trkpt lat="42.3463660" lon="1.7116020">
        <ele>1258.7</ele>
        <time>2015-08-13T11:18:04Z</time>
      </trkpt>
      <trkpt lat="42.3463360" lon="1.7116160">
        <ele>1259.2</ele>
        <time>2015-08-13T11:18:06Z</time>
      </trkpt>
      <trkpt lat="42.3463130" lon="1.7116480">
        <ele>1259.5</ele>
        <time>2015-08-13T11:18:08Z</time>
      </trkpt>
      <trkpt lat="42.3462740" lon="1.7116850">
        <ele>1260.1</ele>
        <time>2015-08-13T11:18:10Z</time>
      </trkpt>
      <trkpt lat="42.3462440" lon="1.7117090">
        <ele>1260.5</ele>
        <time>2015-08-13T11:18:12Z</time>
      </trkpt>
      <trkpt lat="42.3462180" lon="1.7117280">
        <ele>1260.8</ele>
        <time>2015-08-13T11:18:14Z</time>
      </trkpt>
      <trkpt lat="42.3461810" lon="1.7117730">
        <ele>1261.3</ele>
        <time>2015-08-13T11:18:16Z</time>
      </trkpt>
      <trkpt lat="42.3461540" lon="1.7118020">
        <ele>1261.6</ele>
        <time>2015-08-13T11:18:19Z</time>
      </trkpt>
      <trkpt lat="42.3461240" lon="1.7118010">
        <ele>1262.1</ele>
        <time>2015-08-13T11:18:20Z</time>
      </trkpt>
      <trkpt lat="42.3460970" lon="1.7118550">
        <ele>1262.3</ele>
        <time>2015-08-13T11:18:22Z</time>
      </trkpt>
      <trkpt lat="42.3460750" lon="1.7118850">
        <ele>1262.5</ele>
        <time>2015-08-13T11:18:25Z</time>
      </trkpt>
      <trkpt lat="42.3460490" lon="1.7119130">
        <ele>1262.8</ele>
        <time>2015-08-13T11:18:27Z</time>
      </trkpt>
      <trkpt lat="42.3460100" lon="1.7119120">
        <ele>1263.4</ele>
        <time>2015-08-13T11:18:29Z</time>
      </trkpt>
      <trkpt lat="42.3459860" lon="1.7119450">
        <ele>1263.6</ele>
        <time>2015-08-13T11:18:31Z</time>
      </trkpt>
      <trkpt lat="42.3459500" lon="1.7119730">
        <ele>1264.0</ele>
        <time>2015-08-13T11:18:33Z</time>
      </trkpt>
      <trkpt lat="42.3459220" lon="1.7119870">
        <ele>1264.3</ele>
        <time>2015-08-13T11:18:36Z</time>
      </trkpt>
      <trkpt lat="42.3459310" lon="1.7120250">
        <ele>1264.0</ele>
        <time>2015-08-13T11:18:38Z</time>
      </trkpt>
      <trkpt lat="42.3459050" lon="1.7120540">
        <ele>1264.2</ele>
        <time>2015-08-13T11:18:41Z</time>
      </trkpt>
      <trkpt lat="42.3458840" lon="1.7120950">
        <ele>1264.3</ele>
        <time>2015-08-13T11:18:45Z</time>
      </trkpt>
      <trkpt lat="42.3458600" lon="1.7121160">
        <ele>1264.6</ele>
        <time>2015-08-13T11:18:48Z</time>
      </trkpt>
      <trkpt lat="42.3458350" lon="1.7121780">
        <ele>1264.8</ele>
        <time>2015-08-13T11:18:52Z</time>
      </trkpt>
      <trkpt lat="42.3458110" lon="1.7122040">
        <ele>1265.1</ele>
        <time>2015-08-13T11:18:54Z</time>
      </trkpt>
      <trkpt lat="42.3457810" lon="1.7121890">
        <ele>1265.5</ele>
        <time>2015-08-13T11:18:57Z</time>
      </trkpt>
      <trkpt lat="42.3457530" lon="1.7122300">
        <ele>1265.7</ele>
        <time>2015-08-13T11:18:59Z</time>
      </trkpt>
      <trkpt lat="42.3457370" lon="1.7122700">
        <ele>1265.7</ele>
        <time>2015-08-13T11:19:00Z</time>
      </trkpt>
      <trkpt lat="42.3457190" lon="1.7123030">
        <ele>1265.8</ele>
        <time>2015-08-13T11:19:02Z</time>
      </trkpt>
      <trkpt lat="42.3457070" lon="1.7123390">
        <ele>1265.8</ele>
        <time>2015-08-13T11:19:05Z</time>
      </trkpt>
      <trkpt lat="42.3456960" lon="1.7123740">
        <ele>1265.7</ele>
        <time>2015-08-13T11:19:07Z</time>
      </trkpt>
      <trkpt lat="42.3456630" lon="1.7123780">
        <ele>1266.0</ele>
        <time>2015-08-13T11:19:11Z</time>
      </trkpt>
      <trkpt lat="42.3456290" lon="1.7124010">
        <ele>1266.2</ele>
        <time>2015-08-13T11:19:13Z</time>
      </trkpt>
      <trkpt lat="42.3455830" lon="1.7124130">
        <ele>1266.5</ele>
        <time>2015-08-13T11:19:15Z</time>
      </trkpt>
      <trkpt lat="42.3455560" lon="1.7124410">
        <ele>1266.5</ele>
        <time>2015-08-13T11:19:18Z</time>
      </trkpt>
      <trkpt lat="42.3455250" lon="1.7124640">
        <ele>1266.6</ele>
        <time>2015-08-13T11:19:20Z</time>
      </trkpt>
      <trkpt lat="42.3454910" lon="1.7124570">
        <ele>1266.9</ele>
        <time>2015-08-13T11:19:24Z</time>
      </trkpt>
      <trkpt lat="42.3454610" lon="1.7124650">
        <ele>1267.0</ele>
        <time>2015-08-13T11:19:33Z</time>
      </trkpt>
      <trkpt lat="42.3454340" lon="1.7124270">
        <ele>1267.6</ele>
        <time>2015-08-13T11:19:35Z</time>
      </trkpt>
      <trkpt lat="42.3454000" lon="1.7124120">
        <ele>1268.2</ele>
        <time>2015-08-13T11:19:37Z</time>
      </trkpt>
      <trkpt lat="42.3453890" lon="1.7123780">
        <ele>1268.8</ele>
        <time>2015-08-13T11:19:39Z</time>
      </trkpt>
      <trkpt lat="42.3453700" lon="1.7123470">
        <ele>1269.5</ele>
        <time>2015-08-13T11:19:41Z</time>
      </trkpt>
      <trkpt lat="42.3453470" lon="1.7123010">
        <ele>1270.4</ele>
        <time>2015-08-13T11:19:43Z</time>
      </trkpt>
      <trkpt lat="42.3453230" lon="1.7122530">
        <ele>1271.4</ele>
        <time>2015-08-13T11:19:46Z</time>
      </trkpt>
      <trkpt lat="42.3453000" lon="1.7122320">
        <ele>1272.2</ele>
        <time>2015-08-13T11:19:48Z</time>
      </trkpt>
      <trkpt lat="42.3452800" lon="1.7121830">
        <ele>1273.1</ele>
        <time>2015-08-13T11:19:50Z</time>
      </trkpt>
      <trkpt lat="42.3452680" lon="1.7121490">
        <ele>1273.7</ele>
        <time>2015-08-13T11:19:51Z</time>
      </trkpt>
      <trkpt lat="42.3452600" lon="1.7121000">
        <ele>1274.4</ele>
        <time>2015-08-13T11:19:53Z</time>
      </trkpt>
      <trkpt lat="42.3452240" lon="1.7120550">
        <ele>1275.7</ele>
        <time>2015-08-13T11:19:55Z</time>
      </trkpt>
      <trkpt lat="42.3452160" lon="1.7120120">
        <ele>1276.2</ele>
        <time>2015-08-13T11:19:57Z</time>
      </trkpt>
      <trkpt lat="42.3452030" lon="1.7119550">
        <ele>1277.1</ele>
        <time>2015-08-13T11:19:59Z</time>
      </trkpt>
      <trkpt lat="42.3452210" lon="1.7119100">
        <ele>1277.1</ele>
        <time>2015-08-13T11:20:01Z</time>
      </trkpt>
      <trkpt lat="42.3452030" lon="1.7118770">
        <ele>1277.8</ele>
        <time>2015-08-13T11:20:03Z</time>
      </trkpt>
      <trkpt lat="42.3451780" lon="1.7118640">
        <ele>1278.4</ele>
        <time>2015-08-13T11:20:04Z</time>
      </trkpt>
      <trkpt lat="42.3451450" lon="1.7118600">
        <ele>1279.2</ele>
        <time>2015-08-13T11:20:06Z</time>
      </trkpt>
      <trkpt lat="42.3451200" lon="1.7118390">
        <ele>1279.9</ele>
        <time>2015-08-13T11:20:08Z</time>
      </trkpt>
      <trkpt lat="42.3450850" lon="1.7118120">
        <ele>1280.8</ele>
        <time>2015-08-13T11:20:11Z</time>
      </trkpt>
      <trkpt lat="42.3450520" lon="1.7118230">
        <ele>1281.4</ele>
        <time>2015-08-13T11:20:13Z</time>
      </trkpt>
      <trkpt lat="42.3450210" lon="1.7118400">
        <ele>1282.0</ele>
        <time>2015-08-13T11:20:15Z</time>
      </trkpt>
      <trkpt lat="42.3449930" lon="1.7118670">
        <ele>1282.3</ele>
        <time>2015-08-13T11:20:17Z</time>
      </trkpt>
      <trkpt lat="42.3449630" lon="1.7119090">
        <ele>1282.7</ele>
        <time>2015-08-13T11:20:19Z</time>
      </trkpt>
      <trkpt lat="42.3449270" lon="1.7119330">
        <ele>1283.3</ele>
        <time>2015-08-13T11:20:21Z</time>
      </trkpt>
      <trkpt lat="42.3448910" lon="1.7119520">
        <ele>1283.9</ele>
        <time>2015-08-13T11:20:23Z</time>
      </trkpt>
      <trkpt lat="42.3448620" lon="1.7119740">
        <ele>1284.4</ele>
        <time>2015-08-13T11:20:25Z</time>
      </trkpt>
      <trkpt lat="42.3448340" lon="1.7120110">
        <ele>1284.8</ele>
        <time>2015-08-13T11:20:27Z</time>
      </trkpt>
      <trkpt lat="42.3448090" lon="1.7120440">
        <ele>1285.1</ele>
        <time>2015-08-13T11:20:29Z</time>
      </trkpt>
      <trkpt lat="42.3447800" lon="1.7120650">
        <ele>1285.6</ele>
        <time>2015-08-13T11:20:31Z</time>
      </trkpt>
      <trkpt lat="42.3447500" lon="1.7120880">
        <ele>1286.1</ele>
        <time>2015-08-13T11:20:33Z</time>
      </trkpt>
      <trkpt lat="42.3447220" lon="1.7121050">
        <ele>1286.6</ele>
        <time>2015-08-13T11:20:34Z</time>
      </trkpt>
      <trkpt lat="42.3447040" lon="1.7121730">
        <ele>1286.1</ele>
        <time>2015-08-13T11:20:37Z</time>
      </trkpt>
      <trkpt lat="42.3447140" lon="1.7122220">
        <ele>1285.3</ele>
        <time>2015-08-13T11:20:39Z</time>
      </trkpt>
      <trkpt lat="42.3447180" lon="1.7122910">
        <ele>1284.3</ele>
        <time>2015-08-13T11:20:41Z</time>
      </trkpt>
      <trkpt lat="42.3447150" lon="1.7123580">
        <ele>1283.5</ele>
        <time>2015-08-13T11:20:43Z</time>
      </trkpt>
      <trkpt lat="42.3447010" lon="1.7123920">
        <ele>1283.4</ele>
        <time>2015-08-13T11:20:44Z</time>
      </trkpt>
      <trkpt lat="42.3446900" lon="1.7124290">
        <ele>1283.2</ele>
        <time>2015-08-13T11:20:45Z</time>
      </trkpt>
      <trkpt lat="42.3446850" lon="1.7124680">
        <ele>1282.8</ele>
        <time>2015-08-13T11:20:46Z</time>
      </trkpt>
      <trkpt lat="42.3446700" lon="1.7125170">
        <ele>1282.5</ele>
        <time>2015-08-13T11:20:48Z</time>
      </trkpt>
      <trkpt lat="42.3446750" lon="1.7125970">
        <ele>1281.3</ele>
        <time>2015-08-13T11:20:50Z</time>
      </trkpt>
      <trkpt lat="42.3446390" lon="1.7126340">
        <ele>1281.6</ele>
        <time>2015-08-13T11:20:52Z</time>
      </trkpt>
      <trkpt lat="42.3446550" lon="1.7126850">
        <ele>1280.6</ele>
        <time>2015-08-13T11:20:54Z</time>
      </trkpt>
      <trkpt lat="42.3446480" lon="1.7127380">
        <ele>1280.1</ele>
        <time>2015-08-13T11:20:56Z</time>
      </trkpt>
      <trkpt lat="42.3446360" lon="1.7127870">
        <ele>1279.7</ele>
        <time>2015-08-13T11:20:58Z</time>
      </trkpt>
      <trkpt lat="42.3446340" lon="1.7128400">
        <ele>1279.0</ele>
        <time>2015-08-13T11:21:00Z</time>
      </trkpt>
      <trkpt lat="42.3446570" lon="1.7128800">
        <ele>1278.1</ele>
        <time>2015-08-13T11:21:02Z</time>
      </trkpt>
      <trkpt lat="42.3446780" lon="1.7129100">
        <ele>1277.3</ele>
        <time>2015-08-13T11:21:04Z</time>
      </trkpt>
      <trkpt lat="42.3446990" lon="1.7129430">
        <ele>1276.7</ele>
        <time>2015-08-13T11:21:06Z</time>
      </trkpt>
      <trkpt lat="42.3447260" lon="1.7129800">
        <ele>1276.1</ele>
        <time>2015-08-13T11:21:09Z</time>
      </trkpt>
      <trkpt lat="42.3447450" lon="1.7130450">
        <ele>1275.7</ele>
        <time>2015-08-13T11:21:35Z</time>
      </trkpt>
      <trkpt lat="42.3447660" lon="1.7130780">
        <ele>1275.3</ele>
        <time>2015-08-13T11:21:36Z</time>
      </trkpt>
      <trkpt lat="42.3447930" lon="1.7131230">
        <ele>1274.8</ele>
        <time>2015-08-13T11:21:38Z</time>
      </trkpt>
      <trkpt lat="42.3448220" lon="1.7131740">
        <ele>1274.3</ele>
        <time>2015-08-13T11:21:40Z</time>
      </trkpt>
      <trkpt lat="42.3448510" lon="1.7132280">
        <ele>1273.8</ele>
        <time>2015-08-13T11:21:42Z</time>
      </trkpt>
      <trkpt lat="42.3448610" lon="1.7132840">
        <ele>1273.7</ele>
        <time>2015-08-13T11:21:45Z</time>
      </trkpt>
      <trkpt lat="42.3448720" lon="1.7133320">
        <ele>1273.5</ele>
        <time>2015-08-13T11:21:47Z</time>
      </trkpt>
      <trkpt lat="42.3448990" lon="1.7133880">
        <ele>1273.2</ele>
        <time>2015-08-13T11:21:50Z</time>
      </trkpt>
      <trkpt lat="42.3449230" lon="1.7134230">
        <ele>1272.9</ele>
        <time>2015-08-13T11:21:52Z</time>
      </trkpt>
      <trkpt lat="42.3449400" lon="1.7134870">
        <ele>1272.7</ele>
        <time>2015-08-13T11:21:54Z</time>
      </trkpt>
      <trkpt lat="42.3449600" lon="1.7135420">
        <ele>1272.6</ele>
        <time>2015-08-13T11:21:56Z</time>
      </trkpt>
      <trkpt lat="42.3449370" lon="1.7135690">
        <ele>1272.9</ele>
        <time>2015-08-13T11:21:58Z</time>
      </trkpt>
      <trkpt lat="42.3449240" lon="1.7136080">
        <ele>1273.0</ele>
        <time>2015-08-13T11:21:59Z</time>
      </trkpt>
      <trkpt lat="42.3449050" lon="1.7136470">
        <ele>1273.2</ele>
        <time>2015-08-13T11:22:01Z</time>
      </trkpt>
      <trkpt lat="42.3448660" lon="1.7136780">
        <ele>1273.6</ele>
        <time>2015-08-13T11:22:03Z</time>
      </trkpt>
      <trkpt lat="42.3448260" lon="1.7136960">
        <ele>1274.0</ele>
        <time>2015-08-13T11:22:08Z</time>
      </trkpt>
      <trkpt lat="42.3447900" lon="1.7137100">
        <ele>1274.3</ele>
        <time>2015-08-13T11:22:10Z</time>
      </trkpt>
      <trkpt lat="42.3447560" lon="1.7137340">
        <ele>1274.6</ele>
        <time>2015-08-13T11:22:12Z</time>
      </trkpt>
      <trkpt lat="42.3447320" lon="1.7137520">
        <ele>1274.8</ele>
        <time>2015-08-13T11:22:14Z</time>
      </trkpt>
      <trkpt lat="42.3447050" lon="1.7137700">
        <ele>1275.0</ele>
        <time>2015-08-13T11:22:16Z</time>
      </trkpt>
      <trkpt lat="42.3446770" lon="1.7137760">
        <ele>1275.3</ele>
        <time>2015-08-13T11:22:18Z</time>
      </trkpt>
      <trkpt lat="42.3446520" lon="1.7137990">
        <ele>1275.6</ele>
        <time>2015-08-13T11:22:20Z</time>
      </trkpt>
      <trkpt lat="42.3446030" lon="1.7138190">
        <ele>1276.0</ele>
        <time>2015-08-13T11:22:22Z</time>
      </trkpt>
      <trkpt lat="42.3445750" lon="1.7138230">
        <ele>1276.3</ele>
        <time>2015-08-13T11:22:23Z</time>
      </trkpt>
      <trkpt lat="42.3445330" lon="1.7138340">
        <ele>1276.7</ele>
        <time>2015-08-13T11:22:24Z</time>
      </trkpt>
      <trkpt lat="42.3445180" lon="1.7138680">
        <ele>1277.0</ele>
        <time>2015-08-13T11:22:25Z</time>
      </trkpt>
      <trkpt lat="42.3444610" lon="1.7139020">
        <ele>1277.7</ele>
        <time>2015-08-13T11:22:27Z</time>
      </trkpt>
      <trkpt lat="42.3444340" lon="1.7138740">
        <ele>1277.9</ele>
        <time>2015-08-13T11:22:28Z</time>
      </trkpt>
      <trkpt lat="42.3444050" lon="1.7138730">
        <ele>1278.2</ele>
        <time>2015-08-13T11:22:30Z</time>
      </trkpt>
      <trkpt lat="42.3443750" lon="1.7138820">
        <ele>1278.5</ele>
        <time>2015-08-13T11:22:31Z</time>
      </trkpt>
      <trkpt lat="42.3443520" lon="1.7139120">
        <ele>1278.8</ele>
        <time>2015-08-13T11:22:32Z</time>
      </trkpt>
      <trkpt lat="42.3443260" lon="1.7139410">
        <ele>1279.2</ele>
        <time>2015-08-13T11:22:33Z</time>
      </trkpt>
      <trkpt lat="42.3442890" lon="1.7139530">
        <ele>1279.6</ele>
        <time>2015-08-13T11:22:35Z</time>
      </trkpt>
      <trkpt lat="42.3442580" lon="1.7139770">
        <ele>1280.0</ele>
        <time>2015-08-13T11:22:36Z</time>
      </trkpt>
      <trkpt lat="42.3442430" lon="1.7140070">
        <ele>1280.2</ele>
        <time>2015-08-13T11:22:37Z</time>
      </trkpt>
      <trkpt lat="42.3441890" lon="1.7140000">
        <ele>1280.7</ele>
        <time>2015-08-13T11:22:39Z</time>
      </trkpt>
      <trkpt lat="42.3441400" lon="1.7140170">
        <ele>1281.3</ele>
        <time>2015-08-13T11:22:41Z</time>
      </trkpt>
      <trkpt lat="42.3441130" lon="1.7140290">
        <ele>1281.6</ele>
        <time>2015-08-13T11:22:43Z</time>
      </trkpt>
      <trkpt lat="42.3440930" lon="1.7140620">
        <ele>1281.8</ele>
        <time>2015-08-13T11:22:45Z</time>
      </trkpt>
      <trkpt lat="42.3440540" lon="1.7140840">
        <ele>1282.3</ele>
        <time>2015-08-13T11:22:47Z</time>
      </trkpt>
      <trkpt lat="42.3440120" lon="1.7140860">
        <ele>1282.7</ele>
        <time>2015-08-13T11:22:50Z</time>
      </trkpt>
      <trkpt lat="42.3439800" lon="1.7140720">
        <ele>1283.0</ele>
        <time>2015-08-13T11:22:53Z</time>
      </trkpt>
      <trkpt lat="42.3439480" lon="1.7140670">
        <ele>1283.3</ele>
        <time>2015-08-13T11:22:55Z</time>
      </trkpt>
      <trkpt lat="42.3439260" lon="1.7140330">
        <ele>1283.5</ele>
        <time>2015-08-13T11:22:57Z</time>
      </trkpt>
      <trkpt lat="42.3439150" lon="1.7139920">
        <ele>1283.6</ele>
        <time>2015-08-13T11:22:59Z</time>
      </trkpt>
      <trkpt lat="42.3438810" lon="1.7140030">
        <ele>1283.9</ele>
        <time>2015-08-13T11:23:03Z</time>
      </trkpt>
      <trkpt lat="42.3438510" lon="1.7140210">
        <ele>1284.3</ele>
        <time>2015-08-13T11:23:06Z</time>
      </trkpt>
      <trkpt lat="42.3438200" lon="1.7139940">
        <ele>1284.6</ele>
        <time>2015-08-13T11:23:09Z</time>
      </trkpt>
      <trkpt lat="42.3438080" lon="1.7140430">
        <ele>1284.7</ele>
        <time>2015-08-13T11:23:31Z</time>
      </trkpt>
      <trkpt lat="42.3438390" lon="1.7140570">
        <ele>1284.4</ele>
        <time>2015-08-13T11:23:44Z</time>
      </trkpt>
      <trkpt lat="42.3438060" lon="1.7140430">
        <ele>1284.8</ele>
        <time>2015-08-13T11:24:31Z</time>
      </trkpt>
      <trkpt lat="42.3437750" lon="1.7140440">
        <ele>1285.1</ele>
        <time>2015-08-13T11:24:37Z</time>
      </trkpt>
      <trkpt lat="42.3437400" lon="1.7140420">
        <ele>1285.6</ele>
        <time>2015-08-13T11:24:40Z</time>
      </trkpt>
      <trkpt lat="42.3437090" lon="1.7140270">
        <ele>1286.5</ele>
        <time>2015-08-13T11:24:42Z</time>
      </trkpt>
      <trkpt lat="42.3436800" lon="1.7140110">
        <ele>1287.2</ele>
        <time>2015-08-13T11:24:45Z</time>
      </trkpt>
      <trkpt lat="42.3436460" lon="1.7139760">
        <ele>1288.1</ele>
        <time>2015-08-13T11:24:47Z</time>
      </trkpt>
      <trkpt lat="42.3436160" lon="1.7139550">
        <ele>1288.9</ele>
        <time>2015-08-13T11:24:49Z</time>
      </trkpt>
      <trkpt lat="42.3435880" lon="1.7139620">
        <ele>1289.7</ele>
        <time>2015-08-13T11:24:51Z</time>
      </trkpt>
      <trkpt lat="42.3435550" lon="1.7139560">
        <ele>1290.6</ele>
        <time>2015-08-13T11:24:54Z</time>
      </trkpt>
      <trkpt lat="42.3435300" lon="1.7139400">
        <ele>1291.2</ele>
        <time>2015-08-13T11:24:56Z</time>
      </trkpt>
      <trkpt lat="42.3435000" lon="1.7139340">
        <ele>1292.0</ele>
        <time>2015-08-13T11:24:58Z</time>
      </trkpt>
      <trkpt lat="42.3434660" lon="1.7139720">
        <ele>1293.0</ele>
        <time>2015-08-13T11:25:00Z</time>
      </trkpt>
      <trkpt lat="42.3434350" lon="1.7139890">
        <ele>1293.9</ele>
        <time>2015-08-13T11:25:03Z</time>
      </trkpt>
      <trkpt lat="42.3434060" lon="1.7139800">
        <ele>1294.7</ele>
        <time>2015-08-13T11:25:05Z</time>
      </trkpt>
      <trkpt lat="42.3433710" lon="1.7139940">
        <ele>1295.7</ele>
        <time>2015-08-13T11:25:08Z</time>
      </trkpt>
      <trkpt lat="42.3433370" lon="1.7140200">
        <ele>1296.7</ele>
        <time>2015-08-13T11:25:11Z</time>
      </trkpt>
      <trkpt lat="42.3433100" lon="1.7140130">
        <ele>1297.4</ele>
        <time>2015-08-13T11:25:14Z</time>
      </trkpt>
      <trkpt lat="42.3432830" lon="1.7140390">
        <ele>1298.3</ele>
        <time>2015-08-13T11:25:19Z</time>
      </trkpt>
      <trkpt lat="42.3432410" lon="1.7140690">
        <ele>1299.5</ele>
        <time>2015-08-13T11:25:21Z</time>
      </trkpt>
      <trkpt lat="42.3432020" lon="1.7140690">
        <ele>1300.6</ele>
        <time>2015-08-13T11:25:25Z</time>
      </trkpt>
      <trkpt lat="42.3431730" lon="1.7140870">
        <ele>1301.5</ele>
        <time>2015-08-13T11:25:28Z</time>
      </trkpt>
      <trkpt lat="42.3431650" lon="1.7141410">
        <ele>1301.9</ele>
        <time>2015-08-13T11:25:31Z</time>
      </trkpt>
      <trkpt lat="42.3431510" lon="1.7141950">
        <ele>1302.5</ele>
        <time>2015-08-13T11:25:34Z</time>
      </trkpt>
      <trkpt lat="42.3431450" lon="1.7142360">
        <ele>1302.8</ele>
        <time>2015-08-13T11:25:37Z</time>
      </trkpt>
      <trkpt lat="42.3431370" lon="1.7142820">
        <ele>1303.2</ele>
        <time>2015-08-13T11:25:41Z</time>
      </trkpt>
      <trkpt lat="42.3431200" lon="1.7143140">
        <ele>1303.8</ele>
        <time>2015-08-13T11:25:44Z</time>
      </trkpt>
      <trkpt lat="42.3431160" lon="1.7143780">
        <ele>1304.2</ele>
        <time>2015-08-13T11:25:47Z</time>
      </trkpt>
      <trkpt lat="42.3430940" lon="1.7144160">
        <ele>1305.0</ele>
        <time>2015-08-13T11:25:49Z</time>
      </trkpt>
      <trkpt lat="42.3431070" lon="1.7144530">
        <ele>1304.8</ele>
        <time>2015-08-13T11:25:50Z</time>
      </trkpt>
      <trkpt lat="42.3430990" lon="1.7144970">
        <ele>1305.2</ele>
        <time>2015-08-13T11:25:51Z</time>
      </trkpt>
      <trkpt lat="42.3431280" lon="1.7145040">
        <ele>1304.4</ele>
        <time>2015-08-13T11:25:53Z</time>
      </trkpt>
      <trkpt lat="42.3431300" lon="1.7145520">
        <ele>1304.5</ele>
        <time>2015-08-13T11:25:56Z</time>
      </trkpt>
      <trkpt lat="42.3431460" lon="1.7146090">
        <ele>1304.4</ele>
        <time>2015-08-13T11:25:59Z</time>
      </trkpt>
      <trkpt lat="42.3431320" lon="1.7146570">
        <ele>1305.3</ele>
        <time>2015-08-13T11:26:01Z</time>
      </trkpt>
      <trkpt lat="42.3431190" lon="1.7147060">
        <ele>1306.2</ele>
        <time>2015-08-13T11:26:04Z</time>
      </trkpt>
      <trkpt lat="42.3431040" lon="1.7147450">
        <ele>1307.0</ele>
        <time>2015-08-13T11:26:06Z</time>
      </trkpt>
      <trkpt lat="42.3430890" lon="1.7147790">
        <ele>1307.8</ele>
        <time>2015-08-13T11:26:08Z</time>
      </trkpt>
      <trkpt lat="42.3431290" lon="1.7148020">
        <ele>1306.8</ele>
        <time>2015-08-13T11:26:09Z</time>
      </trkpt>
      <trkpt lat="42.3431270" lon="1.7148400">
        <ele>1307.2</ele>
        <time>2015-08-13T11:26:11Z</time>
      </trkpt>
      <trkpt lat="42.3431150" lon="1.7148900">
        <ele>1308.1</ele>
        <time>2015-08-13T11:26:13Z</time>
      </trkpt>
      <trkpt lat="42.3431100" lon="1.7149490">
        <ele>1308.9</ele>
        <time>2015-08-13T11:26:15Z</time>
      </trkpt>
      <trkpt lat="42.3431110" lon="1.7149860">
        <ele>1309.2</ele>
        <time>2015-08-13T11:26:16Z</time>
      </trkpt>
      <trkpt lat="42.3430970" lon="1.7150180">
        <ele>1310.0</ele>
        <time>2015-08-13T11:26:22Z</time>
      </trkpt>
      <trkpt lat="42.3431140" lon="1.7150750">
        <ele>1310.0</ele>
        <time>2015-08-13T11:26:24Z</time>
      </trkpt>
      <trkpt lat="42.3431010" lon="1.7151260">
        <ele>1311.0</ele>
        <time>2015-08-13T11:26:25Z</time>
      </trkpt>
      <trkpt lat="42.3431100" lon="1.7151610">
        <ele>1311.0</ele>
        <time>2015-08-13T11:26:26Z</time>
      </trkpt>
      <trkpt lat="42.3431630" lon="1.7152180">
        <ele>1309.7</ele>
        <time>2015-08-13T11:26:28Z</time>
      </trkpt>
      <trkpt lat="42.3431650" lon="1.7152590">
        <ele>1310.0</ele>
        <time>2015-08-13T11:26:30Z</time>
      </trkpt>
      <trkpt lat="42.3431720" lon="1.7152950">
        <ele>1310.0</ele>
        <time>2015-08-13T11:26:32Z</time>
      </trkpt>
      <trkpt lat="42.3431910" lon="1.7153310">
        <ele>1309.7</ele>
        <time>2015-08-13T11:26:34Z</time>
      </trkpt>
      <trkpt lat="42.3431630" lon="1.7153810">
        <ele>1311.2</ele>
        <time>2015-08-13T11:26:36Z</time>
      </trkpt>
      <trkpt lat="42.3431780" lon="1.7154360">
        <ele>1311.1</ele>
        <time>2015-08-13T11:26:38Z</time>
      </trkpt>
      <trkpt lat="42.3431800" lon="1.7154790">
        <ele>1311.4</ele>
        <time>2015-08-13T11:26:40Z</time>
      </trkpt>
      <trkpt lat="42.3431940" lon="1.7155290">
        <ele>1311.2</ele>
        <time>2015-08-13T11:26:42Z</time>
      </trkpt>
      <trkpt lat="42.3432090" lon="1.7155600">
        <ele>1310.9</ele>
        <time>2015-08-13T11:26:43Z</time>
      </trkpt>
      <trkpt lat="42.3431870" lon="1.7156030">
        <ele>1312.0</ele>
        <time>2015-08-13T11:26:45Z</time>
      </trkpt>
      <trkpt lat="42.3431780" lon="1.7156600">
        <ele>1312.8</ele>
        <time>2015-08-13T11:26:47Z</time>
      </trkpt>
      <trkpt lat="42.3431730" lon="1.7157140">
        <ele>1313.4</ele>
        <time>2015-08-13T11:26:49Z</time>
      </trkpt>
      <trkpt lat="42.3431740" lon="1.7157580">
        <ele>1313.7</ele>
        <time>2015-08-13T11:26:51Z</time>
      </trkpt>
      <trkpt lat="42.3431970" lon="1.7158030">
        <ele>1313.2</ele>
        <time>2015-08-13T11:26:53Z</time>
      </trkpt>
      <trkpt lat="42.3432300" lon="1.7158170">
        <ele>1312.0</ele>
        <time>2015-08-13T11:26:55Z</time>
      </trkpt>
      <trkpt lat="42.3432070" lon="1.7158600">
        <ele>1313.2</ele>
        <time>2015-08-13T11:26:57Z</time>
      </trkpt>
      <trkpt lat="42.3432140" lon="1.7159140">
        <ele>1313.4</ele>
        <time>2015-08-13T11:26:59Z</time>
      </trkpt>
      <trkpt lat="42.3432320" lon="1.7159550">
        <ele>1313.0</ele>
        <time>2015-08-13T11:27:00Z</time>
      </trkpt>
      <trkpt lat="42.3432490" lon="1.7160000">
        <ele>1312.7</ele>
        <time>2015-08-13T11:27:01Z</time>
      </trkpt>
      <trkpt lat="42.3432620" lon="1.7160420">
        <ele>1312.6</ele>
        <time>2015-08-13T11:27:02Z</time>
      </trkpt>
      <trkpt lat="42.3432740" lon="1.7160860">
        <ele>1312.4</ele>
        <time>2015-08-13T11:27:03Z</time>
      </trkpt>
      <trkpt lat="42.3432890" lon="1.7161370">
        <ele>1312.3</ele>
        <time>2015-08-13T11:27:04Z</time>
      </trkpt>
      <trkpt lat="42.3433040" lon="1.7161680">
        <ele>1312.0</ele>
        <time>2015-08-13T11:27:05Z</time>
      </trkpt>
      <trkpt lat="42.3432710" lon="1.7161990">
        <ele>1313.4</ele>
        <time>2015-08-13T11:27:06Z</time>
      </trkpt>
      <trkpt lat="42.3432830" lon="1.7162410">
        <ele>1313.3</ele>
        <time>2015-08-13T11:27:07Z</time>
      </trkpt>
      <trkpt lat="42.3432840" lon="1.7163090">
        <ele>1313.6</ele>
        <time>2015-08-13T11:27:08Z</time>
      </trkpt>
      <trkpt lat="42.3433020" lon="1.7163730">
        <ele>1313.1</ele>
        <time>2015-08-13T11:27:09Z</time>
      </trkpt>
      <trkpt lat="42.3432590" lon="1.7164570">
        <ele>1315.1</ele>
        <time>2015-08-13T11:27:11Z</time>
      </trkpt>
      <trkpt lat="42.3432270" lon="1.7165190">
        <ele>1316.6</ele>
        <time>2015-08-13T11:27:13Z</time>
      </trkpt>
      <trkpt lat="42.3432020" lon="1.7165500">
        <ele>1317.7</ele>
        <time>2015-08-13T11:27:14Z</time>
      </trkpt>
      <trkpt lat="42.3432180" lon="1.7166170">
        <ele>1317.4</ele>
        <time>2015-08-13T11:27:16Z</time>
      </trkpt>
      <trkpt lat="42.3431760" lon="1.7166690">
        <ele>1319.2</ele>
        <time>2015-08-13T11:27:18Z</time>
      </trkpt>
      <trkpt lat="42.3431580" lon="1.7167260">
        <ele>1320.2</ele>
        <time>2015-08-13T11:27:19Z</time>
      </trkpt>
      <trkpt lat="42.3431260" lon="1.7167500">
        <ele>1321.6</ele>
        <time>2015-08-13T11:27:20Z</time>
      </trkpt>
      <trkpt lat="42.3431240" lon="1.7167910">
        <ele>1321.9</ele>
        <time>2015-08-13T11:27:21Z</time>
      </trkpt>
      <trkpt lat="42.3431150" lon="1.7168340">
        <ele>1322.5</ele>
        <time>2015-08-13T11:27:22Z</time>
      </trkpt>
      <trkpt lat="42.3430990" lon="1.7168850">
        <ele>1323.4</ele>
        <time>2015-08-13T11:27:24Z</time>
      </trkpt>
      <trkpt lat="42.3431260" lon="1.7169240">
        <ele>1322.4</ele>
        <time>2015-08-13T11:27:25Z</time>
      </trkpt>
      <trkpt lat="42.3430970" lon="1.7169680">
        <ele>1323.9</ele>
        <time>2015-08-13T11:27:27Z</time>
      </trkpt>
      <trkpt lat="42.3430780" lon="1.7170090">
        <ele>1324.8</ele>
        <time>2015-08-13T11:27:28Z</time>
      </trkpt>
      <trkpt lat="42.3430390" lon="1.7170630">
        <ele>1326.8</ele>
        <time>2015-08-13T11:27:30Z</time>
      </trkpt>
      <trkpt lat="42.3430580" lon="1.7171070">
        <ele>1326.0</ele>
        <time>2015-08-13T11:27:31Z</time>
      </trkpt>
      <trkpt lat="42.3430390" lon="1.7171660">
        <ele>1326.8</ele>
        <time>2015-08-13T11:27:33Z</time>
      </trkpt>
      <trkpt lat="42.3430090" lon="1.7171860">
        <ele>1328.0</ele>
        <time>2015-08-13T11:27:34Z</time>
      </trkpt>
      <trkpt lat="42.3430300" lon="1.7172320">
        <ele>1327.1</ele>
        <time>2015-08-13T11:27:35Z</time>
      </trkpt>
      <trkpt lat="42.3430460" lon="1.7172800">
        <ele>1326.3</ele>
        <time>2015-08-13T11:27:36Z</time>
      </trkpt>
      <trkpt lat="42.3430500" lon="1.7173170">
        <ele>1326.1</ele>
        <time>2015-08-13T11:27:37Z</time>
      </trkpt>
      <trkpt lat="42.3430560" lon="1.7173540">
        <ele>1325.8</ele>
        <time>2015-08-13T11:27:38Z</time>
      </trkpt>
      <trkpt lat="42.3430680" lon="1.7173890">
        <ele>1325.3</ele>
        <time>2015-08-13T11:27:39Z</time>
      </trkpt>
      <trkpt lat="42.3430730" lon="1.7174590">
        <ele>1325.0</ele>
        <time>2015-08-13T11:27:41Z</time>
      </trkpt>
      <trkpt lat="42.3430570" lon="1.7175310">
        <ele>1325.6</ele>
        <time>2015-08-13T11:27:44Z</time>
      </trkpt>
      <trkpt lat="42.3430710" lon="1.7175970">
        <ele>1324.9</ele>
        <time>2015-08-13T11:27:47Z</time>
      </trkpt>
      <trkpt lat="42.3430650" lon="1.7176330">
        <ele>1325.1</ele>
        <time>2015-08-13T11:27:48Z</time>
      </trkpt>
      <trkpt lat="42.3430600" lon="1.7176760">
        <ele>1325.3</ele>
        <time>2015-08-13T11:27:49Z</time>
      </trkpt>
      <trkpt lat="42.3430510" lon="1.7177270">
        <ele>1325.6</ele>
        <time>2015-08-13T11:27:50Z</time>
      </trkpt>
      <trkpt lat="42.3430310" lon="1.7177990">
        <ele>1326.3</ele>
        <time>2015-08-13T11:27:52Z</time>
      </trkpt>
      <trkpt lat="42.3430140" lon="1.7178270">
        <ele>1327.0</ele>
        <time>2015-08-13T11:27:53Z</time>
      </trkpt>
      <trkpt lat="42.3429940" lon="1.7178710">
        <ele>1327.8</ele>
        <time>2015-08-13T11:27:55Z</time>
      </trkpt>
      <trkpt lat="42.3430070" lon="1.7179390">
        <ele>1326.8</ele>
        <time>2015-08-13T11:27:57Z</time>
      </trkpt>
      <trkpt lat="42.3429860" lon="1.7180040">
        <ele>1326.4</ele>
        <time>2015-08-13T11:27:59Z</time>
      </trkpt>
      <trkpt lat="42.3429640" lon="1.7180530">
        <ele>1326.3</ele>
        <time>2015-08-13T11:28:01Z</time>
      </trkpt>
      <trkpt lat="42.3429300" lon="1.7180330">
        <ele>1328.1</ele>
        <time>2015-08-13T11:28:02Z</time>
      </trkpt>
      <trkpt lat="42.3429000" lon="1.7180340">
        <ele>1329.2</ele>
        <time>2015-08-13T11:28:03Z</time>
      </trkpt>
      <trkpt lat="42.3428520" lon="1.7180190">
        <ele>1331.3</ele>
        <time>2015-08-13T11:28:05Z</time>
      </trkpt>
      <trkpt lat="42.3428240" lon="1.7180050">
        <ele>1332.7</ele>
        <time>2015-08-13T11:28:07Z</time>
      </trkpt>
      <trkpt lat="42.3428360" lon="1.7179620">
        <ele>1333.2</ele>
        <time>2015-08-13T11:28:10Z</time>
      </trkpt>
      <trkpt lat="42.3428250" lon="1.7179080">
        <ele>1334.6</ele>
        <time>2015-08-13T11:28:12Z</time>
      </trkpt>
      <trkpt lat="42.3428270" lon="1.7178460">
        <ele>1334.7</ele>
        <time>2015-08-13T11:28:15Z</time>
      </trkpt>
      <trkpt lat="42.3428250" lon="1.7178080">
        <ele>1334.8</ele>
        <time>2015-08-13T11:28:17Z</time>
      </trkpt>
      <trkpt lat="42.3428180" lon="1.7177330">
        <ele>1335.3</ele>
        <time>2015-08-13T11:28:19Z</time>
      </trkpt>
      <trkpt lat="42.3428060" lon="1.7176780">
        <ele>1335.9</ele>
        <time>2015-08-13T11:28:21Z</time>
      </trkpt>
      <trkpt lat="42.3427870" lon="1.7176370">
        <ele>1336.8</ele>
        <time>2015-08-13T11:28:23Z</time>
      </trkpt>
      <trkpt lat="42.3427760" lon="1.7176020">
        <ele>1337.3</ele>
        <time>2015-08-13T11:28:24Z</time>
      </trkpt>
      <trkpt lat="42.3427480" lon="1.7175620">
        <ele>1338.6</ele>
        <time>2015-08-13T11:28:26Z</time>
      </trkpt>
      <trkpt lat="42.3427510" lon="1.7175150">
        <ele>1338.6</ele>
        <time>2015-08-13T11:28:29Z</time>
      </trkpt>
      <trkpt lat="42.3427060" lon="1.7174770">
        <ele>1340.7</ele>
        <time>2015-08-13T11:28:31Z</time>
      </trkpt>
      <trkpt lat="42.3427120" lon="1.7174200">
        <ele>1340.6</ele>
        <time>2015-08-13T11:28:33Z</time>
      </trkpt>
      <trkpt lat="42.3427020" lon="1.7173800">
        <ele>1341.1</ele>
        <time>2015-08-13T11:28:35Z</time>
      </trkpt>
      <trkpt lat="42.3427040" lon="1.7173300">
        <ele>1341.2</ele>
        <time>2015-08-13T11:28:38Z</time>
      </trkpt>
      <trkpt lat="42.3427100" lon="1.7172810">
        <ele>1341.1</ele>
        <time>2015-08-13T11:28:40Z</time>
      </trkpt>
      <trkpt lat="42.3427170" lon="1.7172300">
        <ele>1340.9</ele>
        <time>2015-08-13T11:28:42Z</time>
      </trkpt>
      <trkpt lat="42.3427360" lon="1.7171710">
        <ele>1340.2</ele>
        <time>2015-08-13T11:28:45Z</time>
      </trkpt>
      <trkpt lat="42.3427400" lon="1.7171270">
        <ele>1340.1</ele>
        <time>2015-08-13T11:28:47Z</time>
      </trkpt>
      <trkpt lat="42.3427310" lon="1.7170840">
        <ele>1340.7</ele>
        <time>2015-08-13T11:28:50Z</time>
      </trkpt>
      <trkpt lat="42.3427170" lon="1.7170480">
        <ele>1341.2</ele>
        <time>2015-08-13T11:28:52Z</time>
      </trkpt>
      <trkpt lat="42.3427310" lon="1.7170060">
        <ele>1340.3</ele>
        <time>2015-08-13T11:28:55Z</time>
      </trkpt>
      <trkpt lat="42.3427370" lon="1.7169520">
        <ele>1339.8</ele>
        <time>2015-08-13T11:28:59Z</time>
      </trkpt>
      <trkpt lat="42.3427330" lon="1.7168870">
        <ele>1339.7</ele>
        <time>2015-08-13T11:29:01Z</time>
      </trkpt>
      <trkpt lat="42.3427380" lon="1.7168310">
        <ele>1339.2</ele>
        <time>2015-08-13T11:29:03Z</time>
      </trkpt>
      <trkpt lat="42.3426990" lon="1.7168030">
        <ele>1340.9</ele>
        <time>2015-08-13T11:29:04Z</time>
      </trkpt>
      <trkpt lat="42.3426710" lon="1.7167710">
        <ele>1342.2</ele>
        <time>2015-08-13T11:29:06Z</time>
      </trkpt>
      <trkpt lat="42.3426610" lon="1.7167190">
        <ele>1342.4</ele>
        <time>2015-08-13T11:29:08Z</time>
      </trkpt>
      <trkpt lat="42.3426640" lon="1.7166700">
        <ele>1342.1</ele>
        <time>2015-08-13T11:29:10Z</time>
      </trkpt>
      <trkpt lat="42.3426360" lon="1.7166240">
        <ele>1343.3</ele>
        <time>2015-08-13T11:29:13Z</time>
      </trkpt>
      <trkpt lat="42.3426250" lon="1.7165820">
        <ele>1343.7</ele>
        <time>2015-08-13T11:29:15Z</time>
      </trkpt>
      <trkpt lat="42.3426270" lon="1.7165380">
        <ele>1343.4</ele>
        <time>2015-08-13T11:29:17Z</time>
      </trkpt>
      <trkpt lat="42.3426410" lon="1.7164860">
        <ele>1342.5</ele>
        <time>2015-08-13T11:29:19Z</time>
      </trkpt>
      <trkpt lat="42.3426300" lon="1.7164250">
        <ele>1342.8</ele>
        <time>2015-08-13T11:29:21Z</time>
      </trkpt>
      <trkpt lat="42.3426370" lon="1.7163650">
        <ele>1342.2</ele>
        <time>2015-08-13T11:29:23Z</time>
      </trkpt>
      <trkpt lat="42.3426020" lon="1.7163200">
        <ele>1343.9</ele>
        <time>2015-08-13T11:29:27Z</time>
      </trkpt>
      <trkpt lat="42.3425560" lon="1.7162660">
        <ele>1346.1</ele>
        <time>2015-08-13T11:29:31Z</time>
      </trkpt>
      <trkpt lat="42.3425510" lon="1.7162080">
        <ele>1345.9</ele>
        <time>2015-08-13T11:29:35Z</time>
      </trkpt>
      <trkpt lat="42.3425410" lon="1.7161700">
        <ele>1346.0</ele>
        <time>2015-08-13T11:29:37Z</time>
      </trkpt>
      <trkpt lat="42.3425240" lon="1.7161280">
        <ele>1346.5</ele>
        <time>2015-08-13T11:29:39Z</time>
      </trkpt>
      <trkpt lat="42.3425120" lon="1.7160900">
        <ele>1346.7</ele>
        <time>2015-08-13T11:29:41Z</time>
      </trkpt>
      <trkpt lat="42.3425010" lon="1.7160510">
        <ele>1346.9</ele>
        <time>2015-08-13T11:29:44Z</time>
      </trkpt>
      <trkpt lat="42.3424810" lon="1.7160110">
        <ele>1347.5</ele>
        <time>2015-08-13T11:29:46Z</time>
      </trkpt>
      <trkpt lat="42.3424780" lon="1.7159580">
        <ele>1347.1</ele>
        <time>2015-08-13T11:29:49Z</time>
      </trkpt>
      <trkpt lat="42.3424480" lon="1.7159300">
        <ele>1348.4</ele>
        <time>2015-08-13T11:29:53Z</time>
      </trkpt>
      <trkpt lat="42.3424460" lon="1.7158690">
        <ele>1347.8</ele>
        <time>2015-08-13T11:29:55Z</time>
      </trkpt>
      <trkpt lat="42.3424380" lon="1.7158140">
        <ele>1347.6</ele>
        <time>2015-08-13T11:29:57Z</time>
      </trkpt>
      <trkpt lat="42.3424290" lon="1.7157780">
        <ele>1347.7</ele>
        <time>2015-08-13T11:29:59Z</time>
      </trkpt>
      <trkpt lat="42.3424160" lon="1.7157460">
        <ele>1348.0</ele>
        <time>2015-08-13T11:30:01Z</time>
      </trkpt>
      <trkpt lat="42.3423910" lon="1.7156770">
        <ele>1348.5</ele>
        <time>2015-08-13T11:30:03Z</time>
      </trkpt>
      <trkpt lat="42.3423620" lon="1.7156330">
        <ele>1349.4</ele>
        <time>2015-08-13T11:30:05Z</time>
      </trkpt>
      <trkpt lat="42.3423490" lon="1.7155750">
        <ele>1349.4</ele>
        <time>2015-08-13T11:30:08Z</time>
      </trkpt>
      <trkpt lat="42.3423600" lon="1.7155220">
        <ele>1348.2</ele>
        <time>2015-08-13T11:30:10Z</time>
      </trkpt>
      <trkpt lat="42.3423560" lon="1.7154840">
        <ele>1348.0</ele>
        <time>2015-08-13T11:30:12Z</time>
      </trkpt>
      <trkpt lat="42.3423500" lon="1.7154470">
        <ele>1347.9</ele>
        <time>2015-08-13T11:30:13Z</time>
      </trkpt>
      <trkpt lat="42.3423350" lon="1.7154040">
        <ele>1348.1</ele>
        <time>2015-08-13T11:30:16Z</time>
      </trkpt>
      <trkpt lat="42.3423210" lon="1.7153650">
        <ele>1348.3</ele>
        <time>2015-08-13T11:30:18Z</time>
      </trkpt>
      <trkpt lat="42.3423240" lon="1.7153270">
        <ele>1347.7</ele>
        <time>2015-08-13T11:30:20Z</time>
      </trkpt>
      <trkpt lat="42.3423000" lon="1.7152970">
        <ele>1348.4</ele>
        <time>2015-08-13T11:30:22Z</time>
      </trkpt>
      <trkpt lat="42.3422740" lon="1.7152670">
        <ele>1349.3</ele>
        <time>2015-08-13T11:30:24Z</time>
      </trkpt>
      <trkpt lat="42.3422380" lon="1.7152380">
        <ele>1350.6</ele>
        <time>2015-08-13T11:30:26Z</time>
      </trkpt>
      <trkpt lat="42.3422230" lon="1.7151940">
        <ele>1350.8</ele>
        <time>2015-08-13T11:30:29Z</time>
      </trkpt>
      <trkpt lat="42.3422560" lon="1.7151530">
        <ele>1348.8</ele>
        <time>2015-08-13T11:30:33Z</time>
      </trkpt>
      <trkpt lat="42.3422290" lon="1.7151220">
        <ele>1349.6</ele>
        <time>2015-08-13T11:30:36Z</time>
      </trkpt>
      <trkpt lat="42.3421870" lon="1.7151030">
        <ele>1351.4</ele>
        <time>2015-08-13T11:30:39Z</time>
      </trkpt>
      <trkpt lat="42.3421710" lon="1.7150410">
        <ele>1351.4</ele>
        <time>2015-08-13T11:30:42Z</time>
      </trkpt>
      <trkpt lat="42.3421650" lon="1.7149910">
        <ele>1351.1</ele>
        <time>2015-08-13T11:30:44Z</time>
      </trkpt>
      <trkpt lat="42.3421470" lon="1.7149510">
        <ele>1351.4</ele>
        <time>2015-08-13T11:30:46Z</time>
      </trkpt>
      <trkpt lat="42.3421210" lon="1.7149210">
        <ele>1352.3</ele>
        <time>2015-08-13T11:30:50Z</time>
      </trkpt>
      <trkpt lat="42.3421070" lon="1.7148870">
        <ele>1352.5</ele>
        <time>2015-08-13T11:30:52Z</time>
      </trkpt>
      <trkpt lat="42.3420910" lon="1.7148290">
        <ele>1352.6</ele>
        <time>2015-08-13T11:30:55Z</time>
      </trkpt>
      <trkpt lat="42.3420910" lon="1.7147790">
        <ele>1352.0</ele>
        <time>2015-08-13T11:30:59Z</time>
      </trkpt>
      <trkpt lat="42.3420850" lon="1.7147420">
        <ele>1351.8</ele>
        <time>2015-08-13T11:31:01Z</time>
      </trkpt>
      <trkpt lat="42.3420690" lon="1.7147060">
        <ele>1352.1</ele>
        <time>2015-08-13T11:31:03Z</time>
      </trkpt>
      <trkpt lat="42.3420620" lon="1.7146650">
        <ele>1352.0</ele>
        <time>2015-08-13T11:31:06Z</time>
      </trkpt>
      <trkpt lat="42.3420350" lon="1.7146440">
        <ele>1352.9</ele>
        <time>2015-08-13T11:31:10Z</time>
      </trkpt>
      <trkpt lat="42.3420500" lon="1.7146070">
        <ele>1351.8</ele>
        <time>2015-08-13T11:31:12Z</time>
      </trkpt>
      <trkpt lat="42.3420240" lon="1.7145610">
        <ele>1352.3</ele>
        <time>2015-08-13T11:31:15Z</time>
      </trkpt>
      <trkpt lat="42.3419910" lon="1.7145350">
        <ele>1353.4</ele>
        <time>2015-08-13T11:31:18Z</time>
      </trkpt>
      <trkpt lat="42.3419850" lon="1.7144810">
        <ele>1352.8</ele>
        <time>2015-08-13T11:31:23Z</time>
      </trkpt>
      <trkpt lat="42.3419850" lon="1.7144430">
        <ele>1352.2</ele>
        <time>2015-08-13T11:31:26Z</time>
      </trkpt>
      <trkpt lat="42.3419560" lon="1.7144170">
        <ele>1353.1</ele>
        <time>2015-08-13T11:31:28Z</time>
      </trkpt>
      <trkpt lat="42.3419360" lon="1.7143720">
        <ele>1353.2</ele>
        <time>2015-08-13T11:31:32Z</time>
      </trkpt>
      <trkpt lat="42.3419150" lon="1.7143340">
        <ele>1353.5</ele>
        <time>2015-08-13T11:31:35Z</time>
      </trkpt>
      <trkpt lat="42.3418880" lon="1.7142940">
        <ele>1354.0</ele>
        <time>2015-08-13T11:31:41Z</time>
      </trkpt>
      <trkpt lat="42.3418470" lon="1.7142630">
        <ele>1355.2</ele>
        <time>2015-08-13T11:31:43Z</time>
      </trkpt>
      <trkpt lat="42.3418210" lon="1.7142280">
        <ele>1355.7</ele>
        <time>2015-08-13T11:31:45Z</time>
      </trkpt>
      <trkpt lat="42.3417970" lon="1.7141900">
        <ele>1356.1</ele>
        <time>2015-08-13T11:31:47Z</time>
      </trkpt>
      <trkpt lat="42.3417730" lon="1.7141690">
        <ele>1356.8</ele>
        <time>2015-08-13T11:31:48Z</time>
      </trkpt>
      <trkpt lat="42.3417670" lon="1.7141290">
        <ele>1356.3</ele>
        <time>2015-08-13T11:31:51Z</time>
      </trkpt>
      <trkpt lat="42.3417540" lon="1.7140960">
        <ele>1356.3</ele>
        <time>2015-08-13T11:31:53Z</time>
      </trkpt>
      <trkpt lat="42.3417310" lon="1.7140730">
        <ele>1356.8</ele>
        <time>2015-08-13T11:31:55Z</time>
      </trkpt>
      <trkpt lat="42.3417120" lon="1.7140260">
        <ele>1356.7</ele>
        <time>2015-08-13T11:31:58Z</time>
      </trkpt>
      <trkpt lat="42.3417150" lon="1.7139830">
        <ele>1355.8</ele>
        <time>2015-08-13T11:32:01Z</time>
      </trkpt>
      <trkpt lat="42.3416910" lon="1.7139550">
        <ele>1356.3</ele>
        <time>2015-08-13T11:32:03Z</time>
      </trkpt>
      <trkpt lat="42.3416590" lon="1.7139310">
        <ele>1357.2</ele>
        <time>2015-08-13T11:32:07Z</time>
      </trkpt>
      <trkpt lat="42.3416380" lon="1.7138890">
        <ele>1357.2</ele>
        <time>2015-08-13T11:32:10Z</time>
      </trkpt>
      <trkpt lat="42.3416410" lon="1.7138430">
        <ele>1356.3</ele>
        <time>2015-08-13T11:32:12Z</time>
      </trkpt>
      <trkpt lat="42.3416250" lon="1.7137910">
        <ele>1355.9</ele>
        <time>2015-08-13T11:32:15Z</time>
      </trkpt>
      <trkpt lat="42.3416020" lon="1.7137620">
        <ele>1356.3</ele>
        <time>2015-08-13T11:32:18Z</time>
      </trkpt>
      <trkpt lat="42.3415810" lon="1.7137130">
        <ele>1356.3</ele>
        <time>2015-08-13T11:32:21Z</time>
      </trkpt>
      <trkpt lat="42.3415610" lon="1.7136810">
        <ele>1356.5</ele>
        <time>2015-08-13T11:32:23Z</time>
      </trkpt>
      <trkpt lat="42.3415500" lon="1.7136430">
        <ele>1356.3</ele>
        <time>2015-08-13T11:32:25Z</time>
      </trkpt>
      <trkpt lat="42.3415200" lon="1.7136290">
        <ele>1357.2</ele>
        <time>2015-08-13T11:32:28Z</time>
      </trkpt>
      <trkpt lat="42.3415020" lon="1.7135890">
        <ele>1357.2</ele>
        <time>2015-08-13T11:32:30Z</time>
      </trkpt>
      <trkpt lat="42.3414760" lon="1.7135650">
        <ele>1357.8</ele>
        <time>2015-08-13T11:32:32Z</time>
      </trkpt>
      <trkpt lat="42.3414530" lon="1.7135330">
        <ele>1358.1</ele>
        <time>2015-08-13T11:32:36Z</time>
      </trkpt>
      <trkpt lat="42.3414230" lon="1.7135050">
        <ele>1358.8</ele>
        <time>2015-08-13T11:32:39Z</time>
      </trkpt>
      <trkpt lat="42.3413910" lon="1.7134860">
        <ele>1359.6</ele>
        <time>2015-08-13T11:32:42Z</time>
      </trkpt>
      <trkpt lat="42.3413670" lon="1.7134510">
        <ele>1359.9</ele>
        <time>2015-08-13T11:32:44Z</time>
      </trkpt>
      <trkpt lat="42.3413330" lon="1.7134190">
        <ele>1360.6</ele>
        <time>2015-08-13T11:32:47Z</time>
      </trkpt>
      <trkpt lat="42.3413290" lon="1.7133800">
        <ele>1360.0</ele>
        <time>2015-08-13T11:32:49Z</time>
      </trkpt>
      <trkpt lat="42.3413090" lon="1.7133470">
        <ele>1360.1</ele>
        <time>2015-08-13T11:32:51Z</time>
      </trkpt>
      <trkpt lat="42.3412810" lon="1.7133280">
        <ele>1360.8</ele>
        <time>2015-08-13T11:32:54Z</time>
      </trkpt>
      <trkpt lat="42.3412610" lon="1.7132930">
        <ele>1360.8</ele>
        <time>2015-08-13T11:32:57Z</time>
      </trkpt>
      <trkpt lat="42.3412360" lon="1.7132620">
        <ele>1361.1</ele>
        <time>2015-08-13T11:32:59Z</time>
      </trkpt>
      <trkpt lat="42.3412020" lon="1.7132510">
        <ele>1361.9</ele>
        <time>2015-08-13T11:33:03Z</time>
      </trkpt>
      <trkpt lat="42.3411660" lon="1.7132360">
        <ele>1362.8</ele>
        <time>2015-08-13T11:33:05Z</time>
      </trkpt>
      <trkpt lat="42.3411470" lon="1.7132080">
        <ele>1362.8</ele>
        <time>2015-08-13T11:33:07Z</time>
      </trkpt>
      <trkpt lat="42.3411170" lon="1.7131940">
        <ele>1363.5</ele>
        <time>2015-08-13T11:33:09Z</time>
      </trkpt>
      <trkpt lat="42.3410950" lon="1.7131670">
        <ele>1363.6</ele>
        <time>2015-08-13T11:33:12Z</time>
      </trkpt>
      <trkpt lat="42.3410640" lon="1.7131490">
        <ele>1364.2</ele>
        <time>2015-08-13T11:33:16Z</time>
      </trkpt>
      <trkpt lat="42.3410410" lon="1.7131000">
        <ele>1363.9</ele>
        <time>2015-08-13T11:33:19Z</time>
      </trkpt>
      <trkpt lat="42.3410030" lon="1.7130900">
        <ele>1364.8</ele>
        <time>2015-08-13T11:33:23Z</time>
      </trkpt>
      <trkpt lat="42.3409680" lon="1.7130870">
        <ele>1365.8</ele>
        <time>2015-08-13T11:33:25Z</time>
      </trkpt>
      <trkpt lat="42.3409420" lon="1.7130750">
        <ele>1366.3</ele>
        <time>2015-08-13T11:33:27Z</time>
      </trkpt>
      <trkpt lat="42.3409330" lon="1.7130370">
        <ele>1365.8</ele>
        <time>2015-08-13T11:33:30Z</time>
      </trkpt>
      <trkpt lat="42.3409020" lon="1.7130090">
        <ele>1366.1</ele>
        <time>2015-08-13T11:33:32Z</time>
      </trkpt>
      <trkpt lat="42.3408720" lon="1.7129800">
        <ele>1366.3</ele>
        <time>2015-08-13T11:33:35Z</time>
      </trkpt>
      <trkpt lat="42.3408320" lon="1.7129660">
        <ele>1367.2</ele>
        <time>2015-08-13T11:33:38Z</time>
      </trkpt>
      <trkpt lat="42.3408070" lon="1.7129460">
        <ele>1367.4</ele>
        <time>2015-08-13T11:33:42Z</time>
      </trkpt>
      <trkpt lat="42.3408000" lon="1.7129030">
        <ele>1366.7</ele>
        <time>2015-08-13T11:33:45Z</time>
      </trkpt>
      <trkpt lat="42.3407680" lon="1.7129020">
        <ele>1367.6</ele>
        <time>2015-08-13T11:33:48Z</time>
      </trkpt>
      <trkpt lat="42.3407340" lon="1.7128840">
        <ele>1368.1</ele>
        <time>2015-08-13T11:33:52Z</time>
      </trkpt>
      <trkpt lat="42.3407270" lon="1.7128400">
        <ele>1367.3</ele>
        <time>2015-08-13T11:33:54Z</time>
      </trkpt>
      <trkpt lat="42.3406930" lon="1.7128270">
        <ele>1367.9</ele>
        <time>2015-08-13T11:33:55Z</time>
      </trkpt>
      <trkpt lat="42.3406600" lon="1.7128120">
        <ele>1368.5</ele>
        <time>2015-08-13T11:33:57Z</time>
      </trkpt>
      <trkpt lat="42.3406400" lon="1.7127870">
        <ele>1368.4</ele>
        <time>2015-08-13T11:33:59Z</time>
      </trkpt>
      <trkpt lat="42.3406100" lon="1.7127660">
        <ele>1368.6</ele>
        <time>2015-08-13T11:34:03Z</time>
      </trkpt>
      <trkpt lat="42.3405790" lon="1.7127260">
        <ele>1368.4</ele>
        <time>2015-08-13T11:34:06Z</time>
      </trkpt>
      <trkpt lat="42.3405960" lon="1.7126810">
        <ele>1366.8</ele>
        <time>2015-08-13T11:34:09Z</time>
      </trkpt>
      <trkpt lat="42.3405420" lon="1.7126810">
        <ele>1368.2</ele>
        <time>2015-08-13T11:34:13Z</time>
      </trkpt>
      <trkpt lat="42.3404860" lon="1.7126750">
        <ele>1369.4</ele>
        <time>2015-08-13T11:34:18Z</time>
      </trkpt>
      <trkpt lat="42.3404460" lon="1.7126610">
        <ele>1369.9</ele>
        <time>2015-08-13T11:34:20Z</time>
      </trkpt>
      <trkpt lat="42.3404230" lon="1.7126230">
        <ele>1369.4</ele>
        <time>2015-08-13T11:34:25Z</time>
      </trkpt>
      <trkpt lat="42.3403930" lon="1.7126060">
        <ele>1369.4</ele>
        <time>2015-08-13T11:34:27Z</time>
      </trkpt>
      <trkpt lat="42.3403830" lon="1.7125400">
        <ele>1367.7</ele>
        <time>2015-08-13T11:34:30Z</time>
      </trkpt>
      <trkpt lat="42.3403610" lon="1.7125130">
        <ele>1367.3</ele>
        <time>2015-08-13T11:34:35Z</time>
      </trkpt>
      <trkpt lat="42.3403310" lon="1.7125050">
        <ele>1367.5</ele>
        <time>2015-08-13T11:34:37Z</time>
      </trkpt>
      <trkpt lat="42.3403050" lon="1.7124870">
        <ele>1367.4</ele>
        <time>2015-08-13T11:34:39Z</time>
      </trkpt>
      <trkpt lat="42.3403000" lon="1.7124490">
        <ele>1366.4</ele>
        <time>2015-08-13T11:34:43Z</time>
      </trkpt>
      <trkpt lat="42.3402830" lon="1.7124180">
        <ele>1365.8</ele>
        <time>2015-08-13T11:34:46Z</time>
      </trkpt>
      <trkpt lat="42.3402470" lon="1.7124300">
        <ele>1366.7</ele>
        <time>2015-08-13T11:34:49Z</time>
      </trkpt>
      <trkpt lat="42.3402100" lon="1.7124210">
        <ele>1367.0</ele>
        <time>2015-08-13T11:34:52Z</time>
      </trkpt>
      <trkpt lat="42.3401660" lon="1.7124130">
        <ele>1367.5</ele>
        <time>2015-08-13T11:34:55Z</time>
      </trkpt>
      <trkpt lat="42.3401390" lon="1.7124030">
        <ele>1367.6</ele>
        <time>2015-08-13T11:34:57Z</time>
      </trkpt>
      <trkpt lat="42.3401120" lon="1.7123810">
        <ele>1367.4</ele>
        <time>2015-08-13T11:35:01Z</time>
      </trkpt>
      <trkpt lat="42.3400780" lon="1.7123820">
        <ele>1367.9</ele>
        <time>2015-08-13T11:35:04Z</time>
      </trkpt>
      <trkpt lat="42.3400540" lon="1.7123590">
        <ele>1367.6</ele>
        <time>2015-08-13T11:35:08Z</time>
      </trkpt>
      <trkpt lat="42.3400300" lon="1.7123390">
        <ele>1367.4</ele>
        <time>2015-08-13T11:35:11Z</time>
      </trkpt>
      <trkpt lat="42.3399980" lon="1.7123170">
        <ele>1367.2</ele>
        <time>2015-08-13T11:35:13Z</time>
      </trkpt>
      <trkpt lat="42.3399690" lon="1.7122970">
        <ele>1367.0</ele>
        <time>2015-08-13T11:35:18Z</time>
      </trkpt>
      <trkpt lat="42.3399480" lon="1.7122740">
        <ele>1366.6</ele>
        <time>2015-08-13T11:35:20Z</time>
      </trkpt>
      <trkpt lat="42.3399110" lon="1.7122520">
        <ele>1366.5</ele>
        <time>2015-08-13T11:35:23Z</time>
      </trkpt>
      <trkpt lat="42.3398780" lon="1.7122420">
        <ele>1366.7</ele>
        <time>2015-08-13T11:35:25Z</time>
      </trkpt>
      <trkpt lat="42.3398530" lon="1.7122560">
        <ele>1367.5</ele>
        <time>2015-08-13T11:35:28Z</time>
      </trkpt>
      <trkpt lat="42.3398130" lon="1.7122600">
        <ele>1368.2</ele>
        <time>2015-08-13T11:35:30Z</time>
      </trkpt>
      <trkpt lat="42.3398080" lon="1.7123030">
        <ele>1369.7</ele>
        <time>2015-08-13T11:35:32Z</time>
      </trkpt>
      <trkpt lat="42.3398270" lon="1.7123370">
        <ele>1370.4</ele>
        <time>2015-08-13T11:35:38Z</time>
      </trkpt>
      <trkpt lat="42.3398550" lon="1.7123720">
        <ele>1371.1</ele>
        <time>2015-08-13T11:35:41Z</time>
      </trkpt>
      <trkpt lat="42.3398860" lon="1.7124050">
        <ele>1371.6</ele>
        <time>2015-08-13T11:35:44Z</time>
      </trkpt>
      <trkpt lat="42.3399090" lon="1.7124250">
        <ele>1371.9</ele>
        <time>2015-08-13T11:35:48Z</time>
      </trkpt>
      <trkpt lat="42.3399480" lon="1.7124240">
        <ele>1371.2</ele>
        <time>2015-08-13T11:35:51Z</time>
      </trkpt>
      <trkpt lat="42.3399760" lon="1.7124460">
        <ele>1371.5</ele>
        <time>2015-08-13T11:35:54Z</time>
      </trkpt>
      <trkpt lat="42.3400020" lon="1.7124730">
        <ele>1371.9</ele>
        <time>2015-08-13T11:35:58Z</time>
      </trkpt>
      <trkpt lat="42.3400320" lon="1.7125020">
        <ele>1372.3</ele>
        <time>2015-08-13T11:36:00Z</time>
      </trkpt>
      <trkpt lat="42.3400710" lon="1.7125200">
        <ele>1372.2</ele>
        <time>2015-08-13T11:36:04Z</time>
      </trkpt>
      <trkpt lat="42.3400940" lon="1.7125500">
        <ele>1372.7</ele>
        <time>2015-08-13T11:36:06Z</time>
      </trkpt>
      <trkpt lat="42.3401150" lon="1.7125750">
        <ele>1373.1</ele>
        <time>2015-08-13T11:36:08Z</time>
      </trkpt>
      <trkpt lat="42.3401530" lon="1.7125950">
        <ele>1373.1</ele>
        <time>2015-08-13T11:36:11Z</time>
      </trkpt>
      <trkpt lat="42.3401870" lon="1.7126270">
        <ele>1373.5</ele>
        <time>2015-08-13T11:36:13Z</time>
      </trkpt>
      <trkpt lat="42.3401800" lon="1.7126670">
        <ele>1374.8</ele>
        <time>2015-08-13T11:36:16Z</time>
      </trkpt>
      <trkpt lat="42.3401860" lon="1.7127110">
        <ele>1376.0</ele>
        <time>2015-08-13T11:36:19Z</time>
      </trkpt>
      <trkpt lat="42.3401960" lon="1.7127500">
        <ele>1377.0</ele>
        <time>2015-08-13T11:36:21Z</time>
      </trkpt>
      <trkpt lat="42.3402060" lon="1.7127920">
        <ele>1378.1</ele>
        <time>2015-08-13T11:36:25Z</time>
      </trkpt>
      <trkpt lat="42.3401990" lon="1.7128360">
        <ele>1379.5</ele>
        <time>2015-08-13T11:36:26Z</time>
      </trkpt>
      <trkpt lat="42.3402220" lon="1.7128640">
        <ele>1379.9</ele>
        <time>2015-08-13T11:36:29Z</time>
      </trkpt>
      <trkpt lat="42.3402280" lon="1.7129100">
        <ele>1381.2</ele>
        <time>2015-08-13T11:36:32Z</time>
      </trkpt>
      <trkpt lat="42.3402560" lon="1.7129370">
        <ele>1381.5</ele>
        <time>2015-08-13T11:36:34Z</time>
      </trkpt>
      <trkpt lat="42.3402710" lon="1.7129770">
        <ele>1382.3</ele>
        <time>2015-08-13T11:36:36Z</time>
      </trkpt>
      <trkpt lat="42.3402880" lon="1.7130070">
        <ele>1382.8</ele>
        <time>2015-08-13T11:36:39Z</time>
      </trkpt>
      <trkpt lat="42.3402890" lon="1.7130580">
        <ele>1384.2</ele>
        <time>2015-08-13T11:36:44Z</time>
      </trkpt>
      <trkpt lat="42.3403060" lon="1.7131130">
        <ele>1385.3</ele>
        <time>2015-08-13T11:36:46Z</time>
      </trkpt>
      <trkpt lat="42.3403220" lon="1.7131600">
        <ele>1386.3</ele>
        <time>2015-08-13T11:36:48Z</time>
      </trkpt>
      <trkpt lat="42.3403510" lon="1.7131940">
        <ele>1386.6</ele>
        <time>2015-08-13T11:36:53Z</time>
      </trkpt>
      <trkpt lat="42.3403540" lon="1.7132350">
        <ele>1387.7</ele>
        <time>2015-08-13T11:36:56Z</time>
      </trkpt>
      <trkpt lat="42.3403680" lon="1.7132670">
        <ele>1388.2</ele>
        <time>2015-08-13T11:36:59Z</time>
      </trkpt>
      <trkpt lat="42.3403790" lon="1.7133230">
        <ele>1389.5</ele>
        <time>2015-08-13T11:37:04Z</time>
      </trkpt>
      <trkpt lat="42.3404050" lon="1.7133400">
        <ele>1389.4</ele>
        <time>2015-08-13T11:37:08Z</time>
      </trkpt>
      <trkpt lat="42.3404200" lon="1.7133890">
        <ele>1390.4</ele>
        <time>2015-08-13T11:37:10Z</time>
      </trkpt>
      <trkpt lat="42.3404590" lon="1.7134200">
        <ele>1389.9</ele>
        <time>2015-08-13T11:37:13Z</time>
      </trkpt>
      <trkpt lat="42.3404870" lon="1.7134230">
        <ele>1389.0</ele>
        <time>2015-08-13T11:37:15Z</time>
      </trkpt>
      <trkpt lat="42.3405170" lon="1.7134400">
        <ele>1388.5</ele>
        <time>2015-08-13T11:37:17Z</time>
      </trkpt>
      <trkpt lat="42.3405080" lon="1.7134750">
        <ele>1389.7</ele>
        <time>2015-08-13T11:37:19Z</time>
      </trkpt>
      <trkpt lat="42.3405230" lon="1.7135050">
        <ele>1389.9</ele>
        <time>2015-08-13T11:37:22Z</time>
      </trkpt>
      <trkpt lat="42.3405270" lon="1.7135520">
        <ele>1391.0</ele>
        <time>2015-08-13T11:37:25Z</time>
      </trkpt>
      <trkpt lat="42.3405200" lon="1.7135970">
        <ele>1392.4</ele>
        <time>2015-08-13T11:37:27Z</time>
      </trkpt>
      <trkpt lat="42.3405540" lon="1.7136350">
        <ele>1392.2</ele>
        <time>2015-08-13T11:37:29Z</time>
      </trkpt>
      <trkpt lat="42.3405630" lon="1.7136780">
        <ele>1392.9</ele>
        <time>2015-08-13T11:37:32Z</time>
      </trkpt>
      <trkpt lat="42.3405270" lon="1.7137110">
        <ele>1395.0</ele>
        <time>2015-08-13T11:37:34Z</time>
      </trkpt>
      <trkpt lat="42.3404950" lon="1.7137480">
        <ele>1397.1</ele>
        <time>2015-08-13T11:37:36Z</time>
      </trkpt>
      <trkpt lat="42.3405280" lon="1.7137860">
        <ele>1396.8</ele>
        <time>2015-08-13T11:37:41Z</time>
      </trkpt>
      <trkpt lat="42.3405790" lon="1.7137920">
        <ele>1395.1</ele>
        <time>2015-08-13T11:37:43Z</time>
      </trkpt>
      <trkpt lat="42.3406090" lon="1.7138090">
        <ele>1394.4</ele>
        <time>2015-08-13T11:37:48Z</time>
      </trkpt>
      <trkpt lat="42.3406280" lon="1.7138360">
        <ele>1394.2</ele>
        <time>2015-08-13T11:37:50Z</time>
      </trkpt>
      <trkpt lat="42.3406700" lon="1.7138720">
        <ele>1393.5</ele>
        <time>2015-08-13T11:37:52Z</time>
      </trkpt>
      <trkpt lat="42.3407100" lon="1.7138960">
        <ele>1392.6</ele>
        <time>2015-08-13T11:37:54Z</time>
      </trkpt>
      <trkpt lat="42.3407470" lon="1.7139290">
        <ele>1392.0</ele>
        <time>2015-08-13T11:37:56Z</time>
      </trkpt>
      <trkpt lat="42.3407790" lon="1.7139410">
        <ele>1391.1</ele>
        <time>2015-08-13T11:37:57Z</time>
      </trkpt>
      <trkpt lat="42.3407500" lon="1.7140070">
        <ele>1393.6</ele>
        <time>2015-08-13T11:38:01Z</time>
      </trkpt>
      <trkpt lat="42.3407640" lon="1.7140400">
        <ele>1393.8</ele>
        <time>2015-08-13T11:38:05Z</time>
      </trkpt>
      <trkpt lat="42.3407750" lon="1.7140750">
        <ele>1394.1</ele>
        <time>2015-08-13T11:38:09Z</time>
      </trkpt>
      <trkpt lat="42.3407600" lon="1.7141140">
        <ele>1395.5</ele>
        <time>2015-08-13T11:38:11Z</time>
      </trkpt>
      <trkpt lat="42.3407570" lon="1.7141650">
        <ele>1396.7</ele>
        <time>2015-08-13T11:38:14Z</time>
      </trkpt>
      <trkpt lat="42.3407380" lon="1.7142350">
        <ele>1398.9</ele>
        <time>2015-08-13T11:38:16Z</time>
      </trkpt>
      <trkpt lat="42.3407310" lon="1.7142760">
        <ele>1400.0</ele>
        <time>2015-08-13T11:38:18Z</time>
      </trkpt>
      <trkpt lat="42.3407550" lon="1.7143070">
        <ele>1399.9</ele>
        <time>2015-08-13T11:38:19Z</time>
      </trkpt>
      <trkpt lat="42.3407990" lon="1.7142930">
        <ele>1398.0</ele>
        <time>2015-08-13T11:38:21Z</time>
      </trkpt>
      <trkpt lat="42.3407630" lon="1.7143150">
        <ele>1399.7</ele>
        <time>2015-08-13T11:38:22Z</time>
      </trkpt>
      <trkpt lat="42.3407800" lon="1.7143920">
        <ele>1400.8</ele>
        <time>2015-08-13T11:38:24Z</time>
      </trkpt>
      <trkpt lat="42.3408090" lon="1.7144010">
        <ele>1399.9</ele>
        <time>2015-08-13T11:38:26Z</time>
      </trkpt>
      <trkpt lat="42.3408040" lon="1.7144490">
        <ele>1401.2</ele>
        <time>2015-08-13T11:38:30Z</time>
      </trkpt>
      <trkpt lat="42.3408200" lon="1.7144800">
        <ele>1401.2</ele>
        <time>2015-08-13T11:38:34Z</time>
      </trkpt>
      <trkpt lat="42.3408390" lon="1.7145180">
        <ele>1401.4</ele>
        <time>2015-08-13T11:38:38Z</time>
      </trkpt>
      <trkpt lat="42.3408460" lon="1.7145640">
        <ele>1402.1</ele>
        <time>2015-08-13T11:38:41Z</time>
      </trkpt>
      <trkpt lat="42.3408480" lon="1.7146030">
        <ele>1402.8</ele>
        <time>2015-08-13T11:38:50Z</time>
      </trkpt>
      <trkpt lat="42.3408740" lon="1.7145930">
        <ele>1401.7</ele>
        <time>2015-08-13T11:40:36Z</time>
      </trkpt>
      <trkpt lat="42.3408920" lon="1.7146400">
        <ele>1401.7</ele>
        <time>2015-08-13T11:41:37Z</time>
      </trkpt>
      <trkpt lat="42.3409170" lon="1.7146580">
        <ele>1401.1</ele>
        <time>2015-08-13T11:41:39Z</time>
      </trkpt>
      <trkpt lat="42.3408970" lon="1.7147030">
        <ele>1402.5</ele>
        <time>2015-08-13T11:42:12Z</time>
      </trkpt>
      <trkpt lat="42.3408760" lon="1.7147620">
        <ele>1404.1</ele>
        <time>2015-08-13T11:42:15Z</time>
      </trkpt>
      <trkpt lat="42.3408640" lon="1.7147970">
        <ele>1405.1</ele>
        <time>2015-08-13T11:42:17Z</time>
      </trkpt>
      <trkpt lat="42.3408960" lon="1.7147980">
        <ele>1403.9</ele>
        <time>2015-08-13T11:42:20Z</time>
      </trkpt>
      <trkpt lat="42.3409060" lon="1.7148350">
        <ele>1404.1</ele>
        <time>2015-08-13T11:42:22Z</time>
      </trkpt>
      <trkpt lat="42.3408960" lon="1.7148790">
        <ele>1405.1</ele>
        <time>2015-08-13T11:42:24Z</time>
      </trkpt>
      <trkpt lat="42.3409080" lon="1.7149320">
        <ele>1405.4</ele>
        <time>2015-08-13T11:42:27Z</time>
      </trkpt>
      <trkpt lat="42.3409030" lon="1.7149680">
        <ele>1406.1</ele>
        <time>2015-08-13T11:42:29Z</time>
      </trkpt>
      <trkpt lat="42.3408830" lon="1.7150050">
        <ele>1407.4</ele>
        <time>2015-08-13T11:42:34Z</time>
      </trkpt>
      <trkpt lat="42.3408800" lon="1.7150480">
        <ele>1408.2</ele>
        <time>2015-08-13T11:42:36Z</time>
      </trkpt>
      <trkpt lat="42.3408800" lon="1.7150910">
        <ele>1408.8</ele>
        <time>2015-08-13T11:42:38Z</time>
      </trkpt>
      <trkpt lat="42.3408590" lon="1.7151350">
        <ele>1410.3</ele>
        <time>2015-08-13T11:42:41Z</time>
      </trkpt>
      <trkpt lat="42.3408660" lon="1.7151780">
        <ele>1410.7</ele>
        <time>2015-08-13T11:42:43Z</time>
      </trkpt>
      <trkpt lat="42.3408760" lon="1.7152210">
        <ele>1410.9</ele>
        <time>2015-08-13T11:42:45Z</time>
      </trkpt>
      <trkpt lat="42.3409090" lon="1.7152670">
        <ele>1410.3</ele>
        <time>2015-08-13T11:42:47Z</time>
      </trkpt>
      <trkpt lat="42.3409370" lon="1.7152840">
        <ele>1409.5</ele>
        <time>2015-08-13T11:42:48Z</time>
      </trkpt>
      <trkpt lat="42.3409610" lon="1.7153050">
        <ele>1408.8</ele>
        <time>2015-08-13T11:42:49Z</time>
      </trkpt>
      <trkpt lat="42.3409430" lon="1.7153430">
        <ele>1410.1</ele>
        <time>2015-08-13T11:42:51Z</time>
      </trkpt>
      <trkpt lat="42.3409280" lon="1.7153880">
        <ele>1411.3</ele>
        <time>2015-08-13T11:42:54Z</time>
      </trkpt>
      <trkpt lat="42.3409210" lon="1.7154350">
        <ele>1412.2</ele>
        <time>2015-08-13T11:42:57Z</time>
      </trkpt>
      <trkpt lat="42.3408990" lon="1.7154740">
        <ele>1413.4</ele>
        <time>2015-08-13T11:42:59Z</time>
      </trkpt>
      <trkpt lat="42.3408730" lon="1.7155060">
        <ele>1414.8</ele>
        <time>2015-08-13T11:43:02Z</time>
      </trkpt>
      <trkpt lat="42.3408770" lon="1.7155440">
        <ele>1415.0</ele>
        <time>2015-08-13T11:43:05Z</time>
      </trkpt>
      <trkpt lat="42.3408880" lon="1.7155900">
        <ele>1415.0</ele>
        <time>2015-08-13T11:43:08Z</time>
      </trkpt>
      <trkpt lat="42.3408610" lon="1.7156090">
        <ele>1416.2</ele>
        <time>2015-08-13T11:43:11Z</time>
      </trkpt>
      <trkpt lat="42.3408610" lon="1.7156540">
        <ele>1416.7</ele>
        <time>2015-08-13T11:43:13Z</time>
      </trkpt>
      <trkpt lat="42.3408600" lon="1.7157000">
        <ele>1417.1</ele>
        <time>2015-08-13T11:43:16Z</time>
      </trkpt>
      <trkpt lat="42.3408510" lon="1.7157380">
        <ele>1417.9</ele>
        <time>2015-08-13T11:43:20Z</time>
      </trkpt>
      <trkpt lat="42.3408290" lon="1.7157690">
        <ele>1419.1</ele>
        <time>2015-08-13T11:43:22Z</time>
      </trkpt>
      <trkpt lat="42.3408300" lon="1.7158100">
        <ele>1419.4</ele>
        <time>2015-08-13T11:43:25Z</time>
      </trkpt>
      <trkpt lat="42.3408400" lon="1.7158520">
        <ele>1419.4</ele>
        <time>2015-08-13T11:43:28Z</time>
      </trkpt>
      <trkpt lat="42.3408490" lon="1.7158920">
        <ele>1419.4</ele>
        <time>2015-08-13T11:43:32Z</time>
      </trkpt>
      <trkpt lat="42.3408780" lon="1.7158640">
        <ele>1418.0</ele>
        <time>2015-08-13T11:43:33Z</time>
      </trkpt>
      <trkpt lat="42.3409070" lon="1.7158780">
        <ele>1416.9</ele>
        <time>2015-08-13T11:43:36Z</time>
      </trkpt>
      <trkpt lat="42.3409050" lon="1.7159710">
        <ele>1417.9</ele>
        <time>2015-08-13T11:43:39Z</time>
      </trkpt>
      <trkpt lat="42.3409110" lon="1.7160270">
        <ele>1418.1</ele>
        <time>2015-08-13T11:43:41Z</time>
      </trkpt>
      <trkpt lat="42.3409260" lon="1.7160700">
        <ele>1417.9</ele>
        <time>2015-08-13T11:43:43Z</time>
      </trkpt>
      <trkpt lat="42.3408870" lon="1.7161300">
        <ele>1420.1</ele>
        <time>2015-08-13T11:43:45Z</time>
      </trkpt>
      <trkpt lat="42.3408590" lon="1.7161660">
        <ele>1421.6</ele>
        <time>2015-08-13T11:43:46Z</time>
      </trkpt>
      <trkpt lat="42.3408570" lon="1.7162100">
        <ele>1422.1</ele>
        <time>2015-08-13T11:43:49Z</time>
      </trkpt>
      <trkpt lat="42.3408500" lon="1.7162540">
        <ele>1422.8</ele>
        <time>2015-08-13T11:43:51Z</time>
      </trkpt>
      <trkpt lat="42.3408420" lon="1.7163010">
        <ele>1422.8</ele>
        <time>2015-08-13T11:43:54Z</time>
      </trkpt>
      <trkpt lat="42.3408240" lon="1.7163490">
        <ele>1423.2</ele>
        <time>2015-08-13T11:43:58Z</time>
      </trkpt>
      <trkpt lat="42.3408190" lon="1.7163900">
        <ele>1423.1</ele>
        <time>2015-08-13T11:44:00Z</time>
      </trkpt>
      <trkpt lat="42.3408250" lon="1.7164310">
        <ele>1422.6</ele>
        <time>2015-08-13T11:44:02Z</time>
      </trkpt>
      <trkpt lat="42.3408040" lon="1.7164740">
        <ele>1423.1</ele>
        <time>2015-08-13T11:44:04Z</time>
      </trkpt>
      <trkpt lat="42.3407730" lon="1.7164980">
        <ele>1424.1</ele>
        <time>2015-08-13T11:44:07Z</time>
      </trkpt>
      <trkpt lat="42.3407570" lon="1.7165420">
        <ele>1424.4</ele>
        <time>2015-08-13T11:44:09Z</time>
      </trkpt>
      <trkpt lat="42.3407260" lon="1.7165810">
        <ele>1425.2</ele>
        <time>2015-08-13T11:44:11Z</time>
      </trkpt>
      <trkpt lat="42.3407200" lon="1.7166290">
        <ele>1425.0</ele>
        <time>2015-08-13T11:44:13Z</time>
      </trkpt>
      <trkpt lat="42.3407090" lon="1.7166710">
        <ele>1425.0</ele>
        <time>2015-08-13T11:44:15Z</time>
      </trkpt>
      <trkpt lat="42.3406860" lon="1.7166940">
        <ele>1425.5</ele>
        <time>2015-08-13T11:44:18Z</time>
      </trkpt>
      <trkpt lat="42.3406680" lon="1.7167330">
        <ele>1425.8</ele>
        <time>2015-08-13T11:44:20Z</time>
      </trkpt>
      <trkpt lat="42.3406380" lon="1.7167720">
        <ele>1426.4</ele>
        <time>2015-08-13T11:44:22Z</time>
      </trkpt>
      <trkpt lat="42.3406320" lon="1.7168080">
        <ele>1426.2</ele>
        <time>2015-08-13T11:44:27Z</time>
      </trkpt>
      <trkpt lat="42.3406030" lon="1.7168480">
        <ele>1426.6</ele>
        <time>2015-08-13T11:44:29Z</time>
      </trkpt>
      <trkpt lat="42.3405910" lon="1.7168830">
        <ele>1426.6</ele>
        <time>2015-08-13T11:44:31Z</time>
      </trkpt>
      <trkpt lat="42.3405660" lon="1.7169070">
        <ele>1427.1</ele>
        <time>2015-08-13T11:44:33Z</time>
      </trkpt>
      <trkpt lat="42.3405380" lon="1.7169250">
        <ele>1427.7</ele>
        <time>2015-08-13T11:44:36Z</time>
      </trkpt>
      <trkpt lat="42.3405100" lon="1.7169220">
        <ele>1428.6</ele>
        <time>2015-08-13T11:44:38Z</time>
      </trkpt>
      <trkpt lat="42.3404750" lon="1.7168970">
        <ele>1429.9</ele>
        <time>2015-08-13T11:44:41Z</time>
      </trkpt>
      <trkpt lat="42.3404560" lon="1.7168550">
        <ele>1431.1</ele>
        <time>2015-08-13T11:44:43Z</time>
      </trkpt>
      <trkpt lat="42.3404560" lon="1.7168050">
        <ele>1431.8</ele>
        <time>2015-08-13T11:44:45Z</time>
      </trkpt>
      <trkpt lat="42.3404640" lon="1.7167500">
        <ele>1432.3</ele>
        <time>2015-08-13T11:44:48Z</time>
      </trkpt>
      <trkpt lat="42.3404650" lon="1.7166990">
        <ele>1432.9</ele>
        <time>2015-08-13T11:44:51Z</time>
      </trkpt>
      <trkpt lat="42.3404790" lon="1.7166660">
        <ele>1432.9</ele>
        <time>2015-08-13T11:44:55Z</time>
      </trkpt>
      <trkpt lat="42.3404860" lon="1.7166270">
        <ele>1433.1</ele>
        <time>2015-08-13T11:44:57Z</time>
      </trkpt>
      <trkpt lat="42.3404750" lon="1.7165810">
        <ele>1434.1</ele>
        <time>2015-08-13T11:44:59Z</time>
      </trkpt>
      <trkpt lat="42.3404560" lon="1.7165480">
        <ele>1435.3</ele>
        <time>2015-08-13T11:45:01Z</time>
      </trkpt>
      <trkpt lat="42.3404620" lon="1.7164990">
        <ele>1435.7</ele>
        <time>2015-08-13T11:45:03Z</time>
      </trkpt>
      <trkpt lat="42.3404470" lon="1.7164650">
        <ele>1436.8</ele>
        <time>2015-08-13T11:45:06Z</time>
      </trkpt>
      <trkpt lat="42.3404420" lon="1.7163910">
        <ele>1438.0</ele>
        <time>2015-08-13T11:45:10Z</time>
      </trkpt>
      <trkpt lat="42.3404200" lon="1.7163620">
        <ele>1439.3</ele>
        <time>2015-08-13T11:45:11Z</time>
      </trkpt>
      <trkpt lat="42.3404070" lon="1.7163140">
        <ele>1440.5</ele>
        <time>2015-08-13T11:45:14Z</time>
      </trkpt>
      <trkpt lat="42.3404030" lon="1.7162620">
        <ele>1441.4</ele>
        <time>2015-08-13T11:45:16Z</time>
      </trkpt>
      <trkpt lat="42.3404230" lon="1.7162340">
        <ele>1440.6</ele>
        <time>2015-08-13T11:45:18Z</time>
      </trkpt>
      <trkpt lat="42.3404240" lon="1.7161870">
        <ele>1440.0</ele>
        <time>2015-08-13T11:45:20Z</time>
      </trkpt>
      <trkpt lat="42.3404130" lon="1.7161440">
        <ele>1440.0</ele>
        <time>2015-08-13T11:45:22Z</time>
      </trkpt>
      <trkpt lat="42.3403980" lon="1.7161110">
        <ele>1440.2</ele>
        <time>2015-08-13T11:45:24Z</time>
      </trkpt>
      <trkpt lat="42.3403780" lon="1.7160610">
        <ele>1440.5</ele>
        <time>2015-08-13T11:45:26Z</time>
      </trkpt>
      <trkpt lat="42.3403670" lon="1.7160220">
        <ele>1440.5</ele>
        <time>2015-08-13T11:45:28Z</time>
      </trkpt>
      <trkpt lat="42.3403510" lon="1.7159780">
        <ele>1440.6</ele>
        <time>2015-08-13T11:45:30Z</time>
      </trkpt>
      <trkpt lat="42.3403300" lon="1.7159490">
        <ele>1441.1</ele>
        <time>2015-08-13T11:45:32Z</time>
      </trkpt>
      <trkpt lat="42.3403060" lon="1.7159210">
        <ele>1441.7</ele>
        <time>2015-08-13T11:45:34Z</time>
      </trkpt>
      <trkpt lat="42.3402790" lon="1.7158710">
        <ele>1442.1</ele>
        <time>2015-08-13T11:45:36Z</time>
      </trkpt>
      <trkpt lat="42.3402610" lon="1.7158430">
        <ele>1442.5</ele>
        <time>2015-08-13T11:45:38Z</time>
      </trkpt>
      <trkpt lat="42.3402600" lon="1.7158040">
        <ele>1442.1</ele>
        <time>2015-08-13T11:45:40Z</time>
      </trkpt>
      <trkpt lat="42.3402730" lon="1.7157600">
        <ele>1441.1</ele>
        <time>2015-08-13T11:45:43Z</time>
      </trkpt>
      <trkpt lat="42.3402800" lon="1.7157220">
        <ele>1440.4</ele>
        <time>2015-08-13T11:45:45Z</time>
      </trkpt>
      <trkpt lat="42.3402570" lon="1.7157040">
        <ele>1441.0</ele>
        <time>2015-08-13T11:45:46Z</time>
      </trkpt>
      <trkpt lat="42.3402280" lon="1.7156740">
        <ele>1441.8</ele>
        <time>2015-08-13T11:45:48Z</time>
      </trkpt>
      <trkpt lat="42.3401990" lon="1.7156480">
        <ele>1442.6</ele>
        <time>2015-08-13T11:45:50Z</time>
      </trkpt>
      <trkpt lat="42.3401760" lon="1.7156280">
        <ele>1443.2</ele>
        <time>2015-08-13T11:45:53Z</time>
      </trkpt>
      <trkpt lat="42.3401550" lon="1.7156030">
        <ele>1443.6</ele>
        <time>2015-08-13T11:45:54Z</time>
      </trkpt>
      <trkpt lat="42.3401280" lon="1.7155750">
        <ele>1444.3</ele>
        <time>2015-08-13T11:45:57Z</time>
      </trkpt>
      <trkpt lat="42.3401100" lon="1.7155370">
        <ele>1444.5</ele>
        <time>2015-08-13T11:45:59Z</time>
      </trkpt>
      <trkpt lat="42.3400900" lon="1.7154980">
        <ele>1444.8</ele>
        <time>2015-08-13T11:46:02Z</time>
      </trkpt>
      <trkpt lat="42.3400640" lon="1.7154670">
        <ele>1445.3</ele>
        <time>2015-08-13T11:46:04Z</time>
      </trkpt>
      <trkpt lat="42.3400280" lon="1.7154550">
        <ele>1446.5</ele>
        <time>2015-08-13T11:46:07Z</time>
      </trkpt>
      <trkpt lat="42.3400000" lon="1.7154310">
        <ele>1447.2</ele>
        <time>2015-08-13T11:46:09Z</time>
      </trkpt>
      <trkpt lat="42.3399800" lon="1.7153930">
        <ele>1447.2</ele>
        <time>2015-08-13T11:46:11Z</time>
      </trkpt>
      <trkpt lat="42.3399510" lon="1.7153680">
        <ele>1447.8</ele>
        <time>2015-08-13T11:46:14Z</time>
      </trkpt>
      <trkpt lat="42.3399180" lon="1.7153560">
        <ele>1448.7</ele>
        <time>2015-08-13T11:46:16Z</time>
      </trkpt>
      <trkpt lat="42.3398820" lon="1.7153380">
        <ele>1449.6</ele>
        <time>2015-08-13T11:46:19Z</time>
      </trkpt>
      <trkpt lat="42.3398690" lon="1.7152970">
        <ele>1449.1</ele>
        <time>2015-08-13T11:46:22Z</time>
      </trkpt>
      <trkpt lat="42.3398570" lon="1.7152520">
        <ele>1448.6</ele>
        <time>2015-08-13T11:46:25Z</time>
      </trkpt>
      <trkpt lat="42.3398440" lon="1.7152010">
        <ele>1447.9</ele>
        <time>2015-08-13T11:46:29Z</time>
      </trkpt>
      <trkpt lat="42.3398160" lon="1.7151830">
        <ele>1448.5</ele>
        <time>2015-08-13T11:46:30Z</time>
      </trkpt>
      <trkpt lat="42.3398030" lon="1.7151510">
        <ele>1448.2</ele>
        <time>2015-08-13T11:46:32Z</time>
      </trkpt>
      <trkpt lat="42.3397700" lon="1.7151260">
        <ele>1448.8</ele>
        <time>2015-08-13T11:46:33Z</time>
      </trkpt>
      <trkpt lat="42.3398030" lon="1.7150790">
        <ele>1446.6</ele>
        <time>2015-08-13T11:46:35Z</time>
      </trkpt>
      <trkpt lat="42.3397790" lon="1.7150480">
        <ele>1446.7</ele>
        <time>2015-08-13T11:46:42Z</time>
      </trkpt>
      <trkpt lat="42.3397650" lon="1.7150120">
        <ele>1446.4</ele>
        <time>2015-08-13T11:46:45Z</time>
      </trkpt>
      <trkpt lat="42.3397490" lon="1.7149640">
        <ele>1445.8</ele>
        <time>2015-08-13T11:46:48Z</time>
      </trkpt>
      <trkpt lat="42.3397220" lon="1.7149280">
        <ele>1445.9</ele>
        <time>2015-08-13T11:46:50Z</time>
      </trkpt>
      <trkpt lat="42.3396890" lon="1.7149560">
        <ele>1447.6</ele>
        <time>2015-08-13T11:46:52Z</time>
      </trkpt>
      <trkpt lat="42.3396460" lon="1.7149470">
        <ele>1448.7</ele>
        <time>2015-08-13T11:46:53Z</time>
      </trkpt>
      <trkpt lat="42.3396120" lon="1.7149320">
        <ele>1449.5</ele>
        <time>2015-08-13T11:46:54Z</time>
      </trkpt>
      <trkpt lat="42.3396310" lon="1.7148940">
        <ele>1448.0</ele>
        <time>2015-08-13T11:46:56Z</time>
      </trkpt>
      <trkpt lat="42.3396050" lon="1.7148730">
        <ele>1448.3</ele>
        <time>2015-08-13T11:46:59Z</time>
      </trkpt>
      <trkpt lat="42.3396020" lon="1.7148230">
        <ele>1447.2</ele>
        <time>2015-08-13T11:47:04Z</time>
      </trkpt>
      <trkpt lat="42.3395700" lon="1.7147910">
        <ele>1447.3</ele>
        <time>2015-08-13T11:47:08Z</time>
      </trkpt>
      <trkpt lat="42.3395360" lon="1.7147930">
        <ele>1448.3</ele>
        <time>2015-08-13T11:47:11Z</time>
      </trkpt>
      <trkpt lat="42.3395070" lon="1.7147670">
        <ele>1448.4</ele>
        <time>2015-08-13T11:47:15Z</time>
      </trkpt>
      <trkpt lat="42.3394600" lon="1.7147820">
        <ele>1449.9</ele>
        <time>2015-08-13T11:47:18Z</time>
      </trkpt>
      <trkpt lat="42.3394280" lon="1.7147530">
        <ele>1450.0</ele>
        <time>2015-08-13T11:47:20Z</time>
      </trkpt>
      <trkpt lat="42.3393740" lon="1.7147460">
        <ele>1451.2</ele>
        <time>2015-08-13T11:47:22Z</time>
      </trkpt>
      <trkpt lat="42.3393390" lon="1.7147370">
        <ele>1451.9</ele>
        <time>2015-08-13T11:47:26Z</time>
      </trkpt>
      <trkpt lat="42.3393050" lon="1.7147290">
        <ele>1452.5</ele>
        <time>2015-08-13T11:47:29Z</time>
      </trkpt>
      <trkpt lat="42.3392770" lon="1.7146970">
        <ele>1452.4</ele>
        <time>2015-08-13T11:47:31Z</time>
      </trkpt>
      <trkpt lat="42.3392520" lon="1.7146790">
        <ele>1452.5</ele>
        <time>2015-08-13T11:47:36Z</time>
      </trkpt>
      <trkpt lat="42.3392250" lon="1.7146360">
        <ele>1452.0</ele>
        <time>2015-08-13T11:47:40Z</time>
      </trkpt>
      <trkpt lat="42.3392030" lon="1.7146050">
        <ele>1451.7</ele>
        <time>2015-08-13T11:47:42Z</time>
      </trkpt>
      <trkpt lat="42.3391690" lon="1.7145950">
        <ele>1452.3</ele>
        <time>2015-08-13T11:47:44Z</time>
      </trkpt>
      <trkpt lat="42.3391470" lon="1.7145690">
        <ele>1452.1</ele>
        <time>2015-08-13T11:47:49Z</time>
      </trkpt>
      <trkpt lat="42.3391200" lon="1.7145610">
        <ele>1452.5</ele>
        <time>2015-08-13T11:47:51Z</time>
      </trkpt>
      <trkpt lat="42.3390850" lon="1.7145530">
        <ele>1453.1</ele>
        <time>2015-08-13T11:47:54Z</time>
      </trkpt>
      <trkpt lat="42.3390470" lon="1.7145550">
        <ele>1454.1</ele>
        <time>2015-08-13T11:47:56Z</time>
      </trkpt>
      <trkpt lat="42.3390160" lon="1.7145590">
        <ele>1454.9</ele>
        <time>2015-08-13T11:47:59Z</time>
      </trkpt>
      <trkpt lat="42.3390410" lon="1.7145260">
        <ele>1453.4</ele>
        <time>2015-08-13T11:48:00Z</time>
      </trkpt>
      <trkpt lat="42.3390030" lon="1.7145030">
        <ele>1453.6</ele>
        <time>2015-08-13T11:48:03Z</time>
      </trkpt>
      <trkpt lat="42.3389680" lon="1.7144990">
        <ele>1454.3</ele>
        <time>2015-08-13T11:48:05Z</time>
      </trkpt>
      <trkpt lat="42.3389670" lon="1.7144530">
        <ele>1453.0</ele>
        <time>2015-08-13T11:48:09Z</time>
      </trkpt>
      <trkpt lat="42.3389290" lon="1.7144100">
        <ele>1452.6</ele>
        <time>2015-08-13T11:48:12Z</time>
      </trkpt>
      <trkpt lat="42.3389000" lon="1.7144010">
        <ele>1453.0</ele>
        <time>2015-08-13T11:48:17Z</time>
      </trkpt>
      <trkpt lat="42.3388830" lon="1.7143670">
        <ele>1452.4</ele>
        <time>2015-08-13T11:48:20Z</time>
      </trkpt>
      <trkpt lat="42.3388460" lon="1.7143520">
        <ele>1452.9</ele>
        <time>2015-08-13T11:48:22Z</time>
      </trkpt>
      <trkpt lat="42.3388180" lon="1.7143250">
        <ele>1452.7</ele>
        <time>2015-08-13T11:48:24Z</time>
      </trkpt>
      <trkpt lat="42.3387890" lon="1.7143230">
        <ele>1453.3</ele>
        <time>2015-08-13T11:48:26Z</time>
      </trkpt>
      <trkpt lat="42.3387580" lon="1.7142960">
        <ele>1453.2</ele>
        <time>2015-08-13T11:48:28Z</time>
      </trkpt>
      <trkpt lat="42.3387290" lon="1.7143130">
        <ele>1454.4</ele>
        <time>2015-08-13T11:48:30Z</time>
      </trkpt>
      <trkpt lat="42.3386960" lon="1.7143250">
        <ele>1455.6</ele>
        <time>2015-08-13T11:48:32Z</time>
      </trkpt>
      <trkpt lat="42.3386840" lon="1.7142880">
        <ele>1454.7</ele>
        <time>2015-08-13T11:48:46Z</time>
      </trkpt>
      <trkpt lat="42.3386650" lon="1.7142520">
        <ele>1454.1</ele>
        <time>2015-08-13T11:48:50Z</time>
      </trkpt>
      <trkpt lat="42.3386370" lon="1.7142240">
        <ele>1453.9</ele>
        <time>2015-08-13T11:48:52Z</time>
      </trkpt>
      <trkpt lat="42.3386090" lon="1.7142040">
        <ele>1454.0</ele>
        <time>2015-08-13T11:48:53Z</time>
      </trkpt>
      <trkpt lat="42.3385750" lon="1.7141860">
        <ele>1454.2</ele>
        <time>2015-08-13T11:48:55Z</time>
      </trkpt>
      <trkpt lat="42.3385480" lon="1.7141870">
        <ele>1454.9</ele>
        <time>2015-08-13T11:48:57Z</time>
      </trkpt>
      <trkpt lat="42.3385160" lon="1.7141910">
        <ele>1455.7</ele>
        <time>2015-08-13T11:49:00Z</time>
      </trkpt>
      <trkpt lat="42.3384780" lon="1.7141800">
        <ele>1456.3</ele>
        <time>2015-08-13T11:49:02Z</time>
      </trkpt>
      <trkpt lat="42.3384360" lon="1.7141550">
        <ele>1456.5</ele>
        <time>2015-08-13T11:49:04Z</time>
      </trkpt>
      <trkpt lat="42.3384000" lon="1.7141220">
        <ele>1456.2</ele>
        <time>2015-08-13T11:49:06Z</time>
      </trkpt>
      <trkpt lat="42.3383870" lon="1.7140870">
        <ele>1455.4</ele>
        <time>2015-08-13T11:49:07Z</time>
      </trkpt>
      <trkpt lat="42.3383520" lon="1.7140900">
        <ele>1456.3</ele>
        <time>2015-08-13T11:49:09Z</time>
      </trkpt>
      <trkpt lat="42.3383320" lon="1.7140620">
        <ele>1455.8</ele>
        <time>2015-08-13T11:49:11Z</time>
      </trkpt>
      <trkpt lat="42.3383060" lon="1.7140800">
        <ele>1457.0</ele>
        <time>2015-08-13T11:49:12Z</time>
      </trkpt>
      <trkpt lat="42.3382760" lon="1.7140670">
        <ele>1457.3</ele>
        <time>2015-08-13T11:49:14Z</time>
      </trkpt>
      <trkpt lat="42.3382970" lon="1.7140230">
        <ele>1455.3</ele>
        <time>2015-08-13T11:49:15Z</time>
      </trkpt>
      <trkpt lat="42.3382720" lon="1.7140030">
        <ele>1455.2</ele>
        <time>2015-08-13T11:49:16Z</time>
      </trkpt>
      <trkpt lat="42.3382380" lon="1.7139970">
        <ele>1455.8</ele>
        <time>2015-08-13T11:49:20Z</time>
      </trkpt>
      <trkpt lat="42.3381950" lon="1.7140170">
        <ele>1457.4</ele>
        <time>2015-08-13T11:49:22Z</time>
      </trkpt>
      <trkpt lat="42.3381640" lon="1.7140240">
        <ele>1458.3</ele>
        <time>2015-08-13T11:49:25Z</time>
      </trkpt>
      <trkpt lat="42.3381310" lon="1.7140210">
        <ele>1459.0</ele>
        <time>2015-08-13T11:49:32Z</time>
      </trkpt>
      <trkpt lat="42.3380980" lon="1.7140200">
        <ele>1459.7</ele>
        <time>2015-08-13T11:49:34Z</time>
      </trkpt>
      <trkpt lat="42.3380670" lon="1.7140180">
        <ele>1460.3</ele>
        <time>2015-08-13T11:49:36Z</time>
      </trkpt>
      <trkpt lat="42.3380330" lon="1.7140160">
        <ele>1461.0</ele>
        <time>2015-08-13T11:49:39Z</time>
      </trkpt>
      <trkpt lat="42.3380050" lon="1.7140010">
        <ele>1461.1</ele>
        <time>2015-08-13T11:49:42Z</time>
      </trkpt>
      <trkpt lat="42.3379780" lon="1.7139910">
        <ele>1461.3</ele>
        <time>2015-08-13T11:49:44Z</time>
      </trkpt>
      <trkpt lat="42.3379510" lon="1.7139800">
        <ele>1461.5</ele>
        <time>2015-08-13T11:49:46Z</time>
      </trkpt>
      <trkpt lat="42.3379230" lon="1.7139700">
        <ele>1461.8</ele>
        <time>2015-08-13T11:49:48Z</time>
      </trkpt>
      <trkpt lat="42.3378870" lon="1.7139600">
        <ele>1462.3</ele>
        <time>2015-08-13T11:49:51Z</time>
      </trkpt>
      <trkpt lat="42.3378540" lon="1.7139440">
        <ele>1462.6</ele>
        <time>2015-08-13T11:49:53Z</time>
      </trkpt>
      <trkpt lat="42.3378070" lon="1.7139190">
        <ele>1462.9</ele>
        <time>2015-08-13T11:49:56Z</time>
      </trkpt>
      <trkpt lat="42.3377750" lon="1.7139070">
        <ele>1463.3</ele>
        <time>2015-08-13T11:49:58Z</time>
      </trkpt>
      <trkpt lat="42.3377460" lon="1.7139010">
        <ele>1463.8</ele>
        <time>2015-08-13T11:50:00Z</time>
      </trkpt>
      <trkpt lat="42.3377200" lon="1.7139400">
        <ele>1465.8</ele>
        <time>2015-08-13T11:50:02Z</time>
      </trkpt>
      <trkpt lat="42.3376760" lon="1.7139460">
        <ele>1467.2</ele>
        <time>2015-08-13T11:50:03Z</time>
      </trkpt>
      <trkpt lat="42.3376420" lon="1.7139250">
        <ele>1467.3</ele>
        <time>2015-08-13T11:50:07Z</time>
      </trkpt>
      <trkpt lat="42.3376020" lon="1.7139280">
        <ele>1468.4</ele>
        <time>2015-08-13T11:50:09Z</time>
      </trkpt>
      <trkpt lat="42.3376110" lon="1.7138830">
        <ele>1466.5</ele>
        <time>2015-08-13T11:50:10Z</time>
      </trkpt>
      <trkpt lat="42.3375870" lon="1.7138990">
        <ele>1467.7</ele>
        <time>2015-08-13T11:50:12Z</time>
      </trkpt>
      <trkpt lat="42.3375550" lon="1.7138890">
        <ele>1468.2</ele>
        <time>2015-08-13T11:50:13Z</time>
      </trkpt>
      <trkpt lat="42.3375320" lon="1.7138660">
        <ele>1467.9</ele>
        <time>2015-08-13T11:50:16Z</time>
      </trkpt>
      <trkpt lat="42.3375070" lon="1.7138370">
        <ele>1467.5</ele>
        <time>2015-08-13T11:50:21Z</time>
      </trkpt>
      <trkpt lat="42.3374730" lon="1.7138200">
        <ele>1467.7</ele>
        <time>2015-08-13T11:50:22Z</time>
      </trkpt>
      <trkpt lat="42.3374250" lon="1.7138110">
        <ele>1468.6</ele>
        <time>2015-08-13T11:50:24Z</time>
      </trkpt>
      <trkpt lat="42.3373930" lon="1.7138210">
        <ele>1469.8</ele>
        <time>2015-08-13T11:50:26Z</time>
      </trkpt>
      <trkpt lat="42.3373480" lon="1.7138230">
        <ele>1471.0</ele>
        <time>2015-08-13T11:50:29Z</time>
      </trkpt>
      <trkpt lat="42.3373110" lon="1.7138100">
        <ele>1471.5</ele>
        <time>2015-08-13T11:50:31Z</time>
      </trkpt>
      <trkpt lat="42.3372840" lon="1.7137860">
        <ele>1471.3</ele>
        <time>2015-08-13T11:50:35Z</time>
      </trkpt>
      <trkpt lat="42.3372570" lon="1.7137650">
        <ele>1471.2</ele>
        <time>2015-08-13T11:50:38Z</time>
      </trkpt>
      <trkpt lat="42.3372310" lon="1.7137560">
        <ele>1471.5</ele>
        <time>2015-08-13T11:50:40Z</time>
      </trkpt>
      <trkpt lat="42.3372000" lon="1.7137450">
        <ele>1471.9</ele>
        <time>2015-08-13T11:50:42Z</time>
      </trkpt>
      <trkpt lat="42.3371600" lon="1.7137250">
        <ele>1472.3</ele>
        <time>2015-08-13T11:50:45Z</time>
      </trkpt>
      <trkpt lat="42.3371430" lon="1.7136830">
        <ele>1471.5</ele>
        <time>2015-08-13T11:50:48Z</time>
      </trkpt>
      <trkpt lat="42.3371200" lon="1.7136590">
        <ele>1471.3</ele>
        <time>2015-08-13T11:50:50Z</time>
      </trkpt>
      <trkpt lat="42.3370900" lon="1.7136250">
        <ele>1471.1</ele>
        <time>2015-08-13T11:50:52Z</time>
      </trkpt>
      <trkpt lat="42.3370580" lon="1.7136250">
        <ele>1472.1</ele>
        <time>2015-08-13T11:50:54Z</time>
      </trkpt>
      <trkpt lat="42.3370260" lon="1.7136120">
        <ele>1472.7</ele>
        <time>2015-08-13T11:50:56Z</time>
      </trkpt>
      <trkpt lat="42.3369920" lon="1.7135940">
        <ele>1473.2</ele>
        <time>2015-08-13T11:50:58Z</time>
      </trkpt>
      <trkpt lat="42.3369670" lon="1.7135750">
        <ele>1473.4</ele>
        <time>2015-08-13T11:51:03Z</time>
      </trkpt>
      <trkpt lat="42.3369280" lon="1.7135730">
        <ele>1474.6</ele>
        <time>2015-08-13T11:51:05Z</time>
      </trkpt>
      <trkpt lat="42.3368950" lon="1.7135830">
        <ele>1476.0</ele>
        <time>2015-08-13T11:51:07Z</time>
      </trkpt>
      <trkpt lat="42.3368650" lon="1.7135760">
        <ele>1476.7</ele>
        <time>2015-08-13T11:51:10Z</time>
      </trkpt>
      <trkpt lat="42.3368290" lon="1.7135640">
        <ele>1477.4</ele>
        <time>2015-08-13T11:51:13Z</time>
      </trkpt>
      <trkpt lat="42.3367960" lon="1.7135540">
        <ele>1478.1</ele>
        <time>2015-08-13T11:51:15Z</time>
      </trkpt>
      <trkpt lat="42.3367640" lon="1.7135390">
        <ele>1478.6</ele>
        <time>2015-08-13T11:51:17Z</time>
      </trkpt>
      <trkpt lat="42.3367260" lon="1.7134990">
        <ele>1478.4</ele>
        <time>2015-08-13T11:51:20Z</time>
      </trkpt>
      <trkpt lat="42.3367090" lon="1.7134660">
        <ele>1477.8</ele>
        <time>2015-08-13T11:51:23Z</time>
      </trkpt>
      <trkpt lat="42.3366810" lon="1.7134380">
        <ele>1477.7</ele>
        <time>2015-08-13T11:51:27Z</time>
      </trkpt>
      <trkpt lat="42.3366590" lon="1.7134070">
        <ele>1477.3</ele>
        <time>2015-08-13T11:51:30Z</time>
      </trkpt>
      <trkpt lat="42.3366340" lon="1.7133920">
        <ele>1477.5</ele>
        <time>2015-08-13T11:51:34Z</time>
      </trkpt>
      <trkpt lat="42.3366060" lon="1.7133840">
        <ele>1478.0</ele>
        <time>2015-08-13T11:51:36Z</time>
      </trkpt>
      <trkpt lat="42.3365710" lon="1.7133750">
        <ele>1478.8</ele>
        <time>2015-08-13T11:51:41Z</time>
      </trkpt>
      <trkpt lat="42.3365630" lon="1.7133390">
        <ele>1477.7</ele>
        <time>2015-08-13T11:51:44Z</time>
      </trkpt>
      <trkpt lat="42.3365400" lon="1.7133180">
        <ele>1477.6</ele>
        <time>2015-08-13T11:51:50Z</time>
      </trkpt>
      <trkpt lat="42.3365150" lon="1.7132920">
        <ele>1477.4</ele>
        <time>2015-08-13T11:51:55Z</time>
      </trkpt>
      <trkpt lat="42.3364900" lon="1.7132670">
        <ele>1477.1</ele>
        <time>2015-08-13T11:51:57Z</time>
      </trkpt>
      <trkpt lat="42.3364660" lon="1.7132380">
        <ele>1476.7</ele>
        <time>2015-08-13T11:51:59Z</time>
      </trkpt>
      <trkpt lat="42.3364350" lon="1.7132410">
        <ele>1477.7</ele>
        <time>2015-08-13T11:52:01Z</time>
      </trkpt>
      <trkpt lat="42.3364080" lon="1.7132000">
        <ele>1476.9</ele>
        <time>2015-08-13T11:52:05Z</time>
      </trkpt>
      <trkpt lat="42.3363500" lon="1.7131790">
        <ele>1477.7</ele>
        <time>2015-08-13T11:52:08Z</time>
      </trkpt>
      <trkpt lat="42.3363010" lon="1.7131470">
        <ele>1477.8</ele>
        <time>2015-08-13T11:52:10Z</time>
      </trkpt>
      <trkpt lat="42.3362440" lon="1.7131080">
        <ele>1477.7</ele>
        <time>2015-08-13T11:52:12Z</time>
      </trkpt>
      <trkpt lat="42.3362240" lon="1.7131360">
        <ele>1479.2</ele>
        <time>2015-08-13T11:52:13Z</time>
      </trkpt>
      <trkpt lat="42.3361970" lon="1.7131340">
        <ele>1479.7</ele>
        <time>2015-08-13T11:52:14Z</time>
      </trkpt>
      <trkpt lat="42.3361500" lon="1.7131160">
        <ele>1480.0</ele>
        <time>2015-08-13T11:52:16Z</time>
      </trkpt>
      <trkpt lat="42.3361250" lon="1.7130840">
        <ele>1479.2</ele>
        <time>2015-08-13T11:52:18Z</time>
      </trkpt>
      <trkpt lat="42.3360940" lon="1.7130820">
        <ele>1479.8</ele>
        <time>2015-08-13T11:52:20Z</time>
      </trkpt>
      <trkpt lat="42.3360600" lon="1.7130750">
        <ele>1480.2</ele>
        <time>2015-08-13T11:52:25Z</time>
      </trkpt>
      <trkpt lat="42.3360350" lon="1.7130510">
        <ele>1479.7</ele>
        <time>2015-08-13T11:52:27Z</time>
      </trkpt>
      <trkpt lat="42.3360070" lon="1.7130410">
        <ele>1479.9</ele>
        <time>2015-08-13T11:52:29Z</time>
      </trkpt>
      <trkpt lat="42.3359730" lon="1.7130200">
        <ele>1479.7</ele>
        <time>2015-08-13T11:52:32Z</time>
      </trkpt>
      <trkpt lat="42.3359380" lon="1.7129920">
        <ele>1479.2</ele>
        <time>2015-08-13T11:52:36Z</time>
      </trkpt>
      <trkpt lat="42.3359090" lon="1.7129830">
        <ele>1479.4</ele>
        <time>2015-08-13T11:52:38Z</time>
      </trkpt>
      <trkpt lat="42.3358610" lon="1.7129620">
        <ele>1479.4</ele>
        <time>2015-08-13T11:52:41Z</time>
      </trkpt>
      <trkpt lat="42.3358330" lon="1.7129390">
        <ele>1479.0</ele>
        <time>2015-08-13T11:52:45Z</time>
      </trkpt>
      <trkpt lat="42.3357920" lon="1.7129220">
        <ele>1479.0</ele>
        <time>2015-08-13T11:52:48Z</time>
      </trkpt>
      <trkpt lat="42.3357610" lon="1.7129120">
        <ele>1479.2</ele>
        <time>2015-08-13T11:52:50Z</time>
      </trkpt>
      <trkpt lat="42.3357280" lon="1.7128960">
        <ele>1479.2</ele>
        <time>2015-08-13T11:52:53Z</time>
      </trkpt>
      <trkpt lat="42.3356860" lon="1.7128990">
        <ele>1480.2</ele>
        <time>2015-08-13T11:52:56Z</time>
      </trkpt>
      <trkpt lat="42.3356500" lon="1.7128700">
        <ele>1479.8</ele>
        <time>2015-08-13T11:52:59Z</time>
      </trkpt>
      <trkpt lat="42.3356220" lon="1.7128540">
        <ele>1479.7</ele>
        <time>2015-08-13T11:53:03Z</time>
      </trkpt>
      <trkpt lat="42.3355950" lon="1.7128290">
        <ele>1479.3</ele>
        <time>2015-08-13T11:53:05Z</time>
      </trkpt>
      <trkpt lat="42.3355690" lon="1.7128110">
        <ele>1479.2</ele>
        <time>2015-08-13T11:53:07Z</time>
      </trkpt>
      <trkpt lat="42.3355430" lon="1.7127780">
        <ele>1478.5</ele>
        <time>2015-08-13T11:53:09Z</time>
      </trkpt>
      <trkpt lat="42.3355090" lon="1.7127500">
        <ele>1478.1</ele>
        <time>2015-08-13T11:53:12Z</time>
      </trkpt>
      <trkpt lat="42.3354790" lon="1.7127290">
        <ele>1478.0</ele>
        <time>2015-08-13T11:53:16Z</time>
      </trkpt>
      <trkpt lat="42.3354470" lon="1.7127110">
        <ele>1478.0</ele>
        <time>2015-08-13T11:53:18Z</time>
      </trkpt>
      <trkpt lat="42.3354130" lon="1.7127040">
        <ele>1478.5</ele>
        <time>2015-08-13T11:53:21Z</time>
      </trkpt>
      <trkpt lat="42.3353720" lon="1.7126980">
        <ele>1479.8</ele>
        <time>2015-08-13T11:53:24Z</time>
      </trkpt>
      <trkpt lat="42.3353480" lon="1.7126760">
        <ele>1479.9</ele>
        <time>2015-08-13T11:53:26Z</time>
      </trkpt>
      <trkpt lat="42.3353100" lon="1.7126560">
        <ele>1480.6</ele>
        <time>2015-08-13T11:53:29Z</time>
      </trkpt>
      <trkpt lat="42.3352810" lon="1.7126380">
        <ele>1481.1</ele>
        <time>2015-08-13T11:53:33Z</time>
      </trkpt>
      <trkpt lat="42.3352510" lon="1.7126230">
        <ele>1481.8</ele>
        <time>2015-08-13T11:53:36Z</time>
      </trkpt>
      <trkpt lat="42.3352210" lon="1.7126250">
        <ele>1483.0</ele>
        <time>2015-08-13T11:53:39Z</time>
      </trkpt>
      <trkpt lat="42.3351860" lon="1.7126320">
        <ele>1484.5</ele>
        <time>2015-08-13T11:53:45Z</time>
      </trkpt>
      <trkpt lat="42.3351450" lon="1.7126240">
        <ele>1485.9</ele>
        <time>2015-08-13T11:53:48Z</time>
      </trkpt>
      <trkpt lat="42.3351120" lon="1.7126000">
        <ele>1486.4</ele>
        <time>2015-08-13T11:53:51Z</time>
      </trkpt>
      <trkpt lat="42.3350770" lon="1.7125800">
        <ele>1487.2</ele>
        <time>2015-08-13T11:53:57Z</time>
      </trkpt>
      <trkpt lat="42.3350430" lon="1.7125640">
        <ele>1488.1</ele>
        <time>2015-08-13T11:53:59Z</time>
      </trkpt>
      <trkpt lat="42.3350140" lon="1.7125470">
        <ele>1488.7</ele>
        <time>2015-08-13T11:54:00Z</time>
      </trkpt>
      <trkpt lat="42.3349840" lon="1.7125290">
        <ele>1489.4</ele>
        <time>2015-08-13T11:54:02Z</time>
      </trkpt>
      <trkpt lat="42.3349570" lon="1.7125180">
        <ele>1490.2</ele>
        <time>2015-08-13T11:54:04Z</time>
      </trkpt>
      <trkpt lat="42.3349310" lon="1.7125420">
        <ele>1491.9</ele>
        <time>2015-08-13T11:54:08Z</time>
      </trkpt>
      <trkpt lat="42.3349020" lon="1.7125370">
        <ele>1492.9</ele>
        <time>2015-08-13T11:54:10Z</time>
      </trkpt>
      <trkpt lat="42.3348700" lon="1.7125310">
        <ele>1494.1</ele>
        <time>2015-08-13T11:54:13Z</time>
      </trkpt>
      <trkpt lat="42.3348280" lon="1.7125620">
        <ele>1496.5</ele>
        <time>2015-08-13T11:54:15Z</time>
      </trkpt>
      <trkpt lat="42.3347970" lon="1.7125490">
        <ele>1497.4</ele>
        <time>2015-08-13T11:54:16Z</time>
      </trkpt>
      <trkpt lat="42.3347670" lon="1.7125300">
        <ele>1498.2</ele>
        <time>2015-08-13T11:54:18Z</time>
      </trkpt>
      <trkpt lat="42.3347410" lon="1.7125120">
        <ele>1498.8</ele>
        <time>2015-08-13T11:54:20Z</time>
      </trkpt>
      <trkpt lat="42.3347140" lon="1.7124960">
        <ele>1499.6</ele>
        <time>2015-08-13T11:54:22Z</time>
      </trkpt>
      <trkpt lat="42.3346720" lon="1.7125090">
        <ele>1501.6</ele>
        <time>2015-08-13T11:54:25Z</time>
      </trkpt>
      <trkpt lat="42.3346450" lon="1.7125200">
        <ele>1502.9</ele>
        <time>2015-08-13T11:54:27Z</time>
      </trkpt>
      <trkpt lat="42.3346180" lon="1.7125330">
        <ele>1504.2</ele>
        <time>2015-08-13T11:54:29Z</time>
      </trkpt>
      <trkpt lat="42.3345920" lon="1.7125230">
        <ele>1505.1</ele>
        <time>2015-08-13T11:54:32Z</time>
      </trkpt>
      <trkpt lat="42.3345560" lon="1.7125210">
        <ele>1506.3</ele>
        <time>2015-08-13T11:54:36Z</time>
      </trkpt>
      <trkpt lat="42.3345170" lon="1.7125270">
        <ele>1507.6</ele>
        <time>2015-08-13T11:54:39Z</time>
      </trkpt>
      <trkpt lat="42.3344870" lon="1.7125230">
        <ele>1508.5</ele>
        <time>2015-08-13T11:54:41Z</time>
      </trkpt>
      <trkpt lat="42.3344480" lon="1.7125160">
        <ele>1509.6</ele>
        <time>2015-08-13T11:54:45Z</time>
      </trkpt>
      <trkpt lat="42.3344170" lon="1.7125030">
        <ele>1510.4</ele>
        <time>2015-08-13T11:54:48Z</time>
      </trkpt>
      <trkpt lat="42.3343900" lon="1.7125220">
        <ele>1511.6</ele>
        <time>2015-08-13T11:54:52Z</time>
      </trkpt>
      <trkpt lat="42.3343560" lon="1.7124920">
        <ele>1512.1</ele>
        <time>2015-08-13T11:54:55Z</time>
      </trkpt>
      <trkpt lat="42.3343330" lon="1.7124700">
        <ele>1512.3</ele>
        <time>2015-08-13T11:54:57Z</time>
      </trkpt>
      <trkpt lat="42.3342970" lon="1.7124700">
        <ele>1513.5</ele>
        <time>2015-08-13T11:55:00Z</time>
      </trkpt>
      <trkpt lat="42.3342670" lon="1.7124580">
        <ele>1514.2</ele>
        <time>2015-08-13T11:55:01Z</time>
      </trkpt>
      <trkpt lat="42.3342370" lon="1.7124630">
        <ele>1515.2</ele>
        <time>2015-08-13T11:55:03Z</time>
      </trkpt>
      <trkpt lat="42.3342100" lon="1.7124750">
        <ele>1516.3</ele>
        <time>2015-08-13T11:55:05Z</time>
      </trkpt>
      <trkpt lat="42.3341810" lon="1.7124520">
        <ele>1516.7</ele>
        <time>2015-08-13T11:55:08Z</time>
      </trkpt>
      <trkpt lat="42.3341470" lon="1.7124330">
        <ele>1517.4</ele>
        <time>2015-08-13T11:55:12Z</time>
      </trkpt>
      <trkpt lat="42.3341180" lon="1.7124360">
        <ele>1518.4</ele>
        <time>2015-08-13T11:55:16Z</time>
      </trkpt>
      <trkpt lat="42.3340770" lon="1.7124210">
        <ele>1519.3</ele>
        <time>2015-08-13T11:55:18Z</time>
      </trkpt>
      <trkpt lat="42.3340480" lon="1.7124460">
        <ele>1520.8</ele>
        <time>2015-08-13T11:55:22Z</time>
      </trkpt>
      <trkpt lat="42.3340140" lon="1.7124110">
        <ele>1521.0</ele>
        <time>2015-08-13T11:55:25Z</time>
      </trkpt>
      <trkpt lat="42.3339930" lon="1.7123870">
        <ele>1521.1</ele>
        <time>2015-08-13T11:55:27Z</time>
      </trkpt>
      <trkpt lat="42.3339880" lon="1.7123340">
        <ele>1520.0</ele>
        <time>2015-08-13T11:55:31Z</time>
      </trkpt>
      <trkpt lat="42.3339610" lon="1.7122990">
        <ele>1520.0</ele>
        <time>2015-08-13T11:55:35Z</time>
      </trkpt>
      <trkpt lat="42.3339530" lon="1.7122460">
        <ele>1519.0</ele>
        <time>2015-08-13T11:55:39Z</time>
      </trkpt>
      <trkpt lat="42.3339360" lon="1.7122100">
        <ele>1518.7</ele>
        <time>2015-08-13T11:55:41Z</time>
      </trkpt>
      <trkpt lat="42.3339180" lon="1.7121820">
        <ele>1518.5</ele>
        <time>2015-08-13T11:55:43Z</time>
      </trkpt>
      <trkpt lat="42.3339130" lon="1.7121280">
        <ele>1517.4</ele>
        <time>2015-08-13T11:55:47Z</time>
      </trkpt>
      <trkpt lat="42.3338940" lon="1.7120860">
        <ele>1516.9</ele>
        <time>2015-08-13T11:55:49Z</time>
      </trkpt>
      <trkpt lat="42.3338650" lon="1.7120560">
        <ele>1517.0</ele>
        <time>2015-08-13T11:55:52Z</time>
      </trkpt>
      <trkpt lat="42.3338540" lon="1.7120220">
        <ele>1516.5</ele>
        <time>2015-08-13T11:55:55Z</time>
      </trkpt>
      <trkpt lat="42.3338710" lon="1.7119930">
        <ele>1515.3</ele>
        <time>2015-08-13T11:55:56Z</time>
      </trkpt>
      <trkpt lat="42.3338770" lon="1.7119410">
        <ele>1513.9</ele>
        <time>2015-08-13T11:55:58Z</time>
      </trkpt>
      <trkpt lat="42.3338580" lon="1.7119060">
        <ele>1513.6</ele>
        <time>2015-08-13T11:56:02Z</time>
      </trkpt>
      <trkpt lat="42.3338180" lon="1.7118580">
        <ele>1513.5</ele>
        <time>2015-08-13T11:56:04Z</time>
      </trkpt>
      <trkpt lat="42.3338050" lon="1.7118180">
        <ele>1512.9</ele>
        <time>2015-08-13T11:56:06Z</time>
      </trkpt>
      <trkpt lat="42.3338050" lon="1.7117660">
        <ele>1511.6</ele>
        <time>2015-08-13T11:56:08Z</time>
      </trkpt>
      <trkpt lat="42.3337880" lon="1.7117370">
        <ele>1511.3</ele>
        <time>2015-08-13T11:56:11Z</time>
      </trkpt>
      <trkpt lat="42.3337740" lon="1.7117020">
        <ele>1510.8</ele>
        <time>2015-08-13T11:56:14Z</time>
      </trkpt>
      <trkpt lat="42.3337550" lon="1.7116630">
        <ele>1510.3</ele>
        <time>2015-08-13T11:56:17Z</time>
      </trkpt>
      <trkpt lat="42.3337290" lon="1.7116320">
        <ele>1509.5</ele>
        <time>2015-08-13T12:01:35Z</time>
      </trkpt>
      <trkpt lat="42.3337010" lon="1.7116150">
        <ele>1509.0</ele>
        <time>2015-08-13T12:01:37Z</time>
      </trkpt>
      <trkpt lat="42.3336660" lon="1.7116020">
        <ele>1508.5</ele>
        <time>2015-08-13T12:01:39Z</time>
      </trkpt>
      <trkpt lat="42.3336590" lon="1.7115640">
        <ele>1507.5</ele>
        <time>2015-08-13T12:01:41Z</time>
      </trkpt>
      <trkpt lat="42.3336300" lon="1.7115690">
        <ele>1507.5</ele>
        <time>2015-08-13T12:01:43Z</time>
      </trkpt>
      <trkpt lat="42.3335990" lon="1.7115580">
        <ele>1507.1</ele>
        <time>2015-08-13T12:01:46Z</time>
      </trkpt>
      <trkpt lat="42.3335640" lon="1.7115550">
        <ele>1506.9</ele>
        <time>2015-08-13T12:01:48Z</time>
      </trkpt>
      <trkpt lat="42.3335850" lon="1.7115300">
        <ele>1506.4</ele>
        <time>2015-08-13T12:01:51Z</time>
      </trkpt>
      <trkpt lat="42.3335600" lon="1.7115010">
        <ele>1505.6</ele>
        <time>2015-08-13T12:01:53Z</time>
      </trkpt>
      <trkpt lat="42.3335330" lon="1.7114790">
        <ele>1505.0</ele>
        <time>2015-08-13T12:01:55Z</time>
      </trkpt>
      <trkpt lat="42.3335060" lon="1.7114640">
        <ele>1504.5</ele>
        <time>2015-08-13T12:01:58Z</time>
      </trkpt>
      <trkpt lat="42.3334730" lon="1.7114600">
        <ele>1504.3</ele>
        <time>2015-08-13T12:02:04Z</time>
      </trkpt>
      <trkpt lat="42.3334460" lon="1.7114680">
        <ele>1504.4</ele>
        <time>2015-08-13T12:02:16Z</time>
      </trkpt>
      <trkpt lat="42.3333940" lon="1.7114570">
        <ele>1503.9</ele>
        <time>2015-08-13T12:02:18Z</time>
      </trkpt>
      <trkpt lat="42.3333610" lon="1.7114730">
        <ele>1504.2</ele>
        <time>2015-08-13T12:02:20Z</time>
      </trkpt>
      <trkpt lat="42.3333290" lon="1.7114920">
        <ele>1504.5</ele>
        <time>2015-08-13T12:02:22Z</time>
      </trkpt>
      <trkpt lat="42.3332970" lon="1.7114850">
        <ele>1504.2</ele>
        <time>2015-08-13T12:02:24Z</time>
      </trkpt>
      <trkpt lat="42.3332500" lon="1.7115000">
        <ele>1504.4</ele>
        <time>2015-08-13T12:02:27Z</time>
      </trkpt>
      <trkpt lat="42.3332130" lon="1.7115100">
        <ele>1504.5</ele>
        <time>2015-08-13T12:02:30Z</time>
      </trkpt>
      <trkpt lat="42.3331590" lon="1.7114960">
        <ele>1503.9</ele>
        <time>2015-08-13T12:02:32Z</time>
      </trkpt>
      <trkpt lat="42.3331230" lon="1.7114940">
        <ele>1503.8</ele>
        <time>2015-08-13T12:02:35Z</time>
      </trkpt>
      <trkpt lat="42.3330910" lon="1.7114980">
        <ele>1503.7</ele>
        <time>2015-08-13T12:02:36Z</time>
      </trkpt>
      <trkpt lat="42.3330820" lon="1.7115550">
        <ele>1504.9</ele>
        <time>2015-08-13T12:02:38Z</time>
      </trkpt>
      <trkpt lat="42.3330560" lon="1.7115790">
        <ele>1505.3</ele>
        <time>2015-08-13T12:02:40Z</time>
      </trkpt>
      <trkpt lat="42.3330280" lon="1.7116100">
        <ele>1505.8</ele>
        <time>2015-08-13T12:02:42Z</time>
      </trkpt>
      <trkpt lat="42.3329890" lon="1.7116170">
        <ele>1505.8</ele>
        <time>2015-08-13T12:02:45Z</time>
      </trkpt>
      <trkpt lat="42.3329540" lon="1.7116110">
        <ele>1505.5</ele>
        <time>2015-08-13T12:02:47Z</time>
      </trkpt>
      <trkpt lat="42.3329140" lon="1.7116070">
        <ele>1505.3</ele>
        <time>2015-08-13T12:02:50Z</time>
      </trkpt>
      <trkpt lat="42.3329070" lon="1.7116460">
        <ele>1506.2</ele>
        <time>2015-08-13T12:02:54Z</time>
      </trkpt>
      <trkpt lat="42.3328780" lon="1.7116810">
        <ele>1507.2</ele>
        <time>2015-08-13T12:02:57Z</time>
      </trkpt>
      <trkpt lat="42.3328550" lon="1.7117030">
        <ele>1507.9</ele>
        <time>2015-08-13T12:02:59Z</time>
      </trkpt>
      <trkpt lat="42.3328270" lon="1.7117270">
        <ele>1508.7</ele>
        <time>2015-08-13T12:03:01Z</time>
      </trkpt>
      <trkpt lat="42.3328130" lon="1.7117590">
        <ele>1509.5</ele>
        <time>2015-08-13T12:03:03Z</time>
      </trkpt>
      <trkpt lat="42.3327900" lon="1.7117930">
        <ele>1510.4</ele>
        <time>2015-08-13T12:03:05Z</time>
      </trkpt>
      <trkpt lat="42.3327670" lon="1.7118230">
        <ele>1511.2</ele>
        <time>2015-08-13T12:03:07Z</time>
      </trkpt>
      <trkpt lat="42.3327290" lon="1.7118210">
        <ele>1511.6</ele>
        <time>2015-08-13T12:03:08Z</time>
      </trkpt>
      <trkpt lat="42.3326900" lon="1.7118380">
        <ele>1512.3</ele>
        <time>2015-08-13T12:03:10Z</time>
      </trkpt>
      <trkpt lat="42.3326980" lon="1.7118740">
        <ele>1512.9</ele>
        <time>2015-08-13T12:03:12Z</time>
      </trkpt>
      <trkpt lat="42.3326700" lon="1.7118760">
        <ele>1513.2</ele>
        <time>2015-08-13T12:03:14Z</time>
      </trkpt>
      <trkpt lat="42.3326380" lon="1.7119030">
        <ele>1514.0</ele>
        <time>2015-08-13T12:03:17Z</time>
      </trkpt>
      <trkpt lat="42.3326180" lon="1.7119410">
        <ele>1514.9</ele>
        <time>2015-08-13T12:03:21Z</time>
      </trkpt>
      <trkpt lat="42.3325820" lon="1.7119730">
        <ele>1515.8</ele>
        <time>2015-08-13T12:03:24Z</time>
      </trkpt>
      <trkpt lat="42.3325500" lon="1.7119770">
        <ele>1516.2</ele>
        <time>2015-08-13T12:03:25Z</time>
      </trkpt>
      <trkpt lat="42.3325190" lon="1.7119770">
        <ele>1516.5</ele>
        <time>2015-08-13T12:03:26Z</time>
      </trkpt>
      <trkpt lat="42.3324930" lon="1.7120150">
        <ele>1517.4</ele>
        <time>2015-08-13T12:03:28Z</time>
      </trkpt>
      <trkpt lat="42.3324770" lon="1.7120480">
        <ele>1518.1</ele>
        <time>2015-08-13T12:03:31Z</time>
      </trkpt>
      <trkpt lat="42.3324550" lon="1.7120800">
        <ele>1518.8</ele>
        <time>2015-08-13T12:03:34Z</time>
      </trkpt>
      <trkpt lat="42.3324330" lon="1.7121290">
        <ele>1519.8</ele>
        <time>2015-08-13T12:03:36Z</time>
      </trkpt>
      <trkpt lat="42.3324100" lon="1.7121680">
        <ele>1520.6</ele>
        <time>2015-08-13T12:03:38Z</time>
      </trkpt>
      <trkpt lat="42.3323820" lon="1.7121760">
        <ele>1520.9</ele>
        <time>2015-08-13T12:03:40Z</time>
      </trkpt>
      <trkpt lat="42.3323590" lon="1.7122110">
        <ele>1521.6</ele>
        <time>2015-08-13T12:03:47Z</time>
      </trkpt>
      <trkpt lat="42.3323530" lon="1.7122480">
        <ele>1522.2</ele>
        <time>2015-08-13T12:03:49Z</time>
      </trkpt>
      <trkpt lat="42.3323250" lon="1.7122840">
        <ele>1522.9</ele>
        <time>2015-08-13T12:03:51Z</time>
      </trkpt>
      <trkpt lat="42.3322970" lon="1.7123050">
        <ele>1523.3</ele>
        <time>2015-08-13T12:03:53Z</time>
      </trkpt>
      <trkpt lat="42.3322720" lon="1.7123310">
        <ele>1523.9</ele>
        <time>2015-08-13T12:03:56Z</time>
      </trkpt>
      <trkpt lat="42.3322410" lon="1.7123380">
        <ele>1524.1</ele>
        <time>2015-08-13T12:03:58Z</time>
      </trkpt>
      <trkpt lat="42.3322150" lon="1.7123590">
        <ele>1524.6</ele>
        <time>2015-08-13T12:04:00Z</time>
      </trkpt>
      <trkpt lat="42.3322010" lon="1.7123950">
        <ele>1525.1</ele>
        <time>2015-08-13T12:04:01Z</time>
      </trkpt>
      <trkpt lat="42.3321900" lon="1.7124380">
        <ele>1525.7</ele>
        <time>2015-08-13T12:04:04Z</time>
      </trkpt>
      <trkpt lat="42.3321930" lon="1.7124750">
        <ele>1526.2</ele>
        <time>2015-08-13T12:04:06Z</time>
      </trkpt>
      <trkpt lat="42.3322300" lon="1.7125380">
        <ele>1526.9</ele>
        <time>2015-08-13T12:04:11Z</time>
      </trkpt>
      <trkpt lat="42.3322290" lon="1.7125770">
        <ele>1527.4</ele>
        <time>2015-08-13T12:04:14Z</time>
      </trkpt>
      <trkpt lat="42.3321720" lon="1.7126130">
        <ele>1528.1</ele>
        <time>2015-08-13T12:04:17Z</time>
      </trkpt>
      <trkpt lat="42.3321650" lon="1.7126490">
        <ele>1528.6</ele>
        <time>2015-08-13T12:04:19Z</time>
      </trkpt>
      <trkpt lat="42.3321370" lon="1.7126600">
        <ele>1528.8</ele>
        <time>2015-08-13T12:04:22Z</time>
      </trkpt>
      <trkpt lat="42.3321240" lon="1.7126990">
        <ele>1529.3</ele>
        <time>2015-08-13T12:04:23Z</time>
      </trkpt>
      <trkpt lat="42.3321250" lon="1.7127400">
        <ele>1529.8</ele>
        <time>2015-08-13T12:04:27Z</time>
      </trkpt>
      <trkpt lat="42.3321000" lon="1.7127680">
        <ele>1530.2</ele>
        <time>2015-08-13T12:04:29Z</time>
      </trkpt>
      <trkpt lat="42.3320680" lon="1.7127920">
        <ele>1531.0</ele>
        <time>2015-08-13T12:04:31Z</time>
      </trkpt>
      <trkpt lat="42.3320360" lon="1.7127860">
        <ele>1531.9</ele>
        <time>2015-08-13T12:04:33Z</time>
      </trkpt>
      <trkpt lat="42.3319980" lon="1.7127890">
        <ele>1533.1</ele>
        <time>2015-08-13T12:04:35Z</time>
      </trkpt>
      <trkpt lat="42.3319920" lon="1.7128340">
        <ele>1533.8</ele>
        <time>2015-08-13T12:04:39Z</time>
      </trkpt>
      <trkpt lat="42.3320230" lon="1.7128660">
        <ele>1533.3</ele>
        <time>2015-08-13T12:04:42Z</time>
      </trkpt>
      <trkpt lat="42.3319930" lon="1.7128650">
        <ele>1534.2</ele>
        <time>2015-08-13T12:04:44Z</time>
      </trkpt>
      <trkpt lat="42.3319780" lon="1.7129210">
        <ele>1535.4</ele>
        <time>2015-08-13T12:04:48Z</time>
      </trkpt>
      <trkpt lat="42.3319640" lon="1.7129580">
        <ele>1536.5</ele>
        <time>2015-08-13T12:04:52Z</time>
      </trkpt>
      <trkpt lat="42.3319350" lon="1.7129870">
        <ele>1537.9</ele>
        <time>2015-08-13T12:04:56Z</time>
      </trkpt>
      <trkpt lat="42.3319150" lon="1.7129620">
        <ele>1538.0</ele>
        <time>2015-08-13T12:05:07Z</time>
      </trkpt>
      <trkpt lat="42.3318890" lon="1.7129760">
        <ele>1539.1</ele>
        <time>2015-08-13T12:05:11Z</time>
      </trkpt>
      <trkpt lat="42.3318590" lon="1.7129960">
        <ele>1540.3</ele>
        <time>2015-08-13T12:05:14Z</time>
      </trkpt>
      <trkpt lat="42.3318050" lon="1.7130120">
        <ele>1542.2</ele>
        <time>2015-08-13T12:05:17Z</time>
      </trkpt>
      <trkpt lat="42.3317950" lon="1.7130490">
        <ele>1543.1</ele>
        <time>2015-08-13T12:05:18Z</time>
      </trkpt>
      <trkpt lat="42.3317630" lon="1.7130340">
        <ele>1543.8</ele>
        <time>2015-08-13T12:05:20Z</time>
      </trkpt>
      <trkpt lat="42.3317790" lon="1.7130640">
        <ele>1543.8</ele>
        <time>2015-08-13T12:05:23Z</time>
      </trkpt>
      <trkpt lat="42.3317790" lon="1.7131200">
        <ele>1544.7</ele>
        <time>2015-08-13T12:05:28Z</time>
      </trkpt>
      <trkpt lat="42.3317790" lon="1.7131640">
        <ele>1545.4</ele>
        <time>2015-08-13T12:05:31Z</time>
      </trkpt>
      <trkpt lat="42.3318050" lon="1.7131820">
        <ele>1544.9</ele>
        <time>2015-08-13T12:05:33Z</time>
      </trkpt>
      <trkpt lat="42.3318470" lon="1.7131930">
        <ele>1543.9</ele>
        <time>2015-08-13T12:05:38Z</time>
      </trkpt>
      <trkpt lat="42.3318760" lon="1.7131730">
        <ele>1542.8</ele>
        <time>2015-08-13T12:05:43Z</time>
      </trkpt>
      <trkpt lat="42.3319210" lon="1.7131730">
        <ele>1541.5</ele>
        <time>2015-08-13T12:05:45Z</time>
      </trkpt>
      <trkpt lat="42.3319560" lon="1.7131510">
        <ele>1540.1</ele>
        <time>2015-08-13T12:05:47Z</time>
      </trkpt>
      <trkpt lat="42.3319820" lon="1.7131300">
        <ele>1539.0</ele>
        <time>2015-08-13T12:05:48Z</time>
      </trkpt>
      <trkpt lat="42.3320260" lon="1.7131140">
        <ele>1537.4</ele>
        <time>2015-08-13T12:05:50Z</time>
      </trkpt>
      <trkpt lat="42.3320540" lon="1.7131300">
        <ele>1536.9</ele>
        <time>2015-08-13T12:05:52Z</time>
      </trkpt>
      <trkpt lat="42.3320900" lon="1.7130970">
        <ele>1535.5</ele>
        <time>2015-08-13T12:05:55Z</time>
      </trkpt>
      <trkpt lat="42.3321190" lon="1.7130520">
        <ele>1534.6</ele>
        <time>2015-08-13T12:05:57Z</time>
      </trkpt>
      <trkpt lat="42.3321480" lon="1.7130240">
        <ele>1534.1</ele>
        <time>2015-08-13T12:06:00Z</time>
      </trkpt>
      <trkpt lat="42.3321700" lon="1.7130020">
        <ele>1533.7</ele>
        <time>2015-08-13T12:06:02Z</time>
      </trkpt>
      <trkpt lat="42.3322020" lon="1.7129900">
        <ele>1533.5</ele>
        <time>2015-08-13T12:06:04Z</time>
      </trkpt>
      <trkpt lat="42.3322360" lon="1.7129510">
        <ele>1532.7</ele>
        <time>2015-08-13T12:06:07Z</time>
      </trkpt>
      <trkpt lat="42.3322740" lon="1.7129330">
        <ele>1532.3</ele>
        <time>2015-08-13T12:06:09Z</time>
      </trkpt>
      <trkpt lat="42.3323070" lon="1.7129340">
        <ele>1532.4</ele>
        <time>2015-08-13T12:06:11Z</time>
      </trkpt>
      <trkpt lat="42.3323320" lon="1.7129070">
        <ele>1531.9</ele>
        <time>2015-08-13T12:06:13Z</time>
      </trkpt>
      <trkpt lat="42.3323470" lon="1.7128750">
        <ele>1531.4</ele>
        <time>2015-08-13T12:06:15Z</time>
      </trkpt>
      <trkpt lat="42.3323680" lon="1.7128420">
        <ele>1530.9</ele>
        <time>2015-08-13T12:06:17Z</time>
      </trkpt>
      <trkpt lat="42.3324020" lon="1.7128630">
        <ele>1531.2</ele>
        <time>2015-08-13T12:06:22Z</time>
      </trkpt>
      <trkpt lat="42.3324370" lon="1.7128840">
        <ele>1531.5</ele>
        <time>2015-08-13T12:06:32Z</time>
      </trkpt>
      <trkpt lat="42.3324140" lon="1.7129040">
        <ele>1531.8</ele>
        <time>2015-08-13T12:07:01Z</time>
      </trkpt>
      <trkpt lat="42.3324450" lon="1.7128890">
        <ele>1531.6</ele>
        <time>2015-08-13T12:07:34Z</time>
      </trkpt>
      <trkpt lat="42.3324770" lon="1.7128820">
        <ele>1531.4</ele>
        <time>2015-08-13T12:07:36Z</time>
      </trkpt>
      <trkpt lat="42.3325080" lon="1.7128530">
        <ele>1531.0</ele>
        <time>2015-08-13T12:07:38Z</time>
      </trkpt>
      <trkpt lat="42.3325470" lon="1.7128330">
        <ele>1530.6</ele>
        <time>2015-08-13T12:07:40Z</time>
      </trkpt>
      <trkpt lat="42.3325720" lon="1.7127930">
        <ele>1529.9</ele>
        <time>2015-08-13T12:07:42Z</time>
      </trkpt>
      <trkpt lat="42.3325980" lon="1.7127480">
        <ele>1529.1</ele>
        <time>2015-08-13T12:07:44Z</time>
      </trkpt>
      <trkpt lat="42.3326410" lon="1.7127040">
        <ele>1528.3</ele>
        <time>2015-08-13T12:07:47Z</time>
      </trkpt>
      <trkpt lat="42.3326700" lon="1.7126960">
        <ele>1528.0</ele>
        <time>2015-08-13T12:07:49Z</time>
      </trkpt>
      <trkpt lat="42.3327160" lon="1.7126590">
        <ele>1527.3</ele>
        <time>2015-08-13T12:07:51Z</time>
      </trkpt>
      <trkpt lat="42.3327520" lon="1.7126370">
        <ele>1526.8</ele>
        <time>2015-08-13T12:07:53Z</time>
      </trkpt>
      <trkpt lat="42.3327780" lon="1.7126600">
        <ele>1527.1</ele>
        <time>2015-08-13T12:07:54Z</time>
      </trkpt>
      <trkpt lat="42.3328070" lon="1.7126860">
        <ele>1527.5</ele>
        <time>2015-08-13T12:07:55Z</time>
      </trkpt>
      <trkpt lat="42.3328360" lon="1.7127310">
        <ele>1528.4</ele>
        <time>2015-08-13T12:07:56Z</time>
      </trkpt>
      <trkpt lat="42.3328680" lon="1.7127630">
        <ele>1528.9</ele>
        <time>2015-08-13T12:07:57Z</time>
      </trkpt>
      <trkpt lat="42.3329030" lon="1.7127980">
        <ele>1529.6</ele>
        <time>2015-08-13T12:07:58Z</time>
      </trkpt>
      <trkpt lat="42.3329280" lon="1.7128190">
        <ele>1530.1</ele>
        <time>2015-08-13T12:07:59Z</time>
      </trkpt>
      <trkpt lat="42.3329490" lon="1.7128440">
        <ele>1530.9</ele>
        <time>2015-08-13T12:08:00Z</time>
      </trkpt>
      <trkpt lat="42.3329910" lon="1.7128610">
        <ele>1531.7</ele>
        <time>2015-08-13T12:08:02Z</time>
      </trkpt>
      <trkpt lat="42.3330350" lon="1.7128810">
        <ele>1532.7</ele>
        <time>2015-08-13T12:08:04Z</time>
      </trkpt>
      <trkpt lat="42.3330290" lon="1.7129180">
        <ele>1533.4</ele>
        <time>2015-08-13T12:08:05Z</time>
      </trkpt>
      <trkpt lat="42.3330430" lon="1.7129690">
        <ele>1534.8</ele>
        <time>2015-08-13T12:08:06Z</time>
      </trkpt>
      <trkpt lat="42.3330770" lon="1.7129810">
        <ele>1535.4</ele>
        <time>2015-08-13T12:08:07Z</time>
      </trkpt>
      <trkpt lat="42.3330340" lon="1.7129840">
        <ele>1535.0</ele>
        <time>2015-08-13T12:08:08Z</time>
      </trkpt>
      <trkpt lat="42.3330620" lon="1.7129900">
        <ele>1535.5</ele>
        <time>2015-08-13T12:08:10Z</time>
      </trkpt>
      <trkpt lat="42.3330790" lon="1.7130180">
        <ele>1536.3</ele>
        <time>2015-08-13T12:08:11Z</time>
      </trkpt>
      <trkpt lat="42.3330740" lon="1.7130600">
        <ele>1537.3</ele>
        <time>2015-08-13T12:08:14Z</time>
      </trkpt>
      <trkpt lat="42.3330760" lon="1.7130970">
        <ele>1538.2</ele>
        <time>2015-08-13T12:08:15Z</time>
      </trkpt>
      <trkpt lat="42.3330690" lon="1.7131530">
        <ele>1539.4</ele>
        <time>2015-08-13T12:08:17Z</time>
      </trkpt>
      <trkpt lat="42.3330970" lon="1.7132110">
        <ele>1541.0</ele>
        <time>2015-08-13T12:08:18Z</time>
      </trkpt>
      <trkpt lat="42.3331190" lon="1.7132490">
        <ele>1542.1</ele>
        <time>2015-08-13T12:08:20Z</time>
      </trkpt>
      <trkpt lat="42.3331210" lon="1.7132970">
        <ele>1543.3</ele>
        <time>2015-08-13T12:08:23Z</time>
      </trkpt>
      <trkpt lat="42.3331000" lon="1.7133340">
        <ele>1543.9</ele>
        <time>2015-08-13T12:08:25Z</time>
      </trkpt>
      <trkpt lat="42.3330700" lon="1.7133110">
        <ele>1543.2</ele>
        <time>2015-08-13T12:08:28Z</time>
      </trkpt>
      <trkpt lat="42.3330360" lon="1.7133520">
        <ele>1543.9</ele>
        <time>2015-08-13T12:08:30Z</time>
      </trkpt>
      <trkpt lat="42.3330050" lon="1.7133850">
        <ele>1544.4</ele>
        <time>2015-08-13T12:08:32Z</time>
      </trkpt>
      <trkpt lat="42.3329790" lon="1.7133940">
        <ele>1544.5</ele>
        <time>2015-08-13T12:08:33Z</time>
      </trkpt>
      <trkpt lat="42.3329520" lon="1.7133860">
        <ele>1544.1</ele>
        <time>2015-08-13T12:08:36Z</time>
      </trkpt>
      <trkpt lat="42.3329640" lon="1.7134190">
        <ele>1545.0</ele>
        <time>2015-08-13T12:08:38Z</time>
      </trkpt>
      <trkpt lat="42.3329740" lon="1.7134850">
        <ele>1546.7</ele>
        <time>2015-08-13T12:08:42Z</time>
      </trkpt>
      <trkpt lat="42.3329660" lon="1.7135570">
        <ele>1548.4</ele>
        <time>2015-08-13T12:08:44Z</time>
      </trkpt>
      <trkpt lat="42.3329100" lon="1.7135770">
        <ele>1548.6</ele>
        <time>2015-08-13T12:08:47Z</time>
      </trkpt>
      <trkpt lat="42.3328710" lon="1.7135930">
        <ele>1548.8</ele>
        <time>2015-08-13T12:08:48Z</time>
      </trkpt>
      <trkpt lat="42.3328420" lon="1.7135970">
        <ele>1548.8</ele>
        <time>2015-08-13T12:08:49Z</time>
      </trkpt>
      <trkpt lat="42.3327990" lon="1.7136170">
        <ele>1549.1</ele>
        <time>2015-08-13T12:08:52Z</time>
      </trkpt>
      <trkpt lat="42.3327810" lon="1.7136260">
        <ele>1549.2</ele>
        <time>2015-08-13T12:08:55Z</time>
      </trkpt>
      <trkpt lat="42.3327640" lon="1.7136340">
        <ele>1549.3</ele>
        <time>2015-08-13T12:08:58Z</time>
      </trkpt>
      <trkpt lat="42.3327460" lon="1.7136430">
        <ele>1549.4</ele>
        <time>2015-08-13T12:08:59Z</time>
      </trkpt>
      <trkpt lat="42.3327140" lon="1.7136650">
        <ele>1549.8</ele>
        <time>2015-08-13T12:09:00Z</time>
      </trkpt>
      <trkpt lat="42.3326870" lon="1.7136600">
        <ele>1549.5</ele>
        <time>2015-08-13T12:09:02Z</time>
      </trkpt>
      <trkpt lat="42.3326510" lon="1.7137020">
        <ele>1550.3</ele>
        <time>2015-08-13T12:09:05Z</time>
      </trkpt>
      <trkpt lat="42.3326450" lon="1.7137390">
        <ele>1551.1</ele>
        <time>2015-08-13T12:09:11Z</time>
      </trkpt>
      <trkpt lat="42.3326900" lon="1.7137370">
        <ele>1551.3</ele>
        <time>2015-08-13T12:09:13Z</time>
      </trkpt>
      <trkpt lat="42.3326720" lon="1.7136950">
        <ele>1550.2</ele>
        <time>2015-08-13T12:09:14Z</time>
      </trkpt>
      <trkpt lat="42.3326410" lon="1.7137510">
        <ele>1551.4</ele>
        <time>2015-08-13T12:09:15Z</time>
      </trkpt>
      <trkpt lat="42.3325980" lon="1.7137840">
        <ele>1552.1</ele>
        <time>2015-08-13T12:09:17Z</time>
      </trkpt>
      <trkpt lat="42.3325770" lon="1.7138140">
        <ele>1553.0</ele>
        <time>2015-08-13T12:09:20Z</time>
      </trkpt>
      <trkpt lat="42.3325400" lon="1.7137860">
        <ele>1551.9</ele>
        <time>2015-08-13T12:09:22Z</time>
      </trkpt>
      <trkpt lat="42.3324920" lon="1.7137730">
        <ele>1551.2</ele>
        <time>2015-08-13T12:09:25Z</time>
      </trkpt>
      <trkpt lat="42.3324650" lon="1.7138040">
        <ele>1552.0</ele>
        <time>2015-08-13T12:09:28Z</time>
      </trkpt>
      <trkpt lat="42.3324420" lon="1.7138400">
        <ele>1553.0</ele>
        <time>2015-08-13T12:09:31Z</time>
      </trkpt>
      <trkpt lat="42.3324830" lon="1.7138950">
        <ele>1554.9</ele>
        <time>2015-08-13T12:09:35Z</time>
      </trkpt>
      <trkpt lat="42.3324600" lon="1.7139200">
        <ele>1555.6</ele>
        <time>2015-08-13T12:09:37Z</time>
      </trkpt>
      <trkpt lat="42.3324310" lon="1.7139210">
        <ele>1555.4</ele>
        <time>2015-08-13T12:09:39Z</time>
      </trkpt>
      <trkpt lat="42.3324020" lon="1.7139430">
        <ele>1555.9</ele>
        <time>2015-08-13T12:09:43Z</time>
      </trkpt>
      <trkpt lat="42.3323970" lon="1.7139870">
        <ele>1557.3</ele>
        <time>2015-08-13T12:09:45Z</time>
      </trkpt>
      <trkpt lat="42.3323300" lon="1.7140230">
        <ele>1558.0</ele>
        <time>2015-08-13T12:09:48Z</time>
      </trkpt>
      <trkpt lat="42.3322950" lon="1.7139860">
        <ele>1556.6</ele>
        <time>2015-08-13T12:09:49Z</time>
      </trkpt>
      <trkpt lat="42.3323270" lon="1.7139990">
        <ele>1557.2</ele>
        <time>2015-08-13T12:09:50Z</time>
      </trkpt>
      <trkpt lat="42.3323120" lon="1.7140360">
        <ele>1558.3</ele>
        <time>2015-08-13T12:09:52Z</time>
      </trkpt>
      <trkpt lat="42.3322980" lon="1.7140720">
        <ele>1559.3</ele>
        <time>2015-08-13T12:09:56Z</time>
      </trkpt>
      <trkpt lat="42.3322720" lon="1.7141130">
        <ele>1560.5</ele>
        <time>2015-08-13T12:09:59Z</time>
      </trkpt>
      <trkpt lat="42.3322470" lon="1.7141420">
        <ele>1561.2</ele>
        <time>2015-08-13T12:10:01Z</time>
      </trkpt>
      <trkpt lat="42.3322160" lon="1.7141450">
        <ele>1561.1</ele>
        <time>2015-08-13T12:10:04Z</time>
      </trkpt>
      <trkpt lat="42.3321920" lon="1.7141240">
        <ele>1560.3</ele>
        <time>2015-08-13T12:10:07Z</time>
      </trkpt>
      <trkpt lat="42.3321710" lon="1.7141520">
        <ele>1561.1</ele>
        <time>2015-08-13T12:10:10Z</time>
      </trkpt>
      <trkpt lat="42.3321990" lon="1.7141860">
        <ele>1562.3</ele>
        <time>2015-08-13T12:10:11Z</time>
      </trkpt>
      <trkpt lat="42.3322100" lon="1.7142210">
        <ele>1563.5</ele>
        <time>2015-08-13T12:10:14Z</time>
      </trkpt>
      <trkpt lat="42.3321840" lon="1.7142330">
        <ele>1563.7</ele>
        <time>2015-08-13T12:10:17Z</time>
      </trkpt>
      <trkpt lat="42.3321200" lon="1.7142570">
        <ele>1564.0</ele>
        <time>2015-08-13T12:10:22Z</time>
      </trkpt>
      <trkpt lat="42.3320990" lon="1.7142830">
        <ele>1564.7</ele>
        <time>2015-08-13T12:10:24Z</time>
      </trkpt>
      <trkpt lat="42.3320860" lon="1.7143190">
        <ele>1565.8</ele>
        <time>2015-08-13T12:10:28Z</time>
      </trkpt>
      <trkpt lat="42.3320650" lon="1.7143470">
        <ele>1566.8</ele>
        <time>2015-08-13T12:10:31Z</time>
      </trkpt>
      <trkpt lat="42.3320290" lon="1.7143360">
        <ele>1567.0</ele>
        <time>2015-08-13T12:10:32Z</time>
      </trkpt>
      <trkpt lat="42.3319920" lon="1.7143420">
        <ele>1567.6</ele>
        <time>2015-08-13T12:10:34Z</time>
      </trkpt>
      <trkpt lat="42.3319290" lon="1.7143200">
        <ele>1567.7</ele>
        <time>2015-08-13T12:10:37Z</time>
      </trkpt>
      <trkpt lat="42.3318950" lon="1.7143020">
        <ele>1567.6</ele>
        <time>2015-08-13T12:10:39Z</time>
      </trkpt>
      <trkpt lat="42.3318710" lon="1.7143200">
        <ele>1568.5</ele>
        <time>2015-08-13T12:10:40Z</time>
      </trkpt>
      <trkpt lat="42.3318350" lon="1.7143090">
        <ele>1568.6</ele>
        <time>2015-08-13T12:10:41Z</time>
      </trkpt>
      <trkpt lat="42.3318060" lon="1.7143300">
        <ele>1569.5</ele>
        <time>2015-08-13T12:10:43Z</time>
      </trkpt>
      <trkpt lat="42.3317790" lon="1.7143490">
        <ele>1570.4</ele>
        <time>2015-08-13T12:10:46Z</time>
      </trkpt>
      <trkpt lat="42.3317500" lon="1.7143520">
        <ele>1570.8</ele>
        <time>2015-08-13T12:10:50Z</time>
      </trkpt>
      <trkpt lat="42.3317210" lon="1.7143780">
        <ele>1571.8</ele>
        <time>2015-08-13T12:10:53Z</time>
      </trkpt>
      <trkpt lat="42.3317060" lon="1.7144120">
        <ele>1572.8</ele>
        <time>2015-08-13T12:10:55Z</time>
      </trkpt>
      <trkpt lat="42.3316880" lon="1.7144390">
        <ele>1573.7</ele>
        <time>2015-08-13T12:11:01Z</time>
      </trkpt>
      <trkpt lat="42.3316520" lon="1.7144620">
        <ele>1574.7</ele>
        <time>2015-08-13T12:11:04Z</time>
      </trkpt>
      <trkpt lat="42.3316620" lon="1.7145090">
        <ele>1575.7</ele>
        <time>2015-08-13T12:11:09Z</time>
      </trkpt>
      <trkpt lat="42.3316650" lon="1.7145540">
        <ele>1576.8</ele>
        <time>2015-08-13T12:11:13Z</time>
      </trkpt>
      <trkpt lat="42.3316370" lon="1.7145610">
        <ele>1577.2</ele>
        <time>2015-08-13T12:11:15Z</time>
      </trkpt>
      <trkpt lat="42.3316390" lon="1.7145990">
        <ele>1578.2</ele>
        <time>2015-08-13T12:11:19Z</time>
      </trkpt>
      <trkpt lat="42.3316160" lon="1.7145730">
        <ele>1577.7</ele>
        <time>2015-08-13T12:11:22Z</time>
      </trkpt>
      <trkpt lat="42.3315850" lon="1.7145560">
        <ele>1577.5</ele>
        <time>2015-08-13T12:11:24Z</time>
      </trkpt>
      <trkpt lat="42.3315540" lon="1.7145600">
        <ele>1577.9</ele>
        <time>2015-08-13T12:11:25Z</time>
      </trkpt>
      <trkpt lat="42.3315190" lon="1.7145880">
        <ele>1578.9</ele>
        <time>2015-08-13T12:11:28Z</time>
      </trkpt>
      <trkpt lat="42.3314950" lon="1.7146040">
        <ele>1579.5</ele>
        <time>2015-08-13T12:11:31Z</time>
      </trkpt>
      <trkpt lat="42.3314620" lon="1.7146160">
        <ele>1580.0</ele>
        <time>2015-08-13T12:11:34Z</time>
      </trkpt>
      <trkpt lat="42.3314450" lon="1.7145820">
        <ele>1579.3</ele>
        <time>2015-08-13T12:11:36Z</time>
      </trkpt>
      <trkpt lat="42.3314090" lon="1.7145740">
        <ele>1579.5</ele>
        <time>2015-08-13T12:11:40Z</time>
      </trkpt>
      <trkpt lat="42.3314100" lon="1.7146250">
        <ele>1580.7</ele>
        <time>2015-08-13T12:11:49Z</time>
      </trkpt>
      <trkpt lat="42.3314050" lon="1.7146660">
        <ele>1581.7</ele>
        <time>2015-08-13T12:11:51Z</time>
      </trkpt>
      <trkpt lat="42.3313790" lon="1.7147090">
        <ele>1582.9</ele>
        <time>2015-08-13T12:11:53Z</time>
      </trkpt>
      <trkpt lat="42.3313510" lon="1.7147250">
        <ele>1583.4</ele>
        <time>2015-08-13T12:11:56Z</time>
      </trkpt>
      <trkpt lat="42.3313220" lon="1.7147420">
        <ele>1584.0</ele>
        <time>2015-08-13T12:11:59Z</time>
      </trkpt>
      <trkpt lat="42.3313010" lon="1.7147100">
        <ele>1583.4</ele>
        <time>2015-08-13T12:12:04Z</time>
      </trkpt>
      <trkpt lat="42.3313100" lon="1.7147490">
        <ele>1584.2</ele>
        <time>2015-08-13T12:12:05Z</time>
      </trkpt>
      <trkpt lat="42.3312830" lon="1.7147360">
        <ele>1584.1</ele>
        <time>2015-08-13T12:12:06Z</time>
      </trkpt>
      <trkpt lat="42.3312960" lon="1.7147940">
        <ele>1585.3</ele>
        <time>2015-08-13T12:12:07Z</time>
      </trkpt>
      <trkpt lat="42.3312880" lon="1.7148490">
        <ele>1586.6</ele>
        <time>2015-08-13T12:12:08Z</time>
      </trkpt>
      <trkpt lat="42.3312610" lon="1.7148410">
        <ele>1586.5</ele>
        <time>2015-08-13T12:12:10Z</time>
      </trkpt>
      <trkpt lat="42.3312350" lon="1.7148540">
        <ele>1587.2</ele>
        <time>2015-08-13T12:12:17Z</time>
      </trkpt>
      <trkpt lat="42.3312050" lon="1.7149010">
        <ele>1588.8</ele>
        <time>2015-08-13T12:12:20Z</time>
      </trkpt>
      <trkpt lat="42.3311580" lon="1.7148820">
        <ele>1589.5</ele>
        <time>2015-08-13T12:12:22Z</time>
      </trkpt>
      <trkpt lat="42.3311310" lon="1.7149030">
        <ele>1590.5</ele>
        <time>2015-08-13T12:12:23Z</time>
      </trkpt>
      <trkpt lat="42.3310990" lon="1.7149070">
        <ele>1591.3</ele>
        <time>2015-08-13T12:12:24Z</time>
      </trkpt>
      <trkpt lat="42.3310680" lon="1.7148970">
        <ele>1591.7</ele>
        <time>2015-08-13T12:12:27Z</time>
      </trkpt>
      <trkpt lat="42.3310530" lon="1.7149310">
        <ele>1592.7</ele>
        <time>2015-08-13T12:12:32Z</time>
      </trkpt>
      <trkpt lat="42.3310260" lon="1.7149420">
        <ele>1593.5</ele>
        <time>2015-08-13T12:12:33Z</time>
      </trkpt>
      <trkpt lat="42.3310040" lon="1.7149760">
        <ele>1594.7</ele>
        <time>2015-08-13T12:12:35Z</time>
      </trkpt>
      <trkpt lat="42.3309680" lon="1.7149940">
        <ele>1595.8</ele>
        <time>2015-08-13T12:12:39Z</time>
      </trkpt>
      <trkpt lat="42.3309390" lon="1.7149980">
        <ele>1596.5</ele>
        <time>2015-08-13T12:12:42Z</time>
      </trkpt>
      <trkpt lat="42.3309500" lon="1.7150420">
        <ele>1597.1</ele>
        <time>2015-08-13T12:12:46Z</time>
      </trkpt>
      <trkpt lat="42.3309140" lon="1.7150830">
        <ele>1598.6</ele>
        <time>2015-08-13T12:12:52Z</time>
      </trkpt>
      <trkpt lat="42.3308730" lon="1.7150630">
        <ele>1599.1</ele>
        <time>2015-08-13T12:12:53Z</time>
      </trkpt>
      <trkpt lat="42.3308400" lon="1.7150520">
        <ele>1599.6</ele>
        <time>2015-08-13T12:12:56Z</time>
      </trkpt>
      <trkpt lat="42.3307970" lon="1.7150320">
        <ele>1600.1</ele>
        <time>2015-08-13T12:12:58Z</time>
      </trkpt>
      <trkpt lat="42.3307610" lon="1.7150410">
        <ele>1601.0</ele>
        <time>2015-08-13T12:13:01Z</time>
      </trkpt>
      <trkpt lat="42.3307560" lon="1.7150900">
        <ele>1602.0</ele>
        <time>2015-08-13T12:13:05Z</time>
      </trkpt>
      <trkpt lat="42.3307120" lon="1.7150900">
        <ele>1602.9</ele>
        <time>2015-08-13T12:13:12Z</time>
      </trkpt>
      <trkpt lat="42.3306730" lon="1.7150760">
        <ele>1603.4</ele>
        <time>2015-08-13T12:13:14Z</time>
      </trkpt>
      <trkpt lat="42.3306410" lon="1.7150480">
        <ele>1603.6</ele>
        <time>2015-08-13T12:13:18Z</time>
      </trkpt>
      <trkpt lat="42.3306220" lon="1.7150140">
        <ele>1603.4</ele>
        <time>2015-08-13T12:13:20Z</time>
      </trkpt>
      <trkpt lat="42.3305940" lon="1.7150100">
        <ele>1603.9</ele>
        <time>2015-08-13T12:13:21Z</time>
      </trkpt>
      <trkpt lat="42.3305620" lon="1.7149960">
        <ele>1604.4</ele>
        <time>2015-08-13T12:13:31Z</time>
      </trkpt>
      <trkpt lat="42.3305260" lon="1.7149270">
        <ele>1604.0</ele>
        <time>2015-08-13T12:13:40Z</time>
      </trkpt>
      <trkpt lat="42.3304950" lon="1.7149420">
        <ele>1604.9</ele>
        <time>2015-08-13T12:13:42Z</time>
      </trkpt>
      <trkpt lat="42.3304540" lon="1.7149360">
        <ele>1605.7</ele>
        <time>2015-08-13T12:13:45Z</time>
      </trkpt>
      <trkpt lat="42.3304550" lon="1.7148420">
        <ele>1604.2</ele>
        <time>2015-08-13T12:13:47Z</time>
      </trkpt>
      <trkpt lat="42.3304240" lon="1.7148080">
        <ele>1604.3</ele>
        <time>2015-08-13T12:13:48Z</time>
      </trkpt>
      <trkpt lat="42.3303920" lon="1.7147830">
        <ele>1604.9</ele>
        <time>2015-08-13T12:13:50Z</time>
      </trkpt>
      <trkpt lat="42.3303810" lon="1.7147260">
        <ele>1604.4</ele>
        <time>2015-08-13T12:13:52Z</time>
      </trkpt>
      <trkpt lat="42.3303540" lon="1.7147010">
        <ele>1605.0</ele>
        <time>2015-08-13T12:13:54Z</time>
      </trkpt>
      <trkpt lat="42.3303280" lon="1.7146750">
        <ele>1605.5</ele>
        <time>2015-08-13T12:13:56Z</time>
      </trkpt>
      <trkpt lat="42.3303010" lon="1.7146500">
        <ele>1606.0</ele>
        <time>2015-08-13T12:14:05Z</time>
      </trkpt>
      <trkpt lat="42.3302750" lon="1.7146240">
        <ele>1606.5</ele>
        <time>2015-08-13T12:14:06Z</time>
      </trkpt>
      <trkpt lat="42.3302260" lon="1.7146100">
        <ele>1608.0</ele>
        <time>2015-08-13T12:14:07Z</time>
      </trkpt>
      <trkpt lat="42.3301920" lon="1.7145860">
        <ele>1608.9</ele>
        <time>2015-08-13T12:14:09Z</time>
      </trkpt>
      <trkpt lat="42.3301550" lon="1.7145940">
        <ele>1610.3</ele>
        <time>2015-08-13T12:14:11Z</time>
      </trkpt>
      <trkpt lat="42.3301380" lon="1.7145580">
        <ele>1610.4</ele>
        <time>2015-08-13T12:14:13Z</time>
      </trkpt>
      <trkpt lat="42.3301050" lon="1.7145500">
        <ele>1611.4</ele>
        <time>2015-08-13T12:14:15Z</time>
      </trkpt>
      <trkpt lat="42.3301020" lon="1.7145110">
        <ele>1611.1</ele>
        <time>2015-08-13T12:14:17Z</time>
      </trkpt>
      <trkpt lat="42.3300590" lon="1.7145200">
        <ele>1612.6</ele>
        <time>2015-08-13T12:14:21Z</time>
      </trkpt>
      <trkpt lat="42.3300300" lon="1.7145000">
        <ele>1613.4</ele>
        <time>2015-08-13T12:14:26Z</time>
      </trkpt>
      <trkpt lat="42.3300190" lon="1.7144560">
        <ele>1613.2</ele>
        <time>2015-08-13T12:14:31Z</time>
      </trkpt>
      <trkpt lat="42.3300440" lon="1.7144410">
        <ele>1612.1</ele>
        <time>2015-08-13T12:14:35Z</time>
      </trkpt>
      <trkpt lat="42.3300260" lon="1.7144090">
        <ele>1612.3</ele>
        <time>2015-08-13T12:14:38Z</time>
      </trkpt>
      <trkpt lat="42.3300230" lon="1.7143700">
        <ele>1611.9</ele>
        <time>2015-08-13T12:14:41Z</time>
      </trkpt>
      <trkpt lat="42.3299970" lon="1.7143300">
        <ele>1612.3</ele>
        <time>2015-08-13T12:14:42Z</time>
      </trkpt>
      <trkpt lat="42.3299470" lon="1.7142730">
        <ele>1613.1</ele>
        <time>2015-08-13T12:14:45Z</time>
      </trkpt>
      <trkpt lat="42.3299110" lon="1.7142520">
        <ele>1614.0</ele>
        <time>2015-08-13T12:14:49Z</time>
      </trkpt>
      <trkpt lat="42.3298740" lon="1.7142310">
        <ele>1614.9</ele>
        <time>2015-08-13T12:14:50Z</time>
      </trkpt>
      <trkpt lat="42.3298200" lon="1.7142220">
        <ele>1616.4</ele>
        <time>2015-08-13T12:14:52Z</time>
      </trkpt>
      <trkpt lat="42.3298000" lon="1.7141900">
        <ele>1616.6</ele>
        <time>2015-08-13T12:14:55Z</time>
      </trkpt>
      <trkpt lat="42.3297720" lon="1.7141920">
        <ele>1617.5</ele>
        <time>2015-08-13T12:14:58Z</time>
      </trkpt>
      <trkpt lat="42.3297650" lon="1.7141310">
        <ele>1616.8</ele>
        <time>2015-08-13T12:15:02Z</time>
      </trkpt>
      <trkpt lat="42.3297620" lon="1.7140920">
        <ele>1616.3</ele>
        <time>2015-08-13T12:15:07Z</time>
      </trkpt>
      <trkpt lat="42.3297350" lon="1.7140740">
        <ele>1616.8</ele>
        <time>2015-08-13T12:15:09Z</time>
      </trkpt>
      <trkpt lat="42.3297040" lon="1.7140810">
        <ele>1617.9</ele>
        <time>2015-08-13T12:15:11Z</time>
      </trkpt>
      <trkpt lat="42.3296990" lon="1.7140440">
        <ele>1617.5</ele>
        <time>2015-08-13T12:15:12Z</time>
      </trkpt>
      <trkpt lat="42.3296740" lon="1.7140240">
        <ele>1617.9</ele>
        <time>2015-08-13T12:15:14Z</time>
      </trkpt>
      <trkpt lat="42.3296530" lon="1.7139910">
        <ele>1618.0</ele>
        <time>2015-08-13T12:15:16Z</time>
      </trkpt>
      <trkpt lat="42.3296530" lon="1.7139400">
        <ele>1617.2</ele>
        <time>2015-08-13T12:15:21Z</time>
      </trkpt>
      <trkpt lat="42.3296390" lon="1.7139020">
        <ele>1616.9</ele>
        <time>2015-08-13T12:15:25Z</time>
      </trkpt>
      <trkpt lat="42.3296160" lon="1.7138750">
        <ele>1617.2</ele>
        <time>2015-08-13T12:15:27Z</time>
      </trkpt>
      <trkpt lat="42.3295890" lon="1.7138400">
        <ele>1617.4</ele>
        <time>2015-08-13T12:15:29Z</time>
      </trkpt>
      <trkpt lat="42.3295830" lon="1.7137980">
        <ele>1616.8</ele>
        <time>2015-08-13T12:15:30Z</time>
      </trkpt>
      <trkpt lat="42.3294800" lon="1.7137950">
        <ele>1619.6</ele>
        <time>2015-08-13T12:15:32Z</time>
      </trkpt>
      <trkpt lat="42.3294460" lon="1.7137840">
        <ele>1620.4</ele>
        <time>2015-08-13T12:15:34Z</time>
      </trkpt>
      <trkpt lat="42.3294260" lon="1.7137230">
        <ele>1620.0</ele>
        <time>2015-08-13T12:15:37Z</time>
      </trkpt>
      <trkpt lat="42.3294300" lon="1.7136730">
        <ele>1619.2</ele>
        <time>2015-08-13T12:15:40Z</time>
      </trkpt>
      <trkpt lat="42.3294060" lon="1.7136560">
        <ele>1619.7</ele>
        <time>2015-08-13T12:15:43Z</time>
      </trkpt>
      <trkpt lat="42.3294040" lon="1.7136180">
        <ele>1619.3</ele>
        <time>2015-08-13T12:15:48Z</time>
      </trkpt>
      <trkpt lat="42.3293500" lon="1.7135970">
        <ele>1620.5</ele>
        <time>2015-08-13T12:15:51Z</time>
      </trkpt>
      <trkpt lat="42.3293190" lon="1.7135830">
        <ele>1621.3</ele>
        <time>2015-08-13T12:15:53Z</time>
      </trkpt>
      <trkpt lat="42.3292910" lon="1.7135660">
        <ele>1621.9</ele>
        <time>2015-08-13T12:15:55Z</time>
      </trkpt>
      <trkpt lat="42.3292660" lon="1.7135420">
        <ele>1622.3</ele>
        <time>2015-08-13T12:15:57Z</time>
      </trkpt>
      <trkpt lat="42.3292210" lon="1.7135430">
        <ele>1623.7</ele>
        <time>2015-08-13T12:16:01Z</time>
      </trkpt>
      <trkpt lat="42.3291930" lon="1.7135300">
        <ele>1624.3</ele>
        <time>2015-08-13T12:16:08Z</time>
      </trkpt>
      <trkpt lat="42.3291630" lon="1.7135300">
        <ele>1625.2</ele>
        <time>2015-08-13T12:16:10Z</time>
      </trkpt>
      <trkpt lat="42.3291310" lon="1.7135110">
        <ele>1626.0</ele>
        <time>2015-08-13T12:16:17Z</time>
      </trkpt>
      <trkpt lat="42.3291500" lon="1.7134840">
        <ele>1625.1</ele>
        <time>2015-08-13T12:16:22Z</time>
      </trkpt>
      <trkpt lat="42.3291300" lon="1.7134490">
        <ele>1625.4</ele>
        <time>2015-08-13T12:16:26Z</time>
      </trkpt>
      <trkpt lat="42.3290980" lon="1.7134460">
        <ele>1626.3</ele>
        <time>2015-08-13T12:16:27Z</time>
      </trkpt>
      <trkpt lat="42.3290580" lon="1.7134340">
        <ele>1627.4</ele>
        <time>2015-08-13T12:16:29Z</time>
      </trkpt>
      <trkpt lat="42.3290250" lon="1.7134160">
        <ele>1628.2</ele>
        <time>2015-08-13T12:16:32Z</time>
      </trkpt>
      <trkpt lat="42.3289980" lon="1.7133740">
        <ele>1628.6</ele>
        <time>2015-08-13T12:16:34Z</time>
      </trkpt>
      <trkpt lat="42.3289750" lon="1.7133520">
        <ele>1629.2</ele>
        <time>2015-08-13T12:16:36Z</time>
      </trkpt>
      <trkpt lat="42.3289330" lon="1.7133600">
        <ele>1630.5</ele>
        <time>2015-08-13T12:16:38Z</time>
      </trkpt>
      <trkpt lat="42.3289050" lon="1.7133320">
        <ele>1631.2</ele>
        <time>2015-08-13T12:16:42Z</time>
      </trkpt>
      <trkpt lat="42.3288700" lon="1.7133200">
        <ele>1632.1</ele>
        <time>2015-08-13T12:16:45Z</time>
      </trkpt>
      <trkpt lat="42.3288390" lon="1.7132960">
        <ele>1632.9</ele>
        <time>2015-08-13T12:16:47Z</time>
      </trkpt>
      <trkpt lat="42.3288260" lon="1.7132550">
        <ele>1633.0</ele>
        <time>2015-08-13T12:16:50Z</time>
      </trkpt>
      <trkpt lat="42.3287990" lon="1.7132370">
        <ele>1633.7</ele>
        <time>2015-08-13T12:16:53Z</time>
      </trkpt>
      <trkpt lat="42.3288450" lon="1.7131700">
        <ele>1631.7</ele>
        <time>2015-08-13T12:16:57Z</time>
      </trkpt>
      <trkpt lat="42.3288360" lon="1.7131160">
        <ele>1631.6</ele>
        <time>2015-08-13T12:16:59Z</time>
      </trkpt>
      <trkpt lat="42.3288280" lon="1.7130780">
        <ele>1631.6</ele>
        <time>2015-08-13T12:17:02Z</time>
      </trkpt>
      <trkpt lat="42.3288040" lon="1.7130500">
        <ele>1632.1</ele>
        <time>2015-08-13T12:17:04Z</time>
      </trkpt>
      <trkpt lat="42.3287990" lon="1.7130030">
        <ele>1632.0</ele>
        <time>2015-08-13T12:17:11Z</time>
      </trkpt>
      <trkpt lat="42.3287680" lon="1.7129640">
        <ele>1632.7</ele>
        <time>2015-08-13T12:17:13Z</time>
      </trkpt>
      <trkpt lat="42.3287290" lon="1.7129440">
        <ele>1633.9</ele>
        <time>2015-08-13T12:17:16Z</time>
      </trkpt>
      <trkpt lat="42.3286980" lon="1.7129230">
        <ele>1634.8</ele>
        <time>2015-08-13T12:17:19Z</time>
      </trkpt>
      <trkpt lat="42.3286590" lon="1.7129230">
        <ele>1636.1</ele>
        <time>2015-08-13T12:17:23Z</time>
      </trkpt>
      <trkpt lat="42.3286280" lon="1.7128910">
        <ele>1636.8</ele>
        <time>2015-08-13T12:17:26Z</time>
      </trkpt>
      <trkpt lat="42.3285910" lon="1.7128650">
        <ele>1637.7</ele>
        <time>2015-08-13T12:17:29Z</time>
      </trkpt>
      <trkpt lat="42.3285430" lon="1.7128490">
        <ele>1639.2</ele>
        <time>2015-08-13T12:17:36Z</time>
      </trkpt>
      <trkpt lat="42.3285100" lon="1.7128310">
        <ele>1640.1</ele>
        <time>2015-08-13T12:17:39Z</time>
      </trkpt>
      <trkpt lat="42.3284830" lon="1.7128150">
        <ele>1640.8</ele>
        <time>2015-08-13T12:17:42Z</time>
      </trkpt>
      <trkpt lat="42.3284500" lon="1.7127760">
        <ele>1641.5</ele>
        <time>2015-08-13T12:17:47Z</time>
      </trkpt>
      <trkpt lat="42.3284200" lon="1.7127490">
        <ele>1642.2</ele>
        <time>2015-08-13T12:17:49Z</time>
      </trkpt>
      <trkpt lat="42.3283910" lon="1.7127270">
        <ele>1642.9</ele>
        <time>2015-08-13T12:17:51Z</time>
      </trkpt>
      <trkpt lat="42.3283430" lon="1.7127090">
        <ele>1644.3</ele>
        <time>2015-08-13T12:17:54Z</time>
      </trkpt>
      <trkpt lat="42.3283160" lon="1.7127110">
        <ele>1645.2</ele>
        <time>2015-08-13T12:17:56Z</time>
      </trkpt>
      <trkpt lat="42.3282940" lon="1.7126770">
        <ele>1645.6</ele>
        <time>2015-08-13T12:17:58Z</time>
      </trkpt>
      <trkpt lat="42.3282560" lon="1.7126600">
        <ele>1646.7</ele>
        <time>2015-08-13T12:18:01Z</time>
      </trkpt>
      <trkpt lat="42.3282280" lon="1.7126620">
        <ele>1647.7</ele>
        <time>2015-08-13T12:18:03Z</time>
      </trkpt>
      <trkpt lat="42.3282280" lon="1.7126180">
        <ele>1647.2</ele>
        <time>2015-08-13T12:18:04Z</time>
      </trkpt>
      <trkpt lat="42.3282240" lon="1.7125720">
        <ele>1646.8</ele>
        <time>2015-08-13T12:18:06Z</time>
      </trkpt>
      <trkpt lat="42.3281990" lon="1.7125470">
        <ele>1647.4</ele>
        <time>2015-08-13T12:18:08Z</time>
      </trkpt>
      <trkpt lat="42.3282040" lon="1.7124960">
        <ele>1646.6</ele>
        <time>2015-08-13T12:18:10Z</time>
      </trkpt>
      <trkpt lat="42.3282030" lon="1.7124430">
        <ele>1646.1</ele>
        <time>2015-08-13T12:18:12Z</time>
      </trkpt>
      <trkpt lat="42.3281820" lon="1.7123980">
        <ele>1646.3</ele>
        <time>2015-08-13T12:18:15Z</time>
      </trkpt>
      <trkpt lat="42.3281560" lon="1.7123640">
        <ele>1646.8</ele>
        <time>2015-08-13T12:18:18Z</time>
      </trkpt>
      <trkpt lat="42.3281600" lon="1.7123210">
        <ele>1646.2</ele>
        <time>2015-08-13T12:18:20Z</time>
      </trkpt>
      <trkpt lat="42.3281600" lon="1.7122800">
        <ele>1645.7</ele>
        <time>2015-08-13T12:18:22Z</time>
      </trkpt>
      <trkpt lat="42.3281580" lon="1.7122390">
        <ele>1645.3</ele>
        <time>2015-08-13T12:18:24Z</time>
      </trkpt>
      <trkpt lat="42.3281610" lon="1.7121990">
        <ele>1644.8</ele>
        <time>2015-08-13T12:18:26Z</time>
      </trkpt>
      <trkpt lat="42.3281700" lon="1.7121470">
        <ele>1643.9</ele>
        <time>2015-08-13T12:18:27Z</time>
      </trkpt>
      <trkpt lat="42.3281380" lon="1.7120980">
        <ele>1644.5</ele>
        <time>2015-08-13T12:18:29Z</time>
      </trkpt>
      <trkpt lat="42.3281430" lon="1.7120620">
        <ele>1644.0</ele>
        <time>2015-08-13T12:18:31Z</time>
      </trkpt>
      <trkpt lat="42.3281470" lon="1.7120220">
        <ele>1643.7</ele>
        <time>2015-08-13T12:18:33Z</time>
      </trkpt>
      <trkpt lat="42.3281450" lon="1.7119640">
        <ele>1643.5</ele>
        <time>2015-08-13T12:18:36Z</time>
      </trkpt>
      <trkpt lat="42.3281320" lon="1.7119160">
        <ele>1643.7</ele>
        <time>2015-08-13T12:18:40Z</time>
      </trkpt>
      <trkpt lat="42.3281110" lon="1.7118820">
        <ele>1644.3</ele>
        <time>2015-08-13T12:18:42Z</time>
      </trkpt>
      <trkpt lat="42.3280910" lon="1.7118540">
        <ele>1644.8</ele>
        <time>2015-08-13T12:18:46Z</time>
      </trkpt>
      <trkpt lat="42.3280640" lon="1.7118320">
        <ele>1645.7</ele>
        <time>2015-08-13T12:18:50Z</time>
      </trkpt>
      <trkpt lat="42.3280230" lon="1.7118500">
        <ele>1647.2</ele>
        <time>2015-08-13T12:18:56Z</time>
      </trkpt>
      <trkpt lat="42.3279950" lon="1.7118560">
        <ele>1648.2</ele>
        <time>2015-08-13T12:18:58Z</time>
      </trkpt>
      <trkpt lat="42.3279540" lon="1.7118600">
        <ele>1649.6</ele>
        <time>2015-08-13T12:19:00Z</time>
      </trkpt>
      <trkpt lat="42.3279160" lon="1.7118800">
        <ele>1651.1</ele>
        <time>2015-08-13T12:19:02Z</time>
      </trkpt>
      <trkpt lat="42.3278730" lon="1.7118930">
        <ele>1653.6</ele>
        <time>2015-08-13T12:19:04Z</time>
      </trkpt>
      <trkpt lat="42.3278390" lon="1.7119120">
        <ele>1655.7</ele>
        <time>2015-08-13T12:19:06Z</time>
      </trkpt>
      <trkpt lat="42.3278420" lon="1.7119510">
        <ele>1655.7</ele>
        <time>2015-08-13T12:19:10Z</time>
      </trkpt>
      <trkpt lat="42.3278500" lon="1.7119970">
        <ele>1655.5</ele>
        <time>2015-08-13T12:19:13Z</time>
      </trkpt>
      <trkpt lat="42.3278350" lon="1.7120430">
        <ele>1656.6</ele>
        <time>2015-08-13T12:19:18Z</time>
      </trkpt>
      <trkpt lat="42.3278110" lon="1.7120860">
        <ele>1658.2</ele>
        <time>2015-08-13T12:19:21Z</time>
      </trkpt>
      <trkpt lat="42.3277880" lon="1.7121210">
        <ele>1660.0</ele>
        <time>2015-08-13T12:19:23Z</time>
      </trkpt>
      <trkpt lat="42.3277600" lon="1.7121390">
        <ele>1661.8</ele>
        <time>2015-08-13T12:19:27Z</time>
      </trkpt>
      <trkpt lat="42.3277700" lon="1.7121860">
        <ele>1661.8</ele>
        <time>2015-08-13T12:19:33Z</time>
      </trkpt>
      <trkpt lat="42.3277420" lon="1.7122270">
        <ele>1663.9</ele>
        <time>2015-08-13T12:19:39Z</time>
      </trkpt>
      <trkpt lat="42.3277050" lon="1.7122400">
        <ele>1666.2</ele>
        <time>2015-08-13T12:19:42Z</time>
      </trkpt>
      <trkpt lat="42.3277100" lon="1.7122810">
        <ele>1666.4</ele>
        <time>2015-08-13T12:19:45Z</time>
      </trkpt>
      <trkpt lat="42.3277220" lon="1.7123240">
        <ele>1666.2</ele>
        <time>2015-08-13T12:19:50Z</time>
      </trkpt>
      <trkpt lat="42.3276750" lon="1.7123730">
        <ele>1669.5</ele>
        <time>2015-08-13T12:19:57Z</time>
      </trkpt>
      <trkpt lat="42.3276790" lon="1.7124130">
        <ele>1669.8</ele>
        <time>2015-08-13T12:19:59Z</time>
      </trkpt>
      <trkpt lat="42.3276920" lon="1.7124590">
        <ele>1669.5</ele>
        <time>2015-08-13T12:20:01Z</time>
      </trkpt>
      <trkpt lat="42.3276950" lon="1.7125030">
        <ele>1669.8</ele>
        <time>2015-08-13T12:20:06Z</time>
      </trkpt>
      <trkpt lat="42.3277040" lon="1.7125390">
        <ele>1669.7</ele>
        <time>2015-08-13T12:20:09Z</time>
      </trkpt>
      <trkpt lat="42.3276870" lon="1.7125740">
        <ele>1671.1</ele>
        <time>2015-08-13T12:20:12Z</time>
      </trkpt>
      <trkpt lat="42.3277060" lon="1.7126190">
        <ele>1670.5</ele>
        <time>2015-08-13T12:20:14Z</time>
      </trkpt>
      <trkpt lat="42.3277230" lon="1.7126550">
        <ele>1669.9</ele>
        <time>2015-08-13T12:20:18Z</time>
      </trkpt>
      <trkpt lat="42.3277340" lon="1.7126960">
        <ele>1669.7</ele>
        <time>2015-08-13T12:20:22Z</time>
      </trkpt>
      <trkpt lat="42.3277450" lon="1.7127440">
        <ele>1669.6</ele>
        <time>2015-08-13T12:20:26Z</time>
      </trkpt>
      <trkpt lat="42.3277280" lon="1.7127720">
        <ele>1670.9</ele>
        <time>2015-08-13T12:20:31Z</time>
      </trkpt>
      <trkpt lat="42.3277250" lon="1.7128090">
        <ele>1671.5</ele>
        <time>2015-08-13T12:20:33Z</time>
      </trkpt>
      <trkpt lat="42.3277440" lon="1.7128500">
        <ele>1670.8</ele>
        <time>2015-08-13T12:20:35Z</time>
      </trkpt>
      <trkpt lat="42.3277120" lon="1.7128670">
        <ele>1673.0</ele>
        <time>2015-08-13T12:20:38Z</time>
      </trkpt>
      <trkpt lat="42.3277170" lon="1.7129060">
        <ele>1673.1</ele>
        <time>2015-08-13T12:20:40Z</time>
      </trkpt>
      <trkpt lat="42.3276880" lon="1.7129250">
        <ele>1675.1</ele>
        <time>2015-08-13T12:20:41Z</time>
      </trkpt>
      <trkpt lat="42.3277280" lon="1.7129160">
        <ele>1672.5</ele>
        <time>2015-08-13T12:20:46Z</time>
      </trkpt>
      <trkpt lat="42.3277620" lon="1.7129030">
        <ele>1670.3</ele>
        <time>2015-08-13T12:22:29Z</time>
      </trkpt>
      <trkpt lat="42.3278110" lon="1.7128940">
        <ele>1667.2</ele>
        <time>2015-08-13T12:22:31Z</time>
      </trkpt>
      <trkpt lat="42.3278360" lon="1.7128820">
        <ele>1665.6</ele>
        <time>2015-08-13T12:22:33Z</time>
      </trkpt>
      <trkpt lat="42.3278540" lon="1.7129330">
        <ele>1665.1</ele>
        <time>2015-08-13T12:22:36Z</time>
      </trkpt>
      <trkpt lat="42.3278090" lon="1.7129740">
        <ele>1668.5</ele>
        <time>2015-08-13T12:22:38Z</time>
      </trkpt>
      <trkpt lat="42.3277820" lon="1.7129840">
        <ele>1670.3</ele>
        <time>2015-08-13T12:22:40Z</time>
      </trkpt>
      <trkpt lat="42.3278120" lon="1.7130220">
        <ele>1669.1</ele>
        <time>2015-08-13T12:27:03Z</time>
      </trkpt>
      <trkpt lat="42.3278410" lon="1.7130290">
        <ele>1667.5</ele>
        <time>2015-08-13T12:27:06Z</time>
      </trkpt>
      <trkpt lat="42.3278690" lon="1.7130270">
        <ele>1665.8</ele>
        <time>2015-08-13T12:27:10Z</time>
      </trkpt>
      <trkpt lat="42.3278450" lon="1.7130630">
        <ele>1667.8</ele>
        <time>2015-08-13T12:31:39Z</time>
      </trkpt>
      <trkpt lat="42.3278060" lon="1.7130780">
        <ele>1670.4</ele>
        <time>2015-08-13T12:31:41Z</time>
      </trkpt>
      <trkpt lat="42.3278380" lon="1.7131080">
        <ele>1669.0</ele>
        <time>2015-08-13T12:31:43Z</time>
      </trkpt>
      <trkpt lat="42.3278530" lon="1.7131500">
        <ele>1668.8</ele>
        <time>2015-08-13T12:31:45Z</time>
      </trkpt>
      <trkpt lat="42.3278510" lon="1.7131910">
        <ele>1669.6</ele>
        <time>2015-08-13T12:31:47Z</time>
      </trkpt>
      <trkpt lat="42.3278430" lon="1.7132410">
        <ele>1670.9</ele>
        <time>2015-08-13T12:31:49Z</time>
      </trkpt>
      <trkpt lat="42.3278310" lon="1.7132970">
        <ele>1672.5</ele>
        <time>2015-08-13T12:31:52Z</time>
      </trkpt>
      <trkpt lat="42.3278140" lon="1.7133250">
        <ele>1674.0</ele>
        <time>2015-08-13T12:31:53Z</time>
      </trkpt>
      <trkpt lat="42.3278030" lon="1.7133780">
        <ele>1675.6</ele>
        <time>2015-08-13T12:31:55Z</time>
      </trkpt>
      <trkpt lat="42.3277920" lon="1.7134180">
        <ele>1676.9</ele>
        <time>2015-08-13T12:31:56Z</time>
      </trkpt>
      <trkpt lat="42.3277810" lon="1.7134610">
        <ele>1678.2</ele>
        <time>2015-08-13T12:31:58Z</time>
      </trkpt>
      <trkpt lat="42.3278130" lon="1.7135130">
        <ele>1677.2</ele>
        <time>2015-08-13T12:32:00Z</time>
      </trkpt>
      <trkpt lat="42.3278280" lon="1.7135580">
        <ele>1677.0</ele>
        <time>2015-08-13T12:32:03Z</time>
      </trkpt>
      <trkpt lat="42.3278200" lon="1.7136030">
        <ele>1678.3</ele>
        <time>2015-08-13T12:32:07Z</time>
      </trkpt>
      <trkpt lat="42.3278070" lon="1.7136460">
        <ele>1679.7</ele>
        <time>2015-08-13T12:32:10Z</time>
      </trkpt>
      <trkpt lat="42.3278100" lon="1.7136860">
        <ele>1680.2</ele>
        <time>2015-08-13T12:32:13Z</time>
      </trkpt>
      <trkpt lat="42.3277680" lon="1.7136960">
        <ele>1682.9</ele>
        <time>2015-08-13T12:32:16Z</time>
      </trkpt>
      <trkpt lat="42.3277130" lon="1.7137160">
        <ele>1686.4</ele>
        <time>2015-08-13T12:32:20Z</time>
      </trkpt>
      <trkpt lat="42.3277370" lon="1.7137400">
        <ele>1685.4</ele>
        <time>2015-08-13T12:32:23Z</time>
      </trkpt>
      <trkpt lat="42.3277490" lon="1.7137900">
        <ele>1685.3</ele>
        <time>2015-08-13T12:32:28Z</time>
      </trkpt>
      <trkpt lat="42.3277850" lon="1.7137880">
        <ele>1683.2</ele>
        <time>2015-08-13T12:32:32Z</time>
      </trkpt>
      <trkpt lat="42.3278250" lon="1.7138140">
        <ele>1681.2</ele>
        <time>2015-08-13T12:32:37Z</time>
      </trkpt>
      <trkpt lat="42.3278530" lon="1.7138680">
        <ele>1680.2</ele>
        <time>2015-08-13T12:32:40Z</time>
      </trkpt>
      <trkpt lat="42.3278670" lon="1.7139070">
        <ele>1679.9</ele>
        <time>2015-08-13T12:32:41Z</time>
      </trkpt>
      <trkpt lat="42.3279050" lon="1.7139390">
        <ele>1678.2</ele>
        <time>2015-08-13T12:32:42Z</time>
      </trkpt>
      <trkpt lat="42.3279240" lon="1.7139700">
        <ele>1677.6</ele>
        <time>2015-08-13T12:32:43Z</time>
      </trkpt>
      <trkpt lat="42.3279600" lon="1.7140000">
        <ele>1676.5</ele>
        <time>2015-08-13T12:32:44Z</time>
      </trkpt>
      <trkpt lat="42.3279300" lon="1.7140800">
        <ele>1678.8</ele>
        <time>2015-08-13T12:32:45Z</time>
      </trkpt>
      <trkpt lat="42.3279130" lon="1.7141140">
        <ele>1680.0</ele>
        <time>2015-08-13T12:32:47Z</time>
      </trkpt>
      <trkpt lat="42.3279030" lon="1.7141500">
        <ele>1681.0</ele>
        <time>2015-08-13T12:32:49Z</time>
      </trkpt>
      <trkpt lat="42.3279070" lon="1.7142400">
        <ele>1682.0</ele>
        <time>2015-08-13T12:32:54Z</time>
      </trkpt>
      <trkpt lat="42.3279310" lon="1.7142910">
        <ele>1681.5</ele>
        <time>2015-08-13T12:32:55Z</time>
      </trkpt>
      <trkpt lat="42.3279990" lon="1.7143460">
        <ele>1679.5</ele>
        <time>2015-08-13T12:32:58Z</time>
      </trkpt>
      <trkpt lat="42.3280100" lon="1.7143890">
        <ele>1679.6</ele>
        <time>2015-08-13T12:33:01Z</time>
      </trkpt>
      <trkpt lat="42.3280580" lon="1.7143780">
        <ele>1677.4</ele>
        <time>2015-08-13T12:33:03Z</time>
      </trkpt>
      <trkpt lat="42.3280920" lon="1.7143990">
        <ele>1676.3</ele>
        <time>2015-08-13T12:33:05Z</time>
      </trkpt>
      <trkpt lat="42.3280590" lon="1.7144160">
        <ele>1677.9</ele>
        <time>2015-08-13T12:33:07Z</time>
      </trkpt>
      <trkpt lat="42.3280810" lon="1.7144500">
        <ele>1677.5</ele>
        <time>2015-08-13T12:33:10Z</time>
      </trkpt>
      <trkpt lat="42.3280760" lon="1.7144880">
        <ele>1678.2</ele>
        <time>2015-08-13T12:33:13Z</time>
      </trkpt>
      <trkpt lat="42.3280760" lon="1.7145430">
        <ele>1678.9</ele>
        <time>2015-08-13T12:33:17Z</time>
      </trkpt>
      <trkpt lat="42.3280520" lon="1.7145850">
        <ele>1680.5</ele>
        <time>2015-08-13T12:33:20Z</time>
      </trkpt>
      <trkpt lat="42.3280170" lon="1.7146220">
        <ele>1682.0</ele>
        <time>2015-08-13T12:33:23Z</time>
      </trkpt>
      <trkpt lat="42.3280180" lon="1.7146780">
        <ele>1682.2</ele>
        <time>2015-08-13T12:33:29Z</time>
      </trkpt>
      <trkpt lat="42.3279960" lon="1.7147160">
        <ele>1683.2</ele>
        <time>2015-08-13T12:33:30Z</time>
      </trkpt>
      <trkpt lat="42.3280440" lon="1.7147260">
        <ele>1681.3</ele>
        <time>2015-08-13T12:33:31Z</time>
      </trkpt>
      <trkpt lat="42.3280960" lon="1.7147730">
        <ele>1679.4</ele>
        <time>2015-08-13T12:33:35Z</time>
      </trkpt>
      <trkpt lat="42.3281000" lon="1.7148110">
        <ele>1679.4</ele>
        <time>2015-08-13T12:33:38Z</time>
      </trkpt>
      <trkpt lat="42.3280620" lon="1.7148490">
        <ele>1681.0</ele>
        <time>2015-08-13T12:33:41Z</time>
      </trkpt>
      <trkpt lat="42.3280140" lon="1.7148840">
        <ele>1683.0</ele>
        <time>2015-08-13T12:33:45Z</time>
      </trkpt>
      <trkpt lat="42.3280330" lon="1.7149340">
        <ele>1682.4</ele>
        <time>2015-08-13T12:33:46Z</time>
      </trkpt>
      <trkpt lat="42.3280050" lon="1.7149840">
        <ele>1683.7</ele>
        <time>2015-08-13T12:33:48Z</time>
      </trkpt>
      <trkpt lat="42.3280140" lon="1.7150220">
        <ele>1683.5</ele>
        <time>2015-08-13T12:33:50Z</time>
      </trkpt>
      <trkpt lat="42.3280260" lon="1.7150840">
        <ele>1683.2</ele>
        <time>2015-08-13T12:33:53Z</time>
      </trkpt>
      <trkpt lat="42.3280090" lon="1.7151170">
        <ele>1683.9</ele>
        <time>2015-08-13T12:33:56Z</time>
      </trkpt>
      <trkpt lat="42.3280540" lon="1.7151180">
        <ele>1682.3</ele>
        <time>2015-08-13T12:33:57Z</time>
      </trkpt>
      <trkpt lat="42.3280260" lon="1.7151420">
        <ele>1683.4</ele>
        <time>2015-08-13T12:33:58Z</time>
      </trkpt>
      <trkpt lat="42.3280130" lon="1.7151750">
        <ele>1684.0</ele>
        <time>2015-08-13T12:34:00Z</time>
      </trkpt>
      <trkpt lat="42.3280240" lon="1.7152270">
        <ele>1683.8</ele>
        <time>2015-08-13T12:34:02Z</time>
      </trkpt>
      <trkpt lat="42.3280300" lon="1.7152710">
        <ele>1683.7</ele>
        <time>2015-08-13T12:34:04Z</time>
      </trkpt>
      <trkpt lat="42.3280020" lon="1.7152910">
        <ele>1684.7</ele>
        <time>2015-08-13T12:34:05Z</time>
      </trkpt>
      <trkpt lat="42.3279790" lon="1.7153260">
        <ele>1685.6</ele>
        <time>2015-08-13T12:34:07Z</time>
      </trkpt>
      <trkpt lat="42.3279840" lon="1.7153770">
        <ele>1685.6</ele>
        <time>2015-08-13T12:34:09Z</time>
      </trkpt>
      <trkpt lat="42.3280180" lon="1.7154070">
        <ele>1684.6</ele>
        <time>2015-08-13T12:34:10Z</time>
      </trkpt>
      <trkpt lat="42.3280450" lon="1.7154620">
        <ele>1683.0</ele>
        <time>2015-08-13T12:34:12Z</time>
      </trkpt>
      <trkpt lat="42.3280770" lon="1.7154860">
        <ele>1681.6</ele>
        <time>2015-08-13T12:34:14Z</time>
      </trkpt>
      <trkpt lat="42.3280520" lon="1.7155220">
        <ele>1681.9</ele>
        <time>2015-08-13T12:34:16Z</time>
      </trkpt>
      <trkpt lat="42.3280670" lon="1.7155670">
        <ele>1680.8</ele>
        <time>2015-08-13T12:34:19Z</time>
      </trkpt>
      <trkpt lat="42.3280630" lon="1.7156130">
        <ele>1680.3</ele>
        <time>2015-08-13T12:34:21Z</time>
      </trkpt>
      <trkpt lat="42.3280360" lon="1.7155900">
        <ele>1681.4</ele>
        <time>2015-08-13T12:34:39Z</time>
      </trkpt>
      <trkpt lat="42.3280750" lon="1.7155800">
        <ele>1680.4</ele>
        <time>2015-08-13T12:34:41Z</time>
      </trkpt>
      <trkpt lat="42.3281140" lon="1.7156500">
        <ele>1678.2</ele>
        <time>2015-08-13T12:35:15Z</time>
      </trkpt>
      <trkpt lat="42.3281300" lon="1.7156670">
        <ele>1677.5</ele>
        <time>2015-08-13T12:35:16Z</time>
      </trkpt>
      <trkpt lat="42.3280710" lon="1.7157090">
        <ele>1678.7</ele>
        <time>2015-08-13T12:35:18Z</time>
      </trkpt>
      <trkpt lat="42.3280520" lon="1.7157570">
        <ele>1678.5</ele>
        <time>2015-08-13T12:35:21Z</time>
      </trkpt>
      <trkpt lat="42.3280580" lon="1.7158000">
        <ele>1677.7</ele>
        <time>2015-08-13T12:35:23Z</time>
      </trkpt>
      <trkpt lat="42.3280530" lon="1.7158540">
        <ele>1677.1</ele>
        <time>2015-08-13T12:35:25Z</time>
      </trkpt>
      <trkpt lat="42.3280610" lon="1.7159020">
        <ele>1676.2</ele>
        <time>2015-08-13T12:35:26Z</time>
      </trkpt>
      <trkpt lat="42.3280630" lon="1.7159690">
        <ele>1675.2</ele>
        <time>2015-08-13T12:35:28Z</time>
      </trkpt>
      <trkpt lat="42.3280600" lon="1.7160100">
        <ele>1674.7</ele>
        <time>2015-08-13T12:35:29Z</time>
      </trkpt>
      <trkpt lat="42.3280520" lon="1.7160510">
        <ele>1674.3</ele>
        <time>2015-08-13T12:35:30Z</time>
      </trkpt>
      <trkpt lat="42.3280260" lon="1.7161100">
        <ele>1674.0</ele>
        <time>2015-08-13T12:35:32Z</time>
      </trkpt>
      <trkpt lat="42.3280160" lon="1.7161580">
        <ele>1673.5</ele>
        <time>2015-08-13T12:35:34Z</time>
      </trkpt>
      <trkpt lat="42.3279720" lon="1.7161690">
        <ele>1674.2</ele>
        <time>2015-08-13T12:35:38Z</time>
      </trkpt>
      <trkpt lat="42.3279300" lon="1.7161900">
        <ele>1674.7</ele>
        <time>2015-08-13T12:35:39Z</time>
      </trkpt>
      <trkpt lat="42.3278960" lon="1.7161910">
        <ele>1675.3</ele>
        <time>2015-08-13T12:35:40Z</time>
      </trkpt>
      <trkpt lat="42.3278510" lon="1.7162050">
        <ele>1675.6</ele>
        <time>2015-08-13T12:35:41Z</time>
      </trkpt>
      <trkpt lat="42.3278110" lon="1.7162140">
        <ele>1676.0</ele>
        <time>2015-08-13T12:35:43Z</time>
      </trkpt>
      <trkpt lat="42.3277820" lon="1.7162150">
        <ele>1676.3</ele>
        <time>2015-08-13T12:35:48Z</time>
      </trkpt>
      <trkpt lat="42.3277500" lon="1.7161810">
        <ele>1677.5</ele>
        <time>2015-08-13T12:35:52Z</time>
      </trkpt>
      <trkpt lat="42.3277180" lon="1.7161610">
        <ele>1678.4</ele>
        <time>2015-08-13T12:35:53Z</time>
      </trkpt>
      <trkpt lat="42.3276900" lon="1.7161600">
        <ele>1678.8</ele>
        <time>2015-08-13T12:35:56Z</time>
      </trkpt>
      <trkpt lat="42.3276500" lon="1.7161260">
        <ele>1680.2</ele>
        <time>2015-08-13T12:35:58Z</time>
      </trkpt>
      <trkpt lat="42.3276280" lon="1.7161030">
        <ele>1681.1</ele>
        <time>2015-08-13T12:35:59Z</time>
      </trkpt>
      <trkpt lat="42.3275880" lon="1.7160950">
        <ele>1681.9</ele>
        <time>2015-08-13T12:36:01Z</time>
      </trkpt>
      <trkpt lat="42.3275470" lon="1.7160810">
        <ele>1683.0</ele>
        <time>2015-08-13T12:36:03Z</time>
      </trkpt>
      <trkpt lat="42.3275020" lon="1.7160640">
        <ele>1684.2</ele>
        <time>2015-08-13T12:36:05Z</time>
      </trkpt>
      <trkpt lat="42.3274420" lon="1.7160450">
        <ele>1685.8</ele>
        <time>2015-08-13T12:36:06Z</time>
      </trkpt>
      <trkpt lat="42.3274000" lon="1.7160350">
        <ele>1686.9</ele>
        <time>2015-08-13T12:36:07Z</time>
      </trkpt>
      <trkpt lat="42.3273490" lon="1.7160310">
        <ele>1687.9</ele>
        <time>2015-08-13T12:36:08Z</time>
      </trkpt>
      <trkpt lat="42.3273170" lon="1.7160370">
        <ele>1688.3</ele>
        <time>2015-08-13T12:36:09Z</time>
      </trkpt>
      <trkpt lat="42.3272850" lon="1.7160250">
        <ele>1689.2</ele>
        <time>2015-08-13T12:36:10Z</time>
      </trkpt>
      <trkpt lat="42.3272310" lon="1.7160430">
        <ele>1689.6</ele>
        <time>2015-08-13T12:36:12Z</time>
      </trkpt>
      <trkpt lat="42.3271990" lon="1.7160580">
        <ele>1689.6</ele>
        <time>2015-08-13T12:36:15Z</time>
      </trkpt>
      <trkpt lat="42.3271520" lon="1.7160600">
        <ele>1690.3</ele>
        <time>2015-08-13T12:36:17Z</time>
      </trkpt>
      <trkpt lat="42.3271060" lon="1.7160740">
        <ele>1690.6</ele>
        <time>2015-08-13T12:36:19Z</time>
      </trkpt>
      <trkpt lat="42.3270790" lon="1.7160710">
        <ele>1691.2</ele>
        <time>2015-08-13T12:36:20Z</time>
      </trkpt>
      <trkpt lat="42.3270470" lon="1.7160790">
        <ele>1692.0</ele>
        <time>2015-08-13T12:36:21Z</time>
      </trkpt>
      <trkpt lat="42.3270220" lon="1.7161000">
        <ele>1692.0</ele>
        <time>2015-08-13T12:36:22Z</time>
      </trkpt>
      <trkpt lat="42.3269860" lon="1.7161160">
        <ele>1692.6</ele>
        <time>2015-08-13T12:36:25Z</time>
      </trkpt>
      <trkpt lat="42.3269570" lon="1.7161320">
        <ele>1692.9</ele>
        <time>2015-08-13T12:36:27Z</time>
      </trkpt>
      <trkpt lat="42.3269280" lon="1.7161430">
        <ele>1693.4</ele>
        <time>2015-08-13T12:36:29Z</time>
      </trkpt>
      <trkpt lat="42.3268770" lon="1.7161550">
        <ele>1694.5</ele>
        <time>2015-08-13T12:36:32Z</time>
      </trkpt>
      <trkpt lat="42.3268260" lon="1.7161710">
        <ele>1695.5</ele>
        <time>2015-08-13T12:36:34Z</time>
      </trkpt>
      <trkpt lat="42.3267920" lon="1.7161810">
        <ele>1696.2</ele>
        <time>2015-08-13T12:36:35Z</time>
      </trkpt>
      <trkpt lat="42.3267330" lon="1.7161750">
        <ele>1698.4</ele>
        <time>2015-08-13T12:36:37Z</time>
      </trkpt>
      <trkpt lat="42.3267090" lon="1.7162220">
        <ele>1697.0</ele>
        <time>2015-08-13T12:36:40Z</time>
      </trkpt>
      <trkpt lat="42.3266750" lon="1.7162340">
        <ele>1697.5</ele>
        <time>2015-08-13T12:36:43Z</time>
      </trkpt>
      <trkpt lat="42.3266350" lon="1.7162360">
        <ele>1698.7</ele>
        <time>2015-08-13T12:36:52Z</time>
      </trkpt>
      <trkpt lat="42.3265880" lon="1.7162210">
        <ele>1700.9</ele>
        <time>2015-08-13T12:36:54Z</time>
      </trkpt>
      <trkpt lat="42.3265540" lon="1.7161960">
        <ele>1703.1</ele>
        <time>2015-08-13T12:36:56Z</time>
      </trkpt>
      <trkpt lat="42.3265110" lon="1.7162060">
        <ele>1704.0</ele>
        <time>2015-08-13T12:36:58Z</time>
      </trkpt>
      <trkpt lat="42.3264760" lon="1.7162340">
        <ele>1703.8</ele>
        <time>2015-08-13T12:37:00Z</time>
      </trkpt>
      <trkpt lat="42.3264430" lon="1.7162370">
        <ele>1704.6</ele>
        <time>2015-08-13T12:37:04Z</time>
      </trkpt>
      <trkpt lat="42.3264170" lon="1.7162430">
        <ele>1705.1</ele>
        <time>2015-08-13T12:37:05Z</time>
      </trkpt>
      <trkpt lat="42.3263820" lon="1.7162540">
        <ele>1705.7</ele>
        <time>2015-08-13T12:37:06Z</time>
      </trkpt>
      <trkpt lat="42.3263510" lon="1.7162840">
        <ele>1705.1</ele>
        <time>2015-08-13T12:37:08Z</time>
      </trkpt>
      <trkpt lat="42.3263160" lon="1.7163180">
        <ele>1704.3</ele>
        <time>2015-08-13T12:37:11Z</time>
      </trkpt>
      <trkpt lat="42.3262600" lon="1.7163300">
        <ele>1705.3</ele>
        <time>2015-08-13T12:37:14Z</time>
      </trkpt>
      <trkpt lat="42.3262110" lon="1.7163250">
        <ele>1707.0</ele>
        <time>2015-08-13T12:37:18Z</time>
      </trkpt>
      <trkpt lat="42.3261800" lon="1.7163240">
        <ele>1707.9</ele>
        <time>2015-08-13T12:37:20Z</time>
      </trkpt>
      <trkpt lat="42.3261260" lon="1.7163310">
        <ele>1709.1</ele>
        <time>2015-08-13T12:37:22Z</time>
      </trkpt>
      <trkpt lat="42.3260960" lon="1.7163560">
        <ele>1708.5</ele>
        <time>2015-08-13T12:37:26Z</time>
      </trkpt>
      <trkpt lat="42.3260660" lon="1.7163720">
        <ele>1708.5</ele>
        <time>2015-08-13T12:37:28Z</time>
      </trkpt>
      <trkpt lat="42.3260280" lon="1.7163890">
        <ele>1708.5</ele>
        <time>2015-08-13T12:37:34Z</time>
      </trkpt>
      <trkpt lat="42.3259980" lon="1.7163850">
        <ele>1709.6</ele>
        <time>2015-08-13T12:37:37Z</time>
      </trkpt>
      <trkpt lat="42.3259740" lon="1.7164170">
        <ele>1708.4</ele>
        <time>2015-08-13T12:37:40Z</time>
      </trkpt>
      <trkpt lat="42.3259470" lon="1.7164260">
        <ele>1708.6</ele>
        <time>2015-08-13T12:37:42Z</time>
      </trkpt>
      <trkpt lat="42.3259080" lon="1.7164140">
        <ele>1710.4</ele>
        <time>2015-08-13T12:37:44Z</time>
      </trkpt>
      <trkpt lat="42.3258700" lon="1.7163960">
        <ele>1712.5</ele>
        <time>2015-08-13T12:37:46Z</time>
      </trkpt>
      <trkpt lat="42.3258370" lon="1.7163910">
        <ele>1713.8</ele>
        <time>2015-08-13T12:37:50Z</time>
      </trkpt>
      <trkpt lat="42.3257980" lon="1.7163820">
        <ele>1715.4</ele>
        <time>2015-08-13T12:37:52Z</time>
      </trkpt>
      <trkpt lat="42.3257480" lon="1.7163720">
        <ele>1717.4</ele>
        <time>2015-08-13T12:37:55Z</time>
      </trkpt>
      <trkpt lat="42.3257000" lon="1.7163900">
        <ele>1717.7</ele>
        <time>2015-08-13T12:37:57Z</time>
      </trkpt>
      <trkpt lat="42.3256620" lon="1.7163780">
        <ele>1719.5</ele>
        <time>2015-08-13T12:37:59Z</time>
      </trkpt>
      <trkpt lat="42.3256260" lon="1.7163840">
        <ele>1720.1</ele>
        <time>2015-08-13T12:38:01Z</time>
      </trkpt>
      <trkpt lat="42.3255850" lon="1.7163790">
        <ele>1721.6</ele>
        <time>2015-08-13T12:38:03Z</time>
      </trkpt>
      <trkpt lat="42.3255510" lon="1.7163740">
        <ele>1722.9</ele>
        <time>2015-08-13T12:38:05Z</time>
      </trkpt>
      <trkpt lat="42.3255210" lon="1.7163840">
        <ele>1723.1</ele>
        <time>2015-08-13T12:38:07Z</time>
      </trkpt>
      <trkpt lat="42.3254910" lon="1.7163830">
        <ele>1724.0</ele>
        <time>2015-08-13T12:38:09Z</time>
      </trkpt>
      <trkpt lat="42.3254540" lon="1.7163770">
        <ele>1725.4</ele>
        <time>2015-08-13T12:38:13Z</time>
      </trkpt>
      <trkpt lat="42.3254100" lon="1.7163860">
        <ele>1725.9</ele>
        <time>2015-08-13T12:38:15Z</time>
      </trkpt>
      <trkpt lat="42.3253840" lon="1.7164060">
        <ele>1724.9</ele>
        <time>2015-08-13T12:38:17Z</time>
      </trkpt>
      <trkpt lat="42.3253440" lon="1.7164120">
        <ele>1724.9</ele>
        <time>2015-08-13T12:38:19Z</time>
      </trkpt>
      <trkpt lat="42.3253140" lon="1.7164230">
        <ele>1724.6</ele>
        <time>2015-08-13T12:38:21Z</time>
      </trkpt>
      <trkpt lat="42.3252760" lon="1.7164270">
        <ele>1724.8</ele>
        <time>2015-08-13T12:38:24Z</time>
      </trkpt>
      <trkpt lat="42.3252430" lon="1.7164290">
        <ele>1725.0</ele>
        <time>2015-08-13T12:38:27Z</time>
      </trkpt>
      <trkpt lat="42.3252140" lon="1.7164480">
        <ele>1724.1</ele>
        <time>2015-08-13T12:38:32Z</time>
      </trkpt>
      <trkpt lat="42.3251760" lon="1.7164500">
        <ele>1724.5</ele>
        <time>2015-08-13T12:38:35Z</time>
      </trkpt>
      <trkpt lat="42.3251370" lon="1.7164530">
        <ele>1724.8</ele>
        <time>2015-08-13T12:38:37Z</time>
      </trkpt>
      <trkpt lat="42.3251020" lon="1.7164710">
        <ele>1724.1</ele>
        <time>2015-08-13T12:38:39Z</time>
      </trkpt>
      <trkpt lat="42.3250760" lon="1.7164970">
        <ele>1722.8</ele>
        <time>2015-08-13T12:38:44Z</time>
      </trkpt>
      <trkpt lat="42.3250480" lon="1.7164990">
        <ele>1723.1</ele>
        <time>2015-08-13T12:38:46Z</time>
      </trkpt>
      <trkpt lat="42.3250150" lon="1.7165000">
        <ele>1723.5</ele>
        <time>2015-08-13T12:38:48Z</time>
      </trkpt>
      <trkpt lat="42.3249870" lon="1.7165120">
        <ele>1723.1</ele>
        <time>2015-08-13T12:38:51Z</time>
      </trkpt>
      <trkpt lat="42.3249590" lon="1.7165310">
        <ele>1722.4</ele>
        <time>2015-08-13T12:38:54Z</time>
      </trkpt>
      <trkpt lat="42.3249410" lon="1.7164960">
        <ele>1724.7</ele>
        <time>2015-08-13T12:38:57Z</time>
      </trkpt>
      <trkpt lat="42.3249100" lon="1.7165160">
        <ele>1723.9</ele>
        <time>2015-08-13T12:38:58Z</time>
      </trkpt>
      <trkpt lat="42.3248680" lon="1.7165110">
        <ele>1724.8</ele>
        <time>2015-08-13T12:39:00Z</time>
      </trkpt>
      <trkpt lat="42.3248300" lon="1.7164870">
        <ele>1726.6</ele>
        <time>2015-08-13T12:39:02Z</time>
      </trkpt>
      <trkpt lat="42.3248000" lon="1.7164800">
        <ele>1727.4</ele>
        <time>2015-08-13T12:39:08Z</time>
      </trkpt>
      <trkpt lat="42.3247860" lon="1.7165210">
        <ele>1725.3</ele>
        <time>2015-08-13T12:39:11Z</time>
      </trkpt>
      <trkpt lat="42.3247610" lon="1.7165390">
        <ele>1724.6</ele>
        <time>2015-08-13T12:39:16Z</time>
      </trkpt>
      <trkpt lat="42.3247230" lon="1.7165600">
        <ele>1724.0</ele>
        <time>2015-08-13T12:39:20Z</time>
      </trkpt>
      <trkpt lat="42.3246910" lon="1.7165510">
        <ele>1725.0</ele>
        <time>2015-08-13T12:39:22Z</time>
      </trkpt>
      <trkpt lat="42.3246570" lon="1.7165630">
        <ele>1724.8</ele>
        <time>2015-08-13T12:39:24Z</time>
      </trkpt>
      <trkpt lat="42.3246210" lon="1.7165700">
        <ele>1724.9</ele>
        <time>2015-08-13T12:39:27Z</time>
      </trkpt>
      <trkpt lat="42.3245830" lon="1.7165800">
        <ele>1725.0</ele>
        <time>2015-08-13T12:39:30Z</time>
      </trkpt>
      <trkpt lat="42.3245510" lon="1.7165810">
        <ele>1725.6</ele>
        <time>2015-08-13T12:39:32Z</time>
      </trkpt>
      <trkpt lat="42.3245200" lon="1.7165800">
        <ele>1726.4</ele>
        <time>2015-08-13T12:39:34Z</time>
      </trkpt>
      <trkpt lat="42.3244870" lon="1.7165670">
        <ele>1727.7</ele>
        <time>2015-08-13T12:39:37Z</time>
      </trkpt>
      <trkpt lat="42.3244530" lon="1.7165680">
        <ele>1728.4</ele>
        <time>2015-08-13T12:39:40Z</time>
      </trkpt>
      <trkpt lat="42.3244400" lon="1.7166120">
        <ele>1726.5</ele>
        <time>2015-08-13T12:39:42Z</time>
      </trkpt>
      <trkpt lat="42.3243990" lon="1.7166110">
        <ele>1727.5</ele>
        <time>2015-08-13T12:39:45Z</time>
      </trkpt>
      <trkpt lat="42.3243620" lon="1.7166040">
        <ele>1728.7</ele>
        <time>2015-08-13T12:39:47Z</time>
      </trkpt>
      <trkpt lat="42.3243340" lon="1.7166270">
        <ele>1728.2</ele>
        <time>2015-08-13T12:39:55Z</time>
      </trkpt>
      <trkpt lat="42.3243000" lon="1.7166040">
        <ele>1730.0</ele>
        <time>2015-08-13T12:39:59Z</time>
      </trkpt>
      <trkpt lat="42.3242690" lon="1.7166280">
        <ele>1729.6</ele>
        <time>2015-08-13T12:40:02Z</time>
      </trkpt>
      <trkpt lat="42.3242290" lon="1.7166390">
        <ele>1730.0</ele>
        <time>2015-08-13T12:40:05Z</time>
      </trkpt>
      <trkpt lat="42.3241980" lon="1.7166560">
        <ele>1730.0</ele>
        <time>2015-08-13T12:40:07Z</time>
      </trkpt>
      <trkpt lat="42.3241300" lon="1.7166760">
        <ele>1730.7</ele>
        <time>2015-08-13T12:40:10Z</time>
      </trkpt>
      <trkpt lat="42.3241020" lon="1.7167000">
        <ele>1730.3</ele>
        <time>2015-08-13T12:40:13Z</time>
      </trkpt>
      <trkpt lat="42.3240650" lon="1.7166870">
        <ele>1731.8</ele>
        <time>2015-08-13T12:40:16Z</time>
      </trkpt>
      <trkpt lat="42.3240310" lon="1.7166940">
        <ele>1732.3</ele>
        <time>2015-08-13T12:40:17Z</time>
      </trkpt>
      <trkpt lat="42.3239850" lon="1.7167050">
        <ele>1733.0</ele>
        <time>2015-08-13T12:40:19Z</time>
      </trkpt>
      <trkpt lat="42.3239430" lon="1.7166960">
        <ele>1734.3</ele>
        <time>2015-08-13T12:40:22Z</time>
      </trkpt>
      <trkpt lat="42.3239160" lon="1.7166560">
        <ele>1736.5</ele>
        <time>2015-08-13T12:40:26Z</time>
      </trkpt>
      <trkpt lat="42.3238900" lon="1.7166470">
        <ele>1737.5</ele>
        <time>2015-08-13T12:40:27Z</time>
      </trkpt>
      <trkpt lat="42.3238580" lon="1.7166680">
        <ele>1737.4</ele>
        <time>2015-08-13T12:40:30Z</time>
      </trkpt>
      <trkpt lat="42.3238260" lon="1.7166370">
        <ele>1739.3</ele>
        <time>2015-08-13T12:40:32Z</time>
      </trkpt>
      <trkpt lat="42.3237990" lon="1.7166130">
        <ele>1740.8</ele>
        <time>2015-08-13T12:40:34Z</time>
      </trkpt>
      <trkpt lat="42.3237650" lon="1.7166430">
        <ele>1740.5</ele>
        <time>2015-08-13T12:40:40Z</time>
      </trkpt>
      <trkpt lat="42.3236780" lon="1.7166690">
        <ele>1742.8</ele>
        <time>2015-08-13T12:40:42Z</time>
      </trkpt>
      <trkpt lat="42.3236480" lon="1.7166720">
        <ele>1743.9</ele>
        <time>2015-08-13T12:40:44Z</time>
      </trkpt>
      <trkpt lat="42.3236150" lon="1.7166880">
        <ele>1744.6</ele>
        <time>2015-08-13T12:40:46Z</time>
      </trkpt>
      <trkpt lat="42.3235850" lon="1.7167120">
        <ele>1744.9</ele>
        <time>2015-08-13T12:40:48Z</time>
      </trkpt>
      <trkpt lat="42.3235630" lon="1.7167580">
        <ele>1744.1</ele>
        <time>2015-08-13T12:40:50Z</time>
      </trkpt>
      <trkpt lat="42.3235740" lon="1.7168050">
        <ele>1741.9</ele>
        <time>2015-08-13T12:40:52Z</time>
      </trkpt>
      <trkpt lat="42.3235490" lon="1.7168350">
        <ele>1741.8</ele>
        <time>2015-08-13T12:40:55Z</time>
      </trkpt>
      <trkpt lat="42.3235180" lon="1.7168320">
        <ele>1743.1</ele>
        <time>2015-08-13T12:40:58Z</time>
      </trkpt>
      <trkpt lat="42.3235010" lon="1.7168780">
        <ele>1742.0</ele>
        <time>2015-08-13T12:41:01Z</time>
      </trkpt>
      <trkpt lat="42.3234880" lon="1.7169100">
        <ele>1741.3</ele>
        <time>2015-08-13T12:41:04Z</time>
      </trkpt>
      <trkpt lat="42.3234590" lon="1.7169420">
        <ele>1741.2</ele>
        <time>2015-08-13T12:41:11Z</time>
      </trkpt>
      <trkpt lat="42.3234460" lon="1.7169810">
        <ele>1740.2</ele>
        <time>2015-08-13T12:41:13Z</time>
      </trkpt>
      <trkpt lat="42.3234260" lon="1.7170170">
        <ele>1739.6</ele>
        <time>2015-08-13T12:41:15Z</time>
      </trkpt>
      <trkpt lat="42.3234120" lon="1.7170530">
        <ele>1738.7</ele>
        <time>2015-08-13T12:41:18Z</time>
      </trkpt>
      <trkpt lat="42.3233980" lon="1.7170990">
        <ele>1737.6</ele>
        <time>2015-08-13T12:41:20Z</time>
      </trkpt>
      <trkpt lat="42.3233550" lon="1.7171180">
        <ele>1738.7</ele>
        <time>2015-08-13T12:41:21Z</time>
      </trkpt>
      <trkpt lat="42.3233240" lon="1.7171360">
        <ele>1739.3</ele>
        <time>2015-08-13T12:41:22Z</time>
      </trkpt>
      <trkpt lat="42.3232910" lon="1.7171480">
        <ele>1740.2</ele>
        <time>2015-08-13T12:41:23Z</time>
      </trkpt>
      <trkpt lat="42.3233310" lon="1.7171730">
        <ele>1738.0</ele>
        <time>2015-08-13T12:41:24Z</time>
      </trkpt>
      <trkpt lat="42.3233000" lon="1.7172040">
        <ele>1738.3</ele>
        <time>2015-08-13T12:41:27Z</time>
      </trkpt>
      <trkpt lat="42.3232740" lon="1.7172120">
        <ele>1739.1</ele>
        <time>2015-08-13T12:41:29Z</time>
      </trkpt>
      <trkpt lat="42.3232390" lon="1.7172120">
        <ele>1740.4</ele>
        <time>2015-08-13T12:41:32Z</time>
      </trkpt>
      <trkpt lat="42.3232080" lon="1.7172270">
        <ele>1741.2</ele>
        <time>2015-08-13T12:41:34Z</time>
      </trkpt>
      <trkpt lat="42.3231810" lon="1.7172130">
        <ele>1742.6</ele>
        <time>2015-08-13T12:41:37Z</time>
      </trkpt>
      <trkpt lat="42.3231540" lon="1.7172520">
        <ele>1742.6</ele>
        <time>2015-08-13T12:41:39Z</time>
      </trkpt>
      <trkpt lat="42.3231570" lon="1.7173130">
        <ele>1740.8</ele>
        <time>2015-08-13T12:41:42Z</time>
      </trkpt>
      <trkpt lat="42.3231520" lon="1.7173550">
        <ele>1739.8</ele>
        <time>2015-08-13T12:41:44Z</time>
      </trkpt>
      <trkpt lat="42.3231240" lon="1.7173940">
        <ele>1739.9</ele>
        <time>2015-08-13T12:41:46Z</time>
      </trkpt>
      <trkpt lat="42.3230790" lon="1.7174140">
        <ele>1741.2</ele>
        <time>2015-08-13T12:41:49Z</time>
      </trkpt>
      <trkpt lat="42.3230370" lon="1.7174060">
        <ele>1743.1</ele>
        <time>2015-08-13T12:41:51Z</time>
      </trkpt>
      <trkpt lat="42.3229980" lon="1.7173740">
        <ele>1745.4</ele>
        <time>2015-08-13T12:41:53Z</time>
      </trkpt>
      <trkpt lat="42.3229690" lon="1.7174190">
        <ele>1745.4</ele>
        <time>2015-08-13T12:41:56Z</time>
      </trkpt>
      <trkpt lat="42.3229450" lon="1.7174470">
        <ele>1745.7</ele>
        <time>2015-08-13T12:42:02Z</time>
      </trkpt>
      <trkpt lat="42.3228970" lon="1.7174520">
        <ele>1748.0</ele>
        <time>2015-08-13T12:42:04Z</time>
      </trkpt>
      <trkpt lat="42.3228680" lon="1.7174270">
        <ele>1750.5</ele>
        <time>2015-08-13T12:42:05Z</time>
      </trkpt>
      <trkpt lat="42.3228330" lon="1.7174460">
        <ele>1752.3</ele>
        <time>2015-08-13T12:42:06Z</time>
      </trkpt>
      <trkpt lat="42.3228070" lon="1.7174610">
        <ele>1753.6</ele>
        <time>2015-08-13T12:42:07Z</time>
      </trkpt>
      <trkpt lat="42.3227800" lon="1.7174780">
        <ele>1754.9</ele>
        <time>2015-08-13T12:42:08Z</time>
      </trkpt>
      <trkpt lat="42.3227510" lon="1.7174960">
        <ele>1756.3</ele>
        <time>2015-08-13T12:42:10Z</time>
      </trkpt>
      <trkpt lat="42.3227210" lon="1.7174580">
        <ele>1759.2</ele>
        <time>2015-08-13T12:42:13Z</time>
      </trkpt>
      <trkpt lat="42.3227260" lon="1.7175070">
        <ele>1757.7</ele>
        <time>2015-08-13T12:42:16Z</time>
      </trkpt>
      <trkpt lat="42.3227210" lon="1.7175530">
        <ele>1756.9</ele>
        <time>2015-08-13T12:42:23Z</time>
      </trkpt>
      <trkpt lat="42.3226900" lon="1.7176020">
        <ele>1757.7</ele>
        <time>2015-08-13T12:42:28Z</time>
      </trkpt>
      <trkpt lat="42.3226660" lon="1.7176260">
        <ele>1758.7</ele>
        <time>2015-08-13T12:42:30Z</time>
      </trkpt>
      <trkpt lat="42.3226360" lon="1.7176500">
        <ele>1760.0</ele>
        <time>2015-08-13T12:42:32Z</time>
      </trkpt>
      <trkpt lat="42.3226120" lon="1.7176880">
        <ele>1760.7</ele>
        <time>2015-08-13T12:42:34Z</time>
      </trkpt>
      <trkpt lat="42.3225870" lon="1.7177220">
        <ele>1761.5</ele>
        <time>2015-08-13T12:42:39Z</time>
      </trkpt>
      <trkpt lat="42.3225630" lon="1.7177510">
        <ele>1762.3</ele>
        <time>2015-08-13T12:42:42Z</time>
      </trkpt>
      <trkpt lat="42.3225370" lon="1.7177760">
        <ele>1763.4</ele>
        <time>2015-08-13T12:42:48Z</time>
      </trkpt>
      <trkpt lat="42.3225200" lon="1.7178140">
        <ele>1763.6</ele>
        <time>2015-08-13T12:42:50Z</time>
      </trkpt>
      <trkpt lat="42.3225130" lon="1.7178550">
        <ele>1763.1</ele>
        <time>2015-08-13T12:42:55Z</time>
      </trkpt>
      <trkpt lat="42.3224880" lon="1.7178780">
        <ele>1764.2</ele>
        <time>2015-08-13T12:42:56Z</time>
      </trkpt>
      <trkpt lat="42.3224680" lon="1.7179060">
        <ele>1764.9</ele>
        <time>2015-08-13T12:43:05Z</time>
      </trkpt>
      <trkpt lat="42.3224550" lon="1.7179460">
        <ele>1764.5</ele>
        <time>2015-08-13T12:43:10Z</time>
      </trkpt>
      <trkpt lat="42.3224460" lon="1.7179100">
        <ele>1766.2</ele>
        <time>2015-08-13T12:43:14Z</time>
      </trkpt>
      <trkpt lat="42.3224260" lon="1.7179500">
        <ele>1766.3</ele>
        <time>2015-08-13T12:43:17Z</time>
      </trkpt>
      <trkpt lat="42.3224150" lon="1.7179890">
        <ele>1765.7</ele>
        <time>2015-08-13T12:43:19Z</time>
      </trkpt>
      <trkpt lat="42.3223870" lon="1.7179840">
        <ele>1767.6</ele>
        <time>2015-08-13T12:43:20Z</time>
      </trkpt>
      <trkpt lat="42.3223820" lon="1.7180590">
        <ele>1765.4</ele>
        <time>2015-08-13T12:43:23Z</time>
      </trkpt>
      <trkpt lat="42.3223500" lon="1.7180820">
        <ele>1766.5</ele>
        <time>2015-08-13T12:43:25Z</time>
      </trkpt>
      <trkpt lat="42.3223260" lon="1.7181210">
        <ele>1766.6</ele>
        <time>2015-08-13T12:43:29Z</time>
      </trkpt>
      <trkpt lat="42.3223100" lon="1.7180830">
        <ele>1768.9</ele>
        <time>2015-08-13T12:43:35Z</time>
      </trkpt>
      <trkpt lat="42.3223020" lon="1.7181240">
        <ele>1767.9</ele>
        <time>2015-08-13T12:43:38Z</time>
      </trkpt>
      <trkpt lat="42.3222960" lon="1.7181610">
        <ele>1766.9</ele>
        <time>2015-08-13T12:43:41Z</time>
      </trkpt>
      <trkpt lat="42.3222740" lon="1.7182010">
        <ele>1766.7</ele>
        <time>2015-08-13T12:43:45Z</time>
      </trkpt>
      <trkpt lat="42.3222790" lon="1.7182450">
        <ele>1764.8</ele>
        <time>2015-08-13T12:43:49Z</time>
      </trkpt>
      <trkpt lat="42.3222690" lon="1.7182880">
        <ele>1763.7</ele>
        <time>2015-08-13T12:43:52Z</time>
      </trkpt>
      <trkpt lat="42.3222330" lon="1.7183020">
        <ele>1765.1</ele>
        <time>2015-08-13T12:43:53Z</time>
      </trkpt>
      <trkpt lat="42.3222170" lon="1.7183320">
        <ele>1764.8</ele>
        <time>2015-08-13T12:43:55Z</time>
      </trkpt>
      <trkpt lat="42.3221730" lon="1.7183770">
        <ele>1765.4</ele>
        <time>2015-08-13T12:43:59Z</time>
      </trkpt>
      <trkpt lat="42.3221360" lon="1.7184130">
        <ele>1765.8</ele>
        <time>2015-08-13T12:44:01Z</time>
      </trkpt>
      <trkpt lat="42.3221210" lon="1.7184560">
        <ele>1764.8</ele>
        <time>2015-08-13T12:44:05Z</time>
      </trkpt>
      <trkpt lat="42.3220910" lon="1.7184760">
        <ele>1765.5</ele>
        <time>2015-08-13T12:44:09Z</time>
      </trkpt>
      <trkpt lat="42.3220670" lon="1.7185170">
        <ele>1764.6</ele>
        <time>2015-08-13T12:44:13Z</time>
      </trkpt>
      <trkpt lat="42.3220400" lon="1.7185420">
        <ele>1764.5</ele>
        <time>2015-08-13T12:44:18Z</time>
      </trkpt>
      <trkpt lat="42.3220210" lon="1.7185730">
        <ele>1763.7</ele>
        <time>2015-08-13T12:44:20Z</time>
      </trkpt>
      <trkpt lat="42.3219960" lon="1.7185850">
        <ele>1764.0</ele>
        <time>2015-08-13T12:44:23Z</time>
      </trkpt>
      <trkpt lat="42.3219720" lon="1.7185460">
        <ele>1766.6</ele>
        <time>2015-08-13T12:44:27Z</time>
      </trkpt>
      <trkpt lat="42.3219360" lon="1.7185330">
        <ele>1768.4</ele>
        <time>2015-08-13T12:44:30Z</time>
      </trkpt>
      <trkpt lat="42.3219180" lon="1.7186060">
        <ele>1765.7</ele>
        <time>2015-08-13T12:44:34Z</time>
      </trkpt>
      <trkpt lat="42.3218990" lon="1.7186450">
        <ele>1764.5</ele>
        <time>2015-08-13T12:44:37Z</time>
      </trkpt>
      <trkpt lat="42.3218630" lon="1.7186160">
        <ele>1767.0</ele>
        <time>2015-08-13T12:44:39Z</time>
      </trkpt>
      <trkpt lat="42.3218590" lon="1.7186570">
        <ele>1765.3</ele>
        <time>2015-08-13T12:44:44Z</time>
      </trkpt>
      <trkpt lat="42.3218210" lon="1.7186620">
        <ele>1766.3</ele>
        <time>2015-08-13T12:44:49Z</time>
      </trkpt>
      <trkpt lat="42.3218130" lon="1.7187000">
        <ele>1764.8</ele>
        <time>2015-08-13T12:44:52Z</time>
      </trkpt>
      <trkpt lat="42.3217860" lon="1.7186840">
        <ele>1766.4</ele>
        <time>2015-08-13T12:44:59Z</time>
      </trkpt>
      <trkpt lat="42.3217530" lon="1.7186760">
        <ele>1767.8</ele>
        <time>2015-08-13T12:45:02Z</time>
      </trkpt>
      <trkpt lat="42.3216910" lon="1.7186840">
        <ele>1769.4</ele>
        <time>2015-08-13T12:45:05Z</time>
      </trkpt>
      <trkpt lat="42.3216540" lon="1.7186840">
        <ele>1770.6</ele>
        <time>2015-08-13T12:45:07Z</time>
      </trkpt>
      <trkpt lat="42.3216020" lon="1.7187010">
        <ele>1771.4</ele>
        <time>2015-08-13T12:45:09Z</time>
      </trkpt>
      <trkpt lat="42.3215880" lon="1.7187380">
        <ele>1770.0</ele>
        <time>2015-08-13T12:45:12Z</time>
      </trkpt>
      <trkpt lat="42.3215620" lon="1.7187530">
        <ele>1770.1</ele>
        <time>2015-08-13T12:45:14Z</time>
      </trkpt>
      <trkpt lat="42.3215380" lon="1.7187340">
        <ele>1771.8</ele>
        <time>2015-08-13T12:45:17Z</time>
      </trkpt>
      <trkpt lat="42.3215100" lon="1.7186970">
        <ele>1774.6</ele>
        <time>2015-08-13T12:45:20Z</time>
      </trkpt>
      <trkpt lat="42.3214830" lon="1.7187040">
        <ele>1775.1</ele>
        <time>2015-08-13T12:45:23Z</time>
      </trkpt>
      <trkpt lat="42.3214520" lon="1.7186860">
        <ele>1777.0</ele>
        <time>2015-08-13T12:45:25Z</time>
      </trkpt>
      <trkpt lat="42.3214230" lon="1.7186910">
        <ele>1777.7</ele>
        <time>2015-08-13T12:45:27Z</time>
      </trkpt>
      <trkpt lat="42.3214080" lon="1.7186550">
        <ele>1780.0</ele>
        <time>2015-08-13T12:45:28Z</time>
      </trkpt>
      <trkpt lat="42.3213860" lon="1.7186100">
        <ele>1783.1</ele>
        <time>2015-08-13T12:45:30Z</time>
      </trkpt>
      <trkpt lat="42.3213580" lon="1.7185950">
        <ele>1784.8</ele>
        <time>2015-08-13T12:45:33Z</time>
      </trkpt>
      <trkpt lat="42.3213280" lon="1.7185840">
        <ele>1786.4</ele>
        <time>2015-08-13T12:45:36Z</time>
      </trkpt>
      <trkpt lat="42.3212980" lon="1.7186030">
        <ele>1786.3</ele>
        <time>2015-08-13T12:45:42Z</time>
      </trkpt>
      <trkpt lat="42.3212700" lon="1.7185990">
        <ele>1787.5</ele>
        <time>2015-08-13T12:45:45Z</time>
      </trkpt>
      <trkpt lat="42.3212340" lon="1.7186020">
        <ele>1788.5</ele>
        <time>2015-08-13T12:45:48Z</time>
      </trkpt>
      <trkpt lat="42.3212050" lon="1.7186140">
        <ele>1788.9</ele>
        <time>2015-08-13T12:45:52Z</time>
      </trkpt>
      <trkpt lat="42.3211780" lon="1.7185820">
        <ele>1791.6</ele>
        <time>2015-08-13T12:45:54Z</time>
      </trkpt>
      <trkpt lat="42.3211380" lon="1.7185920">
        <ele>1792.4</ele>
        <time>2015-08-13T12:45:58Z</time>
      </trkpt>
      <trkpt lat="42.3211150" lon="1.7186150">
        <ele>1792.0</ele>
        <time>2015-08-13T12:46:01Z</time>
      </trkpt>
      <trkpt lat="42.3210860" lon="1.7186340">
        <ele>1792.1</ele>
        <time>2015-08-13T12:46:03Z</time>
      </trkpt>
      <trkpt lat="42.3210550" lon="1.7186370">
        <ele>1793.0</ele>
        <time>2015-08-13T12:46:06Z</time>
      </trkpt>
      <trkpt lat="42.3210390" lon="1.7186050">
        <ele>1795.2</ele>
        <time>2015-08-13T12:46:11Z</time>
      </trkpt>
      <trkpt lat="42.3210000" lon="1.7186130">
        <ele>1796.2</ele>
        <time>2015-08-13T12:46:14Z</time>
      </trkpt>
      <trkpt lat="42.3209700" lon="1.7186260">
        <ele>1796.6</ele>
        <time>2015-08-13T12:46:16Z</time>
      </trkpt>
      <trkpt lat="42.3209330" lon="1.7186470">
        <ele>1796.8</ele>
        <time>2015-08-13T12:46:19Z</time>
      </trkpt>
      <trkpt lat="42.3208970" lon="1.7186590">
        <ele>1797.5</ele>
        <time>2015-08-13T12:46:21Z</time>
      </trkpt>
      <trkpt lat="42.3208670" lon="1.7186730">
        <ele>1797.9</ele>
        <time>2015-08-13T12:46:23Z</time>
      </trkpt>
      <trkpt lat="42.3208530" lon="1.7186350">
        <ele>1800.3</ele>
        <time>2015-08-13T12:46:25Z</time>
      </trkpt>
      <trkpt lat="42.3208230" lon="1.7186350">
        <ele>1801.3</ele>
        <time>2015-08-13T12:46:28Z</time>
      </trkpt>
      <trkpt lat="42.3207950" lon="1.7186250">
        <ele>1802.8</ele>
        <time>2015-08-13T12:46:32Z</time>
      </trkpt>
      <trkpt lat="42.3207670" lon="1.7185960">
        <ele>1805.1</ele>
        <time>2015-08-13T12:46:35Z</time>
      </trkpt>
      <trkpt lat="42.3207350" lon="1.7186050">
        <ele>1805.8</ele>
        <time>2015-08-13T12:46:40Z</time>
      </trkpt>
      <trkpt lat="42.3207130" lon="1.7186330">
        <ele>1805.3</ele>
        <time>2015-08-13T12:46:45Z</time>
      </trkpt>
      <trkpt lat="42.3206770" lon="1.7186580">
        <ele>1805.4</ele>
        <time>2015-08-13T12:46:48Z</time>
      </trkpt>
      <trkpt lat="42.3206470" lon="1.7186680">
        <ele>1806.1</ele>
        <time>2015-08-13T12:46:50Z</time>
      </trkpt>
      <trkpt lat="42.3206180" lon="1.7186280">
        <ele>1808.9</ele>
        <time>2015-08-13T12:46:52Z</time>
      </trkpt>
      <trkpt lat="42.3205830" lon="1.7186060">
        <ele>1811.1</ele>
        <time>2015-08-13T12:46:55Z</time>
      </trkpt>
      <trkpt lat="42.3205570" lon="1.7185860">
        <ele>1812.8</ele>
        <time>2015-08-13T12:46:57Z</time>
      </trkpt>
      <trkpt lat="42.3205280" lon="1.7185990">
        <ele>1813.3</ele>
        <time>2015-08-13T12:46:59Z</time>
      </trkpt>
      <trkpt lat="42.3204900" lon="1.7186120">
        <ele>1814.1</ele>
        <time>2015-08-13T12:47:02Z</time>
      </trkpt>
      <trkpt lat="42.3204630" lon="1.7186480">
        <ele>1813.5</ele>
        <time>2015-08-13T12:47:06Z</time>
      </trkpt>
      <trkpt lat="42.3204580" lon="1.7186840">
        <ele>1812.2</ele>
        <time>2015-08-13T12:48:19Z</time>
      </trkpt>
      <trkpt lat="42.3204390" lon="1.7187130">
        <ele>1811.7</ele>
        <time>2015-08-13T12:52:11Z</time>
      </trkpt>
      <trkpt lat="42.3204120" lon="1.7187420">
        <ele>1811.6</ele>
        <time>2015-08-13T12:52:14Z</time>
      </trkpt>
      <trkpt lat="42.3203920" lon="1.7187750">
        <ele>1811.6</ele>
        <time>2015-08-13T12:52:19Z</time>
      </trkpt>
      <trkpt lat="42.3203870" lon="1.7188160">
        <ele>1810.8</ele>
        <time>2015-08-13T12:52:22Z</time>
      </trkpt>
      <trkpt lat="42.3203750" lon="1.7188560">
        <ele>1810.3</ele>
        <time>2015-08-13T12:52:28Z</time>
      </trkpt>
      <trkpt lat="42.3203780" lon="1.7189020">
        <ele>1808.9</ele>
        <time>2015-08-13T12:52:34Z</time>
      </trkpt>
      <trkpt lat="42.3203860" lon="1.7189420">
        <ele>1807.5</ele>
        <time>2015-08-13T12:52:37Z</time>
      </trkpt>
      <trkpt lat="42.3204030" lon="1.7189730">
        <ele>1805.8</ele>
        <time>2015-08-13T12:52:39Z</time>
      </trkpt>
      <trkpt lat="42.3204310" lon="1.7189980">
        <ele>1803.8</ele>
        <time>2015-08-13T12:52:41Z</time>
      </trkpt>
      <trkpt lat="42.3203980" lon="1.7190230">
        <ele>1804.7</ele>
        <time>2015-08-13T12:52:43Z</time>
      </trkpt>
      <trkpt lat="42.3203760" lon="1.7190470">
        <ele>1805.2</ele>
        <time>2015-08-13T12:52:46Z</time>
      </trkpt>
      <trkpt lat="42.3203560" lon="1.7190950">
        <ele>1804.9</ele>
        <time>2015-08-13T12:52:49Z</time>
      </trkpt>
      <trkpt lat="42.3203040" lon="1.7191220">
        <ele>1806.7</ele>
        <time>2015-08-13T12:52:53Z</time>
      </trkpt>
      <trkpt lat="42.3202890" lon="1.7191970">
        <ele>1805.4</ele>
        <time>2015-08-13T12:52:56Z</time>
      </trkpt>
      <trkpt lat="42.3202600" lon="1.7192070">
        <ele>1806.5</ele>
        <time>2015-08-13T12:52:57Z</time>
      </trkpt>
      <trkpt lat="42.3202600" lon="1.7192560">
        <ele>1805.2</ele>
        <time>2015-08-13T12:53:00Z</time>
      </trkpt>
      <trkpt lat="42.3202570" lon="1.7192930">
        <ele>1804.3</ele>
        <time>2015-08-13T12:53:03Z</time>
      </trkpt>
      <trkpt lat="42.3202220" lon="1.7193160">
        <ele>1805.3</ele>
        <time>2015-08-13T12:53:06Z</time>
      </trkpt>
      <trkpt lat="42.3202120" lon="1.7193570">
        <ele>1804.6</ele>
        <time>2015-08-13T12:53:09Z</time>
      </trkpt>
      <trkpt lat="42.3202370" lon="1.7193860">
        <ele>1802.7</ele>
        <time>2015-08-13T12:53:12Z</time>
      </trkpt>
      <trkpt lat="42.3202600" lon="1.7194140">
        <ele>1800.8</ele>
        <time>2015-08-13T12:53:13Z</time>
      </trkpt>
      <trkpt lat="42.3202380" lon="1.7194500">
        <ele>1800.8</ele>
        <time>2015-08-13T12:53:16Z</time>
      </trkpt>
      <trkpt lat="42.3202750" lon="1.7194440">
        <ele>1799.3</ele>
        <time>2015-08-13T12:53:19Z</time>
      </trkpt>
      <trkpt lat="42.3202640" lon="1.7194980">
        <ele>1798.3</ele>
        <time>2015-08-13T12:53:24Z</time>
      </trkpt>
      <trkpt lat="42.3202340" lon="1.7195320">
        <ele>1798.8</ele>
        <time>2015-08-13T12:53:26Z</time>
      </trkpt>
      <trkpt lat="42.3202210" lon="1.7195730">
        <ele>1798.2</ele>
        <time>2015-08-13T12:53:28Z</time>
      </trkpt>
      <trkpt lat="42.3202010" lon="1.7196010">
        <ele>1798.7</ele>
        <time>2015-08-13T12:53:36Z</time>
      </trkpt>
      <trkpt lat="42.3201850" lon="1.7196410">
        <ele>1799.2</ele>
        <time>2015-08-13T12:53:39Z</time>
      </trkpt>
      <trkpt lat="42.3201840" lon="1.7196780">
        <ele>1799.1</ele>
        <time>2015-08-13T12:53:42Z</time>
      </trkpt>
      <trkpt lat="42.3201970" lon="1.7197140">
        <ele>1798.3</ele>
        <time>2015-08-13T12:53:45Z</time>
      </trkpt>
      <trkpt lat="42.3201730" lon="1.7197580">
        <ele>1799.1</ele>
        <time>2015-08-13T12:53:48Z</time>
      </trkpt>
      <trkpt lat="42.3201700" lon="1.7197960">
        <ele>1799.0</ele>
        <time>2015-08-13T12:53:54Z</time>
      </trkpt>
      <trkpt lat="42.3201870" lon="1.7198370">
        <ele>1798.1</ele>
        <time>2015-08-13T12:53:56Z</time>
      </trkpt>
      <trkpt lat="42.3201970" lon="1.7198720">
        <ele>1797.5</ele>
        <time>2015-08-13T12:53:59Z</time>
      </trkpt>
      <trkpt lat="42.3201660" lon="1.7198710">
        <ele>1798.7</ele>
        <time>2015-08-13T12:54:00Z</time>
      </trkpt>
      <trkpt lat="42.3202150" lon="1.7198570">
        <ele>1796.8</ele>
        <time>2015-08-13T12:54:02Z</time>
      </trkpt>
      <trkpt lat="42.3202060" lon="1.7198930">
        <ele>1797.0</ele>
        <time>2015-08-13T12:54:04Z</time>
      </trkpt>
      <trkpt lat="42.3201820" lon="1.7199250">
        <ele>1797.8</ele>
        <time>2015-08-13T12:54:06Z</time>
      </trkpt>
      <trkpt lat="42.3201420" lon="1.7199630">
        <ele>1799.1</ele>
        <time>2015-08-13T12:54:08Z</time>
      </trkpt>
      <trkpt lat="42.3200360" lon="1.7199950">
        <ele>1802.9</ele>
        <time>2015-08-13T12:54:10Z</time>
      </trkpt>
      <trkpt lat="42.3199860" lon="1.7200030">
        <ele>1804.8</ele>
        <time>2015-08-13T12:54:11Z</time>
      </trkpt>
      <trkpt lat="42.3199580" lon="1.7200080">
        <ele>1805.8</ele>
        <time>2015-08-13T12:54:12Z</time>
      </trkpt>
      <trkpt lat="42.3199870" lon="1.7200170">
        <ele>1804.6</ele>
        <time>2015-08-13T12:54:13Z</time>
      </trkpt>
      <trkpt lat="42.3200110" lon="1.7200450">
        <ele>1803.4</ele>
        <time>2015-08-13T12:54:14Z</time>
      </trkpt>
      <trkpt lat="42.3200640" lon="1.7200670">
        <ele>1801.3</ele>
        <time>2015-08-13T12:54:16Z</time>
      </trkpt>
      <trkpt lat="42.3200780" lon="1.7201070">
        <ele>1800.5</ele>
        <time>2015-08-13T12:54:18Z</time>
      </trkpt>
      <trkpt lat="42.3201000" lon="1.7201560">
        <ele>1799.4</ele>
        <time>2015-08-13T12:54:20Z</time>
      </trkpt>
      <trkpt lat="42.3201260" lon="1.7201800">
        <ele>1798.3</ele>
        <time>2015-08-13T12:54:21Z</time>
      </trkpt>
      <trkpt lat="42.3201420" lon="1.7202110">
        <ele>1797.5</ele>
        <time>2015-08-13T12:54:22Z</time>
      </trkpt>
      <trkpt lat="42.3201630" lon="1.7202480">
        <ele>1796.6</ele>
        <time>2015-08-13T12:54:23Z</time>
      </trkpt>
      <trkpt lat="42.3201600" lon="1.7202880">
        <ele>1796.5</ele>
        <time>2015-08-13T12:54:25Z</time>
      </trkpt>
      <trkpt lat="42.3201050" lon="1.7203340">
        <ele>1797.9</ele>
        <time>2015-08-13T12:54:28Z</time>
      </trkpt>
      <trkpt lat="42.3201170" lon="1.7203850">
        <ele>1797.2</ele>
        <time>2015-08-13T12:54:31Z</time>
      </trkpt>
      <trkpt lat="42.3201400" lon="1.7204390">
        <ele>1796.1</ele>
        <time>2015-08-13T12:54:33Z</time>
      </trkpt>
      <trkpt lat="42.3201250" lon="1.7204750">
        <ele>1796.2</ele>
        <time>2015-08-13T12:54:34Z</time>
      </trkpt>
      <trkpt lat="42.3201270" lon="1.7205120">
        <ele>1795.8</ele>
        <time>2015-08-13T12:54:36Z</time>
      </trkpt>
      <trkpt lat="42.3201470" lon="1.7205580">
        <ele>1794.7</ele>
        <time>2015-08-13T12:54:38Z</time>
      </trkpt>
      <trkpt lat="42.3201400" lon="1.7205980">
        <ele>1794.6</ele>
        <time>2015-08-13T12:54:40Z</time>
      </trkpt>
      <trkpt lat="42.3201670" lon="1.7206210">
        <ele>1793.6</ele>
        <time>2015-08-13T12:54:42Z</time>
      </trkpt>
      <trkpt lat="42.3201830" lon="1.7206620">
        <ele>1792.7</ele>
        <time>2015-08-13T12:54:45Z</time>
      </trkpt>
      <trkpt lat="42.3202070" lon="1.7206960">
        <ele>1791.8</ele>
        <time>2015-08-13T12:54:47Z</time>
      </trkpt>
      <trkpt lat="42.3202070" lon="1.7207330">
        <ele>1791.4</ele>
        <time>2015-08-13T12:54:50Z</time>
      </trkpt>
      <trkpt lat="42.3202030" lon="1.7207730">
        <ele>1791.2</ele>
        <time>2015-08-13T12:54:52Z</time>
      </trkpt>
      <trkpt lat="42.3202130" lon="1.7208160">
        <ele>1790.5</ele>
        <time>2015-08-13T12:54:53Z</time>
      </trkpt>
      <trkpt lat="42.3201780" lon="1.7208690">
        <ele>1791.0</ele>
        <time>2015-08-13T12:54:55Z</time>
      </trkpt>
      <trkpt lat="42.3201630" lon="1.7209010">
        <ele>1791.1</ele>
        <time>2015-08-13T12:54:57Z</time>
      </trkpt>
      <trkpt lat="42.3201300" lon="1.7209470">
        <ele>1791.5</ele>
        <time>2015-08-13T12:54:59Z</time>
      </trkpt>
      <trkpt lat="42.3200900" lon="1.7209900">
        <ele>1792.1</ele>
        <time>2015-08-13T12:55:01Z</time>
      </trkpt>
      <trkpt lat="42.3200510" lon="1.7210120">
        <ele>1792.8</ele>
        <time>2015-08-13T12:55:03Z</time>
      </trkpt>
      <trkpt lat="42.3199950" lon="1.7210170">
        <ele>1794.1</ele>
        <time>2015-08-13T12:55:05Z</time>
      </trkpt>
      <trkpt lat="42.3199640" lon="1.7210620">
        <ele>1794.4</ele>
        <time>2015-08-13T12:55:08Z</time>
      </trkpt>
      <trkpt lat="42.3199670" lon="1.7211060">
        <ele>1793.8</ele>
        <time>2015-08-13T12:55:11Z</time>
      </trkpt>
      <trkpt lat="42.3199640" lon="1.7211850">
        <ele>1793.0</ele>
        <time>2015-08-13T12:55:14Z</time>
      </trkpt>
      <trkpt lat="42.3199490" lon="1.7212250">
        <ele>1792.9</ele>
        <time>2015-08-13T12:55:15Z</time>
      </trkpt>
      <trkpt lat="42.3199330" lon="1.7212780">
        <ele>1792.1</ele>
        <time>2015-08-13T12:55:16Z</time>
      </trkpt>
      <trkpt lat="42.3199210" lon="1.7213180">
        <ele>1791.1</ele>
        <time>2015-08-13T12:55:18Z</time>
      </trkpt>
      <trkpt lat="42.3198860" lon="1.7213340">
        <ele>1791.4</ele>
        <time>2015-08-13T12:55:28Z</time>
      </trkpt>
      <trkpt lat="42.3198490" lon="1.7213090">
        <ele>1793.1</ele>
        <time>2015-08-13T12:55:32Z</time>
      </trkpt>
      <trkpt lat="42.3198230" lon="1.7213350">
        <ele>1792.8</ele>
        <time>2015-08-13T12:55:35Z</time>
      </trkpt>
      <trkpt lat="42.3197830" lon="1.7213620">
        <ele>1792.8</ele>
        <time>2015-08-13T12:55:38Z</time>
      </trkpt>
      <trkpt lat="42.3197540" lon="1.7213620">
        <ele>1793.5</ele>
        <time>2015-08-13T12:55:40Z</time>
      </trkpt>
      <trkpt lat="42.3197130" lon="1.7213920">
        <ele>1793.4</ele>
        <time>2015-08-13T12:55:43Z</time>
      </trkpt>
      <trkpt lat="42.3196760" lon="1.7213590">
        <ele>1795.3</ele>
        <time>2015-08-13T12:55:45Z</time>
      </trkpt>
      <trkpt lat="42.3196460" lon="1.7213600">
        <ele>1795.9</ele>
        <time>2015-08-13T12:55:47Z</time>
      </trkpt>
      <trkpt lat="42.3196080" lon="1.7213610">
        <ele>1796.7</ele>
        <time>2015-08-13T12:55:50Z</time>
      </trkpt>
      <trkpt lat="42.3195890" lon="1.7214080">
        <ele>1795.6</ele>
        <time>2015-08-13T12:55:53Z</time>
      </trkpt>
      <trkpt lat="42.3195510" lon="1.7214130">
        <ele>1794.9</ele>
        <time>2015-08-13T12:55:55Z</time>
      </trkpt>
      <trkpt lat="42.3195130" lon="1.7214080">
        <ele>1794.3</ele>
        <time>2015-08-13T12:55:57Z</time>
      </trkpt>
      <trkpt lat="42.3194830" lon="1.7214070">
        <ele>1793.7</ele>
        <time>2015-08-13T12:56:00Z</time>
      </trkpt>
      <trkpt lat="42.3194420" lon="1.7214170">
        <ele>1792.5</ele>
        <time>2015-08-13T12:56:03Z</time>
      </trkpt>
      <trkpt lat="42.3194050" lon="1.7214290">
        <ele>1791.4</ele>
        <time>2015-08-13T12:56:05Z</time>
      </trkpt>
      <trkpt lat="42.3193800" lon="1.7214450">
        <ele>1790.4</ele>
        <time>2015-08-13T12:56:07Z</time>
      </trkpt>
      <trkpt lat="42.3193460" lon="1.7214650">
        <ele>1789.0</ele>
        <time>2015-08-13T12:56:10Z</time>
      </trkpt>
      <trkpt lat="42.3193200" lon="1.7214420">
        <ele>1789.2</ele>
        <time>2015-08-13T12:56:13Z</time>
      </trkpt>
      <trkpt lat="42.3192890" lon="1.7214610">
        <ele>1788.0</ele>
        <time>2015-08-13T12:56:16Z</time>
      </trkpt>
      <trkpt lat="42.3192400" lon="1.7215070">
        <ele>1785.5</ele>
        <time>2015-08-13T12:56:19Z</time>
      </trkpt>
      <trkpt lat="42.3192150" lon="1.7215350">
        <ele>1784.1</ele>
        <time>2015-08-13T12:56:20Z</time>
      </trkpt>
      <trkpt lat="42.3191890" lon="1.7215700">
        <ele>1782.4</ele>
        <time>2015-08-13T12:56:22Z</time>
      </trkpt>
      <trkpt lat="42.3191620" lon="1.7215850">
        <ele>1781.4</ele>
        <time>2015-08-13T12:56:26Z</time>
      </trkpt>
      <trkpt lat="42.3191300" lon="1.7215910">
        <ele>1780.5</ele>
        <time>2015-08-13T12:56:29Z</time>
      </trkpt>
      <trkpt lat="42.3190990" lon="1.7215990">
        <ele>1779.6</ele>
        <time>2015-08-13T12:56:32Z</time>
      </trkpt>
      <trkpt lat="42.3190780" lon="1.7215640">
        <ele>1780.4</ele>
        <time>2015-08-13T12:56:35Z</time>
      </trkpt>
      <trkpt lat="42.3190590" lon="1.7216120">
        <ele>1778.4</ele>
        <time>2015-08-13T12:56:38Z</time>
      </trkpt>
      <trkpt lat="42.3190100" lon="1.7216090">
        <ele>1777.5</ele>
        <time>2015-08-13T12:56:40Z</time>
      </trkpt>
      <trkpt lat="42.3189870" lon="1.7215680">
        <ele>1778.4</ele>
        <time>2015-08-13T12:56:43Z</time>
      </trkpt>
      <trkpt lat="42.3189510" lon="1.7215480">
        <ele>1778.4</ele>
        <time>2015-08-13T12:56:46Z</time>
      </trkpt>
      <trkpt lat="42.3189100" lon="1.7215360">
        <ele>1777.9</ele>
        <time>2015-08-13T12:56:49Z</time>
      </trkpt>
      <trkpt lat="42.3188680" lon="1.7214880">
        <ele>1778.7</ele>
        <time>2015-08-13T12:56:53Z</time>
      </trkpt>
      <trkpt lat="42.3188560" lon="1.7214240">
        <ele>1780.5</ele>
        <time>2015-08-13T12:56:55Z</time>
      </trkpt>
      <trkpt lat="42.3188300" lon="1.7213760">
        <ele>1781.5</ele>
        <time>2015-08-13T12:56:58Z</time>
      </trkpt>
      <trkpt lat="42.3188020" lon="1.7213430">
        <ele>1782.0</ele>
        <time>2015-08-13T12:57:00Z</time>
      </trkpt>
      <trkpt lat="42.3187770" lon="1.7213280">
        <ele>1782.0</ele>
        <time>2015-08-13T12:57:02Z</time>
      </trkpt>
      <trkpt lat="42.3187570" lon="1.7212960">
        <ele>1782.7</ele>
        <time>2015-08-13T12:57:04Z</time>
      </trkpt>
      <trkpt lat="42.3187400" lon="1.7212530">
        <ele>1783.6</ele>
        <time>2015-08-13T12:57:06Z</time>
      </trkpt>
      <trkpt lat="42.3187110" lon="1.7212200">
        <ele>1783.7</ele>
        <time>2015-08-13T12:57:08Z</time>
      </trkpt>
      <trkpt lat="42.3186940" lon="1.7211820">
        <ele>1784.3</ele>
        <time>2015-08-13T12:57:10Z</time>
      </trkpt>
      <trkpt lat="42.3186710" lon="1.7211400">
        <ele>1784.9</ele>
        <time>2015-08-13T12:57:12Z</time>
      </trkpt>
      <trkpt lat="42.3186340" lon="1.7211170">
        <ele>1784.5</ele>
        <time>2015-08-13T12:57:14Z</time>
      </trkpt>
      <trkpt lat="42.3186250" lon="1.7210620">
        <ele>1785.9</ele>
        <time>2015-08-13T12:57:15Z</time>
      </trkpt>
      <trkpt lat="42.3186100" lon="1.7210210">
        <ele>1786.7</ele>
        <time>2015-08-13T12:57:17Z</time>
      </trkpt>
      <trkpt lat="42.3186190" lon="1.7209620">
        <ele>1788.6</ele>
        <time>2015-08-13T12:57:27Z</time>
      </trkpt>
      <trkpt lat="42.3185930" lon="1.7209510">
        <ele>1788.3</ele>
        <time>2015-08-13T12:57:44Z</time>
      </trkpt>
      <trkpt lat="42.3185710" lon="1.7209170">
        <ele>1788.7</ele>
        <time>2015-08-13T12:57:46Z</time>
      </trkpt>
      <trkpt lat="42.3185490" lon="1.7208960">
        <ele>1788.8</ele>
        <time>2015-08-13T12:57:48Z</time>
      </trkpt>
      <trkpt lat="42.3185280" lon="1.7208460">
        <ele>1789.8</ele>
        <time>2015-08-13T12:57:50Z</time>
      </trkpt>
      <trkpt lat="42.3184970" lon="1.7208230">
        <ele>1789.7</ele>
        <time>2015-08-13T12:57:52Z</time>
      </trkpt>
      <trkpt lat="42.3184800" lon="1.7207870">
        <ele>1790.4</ele>
        <time>2015-08-13T12:57:54Z</time>
      </trkpt>
      <trkpt lat="42.3184580" lon="1.7207410">
        <ele>1791.4</ele>
        <time>2015-08-13T12:57:56Z</time>
      </trkpt>
      <trkpt lat="42.3184460" lon="1.7206920">
        <ele>1792.6</ele>
        <time>2015-08-13T12:57:58Z</time>
      </trkpt>
      <trkpt lat="42.3184470" lon="1.7206390">
        <ele>1794.3</ele>
        <time>2015-08-13T12:58:00Z</time>
      </trkpt>
      <trkpt lat="42.3184220" lon="1.7206080">
        <ele>1794.7</ele>
        <time>2015-08-13T12:58:02Z</time>
      </trkpt>
      <trkpt lat="42.3183910" lon="1.7205670">
        <ele>1795.3</ele>
        <time>2015-08-13T12:58:05Z</time>
      </trkpt>
      <trkpt lat="42.3183630" lon="1.7205180">
        <ele>1796.3</ele>
        <time>2015-08-13T12:58:08Z</time>
      </trkpt>
      <trkpt lat="42.3183500" lon="1.7204840">
        <ele>1797.2</ele>
        <time>2015-08-13T12:58:10Z</time>
      </trkpt>
      <trkpt lat="42.3183400" lon="1.7204050">
        <ele>1799.5</ele>
        <time>2015-08-13T12:58:12Z</time>
      </trkpt>
      <trkpt lat="42.3183350" lon="1.7203290">
        <ele>1801.8</ele>
        <time>2015-08-13T12:58:14Z</time>
      </trkpt>
      <trkpt lat="42.3183120" lon="1.7203100">
        <ele>1802.0</ele>
        <time>2015-08-13T12:58:17Z</time>
      </trkpt>
      <trkpt lat="42.3183000" lon="1.7202470">
        <ele>1803.8</ele>
        <time>2015-08-13T12:58:20Z</time>
      </trkpt>
      <trkpt lat="42.3183010" lon="1.7201920">
        <ele>1805.6</ele>
        <time>2015-08-13T12:58:23Z</time>
      </trkpt>
      <trkpt lat="42.3182940" lon="1.7201340">
        <ele>1807.3</ele>
        <time>2015-08-13T12:58:26Z</time>
      </trkpt>
      <trkpt lat="42.3182690" lon="1.7200920">
        <ele>1808.3</ele>
        <time>2015-08-13T12:58:28Z</time>
      </trkpt>
      <trkpt lat="42.3182350" lon="1.7200740">
        <ele>1808.3</ele>
        <time>2015-08-13T12:58:31Z</time>
      </trkpt>
      <trkpt lat="42.3181920" lon="1.7200690">
        <ele>1807.8</ele>
        <time>2015-08-13T12:58:33Z</time>
      </trkpt>
      <trkpt lat="42.3182000" lon="1.7200110">
        <ele>1809.9</ele>
        <time>2015-08-13T12:58:34Z</time>
      </trkpt>
      <trkpt lat="42.3181550" lon="1.7199840">
        <ele>1810.1</ele>
        <time>2015-08-13T12:58:37Z</time>
      </trkpt>
      <trkpt lat="42.3181310" lon="1.7199670">
        <ele>1810.3</ele>
        <time>2015-08-13T12:58:39Z</time>
      </trkpt>
      <trkpt lat="42.3181050" lon="1.7199290">
        <ele>1811.2</ele>
        <time>2015-08-13T12:58:42Z</time>
      </trkpt>
      <trkpt lat="42.3180520" lon="1.7199280">
        <ele>1810.5</ele>
        <time>2015-08-13T12:58:47Z</time>
      </trkpt>
      <trkpt lat="42.3180220" lon="1.7198980">
        <ele>1811.1</ele>
        <time>2015-08-13T12:58:50Z</time>
      </trkpt>
      <trkpt lat="42.3180050" lon="1.7198670">
        <ele>1812.0</ele>
        <time>2015-08-13T12:58:53Z</time>
      </trkpt>
      <trkpt lat="42.3179730" lon="1.7198700">
        <ele>1811.5</ele>
        <time>2015-08-13T12:58:56Z</time>
      </trkpt>
      <trkpt lat="42.3179510" lon="1.7198460">
        <ele>1812.0</ele>
        <time>2015-08-13T12:58:58Z</time>
      </trkpt>
      <trkpt lat="42.3179340" lon="1.7198040">
        <ele>1813.3</ele>
        <time>2015-08-13T12:59:00Z</time>
      </trkpt>
      <trkpt lat="42.3179470" lon="1.7197600">
        <ele>1815.0</ele>
        <time>2015-08-13T12:59:03Z</time>
      </trkpt>
      <trkpt lat="42.3179830" lon="1.7197210">
        <ele>1816.9</ele>
        <time>2015-08-13T12:59:05Z</time>
      </trkpt>
      <trkpt lat="42.3179640" lon="1.7196770">
        <ele>1818.2</ele>
        <time>2015-08-13T12:59:07Z</time>
      </trkpt>
      <trkpt lat="42.3180340" lon="1.7197240">
        <ele>1817.4</ele>
        <time>2015-08-13T12:59:10Z</time>
      </trkpt>
      <trkpt lat="42.3180580" lon="1.7197420">
        <ele>1817.0</ele>
        <time>2015-08-13T12:59:11Z</time>
      </trkpt>
      <trkpt lat="42.3180870" lon="1.7197430">
        <ele>1817.4</ele>
        <time>2015-08-13T12:59:14Z</time>
      </trkpt>
      <trkpt lat="42.3181140" lon="1.7197400">
        <ele>1817.8</ele>
        <time>2015-08-13T12:59:16Z</time>
      </trkpt>
      <trkpt lat="42.3181530" lon="1.7196790">
        <ele>1820.3</ele>
        <time>2015-08-13T12:59:19Z</time>
      </trkpt>
      <trkpt lat="42.3181330" lon="1.7196290">
        <ele>1821.8</ele>
        <time>2015-08-13T12:59:21Z</time>
      </trkpt>
      <trkpt lat="42.3181420" lon="1.7195460">
        <ele>1825.0</ele>
        <time>2015-08-13T12:59:22Z</time>
      </trkpt>
      <trkpt lat="42.3181560" lon="1.7195870">
        <ele>1823.5</ele>
        <time>2015-08-13T12:59:23Z</time>
      </trkpt>
      <trkpt lat="42.3181890" lon="1.7195840">
        <ele>1823.9</ele>
        <time>2015-08-13T12:59:27Z</time>
      </trkpt>
      <trkpt lat="42.3182320" lon="1.7195980">
        <ele>1823.9</ele>
        <time>2015-08-13T12:59:29Z</time>
      </trkpt>
      <trkpt lat="42.3182800" lon="1.7195990">
        <ele>1824.4</ele>
        <time>2015-08-13T12:59:31Z</time>
      </trkpt>
      <trkpt lat="42.3183090" lon="1.7196020">
        <ele>1824.6</ele>
        <time>2015-08-13T12:59:33Z</time>
      </trkpt>
      <trkpt lat="42.3183410" lon="1.7196440">
        <ele>1823.7</ele>
        <time>2015-08-13T12:59:35Z</time>
      </trkpt>
      <trkpt lat="42.3183540" lon="1.7196930">
        <ele>1822.3</ele>
        <time>2015-08-13T12:59:37Z</time>
      </trkpt>
      <trkpt lat="42.3183750" lon="1.7197160">
        <ele>1821.8</ele>
        <time>2015-08-13T12:59:39Z</time>
      </trkpt>
      <trkpt lat="42.3184470" lon="1.7197310">
        <ele>1822.2</ele>
        <time>2015-08-13T12:59:41Z</time>
      </trkpt>
      <trkpt lat="42.3184750" lon="1.7197350">
        <ele>1822.4</ele>
        <time>2015-08-13T12:59:42Z</time>
      </trkpt>
      <trkpt lat="42.3185230" lon="1.7197250">
        <ele>1823.3</ele>
        <time>2015-08-13T12:59:44Z</time>
      </trkpt>
      <trkpt lat="42.3185670" lon="1.7197270">
        <ele>1823.8</ele>
        <time>2015-08-13T12:59:46Z</time>
      </trkpt>
      <trkpt lat="42.3185960" lon="1.7197720">
        <ele>1822.8</ele>
        <time>2015-08-13T12:59:48Z</time>
      </trkpt>
      <trkpt lat="42.3186520" lon="1.7197980">
        <ele>1822.8</ele>
        <time>2015-08-13T12:59:50Z</time>
      </trkpt>
      <trkpt lat="42.3186810" lon="1.7198280">
        <ele>1822.3</ele>
        <time>2015-08-13T12:59:52Z</time>
      </trkpt>
      <trkpt lat="42.3186860" lon="1.7197900">
        <ele>1823.5</ele>
        <time>2015-08-13T12:59:55Z</time>
      </trkpt>
      <trkpt lat="42.3186690" lon="1.7198220">
        <ele>1822.3</ele>
        <time>2015-08-13T12:59:59Z</time>
      </trkpt>
      <trkpt lat="42.3186820" lon="1.7198680">
        <ele>1821.2</ele>
        <time>2015-08-13T13:00:01Z</time>
      </trkpt>
      <trkpt lat="42.3186950" lon="1.7199230">
        <ele>1819.8</ele>
        <time>2015-08-13T13:00:03Z</time>
      </trkpt>
      <trkpt lat="42.3187260" lon="1.7199180">
        <ele>1820.4</ele>
        <time>2015-08-13T13:00:05Z</time>
      </trkpt>
      <trkpt lat="42.3187600" lon="1.7199350">
        <ele>1820.3</ele>
        <time>2015-08-13T13:00:07Z</time>
      </trkpt>
      <trkpt lat="42.3187960" lon="1.7199530">
        <ele>1819.9</ele>
        <time>2015-08-13T13:00:09Z</time>
      </trkpt>
      <trkpt lat="42.3188380" lon="1.7199830">
        <ele>1819.1</ele>
        <time>2015-08-13T13:00:11Z</time>
      </trkpt>
      <trkpt lat="42.3188650" lon="1.7200210">
        <ele>1818.2</ele>
        <time>2015-08-13T13:00:12Z</time>
      </trkpt>
      <trkpt lat="42.3189130" lon="1.7200470">
        <ele>1817.6</ele>
        <time>2015-08-13T13:00:15Z</time>
      </trkpt>
      <trkpt lat="42.3189410" lon="1.7200830">
        <ele>1816.8</ele>
        <time>2015-08-13T13:00:16Z</time>
      </trkpt>
      <trkpt lat="42.3189700" lon="1.7201080">
        <ele>1816.2</ele>
        <time>2015-08-13T13:00:17Z</time>
      </trkpt>
      <trkpt lat="42.3189990" lon="1.7200940">
        <ele>1816.7</ele>
        <time>2015-08-13T13:00:18Z</time>
      </trkpt>
      <trkpt lat="42.3190420" lon="1.7201200">
        <ele>1816.2</ele>
        <time>2015-08-13T13:00:20Z</time>
      </trkpt>
      <trkpt lat="42.3190810" lon="1.7201180">
        <ele>1816.3</ele>
        <time>2015-08-13T13:00:23Z</time>
      </trkpt>
      <trkpt lat="42.3191090" lon="1.7201040">
        <ele>1816.8</ele>
        <time>2015-08-13T13:00:25Z</time>
      </trkpt>
      <trkpt lat="42.3191540" lon="1.7200710">
        <ele>1817.6</ele>
        <time>2015-08-13T13:00:28Z</time>
      </trkpt>
      <trkpt lat="42.3191820" lon="1.7200720">
        <ele>1817.7</ele>
        <time>2015-08-13T13:00:29Z</time>
      </trkpt>
      <trkpt lat="42.3192130" lon="1.7200400">
        <ele>1818.5</ele>
        <time>2015-08-13T13:00:31Z</time>
      </trkpt>
      <trkpt lat="42.3192270" lon="1.7200070">
        <ele>1819.2</ele>
        <time>2015-08-13T13:00:32Z</time>
      </trkpt>
      <trkpt lat="42.3192480" lon="1.7199560">
        <ele>1820.3</ele>
        <time>2015-08-13T13:00:33Z</time>
      </trkpt>
      <trkpt lat="42.3192670" lon="1.7198910">
        <ele>1821.7</ele>
        <time>2015-08-13T13:00:35Z</time>
      </trkpt>
      <trkpt lat="42.3192760" lon="1.7198380">
        <ele>1822.8</ele>
        <time>2015-08-13T13:00:37Z</time>
      </trkpt>
      <trkpt lat="42.3192770" lon="1.7197860">
        <ele>1823.9</ele>
        <time>2015-08-13T13:00:40Z</time>
      </trkpt>
      <trkpt lat="42.3192700" lon="1.7197780">
        <ele>1824.1</ele>
        <time>2015-08-13T13:00:47Z</time>
      </trkpt>
      <trkpt lat="42.3192630" lon="1.7197700">
        <ele>1824.2</ele>
        <time>2015-08-13T13:00:54Z</time>
      </trkpt>
      <trkpt lat="42.3192560" lon="1.7197620">
        <ele>1824.4</ele>
        <time>2015-08-13T13:00:58Z</time>
      </trkpt>
      <trkpt lat="42.3192480" lon="1.7197540">
        <ele>1824.6</ele>
        <time>2015-08-13T13:01:00Z</time>
      </trkpt>
      <trkpt lat="42.3192410" lon="1.7197460">
        <ele>1824.8</ele>
        <time>2015-08-13T13:01:04Z</time>
      </trkpt>
      <trkpt lat="42.3192340" lon="1.7197380">
        <ele>1825.0</ele>
        <time>2015-08-13T13:01:06Z</time>
      </trkpt>
      <trkpt lat="42.3192270" lon="1.7197300">
        <ele>1825.1</ele>
        <time>2015-08-13T13:01:07Z</time>
      </trkpt>
      <trkpt lat="42.3191990" lon="1.7197280">
        <ele>1825.2</ele>
        <time>2015-08-13T13:01:08Z</time>
      </trkpt>
      <trkpt lat="42.3191820" lon="1.7196880">
        <ele>1826.1</ele>
        <time>2015-08-13T13:01:09Z</time>
      </trkpt>
      <trkpt lat="42.3191600" lon="1.7196510">
        <ele>1827.0</ele>
        <time>2015-08-13T13:01:12Z</time>
      </trkpt>
      <trkpt lat="42.3191310" lon="1.7196420">
        <ele>1827.3</ele>
        <time>2015-08-13T13:01:13Z</time>
      </trkpt>
      <trkpt lat="42.3190840" lon="1.7196740">
        <ele>1826.7</ele>
        <time>2015-08-13T13:01:15Z</time>
      </trkpt>
      <trkpt lat="42.3190610" lon="1.7196440">
        <ele>1827.5</ele>
        <time>2015-08-13T13:01:17Z</time>
      </trkpt>
      <trkpt lat="42.3190250" lon="1.7196210">
        <ele>1828.1</ele>
        <time>2015-08-13T13:01:20Z</time>
      </trkpt>
      <trkpt lat="42.3189910" lon="1.7196210">
        <ele>1828.2</ele>
        <time>2015-08-13T13:01:22Z</time>
      </trkpt>
      <trkpt lat="42.3189460" lon="1.7196140">
        <ele>1828.5</ele>
        <time>2015-08-13T13:01:24Z</time>
      </trkpt>
      <trkpt lat="42.3189110" lon="1.7196270">
        <ele>1828.3</ele>
        <time>2015-08-13T13:01:27Z</time>
      </trkpt>
      <trkpt lat="42.3188780" lon="1.7196010">
        <ele>1829.1</ele>
        <time>2015-08-13T13:01:30Z</time>
      </trkpt>
      <trkpt lat="42.3188560" lon="1.7195770">
        <ele>1829.9</ele>
        <time>2015-08-13T13:01:31Z</time>
      </trkpt>
      <trkpt lat="42.3188210" lon="1.7195640">
        <ele>1830.5</ele>
        <time>2015-08-13T13:01:33Z</time>
      </trkpt>
      <trkpt lat="42.3187930" lon="1.7195650">
        <ele>1830.6</ele>
        <time>2015-08-13T13:01:34Z</time>
      </trkpt>
      <trkpt lat="42.3187650" lon="1.7195480">
        <ele>1831.4</ele>
        <time>2015-08-13T13:01:36Z</time>
      </trkpt>
      <trkpt lat="42.3187260" lon="1.7195450">
        <ele>1831.3</ele>
        <time>2015-08-13T13:01:40Z</time>
      </trkpt>
      <trkpt lat="42.3186920" lon="1.7195440">
        <ele>1831.0</ele>
        <time>2015-08-13T13:01:46Z</time>
      </trkpt>
      <trkpt lat="42.3186600" lon="1.7195420">
        <ele>1830.7</ele>
        <time>2015-08-13T13:01:47Z</time>
      </trkpt>
      <trkpt lat="42.3186300" lon="1.7195460">
        <ele>1830.2</ele>
        <time>2015-08-13T13:01:48Z</time>
      </trkpt>
      <trkpt lat="42.3186050" lon="1.7195640">
        <ele>1829.2</ele>
        <time>2015-08-13T13:01:49Z</time>
      </trkpt>
      <trkpt lat="42.3185750" lon="1.7195590">
        <ele>1829.1</ele>
        <time>2015-08-13T13:01:50Z</time>
      </trkpt>
      <trkpt lat="42.3185490" lon="1.7195350">
        <ele>1829.8</ele>
        <time>2015-08-13T13:01:52Z</time>
      </trkpt>
      <trkpt lat="42.3185200" lon="1.7195100">
        <ele>1830.5</ele>
        <time>2015-08-13T13:01:54Z</time>
      </trkpt>
      <trkpt lat="42.3184690" lon="1.7195120">
        <ele>1829.9</ele>
        <time>2015-08-13T13:01:56Z</time>
      </trkpt>
      <trkpt lat="42.3184360" lon="1.7195130">
        <ele>1829.5</ele>
        <time>2015-08-13T13:01:57Z</time>
      </trkpt>
      <trkpt lat="42.3183970" lon="1.7195040">
        <ele>1829.4</ele>
        <time>2015-08-13T13:01:59Z</time>
      </trkpt>
      <trkpt lat="42.3183470" lon="1.7195040">
        <ele>1828.9</ele>
        <time>2015-08-13T13:02:01Z</time>
      </trkpt>
      <trkpt lat="42.3183130" lon="1.7195120">
        <ele>1828.2</ele>
        <time>2015-08-13T13:02:03Z</time>
      </trkpt>
      <trkpt lat="42.3182670" lon="1.7194990">
        <ele>1828.2</ele>
        <time>2015-08-13T13:02:06Z</time>
      </trkpt>
      <trkpt lat="42.3182200" lon="1.7194770">
        <ele>1828.6</ele>
        <time>2015-08-13T13:02:08Z</time>
      </trkpt>
      <trkpt lat="42.3181720" lon="1.7194450">
        <ele>1829.4</ele>
        <time>2015-08-13T13:02:10Z</time>
      </trkpt>
      <trkpt lat="42.3181430" lon="1.7194390">
        <ele>1829.3</ele>
        <time>2015-08-13T13:02:11Z</time>
      </trkpt>
      <trkpt lat="42.3181160" lon="1.7194310">
        <ele>1829.4</ele>
        <time>2015-08-13T13:02:12Z</time>
      </trkpt>
      <trkpt lat="42.3180590" lon="1.7194080">
        <ele>1829.7</ele>
        <time>2015-08-13T13:02:14Z</time>
      </trkpt>
      <trkpt lat="42.3180190" lon="1.7193770">
        <ele>1830.5</ele>
        <time>2015-08-13T13:02:16Z</time>
      </trkpt>
      <trkpt lat="42.3179910" lon="1.7193550">
        <ele>1831.1</ele>
        <time>2015-08-13T13:02:17Z</time>
      </trkpt>
      <trkpt lat="42.3179500" lon="1.7193770">
        <ele>1829.8</ele>
        <time>2015-08-13T13:02:19Z</time>
      </trkpt>
      <trkpt lat="42.3179420" lon="1.7193380">
        <ele>1831.3</ele>
        <time>2015-08-13T13:02:20Z</time>
      </trkpt>
      <trkpt lat="42.3179130" lon="1.7193160">
        <ele>1831.9</ele>
        <time>2015-08-13T13:02:21Z</time>
      </trkpt>
      <trkpt lat="42.3178640" lon="1.7193020">
        <ele>1831.7</ele>
        <time>2015-08-13T13:02:23Z</time>
      </trkpt>
      <trkpt lat="42.3178260" lon="1.7192310">
        <ele>1834.0</ele>
        <time>2015-08-13T13:02:25Z</time>
      </trkpt>
      <trkpt lat="42.3177780" lon="1.7192070">
        <ele>1834.3</ele>
        <time>2015-08-13T13:02:27Z</time>
      </trkpt>
      <trkpt lat="42.3177500" lon="1.7192090">
        <ele>1833.8</ele>
        <time>2015-08-13T13:02:28Z</time>
      </trkpt>
      <trkpt lat="42.3177210" lon="1.7192130">
        <ele>1833.2</ele>
        <time>2015-08-13T13:02:29Z</time>
      </trkpt>
      <trkpt lat="42.3176380" lon="1.7191990">
        <ele>1832.5</ele>
        <time>2015-08-13T13:02:32Z</time>
      </trkpt>
      <trkpt lat="42.3176090" lon="1.7191630">
        <ele>1833.5</ele>
        <time>2015-08-13T13:02:33Z</time>
      </trkpt>
      <trkpt lat="42.3175770" lon="1.7191600">
        <ele>1833.2</ele>
        <time>2015-08-13T13:02:34Z</time>
      </trkpt>
      <trkpt lat="42.3175370" lon="1.7191670">
        <ele>1832.3</ele>
        <time>2015-08-13T13:02:35Z</time>
      </trkpt>
      <trkpt lat="42.3175000" lon="1.7191670">
        <ele>1831.7</ele>
        <time>2015-08-13T13:02:37Z</time>
      </trkpt>
      <trkpt lat="42.3174140" lon="1.7192100">
        <ele>1828.8</ele>
        <time>2015-08-13T13:02:40Z</time>
      </trkpt>
      <trkpt lat="42.3173750" lon="1.7192120">
        <ele>1828.1</ele>
        <time>2015-08-13T13:02:41Z</time>
      </trkpt>
      <trkpt lat="42.3173600" lon="1.7191630">
        <ele>1829.8</ele>
        <time>2015-08-13T13:02:42Z</time>
      </trkpt>
      <trkpt lat="42.3173370" lon="1.7191240">
        <ele>1830.9</ele>
        <time>2015-08-13T13:02:43Z</time>
      </trkpt>
      <trkpt lat="42.3173170" lon="1.7190910">
        <ele>1831.9</ele>
        <time>2015-08-13T13:02:44Z</time>
      </trkpt>
      <trkpt lat="42.3172870" lon="1.7191030">
        <ele>1831.0</ele>
        <time>2015-08-13T13:02:46Z</time>
      </trkpt>
      <trkpt lat="42.3172460" lon="1.7191110">
        <ele>1830.0</ele>
        <time>2015-08-13T13:02:49Z</time>
      </trkpt>
      <trkpt lat="42.3172110" lon="1.7190990">
        <ele>1830.0</ele>
        <time>2015-08-13T13:02:50Z</time>
      </trkpt>
      <trkpt lat="42.3171740" lon="1.7190830">
        <ele>1830.0</ele>
        <time>2015-08-13T13:02:53Z</time>
      </trkpt>
      <trkpt lat="42.3171410" lon="1.7190770">
        <ele>1829.7</ele>
        <time>2015-08-13T13:02:55Z</time>
      </trkpt>
      <trkpt lat="42.3171080" lon="1.7190840">
        <ele>1829.0</ele>
        <time>2015-08-13T13:02:57Z</time>
      </trkpt>
      <trkpt lat="42.3170770" lon="1.7190400">
        <ele>1830.0</ele>
        <time>2015-08-13T13:02:58Z</time>
      </trkpt>
      <trkpt lat="42.3170280" lon="1.7190350">
        <ele>1828.4</ele>
        <time>2015-08-13T13:03:00Z</time>
      </trkpt>
      <trkpt lat="42.3170030" lon="1.7189990">
        <ele>1828.7</ele>
        <time>2015-08-13T13:03:02Z</time>
      </trkpt>
      <trkpt lat="42.3169670" lon="1.7189790">
        <ele>1828.1</ele>
        <time>2015-08-13T13:03:04Z</time>
      </trkpt>
      <trkpt lat="42.3169310" lon="1.7189740">
        <ele>1826.9</ele>
        <time>2015-08-13T13:03:06Z</time>
      </trkpt>
      <trkpt lat="42.3169020" lon="1.7190100">
        <ele>1824.6</ele>
        <time>2015-08-13T13:03:09Z</time>
      </trkpt>
      <trkpt lat="42.3168720" lon="1.7190220">
        <ele>1823.1</ele>
        <time>2015-08-13T13:03:11Z</time>
      </trkpt>
      <trkpt lat="42.3168390" lon="1.7190430">
        <ele>1821.2</ele>
        <time>2015-08-13T13:03:15Z</time>
      </trkpt>
      <trkpt lat="42.3168120" lon="1.7190330">
        <ele>1820.5</ele>
        <time>2015-08-13T13:03:17Z</time>
      </trkpt>
      <trkpt lat="42.3167990" lon="1.7189800">
        <ele>1821.8</ele>
        <time>2015-08-13T13:03:18Z</time>
      </trkpt>
      <trkpt lat="42.3167570" lon="1.7189570">
        <ele>1821.0</ele>
        <time>2015-08-13T13:03:20Z</time>
      </trkpt>
      <trkpt lat="42.3167300" lon="1.7189370">
        <ele>1820.6</ele>
        <time>2015-08-13T13:03:22Z</time>
      </trkpt>
      <trkpt lat="42.3166940" lon="1.7189130">
        <ele>1820.0</ele>
        <time>2015-08-13T13:03:24Z</time>
      </trkpt>
      <trkpt lat="42.3166530" lon="1.7189120">
        <ele>1818.4</ele>
        <time>2015-08-13T13:03:25Z</time>
      </trkpt>
      <trkpt lat="42.3166260" lon="1.7188780">
        <ele>1818.4</ele>
        <time>2015-08-13T13:03:27Z</time>
      </trkpt>
      <trkpt lat="42.3166010" lon="1.7188480">
        <ele>1818.4</ele>
        <time>2015-08-13T13:03:29Z</time>
      </trkpt>
      <trkpt lat="42.3165760" lon="1.7188240">
        <ele>1818.1</ele>
        <time>2015-08-13T13:03:30Z</time>
      </trkpt>
      <trkpt lat="42.3165460" lon="1.7188180">
        <ele>1817.1</ele>
        <time>2015-08-13T13:03:31Z</time>
      </trkpt>
      <trkpt lat="42.3165190" lon="1.7188260">
        <ele>1815.8</ele>
        <time>2015-08-13T13:03:36Z</time>
      </trkpt>
      <trkpt lat="42.3164910" lon="1.7188040">
        <ele>1815.3</ele>
        <time>2015-08-13T13:03:38Z</time>
      </trkpt>
      <trkpt lat="42.3164830" lon="1.7187620">
        <ele>1816.2</ele>
        <time>2015-08-13T13:03:39Z</time>
      </trkpt>
      <trkpt lat="42.3164470" lon="1.7187770">
        <ele>1814.3</ele>
        <time>2015-08-13T13:03:41Z</time>
      </trkpt>
      <trkpt lat="42.3164270" lon="1.7187120">
        <ele>1815.5</ele>
        <time>2015-08-13T13:03:43Z</time>
      </trkpt>
      <trkpt lat="42.3163810" lon="1.7186770">
        <ele>1814.7</ele>
        <time>2015-08-13T13:03:44Z</time>
      </trkpt>
      <trkpt lat="42.3163320" lon="1.7186380">
        <ele>1813.9</ele>
        <time>2015-08-13T13:03:45Z</time>
      </trkpt>
      <trkpt lat="42.3163000" lon="1.7186300">
        <ele>1812.8</ele>
        <time>2015-08-13T13:03:46Z</time>
      </trkpt>
      <trkpt lat="42.3162880" lon="1.7185710">
        <ele>1814.2</ele>
        <time>2015-08-13T13:03:48Z</time>
      </trkpt>
      <trkpt lat="42.3162730" lon="1.7185220">
        <ele>1815.1</ele>
        <time>2015-08-13T13:03:49Z</time>
      </trkpt>
      <trkpt lat="42.3162320" lon="1.7184870">
        <ele>1814.0</ele>
        <time>2015-08-13T13:03:51Z</time>
      </trkpt>
      <trkpt lat="42.3162030" lon="1.7184330">
        <ele>1813.8</ele>
        <time>2015-08-13T13:03:53Z</time>
      </trkpt>
      <trkpt lat="42.3161940" lon="1.7183930">
        <ele>1814.5</ele>
        <time>2015-08-13T13:03:54Z</time>
      </trkpt>
      <trkpt lat="42.3161730" lon="1.7183560">
        <ele>1814.3</ele>
        <time>2015-08-13T13:03:55Z</time>
      </trkpt>
      <trkpt lat="42.3161420" lon="1.7183230">
        <ele>1813.3</ele>
        <time>2015-08-13T13:03:57Z</time>
      </trkpt>
      <trkpt lat="42.3161220" lon="1.7182980">
        <ele>1812.7</ele>
        <time>2015-08-13T13:03:59Z</time>
      </trkpt>
      <trkpt lat="42.3161030" lon="1.7182420">
        <ele>1813.3</ele>
        <time>2015-08-13T13:04:01Z</time>
      </trkpt>
      <trkpt lat="42.3160850" lon="1.7181970">
        <ele>1813.5</ele>
        <time>2015-08-13T13:04:02Z</time>
      </trkpt>
      <trkpt lat="42.3160680" lon="1.7181630">
        <ele>1813.5</ele>
        <time>2015-08-13T13:04:03Z</time>
      </trkpt>
      <trkpt lat="42.3160530" lon="1.7181150">
        <ele>1814.0</ele>
        <time>2015-08-13T13:04:05Z</time>
      </trkpt>
      <trkpt lat="42.3160270" lon="1.7180600">
        <ele>1814.0</ele>
        <time>2015-08-13T13:04:07Z</time>
      </trkpt>
      <trkpt lat="42.3159940" lon="1.7180190">
        <ele>1813.2</ele>
        <time>2015-08-13T13:04:09Z</time>
      </trkpt>
      <trkpt lat="42.3159740" lon="1.7179730">
        <ele>1813.3</ele>
        <time>2015-08-13T13:04:11Z</time>
      </trkpt>
      <trkpt lat="42.3159460" lon="1.7179490">
        <ele>1812.3</ele>
        <time>2015-08-13T13:04:14Z</time>
      </trkpt>
      <trkpt lat="42.3159260" lon="1.7179060">
        <ele>1812.4</ele>
        <time>2015-08-13T13:04:17Z</time>
      </trkpt>
      <trkpt lat="42.3159080" lon="1.7178700">
        <ele>1812.5</ele>
        <time>2015-08-13T13:04:19Z</time>
      </trkpt>
      <trkpt lat="42.3158900" lon="1.7178350">
        <ele>1812.6</ele>
        <time>2015-08-13T13:04:21Z</time>
      </trkpt>
      <trkpt lat="42.3158610" lon="1.7178090">
        <ele>1811.8</ele>
        <time>2015-08-13T13:04:24Z</time>
      </trkpt>
      <trkpt lat="42.3158490" lon="1.7177600">
        <ele>1812.8</ele>
        <time>2015-08-13T13:04:26Z</time>
      </trkpt>
      <trkpt lat="42.3158290" lon="1.7177170">
        <ele>1813.2</ele>
        <time>2015-08-13T13:04:28Z</time>
      </trkpt>
      <trkpt lat="42.3158150" lon="1.7176750">
        <ele>1813.9</ele>
        <time>2015-08-13T13:04:29Z</time>
      </trkpt>
      <trkpt lat="42.3158320" lon="1.7176440">
        <ele>1816.1</ele>
        <time>2015-08-13T13:04:30Z</time>
      </trkpt>
      <trkpt lat="42.3158350" lon="1.7175990">
        <ele>1817.9</ele>
        <time>2015-08-13T13:04:32Z</time>
      </trkpt>
      <trkpt lat="42.3158160" lon="1.7175310">
        <ele>1819.3</ele>
        <time>2015-08-13T13:04:35Z</time>
      </trkpt>
      <trkpt lat="42.3158150" lon="1.7174890">
        <ele>1820.8</ele>
        <time>2015-08-13T13:04:36Z</time>
      </trkpt>
      <trkpt lat="42.3158060" lon="1.7174410">
        <ele>1822.1</ele>
        <time>2015-08-13T13:04:37Z</time>
      </trkpt>
      <trkpt lat="42.3158060" lon="1.7173730">
        <ele>1824.7</ele>
        <time>2015-08-13T13:04:39Z</time>
      </trkpt>
      <trkpt lat="42.3157850" lon="1.7173400">
        <ele>1824.7</ele>
        <time>2015-08-13T13:04:40Z</time>
      </trkpt>
      <trkpt lat="42.3157690" lon="1.7173030">
        <ele>1825.2</ele>
        <time>2015-08-13T13:04:41Z</time>
      </trkpt>
      <trkpt lat="42.3157530" lon="1.7172250">
        <ele>1827.3</ele>
        <time>2015-08-13T13:04:43Z</time>
      </trkpt>
      <trkpt lat="42.3157370" lon="1.7171800">
        <ele>1828.2</ele>
        <time>2015-08-13T13:04:44Z</time>
      </trkpt>
      <trkpt lat="42.3157280" lon="1.7171140">
        <ele>1830.3</ele>
        <time>2015-08-13T13:04:46Z</time>
      </trkpt>
      <trkpt lat="42.3157240" lon="1.7170770">
        <ele>1831.5</ele>
        <time>2015-08-13T13:04:47Z</time>
      </trkpt>
      <trkpt lat="42.3157190" lon="1.7170360">
        <ele>1832.8</ele>
        <time>2015-08-13T13:04:48Z</time>
      </trkpt>
      <trkpt lat="42.3157070" lon="1.7169790">
        <ele>1834.4</ele>
        <time>2015-08-13T13:04:50Z</time>
      </trkpt>
      <trkpt lat="42.3157120" lon="1.7169410">
        <ele>1836.1</ele>
        <time>2015-08-13T13:04:51Z</time>
      </trkpt>
      <trkpt lat="42.3156930" lon="1.7168700">
        <ele>1837.9</ele>
        <time>2015-08-13T13:04:53Z</time>
      </trkpt>
      <trkpt lat="42.3156810" lon="1.7168070">
        <ele>1839.7</ele>
        <time>2015-08-13T13:04:55Z</time>
      </trkpt>
      <trkpt lat="42.3156700" lon="1.7167720">
        <ele>1840.4</ele>
        <time>2015-08-13T13:04:56Z</time>
      </trkpt>
      <trkpt lat="42.3156620" lon="1.7167260">
        <ele>1841.8</ele>
        <time>2015-08-13T13:04:58Z</time>
      </trkpt>
      <trkpt lat="42.3156330" lon="1.7166920">
        <ele>1841.6</ele>
        <time>2015-08-13T13:04:59Z</time>
      </trkpt>
      <trkpt lat="42.3156000" lon="1.7166430">
        <ele>1841.7</ele>
        <time>2015-08-13T13:05:01Z</time>
      </trkpt>
      <trkpt lat="42.3155800" lon="1.7165870">
        <ele>1842.8</ele>
        <time>2015-08-13T13:05:03Z</time>
      </trkpt>
      <trkpt lat="42.3155680" lon="1.7165250">
        <ele>1844.6</ele>
        <time>2015-08-13T13:05:05Z</time>
      </trkpt>
      <trkpt lat="42.3155500" lon="1.7164720">
        <ele>1845.6</ele>
        <time>2015-08-13T13:05:07Z</time>
      </trkpt>
      <trkpt lat="42.3154920" lon="1.7164260">
        <ele>1844.3</ele>
        <time>2015-08-13T13:05:09Z</time>
      </trkpt>
      <trkpt lat="42.3154660" lon="1.7164060">
        <ele>1843.7</ele>
        <time>2015-08-13T13:05:10Z</time>
      </trkpt>
      <trkpt lat="42.3154180" lon="1.7164000">
        <ele>1841.3</ele>
        <time>2015-08-13T13:05:12Z</time>
      </trkpt>
      <trkpt lat="42.3153700" lon="1.7163950">
        <ele>1838.4</ele>
        <time>2015-08-13T13:05:14Z</time>
      </trkpt>
      <trkpt lat="42.3153260" lon="1.7163930">
        <ele>1835.7</ele>
        <time>2015-08-13T13:05:16Z</time>
      </trkpt>
      <trkpt lat="42.3152830" lon="1.7163940">
        <ele>1832.9</ele>
        <time>2015-08-13T13:05:18Z</time>
      </trkpt>
      <trkpt lat="42.3152420" lon="1.7164010">
        <ele>1830.0</ele>
        <time>2015-08-13T13:05:20Z</time>
      </trkpt>
      <trkpt lat="42.3152140" lon="1.7164310">
        <ele>1827.1</ele>
        <time>2015-08-13T13:05:21Z</time>
      </trkpt>
      <trkpt lat="42.3151740" lon="1.7164580">
        <ele>1823.5</ele>
        <time>2015-08-13T13:05:23Z</time>
      </trkpt>
      <trkpt lat="42.3151190" lon="1.7164520">
        <ele>1820.2</ele>
        <time>2015-08-13T13:05:25Z</time>
      </trkpt>
      <trkpt lat="42.3150480" lon="1.7164860">
        <ele>1814.4</ele>
        <time>2015-08-13T13:05:27Z</time>
      </trkpt>
      <trkpt lat="42.3150130" lon="1.7164840">
        <ele>1812.3</ele>
        <time>2015-08-13T13:05:29Z</time>
      </trkpt>
      <trkpt lat="42.3149840" lon="1.7164580">
        <ele>1811.4</ele>
        <time>2015-08-13T13:05:31Z</time>
      </trkpt>
      <trkpt lat="42.3149370" lon="1.7164670">
        <ele>1808.0</ele>
        <time>2015-08-13T13:05:33Z</time>
      </trkpt>
      <trkpt lat="42.3149000" lon="1.7164200">
        <ele>1807.4</ele>
        <time>2015-08-13T13:05:35Z</time>
      </trkpt>
      <trkpt lat="42.3148810" lon="1.7163730">
        <ele>1807.9</ele>
        <time>2015-08-13T13:05:37Z</time>
      </trkpt>
      <trkpt lat="42.3148480" lon="1.7163060">
        <ele>1808.1</ele>
        <time>2015-08-13T13:05:40Z</time>
      </trkpt>
      <trkpt lat="42.3148290" lon="1.7162490">
        <ele>1809.0</ele>
        <time>2015-08-13T13:05:42Z</time>
      </trkpt>
      <trkpt lat="42.3148080" lon="1.7162180">
        <ele>1808.6</ele>
        <time>2015-08-13T13:05:44Z</time>
      </trkpt>
      <trkpt lat="42.3147990" lon="1.7161760">
        <ele>1809.4</ele>
        <time>2015-08-13T13:05:47Z</time>
      </trkpt>
      <trkpt lat="42.3147990" lon="1.7161370">
        <ele>1810.7</ele>
        <time>2015-08-13T13:05:59Z</time>
      </trkpt>
      <trkpt lat="42.3148070" lon="1.7160810">
        <ele>1813.1</ele>
        <time>2015-08-13T13:06:01Z</time>
      </trkpt>
      <trkpt lat="42.3147970" lon="1.7160320">
        <ele>1814.0</ele>
        <time>2015-08-13T13:06:03Z</time>
      </trkpt>
      <trkpt lat="42.3147840" lon="1.7159800">
        <ele>1814.8</ele>
        <time>2015-08-13T13:06:05Z</time>
      </trkpt>
      <trkpt lat="42.3147780" lon="1.7159230">
        <ele>1816.2</ele>
        <time>2015-08-13T13:06:07Z</time>
      </trkpt>
      <trkpt lat="42.3147390" lon="1.7158680">
        <ele>1815.3</ele>
        <time>2015-08-13T13:06:08Z</time>
      </trkpt>
      <trkpt lat="42.3147190" lon="1.7158370">
        <ele>1814.9</ele>
        <time>2015-08-13T13:06:09Z</time>
      </trkpt>
      <trkpt lat="42.3146980" lon="1.7158030">
        <ele>1814.5</ele>
        <time>2015-08-13T13:06:10Z</time>
      </trkpt>
      <trkpt lat="42.3146830" lon="1.7157590">
        <ele>1814.8</ele>
        <time>2015-08-13T13:06:11Z</time>
      </trkpt>
      <trkpt lat="42.3146710" lon="1.7157100">
        <ele>1815.5</ele>
        <time>2015-08-13T13:06:13Z</time>
      </trkpt>
      <trkpt lat="42.3146540" lon="1.7156160">
        <ele>1817.2</ele>
        <time>2015-08-13T13:06:15Z</time>
      </trkpt>
      <trkpt lat="42.3146420" lon="1.7155550">
        <ele>1818.2</ele>
        <time>2015-08-13T13:06:17Z</time>
      </trkpt>
      <trkpt lat="42.3146360" lon="1.7155150">
        <ele>1819.0</ele>
        <time>2015-08-13T13:06:18Z</time>
      </trkpt>
      <trkpt lat="42.3146390" lon="1.7154480">
        <ele>1821.2</ele>
        <time>2015-08-13T13:06:20Z</time>
      </trkpt>
      <trkpt lat="42.3146370" lon="1.7154060">
        <ele>1822.4</ele>
        <time>2015-08-13T13:06:21Z</time>
      </trkpt>
      <trkpt lat="42.3146470" lon="1.7153650">
        <ele>1824.6</ele>
        <time>2015-08-13T13:06:22Z</time>
      </trkpt>
      <trkpt lat="42.3146550" lon="1.7153100">
        <ele>1827.1</ele>
        <time>2015-08-13T13:06:23Z</time>
      </trkpt>
      <trkpt lat="42.3146180" lon="1.7152730">
        <ele>1825.6</ele>
        <time>2015-08-13T13:06:24Z</time>
      </trkpt>
      <trkpt lat="42.3145980" lon="1.7152430">
        <ele>1825.1</ele>
        <time>2015-08-13T13:06:25Z</time>
      </trkpt>
      <trkpt lat="42.3145540" lon="1.7152090">
        <ele>1823.6</ele>
        <time>2015-08-13T13:06:26Z</time>
      </trkpt>
      <trkpt lat="42.3145340" lon="1.7151740">
        <ele>1823.8</ele>
        <time>2015-08-13T13:06:27Z</time>
      </trkpt>
      <trkpt lat="42.3145030" lon="1.7151530">
        <ele>1822.9</ele>
        <time>2015-08-13T13:06:28Z</time>
      </trkpt>
      <trkpt lat="42.3144730" lon="1.7151200">
        <ele>1822.4</ele>
        <time>2015-08-13T13:06:29Z</time>
      </trkpt>
      <trkpt lat="42.3144470" lon="1.7150840">
        <ele>1822.3</ele>
        <time>2015-08-13T13:06:30Z</time>
      </trkpt>
      <trkpt lat="42.3144230" lon="1.7150510">
        <ele>1822.3</ele>
        <time>2015-08-13T13:06:31Z</time>
      </trkpt>
      <trkpt lat="42.3144020" lon="1.7150070">
        <ele>1822.8</ele>
        <time>2015-08-13T13:06:32Z</time>
      </trkpt>
      <trkpt lat="42.3143840" lon="1.7149680">
        <ele>1823.3</ele>
        <time>2015-08-13T13:06:33Z</time>
      </trkpt>
      <trkpt lat="42.3143690" lon="1.7149330">
        <ele>1823.8</ele>
        <time>2015-08-13T13:06:34Z</time>
      </trkpt>
      <trkpt lat="42.3143450" lon="1.7148930">
        <ele>1824.0</ele>
        <time>2015-08-13T13:06:35Z</time>
      </trkpt>
      <trkpt lat="42.3143200" lon="1.7148570">
        <ele>1824.1</ele>
        <time>2015-08-13T13:06:36Z</time>
      </trkpt>
      <trkpt lat="42.3142930" lon="1.7148240">
        <ele>1824.0</ele>
        <time>2015-08-13T13:06:37Z</time>
      </trkpt>
      <trkpt lat="42.3142790" lon="1.7147920">
        <ele>1824.5</ele>
        <time>2015-08-13T13:06:38Z</time>
      </trkpt>
      <trkpt lat="42.3142590" lon="1.7147660">
        <ele>1824.5</ele>
        <time>2015-08-13T13:06:39Z</time>
      </trkpt>
      <trkpt lat="42.3142390" lon="1.7147110">
        <ele>1825.6</ele>
        <time>2015-08-13T13:06:41Z</time>
      </trkpt>
      <trkpt lat="42.3142260" lon="1.7146570">
        <ele>1827.0</ele>
        <time>2015-08-13T13:06:43Z</time>
      </trkpt>
      <trkpt lat="42.3142300" lon="1.7146050">
        <ele>1829.2</ele>
        <time>2015-08-13T13:06:45Z</time>
      </trkpt>
      <trkpt lat="42.3142250" lon="1.7145440">
        <ele>1831.2</ele>
        <time>2015-08-13T13:06:47Z</time>
      </trkpt>
      <trkpt lat="42.3142320" lon="1.7144880">
        <ele>1833.5</ele>
        <time>2015-08-13T13:06:49Z</time>
      </trkpt>
      <trkpt lat="42.3142200" lon="1.7144280">
        <ele>1835.0</ele>
        <time>2015-08-13T13:06:51Z</time>
      </trkpt>
      <trkpt lat="42.3142030" lon="1.7143840">
        <ele>1835.8</ele>
        <time>2015-08-13T13:06:53Z</time>
      </trkpt>
      <trkpt lat="42.3141940" lon="1.7143350">
        <ele>1837.1</ele>
        <time>2015-08-13T13:06:56Z</time>
      </trkpt>
      <trkpt lat="42.3141980" lon="1.7142920">
        <ele>1838.8</ele>
        <time>2015-08-13T13:07:00Z</time>
      </trkpt>
      <trkpt lat="42.3141860" lon="1.7142390">
        <ele>1840.1</ele>
        <time>2015-08-13T13:07:01Z</time>
      </trkpt>
      <trkpt lat="42.3141920" lon="1.7141800">
        <ele>1842.5</ele>
        <time>2015-08-13T13:07:04Z</time>
      </trkpt>
      <trkpt lat="42.3141990" lon="1.7141390">
        <ele>1844.3</ele>
        <time>2015-08-13T13:07:06Z</time>
      </trkpt>
      <trkpt lat="42.3142000" lon="1.7140960">
        <ele>1845.8</ele>
        <time>2015-08-13T13:07:08Z</time>
      </trkpt>
      <trkpt lat="42.3142160" lon="1.7140630">
        <ele>1847.8</ele>
        <time>2015-08-13T13:07:09Z</time>
      </trkpt>
      <trkpt lat="42.3142340" lon="1.7140170">
        <ele>1850.2</ele>
        <time>2015-08-13T13:07:12Z</time>
      </trkpt>
      <trkpt lat="42.3142320" lon="1.7139740">
        <ele>1851.6</ele>
        <time>2015-08-13T13:07:15Z</time>
      </trkpt>
      <trkpt lat="42.3142290" lon="1.7139340">
        <ele>1852.9</ele>
        <time>2015-08-13T13:07:17Z</time>
      </trkpt>
      <trkpt lat="42.3142280" lon="1.7138980">
        <ele>1854.1</ele>
        <time>2015-08-13T13:07:19Z</time>
      </trkpt>
      <trkpt lat="42.3142140" lon="1.7138530">
        <ele>1855.1</ele>
        <time>2015-08-13T13:07:22Z</time>
      </trkpt>
      <trkpt lat="42.3141990" lon="1.7138090">
        <ele>1855.9</ele>
        <time>2015-08-13T13:07:24Z</time>
      </trkpt>
      <trkpt lat="42.3141820" lon="1.7137710">
        <ele>1856.5</ele>
        <time>2015-08-13T13:07:27Z</time>
      </trkpt>
      <trkpt lat="42.3141610" lon="1.7137260">
        <ele>1857.1</ele>
        <time>2015-08-13T13:07:30Z</time>
      </trkpt>
      <trkpt lat="42.3141350" lon="1.7137140">
        <ele>1856.3</ele>
        <time>2015-08-13T13:07:32Z</time>
      </trkpt>
      <trkpt lat="42.3141030" lon="1.7136930">
        <ele>1855.6</ele>
        <time>2015-08-13T13:07:35Z</time>
      </trkpt>
      <trkpt lat="42.3140660" lon="1.7136740">
        <ele>1854.6</ele>
        <time>2015-08-13T13:07:38Z</time>
      </trkpt>
      <trkpt lat="42.3140390" lon="1.7136530">
        <ele>1854.2</ele>
        <time>2015-08-13T13:07:40Z</time>
      </trkpt>
      <trkpt lat="42.3140030" lon="1.7136550">
        <ele>1852.5</ele>
        <time>2015-08-13T13:07:42Z</time>
      </trkpt>
      <trkpt lat="42.3139690" lon="1.7136250">
        <ele>1852.1</ele>
        <time>2015-08-13T13:07:44Z</time>
      </trkpt>
      <trkpt lat="42.3139400" lon="1.7136300">
        <ele>1850.6</ele>
        <time>2015-08-13T13:07:46Z</time>
      </trkpt>
      <trkpt lat="42.3139080" lon="1.7136280">
        <ele>1849.2</ele>
        <time>2015-08-13T13:07:48Z</time>
      </trkpt>
      <trkpt lat="42.3138790" lon="1.7136030">
        <ele>1848.9</ele>
        <time>2015-08-13T13:07:51Z</time>
      </trkpt>
      <trkpt lat="42.3138430" lon="1.7135890">
        <ele>1847.9</ele>
        <time>2015-08-13T13:07:54Z</time>
      </trkpt>
      <trkpt lat="42.3138110" lon="1.7135650">
        <ele>1847.5</ele>
        <time>2015-08-13T13:07:56Z</time>
      </trkpt>
      <trkpt lat="42.3137850" lon="1.7135440">
        <ele>1847.2</ele>
        <time>2015-08-13T13:07:58Z</time>
      </trkpt>
      <trkpt lat="42.3137590" lon="1.7135010">
        <ele>1847.8</ele>
        <time>2015-08-13T13:08:01Z</time>
      </trkpt>
      <trkpt lat="42.3137330" lon="1.7134800">
        <ele>1848.0</ele>
        <time>2015-08-13T13:08:03Z</time>
      </trkpt>
      <trkpt lat="42.3137140" lon="1.7134540">
        <ele>1848.8</ele>
        <time>2015-08-13T13:08:05Z</time>
      </trkpt>
      <trkpt lat="42.3136990" lon="1.7134200">
        <ele>1850.0</ele>
        <time>2015-08-13T13:08:08Z</time>
      </trkpt>
      <trkpt lat="42.3136730" lon="1.7133890">
        <ele>1850.8</ele>
        <time>2015-08-13T13:08:11Z</time>
      </trkpt>
      <trkpt lat="42.3136500" lon="1.7133480">
        <ele>1852.1</ele>
        <time>2015-08-13T13:08:14Z</time>
      </trkpt>
      <trkpt lat="42.3136230" lon="1.7133200">
        <ele>1852.8</ele>
        <time>2015-08-13T13:08:17Z</time>
      </trkpt>
      <trkpt lat="42.3135940" lon="1.7132800">
        <ele>1854.0</ele>
        <time>2015-08-13T13:08:20Z</time>
      </trkpt>
      <trkpt lat="42.3135700" lon="1.7132570">
        <ele>1854.6</ele>
        <time>2015-08-13T13:08:22Z</time>
      </trkpt>
      <trkpt lat="42.3135510" lon="1.7132220">
        <ele>1855.7</ele>
        <time>2015-08-13T13:08:25Z</time>
      </trkpt>
      <trkpt lat="42.3135380" lon="1.7131800">
        <ele>1857.2</ele>
        <time>2015-08-13T13:08:27Z</time>
      </trkpt>
      <trkpt lat="42.3135000" lon="1.7131640">
        <ele>1857.2</ele>
        <time>2015-08-13T13:08:30Z</time>
      </trkpt>
      <trkpt lat="42.3134620" lon="1.7131450">
        <ele>1857.3</ele>
        <time>2015-08-13T13:08:33Z</time>
      </trkpt>
      <trkpt lat="42.3134330" lon="1.7131480">
        <ele>1856.7</ele>
        <time>2015-08-13T13:08:35Z</time>
      </trkpt>
      <trkpt lat="42.3134000" lon="1.7131260">
        <ele>1857.0</ele>
        <time>2015-08-13T13:08:38Z</time>
      </trkpt>
      <trkpt lat="42.3133710" lon="1.7130980">
        <ele>1857.7</ele>
        <time>2015-08-13T13:08:41Z</time>
      </trkpt>
      <trkpt lat="42.3133460" lon="1.7130710">
        <ele>1858.3</ele>
        <time>2015-08-13T13:08:44Z</time>
      </trkpt>
      <trkpt lat="42.3133350" lon="1.7130300">
        <ele>1859.8</ele>
        <time>2015-08-13T13:08:46Z</time>
      </trkpt>
      <trkpt lat="42.3133270" lon="1.7129900">
        <ele>1861.4</ele>
        <time>2015-08-13T13:08:48Z</time>
      </trkpt>
      <trkpt lat="42.3133120" lon="1.7129590">
        <ele>1862.4</ele>
        <time>2015-08-13T13:08:50Z</time>
      </trkpt>
      <trkpt lat="42.3132940" lon="1.7129090">
        <ele>1864.1</ele>
        <time>2015-08-13T13:08:53Z</time>
      </trkpt>
      <trkpt lat="42.3132720" lon="1.7128690">
        <ele>1865.3</ele>
        <time>2015-08-13T13:08:56Z</time>
      </trkpt>
      <trkpt lat="42.3132460" lon="1.7128190">
        <ele>1866.8</ele>
        <time>2015-08-13T13:08:59Z</time>
      </trkpt>
      <trkpt lat="42.3132370" lon="1.7127780">
        <ele>1868.3</ele>
        <time>2015-08-13T13:09:02Z</time>
      </trkpt>
      <trkpt lat="42.3132210" lon="1.7127280">
        <ele>1870.0</ele>
        <time>2015-08-13T13:09:05Z</time>
      </trkpt>
      <trkpt lat="42.3132080" lon="1.7126900">
        <ele>1871.4</ele>
        <time>2015-08-13T13:09:07Z</time>
      </trkpt>
      <trkpt lat="42.3131730" lon="1.7126620">
        <ele>1872.0</ele>
        <time>2015-08-13T13:09:11Z</time>
      </trkpt>
      <trkpt lat="42.3131530" lon="1.7126200">
        <ele>1873.4</ele>
        <time>2015-08-13T13:09:14Z</time>
      </trkpt>
      <trkpt lat="42.3131190" lon="1.7125980">
        <ele>1873.9</ele>
        <time>2015-08-13T13:09:17Z</time>
      </trkpt>
      <trkpt lat="42.3130900" lon="1.7126120">
        <ele>1872.9</ele>
        <time>2015-08-13T13:09:19Z</time>
      </trkpt>
      <trkpt lat="42.3130530" lon="1.7126130">
        <ele>1872.3</ele>
        <time>2015-08-13T13:09:21Z</time>
      </trkpt>
      <trkpt lat="42.3130260" lon="1.7126210">
        <ele>1871.6</ele>
        <time>2015-08-13T13:09:23Z</time>
      </trkpt>
      <trkpt lat="42.3129920" lon="1.7126400">
        <ele>1870.3</ele>
        <time>2015-08-13T13:09:26Z</time>
      </trkpt>
      <trkpt lat="42.3129690" lon="1.7126620">
        <ele>1869.1</ele>
        <time>2015-08-13T13:09:28Z</time>
      </trkpt>
      <trkpt lat="42.3129520" lon="1.7126950">
        <ele>1867.4</ele>
        <time>2015-08-13T13:09:30Z</time>
      </trkpt>
      <trkpt lat="42.3129350" lon="1.7127250">
        <ele>1865.8</ele>
        <time>2015-08-13T13:09:32Z</time>
      </trkpt>
      <trkpt lat="42.3129030" lon="1.7127520">
        <ele>1864.4</ele>
        <time>2015-08-13T13:09:35Z</time>
      </trkpt>
      <trkpt lat="42.3128720" lon="1.7127390">
        <ele>1865.1</ele>
        <time>2015-08-13T13:09:38Z</time>
      </trkpt>
      <trkpt lat="42.3128380" lon="1.7127430">
        <ele>1865.2</ele>
        <time>2015-08-13T13:09:41Z</time>
      </trkpt>
      <trkpt lat="42.3128000" lon="1.7127430">
        <ele>1865.4</ele>
        <time>2015-08-13T13:09:44Z</time>
      </trkpt>
      <trkpt lat="42.3127700" lon="1.7127340">
        <ele>1865.9</ele>
        <time>2015-08-13T13:09:47Z</time>
      </trkpt>
      <trkpt lat="42.3127410" lon="1.7127190">
        <ele>1866.7</ele>
        <time>2015-08-13T13:09:51Z</time>
      </trkpt>
      <trkpt lat="42.3127160" lon="1.7126800">
        <ele>1868.4</ele>
        <time>2015-08-13T13:09:54Z</time>
      </trkpt>
      <trkpt lat="42.3126940" lon="1.7126340">
        <ele>1870.4</ele>
        <time>2015-08-13T13:09:57Z</time>
      </trkpt>
      <trkpt lat="42.3126730" lon="1.7126070">
        <ele>1871.6</ele>
        <time>2015-08-13T13:09:59Z</time>
      </trkpt>
      <trkpt lat="42.3126470" lon="1.7125650">
        <ele>1873.4</ele>
        <time>2015-08-13T13:10:02Z</time>
      </trkpt>
      <trkpt lat="42.3126270" lon="1.7125250">
        <ele>1875.0</ele>
        <time>2015-08-13T13:10:05Z</time>
      </trkpt>
      <trkpt lat="42.3126080" lon="1.7124880">
        <ele>1876.5</ele>
        <time>2015-08-13T13:10:08Z</time>
      </trkpt>
      <trkpt lat="42.3125840" lon="1.7124690">
        <ele>1877.3</ele>
        <time>2015-08-13T13:10:11Z</time>
      </trkpt>
      <trkpt lat="42.3125550" lon="1.7124530">
        <ele>1878.0</ele>
        <time>2015-08-13T13:10:14Z</time>
      </trkpt>
      <trkpt lat="42.3125250" lon="1.7124420">
        <ele>1878.4</ele>
        <time>2015-08-13T13:10:19Z</time>
      </trkpt>
      <trkpt lat="42.3125000" lon="1.7124230">
        <ele>1879.2</ele>
        <time>2015-08-13T13:10:23Z</time>
      </trkpt>
      <trkpt lat="42.3124680" lon="1.7123860">
        <ele>1880.6</ele>
        <time>2015-08-13T13:10:26Z</time>
      </trkpt>
      <trkpt lat="42.3124320" lon="1.7123630">
        <ele>1881.4</ele>
        <time>2015-08-13T13:10:28Z</time>
      </trkpt>
      <trkpt lat="42.3123960" lon="1.7123630">
        <ele>1881.4</ele>
        <time>2015-08-13T13:10:31Z</time>
      </trkpt>
      <trkpt lat="42.3123620" lon="1.7123550">
        <ele>1881.7</ele>
        <time>2015-08-13T13:10:34Z</time>
      </trkpt>
      <trkpt lat="42.3123330" lon="1.7123590">
        <ele>1881.5</ele>
        <time>2015-08-13T13:10:36Z</time>
      </trkpt>
      <trkpt lat="42.3123030" lon="1.7123250">
        <ele>1882.7</ele>
        <time>2015-08-13T13:10:39Z</time>
      </trkpt>
      <trkpt lat="42.3122670" lon="1.7123360">
        <ele>1882.3</ele>
        <time>2015-08-13T13:10:43Z</time>
      </trkpt>
      <trkpt lat="42.3122400" lon="1.7123370">
        <ele>1882.2</ele>
        <time>2015-08-13T13:10:45Z</time>
      </trkpt>
      <trkpt lat="42.3122040" lon="1.7123550">
        <ele>1881.6</ele>
        <time>2015-08-13T13:10:47Z</time>
      </trkpt>
      <trkpt lat="42.3121750" lon="1.7123440">
        <ele>1881.9</ele>
        <time>2015-08-13T13:10:49Z</time>
      </trkpt>
      <trkpt lat="42.3121400" lon="1.7123300">
        <ele>1882.4</ele>
        <time>2015-08-13T13:10:51Z</time>
      </trkpt>
      <trkpt lat="42.3121110" lon="1.7123200">
        <ele>1882.6</ele>
        <time>2015-08-13T13:10:53Z</time>
      </trkpt>
      <trkpt lat="42.3120840" lon="1.7123050">
        <ele>1883.1</ele>
        <time>2015-08-13T13:10:55Z</time>
      </trkpt>
      <trkpt lat="42.3120490" lon="1.7122970">
        <ele>1884.4</ele>
        <time>2015-08-13T13:10:57Z</time>
      </trkpt>
      <trkpt lat="42.3120200" lon="1.7122930">
        <ele>1885.4</ele>
        <time>2015-08-13T13:10:59Z</time>
      </trkpt>
      <trkpt lat="42.3119930" lon="1.7122940">
        <ele>1886.2</ele>
        <time>2015-08-13T13:11:01Z</time>
      </trkpt>
      <trkpt lat="42.3119570" lon="1.7122990">
        <ele>1887.2</ele>
        <time>2015-08-13T13:11:03Z</time>
      </trkpt>
      <trkpt lat="42.3119260" lon="1.7123050">
        <ele>1888.0</ele>
        <time>2015-08-13T13:11:05Z</time>
      </trkpt>
      <trkpt lat="42.3119030" lon="1.7123260">
        <ele>1888.1</ele>
        <time>2015-08-13T13:11:07Z</time>
      </trkpt>
      <trkpt lat="42.3118780" lon="1.7123630">
        <ele>1887.9</ele>
        <time>2015-08-13T13:11:10Z</time>
      </trkpt>
      <trkpt lat="42.3118490" lon="1.7123940">
        <ele>1888.1</ele>
        <time>2015-08-13T13:11:12Z</time>
      </trkpt>
      <trkpt lat="42.3118200" lon="1.7124250">
        <ele>1888.2</ele>
        <time>2015-08-13T13:11:14Z</time>
      </trkpt>
      <trkpt lat="42.3117900" lon="1.7124740">
        <ele>1888.0</ele>
        <time>2015-08-13T13:11:16Z</time>
      </trkpt>
      <trkpt lat="42.3117670" lon="1.7125230">
        <ele>1887.6</ele>
        <time>2015-08-13T13:11:18Z</time>
      </trkpt>
      <trkpt lat="42.3117330" lon="1.7125890">
        <ele>1887.3</ele>
        <time>2015-08-13T13:11:20Z</time>
      </trkpt>
      <trkpt lat="42.3117070" lon="1.7126130">
        <ele>1887.7</ele>
        <time>2015-08-13T13:11:21Z</time>
      </trkpt>
      <trkpt lat="42.3116840" lon="1.7126450">
        <ele>1887.9</ele>
        <time>2015-08-13T13:11:22Z</time>
      </trkpt>
      <trkpt lat="42.3116510" lon="1.7126770">
        <ele>1888.4</ele>
        <time>2015-08-13T13:11:23Z</time>
      </trkpt>
      <trkpt lat="42.3116250" lon="1.7127060">
        <ele>1888.8</ele>
        <time>2015-08-13T13:11:24Z</time>
      </trkpt>
      <trkpt lat="42.3116000" lon="1.7127390">
        <ele>1889.1</ele>
        <time>2015-08-13T13:11:25Z</time>
      </trkpt>
      <trkpt lat="42.3115680" lon="1.7127490">
        <ele>1890.2</ele>
        <time>2015-08-13T13:11:26Z</time>
      </trkpt>
      <trkpt lat="42.3115350" lon="1.7127650">
        <ele>1891.3</ele>
        <time>2015-08-13T13:11:27Z</time>
      </trkpt>
      <trkpt lat="42.3115010" lon="1.7127700">
        <ele>1892.6</ele>
        <time>2015-08-13T13:11:28Z</time>
      </trkpt>
      <trkpt lat="42.3114740" lon="1.7127880">
        <ele>1893.4</ele>
        <time>2015-08-13T13:11:29Z</time>
      </trkpt>
      <trkpt lat="42.3114370" lon="1.7128200">
        <ele>1894.4</ele>
        <time>2015-08-13T13:11:30Z</time>
      </trkpt>
      <trkpt lat="42.3114040" lon="1.7128410">
        <ele>1895.4</ele>
        <time>2015-08-13T13:11:31Z</time>
      </trkpt>
      <trkpt lat="42.3113530" lon="1.7128620">
        <ele>1897.3</ele>
        <time>2015-08-13T13:11:33Z</time>
      </trkpt>
      <trkpt lat="42.3113220" lon="1.7128880">
        <ele>1898.2</ele>
        <time>2015-08-13T13:11:34Z</time>
      </trkpt>
      <trkpt lat="42.3112680" lon="1.7129030">
        <ele>1900.4</ele>
        <time>2015-08-13T13:11:36Z</time>
      </trkpt>
      <trkpt lat="42.3112200" lon="1.7129320">
        <ele>1900.3</ele>
        <time>2015-08-13T13:11:38Z</time>
      </trkpt>
      <trkpt lat="42.3111970" lon="1.7129520">
        <ele>1899.5</ele>
        <time>2015-08-13T13:11:39Z</time>
      </trkpt>
      <trkpt lat="42.3111790" lon="1.7129900">
        <ele>1898.1</ele>
        <time>2015-08-13T13:11:40Z</time>
      </trkpt>
      <trkpt lat="42.3111500" lon="1.7130350">
        <ele>1896.5</ele>
        <time>2015-08-13T13:11:42Z</time>
      </trkpt>
      <trkpt lat="42.3111190" lon="1.7130560">
        <ele>1895.9</ele>
        <time>2015-08-13T13:11:44Z</time>
      </trkpt>
      <trkpt lat="42.3110890" lon="1.7130640">
        <ele>1895.8</ele>
        <time>2015-08-13T13:11:47Z</time>
      </trkpt>
      <trkpt lat="42.3110610" lon="1.7130680">
        <ele>1895.8</ele>
        <time>2015-08-13T13:11:54Z</time>
      </trkpt>
      <trkpt lat="42.3110320" lon="1.7130810">
        <ele>1895.6</ele>
        <time>2015-08-13T13:12:57Z</time>
      </trkpt>
      <trkpt lat="42.3110100" lon="1.7131290">
        <ele>1894.3</ele>
        <time>2015-08-13T13:12:59Z</time>
      </trkpt>
      <trkpt lat="42.3110150" lon="1.7131670">
        <ele>1893.1</ele>
        <time>2015-08-13T13:13:01Z</time>
      </trkpt>
      <trkpt lat="42.3110010" lon="1.7132040">
        <ele>1892.1</ele>
        <time>2015-08-13T13:13:02Z</time>
      </trkpt>
      <trkpt lat="42.3109930" lon="1.7132500">
        <ele>1890.9</ele>
        <time>2015-08-13T13:13:03Z</time>
      </trkpt>
      <trkpt lat="42.3109780" lon="1.7132830">
        <ele>1890.2</ele>
        <time>2015-08-13T13:13:04Z</time>
      </trkpt>
      <trkpt lat="42.3109680" lon="1.7133230">
        <ele>1889.2</ele>
        <time>2015-08-13T13:13:05Z</time>
      </trkpt>
      <trkpt lat="42.3109500" lon="1.7133630">
        <ele>1888.4</ele>
        <time>2015-08-13T13:13:06Z</time>
      </trkpt>
      <trkpt lat="42.3109350" lon="1.7133960">
        <ele>1887.9</ele>
        <time>2015-08-13T13:13:07Z</time>
      </trkpt>
      <trkpt lat="42.3109010" lon="1.7134480">
        <ele>1887.3</ele>
        <time>2015-08-13T13:13:09Z</time>
      </trkpt>
      <trkpt lat="42.3108650" lon="1.7135030">
        <ele>1887.0</ele>
        <time>2015-08-13T13:13:11Z</time>
      </trkpt>
      <trkpt lat="42.3108310" lon="1.7135300">
        <ele>1887.3</ele>
        <time>2015-08-13T13:13:12Z</time>
      </trkpt>
      <trkpt lat="42.3108040" lon="1.7135600">
        <ele>1887.5</ele>
        <time>2015-08-13T13:13:13Z</time>
      </trkpt>
      <trkpt lat="42.3107810" lon="1.7135880">
        <ele>1887.7</ele>
        <time>2015-08-13T13:13:14Z</time>
      </trkpt>
      <trkpt lat="42.3107360" lon="1.7135910">
        <ele>1889.0</ele>
        <time>2015-08-13T13:13:16Z</time>
      </trkpt>
      <trkpt lat="42.3106980" lon="1.7135970">
        <ele>1890.2</ele>
        <time>2015-08-13T13:13:17Z</time>
      </trkpt>
      <trkpt lat="42.3106680" lon="1.7136240">
        <ele>1890.7</ele>
        <time>2015-08-13T13:13:18Z</time>
      </trkpt>
      <trkpt lat="42.3106400" lon="1.7136490">
        <ele>1891.4</ele>
        <time>2015-08-13T13:13:19Z</time>
      </trkpt>
      <trkpt lat="42.3106110" lon="1.7136740">
        <ele>1892.1</ele>
        <time>2015-08-13T13:13:20Z</time>
      </trkpt>
      <trkpt lat="42.3105780" lon="1.7136890">
        <ele>1893.2</ele>
        <time>2015-08-13T13:13:21Z</time>
      </trkpt>
      <trkpt lat="42.3105440" lon="1.7137250">
        <ele>1894.1</ele>
        <time>2015-08-13T13:13:22Z</time>
      </trkpt>
      <trkpt lat="42.3105100" lon="1.7137590">
        <ele>1895.0</ele>
        <time>2015-08-13T13:13:23Z</time>
      </trkpt>
      <trkpt lat="42.3104780" lon="1.7137720">
        <ele>1895.9</ele>
        <time>2015-08-13T13:13:24Z</time>
      </trkpt>
      <trkpt lat="42.3104450" lon="1.7137880">
        <ele>1896.8</ele>
        <time>2015-08-13T13:13:25Z</time>
      </trkpt>
      <trkpt lat="42.3103920" lon="1.7138100">
        <ele>1897.1</ele>
        <time>2015-08-13T13:13:27Z</time>
      </trkpt>
      <trkpt lat="42.3103520" lon="1.7138200">
        <ele>1896.4</ele>
        <time>2015-08-13T13:13:28Z</time>
      </trkpt>
      <trkpt lat="42.3103180" lon="1.7138310">
        <ele>1895.7</ele>
        <time>2015-08-13T13:13:29Z</time>
      </trkpt>
      <trkpt lat="42.3102770" lon="1.7138450">
        <ele>1894.9</ele>
        <time>2015-08-13T13:13:30Z</time>
      </trkpt>
      <trkpt lat="42.3102330" lon="1.7139000">
        <ele>1893.3</ele>
        <time>2015-08-13T13:13:32Z</time>
      </trkpt>
      <trkpt lat="42.3102070" lon="1.7139370">
        <ele>1892.3</ele>
        <time>2015-08-13T13:13:33Z</time>
      </trkpt>
      <trkpt lat="42.3101860" lon="1.7139750">
        <ele>1891.3</ele>
        <time>2015-08-13T13:13:34Z</time>
      </trkpt>
      <trkpt lat="42.3101650" lon="1.7140210">
        <ele>1890.3</ele>
        <time>2015-08-13T13:13:35Z</time>
      </trkpt>
      <trkpt lat="42.3101470" lon="1.7140590">
        <ele>1889.4</ele>
        <time>2015-08-13T13:13:36Z</time>
      </trkpt>
      <trkpt lat="42.3101300" lon="1.7140900">
        <ele>1888.8</ele>
        <time>2015-08-13T13:13:37Z</time>
      </trkpt>
      <trkpt lat="42.3101040" lon="1.7141160">
        <ele>1888.2</ele>
        <time>2015-08-13T13:13:38Z</time>
      </trkpt>
      <trkpt lat="42.3100790" lon="1.7141500">
        <ele>1887.6</ele>
        <time>2015-08-13T13:13:39Z</time>
      </trkpt>
      <trkpt lat="42.3100480" lon="1.7142040">
        <ele>1886.7</ele>
        <time>2015-08-13T13:13:40Z</time>
      </trkpt>
      <trkpt lat="42.3100280" lon="1.7142490">
        <ele>1886.0</ele>
        <time>2015-08-13T13:13:41Z</time>
      </trkpt>
      <trkpt lat="42.3100040" lon="1.7142960">
        <ele>1885.3</ele>
        <time>2015-08-13T13:13:43Z</time>
      </trkpt>
      <trkpt lat="42.3099890" lon="1.7143370">
        <ele>1884.7</ele>
        <time>2015-08-13T13:13:44Z</time>
      </trkpt>
      <trkpt lat="42.3099700" lon="1.7143850">
        <ele>1884.2</ele>
        <time>2015-08-13T13:13:45Z</time>
      </trkpt>
      <trkpt lat="42.3099530" lon="1.7144470">
        <ele>1883.4</ele>
        <time>2015-08-13T13:13:46Z</time>
      </trkpt>
      <trkpt lat="42.3099450" lon="1.7144930">
        <ele>1882.9</ele>
        <time>2015-08-13T13:13:47Z</time>
      </trkpt>
      <trkpt lat="42.3099230" lon="1.7145340">
        <ele>1882.5</ele>
        <time>2015-08-13T13:13:48Z</time>
      </trkpt>
      <trkpt lat="42.3099240" lon="1.7145960">
        <ele>1881.4</ele>
        <time>2015-08-13T13:13:49Z</time>
      </trkpt>
      <trkpt lat="42.3099150" lon="1.7146520">
        <ele>1879.5</ele>
        <time>2015-08-13T13:13:50Z</time>
      </trkpt>
      <trkpt lat="42.3099050" lon="1.7147030">
        <ele>1877.7</ele>
        <time>2015-08-13T13:13:51Z</time>
      </trkpt>
      <trkpt lat="42.3098850" lon="1.7147560">
        <ele>1876.0</ele>
        <time>2015-08-13T13:13:52Z</time>
      </trkpt>
      <trkpt lat="42.3098780" lon="1.7148490">
        <ele>1872.6</ele>
        <time>2015-08-13T13:13:54Z</time>
      </trkpt>
      <trkpt lat="42.3098500" lon="1.7148930">
        <ele>1871.4</ele>
        <time>2015-08-13T13:13:55Z</time>
      </trkpt>
      <trkpt lat="42.3098290" lon="1.7149410">
        <ele>1870.0</ele>
        <time>2015-08-13T13:13:56Z</time>
      </trkpt>
      <trkpt lat="42.3098010" lon="1.7149410">
        <ele>1870.5</ele>
        <time>2015-08-13T13:13:57Z</time>
      </trkpt>
      <trkpt lat="42.3097730" lon="1.7149550">
        <ele>1870.4</ele>
        <time>2015-08-13T13:13:59Z</time>
      </trkpt>
      <trkpt lat="42.3097670" lon="1.7149930">
        <ele>1869.2</ele>
        <time>2015-08-13T13:14:01Z</time>
      </trkpt>
      <trkpt lat="42.3097650" lon="1.7150300">
        <ele>1867.9</ele>
        <time>2015-08-13T13:14:09Z</time>
      </trkpt>
      <trkpt lat="42.3097950" lon="1.7150140">
        <ele>1867.9</ele>
        <time>2015-08-13T13:14:14Z</time>
      </trkpt>
      <trkpt lat="42.3098160" lon="1.7149870">
        <ele>1868.6</ele>
        <time>2015-08-13T13:15:39Z</time>
      </trkpt>
      <trkpt lat="42.3098190" lon="1.7149470">
        <ele>1870.0</ele>
        <time>2015-08-13T13:17:31Z</time>
      </trkpt>
      <trkpt lat="42.3097880" lon="1.7149500">
        <ele>1870.4</ele>
        <time>2015-08-13T13:19:30Z</time>
      </trkpt>
      <trkpt lat="42.3097580" lon="1.7149360">
        <ele>1871.3</ele>
        <time>2015-08-13T13:19:32Z</time>
      </trkpt>
      <trkpt lat="42.3097170" lon="1.7149400">
        <ele>1871.9</ele>
        <time>2015-08-13T13:19:34Z</time>
      </trkpt>
      <trkpt lat="42.3096870" lon="1.7149510">
        <ele>1872.0</ele>
        <time>2015-08-13T13:19:36Z</time>
      </trkpt>
      <trkpt lat="42.3096560" lon="1.7149640">
        <ele>1872.0</ele>
        <time>2015-08-13T13:19:38Z</time>
      </trkpt>
      <trkpt lat="42.3096250" lon="1.7149780">
        <ele>1872.0</ele>
        <time>2015-08-13T13:19:40Z</time>
      </trkpt>
      <trkpt lat="42.3095850" lon="1.7150050">
        <ele>1871.8</ele>
        <time>2015-08-13T13:19:42Z</time>
      </trkpt>
      <trkpt lat="42.3095440" lon="1.7150180">
        <ele>1870.3</ele>
        <time>2015-08-13T13:19:44Z</time>
      </trkpt>
      <trkpt lat="42.3094980" lon="1.7150140">
        <ele>1869.2</ele>
        <time>2015-08-13T13:19:46Z</time>
      </trkpt>
      <trkpt lat="42.3094490" lon="1.7150180">
        <ele>1867.7</ele>
        <time>2015-08-13T13:19:48Z</time>
      </trkpt>
      <trkpt lat="42.3093980" lon="1.7150200">
        <ele>1866.3</ele>
        <time>2015-08-13T13:19:50Z</time>
      </trkpt>
      <trkpt lat="42.3093490" lon="1.7150150">
        <ele>1865.1</ele>
        <time>2015-08-13T13:19:52Z</time>
      </trkpt>
      <trkpt lat="42.3093160" lon="1.7150090">
        <ele>1864.4</ele>
        <time>2015-08-13T13:19:53Z</time>
      </trkpt>
      <trkpt lat="42.3092840" lon="1.7150150">
        <ele>1863.3</ele>
        <time>2015-08-13T13:19:54Z</time>
      </trkpt>
      <trkpt lat="42.3092500" lon="1.7150210">
        <ele>1862.2</ele>
        <time>2015-08-13T13:19:55Z</time>
      </trkpt>
      <trkpt lat="42.3092090" lon="1.7150330">
        <ele>1860.7</ele>
        <time>2015-08-13T13:19:56Z</time>
      </trkpt>
      <trkpt lat="42.3091690" lon="1.7150370">
        <ele>1859.5</ele>
        <time>2015-08-13T13:19:57Z</time>
      </trkpt>
      <trkpt lat="42.3091250" lon="1.7150570">
        <ele>1857.8</ele>
        <time>2015-08-13T13:19:58Z</time>
      </trkpt>
      <trkpt lat="42.3090800" lon="1.7150820">
        <ele>1855.9</ele>
        <time>2015-08-13T13:19:59Z</time>
      </trkpt>
      <trkpt lat="42.3090370" lon="1.7151250">
        <ele>1853.7</ele>
        <time>2015-08-13T13:20:00Z</time>
      </trkpt>
      <trkpt lat="42.3089940" lon="1.7151710">
        <ele>1851.4</ele>
        <time>2015-08-13T13:20:01Z</time>
      </trkpt>
      <trkpt lat="42.3089490" lon="1.7152200">
        <ele>1849.1</ele>
        <time>2015-08-13T13:20:02Z</time>
      </trkpt>
      <trkpt lat="42.3089090" lon="1.7152680">
        <ele>1847.0</ele>
        <time>2015-08-13T13:20:03Z</time>
      </trkpt>
      <trkpt lat="42.3088570" lon="1.7152940">
        <ele>1845.1</ele>
        <time>2015-08-13T13:20:04Z</time>
      </trkpt>
      <trkpt lat="42.3088060" lon="1.7152820">
        <ele>1844.2</ele>
        <time>2015-08-13T13:20:05Z</time>
      </trkpt>
      <trkpt lat="42.3087630" lon="1.7152280">
        <ele>1844.4</ele>
        <time>2015-08-13T13:20:06Z</time>
      </trkpt>
      <trkpt lat="42.3087320" lon="1.7151530">
        <ele>1845.4</ele>
        <time>2015-08-13T13:20:07Z</time>
      </trkpt>
      <trkpt lat="42.3087040" lon="1.7150860">
        <ele>1846.4</ele>
        <time>2015-08-13T13:20:08Z</time>
      </trkpt>
      <trkpt lat="42.3086680" lon="1.7150110">
        <ele>1847.5</ele>
        <time>2015-08-13T13:20:09Z</time>
      </trkpt>
      <trkpt lat="42.3086310" lon="1.7149470">
        <ele>1848.3</ele>
        <time>2015-08-13T13:20:10Z</time>
      </trkpt>
      <trkpt lat="42.3085930" lon="1.7148900">
        <ele>1849.0</ele>
        <time>2015-08-13T13:20:11Z</time>
      </trkpt>
      <trkpt lat="42.3085560" lon="1.7148400">
        <ele>1849.5</ele>
        <time>2015-08-13T13:20:12Z</time>
      </trkpt>
      <trkpt lat="42.3085120" lon="1.7147930">
        <ele>1849.9</ele>
        <time>2015-08-13T13:20:13Z</time>
      </trkpt>
      <trkpt lat="42.3084760" lon="1.7147260">
        <ele>1850.9</ele>
        <time>2015-08-13T13:20:14Z</time>
      </trkpt>
      <trkpt lat="42.3084340" lon="1.7146750">
        <ele>1851.4</ele>
        <time>2015-08-13T13:20:15Z</time>
      </trkpt>
      <trkpt lat="42.3084200" lon="1.7146370">
        <ele>1852.0</ele>
        <time>2015-08-13T13:20:16Z</time>
      </trkpt>
      <trkpt lat="42.3083800" lon="1.7145980">
        <ele>1852.3</ele>
        <time>2015-08-13T13:20:18Z</time>
      </trkpt>
      <trkpt lat="42.3083850" lon="1.7145600">
        <ele>1852.7</ele>
        <time>2015-08-13T13:21:14Z</time>
      </trkpt>
      <trkpt lat="42.3083690" lon="1.7145060">
        <ele>1852.5</ele>
        <time>2015-08-13T13:21:16Z</time>
      </trkpt>
      <trkpt lat="42.3083540" lon="1.7144660">
        <ele>1852.3</ele>
        <time>2015-08-13T13:21:17Z</time>
      </trkpt>
      <trkpt lat="42.3083390" lon="1.7144200">
        <ele>1852.1</ele>
        <time>2015-08-13T13:21:18Z</time>
      </trkpt>
      <trkpt lat="42.3083200" lon="1.7143610">
        <ele>1851.8</ele>
        <time>2015-08-13T13:21:19Z</time>
      </trkpt>
      <trkpt lat="42.3083040" lon="1.7142980">
        <ele>1851.6</ele>
        <time>2015-08-13T13:21:20Z</time>
      </trkpt>
      <trkpt lat="42.3082880" lon="1.7142400">
        <ele>1851.4</ele>
        <time>2015-08-13T13:21:21Z</time>
      </trkpt>
      <trkpt lat="42.3082580" lon="1.7141800">
        <ele>1851.0</ele>
        <time>2015-08-13T13:21:22Z</time>
      </trkpt>
      <trkpt lat="42.3082210" lon="1.7141670">
        <ele>1850.5</ele>
        <time>2015-08-13T13:21:23Z</time>
      </trkpt>
      <trkpt lat="42.3081790" lon="1.7141320">
        <ele>1850.0</ele>
        <time>2015-08-13T13:21:24Z</time>
      </trkpt>
      <trkpt lat="42.3080690" lon="1.7141290">
        <ele>1848.5</ele>
        <time>2015-08-13T13:21:25Z</time>
      </trkpt>
      <trkpt lat="42.3080130" lon="1.7140960">
        <ele>1847.8</ele>
        <time>2015-08-13T13:21:26Z</time>
      </trkpt>
      <trkpt lat="42.3079480" lon="1.7141050">
        <ele>1847.0</ele>
        <time>2015-08-13T13:21:27Z</time>
      </trkpt>
      <trkpt lat="42.3078830" lon="1.7141060">
        <ele>1847.2</ele>
        <time>2015-08-13T13:21:28Z</time>
      </trkpt>
      <trkpt lat="42.3078220" lon="1.7141160">
        <ele>1848.2</ele>
        <time>2015-08-13T13:21:29Z</time>
      </trkpt>
      <trkpt lat="42.3077610" lon="1.7141420">
        <ele>1849.1</ele>
        <time>2015-08-13T13:21:30Z</time>
      </trkpt>
      <trkpt lat="42.3077390" lon="1.7141720">
        <ele>1849.4</ele>
        <time>2015-08-13T13:21:31Z</time>
      </trkpt>
      <trkpt lat="42.3077070" lon="1.7141900">
        <ele>1849.8</ele>
        <time>2015-08-13T13:21:32Z</time>
      </trkpt>
      <trkpt lat="42.3076800" lon="1.7142420">
        <ele>1850.0</ele>
        <time>2015-08-13T13:21:33Z</time>
      </trkpt>
      <trkpt lat="42.3076490" lon="1.7142870">
        <ele>1850.2</ele>
        <time>2015-08-13T13:21:35Z</time>
      </trkpt>
      <trkpt lat="42.3076200" lon="1.7143180">
        <ele>1850.4</ele>
        <time>2015-08-13T13:21:37Z</time>
      </trkpt>
      <trkpt lat="42.3075870" lon="1.7143480">
        <ele>1850.7</ele>
        <time>2015-08-13T13:21:42Z</time>
      </trkpt>
      <trkpt lat="42.3075590" lon="1.7143740">
        <ele>1850.9</ele>
        <time>2015-08-13T13:21:45Z</time>
      </trkpt>
      <trkpt lat="42.3075260" lon="1.7143820">
        <ele>1851.2</ele>
        <time>2015-08-13T13:21:46Z</time>
      </trkpt>
      <trkpt lat="42.3074930" lon="1.7143940">
        <ele>1851.6</ele>
        <time>2015-08-13T13:21:49Z</time>
      </trkpt>
      <trkpt lat="42.3074620" lon="1.7144290">
        <ele>1851.7</ele>
        <time>2015-08-13T13:21:51Z</time>
      </trkpt>
      <trkpt lat="42.3074220" lon="1.7144610">
        <ele>1851.9</ele>
        <time>2015-08-13T13:21:53Z</time>
      </trkpt>
      <trkpt lat="42.3073910" lon="1.7144560">
        <ele>1852.3</ele>
        <time>2015-08-13T13:21:55Z</time>
      </trkpt>
      <trkpt lat="42.3073640" lon="1.7144680">
        <ele>1852.5</ele>
        <time>2015-08-13T13:21:57Z</time>
      </trkpt>
      <trkpt lat="42.3073320" lon="1.7144520">
        <ele>1853.0</ele>
        <time>2015-08-13T13:21:59Z</time>
      </trkpt>
      <trkpt lat="42.3072990" lon="1.7144500">
        <ele>1853.4</ele>
        <time>2015-08-13T13:22:01Z</time>
      </trkpt>
      <trkpt lat="42.3072700" lon="1.7144630">
        <ele>1853.6</ele>
        <time>2015-08-13T13:22:03Z</time>
      </trkpt>
      <trkpt lat="42.3072450" lon="1.7144350">
        <ele>1854.2</ele>
        <time>2015-08-13T13:22:05Z</time>
      </trkpt>
      <trkpt lat="42.3072210" lon="1.7144090">
        <ele>1854.8</ele>
        <time>2015-08-13T13:22:07Z</time>
      </trkpt>
      <trkpt lat="42.3071840" lon="1.7144060">
        <ele>1855.3</ele>
        <time>2015-08-13T13:22:10Z</time>
      </trkpt>
      <trkpt lat="42.3071620" lon="1.7143790">
        <ele>1855.9</ele>
        <time>2015-08-13T13:22:13Z</time>
      </trkpt>
      <trkpt lat="42.3071270" lon="1.7143600">
        <ele>1856.6</ele>
        <time>2015-08-13T13:22:16Z</time>
      </trkpt>
      <trkpt lat="42.3070970" lon="1.7143250">
        <ele>1857.5</ele>
        <time>2015-08-13T13:22:19Z</time>
      </trkpt>
      <trkpt lat="42.3070630" lon="1.7143040">
        <ele>1858.6</ele>
        <time>2015-08-13T13:22:22Z</time>
      </trkpt>
      <trkpt lat="42.3070340" lon="1.7142760">
        <ele>1859.8</ele>
        <time>2015-08-13T13:22:25Z</time>
      </trkpt>
      <trkpt lat="42.3070120" lon="1.7142530">
        <ele>1860.8</ele>
        <time>2015-08-13T13:22:29Z</time>
      </trkpt>
      <trkpt lat="42.3069840" lon="1.7142440">
        <ele>1861.7</ele>
        <time>2015-08-13T13:22:31Z</time>
      </trkpt>
      <trkpt lat="42.3069610" lon="1.7142190">
        <ele>1862.7</ele>
        <time>2015-08-13T13:22:33Z</time>
      </trkpt>
      <trkpt lat="42.3069360" lon="1.7141900">
        <ele>1863.9</ele>
        <time>2015-08-13T13:22:35Z</time>
      </trkpt>
      <trkpt lat="42.3069180" lon="1.7141600">
        <ele>1864.9</ele>
        <time>2015-08-13T13:22:37Z</time>
      </trkpt>
      <trkpt lat="42.3068900" lon="1.7141450">
        <ele>1865.9</ele>
        <time>2015-08-13T13:22:39Z</time>
      </trkpt>
      <trkpt lat="42.3068620" lon="1.7141360">
        <ele>1866.9</ele>
        <time>2015-08-13T13:22:41Z</time>
      </trkpt>
      <trkpt lat="42.3068380" lon="1.7140930">
        <ele>1868.2</ele>
        <time>2015-08-13T13:22:43Z</time>
      </trkpt>
      <trkpt lat="42.3068110" lon="1.7140850">
        <ele>1869.1</ele>
        <time>2015-08-13T13:22:45Z</time>
      </trkpt>
      <trkpt lat="42.3067770" lon="1.7140700">
        <ele>1870.4</ele>
        <time>2015-08-13T13:22:48Z</time>
      </trkpt>
      <trkpt lat="42.3067520" lon="1.7140490">
        <ele>1871.5</ele>
        <time>2015-08-13T13:22:50Z</time>
      </trkpt>
      <trkpt lat="42.3067190" lon="1.7140550">
        <ele>1872.3</ele>
        <time>2015-08-13T13:22:53Z</time>
      </trkpt>
      <trkpt lat="42.3066930" lon="1.7140700">
        <ele>1872.9</ele>
        <time>2015-08-13T13:22:55Z</time>
      </trkpt>
      <trkpt lat="42.3066670" lon="1.7140880">
        <ele>1873.3</ele>
        <time>2015-08-13T13:22:57Z</time>
      </trkpt>
      <trkpt lat="42.3066410" lon="1.7141010">
        <ele>1873.9</ele>
        <time>2015-08-13T13:22:59Z</time>
      </trkpt>
      <trkpt lat="42.3066120" lon="1.7141100">
        <ele>1874.5</ele>
        <time>2015-08-13T13:23:02Z</time>
      </trkpt>
      <trkpt lat="42.3065800" lon="1.7141440">
        <ele>1874.9</ele>
        <time>2015-08-13T13:23:05Z</time>
      </trkpt>
      <trkpt lat="42.3065590" lon="1.7141180">
        <ele>1875.9</ele>
        <time>2015-08-13T13:23:07Z</time>
      </trkpt>
      <trkpt lat="42.3065310" lon="1.7141240">
        <ele>1876.7</ele>
        <time>2015-08-13T13:23:09Z</time>
      </trkpt>
      <trkpt lat="42.3065050" lon="1.7141300">
        <ele>1877.3</ele>
        <time>2015-08-13T13:23:11Z</time>
      </trkpt>
      <trkpt lat="42.3064780" lon="1.7141170">
        <ele>1878.3</ele>
        <time>2015-08-13T13:23:13Z</time>
      </trkpt>
      <trkpt lat="42.3064460" lon="1.7140840">
        <ele>1879.8</ele>
        <time>2015-08-13T13:23:15Z</time>
      </trkpt>
      <trkpt lat="42.3064180" lon="1.7141150">
        <ele>1880.1</ele>
        <time>2015-08-13T13:23:17Z</time>
      </trkpt>
      <trkpt lat="42.3064000" lon="1.7141440">
        <ele>1880.1</ele>
        <time>2015-08-13T13:23:19Z</time>
      </trkpt>
      <trkpt lat="42.3063660" lon="1.7141530">
        <ele>1880.9</ele>
        <time>2015-08-13T13:23:22Z</time>
      </trkpt>
      <trkpt lat="42.3063350" lon="1.7141740">
        <ele>1881.4</ele>
        <time>2015-08-13T13:23:25Z</time>
      </trkpt>
      <trkpt lat="42.3063020" lon="1.7141660">
        <ele>1882.5</ele>
        <time>2015-08-13T13:23:28Z</time>
      </trkpt>
      <trkpt lat="42.3062740" lon="1.7141460">
        <ele>1883.7</ele>
        <time>2015-08-13T13:23:30Z</time>
      </trkpt>
      <trkpt lat="42.3062440" lon="1.7141740">
        <ele>1883.9</ele>
        <time>2015-08-13T13:23:32Z</time>
      </trkpt>
      <trkpt lat="42.3062170" lon="1.7141870">
        <ele>1884.0</ele>
        <time>2015-08-13T13:23:34Z</time>
      </trkpt>
      <trkpt lat="42.3061770" lon="1.7141810">
        <ele>1884.5</ele>
        <time>2015-08-13T13:23:37Z</time>
      </trkpt>
      <trkpt lat="42.3061430" lon="1.7141980">
        <ele>1884.5</ele>
        <time>2015-08-13T13:23:41Z</time>
      </trkpt>
      <trkpt lat="42.3061090" lon="1.7142170">
        <ele>1884.5</ele>
        <time>2015-08-13T13:23:44Z</time>
      </trkpt>
      <trkpt lat="42.3060850" lon="1.7142430">
        <ele>1884.2</ele>
        <time>2015-08-13T13:23:48Z</time>
      </trkpt>
      <trkpt lat="42.3060610" lon="1.7142760">
        <ele>1883.8</ele>
        <time>2015-08-13T13:23:50Z</time>
      </trkpt>
      <trkpt lat="42.3060400" lon="1.7143090">
        <ele>1883.4</ele>
        <time>2015-08-13T13:23:52Z</time>
      </trkpt>
      <trkpt lat="42.3060130" lon="1.7143190">
        <ele>1883.4</ele>
        <time>2015-08-13T13:23:54Z</time>
      </trkpt>
      <trkpt lat="42.3059870" lon="1.7143510">
        <ele>1883.0</ele>
        <time>2015-08-13T13:23:56Z</time>
      </trkpt>
      <trkpt lat="42.3059820" lon="1.7143960">
        <ele>1882.1</ele>
        <time>2015-08-13T13:23:58Z</time>
      </trkpt>
      <trkpt lat="42.3059880" lon="1.7144440">
        <ele>1881.1</ele>
        <time>2015-08-13T13:24:00Z</time>
      </trkpt>
      <trkpt lat="42.3059610" lon="1.7144470">
        <ele>1881.3</ele>
        <time>2015-08-13T13:24:01Z</time>
      </trkpt>
      <trkpt lat="42.3059280" lon="1.7144920">
        <ele>1880.6</ele>
        <time>2015-08-13T13:24:03Z</time>
      </trkpt>
      <trkpt lat="42.3059010" lon="1.7145350">
        <ele>1880.0</ele>
        <time>2015-08-13T13:24:09Z</time>
      </trkpt>
      <trkpt lat="42.3058660" lon="1.7145600">
        <ele>1879.7</ele>
        <time>2015-08-13T13:24:11Z</time>
      </trkpt>
      <trkpt lat="42.3058320" lon="1.7145910">
        <ele>1879.3</ele>
        <time>2015-08-13T13:24:13Z</time>
      </trkpt>
      <trkpt lat="42.3057940" lon="1.7146010">
        <ele>1879.4</ele>
        <time>2015-08-13T13:24:15Z</time>
      </trkpt>
      <trkpt lat="42.3057920" lon="1.7146420">
        <ele>1878.5</ele>
        <time>2015-08-13T13:24:16Z</time>
      </trkpt>
      <trkpt lat="42.3057680" lon="1.7146720">
        <ele>1878.0</ele>
        <time>2015-08-13T13:24:18Z</time>
      </trkpt>
      <trkpt lat="42.3057450" lon="1.7147110">
        <ele>1877.2</ele>
        <time>2015-08-13T13:24:20Z</time>
      </trkpt>
      <trkpt lat="42.3057190" lon="1.7147370">
        <ele>1876.8</ele>
        <time>2015-08-13T13:24:22Z</time>
      </trkpt>
      <trkpt lat="42.3056860" lon="1.7147600">
        <ele>1876.6</ele>
        <time>2015-08-13T13:24:25Z</time>
      </trkpt>
      <trkpt lat="42.3056460" lon="1.7147560">
        <ele>1877.0</ele>
        <time>2015-08-13T13:24:27Z</time>
      </trkpt>
      <trkpt lat="42.3056150" lon="1.7147470">
        <ele>1877.5</ele>
        <time>2015-08-13T13:24:30Z</time>
      </trkpt>
      <trkpt lat="42.3055910" lon="1.7147640">
        <ele>1877.2</ele>
        <time>2015-08-13T13:24:32Z</time>
      </trkpt>
      <trkpt lat="42.3055980" lon="1.7147280">
        <ele>1878.0</ele>
        <time>2015-08-13T13:24:33Z</time>
      </trkpt>
      <trkpt lat="42.3055600" lon="1.7147160">
        <ele>1878.6</ele>
        <time>2015-08-13T13:24:36Z</time>
      </trkpt>
      <trkpt lat="42.3055270" lon="1.7147370">
        <ele>1878.4</ele>
        <time>2015-08-13T13:24:38Z</time>
      </trkpt>
      <trkpt lat="42.3054940" lon="1.7147580">
        <ele>1878.2</ele>
        <time>2015-08-13T13:24:40Z</time>
      </trkpt>
      <trkpt lat="42.3054660" lon="1.7147220">
        <ele>1879.3</ele>
        <time>2015-08-13T13:24:43Z</time>
      </trkpt>
      <trkpt lat="42.3054370" lon="1.7147240">
        <ele>1879.5</ele>
        <time>2015-08-13T13:24:45Z</time>
      </trkpt>
      <trkpt lat="42.3053970" lon="1.7147110">
        <ele>1880.1</ele>
        <time>2015-08-13T13:24:49Z</time>
      </trkpt>
      <trkpt lat="42.3053650" lon="1.7147150">
        <ele>1880.2</ele>
        <time>2015-08-13T13:24:52Z</time>
      </trkpt>
      <trkpt lat="42.3053330" lon="1.7147010">
        <ele>1880.8</ele>
        <time>2015-08-13T13:24:55Z</time>
      </trkpt>
      <trkpt lat="42.3052980" lon="1.7146840">
        <ele>1881.4</ele>
        <time>2015-08-13T13:25:00Z</time>
      </trkpt>
      <trkpt lat="42.3052670" lon="1.7146420">
        <ele>1882.6</ele>
        <time>2015-08-13T13:25:03Z</time>
      </trkpt>
      <trkpt lat="42.3052320" lon="1.7146360">
        <ele>1883.0</ele>
        <time>2015-08-13T13:25:06Z</time>
      </trkpt>
      <trkpt lat="42.3052110" lon="1.7145990">
        <ele>1884.1</ele>
        <time>2015-08-13T13:25:08Z</time>
      </trkpt>
      <trkpt lat="42.3051820" lon="1.7145550">
        <ele>1885.4</ele>
        <time>2015-08-13T13:25:11Z</time>
      </trkpt>
      <trkpt lat="42.3051780" lon="1.7145130">
        <ele>1886.5</ele>
        <time>2015-08-13T13:25:13Z</time>
      </trkpt>
      <trkpt lat="42.3051660" lon="1.7144580">
        <ele>1888.0</ele>
        <time>2015-08-13T13:25:15Z</time>
      </trkpt>
      <trkpt lat="42.3051300" lon="1.7144450">
        <ele>1888.6</ele>
        <time>2015-08-13T13:25:19Z</time>
      </trkpt>
      <trkpt lat="42.3051060" lon="1.7144190">
        <ele>1889.5</ele>
        <time>2015-08-13T13:25:21Z</time>
      </trkpt>
      <trkpt lat="42.3050800" lon="1.7143940">
        <ele>1890.3</ele>
        <time>2015-08-13T13:25:23Z</time>
      </trkpt>
      <trkpt lat="42.3050680" lon="1.7143600">
        <ele>1891.3</ele>
        <time>2015-08-13T13:25:26Z</time>
      </trkpt>
      <trkpt lat="42.3050410" lon="1.7143370">
        <ele>1892.1</ele>
        <time>2015-08-13T13:25:29Z</time>
      </trkpt>
      <trkpt lat="42.3050100" lon="1.7143150">
        <ele>1893.0</ele>
        <time>2015-08-13T13:25:32Z</time>
      </trkpt>
      <trkpt lat="42.3050060" lon="1.7142570">
        <ele>1894.6</ele>
        <time>2015-08-13T13:25:36Z</time>
      </trkpt>
      <trkpt lat="42.3049700" lon="1.7142500">
        <ele>1895.1</ele>
        <time>2015-08-13T13:25:38Z</time>
      </trkpt>
      <trkpt lat="42.3049480" lon="1.7142250">
        <ele>1895.9</ele>
        <time>2015-08-13T13:25:41Z</time>
      </trkpt>
      <trkpt lat="42.3049190" lon="1.7141950">
        <ele>1897.0</ele>
        <time>2015-08-13T13:25:44Z</time>
      </trkpt>
      <trkpt lat="42.3048830" lon="1.7141900">
        <ele>1897.5</ele>
        <time>2015-08-13T13:25:47Z</time>
      </trkpt>
      <trkpt lat="42.3048570" lon="1.7141720">
        <ele>1898.2</ele>
        <time>2015-08-13T13:25:49Z</time>
      </trkpt>
      <trkpt lat="42.3048230" lon="1.7141580">
        <ele>1898.9</ele>
        <time>2015-08-13T13:25:50Z</time>
      </trkpt>
      <trkpt lat="42.3047880" lon="1.7141450">
        <ele>1899.6</ele>
        <time>2015-08-13T13:25:51Z</time>
      </trkpt>
      <trkpt lat="42.3047600" lon="1.7141440">
        <ele>1899.9</ele>
        <time>2015-08-13T13:25:54Z</time>
      </trkpt>
      <trkpt lat="42.3047250" lon="1.7141290">
        <ele>1900.7</ele>
        <time>2015-08-13T13:25:57Z</time>
      </trkpt>
      <trkpt lat="42.3047010" lon="1.7141030">
        <ele>1901.7</ele>
        <time>2015-08-13T13:25:59Z</time>
      </trkpt>
      <trkpt lat="42.3046610" lon="1.7140870">
        <ele>1902.5</ele>
        <time>2015-08-13T13:26:02Z</time>
      </trkpt>
      <trkpt lat="42.3046200" lon="1.7140800">
        <ele>1903.1</ele>
        <time>2015-08-13T13:26:04Z</time>
      </trkpt>
      <trkpt lat="42.3045970" lon="1.7140560">
        <ele>1904.0</ele>
        <time>2015-08-13T13:26:06Z</time>
      </trkpt>
      <trkpt lat="42.3045700" lon="1.7140340">
        <ele>1905.2</ele>
        <time>2015-08-13T13:26:09Z</time>
      </trkpt>
      <trkpt lat="42.3045470" lon="1.7139960">
        <ele>1907.0</ele>
        <time>2015-08-13T13:26:12Z</time>
      </trkpt>
      <trkpt lat="42.3045170" lon="1.7139790">
        <ele>1908.4</ele>
        <time>2015-08-13T13:26:14Z</time>
      </trkpt>
      <trkpt lat="42.3044870" lon="1.7139710">
        <ele>1909.6</ele>
        <time>2015-08-13T13:26:16Z</time>
      </trkpt>
      <trkpt lat="42.3044580" lon="1.7139670">
        <ele>1910.6</ele>
        <time>2015-08-13T13:26:18Z</time>
      </trkpt>
      <trkpt lat="42.3044250" lon="1.7139710">
        <ele>1911.5</ele>
        <time>2015-08-13T13:26:21Z</time>
      </trkpt>
      <trkpt lat="42.3044000" lon="1.7139850">
        <ele>1911.8</ele>
        <time>2015-08-13T13:26:23Z</time>
      </trkpt>
      <trkpt lat="42.3043760" lon="1.7140060">
        <ele>1911.9</ele>
        <time>2015-08-13T13:26:25Z</time>
      </trkpt>
      <trkpt lat="42.3043430" lon="1.7140330">
        <ele>1912.0</ele>
        <time>2015-08-13T13:26:28Z</time>
      </trkpt>
      <trkpt lat="42.3043120" lon="1.7140570">
        <ele>1912.2</ele>
        <time>2015-08-13T13:26:30Z</time>
      </trkpt>
      <trkpt lat="42.3042850" lon="1.7140630">
        <ele>1912.8</ele>
        <time>2015-08-13T13:26:32Z</time>
      </trkpt>
      <trkpt lat="42.3042530" lon="1.7140520">
        <ele>1914.1</ele>
        <time>2015-08-13T13:26:35Z</time>
      </trkpt>
      <trkpt lat="42.3042220" lon="1.7140180">
        <ele>1916.2</ele>
        <time>2015-08-13T13:26:37Z</time>
      </trkpt>
      <trkpt lat="42.3041920" lon="1.7140350">
        <ele>1916.5</ele>
        <time>2015-08-13T13:26:39Z</time>
      </trkpt>
      <trkpt lat="42.3041640" lon="1.7140690">
        <ele>1916.2</ele>
        <time>2015-08-13T13:26:42Z</time>
      </trkpt>
      <trkpt lat="42.3041440" lon="1.7141050">
        <ele>1915.5</ele>
        <time>2015-08-13T13:26:45Z</time>
      </trkpt>
      <trkpt lat="42.3041070" lon="1.7141310">
        <ele>1915.7</ele>
        <time>2015-08-13T13:26:47Z</time>
      </trkpt>
      <trkpt lat="42.3040760" lon="1.7141630">
        <ele>1915.4</ele>
        <time>2015-08-13T13:26:50Z</time>
      </trkpt>
      <trkpt lat="42.3040530" lon="1.7141900">
        <ele>1915.1</ele>
        <time>2015-08-13T13:26:52Z</time>
      </trkpt>
      <trkpt lat="42.3040190" lon="1.7141990">
        <ele>1915.7</ele>
        <time>2015-08-13T13:26:55Z</time>
      </trkpt>
      <trkpt lat="42.3039840" lon="1.7141860">
        <ele>1917.2</ele>
        <time>2015-08-13T13:26:58Z</time>
      </trkpt>
      <trkpt lat="42.3039560" lon="1.7141810">
        <ele>1918.2</ele>
        <time>2015-08-13T13:27:01Z</time>
      </trkpt>
      <trkpt lat="42.3039340" lon="1.7141410">
        <ele>1920.3</ele>
        <time>2015-08-13T13:27:04Z</time>
      </trkpt>
      <trkpt lat="42.3038900" lon="1.7141050">
        <ele>1922.9</ele>
        <time>2015-08-13T13:27:39Z</time>
      </trkpt>
      <trkpt lat="42.3038840" lon="1.7140570">
        <ele>1924.9</ele>
        <time>2015-08-13T13:27:41Z</time>
      </trkpt>
      <trkpt lat="42.3038970" lon="1.7140180">
        <ele>1926.0</ele>
        <time>2015-08-13T13:27:43Z</time>
      </trkpt>
      <trkpt lat="42.3039050" lon="1.7139760">
        <ele>1927.3</ele>
        <time>2015-08-13T13:27:46Z</time>
      </trkpt>
      <trkpt lat="42.3039180" lon="1.7139390">
        <ele>1928.3</ele>
        <time>2015-08-13T13:27:48Z</time>
      </trkpt>
      <trkpt lat="42.3039470" lon="1.7139050">
        <ele>1928.6</ele>
        <time>2015-08-13T13:27:50Z</time>
      </trkpt>
      <trkpt lat="42.3039800" lon="1.7139010">
        <ele>1927.7</ele>
        <time>2015-08-13T13:27:53Z</time>
      </trkpt>
      <trkpt lat="42.3040190" lon="1.7138990">
        <ele>1926.6</ele>
        <time>2015-08-13T13:27:56Z</time>
      </trkpt>
      <trkpt lat="42.3040350" lon="1.7138660">
        <ele>1927.3</ele>
        <time>2015-08-13T13:28:00Z</time>
      </trkpt>
      <trkpt lat="42.3040550" lon="1.7138350">
        <ele>1927.7</ele>
        <time>2015-08-13T13:28:02Z</time>
      </trkpt>
      <trkpt lat="42.3040700" lon="1.7137880">
        <ele>1928.9</ele>
        <time>2015-08-13T13:28:04Z</time>
      </trkpt>
      <trkpt lat="42.3041060" lon="1.7137700">
        <ele>1928.3</ele>
        <time>2015-08-13T13:28:06Z</time>
      </trkpt>
      <trkpt lat="42.3041320" lon="1.7137230">
        <ele>1929.0</ele>
        <time>2015-08-13T13:28:09Z</time>
      </trkpt>
      <trkpt lat="42.3041780" lon="1.7136890">
        <ele>1928.4</ele>
        <time>2015-08-13T13:28:12Z</time>
      </trkpt>
      <trkpt lat="42.3042110" lon="1.7136650">
        <ele>1928.0</ele>
        <time>2015-08-13T13:28:15Z</time>
      </trkpt>
      <trkpt lat="42.3042340" lon="1.7136220">
        <ele>1928.5</ele>
        <time>2015-08-13T13:28:18Z</time>
      </trkpt>
      <trkpt lat="42.3042570" lon="1.7135980">
        <ele>1928.5</ele>
        <time>2015-08-13T13:28:20Z</time>
      </trkpt>
      <trkpt lat="42.3042850" lon="1.7135690">
        <ele>1928.4</ele>
        <time>2015-08-13T13:28:23Z</time>
      </trkpt>
      <trkpt lat="42.3043090" lon="1.7135320">
        <ele>1928.7</ele>
        <time>2015-08-13T13:28:26Z</time>
      </trkpt>
      <trkpt lat="42.3043410" lon="1.7135040">
        <ele>1928.4</ele>
        <time>2015-08-13T13:28:29Z</time>
      </trkpt>
      <trkpt lat="42.3043770" lon="1.7134810">
        <ele>1927.9</ele>
        <time>2015-08-13T13:28:32Z</time>
      </trkpt>
      <trkpt lat="42.3044090" lon="1.7134700">
        <ele>1927.2</ele>
        <time>2015-08-13T13:28:37Z</time>
      </trkpt>
      <trkpt lat="42.3044290" lon="1.7134290">
        <ele>1927.7</ele>
        <time>2015-08-13T13:28:40Z</time>
      </trkpt>
      <trkpt lat="42.3044500" lon="1.7134040">
        <ele>1927.8</ele>
        <time>2015-08-13T13:28:44Z</time>
      </trkpt>
      <trkpt lat="42.3044760" lon="1.7133730">
        <ele>1927.9</ele>
        <time>2015-08-13T13:28:47Z</time>
      </trkpt>
      <trkpt lat="42.3044950" lon="1.7133410">
        <ele>1928.2</ele>
        <time>2015-08-13T13:28:49Z</time>
      </trkpt>
      <trkpt lat="42.3045220" lon="1.7133510">
        <ele>1927.0</ele>
        <time>2015-08-13T13:28:51Z</time>
      </trkpt>
      <trkpt lat="42.3045520" lon="1.7133290">
        <ele>1926.7</ele>
        <time>2015-08-13T13:28:55Z</time>
      </trkpt>
      <trkpt lat="42.3045650" lon="1.7132930">
        <ele>1927.3</ele>
        <time>2015-08-13T13:28:58Z</time>
      </trkpt>
      <trkpt lat="42.3046030" lon="1.7133090">
        <ele>1925.9</ele>
        <time>2015-08-13T13:29:00Z</time>
      </trkpt>
      <trkpt lat="42.3046400" lon="1.7133190">
        <ele>1924.9</ele>
        <time>2015-08-13T13:29:02Z</time>
      </trkpt>
      <trkpt lat="42.3046610" lon="1.7132790">
        <ele>1925.6</ele>
        <time>2015-08-13T13:29:04Z</time>
      </trkpt>
      <trkpt lat="42.3046970" lon="1.7132590">
        <ele>1925.5</ele>
        <time>2015-08-13T13:29:06Z</time>
      </trkpt>
      <trkpt lat="42.3047310" lon="1.7132670">
        <ele>1924.6</ele>
        <time>2015-08-13T13:29:08Z</time>
      </trkpt>
      <trkpt lat="42.3047610" lon="1.7132790">
        <ele>1923.7</ele>
        <time>2015-08-13T13:29:10Z</time>
      </trkpt>
      <trkpt lat="42.3047960" lon="1.7132530">
        <ele>1923.7</ele>
        <time>2015-08-13T13:29:13Z</time>
      </trkpt>
      <trkpt lat="42.3048230" lon="1.7132500">
        <ele>1923.2</ele>
        <time>2015-08-13T13:29:15Z</time>
      </trkpt>
      <trkpt lat="42.3048580" lon="1.7132620">
        <ele>1922.2</ele>
        <time>2015-08-13T13:29:17Z</time>
      </trkpt>
      <trkpt lat="42.3048910" lon="1.7132770">
        <ele>1921.2</ele>
        <time>2015-08-13T13:29:19Z</time>
      </trkpt>
      <trkpt lat="42.3049160" lon="1.7132940">
        <ele>1920.3</ele>
        <time>2015-08-13T13:29:23Z</time>
      </trkpt>
      <trkpt lat="42.3049720" lon="1.7132870">
        <ele>1919.4</ele>
        <time>2015-08-13T13:29:25Z</time>
      </trkpt>
      <trkpt lat="42.3050110" lon="1.7132710">
        <ele>1919.0</ele>
        <time>2015-08-13T13:29:27Z</time>
      </trkpt>
      <trkpt lat="42.3050390" lon="1.7132450">
        <ele>1919.0</ele>
        <time>2015-08-13T13:29:31Z</time>
      </trkpt>
      <trkpt lat="42.3050730" lon="1.7132370">
        <ele>1918.5</ele>
        <time>2015-08-13T13:29:33Z</time>
      </trkpt>
      <trkpt lat="42.3051170" lon="1.7132490">
        <ele>1917.4</ele>
        <time>2015-08-13T13:29:36Z</time>
      </trkpt>
      <trkpt lat="42.3051460" lon="1.7132390">
        <ele>1917.0</ele>
        <time>2015-08-13T13:29:38Z</time>
      </trkpt>
      <trkpt lat="42.3051810" lon="1.7132360">
        <ele>1916.4</ele>
        <time>2015-08-13T13:29:39Z</time>
      </trkpt>
      <trkpt lat="42.3052170" lon="1.7132270">
        <ele>1915.8</ele>
        <time>2015-08-13T13:29:40Z</time>
      </trkpt>
      <trkpt lat="42.3052260" lon="1.7131910">
        <ele>1916.4</ele>
        <time>2015-08-13T13:29:41Z</time>
      </trkpt>
      <trkpt lat="42.3052540" lon="1.7131750">
        <ele>1916.1</ele>
        <time>2015-08-13T13:29:46Z</time>
      </trkpt>
      <trkpt lat="42.3052790" lon="1.7131600">
        <ele>1915.9</ele>
        <time>2015-08-13T13:29:48Z</time>
      </trkpt>
      <trkpt lat="42.3053160" lon="1.7131700">
        <ele>1914.9</ele>
        <time>2015-08-13T13:29:50Z</time>
      </trkpt>
      <trkpt lat="42.3053490" lon="1.7131890">
        <ele>1913.8</ele>
        <time>2015-08-13T13:29:53Z</time>
      </trkpt>
      <trkpt lat="42.3053870" lon="1.7131590">
        <ele>1913.6</ele>
        <time>2015-08-13T13:29:55Z</time>
      </trkpt>
      <trkpt lat="42.3054260" lon="1.7131510">
        <ele>1912.7</ele>
        <time>2015-08-13T13:29:57Z</time>
      </trkpt>
      <trkpt lat="42.3054530" lon="1.7131490">
        <ele>1911.9</ele>
        <time>2015-08-13T13:29:58Z</time>
      </trkpt>
      <trkpt lat="42.3054860" lon="1.7131430">
        <ele>1910.8</ele>
        <time>2015-08-13T13:29:59Z</time>
      </trkpt>
      <trkpt lat="42.3055090" lon="1.7131060">
        <ele>1910.5</ele>
        <time>2015-08-13T13:30:02Z</time>
      </trkpt>
      <trkpt lat="42.3055400" lon="1.7131040">
        <ele>1909.5</ele>
        <time>2015-08-13T13:30:04Z</time>
      </trkpt>
      <trkpt lat="42.3055370" lon="1.7130570">
        <ele>1910.2</ele>
        <time>2015-08-13T13:30:08Z</time>
      </trkpt>
      <trkpt lat="42.3055360" lon="1.7130200">
        <ele>1910.7</ele>
        <time>2015-08-13T13:30:12Z</time>
      </trkpt>
      <trkpt lat="42.3055200" lon="1.7130520">
        <ele>1910.9</ele>
        <time>2015-08-13T13:30:42Z</time>
      </trkpt>
      <trkpt lat="42.3054840" lon="1.7130370">
        <ele>1912.4</ele>
        <time>2015-08-13T13:31:18Z</time>
      </trkpt>
      <trkpt lat="42.3054500" lon="1.7130210">
        <ele>1914.0</ele>
        <time>2015-08-13T13:31:20Z</time>
      </trkpt>
      <trkpt lat="42.3054170" lon="1.7130170">
        <ele>1915.3</ele>
        <time>2015-08-13T13:31:22Z</time>
      </trkpt>
      <trkpt lat="42.3053870" lon="1.7130030">
        <ele>1916.3</ele>
        <time>2015-08-13T13:31:24Z</time>
      </trkpt>
      <trkpt lat="42.3053480" lon="1.7130080">
        <ele>1917.1</ele>
        <time>2015-08-13T13:31:26Z</time>
      </trkpt>
      <trkpt lat="42.3053140" lon="1.7130130">
        <ele>1917.8</ele>
        <time>2015-08-13T13:31:28Z</time>
      </trkpt>
      <trkpt lat="42.3052860" lon="1.7130030">
        <ele>1918.7</ele>
        <time>2015-08-13T13:31:30Z</time>
      </trkpt>
      <trkpt lat="42.3052530" lon="1.7130000">
        <ele>1919.5</ele>
        <time>2015-08-13T13:31:32Z</time>
      </trkpt>
      <trkpt lat="42.3052200" lon="1.7129810">
        <ele>1920.7</ele>
        <time>2015-08-13T13:31:34Z</time>
      </trkpt>
      <trkpt lat="42.3051860" lon="1.7129800">
        <ele>1921.5</ele>
        <time>2015-08-13T13:31:36Z</time>
      </trkpt>
      <trkpt lat="42.3051540" lon="1.7129840">
        <ele>1922.2</ele>
        <time>2015-08-13T13:31:38Z</time>
      </trkpt>
      <trkpt lat="42.3051290" lon="1.7130070">
        <ele>1922.3</ele>
        <time>2015-08-13T13:31:40Z</time>
      </trkpt>
      <trkpt lat="42.3050940" lon="1.7130150">
        <ele>1923.0</ele>
        <time>2015-08-13T13:31:42Z</time>
      </trkpt>
      <trkpt lat="42.3050570" lon="1.7130330">
        <ele>1923.4</ele>
        <time>2015-08-13T13:31:45Z</time>
      </trkpt>
      <trkpt lat="42.3050240" lon="1.7130470">
        <ele>1923.9</ele>
        <time>2015-08-13T13:31:47Z</time>
      </trkpt>
      <trkpt lat="42.3049910" lon="1.7130480">
        <ele>1924.6</ele>
        <time>2015-08-13T13:31:49Z</time>
      </trkpt>
      <trkpt lat="42.3049580" lon="1.7130630">
        <ele>1925.0</ele>
        <time>2015-08-13T13:31:51Z</time>
      </trkpt>
      <trkpt lat="42.3049160" lon="1.7130510">
        <ele>1926.3</ele>
        <time>2015-08-13T13:31:53Z</time>
      </trkpt>
      <trkpt lat="42.3048790" lon="1.7130500">
        <ele>1927.2</ele>
        <time>2015-08-13T13:31:56Z</time>
      </trkpt>
      <trkpt lat="42.3048440" lon="1.7130630">
        <ele>1927.6</ele>
        <time>2015-08-13T13:31:59Z</time>
      </trkpt>
      <trkpt lat="42.3048030" lon="1.7130710">
        <ele>1928.4</ele>
        <time>2015-08-13T13:32:01Z</time>
      </trkpt>
      <trkpt lat="42.3047490" lon="1.7130940">
        <ele>1929.0</ele>
        <time>2015-08-13T13:32:04Z</time>
      </trkpt>
      <trkpt lat="42.3047050" lon="1.7130820">
        <ele>1930.3</ele>
        <time>2015-08-13T13:32:06Z</time>
      </trkpt>
      <trkpt lat="42.3046770" lon="1.7131150">
        <ele>1930.0</ele>
        <time>2015-08-13T13:32:08Z</time>
      </trkpt>
      <trkpt lat="42.3046350" lon="1.7131170">
        <ele>1930.9</ele>
        <time>2015-08-13T13:32:10Z</time>
      </trkpt>
      <trkpt lat="42.3046010" lon="1.7131330">
        <ele>1931.1</ele>
        <time>2015-08-13T13:32:12Z</time>
      </trkpt>
      <trkpt lat="42.3045630" lon="1.7131430">
        <ele>1931.9</ele>
        <time>2015-08-13T13:32:15Z</time>
      </trkpt>
      <trkpt lat="42.3045350" lon="1.7131550">
        <ele>1932.4</ele>
        <time>2015-08-13T13:32:17Z</time>
      </trkpt>
      <trkpt lat="42.3045130" lon="1.7131330">
        <ele>1933.8</ele>
        <time>2015-08-13T13:32:19Z</time>
      </trkpt>
      <trkpt lat="42.3044940" lon="1.7131010">
        <ele>1935.4</ele>
        <time>2015-08-13T13:32:21Z</time>
      </trkpt>
      <trkpt lat="42.3044660" lon="1.7131330">
        <ele>1935.3</ele>
        <time>2015-08-13T13:32:23Z</time>
      </trkpt>
      <trkpt lat="42.3044300" lon="1.7131260">
        <ele>1936.7</ele>
        <time>2015-08-13T13:32:25Z</time>
      </trkpt>
      <trkpt lat="42.3043910" lon="1.7131450">
        <ele>1937.4</ele>
        <time>2015-08-13T13:32:27Z</time>
      </trkpt>
      <trkpt lat="42.3043440" lon="1.7131680">
        <ele>1938.3</ele>
        <time>2015-08-13T13:32:30Z</time>
      </trkpt>
      <trkpt lat="42.3043160" lon="1.7131640">
        <ele>1939.3</ele>
        <time>2015-08-13T13:32:32Z</time>
      </trkpt>
      <trkpt lat="42.3042800" lon="1.7131740">
        <ele>1940.2</ele>
        <time>2015-08-13T13:32:35Z</time>
      </trkpt>
      <trkpt lat="42.3042480" lon="1.7131690">
        <ele>1941.4</ele>
        <time>2015-08-13T13:32:36Z</time>
      </trkpt>
      <trkpt lat="42.3042110" lon="1.7131690">
        <ele>1942.6</ele>
        <time>2015-08-13T13:32:39Z</time>
      </trkpt>
      <trkpt lat="42.3042030" lon="1.7131340">
        <ele>1943.9</ele>
        <time>2015-08-13T13:32:41Z</time>
      </trkpt>
      <trkpt lat="42.3041730" lon="1.7131530">
        <ele>1944.3</ele>
        <time>2015-08-13T13:32:43Z</time>
      </trkpt>
      <trkpt lat="42.3041400" lon="1.7131530">
        <ele>1945.4</ele>
        <time>2015-08-13T13:32:45Z</time>
      </trkpt>
      <trkpt lat="42.3041170" lon="1.7131790">
        <ele>1945.4</ele>
        <time>2015-08-13T13:32:47Z</time>
      </trkpt>
      <trkpt lat="42.3040810" lon="1.7131460">
        <ele>1947.6</ele>
        <time>2015-08-13T13:32:49Z</time>
      </trkpt>
      <trkpt lat="42.3040670" lon="1.7131890">
        <ele>1946.8</ele>
        <time>2015-08-13T13:32:51Z</time>
      </trkpt>
      <trkpt lat="42.3040370" lon="1.7132020">
        <ele>1947.4</ele>
        <time>2015-08-13T13:32:54Z</time>
      </trkpt>
      <trkpt lat="42.3039940" lon="1.7131990">
        <ele>1948.9</ele>
        <time>2015-08-13T13:32:57Z</time>
      </trkpt>
      <trkpt lat="42.3039670" lon="1.7132010">
        <ele>1949.7</ele>
        <time>2015-08-13T13:32:59Z</time>
      </trkpt>
      <trkpt lat="42.3039330" lon="1.7132300">
        <ele>1950.0</ele>
        <time>2015-08-13T13:33:02Z</time>
      </trkpt>
      <trkpt lat="42.3039180" lon="1.7132620">
        <ele>1949.5</ele>
        <time>2015-08-13T13:33:04Z</time>
      </trkpt>
      <trkpt lat="42.3039230" lon="1.7133150">
        <ele>1947.8</ele>
        <time>2015-08-13T13:33:06Z</time>
      </trkpt>
      <trkpt lat="42.3038890" lon="1.7133170">
        <ele>1948.9</ele>
        <time>2015-08-13T13:33:07Z</time>
      </trkpt>
      <trkpt lat="42.3038580" lon="1.7133160">
        <ele>1949.9</ele>
        <time>2015-08-13T13:33:09Z</time>
      </trkpt>
      <trkpt lat="42.3038180" lon="1.7133040">
        <ele>1951.6</ele>
        <time>2015-08-13T13:33:11Z</time>
      </trkpt>
      <trkpt lat="42.3037850" lon="1.7132840">
        <ele>1953.3</ele>
        <time>2015-08-13T13:33:13Z</time>
      </trkpt>
      <trkpt lat="42.3037530" lon="1.7133210">
        <ele>1953.3</ele>
        <time>2015-08-13T13:33:15Z</time>
      </trkpt>
      <trkpt lat="42.3037270" lon="1.7133450">
        <ele>1953.7</ele>
        <time>2015-08-13T13:33:19Z</time>
      </trkpt>
      <trkpt lat="42.3036970" lon="1.7133540">
        <ele>1954.7</ele>
        <time>2015-08-13T13:33:23Z</time>
      </trkpt>
      <trkpt lat="42.3036650" lon="1.7133570">
        <ele>1956.0</ele>
        <time>2015-08-13T13:33:25Z</time>
      </trkpt>
      <trkpt lat="42.3036430" lon="1.7133810">
        <ele>1956.3</ele>
        <time>2015-08-13T13:33:27Z</time>
      </trkpt>
      <trkpt lat="42.3036080" lon="1.7133780">
        <ele>1957.9</ele>
        <time>2015-08-13T13:33:29Z</time>
      </trkpt>
      <trkpt lat="42.3035790" lon="1.7133760">
        <ele>1959.2</ele>
        <time>2015-08-13T13:33:32Z</time>
      </trkpt>
      <trkpt lat="42.3035620" lon="1.7134220">
        <ele>1958.6</ele>
        <time>2015-08-13T13:33:34Z</time>
      </trkpt>
      <trkpt lat="42.3035280" lon="1.7134660">
        <ele>1958.7</ele>
        <time>2015-08-13T13:33:36Z</time>
      </trkpt>
      <trkpt lat="42.3035110" lon="1.7134980">
        <ele>1958.4</ele>
        <time>2015-08-13T13:33:37Z</time>
      </trkpt>
      <trkpt lat="42.3034490" lon="1.7135230">
        <ele>1960.3</ele>
        <time>2015-08-13T13:33:39Z</time>
      </trkpt>
      <trkpt lat="42.3034120" lon="1.7135440">
        <ele>1961.2</ele>
        <time>2015-08-13T13:33:40Z</time>
      </trkpt>
      <trkpt lat="42.3034050" lon="1.7135980">
        <ele>1959.8</ele>
        <time>2015-08-13T13:33:42Z</time>
      </trkpt>
      <trkpt lat="42.3033730" lon="1.7135900">
        <ele>1961.4</ele>
        <time>2015-08-13T13:33:44Z</time>
      </trkpt>
      <trkpt lat="42.3033450" lon="1.7135700">
        <ele>1963.2</ele>
        <time>2015-08-13T13:33:46Z</time>
      </trkpt>
      <trkpt lat="42.3033010" lon="1.7135500">
        <ele>1965.7</ele>
        <time>2015-08-13T13:33:48Z</time>
      </trkpt>
      <trkpt lat="42.3032710" lon="1.7135710">
        <ele>1966.3</ele>
        <time>2015-08-13T13:33:51Z</time>
      </trkpt>
      <trkpt lat="42.3032590" lon="1.7136120">
        <ele>1965.5</ele>
        <time>2015-08-13T13:33:57Z</time>
      </trkpt>
      <trkpt lat="42.3032410" lon="1.7136550">
        <ele>1964.9</ele>
        <time>2015-08-13T13:34:00Z</time>
      </trkpt>
      <trkpt lat="42.3032170" lon="1.7136970">
        <ele>1964.5</ele>
        <time>2015-08-13T13:34:02Z</time>
      </trkpt>
      <trkpt lat="42.3032190" lon="1.7137360">
        <ele>1963.1</ele>
        <time>2015-08-13T13:34:04Z</time>
      </trkpt>
      <trkpt lat="42.3031930" lon="1.7137190">
        <ele>1964.7</ele>
        <time>2015-08-13T13:34:06Z</time>
      </trkpt>
      <trkpt lat="42.3031540" lon="1.7137320">
        <ele>1965.9</ele>
        <time>2015-08-13T13:34:08Z</time>
      </trkpt>
      <trkpt lat="42.3031190" lon="1.7137380">
        <ele>1967.1</ele>
        <time>2015-08-13T13:34:10Z</time>
      </trkpt>
      <trkpt lat="42.3030980" lon="1.7137670">
        <ele>1967.1</ele>
        <time>2015-08-13T13:34:13Z</time>
      </trkpt>
      <trkpt lat="42.3030750" lon="1.7137460">
        <ele>1968.7</ele>
        <time>2015-08-13T13:34:16Z</time>
      </trkpt>
      <trkpt lat="42.3030780" lon="1.7137860">
        <ele>1967.4</ele>
        <time>2015-08-13T13:34:20Z</time>
      </trkpt>
      <trkpt lat="42.3030510" lon="1.7138250">
        <ele>1967.5</ele>
        <time>2015-08-13T13:34:22Z</time>
      </trkpt>
      <trkpt lat="42.3030210" lon="1.7138210">
        <ele>1968.9</ele>
        <time>2015-08-13T13:34:24Z</time>
      </trkpt>
      <trkpt lat="42.3030060" lon="1.7138610">
        <ele>1968.5</ele>
        <time>2015-08-13T13:34:26Z</time>
      </trkpt>
      <trkpt lat="42.3029700" lon="1.7138930">
        <ele>1969.2</ele>
        <time>2015-08-13T13:34:29Z</time>
      </trkpt>
      <trkpt lat="42.3029440" lon="1.7139210">
        <ele>1969.7</ele>
        <time>2015-08-13T13:34:32Z</time>
      </trkpt>
      <trkpt lat="42.3029370" lon="1.7139590">
        <ele>1969.1</ele>
        <time>2015-08-13T13:34:35Z</time>
      </trkpt>
      <trkpt lat="42.3029050" lon="1.7139460">
        <ele>1970.6</ele>
        <time>2015-08-13T13:34:37Z</time>
      </trkpt>
      <trkpt lat="42.3028620" lon="1.7139530">
        <ele>1971.6</ele>
        <time>2015-08-13T13:34:41Z</time>
      </trkpt>
      <trkpt lat="42.3028460" lon="1.7139900">
        <ele>1971.1</ele>
        <time>2015-08-13T13:34:45Z</time>
      </trkpt>
      <trkpt lat="42.3028200" lon="1.7140090">
        <ele>1971.4</ele>
        <time>2015-08-13T13:34:47Z</time>
      </trkpt>
      <trkpt lat="42.3027950" lon="1.7140330">
        <ele>1971.4</ele>
        <time>2015-08-13T13:34:49Z</time>
      </trkpt>
      <trkpt lat="42.3027820" lon="1.7140710">
        <ele>1970.8</ele>
        <time>2015-08-13T13:34:51Z</time>
      </trkpt>
      <trkpt lat="42.3027480" lon="1.7141100">
        <ele>1970.7</ele>
        <time>2015-08-13T13:34:55Z</time>
      </trkpt>
      <trkpt lat="42.3027390" lon="1.7141530">
        <ele>1969.8</ele>
        <time>2015-08-13T13:34:58Z</time>
      </trkpt>
      <trkpt lat="42.3027200" lon="1.7141920">
        <ele>1969.3</ele>
        <time>2015-08-13T13:35:00Z</time>
      </trkpt>
      <trkpt lat="42.3026880" lon="1.7142110">
        <ele>1969.6</ele>
        <time>2015-08-13T13:35:02Z</time>
      </trkpt>
      <trkpt lat="42.3026590" lon="1.7141980">
        <ele>1970.7</ele>
        <time>2015-08-13T13:35:04Z</time>
      </trkpt>
      <trkpt lat="42.3026290" lon="1.7142570">
        <ele>1969.9</ele>
        <time>2015-08-13T13:35:07Z</time>
      </trkpt>
      <trkpt lat="42.3026560" lon="1.7142910">
        <ele>1968.3</ele>
        <time>2015-08-13T13:35:10Z</time>
      </trkpt>
      <trkpt lat="42.3026400" lon="1.7143320">
        <ele>1967.6</ele>
        <time>2015-08-13T13:35:12Z</time>
      </trkpt>
      <trkpt lat="42.3026170" lon="1.7143720">
        <ele>1967.1</ele>
        <time>2015-08-13T13:35:15Z</time>
      </trkpt>
      <trkpt lat="42.3025760" lon="1.7144070">
        <ele>1967.1</ele>
        <time>2015-08-13T13:35:17Z</time>
      </trkpt>
      <trkpt lat="42.3025430" lon="1.7144380">
        <ele>1967.0</ele>
        <time>2015-08-13T13:35:20Z</time>
      </trkpt>
      <trkpt lat="42.3025460" lon="1.7143890">
        <ele>1968.3</ele>
        <time>2015-08-13T13:35:24Z</time>
      </trkpt>
      <trkpt lat="42.3025090" lon="1.7144210">
        <ele>1968.3</ele>
        <time>2015-08-13T13:36:24Z</time>
      </trkpt>
      <trkpt lat="42.3024740" lon="1.7144470">
        <ele>1968.4</ele>
        <time>2015-08-13T13:36:27Z</time>
      </trkpt>
      <trkpt lat="42.3024470" lon="1.7144770">
        <ele>1968.1</ele>
        <time>2015-08-13T13:36:29Z</time>
      </trkpt>
      <trkpt lat="42.3024210" lon="1.7145350">
        <ele>1967.1</ele>
        <time>2015-08-13T13:36:32Z</time>
      </trkpt>
      <trkpt lat="42.3023930" lon="1.7145540">
        <ele>1967.1</ele>
        <time>2015-08-13T13:36:33Z</time>
      </trkpt>
      <trkpt lat="42.3023650" lon="1.7145860">
        <ele>1966.8</ele>
        <time>2015-08-13T13:36:36Z</time>
      </trkpt>
      <trkpt lat="42.3023660" lon="1.7146230">
        <ele>1965.2</ele>
        <time>2015-08-13T13:36:38Z</time>
      </trkpt>
      <trkpt lat="42.3023490" lon="1.7146610">
        <ele>1964.0</ele>
        <time>2015-08-13T13:36:42Z</time>
      </trkpt>
      <trkpt lat="42.3023490" lon="1.7147060">
        <ele>1962.1</ele>
        <time>2015-08-13T13:36:44Z</time>
      </trkpt>
      <trkpt lat="42.3023140" lon="1.7147240">
        <ele>1962.1</ele>
        <time>2015-08-13T13:36:45Z</time>
      </trkpt>
      <trkpt lat="42.3022890" lon="1.7147750">
        <ele>1960.5</ele>
        <time>2015-08-13T13:36:50Z</time>
      </trkpt>
      <trkpt lat="42.3022630" lon="1.7148010">
        <ele>1960.0</ele>
        <time>2015-08-13T13:36:53Z</time>
      </trkpt>
      <trkpt lat="42.3022410" lon="1.7148260">
        <ele>1959.4</ele>
        <time>2015-08-13T13:36:59Z</time>
      </trkpt>
      <trkpt lat="42.3022220" lon="1.7148680">
        <ele>1958.0</ele>
        <time>2015-08-13T13:37:01Z</time>
      </trkpt>
      <trkpt lat="42.3021940" lon="1.7149140">
        <ele>1956.7</ele>
        <time>2015-08-13T13:37:02Z</time>
      </trkpt>
      <trkpt lat="42.3021630" lon="1.7149420">
        <ele>1956.2</ele>
        <time>2015-08-13T13:37:04Z</time>
      </trkpt>
      <trkpt lat="42.3021390" lon="1.7149610">
        <ele>1955.9</ele>
        <time>2015-08-13T13:37:06Z</time>
      </trkpt>
      <trkpt lat="42.3021220" lon="1.7149900">
        <ele>1955.1</ele>
        <time>2015-08-13T13:37:08Z</time>
      </trkpt>
      <trkpt lat="42.3020950" lon="1.7150080">
        <ele>1954.9</ele>
        <time>2015-08-13T13:37:11Z</time>
      </trkpt>
      <trkpt lat="42.3020630" lon="1.7149800">
        <ele>1956.5</ele>
        <time>2015-08-13T13:37:13Z</time>
      </trkpt>
      <trkpt lat="42.3020230" lon="1.7149710">
        <ele>1957.1</ele>
        <time>2015-08-13T13:37:15Z</time>
      </trkpt>
      <trkpt lat="42.3019790" lon="1.7149810">
        <ele>1957.0</ele>
        <time>2015-08-13T13:37:17Z</time>
      </trkpt>
      <trkpt lat="42.3019550" lon="1.7149510">
        <ele>1958.4</ele>
        <time>2015-08-13T13:37:19Z</time>
      </trkpt>
      <trkpt lat="42.3019230" lon="1.7149340">
        <ele>1959.3</ele>
        <time>2015-08-13T13:37:21Z</time>
      </trkpt>
      <trkpt lat="42.3018810" lon="1.7149320">
        <ele>1959.6</ele>
        <time>2015-08-13T13:37:23Z</time>
      </trkpt>
      <trkpt lat="42.3018530" lon="1.7149160">
        <ele>1960.5</ele>
        <time>2015-08-13T13:37:25Z</time>
      </trkpt>
      <trkpt lat="42.3018210" lon="1.7149090">
        <ele>1961.0</ele>
        <time>2015-08-13T13:37:27Z</time>
      </trkpt>
      <trkpt lat="42.3017840" lon="1.7149160">
        <ele>1960.9</ele>
        <time>2015-08-13T13:37:29Z</time>
      </trkpt>
      <trkpt lat="42.3017490" lon="1.7149050">
        <ele>1961.6</ele>
        <time>2015-08-13T13:37:31Z</time>
      </trkpt>
      <trkpt lat="42.3017130" lon="1.7149050">
        <ele>1961.8</ele>
        <time>2015-08-13T13:37:33Z</time>
      </trkpt>
      <trkpt lat="42.3016820" lon="1.7148920">
        <ele>1962.5</ele>
        <time>2015-08-13T13:37:35Z</time>
      </trkpt>
      <trkpt lat="42.3016470" lon="1.7148910">
        <ele>1962.8</ele>
        <time>2015-08-13T13:37:37Z</time>
      </trkpt>
      <trkpt lat="42.3016070" lon="1.7149160">
        <ele>1962.0</ele>
        <time>2015-08-13T13:37:39Z</time>
      </trkpt>
      <trkpt lat="42.3015780" lon="1.7148830">
        <ele>1963.5</ele>
        <time>2015-08-13T13:37:40Z</time>
      </trkpt>
      <trkpt lat="42.3015360" lon="1.7148770">
        <ele>1964.0</ele>
        <time>2015-08-13T13:37:42Z</time>
      </trkpt>
      <trkpt lat="42.3014950" lon="1.7148640">
        <ele>1964.7</ele>
        <time>2015-08-13T13:37:44Z</time>
      </trkpt>
      <trkpt lat="42.3014650" lon="1.7148350">
        <ele>1966.1</ele>
        <time>2015-08-13T13:37:46Z</time>
      </trkpt>
      <trkpt lat="42.3014330" lon="1.7148380">
        <ele>1966.1</ele>
        <time>2015-08-13T13:37:48Z</time>
      </trkpt>
      <trkpt lat="42.3014050" lon="1.7148340">
        <ele>1966.5</ele>
        <time>2015-08-13T13:37:49Z</time>
      </trkpt>
      <trkpt lat="42.3013730" lon="1.7148230">
        <ele>1967.1</ele>
        <time>2015-08-13T13:37:51Z</time>
      </trkpt>
      <trkpt lat="42.3013360" lon="1.7148270">
        <ele>1967.1</ele>
        <time>2015-08-13T13:37:53Z</time>
      </trkpt>
      <trkpt lat="42.3013040" lon="1.7148170">
        <ele>1967.7</ele>
        <time>2015-08-13T13:37:56Z</time>
      </trkpt>
      <trkpt lat="42.3012600" lon="1.7147980">
        <ele>1968.7</ele>
        <time>2015-08-13T13:37:59Z</time>
      </trkpt>
      <trkpt lat="42.3012250" lon="1.7147880">
        <ele>1970.0</ele>
        <time>2015-08-13T13:38:01Z</time>
      </trkpt>
      <trkpt lat="42.3011840" lon="1.7147920">
        <ele>1971.1</ele>
        <time>2015-08-13T13:38:04Z</time>
      </trkpt>
      <trkpt lat="42.3011600" lon="1.7147430">
        <ele>1973.8</ele>
        <time>2015-08-13T13:38:06Z</time>
      </trkpt>
      <trkpt lat="42.3011270" lon="1.7147580">
        <ele>1974.3</ele>
        <time>2015-08-13T13:38:07Z</time>
      </trkpt>
      <trkpt lat="42.3010850" lon="1.7147370">
        <ele>1976.4</ele>
        <time>2015-08-13T13:38:09Z</time>
      </trkpt>
      <trkpt lat="42.3010660" lon="1.7147050">
        <ele>1978.3</ele>
        <time>2015-08-13T13:38:11Z</time>
      </trkpt>
      <trkpt lat="42.3010250" lon="1.7147020">
        <ele>1979.7</ele>
        <time>2015-08-13T13:38:13Z</time>
      </trkpt>
      <trkpt lat="42.3009820" lon="1.7146580">
        <ele>1982.8</ele>
        <time>2015-08-13T13:38:15Z</time>
      </trkpt>
      <trkpt lat="42.3009380" lon="1.7146330">
        <ele>1985.2</ele>
        <time>2015-08-13T13:38:17Z</time>
      </trkpt>
      <trkpt lat="42.3009120" lon="1.7146050">
        <ele>1987.1</ele>
        <time>2015-08-13T13:38:18Z</time>
      </trkpt>
      <trkpt lat="42.3008760" lon="1.7146190">
        <ele>1987.7</ele>
        <time>2015-08-13T13:38:21Z</time>
      </trkpt>
      <trkpt lat="42.3008410" lon="1.7146210">
        <ele>1988.8</ele>
        <time>2015-08-13T13:38:23Z</time>
      </trkpt>
      <trkpt lat="42.3008110" lon="1.7146230">
        <ele>1989.7</ele>
        <time>2015-08-13T13:38:25Z</time>
      </trkpt>
      <trkpt lat="42.3007690" lon="1.7146190">
        <ele>1991.2</ele>
        <time>2015-08-13T13:38:28Z</time>
      </trkpt>
      <trkpt lat="42.3007350" lon="1.7146480">
        <ele>1991.2</ele>
        <time>2015-08-13T13:38:31Z</time>
      </trkpt>
      <trkpt lat="42.3007080" lon="1.7146580">
        <ele>1991.7</ele>
        <time>2015-08-13T13:38:33Z</time>
      </trkpt>
      <trkpt lat="42.3006730" lon="1.7146660">
        <ele>1992.5</ele>
        <time>2015-08-13T13:38:35Z</time>
      </trkpt>
      <trkpt lat="42.3006520" lon="1.7146890">
        <ele>1992.3</ele>
        <time>2015-08-13T13:38:50Z</time>
      </trkpt>
      <trkpt lat="42.3006230" lon="1.7147100">
        <ele>1992.5</ele>
        <time>2015-08-13T13:38:52Z</time>
      </trkpt>
      <trkpt lat="42.3005860" lon="1.7147290">
        <ele>1992.9</ele>
        <time>2015-08-13T13:38:54Z</time>
      </trkpt>
      <trkpt lat="42.3005580" lon="1.7147300">
        <ele>1993.8</ele>
        <time>2015-08-13T13:38:56Z</time>
      </trkpt>
      <trkpt lat="42.3005320" lon="1.7147580">
        <ele>1993.6</ele>
        <time>2015-08-13T13:38:58Z</time>
      </trkpt>
      <trkpt lat="42.3004950" lon="1.7147680">
        <ele>1994.4</ele>
        <time>2015-08-13T13:39:00Z</time>
      </trkpt>
      <trkpt lat="42.3004680" lon="1.7147770">
        <ele>1994.9</ele>
        <time>2015-08-13T13:39:01Z</time>
      </trkpt>
      <trkpt lat="42.3004380" lon="1.7147940">
        <ele>1995.2</ele>
        <time>2015-08-13T13:39:03Z</time>
      </trkpt>
      <trkpt lat="42.3004190" lon="1.7148230">
        <ele>1994.7</ele>
        <time>2015-08-13T13:39:05Z</time>
      </trkpt>
      <trkpt lat="42.3003740" lon="1.7148090">
        <ele>1997.2</ele>
        <time>2015-08-13T13:39:08Z</time>
      </trkpt>
      <trkpt lat="42.3003470" lon="1.7147900">
        <ele>1999.2</ele>
        <time>2015-08-13T13:39:11Z</time>
      </trkpt>
      <trkpt lat="42.3003200" lon="1.7148160">
        <ele>1999.4</ele>
        <time>2015-08-13T13:39:13Z</time>
      </trkpt>
      <trkpt lat="42.3002960" lon="1.7148390">
        <ele>1999.6</ele>
        <time>2015-08-13T13:39:14Z</time>
      </trkpt>
      <trkpt lat="42.3002590" lon="1.7148610">
        <ele>2000.5</ele>
        <time>2015-08-13T13:39:16Z</time>
      </trkpt>
      <trkpt lat="42.3002420" lon="1.7148920">
        <ele>2000.1</ele>
        <time>2015-08-13T13:39:17Z</time>
      </trkpt>
      <trkpt lat="42.3002230" lon="1.7149350">
        <ele>1999.4</ele>
        <time>2015-08-13T13:39:19Z</time>
      </trkpt>
      <trkpt lat="42.3001900" lon="1.7149350">
        <ele>2000.9</ele>
        <time>2015-08-13T13:39:22Z</time>
      </trkpt>
      <trkpt lat="42.3001380" lon="1.7149560">
        <ele>2002.6</ele>
        <time>2015-08-13T13:39:25Z</time>
      </trkpt>
      <trkpt lat="42.3001170" lon="1.7149910">
        <ele>2002.3</ele>
        <time>2015-08-13T13:39:27Z</time>
      </trkpt>
      <trkpt lat="42.3000840" lon="1.7150190">
        <ele>2002.9</ele>
        <time>2015-08-13T13:39:30Z</time>
      </trkpt>
      <trkpt lat="42.3000700" lon="1.7150680">
        <ele>2001.9</ele>
        <time>2015-08-13T13:39:32Z</time>
      </trkpt>
      <trkpt lat="42.3000390" lon="1.7150970">
        <ele>2002.4</ele>
        <time>2015-08-13T13:39:34Z</time>
      </trkpt>
      <trkpt lat="42.3000150" lon="1.7151310">
        <ele>2002.4</ele>
        <time>2015-08-13T13:39:36Z</time>
      </trkpt>
      <trkpt lat="42.2999970" lon="1.7151750">
        <ele>2001.8</ele>
        <time>2015-08-13T13:39:38Z</time>
      </trkpt>
      <trkpt lat="42.2999710" lon="1.7152010">
        <ele>2002.2</ele>
        <time>2015-08-13T13:39:39Z</time>
      </trkpt>
      <trkpt lat="42.2999370" lon="1.7152550">
        <ele>2002.1</ele>
        <time>2015-08-13T13:39:41Z</time>
      </trkpt>
      <trkpt lat="42.2999180" lon="1.7152980">
        <ele>2001.6</ele>
        <time>2015-08-13T13:39:43Z</time>
      </trkpt>
      <trkpt lat="42.2998930" lon="1.7153350">
        <ele>2001.7</ele>
        <time>2015-08-13T13:39:45Z</time>
      </trkpt>
      <trkpt lat="42.2998710" lon="1.7153630">
        <ele>2001.9</ele>
        <time>2015-08-13T13:39:47Z</time>
      </trkpt>
      <trkpt lat="42.2998370" lon="1.7153730">
        <ele>2003.3</ele>
        <time>2015-08-13T13:39:49Z</time>
      </trkpt>
      <trkpt lat="42.2998070" lon="1.7154010">
        <ele>2004.0</ele>
        <time>2015-08-13T13:39:51Z</time>
      </trkpt>
      <trkpt lat="42.2997750" lon="1.7154360">
        <ele>2004.4</ele>
        <time>2015-08-13T13:39:53Z</time>
      </trkpt>
      <trkpt lat="42.2997310" lon="1.7154370">
        <ele>2006.6</ele>
        <time>2015-08-13T13:39:55Z</time>
      </trkpt>
      <trkpt lat="42.2997140" lon="1.7154760">
        <ele>2006.0</ele>
        <time>2015-08-13T13:39:56Z</time>
      </trkpt>
      <trkpt lat="42.2996810" lon="1.7155240">
        <ele>2005.8</ele>
        <time>2015-08-13T13:39:58Z</time>
      </trkpt>
      <trkpt lat="42.2996700" lon="1.7155600">
        <ele>2005.0</ele>
        <time>2015-08-13T13:39:59Z</time>
      </trkpt>
      <trkpt lat="42.2996380" lon="1.7155880">
        <ele>2005.6</ele>
        <time>2015-08-13T13:40:01Z</time>
      </trkpt>
      <trkpt lat="42.2995940" lon="1.7156060">
        <ele>2007.2</ele>
        <time>2015-08-13T13:40:03Z</time>
      </trkpt>
      <trkpt lat="42.2995500" lon="1.7156400">
        <ele>2005.8</ele>
        <time>2015-08-13T13:40:05Z</time>
      </trkpt>
      <trkpt lat="42.2995640" lon="1.7156880">
        <ele>2004.2</ele>
        <time>2015-08-13T13:40:07Z</time>
      </trkpt>
      <trkpt lat="42.2995480" lon="1.7157430">
        <ele>2001.8</ele>
        <time>2015-08-13T13:40:09Z</time>
      </trkpt>
      <trkpt lat="42.2995290" lon="1.7157700">
        <ele>2000.5</ele>
        <time>2015-08-13T13:40:12Z</time>
      </trkpt>
      <trkpt lat="42.2994990" lon="1.7158130">
        <ele>1998.3</ele>
        <time>2015-08-13T13:40:14Z</time>
      </trkpt>
      <trkpt lat="42.2994880" lon="1.7158520">
        <ele>1996.7</ele>
        <time>2015-08-13T13:40:15Z</time>
      </trkpt>
      <trkpt lat="42.2994730" lon="1.7159030">
        <ele>1994.6</ele>
        <time>2015-08-13T13:40:17Z</time>
      </trkpt>
      <trkpt lat="42.2994480" lon="1.7159550">
        <ele>1992.2</ele>
        <time>2015-08-13T13:40:19Z</time>
      </trkpt>
      <trkpt lat="42.2994260" lon="1.7160020">
        <ele>1990.2</ele>
        <time>2015-08-13T13:40:21Z</time>
      </trkpt>
      <trkpt lat="42.2993870" lon="1.7160220">
        <ele>1988.9</ele>
        <time>2015-08-13T13:40:23Z</time>
      </trkpt>
      <trkpt lat="42.2993590" lon="1.7160530">
        <ele>1987.4</ele>
        <time>2015-08-13T13:40:25Z</time>
      </trkpt>
      <trkpt lat="42.2993320" lon="1.7160980">
        <ele>1985.4</ele>
        <time>2015-08-13T13:40:27Z</time>
      </trkpt>
      <trkpt lat="42.2992950" lon="1.7161470">
        <ele>1983.2</ele>
        <time>2015-08-13T13:40:29Z</time>
      </trkpt>
      <trkpt lat="42.2992680" lon="1.7162120">
        <ele>1980.5</ele>
        <time>2015-08-13T13:40:31Z</time>
      </trkpt>
      <trkpt lat="42.2992390" lon="1.7162840">
        <ele>1977.9</ele>
        <time>2015-08-13T13:40:33Z</time>
      </trkpt>
      <trkpt lat="42.2992040" lon="1.7163380">
        <ele>1976.0</ele>
        <time>2015-08-13T13:40:34Z</time>
      </trkpt>
      <trkpt lat="42.2991810" lon="1.7163620">
        <ele>1975.1</ele>
        <time>2015-08-13T13:40:35Z</time>
      </trkpt>
      <trkpt lat="42.2991320" lon="1.7164150">
        <ele>1973.3</ele>
        <time>2015-08-13T13:40:37Z</time>
      </trkpt>
      <trkpt lat="42.2991030" lon="1.7164530">
        <ele>1972.1</ele>
        <time>2015-08-13T13:40:39Z</time>
      </trkpt>
      <trkpt lat="42.2990790" lon="1.7164750">
        <ele>1971.4</ele>
        <time>2015-08-13T13:40:40Z</time>
      </trkpt>
      <trkpt lat="42.2990540" lon="1.7165150">
        <ele>1970.3</ele>
        <time>2015-08-13T13:40:41Z</time>
      </trkpt>
      <trkpt lat="42.2990250" lon="1.7165580">
        <ele>1969.2</ele>
        <time>2015-08-13T13:40:42Z</time>
      </trkpt>
      <trkpt lat="42.2990000" lon="1.7165970">
        <ele>1968.2</ele>
        <time>2015-08-13T13:40:44Z</time>
      </trkpt>
      <trkpt lat="42.2989770" lon="1.7166230">
        <ele>1967.6</ele>
        <time>2015-08-13T13:40:45Z</time>
      </trkpt>
      <trkpt lat="42.2989420" lon="1.7166890">
        <ele>1966.1</ele>
        <time>2015-08-13T13:40:47Z</time>
      </trkpt>
      <trkpt lat="42.2989270" lon="1.7167310">
        <ele>1965.3</ele>
        <time>2015-08-13T13:40:49Z</time>
      </trkpt>
      <trkpt lat="42.2989030" lon="1.7167630">
        <ele>1964.7</ele>
        <time>2015-08-13T13:40:52Z</time>
      </trkpt>
      <trkpt lat="42.2988840" lon="1.7167990">
        <ele>1964.0</ele>
        <time>2015-08-13T13:40:54Z</time>
      </trkpt>
      <trkpt lat="42.2988690" lon="1.7168320">
        <ele>1963.5</ele>
        <time>2015-08-13T13:40:57Z</time>
      </trkpt>
      <trkpt lat="42.2988620" lon="1.7168770">
        <ele>1962.6</ele>
        <time>2015-08-13T13:41:00Z</time>
      </trkpt>
      <trkpt lat="42.2988400" lon="1.7169110">
        <ele>1962.1</ele>
        <time>2015-08-13T13:41:02Z</time>
      </trkpt>
      <trkpt lat="42.2988070" lon="1.7169250">
        <ele>1962.1</ele>
        <time>2015-08-13T13:41:04Z</time>
      </trkpt>
      <trkpt lat="42.2987630" lon="1.7169410">
        <ele>1962.1</ele>
        <time>2015-08-13T13:41:06Z</time>
      </trkpt>
      <trkpt lat="42.2987300" lon="1.7169370">
        <ele>1962.6</ele>
        <time>2015-08-13T13:41:08Z</time>
      </trkpt>
      <trkpt lat="42.2987120" lon="1.7168930">
        <ele>1963.6</ele>
        <time>2015-08-13T13:41:10Z</time>
      </trkpt>
      <trkpt lat="42.2986910" lon="1.7168460">
        <ele>1964.6</ele>
        <time>2015-08-13T13:41:12Z</time>
      </trkpt>
      <trkpt lat="42.2986700" lon="1.7168160">
        <ele>1965.3</ele>
        <time>2015-08-13T13:41:14Z</time>
      </trkpt>
      <trkpt lat="42.2986450" lon="1.7167740">
        <ele>1966.2</ele>
        <time>2015-08-13T13:41:18Z</time>
      </trkpt>
      <trkpt lat="42.2986240" lon="1.7167260">
        <ele>1967.0</ele>
        <time>2015-08-13T13:41:21Z</time>
      </trkpt>
      <trkpt lat="42.2986040" lon="1.7166890">
        <ele>1967.7</ele>
        <time>2015-08-13T13:41:24Z</time>
      </trkpt>
      <trkpt lat="42.2985810" lon="1.7166630">
        <ele>1968.2</ele>
        <time>2015-08-13T13:41:26Z</time>
      </trkpt>
      <trkpt lat="42.2985680" lon="1.7166040">
        <ele>1968.9</ele>
        <time>2015-08-13T13:41:28Z</time>
      </trkpt>
      <trkpt lat="42.2985460" lon="1.7165510">
        <ele>1969.5</ele>
        <time>2015-08-13T13:41:30Z</time>
      </trkpt>
      <trkpt lat="42.2985210" lon="1.7165060">
        <ele>1970.0</ele>
        <time>2015-08-13T13:41:32Z</time>
      </trkpt>
      <trkpt lat="42.2985020" lon="1.7164760">
        <ele>1970.4</ele>
        <time>2015-08-13T13:41:35Z</time>
      </trkpt>
      <trkpt lat="42.2984820" lon="1.7164440">
        <ele>1970.7</ele>
        <time>2015-08-13T13:41:38Z</time>
      </trkpt>
      <trkpt lat="42.2984680" lon="1.7164060">
        <ele>1970.9</ele>
        <time>2015-08-13T13:41:41Z</time>
      </trkpt>
      <trkpt lat="42.2984460" lon="1.7163500">
        <ele>1971.3</ele>
        <time>2015-08-13T13:41:43Z</time>
      </trkpt>
      <trkpt lat="42.2984280" lon="1.7163120">
        <ele>1971.5</ele>
        <time>2015-08-13T13:41:46Z</time>
      </trkpt>
      <trkpt lat="42.2983930" lon="1.7162820">
        <ele>1971.6</ele>
        <time>2015-08-13T13:41:49Z</time>
      </trkpt>
      <trkpt lat="42.2983690" lon="1.7162420">
        <ele>1971.8</ele>
        <time>2015-08-13T13:41:52Z</time>
      </trkpt>
      <trkpt lat="42.2983660" lon="1.7161880">
        <ele>1973.0</ele>
        <time>2015-08-13T13:41:53Z</time>
      </trkpt>
      <trkpt lat="42.2983570" lon="1.7161320">
        <ele>1974.1</ele>
        <time>2015-08-13T13:41:56Z</time>
      </trkpt>
      <trkpt lat="42.2983340" lon="1.7160910">
        <ele>1974.8</ele>
        <time>2015-08-13T13:41:59Z</time>
      </trkpt>
      <trkpt lat="42.2983150" lon="1.7160480">
        <ele>1975.6</ele>
        <time>2015-08-13T13:42:01Z</time>
      </trkpt>
      <trkpt lat="42.2982890" lon="1.7160140">
        <ele>1976.1</ele>
        <time>2015-08-13T13:42:03Z</time>
      </trkpt>
      <trkpt lat="42.2982950" lon="1.7159780">
        <ele>1976.9</ele>
        <time>2015-08-13T13:42:04Z</time>
      </trkpt>
      <trkpt lat="42.2982820" lon="1.7159360">
        <ele>1977.6</ele>
        <time>2015-08-13T13:42:05Z</time>
      </trkpt>
      <trkpt lat="42.2982590" lon="1.7159070">
        <ele>1978.0</ele>
        <time>2015-08-13T13:42:08Z</time>
      </trkpt>
      <trkpt lat="42.2982200" lon="1.7158690">
        <ele>1978.3</ele>
        <time>2015-08-13T13:42:10Z</time>
      </trkpt>
      <trkpt lat="42.2982130" lon="1.7158180">
        <ele>1979.2</ele>
        <time>2015-08-13T13:42:12Z</time>
      </trkpt>
      <trkpt lat="42.2982160" lon="1.7157810">
        <ele>1979.9</ele>
        <time>2015-08-13T13:42:14Z</time>
      </trkpt>
      <trkpt lat="42.2981920" lon="1.7157430">
        <ele>1980.3</ele>
        <time>2015-08-13T13:42:16Z</time>
      </trkpt>
      <trkpt lat="42.2981660" lon="1.7156930">
        <ele>1980.8</ele>
        <time>2015-08-13T13:42:18Z</time>
      </trkpt>
      <trkpt lat="42.2981420" lon="1.7156680">
        <ele>1980.9</ele>
        <time>2015-08-13T13:42:21Z</time>
      </trkpt>
      <trkpt lat="42.2981370" lon="1.7156160">
        <ele>1981.8</ele>
        <time>2015-08-13T13:42:23Z</time>
      </trkpt>
      <trkpt lat="42.2981300" lon="1.7155800">
        <ele>1982.3</ele>
        <time>2015-08-13T13:42:25Z</time>
      </trkpt>
      <trkpt lat="42.2981140" lon="1.7155440">
        <ele>1982.6</ele>
        <time>2015-08-13T13:42:27Z</time>
      </trkpt>
      <trkpt lat="42.2981120" lon="1.7156070">
        <ele>1981.5</ele>
        <time>2015-08-13T13:42:29Z</time>
      </trkpt>
      <trkpt lat="42.2980800" lon="1.7155630">
        <ele>1981.8</ele>
        <time>2015-08-13T13:42:32Z</time>
      </trkpt>
      <trkpt lat="42.2980720" lon="1.7155250">
        <ele>1982.2</ele>
        <time>2015-08-13T13:42:34Z</time>
      </trkpt>
      <trkpt lat="42.2980780" lon="1.7154770">
        <ele>1983.1</ele>
        <time>2015-08-13T13:42:39Z</time>
      </trkpt>
      <trkpt lat="42.2980630" lon="1.7154280">
        <ele>1983.6</ele>
        <time>2015-08-13T13:42:41Z</time>
      </trkpt>
      <trkpt lat="42.2980460" lon="1.7153820">
        <ele>1984.1</ele>
        <time>2015-08-13T13:42:43Z</time>
      </trkpt>
      <trkpt lat="42.2980220" lon="1.7153510">
        <ele>1984.2</ele>
        <time>2015-08-13T13:42:46Z</time>
      </trkpt>
      <trkpt lat="42.2980070" lon="1.7153080">
        <ele>1984.6</ele>
        <time>2015-08-13T13:42:49Z</time>
      </trkpt>
      <trkpt lat="42.2979820" lon="1.7152590">
        <ele>1985.0</ele>
        <time>2015-08-13T13:42:51Z</time>
      </trkpt>
      <trkpt lat="42.2979530" lon="1.7152200">
        <ele>1985.1</ele>
        <time>2015-08-13T13:42:54Z</time>
      </trkpt>
      <trkpt lat="42.2979220" lon="1.7151890">
        <ele>1984.9</ele>
        <time>2015-08-13T13:42:57Z</time>
      </trkpt>
      <trkpt lat="42.2978950" lon="1.7151810">
        <ele>1985.3</ele>
        <time>2015-08-13T13:42:59Z</time>
      </trkpt>
      <trkpt lat="42.2978860" lon="1.7150950">
        <ele>1986.9</ele>
        <time>2015-08-13T13:43:02Z</time>
      </trkpt>
      <trkpt lat="42.2978770" lon="1.7150320">
        <ele>1988.1</ele>
        <time>2015-08-13T13:43:04Z</time>
      </trkpt>
      <trkpt lat="42.2978420" lon="1.7150190">
        <ele>1988.8</ele>
        <time>2015-08-13T13:43:07Z</time>
      </trkpt>
      <trkpt lat="42.2978170" lon="1.7150040">
        <ele>1989.4</ele>
        <time>2015-08-13T13:43:11Z</time>
      </trkpt>
      <trkpt lat="42.2977770" lon="1.7150100">
        <ele>1989.9</ele>
        <time>2015-08-13T13:43:13Z</time>
      </trkpt>
      <trkpt lat="42.2977660" lon="1.7150480">
        <ele>1989.5</ele>
        <time>2015-08-13T13:43:14Z</time>
      </trkpt>
      <trkpt lat="42.2977630" lon="1.7150120">
        <ele>1990.0</ele>
        <time>2015-08-13T13:43:15Z</time>
      </trkpt>
      <trkpt lat="42.2977360" lon="1.7150280">
        <ele>1990.2</ele>
        <time>2015-08-13T13:43:18Z</time>
      </trkpt>
      <trkpt lat="42.2976940" lon="1.7150620">
        <ele>1990.4</ele>
        <time>2015-08-13T13:43:20Z</time>
      </trkpt>
      <trkpt lat="42.2976840" lon="1.7151030">
        <ele>1990.0</ele>
        <time>2015-08-13T13:43:21Z</time>
      </trkpt>
      <trkpt lat="42.2976350" lon="1.7151040">
        <ele>1990.7</ele>
        <time>2015-08-13T13:43:23Z</time>
      </trkpt>
      <trkpt lat="42.2976140" lon="1.7151340">
        <ele>1990.7</ele>
        <time>2015-08-13T13:43:26Z</time>
      </trkpt>
      <trkpt lat="42.2975780" lon="1.7151330">
        <ele>1991.3</ele>
        <time>2015-08-13T13:43:28Z</time>
      </trkpt>
      <trkpt lat="42.2975430" lon="1.7151030">
        <ele>1992.2</ele>
        <time>2015-08-13T13:43:30Z</time>
      </trkpt>
      <trkpt lat="42.2975530" lon="1.7150650">
        <ele>1992.5</ele>
        <time>2015-08-13T13:43:31Z</time>
      </trkpt>
      <trkpt lat="42.2975340" lon="1.7150280">
        <ele>1993.2</ele>
        <time>2015-08-13T13:43:33Z</time>
      </trkpt>
      <trkpt lat="42.2975230" lon="1.7149940">
        <ele>1993.7</ele>
        <time>2015-08-13T13:43:36Z</time>
      </trkpt>
      <trkpt lat="42.2975050" lon="1.7149600">
        <ele>1994.4</ele>
        <time>2015-08-13T13:43:40Z</time>
      </trkpt>
      <trkpt lat="42.2974990" lon="1.7149200">
        <ele>1994.9</ele>
        <time>2015-08-13T13:43:45Z</time>
      </trkpt>
      <trkpt lat="42.2975090" lon="1.7148780">
        <ele>1995.2</ele>
        <time>2015-08-13T13:43:53Z</time>
      </trkpt>
      <trkpt lat="42.2975240" lon="1.7148460">
        <ele>1995.4</ele>
        <time>2015-08-13T13:44:01Z</time>
      </trkpt>
      <trkpt lat="42.2974870" lon="1.7148240">
        <ele>1996.1</ele>
        <time>2015-08-13T13:44:04Z</time>
      </trkpt>
      <trkpt lat="42.2974890" lon="1.7147760">
        <ele>1996.5</ele>
        <time>2015-08-13T13:44:05Z</time>
      </trkpt>
      <trkpt lat="42.2974830" lon="1.7147340">
        <ele>1997.1</ele>
        <time>2015-08-13T13:44:06Z</time>
      </trkpt>
      <trkpt lat="42.2974690" lon="1.7146890">
        <ele>1997.7</ele>
        <time>2015-08-13T13:44:08Z</time>
      </trkpt>
      <trkpt lat="42.2974670" lon="1.7146470">
        <ele>1998.1</ele>
        <time>2015-08-13T13:44:10Z</time>
      </trkpt>
      <trkpt lat="42.2974940" lon="1.7146000">
        <ele>1998.4</ele>
        <time>2015-08-13T13:44:13Z</time>
      </trkpt>
      <trkpt lat="42.2975060" lon="1.7145630">
        <ele>1998.5</ele>
        <time>2015-08-13T13:44:18Z</time>
      </trkpt>
      <trkpt lat="42.2974900" lon="1.7145280">
        <ele>1998.7</ele>
        <time>2015-08-13T13:44:21Z</time>
      </trkpt>
      <trkpt lat="42.2974670" lon="1.7144920">
        <ele>1998.9</ele>
        <time>2015-08-13T13:44:24Z</time>
      </trkpt>
      <trkpt lat="42.2974510" lon="1.7144500">
        <ele>1999.1</ele>
        <time>2015-08-13T13:44:28Z</time>
      </trkpt>
      <trkpt lat="42.2974470" lon="1.7144120">
        <ele>1999.2</ele>
        <time>2015-08-13T13:44:35Z</time>
      </trkpt>
      <trkpt lat="42.2974310" lon="1.7143820">
        <ele>1999.3</ele>
        <time>2015-08-13T13:44:42Z</time>
      </trkpt>
      <trkpt lat="42.2974330" lon="1.7143330">
        <ele>1999.4</ele>
        <time>2015-08-13T13:44:54Z</time>
      </trkpt>
      <trkpt lat="42.2974230" lon="1.7142870">
        <ele>1999.5</ele>
        <time>2015-08-13T13:45:01Z</time>
      </trkpt>
      <trkpt lat="42.2973960" lon="1.7142780">
        <ele>1999.7</ele>
        <time>2015-08-13T13:45:03Z</time>
      </trkpt>
      <trkpt lat="42.2973970" lon="1.7142350">
        <ele>1999.8</ele>
        <time>2015-08-13T13:45:07Z</time>
      </trkpt>
      <trkpt lat="42.2973850" lon="1.7142020">
        <ele>1999.9</ele>
        <time>2015-08-13T13:45:09Z</time>
      </trkpt>
      <trkpt lat="42.2973710" lon="1.7142450">
        <ele>2000.0</ele>
        <time>2015-08-13T13:45:19Z</time>
      </trkpt>
      <trkpt lat="42.2973530" lon="1.7142770">
        <ele>2000.1</ele>
        <time>2015-08-13T13:45:21Z</time>
      </trkpt>
      <trkpt lat="42.2973290" lon="1.7143020">
        <ele>2000.3</ele>
        <time>2015-08-13T13:45:24Z</time>
      </trkpt>
      <trkpt lat="42.2972930" lon="1.7143050">
        <ele>2000.6</ele>
        <time>2015-08-13T13:45:27Z</time>
      </trkpt>
      <trkpt lat="42.2972780" lon="1.7143390">
        <ele>2000.7</ele>
        <time>2015-08-13T13:45:29Z</time>
      </trkpt>
      <trkpt lat="42.2972500" lon="1.7143220">
        <ele>2000.9</ele>
        <time>2015-08-13T13:45:31Z</time>
      </trkpt>
      <trkpt lat="42.2972380" lon="1.7143660">
        <ele>2001.0</ele>
        <time>2015-08-13T13:45:38Z</time>
      </trkpt>
      <trkpt lat="42.2972280" lon="1.7143300">
        <ele>2001.1</ele>
        <time>2015-08-13T13:45:43Z</time>
      </trkpt>
      <trkpt lat="42.2972440" lon="1.7142730">
        <ele>2001.0</ele>
        <time>2015-08-13T13:46:18Z</time>
      </trkpt>
      <trkpt lat="42.2972340" lon="1.7143170">
        <ele>2001.1</ele>
        <time>2015-08-13T13:46:19Z</time>
      </trkpt>
      <trkpt lat="42.2972130" lon="1.7142880">
        <ele>2001.3</ele>
        <time>2015-08-13T13:46:29Z</time>
      </trkpt>
      <trkpt lat="42.2972080" lon="1.7143250">
        <ele>2001.3</ele>
        <time>2015-08-13T13:46:42Z</time>
      </trkpt>
      <trkpt lat="42.2972270" lon="1.7142920">
        <ele>2001.1</ele>
        <time>2015-08-13T13:46:58Z</time>
      </trkpt>
      <trkpt lat="42.2972290" lon="1.7142530">
        <ele>2001.2</ele>
        <time>2015-08-13T13:47:09Z</time>
      </trkpt>
      <trkpt lat="42.2972360" lon="1.7142140">
        <ele>2001.2</ele>
        <time>2015-08-13T13:47:17Z</time>
      </trkpt>
      <trkpt lat="42.2972540" lon="1.7142440">
        <ele>2001.0</ele>
        <time>2015-08-13T13:47:43Z</time>
      </trkpt>
      <trkpt lat="42.2972210" lon="1.7142380">
        <ele>2001.3</ele>
        <time>2015-08-13T13:47:47Z</time>
      </trkpt>
      <trkpt lat="42.2972030" lon="1.7142710">
        <ele>2001.4</ele>
        <time>2015-08-13T13:47:57Z</time>
      </trkpt>
      <trkpt lat="42.2971950" lon="1.7142360">
        <ele>2001.5</ele>
        <time>2015-08-13T13:49:16Z</time>
      </trkpt>
      <trkpt lat="42.2972210" lon="1.7142010">
        <ele>2001.3</ele>
        <time>2015-08-13T13:49:21Z</time>
      </trkpt>
      <trkpt lat="42.2972150" lon="1.7142360">
        <ele>2001.3</ele>
        <time>2015-08-13T13:49:22Z</time>
      </trkpt>
      <trkpt lat="42.2972240" lon="1.7142000">
        <ele>2001.3</ele>
        <time>2015-08-13T13:50:28Z</time>
      </trkpt>
      <trkpt lat="42.2972250" lon="1.7142180">
        <ele>2001.2</ele>
        <time>2015-08-13T13:54:07Z</time>
      </trkpt>
      <trkpt lat="42.2972270" lon="1.7142360">
        <ele>2001.2</ele>
        <time>2015-08-13T13:55:06Z</time>
      </trkpt>
      <trkpt lat="42.2972280" lon="1.7142540">
        <ele>2001.2</ele>
        <time>2015-08-13T13:57:53Z</time>
      </trkpt>
      <trkpt lat="42.2972290" lon="1.7142720">
        <ele>2001.1</ele>
        <time>2015-08-13T13:58:00Z</time>
      </trkpt>
      <trkpt lat="42.2972300" lon="1.7142900">
        <ele>2001.1</ele>
        <time>2015-08-13T13:59:13Z</time>
      </trkpt>
      <trkpt lat="42.2972310" lon="1.7143080">
        <ele>2001.1</ele>
        <time>2015-08-13T14:01:24Z</time>
      </trkpt>
      <trkpt lat="42.2972330" lon="1.7143270">
        <ele>2001.1</ele>
        <time>2015-08-13T14:02:00Z</time>
      </trkpt>
      <trkpt lat="42.2972340" lon="1.7143450">
        <ele>2001.0</ele>
        <time>2015-08-13T14:02:36Z</time>
      </trkpt>
      <trkpt lat="42.2972350" lon="1.7143630">
        <ele>2001.0</ele>
        <time>2015-08-13T14:02:39Z</time>
      </trkpt>
      <trkpt lat="42.2972360" lon="1.7143810">
        <ele>2001.0</ele>
        <time>2015-08-13T14:02:43Z</time>
      </trkpt>
      <trkpt lat="42.2972370" lon="1.7143990">
        <ele>2000.9</ele>
        <time>2015-08-13T14:03:07Z</time>
      </trkpt>
      <trkpt lat="42.2972390" lon="1.7144170">
        <ele>2000.9</ele>
        <time>2015-08-13T14:03:16Z</time>
      </trkpt>
      <trkpt lat="42.2972400" lon="1.7144350">
        <ele>2000.9</ele>
        <time>2015-08-13T14:03:32Z</time>
      </trkpt>
      <trkpt lat="42.2972410" lon="1.7144530">
        <ele>2000.8</ele>
        <time>2015-08-13T14:03:33Z</time>
      </trkpt>
      <trkpt lat="42.2972520" lon="1.7144180">
        <ele>2000.8</ele>
        <time>2015-08-13T14:03:47Z</time>
      </trkpt>
      <trkpt lat="42.2972520" lon="1.7143590">
        <ele>2000.9</ele>
        <time>2015-08-13T14:03:55Z</time>
      </trkpt>
      <trkpt lat="42.2972640" lon="1.7143920">
        <ele>2000.7</ele>
        <time>2015-08-13T14:04:07Z</time>
      </trkpt>
      <trkpt lat="42.2972660" lon="1.7143350">
        <ele>2000.8</ele>
        <time>2015-08-13T14:05:24Z</time>
      </trkpt>
      <trkpt lat="42.2972550" lon="1.7143880">
        <ele>2000.8</ele>
        <time>2015-08-13T14:05:27Z</time>
      </trkpt>
      <trkpt lat="42.2972740" lon="1.7144160">
        <ele>2000.6</ele>
        <time>2015-08-13T14:05:30Z</time>
      </trkpt>
      <trkpt lat="42.2972710" lon="1.7144530">
        <ele>2000.6</ele>
        <time>2015-08-13T14:06:26Z</time>
      </trkpt>
      <trkpt lat="42.2972870" lon="1.7144850">
        <ele>2000.4</ele>
        <time>2015-08-13T14:06:55Z</time>
      </trkpt>
      <trkpt lat="42.2972840" lon="1.7145230">
        <ele>2000.4</ele>
        <time>2015-08-13T14:07:40Z</time>
      </trkpt>
      <trkpt lat="42.2973000" lon="1.7144780">
        <ele>2000.3</ele>
        <time>2015-08-13T14:08:53Z</time>
      </trkpt>
      <trkpt lat="42.2972930" lon="1.7145140">
        <ele>2000.3</ele>
        <time>2015-08-13T14:10:07Z</time>
      </trkpt>
      <trkpt lat="42.2972990" lon="1.7145520">
        <ele>2000.2</ele>
        <time>2015-08-13T14:10:40Z</time>
      </trkpt>
      <trkpt lat="42.2972600" lon="1.7145300">
        <ele>2000.6</ele>
        <time>2015-08-13T14:10:42Z</time>
      </trkpt>
      <trkpt lat="42.2972840" lon="1.7145100">
        <ele>2000.4</ele>
        <time>2015-08-13T14:11:13Z</time>
      </trkpt>
      <trkpt lat="42.2973040" lon="1.7145370">
        <ele>2000.2</ele>
        <time>2015-08-13T14:12:13Z</time>
      </trkpt>
      <trkpt lat="42.2973060" lon="1.7144980">
        <ele>2000.2</ele>
        <time>2015-08-13T14:12:21Z</time>
      </trkpt>
      <trkpt lat="42.2973010" lon="1.7144500">
        <ele>2000.3</ele>
        <time>2015-08-13T14:12:30Z</time>
      </trkpt>
      <trkpt lat="42.2973230" lon="1.7144860">
        <ele>2000.1</ele>
        <time>2015-08-13T14:15:41Z</time>
      </trkpt>
      <trkpt lat="42.2973100" lon="1.7145200">
        <ele>2000.2</ele>
        <time>2015-08-13T14:15:56Z</time>
      </trkpt>
      <trkpt lat="42.2972830" lon="1.7145450">
        <ele>2000.4</ele>
        <time>2015-08-13T14:16:02Z</time>
      </trkpt>
      <trkpt lat="42.2972970" lon="1.7145790">
        <ele>2000.2</ele>
        <time>2015-08-13T14:16:43Z</time>
      </trkpt>
      <trkpt lat="42.2973230" lon="1.7145610">
        <ele>2000.0</ele>
        <time>2015-08-13T14:17:03Z</time>
      </trkpt>
      <trkpt lat="42.2972940" lon="1.7145810">
        <ele>2000.2</ele>
        <time>2015-08-13T14:17:23Z</time>
      </trkpt>
      <trkpt lat="42.2973230" lon="1.7145680">
        <ele>2000.0</ele>
        <time>2015-08-13T14:17:34Z</time>
      </trkpt>
      <trkpt lat="42.2973040" lon="1.7146060">
        <ele>2000.0</ele>
        <time>2015-08-13T14:17:46Z</time>
      </trkpt>
      <trkpt lat="42.2973020" lon="1.7146430">
        <ele>1999.7</ele>
        <time>2015-08-13T14:20:14Z</time>
      </trkpt>
      <trkpt lat="42.2972720" lon="1.7146130">
        <ele>2000.2</ele>
        <time>2015-08-13T14:20:53Z</time>
      </trkpt>
      <trkpt lat="42.2972330" lon="1.7145990">
        <ele>2000.6</ele>
        <time>2015-08-13T14:20:57Z</time>
      </trkpt>
      <trkpt lat="42.2972150" lon="1.7145610">
        <ele>2000.9</ele>
        <time>2015-08-13T14:21:01Z</time>
      </trkpt>
      <trkpt lat="42.2972100" lon="1.7145240">
        <ele>2001.0</ele>
        <time>2015-08-13T14:21:12Z</time>
      </trkpt>
      <trkpt lat="42.2972020" lon="1.7144820">
        <ele>2001.1</ele>
        <time>2015-08-13T14:21:28Z</time>
      </trkpt>
      <trkpt lat="42.2972080" lon="1.7144460">
        <ele>2001.1</ele>
        <time>2015-08-13T14:22:19Z</time>
      </trkpt>
      <trkpt lat="42.2972060" lon="1.7144030">
        <ele>2001.2</ele>
        <time>2015-08-13T14:23:06Z</time>
      </trkpt>
      <trkpt lat="42.2972120" lon="1.7143670">
        <ele>2001.2</ele>
        <time>2015-08-13T14:23:13Z</time>
      </trkpt>
      <trkpt lat="42.2972130" lon="1.7143270">
        <ele>2001.2</ele>
        <time>2015-08-13T14:23:45Z</time>
      </trkpt>
      <trkpt lat="42.2972330" lon="1.7142980">
        <ele>2001.1</ele>
        <time>2015-08-13T14:26:17Z</time>
      </trkpt>
      <trkpt lat="42.2972300" lon="1.7142550">
        <ele>2001.2</ele>
        <time>2015-08-13T14:27:13Z</time>
      </trkpt>
      <trkpt lat="42.2972460" lon="1.7142980">
        <ele>2001.0</ele>
        <time>2015-08-13T14:28:11Z</time>
      </trkpt>
      <trkpt lat="42.2972690" lon="1.7143270">
        <ele>2000.7</ele>
        <time>2015-08-13T14:28:16Z</time>
      </trkpt>
      <trkpt lat="42.2972980" lon="1.7143080">
        <ele>2000.5</ele>
        <time>2015-08-13T14:28:45Z</time>
      </trkpt>
      <trkpt lat="42.2972820" lon="1.7143420">
        <ele>2000.6</ele>
        <time>2015-08-13T14:28:48Z</time>
      </trkpt>
      <trkpt lat="42.2972560" lon="1.7143860">
        <ele>2000.8</ele>
        <time>2015-08-13T14:29:23Z</time>
      </trkpt>
      <trkpt lat="42.2972280" lon="1.7144080">
        <ele>2001.0</ele>
        <time>2015-08-13T14:29:24Z</time>
      </trkpt>
      <trkpt lat="42.2971940" lon="1.7144190">
        <ele>2001.3</ele>
        <time>2015-08-13T14:29:26Z</time>
      </trkpt>
      <trkpt lat="42.2971640" lon="1.7144510">
        <ele>2001.5</ele>
        <time>2015-08-13T14:29:28Z</time>
      </trkpt>
      <trkpt lat="42.2971320" lon="1.7144720">
        <ele>2001.7</ele>
        <time>2015-08-13T14:29:30Z</time>
      </trkpt>
      <trkpt lat="42.2971210" lon="1.7144390">
        <ele>2001.9</ele>
        <time>2015-08-13T14:29:31Z</time>
      </trkpt>
      <trkpt lat="42.2970960" lon="1.7144150">
        <ele>2002.1</ele>
        <time>2015-08-13T14:29:34Z</time>
      </trkpt>
      <trkpt lat="42.2970910" lon="1.7143790">
        <ele>2002.2</ele>
        <time>2015-08-13T14:29:37Z</time>
      </trkpt>
      <trkpt lat="42.2970880" lon="1.7143390">
        <ele>2002.3</ele>
        <time>2015-08-13T14:29:39Z</time>
      </trkpt>
      <trkpt lat="42.2970730" lon="1.7142860">
        <ele>2002.6</ele>
        <time>2015-08-13T14:29:43Z</time>
      </trkpt>
      <trkpt lat="42.2970460" lon="1.7142690">
        <ele>2003.1</ele>
        <time>2015-08-13T14:29:48Z</time>
      </trkpt>
      <trkpt lat="42.2970690" lon="1.7142320">
        <ele>2002.7</ele>
        <time>2015-08-13T14:29:57Z</time>
      </trkpt>
      <trkpt lat="42.2970470" lon="1.7142040">
        <ele>2003.2</ele>
        <time>2015-08-13T14:30:03Z</time>
      </trkpt>
      <trkpt lat="42.2970180" lon="1.7141670">
        <ele>2003.9</ele>
        <time>2015-08-13T14:30:07Z</time>
      </trkpt>
      <trkpt lat="42.2969960" lon="1.7141270">
        <ele>2004.5</ele>
        <time>2015-08-13T14:30:10Z</time>
      </trkpt>
      <trkpt lat="42.2969970" lon="1.7140860">
        <ele>2004.5</ele>
        <time>2015-08-13T14:30:17Z</time>
      </trkpt>
      <trkpt lat="42.2969790" lon="1.7140460">
        <ele>2005.0</ele>
        <time>2015-08-13T14:30:20Z</time>
      </trkpt>
      <trkpt lat="42.2969520" lon="1.7140300">
        <ele>2005.7</ele>
        <time>2015-08-13T14:30:34Z</time>
      </trkpt>
      <trkpt lat="42.2969590" lon="1.7139900">
        <ele>2005.7</ele>
        <time>2015-08-13T14:31:17Z</time>
      </trkpt>
      <trkpt lat="42.2969540" lon="1.7139520">
        <ele>2005.9</ele>
        <time>2015-08-13T14:31:26Z</time>
      </trkpt>
      <trkpt lat="42.2969310" lon="1.7139190">
        <ele>2006.5</ele>
        <time>2015-08-13T14:31:30Z</time>
      </trkpt>
      <trkpt lat="42.2969280" lon="1.7138820">
        <ele>2006.7</ele>
        <time>2015-08-13T14:31:32Z</time>
      </trkpt>
      <trkpt lat="42.2969270" lon="1.7138450">
        <ele>2006.8</ele>
        <time>2015-08-13T14:31:36Z</time>
      </trkpt>
      <trkpt lat="42.2969140" lon="1.7138000">
        <ele>2007.3</ele>
        <time>2015-08-13T14:31:42Z</time>
      </trkpt>
      <trkpt lat="42.2968960" lon="1.7137610">
        <ele>2007.9</ele>
        <time>2015-08-13T14:31:46Z</time>
      </trkpt>
      <trkpt lat="42.2968840" lon="1.7137130">
        <ele>2007.8</ele>
        <time>2015-08-13T14:31:53Z</time>
      </trkpt>
      <trkpt lat="42.2968570" lon="1.7137010">
        <ele>2008.4</ele>
        <time>2015-08-13T14:31:57Z</time>
      </trkpt>
      <trkpt lat="42.2968370" lon="1.7136740">
        <ele>2008.6</ele>
        <time>2015-08-13T14:32:02Z</time>
      </trkpt>
      <trkpt lat="42.2968220" lon="1.7136380">
        <ele>2008.6</ele>
        <time>2015-08-13T14:32:07Z</time>
      </trkpt>
      <trkpt lat="42.2967870" lon="1.7136420">
        <ele>2009.6</ele>
        <time>2015-08-13T14:32:38Z</time>
      </trkpt>
      <trkpt lat="42.2967720" lon="1.7136100">
        <ele>2009.6</ele>
        <time>2015-08-13T14:32:40Z</time>
      </trkpt>
      <trkpt lat="42.2967400" lon="1.7135940">
        <ele>2010.2</ele>
        <time>2015-08-13T14:32:41Z</time>
      </trkpt>
      <trkpt lat="42.2967180" lon="1.7135600">
        <ele>2010.4</ele>
        <time>2015-08-13T14:32:47Z</time>
      </trkpt>
      <trkpt lat="42.2966910" lon="1.7135470">
        <ele>2010.9</ele>
        <time>2015-08-13T14:32:52Z</time>
      </trkpt>
      <trkpt lat="42.2966650" lon="1.7135660">
        <ele>2011.8</ele>
        <time>2015-08-13T14:32:56Z</time>
      </trkpt>
      <trkpt lat="42.2966430" lon="1.7135360">
        <ele>2012.0</ele>
        <time>2015-08-13T14:33:16Z</time>
      </trkpt>
      <trkpt lat="42.2966170" lon="1.7135180">
        <ele>2012.5</ele>
        <time>2015-08-13T14:33:20Z</time>
      </trkpt>
      <trkpt lat="42.2965930" lon="1.7134970">
        <ele>2012.9</ele>
        <time>2015-08-13T14:33:31Z</time>
      </trkpt>
      <trkpt lat="42.2965860" lon="1.7135340">
        <ele>2013.5</ele>
        <time>2015-08-13T14:34:01Z</time>
      </trkpt>
      <trkpt lat="42.2966040" lon="1.7135010">
        <ele>2012.6</ele>
        <time>2015-08-13T14:34:19Z</time>
      </trkpt>
      <trkpt lat="42.2965780" lon="1.7135210">
        <ele>2013.5</ele>
        <time>2015-08-13T14:34:30Z</time>
      </trkpt>
      <trkpt lat="42.2965510" lon="1.7134960">
        <ele>2013.9</ele>
        <time>2015-08-13T14:34:51Z</time>
      </trkpt>
      <trkpt lat="42.2965220" lon="1.7135200">
        <ele>2015.0</ele>
        <time>2015-08-13T14:34:59Z</time>
      </trkpt>
      <trkpt lat="42.2964940" lon="1.7135380">
        <ele>2015.9</ele>
        <time>2015-08-13T14:35:01Z</time>
      </trkpt>
      <trkpt lat="42.2965090" lon="1.7134980">
        <ele>2015.0</ele>
        <time>2015-08-13T14:35:02Z</time>
      </trkpt>
      <trkpt lat="42.2964750" lon="1.7135100">
        <ele>2016.0</ele>
        <time>2015-08-13T14:35:06Z</time>
      </trkpt>
      <trkpt lat="42.2964190" lon="1.7135050">
        <ele>2017.4</ele>
        <time>2015-08-13T14:35:10Z</time>
      </trkpt>
      <trkpt lat="42.2963900" lon="1.7135130">
        <ele>2018.3</ele>
        <time>2015-08-13T14:35:12Z</time>
      </trkpt>
      <trkpt lat="42.2963620" lon="1.7135190">
        <ele>2019.1</ele>
        <time>2015-08-13T14:35:17Z</time>
      </trkpt>
      <trkpt lat="42.2963250" lon="1.7135250">
        <ele>2020.1</ele>
        <time>2015-08-13T14:35:19Z</time>
      </trkpt>
      <trkpt lat="42.2962930" lon="1.7135230">
        <ele>2020.9</ele>
        <time>2015-08-13T14:35:23Z</time>
      </trkpt>
      <trkpt lat="42.2962690" lon="1.7135020">
        <ele>2021.2</ele>
        <time>2015-08-13T14:35:32Z</time>
      </trkpt>
      <trkpt lat="42.2962330" lon="1.7135180">
        <ele>2022.6</ele>
        <time>2015-08-13T14:35:36Z</time>
      </trkpt>
      <trkpt lat="42.2962050" lon="1.7134840">
        <ele>2023.2</ele>
        <time>2015-08-13T14:35:42Z</time>
      </trkpt>
      <trkpt lat="42.2961740" lon="1.7134780">
        <ele>2024.3</ele>
        <time>2015-08-13T14:35:52Z</time>
      </trkpt>
      <trkpt lat="42.2961340" lon="1.7135130">
        <ele>2026.2</ele>
        <time>2015-08-13T14:35:55Z</time>
      </trkpt>
      <trkpt lat="42.2961040" lon="1.7135120">
        <ele>2027.4</ele>
        <time>2015-08-13T14:35:58Z</time>
      </trkpt>
      <trkpt lat="42.2960750" lon="1.7135000">
        <ele>2028.3</ele>
        <time>2015-08-13T14:36:03Z</time>
      </trkpt>
      <trkpt lat="42.2960450" lon="1.7134870">
        <ele>2029.2</ele>
        <time>2015-08-13T14:36:08Z</time>
      </trkpt>
      <trkpt lat="42.2960120" lon="1.7134800">
        <ele>2030.4</ele>
        <time>2015-08-13T14:36:18Z</time>
      </trkpt>
      <trkpt lat="42.2959790" lon="1.7134590">
        <ele>2031.3</ele>
        <time>2015-08-13T14:36:24Z</time>
      </trkpt>
      <trkpt lat="42.2959560" lon="1.7134920">
        <ele>2032.7</ele>
        <time>2015-08-13T14:36:39Z</time>
      </trkpt>
      <trkpt lat="42.2959300" lon="1.7134710">
        <ele>2033.3</ele>
        <time>2015-08-13T14:36:55Z</time>
      </trkpt>
      <trkpt lat="42.2959050" lon="1.7135050">
        <ele>2034.8</ele>
        <time>2015-08-13T14:36:58Z</time>
      </trkpt>
      <trkpt lat="42.2958730" lon="1.7135080">
        <ele>2036.0</ele>
        <time>2015-08-13T14:37:04Z</time>
      </trkpt>
      <trkpt lat="42.2958400" lon="1.7135100">
        <ele>2037.3</ele>
        <time>2015-08-13T14:37:07Z</time>
      </trkpt>
      <trkpt lat="42.2958010" lon="1.7135080">
        <ele>2038.7</ele>
        <time>2015-08-13T14:37:14Z</time>
      </trkpt>
      <trkpt lat="42.2957780" lon="1.7135280">
        <ele>2039.9</ele>
        <time>2015-08-13T14:37:17Z</time>
      </trkpt>
      <trkpt lat="42.2957490" lon="1.7135380">
        <ele>2041.1</ele>
        <time>2015-08-13T14:37:22Z</time>
      </trkpt>
      <trkpt lat="42.2957240" lon="1.7135570">
        <ele>2042.4</ele>
        <time>2015-08-13T14:37:25Z</time>
      </trkpt>
      <trkpt lat="42.2956970" lon="1.7135990">
        <ele>2044.0</ele>
        <time>2015-08-13T14:37:29Z</time>
      </trkpt>
      <trkpt lat="42.2956690" lon="1.7136010">
        <ele>2045.1</ele>
        <time>2015-08-13T14:37:32Z</time>
      </trkpt>
      <trkpt lat="42.2956440" lon="1.7136190">
        <ele>2046.3</ele>
        <time>2015-08-13T14:37:36Z</time>
      </trkpt>
      <trkpt lat="42.2956190" lon="1.7136490">
        <ele>2047.7</ele>
        <time>2015-08-13T14:37:40Z</time>
      </trkpt>
      <trkpt lat="42.2955910" lon="1.7136500">
        <ele>2048.8</ele>
        <time>2015-08-13T14:37:45Z</time>
      </trkpt>
      <trkpt lat="42.2955630" lon="1.7136560">
        <ele>2050.0</ele>
        <time>2015-08-13T14:37:49Z</time>
      </trkpt>
      <trkpt lat="42.2955480" lon="1.7136870">
        <ele>2051.0</ele>
        <time>2015-08-13T14:37:54Z</time>
      </trkpt>
      <trkpt lat="42.2955300" lon="1.7137230">
        <ele>2052.2</ele>
        <time>2015-08-13T14:37:59Z</time>
      </trkpt>
      <trkpt lat="42.2955120" lon="1.7136920">
        <ele>2052.5</ele>
        <time>2015-08-13T14:38:09Z</time>
      </trkpt>
      <trkpt lat="42.2954820" lon="1.7137180">
        <ele>2054.0</ele>
        <time>2015-08-13T14:38:16Z</time>
      </trkpt>
      <trkpt lat="42.2954680" lon="1.7137610">
        <ele>2055.0</ele>
        <time>2015-08-13T14:38:21Z</time>
      </trkpt>
      <trkpt lat="42.2954240" lon="1.7137670">
        <ele>2056.6</ele>
        <time>2015-08-13T14:38:24Z</time>
      </trkpt>
      <trkpt lat="42.2953960" lon="1.7137700">
        <ele>2057.8</ele>
        <time>2015-08-13T14:38:26Z</time>
      </trkpt>
      <trkpt lat="42.2953880" lon="1.7138210">
        <ele>2057.9</ele>
        <time>2015-08-13T14:38:29Z</time>
      </trkpt>
      <trkpt lat="42.2953720" lon="1.7138510">
        <ele>2058.5</ele>
        <time>2015-08-13T14:38:32Z</time>
      </trkpt>
      <trkpt lat="42.2953420" lon="1.7138610">
        <ele>2059.8</ele>
        <time>2015-08-13T14:38:35Z</time>
      </trkpt>
      <trkpt lat="42.2953200" lon="1.7138830">
        <ele>2060.7</ele>
        <time>2015-08-13T14:38:42Z</time>
      </trkpt>
      <trkpt lat="42.2952980" lon="1.7139060">
        <ele>2061.6</ele>
        <time>2015-08-13T14:38:46Z</time>
      </trkpt>
      <trkpt lat="42.2952680" lon="1.7139360">
        <ele>2062.8</ele>
        <time>2015-08-13T14:38:50Z</time>
      </trkpt>
      <trkpt lat="42.2952350" lon="1.7139590">
        <ele>2064.2</ele>
        <time>2015-08-13T14:39:08Z</time>
      </trkpt>
      <trkpt lat="42.2952080" lon="1.7139820">
        <ele>2065.4</ele>
        <time>2015-08-13T14:39:14Z</time>
      </trkpt>
      <trkpt lat="42.2951930" lon="1.7140180">
        <ele>2065.9</ele>
        <time>2015-08-13T14:39:21Z</time>
      </trkpt>
      <trkpt lat="42.2951570" lon="1.7140160">
        <ele>2067.6</ele>
        <time>2015-08-13T14:39:23Z</time>
      </trkpt>
      <trkpt lat="42.2951300" lon="1.7140300">
        <ele>2068.7</ele>
        <time>2015-08-13T14:39:26Z</time>
      </trkpt>
      <trkpt lat="42.2951230" lon="1.7140680">
        <ele>2068.8</ele>
        <time>2015-08-13T14:39:33Z</time>
      </trkpt>
      <trkpt lat="42.2950960" lon="1.7141040">
        <ele>2069.9</ele>
        <time>2015-08-13T14:39:42Z</time>
      </trkpt>
      <trkpt lat="42.2950800" lon="1.7141370">
        <ele>2070.4</ele>
        <time>2015-08-13T14:39:46Z</time>
      </trkpt>
      <trkpt lat="42.2950540" lon="1.7141310">
        <ele>2071.7</ele>
        <time>2015-08-13T14:39:50Z</time>
      </trkpt>
      <trkpt lat="42.2950760" lon="1.7141530">
        <ele>2070.5</ele>
        <time>2015-08-13T14:39:56Z</time>
      </trkpt>
      <trkpt lat="42.2950380" lon="1.7141680">
        <ele>2072.2</ele>
        <time>2015-08-13T14:40:18Z</time>
      </trkpt>
      <trkpt lat="42.2950160" lon="1.7141990">
        <ele>2073.1</ele>
        <time>2015-08-13T14:40:22Z</time>
      </trkpt>
      <trkpt lat="42.2949910" lon="1.7142250">
        <ele>2074.1</ele>
        <time>2015-08-13T14:40:28Z</time>
      </trkpt>
      <trkpt lat="42.2949740" lon="1.7142640">
        <ele>2074.6</ele>
        <time>2015-08-13T14:40:31Z</time>
      </trkpt>
      <trkpt lat="42.2949510" lon="1.7142950">
        <ele>2075.5</ele>
        <time>2015-08-13T14:40:35Z</time>
      </trkpt>
      <trkpt lat="42.2949290" lon="1.7143260">
        <ele>2076.4</ele>
        <time>2015-08-13T14:40:42Z</time>
      </trkpt>
      <trkpt lat="42.2949190" lon="1.7143660">
        <ele>2076.6</ele>
        <time>2015-08-13T14:40:47Z</time>
      </trkpt>
      <trkpt lat="42.2948890" lon="1.7143620">
        <ele>2078.0</ele>
        <time>2015-08-13T14:40:54Z</time>
      </trkpt>
      <trkpt lat="42.2948580" lon="1.7143820">
        <ele>2079.4</ele>
        <time>2015-08-13T14:42:03Z</time>
      </trkpt>
      <trkpt lat="42.2948310" lon="1.7144060">
        <ele>2080.5</ele>
        <time>2015-08-13T14:42:07Z</time>
      </trkpt>
      <trkpt lat="42.2948170" lon="1.7144430">
        <ele>2080.9</ele>
        <time>2015-08-13T14:42:10Z</time>
      </trkpt>
      <trkpt lat="42.2947930" lon="1.7144630">
        <ele>2081.9</ele>
        <time>2015-08-13T14:42:37Z</time>
      </trkpt>
      <trkpt lat="42.2947680" lon="1.7145030">
        <ele>2082.8</ele>
        <time>2015-08-13T14:42:43Z</time>
      </trkpt>
      <trkpt lat="42.2947580" lon="1.7145470">
        <ele>2083.0</ele>
        <time>2015-08-13T14:42:46Z</time>
      </trkpt>
      <trkpt lat="42.2947650" lon="1.7145930">
        <ele>2082.3</ele>
        <time>2015-08-13T14:42:49Z</time>
      </trkpt>
      <trkpt lat="42.2947690" lon="1.7146400">
        <ele>2081.2</ele>
        <time>2015-08-13T14:42:52Z</time>
      </trkpt>
      <trkpt lat="42.2947810" lon="1.7146730">
        <ele>2079.9</ele>
        <time>2015-08-13T14:42:55Z</time>
      </trkpt>
      <trkpt lat="42.2947680" lon="1.7147060">
        <ele>2079.9</ele>
        <time>2015-08-13T14:42:59Z</time>
      </trkpt>
      <trkpt lat="42.2947470" lon="1.7147290">
        <ele>2080.4</ele>
        <time>2015-08-13T14:43:11Z</time>
      </trkpt>
      <trkpt lat="42.2947170" lon="1.7147470">
        <ele>2081.5</ele>
        <time>2015-08-13T14:43:21Z</time>
      </trkpt>
      <trkpt lat="42.2946870" lon="1.7147520">
        <ele>2082.9</ele>
        <time>2015-08-13T14:43:24Z</time>
      </trkpt>
      <trkpt lat="42.2946650" lon="1.7147790">
        <ele>2083.5</ele>
        <time>2015-08-13T14:43:44Z</time>
      </trkpt>
      <trkpt lat="42.2946530" lon="1.7148250">
        <ele>2083.2</ele>
        <time>2015-08-13T14:43:46Z</time>
      </trkpt>
      <trkpt lat="42.2946240" lon="1.7148130">
        <ele>2084.9</ele>
        <time>2015-08-13T14:43:52Z</time>
      </trkpt>
      <trkpt lat="42.2946360" lon="1.7148510">
        <ele>2083.6</ele>
        <time>2015-08-13T14:44:05Z</time>
      </trkpt>
      <trkpt lat="42.2946230" lon="1.7148920">
        <ele>2083.4</ele>
        <time>2015-08-13T14:44:12Z</time>
      </trkpt>
      <trkpt lat="42.2945960" lon="1.7148910">
        <ele>2084.8</ele>
        <time>2015-08-13T14:44:26Z</time>
      </trkpt>
      <trkpt lat="42.2945730" lon="1.7149260">
        <ele>2085.3</ele>
        <time>2015-08-13T14:44:42Z</time>
      </trkpt>
      <trkpt lat="42.2946000" lon="1.7149550">
        <ele>2083.5</ele>
        <time>2015-08-13T14:44:52Z</time>
      </trkpt>
      <trkpt lat="42.2945910" lon="1.7149070">
        <ele>2084.8</ele>
        <time>2015-08-13T14:45:02Z</time>
      </trkpt>
      <trkpt lat="42.2945580" lon="1.7149160">
        <ele>2086.1</ele>
        <time>2015-08-13T14:45:04Z</time>
      </trkpt>
      <trkpt lat="42.2945840" lon="1.7149340">
        <ele>2084.7</ele>
        <time>2015-08-13T14:45:14Z</time>
      </trkpt>
      <trkpt lat="42.2945580" lon="1.7149520">
        <ele>2085.5</ele>
        <time>2015-08-13T14:45:24Z</time>
      </trkpt>
      <trkpt lat="42.2945280" lon="1.7149660">
        <ele>2086.6</ele>
        <time>2015-08-13T14:45:28Z</time>
      </trkpt>
      <trkpt lat="42.2945010" lon="1.7149830">
        <ele>2087.6</ele>
        <time>2015-08-13T14:45:29Z</time>
      </trkpt>
      <trkpt lat="42.2944780" lon="1.7150060">
        <ele>2088.3</ele>
        <time>2015-08-13T14:45:36Z</time>
      </trkpt>
      <trkpt lat="42.2944680" lon="1.7150410">
        <ele>2088.2</ele>
        <time>2015-08-13T14:45:39Z</time>
      </trkpt>
      <trkpt lat="42.2944630" lon="1.7150970">
        <ele>2087.5</ele>
        <time>2015-08-13T14:45:47Z</time>
      </trkpt>
      <trkpt lat="42.2944450" lon="1.7151260">
        <ele>2087.9</ele>
        <time>2015-08-13T14:46:26Z</time>
      </trkpt>
      <trkpt lat="42.2944110" lon="1.7151470">
        <ele>2089.3</ele>
        <time>2015-08-13T14:46:36Z</time>
      </trkpt>
      <trkpt lat="42.2943930" lon="1.7151750">
        <ele>2089.8</ele>
        <time>2015-08-13T14:46:42Z</time>
      </trkpt>
      <trkpt lat="42.2943620" lon="1.7151860">
        <ele>2091.1</ele>
        <time>2015-08-13T14:47:38Z</time>
      </trkpt>
      <trkpt lat="42.2943340" lon="1.7151890">
        <ele>2092.5</ele>
        <time>2015-08-13T14:47:46Z</time>
      </trkpt>
      <trkpt lat="42.2943040" lon="1.7151800">
        <ele>2094.1</ele>
        <time>2015-08-13T14:47:55Z</time>
      </trkpt>
      <trkpt lat="42.2943050" lon="1.7151330">
        <ele>2094.7</ele>
        <time>2015-08-13T14:48:00Z</time>
      </trkpt>
      <trkpt lat="42.2942840" lon="1.7151060">
        <ele>2096.0</ele>
        <time>2015-08-13T14:48:03Z</time>
      </trkpt>
      <trkpt lat="42.2942530" lon="1.7150940">
        <ele>2097.7</ele>
        <time>2015-08-13T14:48:06Z</time>
      </trkpt>
      <trkpt lat="42.2942310" lon="1.7151180">
        <ele>2098.4</ele>
        <time>2015-08-13T14:48:21Z</time>
      </trkpt>
      <trkpt lat="42.2942050" lon="1.7151280">
        <ele>2099.6</ele>
        <time>2015-08-13T14:48:26Z</time>
      </trkpt>
      <trkpt lat="42.2941880" lon="1.7150910">
        <ele>2100.8</ele>
        <time>2015-08-13T14:48:31Z</time>
      </trkpt>
      <trkpt lat="42.2941790" lon="1.7150480">
        <ele>2101.7</ele>
        <time>2015-08-13T14:48:38Z</time>
      </trkpt>
      <trkpt lat="42.2941500" lon="1.7150230">
        <ele>2103.3</ele>
        <time>2015-08-13T14:48:41Z</time>
      </trkpt>
      <trkpt lat="42.2941220" lon="1.7149990">
        <ele>2104.8</ele>
        <time>2015-08-13T14:48:47Z</time>
      </trkpt>
      <trkpt lat="42.2941260" lon="1.7149540">
        <ele>2105.1</ele>
        <time>2015-08-13T14:48:50Z</time>
      </trkpt>
      <trkpt lat="42.2941240" lon="1.7149170">
        <ele>2105.5</ele>
        <time>2015-08-13T14:48:53Z</time>
      </trkpt>
      <trkpt lat="42.2941330" lon="1.7148810">
        <ele>2105.4</ele>
        <time>2015-08-13T14:48:59Z</time>
      </trkpt>
      <trkpt lat="42.2941350" lon="1.7148360">
        <ele>2105.8</ele>
        <time>2015-08-13T14:49:09Z</time>
      </trkpt>
      <trkpt lat="42.2941150" lon="1.7148070">
        <ele>2106.9</ele>
        <time>2015-08-13T14:49:13Z</time>
      </trkpt>
      <trkpt lat="42.2941010" lon="1.7147740">
        <ele>2107.8</ele>
        <time>2015-08-13T14:49:16Z</time>
      </trkpt>
      <trkpt lat="42.2940930" lon="1.7147320">
        <ele>2108.5</ele>
        <time>2015-08-13T14:49:28Z</time>
      </trkpt>
      <trkpt lat="42.2940820" lon="1.7146960">
        <ele>2109.3</ele>
        <time>2015-08-13T14:49:31Z</time>
      </trkpt>
      <trkpt lat="42.2940720" lon="1.7146570">
        <ele>2110.0</ele>
        <time>2015-08-13T14:49:35Z</time>
      </trkpt>
      <trkpt lat="42.2940680" lon="1.7146180">
        <ele>2110.5</ele>
        <time>2015-08-13T14:49:38Z</time>
      </trkpt>
      <trkpt lat="42.2940650" lon="1.7145690">
        <ele>2111.0</ele>
        <time>2015-08-13T14:49:42Z</time>
      </trkpt>
      <trkpt lat="42.2940890" lon="1.7146100">
        <ele>2109.7</ele>
        <time>2015-08-13T14:49:50Z</time>
      </trkpt>
      <trkpt lat="42.2940860" lon="1.7145720">
        <ele>2110.2</ele>
        <time>2015-08-13T14:49:54Z</time>
      </trkpt>
      <trkpt lat="42.2940880" lon="1.7145310">
        <ele>2110.4</ele>
        <time>2015-08-13T14:49:56Z</time>
      </trkpt>
      <trkpt lat="42.2940650" lon="1.7144890">
        <ele>2111.5</ele>
        <time>2015-08-13T14:50:01Z</time>
      </trkpt>
      <trkpt lat="42.2941000" lon="1.7144690">
        <ele>2110.3</ele>
        <time>2015-08-13T14:50:02Z</time>
      </trkpt>
      <trkpt lat="42.2940710" lon="1.7144790">
        <ele>2111.4</ele>
        <time>2015-08-13T14:50:15Z</time>
      </trkpt>
      <trkpt lat="42.2940890" lon="1.7144510">
        <ele>2110.9</ele>
        <time>2015-08-13T14:50:48Z</time>
      </trkpt>
      <trkpt lat="42.2940900" lon="1.7144110">
        <ele>2111.1</ele>
        <time>2015-08-13T14:50:50Z</time>
      </trkpt>
      <trkpt lat="42.2941180" lon="1.7143740">
        <ele>2110.3</ele>
        <time>2015-08-13T14:50:53Z</time>
      </trkpt>
      <trkpt lat="42.2941270" lon="1.7143330">
        <ele>2110.2</ele>
        <time>2015-08-13T14:50:57Z</time>
      </trkpt>
      <trkpt lat="42.2940950" lon="1.7143140">
        <ele>2111.6</ele>
        <time>2015-08-13T14:51:01Z</time>
      </trkpt>
      <trkpt lat="42.2940720" lon="1.7142940">
        <ele>2112.6</ele>
        <time>2015-08-13T14:51:05Z</time>
      </trkpt>
      <trkpt lat="42.2940910" lon="1.7142570">
        <ele>2112.1</ele>
        <time>2015-08-13T14:51:09Z</time>
      </trkpt>
      <trkpt lat="42.2941260" lon="1.7142680">
        <ele>2110.7</ele>
        <time>2015-08-13T14:51:16Z</time>
      </trkpt>
      <trkpt lat="42.2941360" lon="1.7142170">
        <ele>2110.6</ele>
        <time>2015-08-13T14:51:19Z</time>
      </trkpt>
      <trkpt lat="42.2941150" lon="1.7141810">
        <ele>2111.7</ele>
        <time>2015-08-13T14:51:35Z</time>
      </trkpt>
      <trkpt lat="42.2941020" lon="1.7141460">
        <ele>2112.4</ele>
        <time>2015-08-13T14:51:39Z</time>
      </trkpt>
      <trkpt lat="42.2941170" lon="1.7141120">
        <ele>2112.1</ele>
        <time>2015-08-13T14:51:53Z</time>
      </trkpt>
      <trkpt lat="42.2941410" lon="1.7140910">
        <ele>2111.3</ele>
        <time>2015-08-13T14:52:01Z</time>
      </trkpt>
      <trkpt lat="42.2941560" lon="1.7140600">
        <ele>2110.9</ele>
        <time>2015-08-13T14:52:08Z</time>
      </trkpt>
      <trkpt lat="42.2941640" lon="1.7140180">
        <ele>2110.8</ele>
        <time>2015-08-13T14:52:11Z</time>
      </trkpt>
      <trkpt lat="42.2941690" lon="1.7139760">
        <ele>2110.9</ele>
        <time>2015-08-13T14:52:14Z</time>
      </trkpt>
      <trkpt lat="42.2941680" lon="1.7139360">
        <ele>2111.2</ele>
        <time>2015-08-13T14:52:21Z</time>
      </trkpt>
      <trkpt lat="42.2941580" lon="1.7139000">
        <ele>2111.9</ele>
        <time>2015-08-13T14:52:23Z</time>
      </trkpt>
      <trkpt lat="42.2941760" lon="1.7138730">
        <ele>2111.3</ele>
        <time>2015-08-13T14:52:31Z</time>
      </trkpt>
      <trkpt lat="42.2942090" lon="1.7138220">
        <ele>2110.4</ele>
        <time>2015-08-13T14:52:33Z</time>
      </trkpt>
      <trkpt lat="42.2942410" lon="1.7137860">
        <ele>2109.3</ele>
        <time>2015-08-13T14:52:35Z</time>
      </trkpt>
      <trkpt lat="42.2942250" lon="1.7137510">
        <ele>2110.2</ele>
        <time>2015-08-13T14:52:42Z</time>
      </trkpt>
      <trkpt lat="42.2942170" lon="1.7137120">
        <ele>2109.8</ele>
        <time>2015-08-13T14:52:47Z</time>
      </trkpt>
      <trkpt lat="42.2941860" lon="1.7137310">
        <ele>2111.4</ele>
        <time>2015-08-13T14:52:49Z</time>
      </trkpt>
      <trkpt lat="42.2942050" lon="1.7137050">
        <ele>2110.2</ele>
        <time>2015-08-13T14:52:54Z</time>
      </trkpt>
      <trkpt lat="42.2942250" lon="1.7136780">
        <ele>2108.9</ele>
        <time>2015-08-13T14:53:11Z</time>
      </trkpt>
      <trkpt lat="42.2942150" lon="1.7136400">
        <ele>2108.6</ele>
        <time>2015-08-13T14:53:14Z</time>
      </trkpt>
      <trkpt lat="42.2942170" lon="1.7135920">
        <ele>2107.7</ele>
        <time>2015-08-13T14:53:18Z</time>
      </trkpt>
      <trkpt lat="42.2942000" lon="1.7135630">
        <ele>2107.9</ele>
        <time>2015-08-13T14:53:48Z</time>
      </trkpt>
      <trkpt lat="42.2941870" lon="1.7135210">
        <ele>2107.7</ele>
        <time>2015-08-13T14:53:51Z</time>
      </trkpt>
      <trkpt lat="42.2942120" lon="1.7135070">
        <ele>2106.4</ele>
        <time>2015-08-13T14:54:53Z</time>
      </trkpt>
      <trkpt lat="42.2942490" lon="1.7134940">
        <ele>2104.7</ele>
        <time>2015-08-13T14:54:56Z</time>
      </trkpt>
      <trkpt lat="42.2942750" lon="1.7134800">
        <ele>2103.4</ele>
        <time>2015-08-13T14:55:04Z</time>
      </trkpt>
      <trkpt lat="42.2943140" lon="1.7134630">
        <ele>2101.5</ele>
        <time>2015-08-13T14:55:06Z</time>
      </trkpt>
      <trkpt lat="42.2942840" lon="1.7134770">
        <ele>2103.0</ele>
        <time>2015-08-13T14:55:09Z</time>
      </trkpt>
      <trkpt lat="42.2942640" lon="1.7135020">
        <ele>2104.2</ele>
        <time>2015-08-13T14:55:28Z</time>
      </trkpt>
      <trkpt lat="42.2942370" lon="1.7135180">
        <ele>2105.6</ele>
        <time>2015-08-13T14:55:46Z</time>
      </trkpt>
      <trkpt lat="42.2942610" lon="1.7135430">
        <ele>2105.1</ele>
        <time>2015-08-13T14:56:15Z</time>
      </trkpt>
      <trkpt lat="42.2942040" lon="1.7135540">
        <ele>2107.6</ele>
        <time>2015-08-13T14:56:46Z</time>
      </trkpt>
      <trkpt lat="42.2941840" lon="1.7135790">
        <ele>2108.8</ele>
        <time>2015-08-13T14:56:48Z</time>
      </trkpt>
      <trkpt lat="42.2941440" lon="1.7135880">
        <ele>2110.6</ele>
        <time>2015-08-13T14:56:51Z</time>
      </trkpt>
      <trkpt lat="42.2941160" lon="1.7135990">
        <ele>2111.9</ele>
        <time>2015-08-13T14:56:52Z</time>
      </trkpt>
      <trkpt lat="42.2940800" lon="1.7136300">
        <ele>2113.9</ele>
        <time>2015-08-13T14:56:54Z</time>
      </trkpt>
      <trkpt lat="42.2940520" lon="1.7136500">
        <ele>2115.4</ele>
        <time>2015-08-13T14:56:58Z</time>
      </trkpt>
      <trkpt lat="42.2940240" lon="1.7136550">
        <ele>2116.6</ele>
        <time>2015-08-13T14:57:19Z</time>
      </trkpt>
      <trkpt lat="42.2940010" lon="1.7136890">
        <ele>2118.0</ele>
        <time>2015-08-13T14:57:22Z</time>
      </trkpt>
      <trkpt lat="42.2939730" lon="1.7137150">
        <ele>2119.6</ele>
        <time>2015-08-13T14:57:25Z</time>
      </trkpt>
      <trkpt lat="42.2939480" lon="1.7137480">
        <ele>2121.1</ele>
        <time>2015-08-13T14:57:30Z</time>
      </trkpt>
      <trkpt lat="42.2939260" lon="1.7137840">
        <ele>2121.8</ele>
        <time>2015-08-13T14:57:33Z</time>
      </trkpt>
      <trkpt lat="42.2939100" lon="1.7138150">
        <ele>2122.2</ele>
        <time>2015-08-13T14:57:36Z</time>
      </trkpt>
      <trkpt lat="42.2938930" lon="1.7138510">
        <ele>2122.6</ele>
        <time>2015-08-13T14:57:39Z</time>
      </trkpt>
      <trkpt lat="42.2938610" lon="1.7138840">
        <ele>2123.7</ele>
        <time>2015-08-13T14:57:43Z</time>
      </trkpt>
      <trkpt lat="42.2938440" lon="1.7139190">
        <ele>2124.1</ele>
        <time>2015-08-13T14:57:47Z</time>
      </trkpt>
      <trkpt lat="42.2938250" lon="1.7139550">
        <ele>2124.6</ele>
        <time>2015-08-13T14:57:59Z</time>
      </trkpt>
      <trkpt lat="42.2938280" lon="1.7139920">
        <ele>2124.2</ele>
        <time>2015-08-13T14:58:05Z</time>
      </trkpt>
      <trkpt lat="42.2937950" lon="1.7140120">
        <ele>2125.3</ele>
        <time>2015-08-13T14:58:12Z</time>
      </trkpt>
      <trkpt lat="42.2937960" lon="1.7140640">
        <ele>2124.9</ele>
        <time>2015-08-13T14:58:24Z</time>
      </trkpt>
      <trkpt lat="42.2937690" lon="1.7140480">
        <ele>2126.1</ele>
        <time>2015-08-13T14:58:35Z</time>
      </trkpt>
      <trkpt lat="42.2937360" lon="1.7140550">
        <ele>2127.1</ele>
        <time>2015-08-13T14:58:40Z</time>
      </trkpt>
      <trkpt lat="42.2937070" lon="1.7140700">
        <ele>2127.7</ele>
        <time>2015-08-13T14:58:43Z</time>
      </trkpt>
      <trkpt lat="42.2936720" lon="1.7140880">
        <ele>2128.3</ele>
        <time>2015-08-13T14:58:46Z</time>
      </trkpt>
      <trkpt lat="42.2936630" lon="1.7141350">
        <ele>2128.2</ele>
        <time>2015-08-13T14:58:54Z</time>
      </trkpt>
      <trkpt lat="42.2936430" lon="1.7141650">
        <ele>2128.5</ele>
        <time>2015-08-13T14:58:57Z</time>
      </trkpt>
      <trkpt lat="42.2936330" lon="1.7142010">
        <ele>2128.5</ele>
        <time>2015-08-13T14:59:01Z</time>
      </trkpt>
      <trkpt lat="42.2936050" lon="1.7142210">
        <ele>2129.1</ele>
        <time>2015-08-13T14:59:07Z</time>
      </trkpt>
      <trkpt lat="42.2935770" lon="1.7142310">
        <ele>2129.7</ele>
        <time>2015-08-13T14:59:10Z</time>
      </trkpt>
      <trkpt lat="42.2935470" lon="1.7142340">
        <ele>2130.4</ele>
        <time>2015-08-13T14:59:14Z</time>
      </trkpt>
      <trkpt lat="42.2935210" lon="1.7142440">
        <ele>2131.0</ele>
        <time>2015-08-13T14:59:16Z</time>
      </trkpt>
      <trkpt lat="42.2934940" lon="1.7142420">
        <ele>2131.6</ele>
        <time>2015-08-13T14:59:19Z</time>
      </trkpt>
      <trkpt lat="42.2934600" lon="1.7142400">
        <ele>2132.5</ele>
        <time>2015-08-13T14:59:23Z</time>
      </trkpt>
      <trkpt lat="42.2934330" lon="1.7142240">
        <ele>2133.2</ele>
        <time>2015-08-13T14:59:27Z</time>
      </trkpt>
      <trkpt lat="42.2934060" lon="1.7142200">
        <ele>2133.9</ele>
        <time>2015-08-13T14:59:30Z</time>
      </trkpt>
      <trkpt lat="42.2933770" lon="1.7142140">
        <ele>2134.6</ele>
        <time>2015-08-13T14:59:33Z</time>
      </trkpt>
      <trkpt lat="42.2933440" lon="1.7142220">
        <ele>2135.3</ele>
        <time>2015-08-13T14:59:37Z</time>
      </trkpt>
      <trkpt lat="42.2933130" lon="1.7142150">
        <ele>2136.1</ele>
        <time>2015-08-13T14:59:42Z</time>
      </trkpt>
      <trkpt lat="42.2932800" lon="1.7142220">
        <ele>2136.9</ele>
        <time>2015-08-13T14:59:46Z</time>
      </trkpt>
      <trkpt lat="42.2932490" lon="1.7142250">
        <ele>2137.6</ele>
        <time>2015-08-13T14:59:52Z</time>
      </trkpt>
      <trkpt lat="42.2932210" lon="1.7142340">
        <ele>2138.3</ele>
        <time>2015-08-13T14:59:57Z</time>
      </trkpt>
      <trkpt lat="42.2931980" lon="1.7142540">
        <ele>2138.8</ele>
        <time>2015-08-13T15:00:00Z</time>
      </trkpt>
      <trkpt lat="42.2931670" lon="1.7142680">
        <ele>2139.5</ele>
        <time>2015-08-13T15:00:28Z</time>
      </trkpt>
      <trkpt lat="42.2931380" lon="1.7142590">
        <ele>2140.2</ele>
        <time>2015-08-13T15:00:32Z</time>
      </trkpt>
      <trkpt lat="42.2931070" lon="1.7142570">
        <ele>2141.0</ele>
        <time>2015-08-13T15:00:40Z</time>
      </trkpt>
      <trkpt lat="42.2930830" lon="1.7142780">
        <ele>2141.6</ele>
        <time>2015-08-13T15:00:47Z</time>
      </trkpt>
      <trkpt lat="42.2930550" lon="1.7142940">
        <ele>2142.2</ele>
        <time>2015-08-13T15:00:52Z</time>
      </trkpt>
      <trkpt lat="42.2930280" lon="1.7142880">
        <ele>2142.9</ele>
        <time>2015-08-13T15:01:05Z</time>
      </trkpt>
      <trkpt lat="42.2930040" lon="1.7143060">
        <ele>2143.5</ele>
        <time>2015-08-13T15:01:07Z</time>
      </trkpt>
      <trkpt lat="42.2929670" lon="1.7143120">
        <ele>2144.4</ele>
        <time>2015-08-13T15:01:09Z</time>
      </trkpt>
      <trkpt lat="42.2929320" lon="1.7143200">
        <ele>2145.3</ele>
        <time>2015-08-13T15:01:11Z</time>
      </trkpt>
      <trkpt lat="42.2928980" lon="1.7143220">
        <ele>2146.3</ele>
        <time>2015-08-13T15:01:14Z</time>
      </trkpt>
      <trkpt lat="42.2928620" lon="1.7143350">
        <ele>2147.6</ele>
        <time>2015-08-13T15:01:17Z</time>
      </trkpt>
      <trkpt lat="42.2928430" lon="1.7143710">
        <ele>2148.4</ele>
        <time>2015-08-13T15:01:32Z</time>
      </trkpt>
      <trkpt lat="42.2928180" lon="1.7143920">
        <ele>2149.3</ele>
        <time>2015-08-13T15:01:36Z</time>
      </trkpt>
      <trkpt lat="42.2927900" lon="1.7144170">
        <ele>2150.4</ele>
        <time>2015-08-13T15:01:39Z</time>
      </trkpt>
      <trkpt lat="42.2927640" lon="1.7144360">
        <ele>2151.3</ele>
        <time>2015-08-13T15:01:46Z</time>
      </trkpt>
      <trkpt lat="42.2927390" lon="1.7144520">
        <ele>2152.3</ele>
        <time>2015-08-13T15:01:53Z</time>
      </trkpt>
      <trkpt lat="42.2927150" lon="1.7144930">
        <ele>2153.3</ele>
        <time>2015-08-13T15:02:07Z</time>
      </trkpt>
      <trkpt lat="42.2927040" lon="1.7145360">
        <ele>2153.8</ele>
        <time>2015-08-13T15:02:14Z</time>
      </trkpt>
      <trkpt lat="42.2926760" lon="1.7145730">
        <ele>2154.9</ele>
        <time>2015-08-13T15:02:19Z</time>
      </trkpt>
      <trkpt lat="42.2926400" lon="1.7145930">
        <ele>2156.3</ele>
        <time>2015-08-13T15:02:22Z</time>
      </trkpt>
      <trkpt lat="42.2926630" lon="1.7146230">
        <ele>2155.7</ele>
        <time>2015-08-13T15:02:33Z</time>
      </trkpt>
      <trkpt lat="42.2926700" lon="1.7146590">
        <ele>2155.6</ele>
        <time>2015-08-13T15:02:38Z</time>
      </trkpt>
      <trkpt lat="42.2926680" lon="1.7147000">
        <ele>2155.9</ele>
        <time>2015-08-13T15:02:47Z</time>
      </trkpt>
      <trkpt lat="42.2926370" lon="1.7147180">
        <ele>2157.2</ele>
        <time>2015-08-13T15:02:49Z</time>
      </trkpt>
      <trkpt lat="42.2926270" lon="1.7147530">
        <ele>2157.8</ele>
        <time>2015-08-13T15:02:53Z</time>
      </trkpt>
      <trkpt lat="42.2926440" lon="1.7147970">
        <ele>2157.4</ele>
        <time>2015-08-13T15:03:00Z</time>
      </trkpt>
      <trkpt lat="42.2926430" lon="1.7148340">
        <ele>2157.7</ele>
        <time>2015-08-13T15:03:03Z</time>
      </trkpt>
      <trkpt lat="42.2926520" lon="1.7148720">
        <ele>2157.6</ele>
        <time>2015-08-13T15:03:09Z</time>
      </trkpt>
      <trkpt lat="42.2926510" lon="1.7149090">
        <ele>2157.8</ele>
        <time>2015-08-13T15:03:12Z</time>
      </trkpt>
      <trkpt lat="42.2926420" lon="1.7149500">
        <ele>2158.4</ele>
        <time>2015-08-13T15:03:15Z</time>
      </trkpt>
      <trkpt lat="42.2926490" lon="1.7149910">
        <ele>2158.4</ele>
        <time>2015-08-13T15:03:24Z</time>
      </trkpt>
      <trkpt lat="42.2926800" lon="1.7150150">
        <ele>2157.3</ele>
        <time>2015-08-13T15:03:31Z</time>
      </trkpt>
      <trkpt lat="42.2926530" lon="1.7150250">
        <ele>2158.4</ele>
        <time>2015-08-13T15:03:35Z</time>
      </trkpt>
      <trkpt lat="42.2926490" lon="1.7149810">
        <ele>2158.3</ele>
        <time>2015-08-13T15:03:52Z</time>
      </trkpt>
      <trkpt lat="42.2926080" lon="1.7149640">
        <ele>2159.8</ele>
        <time>2015-08-13T15:03:58Z</time>
      </trkpt>
      <trkpt lat="42.2925810" lon="1.7149360">
        <ele>2160.7</ele>
        <time>2015-08-13T15:04:01Z</time>
      </trkpt>
      <trkpt lat="42.2925520" lon="1.7149270">
        <ele>2161.8</ele>
        <time>2015-08-13T15:04:03Z</time>
      </trkpt>
      <trkpt lat="42.2925260" lon="1.7149160">
        <ele>2162.7</ele>
        <time>2015-08-13T15:04:08Z</time>
      </trkpt>
      <trkpt lat="42.2924820" lon="1.7148980">
        <ele>2164.3</ele>
        <time>2015-08-13T15:04:11Z</time>
      </trkpt>
      <trkpt lat="42.2924520" lon="1.7148890">
        <ele>2165.4</ele>
        <time>2015-08-13T15:04:12Z</time>
      </trkpt>
      <trkpt lat="42.2924250" lon="1.7148970">
        <ele>2166.5</ele>
        <time>2015-08-13T15:04:13Z</time>
      </trkpt>
      <trkpt lat="42.2923980" lon="1.7148610">
        <ele>2167.2</ele>
        <time>2015-08-13T15:04:15Z</time>
      </trkpt>
      <trkpt lat="42.2923520" lon="1.7148580">
        <ele>2169.0</ele>
        <time>2015-08-13T15:04:19Z</time>
      </trkpt>
      <trkpt lat="42.2923350" lon="1.7148220">
        <ele>2169.4</ele>
        <time>2015-08-13T15:04:21Z</time>
      </trkpt>
      <trkpt lat="42.2923080" lon="1.7148170">
        <ele>2170.4</ele>
        <time>2015-08-13T15:04:28Z</time>
      </trkpt>
      <trkpt lat="42.2923040" lon="1.7147700">
        <ele>2170.2</ele>
        <time>2015-08-13T15:04:31Z</time>
      </trkpt>
      <trkpt lat="42.2922760" lon="1.7147560">
        <ele>2171.1</ele>
        <time>2015-08-13T15:04:32Z</time>
      </trkpt>
      <trkpt lat="42.2922450" lon="1.7147390">
        <ele>2172.2</ele>
        <time>2015-08-13T15:04:34Z</time>
      </trkpt>
      <trkpt lat="42.2922400" lon="1.7146790">
        <ele>2171.9</ele>
        <time>2015-08-13T15:04:43Z</time>
      </trkpt>
      <trkpt lat="42.2922710" lon="1.7146880">
        <ele>2170.8</ele>
        <time>2015-08-13T15:04:44Z</time>
      </trkpt>
      <trkpt lat="42.2922460" lon="1.7146690">
        <ele>2171.6</ele>
        <time>2015-08-13T15:04:45Z</time>
      </trkpt>
      <trkpt lat="42.2922760" lon="1.7146560">
        <ele>2170.4</ele>
        <time>2015-08-13T15:04:51Z</time>
      </trkpt>
      <trkpt lat="42.2922590" lon="1.7146260">
        <ele>2170.8</ele>
        <time>2015-08-13T15:04:55Z</time>
      </trkpt>
      <trkpt lat="42.2922360" lon="1.7146020">
        <ele>2171.5</ele>
        <time>2015-08-13T15:06:48Z</time>
      </trkpt>
      <trkpt lat="42.2922110" lon="1.7145750">
        <ele>2172.2</ele>
        <time>2015-08-13T15:07:14Z</time>
      </trkpt>
      <trkpt lat="42.2921830" lon="1.7145580">
        <ele>2173.1</ele>
        <time>2015-08-13T15:07:17Z</time>
      </trkpt>
      <trkpt lat="42.2921520" lon="1.7145580">
        <ele>2174.3</ele>
        <time>2015-08-13T15:07:20Z</time>
      </trkpt>
      <trkpt lat="42.2921230" lon="1.7145730">
        <ele>2175.5</ele>
        <time>2015-08-13T15:07:29Z</time>
      </trkpt>
      <trkpt lat="42.2920920" lon="1.7145660">
        <ele>2176.6</ele>
        <time>2015-08-13T15:07:39Z</time>
      </trkpt>
      <trkpt lat="42.2920640" lon="1.7145650">
        <ele>2177.9</ele>
        <time>2015-08-13T15:07:42Z</time>
      </trkpt>
      <trkpt lat="42.2920450" lon="1.7146050">
        <ele>2179.3</ele>
        <time>2015-08-13T15:07:51Z</time>
      </trkpt>
      <trkpt lat="42.2920580" lon="1.7146380">
        <ele>2178.9</ele>
        <time>2015-08-13T15:07:54Z</time>
      </trkpt>
      <trkpt lat="42.2920640" lon="1.7146750">
        <ele>2178.8</ele>
        <time>2015-08-13T15:07:58Z</time>
      </trkpt>
      <trkpt lat="42.2920780" lon="1.7147060">
        <ele>2178.3</ele>
        <time>2015-08-13T15:08:02Z</time>
      </trkpt>
      <trkpt lat="42.2920700" lon="1.7147440">
        <ele>2179.1</ele>
        <time>2015-08-13T15:08:07Z</time>
      </trkpt>
      <trkpt lat="42.2920790" lon="1.7147800">
        <ele>2178.9</ele>
        <time>2015-08-13T15:08:12Z</time>
      </trkpt>
      <trkpt lat="42.2920690" lon="1.7148270">
        <ele>2179.8</ele>
        <time>2015-08-13T15:08:24Z</time>
      </trkpt>
      <trkpt lat="42.2920520" lon="1.7148590">
        <ele>2181.0</ele>
        <time>2015-08-13T15:08:30Z</time>
      </trkpt>
      <trkpt lat="42.2920580" lon="1.7149020">
        <ele>2181.1</ele>
        <time>2015-08-13T15:08:35Z</time>
      </trkpt>
      <trkpt lat="42.2920620" lon="1.7149410">
        <ele>2181.2</ele>
        <time>2015-08-13T15:08:41Z</time>
      </trkpt>
      <trkpt lat="42.2920480" lon="1.7149780">
        <ele>2182.2</ele>
        <time>2015-08-13T15:08:46Z</time>
      </trkpt>
      <trkpt lat="42.2920410" lon="1.7150140">
        <ele>2182.9</ele>
        <time>2015-08-13T15:08:50Z</time>
      </trkpt>
      <trkpt lat="42.2920450" lon="1.7150530">
        <ele>2183.0</ele>
        <time>2015-08-13T15:08:56Z</time>
      </trkpt>
      <trkpt lat="42.2920190" lon="1.7150710">
        <ele>2184.6</ele>
        <time>2015-08-13T15:09:03Z</time>
      </trkpt>
      <trkpt lat="42.2919950" lon="1.7150410">
        <ele>2185.7</ele>
        <time>2015-08-13T15:09:16Z</time>
      </trkpt>
      <trkpt lat="42.2919720" lon="1.7150210">
        <ele>2186.8</ele>
        <time>2015-08-13T15:09:24Z</time>
      </trkpt>
      <trkpt lat="42.2919380" lon="1.7150410">
        <ele>2188.8</ele>
        <time>2015-08-13T15:09:39Z</time>
      </trkpt>
      <trkpt lat="42.2919080" lon="1.7150330">
        <ele>2190.3</ele>
        <time>2015-08-13T15:09:42Z</time>
      </trkpt>
      <trkpt lat="42.2918650" lon="1.7150170">
        <ele>2192.6</ele>
        <time>2015-08-13T15:09:54Z</time>
      </trkpt>
      <trkpt lat="42.2918420" lon="1.7150380">
        <ele>2194.0</ele>
        <time>2015-08-13T15:09:57Z</time>
      </trkpt>
      <trkpt lat="42.2918420" lon="1.7149900">
        <ele>2193.6</ele>
        <time>2015-08-13T15:10:02Z</time>
      </trkpt>
      <trkpt lat="42.2918180" lon="1.7149700">
        <ele>2194.7</ele>
        <time>2015-08-13T15:10:05Z</time>
      </trkpt>
      <trkpt lat="42.2918190" lon="1.7149300">
        <ele>2194.4</ele>
        <time>2015-08-13T15:10:08Z</time>
      </trkpt>
      <trkpt lat="42.2918110" lon="1.7148910">
        <ele>2194.5</ele>
        <time>2015-08-13T15:10:14Z</time>
      </trkpt>
      <trkpt lat="42.2918590" lon="1.7149010">
        <ele>2191.9</ele>
        <time>2015-08-13T15:10:30Z</time>
      </trkpt>
      <trkpt lat="42.2918240" lon="1.7149150">
        <ele>2194.0</ele>
        <time>2015-08-13T15:10:34Z</time>
      </trkpt>
      <trkpt lat="42.2918300" lon="1.7149550">
        <ele>2194.0</ele>
        <time>2015-08-13T15:10:42Z</time>
      </trkpt>
      <trkpt lat="42.2918170" lon="1.7150170">
        <ele>2195.2</ele>
        <time>2015-08-13T15:10:46Z</time>
      </trkpt>
      <trkpt lat="42.2918520" lon="1.7150610">
        <ele>2193.6</ele>
        <time>2015-08-13T15:10:47Z</time>
      </trkpt>
      <trkpt lat="42.2918350" lon="1.7151010">
        <ele>2194.9</ele>
        <time>2015-08-13T15:10:48Z</time>
      </trkpt>
      <trkpt lat="42.2917660" lon="1.7151000">
        <ele>2198.6</ele>
        <time>2015-08-13T15:10:49Z</time>
      </trkpt>
      <trkpt lat="42.2917400" lon="1.7151140">
        <ele>2200.1</ele>
        <time>2015-08-13T15:10:52Z</time>
      </trkpt>
      <trkpt lat="42.2917000" lon="1.7151310">
        <ele>2202.5</ele>
        <time>2015-08-13T15:10:58Z</time>
      </trkpt>
      <trkpt lat="42.2916790" lon="1.7151620">
        <ele>2203.8</ele>
        <time>2015-08-13T15:11:01Z</time>
      </trkpt>
      <trkpt lat="42.2916750" lon="1.7152040">
        <ele>2204.4</ele>
        <time>2015-08-13T15:11:09Z</time>
      </trkpt>
      <trkpt lat="42.2917100" lon="1.7151990">
        <ele>2202.4</ele>
        <time>2015-08-13T15:11:10Z</time>
      </trkpt>
      <trkpt lat="42.2916920" lon="1.7152430">
        <ele>2203.8</ele>
        <time>2015-08-13T15:11:32Z</time>
      </trkpt>
      <trkpt lat="42.2916550" lon="1.7152300">
        <ele>2205.7</ele>
        <time>2015-08-13T15:11:38Z</time>
      </trkpt>
      <trkpt lat="42.2916240" lon="1.7152600">
        <ele>2207.6</ele>
        <time>2015-08-13T15:11:40Z</time>
      </trkpt>
      <trkpt lat="42.2916450" lon="1.7152170">
        <ele>2206.1</ele>
        <time>2015-08-13T15:11:43Z</time>
      </trkpt>
      <trkpt lat="42.2916180" lon="1.7152090">
        <ele>2207.5</ele>
        <time>2015-08-13T15:11:50Z</time>
      </trkpt>
      <trkpt lat="42.2915970" lon="1.7152450">
        <ele>2208.9</ele>
        <time>2015-08-13T15:11:58Z</time>
      </trkpt>
      <trkpt lat="42.2915690" lon="1.7152500">
        <ele>2210.5</ele>
        <time>2015-08-13T15:12:02Z</time>
      </trkpt>
      <trkpt lat="42.2915350" lon="1.7152390">
        <ele>2212.3</ele>
        <time>2015-08-13T15:12:04Z</time>
      </trkpt>
      <trkpt lat="42.2915080" lon="1.7152300">
        <ele>2213.7</ele>
        <time>2015-08-13T15:12:07Z</time>
      </trkpt>
      <trkpt lat="42.2914800" lon="1.7152230">
        <ele>2215.1</ele>
        <time>2015-08-13T15:12:16Z</time>
      </trkpt>
      <trkpt lat="42.2914720" lon="1.7152590">
        <ele>2215.8</ele>
        <time>2015-08-13T15:12:33Z</time>
      </trkpt>
      <trkpt lat="42.2914700" lon="1.7152140">
        <ele>2215.6</ele>
        <time>2015-08-13T15:12:44Z</time>
      </trkpt>
      <trkpt lat="42.2914610" lon="1.7151590">
        <ele>2215.7</ele>
        <time>2015-08-13T15:12:47Z</time>
      </trkpt>
      <trkpt lat="42.2914360" lon="1.7151430">
        <ele>2216.9</ele>
        <time>2015-08-13T15:12:50Z</time>
      </trkpt>
      <trkpt lat="42.2914200" lon="1.7151060">
        <ele>2217.5</ele>
        <time>2015-08-13T15:12:55Z</time>
      </trkpt>
      <trkpt lat="42.2913790" lon="1.7150960">
        <ele>2219.7</ele>
        <time>2015-08-13T15:13:02Z</time>
      </trkpt>
      <trkpt lat="42.2913530" lon="1.7151050">
        <ele>2221.1</ele>
        <time>2015-08-13T15:13:30Z</time>
      </trkpt>
      <trkpt lat="42.2913320" lon="1.7150760">
        <ele>2222.1</ele>
        <time>2015-08-13T15:13:38Z</time>
      </trkpt>
      <trkpt lat="42.2913180" lon="1.7150370">
        <ele>2222.6</ele>
        <time>2015-08-13T15:13:59Z</time>
      </trkpt>
      <trkpt lat="42.2912920" lon="1.7150010">
        <ele>2223.7</ele>
        <time>2015-08-13T15:14:15Z</time>
      </trkpt>
      <trkpt lat="42.2912650" lon="1.7149950">
        <ele>2225.1</ele>
        <time>2015-08-13T15:14:18Z</time>
      </trkpt>
      <trkpt lat="42.2912590" lon="1.7149480">
        <ele>2225.1</ele>
        <time>2015-08-13T15:14:23Z</time>
      </trkpt>
      <trkpt lat="42.2912630" lon="1.7149040">
        <ele>2224.6</ele>
        <time>2015-08-13T15:14:41Z</time>
      </trkpt>
      <trkpt lat="42.2912430" lon="1.7148790">
        <ele>2225.5</ele>
        <time>2015-08-13T15:14:47Z</time>
      </trkpt>
      <trkpt lat="42.2912620" lon="1.7148360">
        <ele>2224.2</ele>
        <time>2015-08-13T15:14:50Z</time>
      </trkpt>
      <trkpt lat="42.2912360" lon="1.7148190">
        <ele>2225.5</ele>
        <time>2015-08-13T15:15:01Z</time>
      </trkpt>
      <trkpt lat="42.2912090" lon="1.7148220">
        <ele>2227.1</ele>
        <time>2015-08-13T15:15:10Z</time>
      </trkpt>
      <trkpt lat="42.2912090" lon="1.7147810">
        <ele>2226.8</ele>
        <time>2015-08-13T15:15:19Z</time>
      </trkpt>
      <trkpt lat="42.2911790" lon="1.7147520">
        <ele>2228.4</ele>
        <time>2015-08-13T15:15:25Z</time>
      </trkpt>
      <trkpt lat="42.2911660" lon="1.7147130">
        <ele>2229.0</ele>
        <time>2015-08-13T15:15:29Z</time>
      </trkpt>
      <trkpt lat="42.2911400" lon="1.7146820">
        <ele>2230.4</ele>
        <time>2015-08-13T15:15:33Z</time>
      </trkpt>
      <trkpt lat="42.2911420" lon="1.7146420">
        <ele>2230.0</ele>
        <time>2015-08-13T15:15:35Z</time>
      </trkpt>
      <trkpt lat="42.2911260" lon="1.7146050">
        <ele>2230.8</ele>
        <time>2015-08-13T15:15:44Z</time>
      </trkpt>
      <trkpt lat="42.2911100" lon="1.7145570">
        <ele>2231.5</ele>
        <time>2015-08-13T15:15:56Z</time>
      </trkpt>
      <trkpt lat="42.2911080" lon="1.7145180">
        <ele>2231.3</ele>
        <time>2015-08-13T15:15:58Z</time>
      </trkpt>
      <trkpt lat="42.2911250" lon="1.7144770">
        <ele>2229.9</ele>
        <time>2015-08-13T15:16:01Z</time>
      </trkpt>
      <trkpt lat="42.2911030" lon="1.7144540">
        <ele>2231.1</ele>
        <time>2015-08-13T15:16:03Z</time>
      </trkpt>
      <trkpt lat="42.2910770" lon="1.7144420">
        <ele>2232.6</ele>
        <time>2015-08-13T15:16:17Z</time>
      </trkpt>
      <trkpt lat="42.2911040" lon="1.7144090">
        <ele>2230.6</ele>
        <time>2015-08-13T15:16:26Z</time>
      </trkpt>
      <trkpt lat="42.2911330" lon="1.7144260">
        <ele>2228.9</ele>
        <time>2015-08-13T15:16:35Z</time>
      </trkpt>
      <trkpt lat="42.2911210" lon="1.7143880">
        <ele>2229.4</ele>
        <time>2015-08-13T15:17:11Z</time>
      </trkpt>
      <trkpt lat="42.2910890" lon="1.7143710">
        <ele>2231.3</ele>
        <time>2015-08-13T15:17:15Z</time>
      </trkpt>
      <trkpt lat="42.2910790" lon="1.7143330">
        <ele>2231.6</ele>
        <time>2015-08-13T15:17:19Z</time>
      </trkpt>
      <trkpt lat="42.2910530" lon="1.7143430">
        <ele>2233.3</ele>
        <time>2015-08-13T15:17:32Z</time>
      </trkpt>
      <trkpt lat="42.2910240" lon="1.7143100">
        <ele>2234.9</ele>
        <time>2015-08-13T15:17:45Z</time>
      </trkpt>
      <trkpt lat="42.2910070" lon="1.7142760">
        <ele>2235.8</ele>
        <time>2015-08-13T15:17:49Z</time>
      </trkpt>
      <trkpt lat="42.2910270" lon="1.7142360">
        <ele>2234.1</ele>
        <time>2015-08-13T15:17:50Z</time>
      </trkpt>
      <trkpt lat="42.2910530" lon="1.7142060">
        <ele>2232.2</ele>
        <time>2015-08-13T15:17:54Z</time>
      </trkpt>
      <trkpt lat="42.2910380" lon="1.7141690">
        <ele>2232.9</ele>
        <time>2015-08-13T15:18:00Z</time>
      </trkpt>
      <trkpt lat="42.2910060" lon="1.7141430">
        <ele>2234.8</ele>
        <time>2015-08-13T15:18:05Z</time>
      </trkpt>
      <trkpt lat="42.2909890" lon="1.7141130">
        <ele>2235.7</ele>
        <time>2015-08-13T15:18:11Z</time>
      </trkpt>
      <trkpt lat="42.2909570" lon="1.7141080">
        <ele>2237.7</ele>
        <time>2015-08-13T15:18:17Z</time>
      </trkpt>
      <trkpt lat="42.2909320" lon="1.7140910">
        <ele>2239.2</ele>
        <time>2015-08-13T15:18:20Z</time>
      </trkpt>
      <trkpt lat="42.2909330" lon="1.7140380">
        <ele>2238.8</ele>
        <time>2015-08-13T15:18:24Z</time>
      </trkpt>
      <trkpt lat="42.2909050" lon="1.7140250">
        <ele>2240.6</ele>
        <time>2015-08-13T15:18:27Z</time>
      </trkpt>
      <trkpt lat="42.2908760" lon="1.7140370">
        <ele>2242.6</ele>
        <time>2015-08-13T15:18:45Z</time>
      </trkpt>
      <trkpt lat="42.2909030" lon="1.7140240">
        <ele>2240.7</ele>
        <time>2015-08-13T15:19:23Z</time>
      </trkpt>
      <trkpt lat="42.2909050" lon="1.7139850">
        <ele>2240.3</ele>
        <time>2015-08-13T15:19:29Z</time>
      </trkpt>
      <trkpt lat="42.2908840" lon="1.7139530">
        <ele>2241.4</ele>
        <time>2015-08-13T15:19:32Z</time>
      </trkpt>
      <trkpt lat="42.2908650" lon="1.7139260">
        <ele>2242.5</ele>
        <time>2015-08-13T15:19:37Z</time>
      </trkpt>
      <trkpt lat="42.2908310" lon="1.7139200">
        <ele>2244.8</ele>
        <time>2015-08-13T15:19:41Z</time>
      </trkpt>
      <trkpt lat="42.2908080" lon="1.7138900">
        <ele>2246.1</ele>
        <time>2015-08-13T15:19:44Z</time>
      </trkpt>
      <trkpt lat="42.2907990" lon="1.7138490">
        <ele>2246.5</ele>
        <time>2015-08-13T15:19:56Z</time>
      </trkpt>
      <trkpt lat="42.2907990" lon="1.7138110">
        <ele>2246.2</ele>
        <time>2015-08-13T15:19:58Z</time>
      </trkpt>
      <trkpt lat="42.2908270" lon="1.7138120">
        <ele>2244.3</ele>
        <time>2015-08-13T15:20:07Z</time>
      </trkpt>
      <trkpt lat="42.2907970" lon="1.7138020">
        <ele>2246.3</ele>
        <time>2015-08-13T15:20:08Z</time>
      </trkpt>
      <trkpt lat="42.2908180" lon="1.7137690">
        <ele>2244.7</ele>
        <time>2015-08-13T15:20:11Z</time>
      </trkpt>
      <trkpt lat="42.2908330" lon="1.7137370">
        <ele>2243.4</ele>
        <time>2015-08-13T15:20:19Z</time>
      </trkpt>
      <trkpt lat="42.2908000" lon="1.7137320">
        <ele>2245.6</ele>
        <time>2015-08-13T15:20:22Z</time>
      </trkpt>
      <trkpt lat="42.2907800" lon="1.7137030">
        <ele>2246.6</ele>
        <time>2015-08-13T15:20:30Z</time>
      </trkpt>
      <trkpt lat="42.2907520" lon="1.7136740">
        <ele>2248.2</ele>
        <time>2015-08-13T15:20:34Z</time>
      </trkpt>
      <trkpt lat="42.2907710" lon="1.7136450">
        <ele>2246.6</ele>
        <time>2015-08-13T15:20:36Z</time>
      </trkpt>
      <trkpt lat="42.2907850" lon="1.7136040">
        <ele>2245.1</ele>
        <time>2015-08-13T15:20:42Z</time>
      </trkpt>
      <trkpt lat="42.2908000" lon="1.7135610">
        <ele>2243.7</ele>
        <time>2015-08-13T15:20:45Z</time>
      </trkpt>
      <trkpt lat="42.2907950" lon="1.7135230">
        <ele>2243.6</ele>
        <time>2015-08-13T15:20:48Z</time>
      </trkpt>
      <trkpt lat="42.2908100" lon="1.7134840">
        <ele>2242.2</ele>
        <time>2015-08-13T15:20:52Z</time>
      </trkpt>
      <trkpt lat="42.2907830" lon="1.7134680">
        <ele>2243.7</ele>
        <time>2015-08-13T15:20:55Z</time>
      </trkpt>
      <trkpt lat="42.2907870" lon="1.7134260">
        <ele>2243.0</ele>
        <time>2015-08-13T15:21:01Z</time>
      </trkpt>
      <trkpt lat="42.2908000" lon="1.7133910">
        <ele>2241.8</ele>
        <time>2015-08-13T15:21:09Z</time>
      </trkpt>
      <trkpt lat="42.2907820" lon="1.7133570">
        <ele>2242.5</ele>
        <time>2015-08-13T15:21:12Z</time>
      </trkpt>
      <trkpt lat="42.2907980" lon="1.7133120">
        <ele>2241.0</ele>
        <time>2015-08-13T15:21:14Z</time>
      </trkpt>
      <trkpt lat="42.2908320" lon="1.7132830">
        <ele>2238.5</ele>
        <time>2015-08-13T15:21:16Z</time>
      </trkpt>
      <trkpt lat="42.2907980" lon="1.7132930">
        <ele>2240.8</ele>
        <time>2015-08-13T15:21:17Z</time>
      </trkpt>
      <trkpt lat="42.2908180" lon="1.7132550">
        <ele>2239.1</ele>
        <time>2015-08-13T15:21:34Z</time>
      </trkpt>
      <trkpt lat="42.2908480" lon="1.7132260">
        <ele>2236.9</ele>
        <time>2015-08-13T15:21:35Z</time>
      </trkpt>
      <trkpt lat="42.2908730" lon="1.7132140">
        <ele>2235.2</ele>
        <time>2015-08-13T15:21:36Z</time>
      </trkpt>
      <trkpt lat="42.2909070" lon="1.7131750">
        <ele>2232.7</ele>
        <time>2015-08-13T15:21:38Z</time>
      </trkpt>
      <trkpt lat="42.2909040" lon="1.7131320">
        <ele>2232.5</ele>
        <time>2015-08-13T15:21:42Z</time>
      </trkpt>
      <trkpt lat="42.2908690" lon="1.7131370">
        <ele>2234.7</ele>
        <time>2015-08-13T15:21:45Z</time>
      </trkpt>
      <trkpt lat="42.2908510" lon="1.7131110">
        <ele>2235.5</ele>
        <time>2015-08-13T15:21:49Z</time>
      </trkpt>
      <trkpt lat="42.2908780" lon="1.7130760">
        <ele>2233.5</ele>
        <time>2015-08-13T15:21:52Z</time>
      </trkpt>
      <trkpt lat="42.2908520" lon="1.7130540">
        <ele>2234.9</ele>
        <time>2015-08-13T15:21:56Z</time>
      </trkpt>
      <trkpt lat="42.2908620" lon="1.7130210">
        <ele>2233.9</ele>
        <time>2015-08-13T15:22:00Z</time>
      </trkpt>
      <trkpt lat="42.2908540" lon="1.7129800">
        <ele>2234.0</ele>
        <time>2015-08-13T15:22:05Z</time>
      </trkpt>
      <trkpt lat="42.2908230" lon="1.7130160">
        <ele>2236.2</ele>
        <time>2015-08-13T15:22:08Z</time>
      </trkpt>
      <trkpt lat="42.2907930" lon="1.7130110">
        <ele>2237.9</ele>
        <time>2015-08-13T15:22:12Z</time>
      </trkpt>
      <trkpt lat="42.2907540" lon="1.7130130">
        <ele>2240.3</ele>
        <time>2015-08-13T15:22:18Z</time>
      </trkpt>
      <trkpt lat="42.2907230" lon="1.7130240">
        <ele>2242.3</ele>
        <time>2015-08-13T15:22:19Z</time>
      </trkpt>
      <trkpt lat="42.2906860" lon="1.7130200">
        <ele>2244.5</ele>
        <time>2015-08-13T15:22:23Z</time>
      </trkpt>
      <trkpt lat="42.2906670" lon="1.7129710">
        <ele>2245.0</ele>
        <time>2015-08-13T15:22:26Z</time>
      </trkpt>
      <trkpt lat="42.2906250" lon="1.7129510">
        <ele>2247.2</ele>
        <time>2015-08-13T15:22:27Z</time>
      </trkpt>
      <trkpt lat="42.2905850" lon="1.7129240">
        <ele>2249.2</ele>
        <time>2015-08-13T15:22:29Z</time>
      </trkpt>
      <trkpt lat="42.2905560" lon="1.7129010">
        <ele>2250.5</ele>
        <time>2015-08-13T15:22:31Z</time>
      </trkpt>
      <trkpt lat="42.2905270" lon="1.7128740">
        <ele>2251.6</ele>
        <time>2015-08-13T15:22:32Z</time>
      </trkpt>
      <trkpt lat="42.2905190" lon="1.7128370">
        <ele>2251.3</ele>
        <time>2015-08-13T15:22:34Z</time>
      </trkpt>
      <trkpt lat="42.2904880" lon="1.7128250">
        <ele>2252.8</ele>
        <time>2015-08-13T15:22:36Z</time>
      </trkpt>
      <trkpt lat="42.2904800" lon="1.7127840">
        <ele>2252.4</ele>
        <time>2015-08-13T15:22:45Z</time>
      </trkpt>
      <trkpt lat="42.2904640" lon="1.7127530">
        <ele>2252.6</ele>
        <time>2015-08-13T15:22:50Z</time>
      </trkpt>
      <trkpt lat="42.2904340" lon="1.7127370">
        <ele>2253.9</ele>
        <time>2015-08-13T15:23:09Z</time>
      </trkpt>
      <trkpt lat="42.2904040" lon="1.7127180">
        <ele>2255.2</ele>
        <time>2015-08-13T15:23:19Z</time>
      </trkpt>
      <trkpt lat="42.2904000" lon="1.7126750">
        <ele>2254.5</ele>
        <time>2015-08-13T15:23:28Z</time>
      </trkpt>
      <trkpt lat="42.2903840" lon="1.7126420">
        <ele>2254.7</ele>
        <time>2015-08-13T15:23:33Z</time>
      </trkpt>
      <trkpt lat="42.2903550" lon="1.7126220">
        <ele>2256.0</ele>
        <time>2015-08-13T15:23:41Z</time>
      </trkpt>
      <trkpt lat="42.2903200" lon="1.7126000">
        <ele>2257.7</ele>
        <time>2015-08-13T15:24:01Z</time>
      </trkpt>
      <trkpt lat="42.2903130" lon="1.7125550">
        <ele>2257.0</ele>
        <time>2015-08-13T15:24:23Z</time>
      </trkpt>
      <trkpt lat="42.2902890" lon="1.7125310">
        <ele>2257.9</ele>
        <time>2015-08-13T15:24:32Z</time>
      </trkpt>
      <trkpt lat="42.2903070" lon="1.7125710">
        <ele>2257.8</ele>
        <time>2015-08-13T15:24:49Z</time>
      </trkpt>
      <trkpt lat="42.2902860" lon="1.7125460">
        <ele>2258.5</ele>
        <time>2015-08-13T15:25:03Z</time>
      </trkpt>
      <trkpt lat="42.2903010" lon="1.7125120">
        <ele>2256.8</ele>
        <time>2015-08-13T15:26:04Z</time>
      </trkpt>
      <trkpt lat="42.2902720" lon="1.7125240">
        <ele>2258.8</ele>
        <time>2015-08-13T15:26:39Z</time>
      </trkpt>
      <trkpt lat="42.2902510" lon="1.7125460">
        <ele>2260.6</ele>
        <time>2015-08-13T15:26:42Z</time>
      </trkpt>
      <trkpt lat="42.2902280" lon="1.7125720">
        <ele>2262.6</ele>
        <time>2015-08-13T15:26:48Z</time>
      </trkpt>
      <trkpt lat="42.2902020" lon="1.7125580">
        <ele>2263.8</ele>
        <time>2015-08-13T15:26:57Z</time>
      </trkpt>
      <trkpt lat="42.2901760" lon="1.7125390">
        <ele>2265.0</ele>
        <time>2015-08-13T15:27:23Z</time>
      </trkpt>
      <trkpt lat="42.2901470" lon="1.7125280">
        <ele>2266.5</ele>
        <time>2015-08-13T15:27:28Z</time>
      </trkpt>
      <trkpt lat="42.2901300" lon="1.7124960">
        <ele>2266.8</ele>
        <time>2015-08-13T15:27:34Z</time>
      </trkpt>
      <trkpt lat="42.2901200" lon="1.7124590">
        <ele>2266.5</ele>
        <time>2015-08-13T15:27:42Z</time>
      </trkpt>
      <trkpt lat="42.2900910" lon="1.7124570">
        <ele>2268.2</ele>
        <time>2015-08-13T15:27:46Z</time>
      </trkpt>
      <trkpt lat="42.2900700" lon="1.7124850">
        <ele>2270.2</ele>
        <time>2015-08-13T15:28:44Z</time>
      </trkpt>
      <trkpt lat="42.2900470" lon="1.7125140">
        <ele>2272.2</ele>
        <time>2015-08-13T15:28:49Z</time>
      </trkpt>
      <trkpt lat="42.2900190" lon="1.7124970">
        <ele>2273.5</ele>
        <time>2015-08-13T15:29:07Z</time>
      </trkpt>
      <trkpt lat="42.2899920" lon="1.7124760">
        <ele>2274.7</ele>
        <time>2015-08-13T15:29:19Z</time>
      </trkpt>
      <trkpt lat="42.2899660" lon="1.7124530">
        <ele>2275.7</ele>
        <time>2015-08-13T15:29:38Z</time>
      </trkpt>
      <trkpt lat="42.2899380" lon="1.7124360">
        <ele>2277.0</ele>
        <time>2015-08-13T15:29:52Z</time>
      </trkpt>
      <trkpt lat="42.2899100" lon="1.7124350">
        <ele>2278.7</ele>
        <time>2015-08-13T15:30:05Z</time>
      </trkpt>
      <trkpt lat="42.2898900" lon="1.7124090">
        <ele>2279.3</ele>
        <time>2015-08-13T15:30:11Z</time>
      </trkpt>
      <trkpt lat="42.2898580" lon="1.7123990">
        <ele>2281.0</ele>
        <time>2015-08-13T15:30:15Z</time>
      </trkpt>
      <trkpt lat="42.2898370" lon="1.7123630">
        <ele>2281.4</ele>
        <time>2015-08-13T15:31:01Z</time>
      </trkpt>
      <trkpt lat="42.2898040" lon="1.7123440">
        <ele>2282.9</ele>
        <time>2015-08-13T15:31:05Z</time>
      </trkpt>
      <trkpt lat="42.2897920" lon="1.7123770">
        <ele>2284.4</ele>
        <time>2015-08-13T15:31:15Z</time>
      </trkpt>
      <trkpt lat="42.2897980" lon="1.7124200">
        <ele>2285.1</ele>
        <time>2015-08-13T15:31:19Z</time>
      </trkpt>
      <trkpt lat="42.2898140" lon="1.7124550">
        <ele>2285.0</ele>
        <time>2015-08-13T15:31:24Z</time>
      </trkpt>
      <trkpt lat="42.2897910" lon="1.7124290">
        <ele>2285.7</ele>
        <time>2015-08-13T15:32:15Z</time>
      </trkpt>
      <trkpt lat="42.2897740" lon="1.7123960">
        <ele>2286.0</ele>
        <time>2015-08-13T15:32:29Z</time>
      </trkpt>
      <trkpt lat="42.2897460" lon="1.7123750">
        <ele>2287.2</ele>
        <time>2015-08-13T15:32:33Z</time>
      </trkpt>
      <trkpt lat="42.2897200" lon="1.7123580">
        <ele>2288.3</ele>
        <time>2015-08-13T15:32:38Z</time>
      </trkpt>
      <trkpt lat="42.2896900" lon="1.7123560">
        <ele>2290.1</ele>
        <time>2015-08-13T15:33:03Z</time>
      </trkpt>
      <trkpt lat="42.2896670" lon="1.7123270">
        <ele>2290.8</ele>
        <time>2015-08-13T15:33:09Z</time>
      </trkpt>
      <trkpt lat="42.2896380" lon="1.7123140">
        <ele>2292.2</ele>
        <time>2015-08-13T15:33:13Z</time>
      </trkpt>
      <trkpt lat="42.2895980" lon="1.7123000">
        <ele>2294.3</ele>
        <time>2015-08-13T15:34:05Z</time>
      </trkpt>
      <trkpt lat="42.2895860" lon="1.7122570">
        <ele>2294.0</ele>
        <time>2015-08-13T15:34:09Z</time>
      </trkpt>
      <trkpt lat="42.2895820" lon="1.7122170">
        <ele>2293.3</ele>
        <time>2015-08-13T15:34:13Z</time>
      </trkpt>
      <trkpt lat="42.2895670" lon="1.7121780">
        <ele>2293.5</ele>
        <time>2015-08-13T15:34:17Z</time>
      </trkpt>
      <trkpt lat="42.2895410" lon="1.7121660">
        <ele>2295.1</ele>
        <time>2015-08-13T15:34:22Z</time>
      </trkpt>
      <trkpt lat="42.2895240" lon="1.7121380">
        <ele>2295.6</ele>
        <time>2015-08-13T15:34:27Z</time>
      </trkpt>
      <trkpt lat="42.2894960" lon="1.7121200">
        <ele>2297.3</ele>
        <time>2015-08-13T15:34:30Z</time>
      </trkpt>
      <trkpt lat="42.2894750" lon="1.7120920">
        <ele>2298.1</ele>
        <time>2015-08-13T15:34:35Z</time>
      </trkpt>
      <trkpt lat="42.2894810" lon="1.7120440">
        <ele>2296.8</ele>
        <time>2015-08-13T15:34:39Z</time>
      </trkpt>
      <trkpt lat="42.2894620" lon="1.7120040">
        <ele>2297.5</ele>
        <time>2015-08-13T15:34:44Z</time>
      </trkpt>
      <trkpt lat="42.2894400" lon="1.7119800">
        <ele>2298.6</ele>
        <time>2015-08-13T15:34:56Z</time>
      </trkpt>
      <trkpt lat="42.2894200" lon="1.7119540">
        <ele>2299.5</ele>
        <time>2015-08-13T15:35:13Z</time>
      </trkpt>
      <trkpt lat="42.2893960" lon="1.7119280">
        <ele>2300.7</ele>
        <time>2015-08-13T15:35:23Z</time>
      </trkpt>
      <trkpt lat="42.2893840" lon="1.7118910">
        <ele>2300.9</ele>
        <time>2015-08-13T15:35:40Z</time>
      </trkpt>
      <trkpt lat="42.2893630" lon="1.7118620">
        <ele>2301.8</ele>
        <time>2015-08-13T15:35:44Z</time>
      </trkpt>
      <trkpt lat="42.2893370" lon="1.7118330">
        <ele>2303.0</ele>
        <time>2015-08-13T15:35:55Z</time>
      </trkpt>
      <trkpt lat="42.2893130" lon="1.7118050">
        <ele>2304.0</ele>
        <time>2015-08-13T15:35:59Z</time>
      </trkpt>
      <trkpt lat="42.2893120" lon="1.7117560">
        <ele>2303.1</ele>
        <time>2015-08-13T15:36:02Z</time>
      </trkpt>
      <trkpt lat="42.2892780" lon="1.7117300">
        <ele>2304.8</ele>
        <time>2015-08-13T15:36:17Z</time>
      </trkpt>
      <trkpt lat="42.2892450" lon="1.7117050">
        <ele>2306.5</ele>
        <time>2015-08-13T15:36:20Z</time>
      </trkpt>
      <trkpt lat="42.2892230" lon="1.7116680">
        <ele>2307.1</ele>
        <time>2015-08-13T15:36:37Z</time>
      </trkpt>
      <trkpt lat="42.2892050" lon="1.7116310">
        <ele>2307.4</ele>
        <time>2015-08-13T15:36:42Z</time>
      </trkpt>
      <trkpt lat="42.2891830" lon="1.7116080">
        <ele>2308.3</ele>
        <time>2015-08-13T15:37:01Z</time>
      </trkpt>
      <trkpt lat="42.2891610" lon="1.7115740">
        <ele>2308.9</ele>
        <time>2015-08-13T15:37:16Z</time>
      </trkpt>
      <trkpt lat="42.2891440" lon="1.7115440">
        <ele>2309.3</ele>
        <time>2015-08-13T15:37:19Z</time>
      </trkpt>
      <trkpt lat="42.2891260" lon="1.7115160">
        <ele>2309.8</ele>
        <time>2015-08-13T15:37:24Z</time>
      </trkpt>
      <trkpt lat="42.2890980" lon="1.7115180">
        <ele>2311.6</ele>
        <time>2015-08-13T15:37:36Z</time>
      </trkpt>
      <trkpt lat="42.2890740" lon="1.7114870">
        <ele>2312.3</ele>
        <time>2015-08-13T15:37:43Z</time>
      </trkpt>
      <trkpt lat="42.2890500" lon="1.7114620">
        <ele>2313.1</ele>
        <time>2015-08-13T15:37:47Z</time>
      </trkpt>
      <trkpt lat="42.2890230" lon="1.7114370">
        <ele>2314.2</ele>
        <time>2015-08-13T15:38:00Z</time>
      </trkpt>
      <trkpt lat="42.2889960" lon="1.7114290">
        <ele>2315.6</ele>
        <time>2015-08-13T15:38:03Z</time>
      </trkpt>
      <trkpt lat="42.2889690" lon="1.7114160">
        <ele>2316.9</ele>
        <time>2015-08-13T15:38:10Z</time>
      </trkpt>
      <trkpt lat="42.2889330" lon="1.7113990">
        <ele>2318.6</ele>
        <time>2015-08-13T15:38:19Z</time>
      </trkpt>
      <trkpt lat="42.2889030" lon="1.7113940">
        <ele>2320.3</ele>
        <time>2015-08-13T15:39:07Z</time>
      </trkpt>
      <trkpt lat="42.2888640" lon="1.7113970">
        <ele>2322.7</ele>
        <time>2015-08-13T15:39:14Z</time>
      </trkpt>
      <trkpt lat="42.2888310" lon="1.7113850">
        <ele>2324.3</ele>
        <time>2015-08-13T15:39:20Z</time>
      </trkpt>
      <trkpt lat="42.2887940" lon="1.7113820">
        <ele>2326.5</ele>
        <time>2015-08-13T15:39:23Z</time>
      </trkpt>
      <trkpt lat="42.2887640" lon="1.7113840">
        <ele>2328.3</ele>
        <time>2015-08-13T15:39:27Z</time>
      </trkpt>
      <trkpt lat="42.2887490" lon="1.7113510">
        <ele>2328.2</ele>
        <time>2015-08-13T15:39:37Z</time>
      </trkpt>
      <trkpt lat="42.2887250" lon="1.7113320">
        <ele>2329.2</ele>
        <time>2015-08-13T15:39:59Z</time>
      </trkpt>
      <trkpt lat="42.2887040" lon="1.7113050">
        <ele>2329.7</ele>
        <time>2015-08-13T15:40:04Z</time>
      </trkpt>
      <trkpt lat="42.2886740" lon="1.7112960">
        <ele>2331.3</ele>
        <time>2015-08-13T15:40:12Z</time>
      </trkpt>
      <trkpt lat="42.2886460" lon="1.7112770">
        <ele>2332.6</ele>
        <time>2015-08-13T15:40:23Z</time>
      </trkpt>
      <trkpt lat="42.2886180" lon="1.7112530">
        <ele>2333.6</ele>
        <time>2015-08-13T15:40:35Z</time>
      </trkpt>
      <trkpt lat="42.2885810" lon="1.7112620">
        <ele>2336.3</ele>
        <time>2015-08-13T15:40:37Z</time>
      </trkpt>
      <trkpt lat="42.2885310" lon="1.7112440">
        <ele>2339.0</ele>
        <time>2015-08-13T15:40:39Z</time>
      </trkpt>
      <trkpt lat="42.2885020" lon="1.7112490">
        <ele>2341.0</ele>
        <time>2015-08-13T15:40:42Z</time>
      </trkpt>
      <trkpt lat="42.2884700" lon="1.7112430">
        <ele>2342.9</ele>
        <time>2015-08-13T15:40:44Z</time>
      </trkpt>
      <trkpt lat="42.2884370" lon="1.7112410">
        <ele>2345.0</ele>
        <time>2015-08-13T15:41:06Z</time>
      </trkpt>
      <trkpt lat="42.2884110" lon="1.7112190">
        <ele>2345.9</ele>
        <time>2015-08-13T15:41:20Z</time>
      </trkpt>
      <trkpt lat="42.2883780" lon="1.7111980">
        <ele>2347.3</ele>
        <time>2015-08-13T15:41:32Z</time>
      </trkpt>
      <trkpt lat="42.2883600" lon="1.7111610">
        <ele>2347.2</ele>
        <time>2015-08-13T15:41:59Z</time>
      </trkpt>
      <trkpt lat="42.2883370" lon="1.7111300">
        <ele>2347.7</ele>
        <time>2015-08-13T15:42:03Z</time>
      </trkpt>
      <trkpt lat="42.2883100" lon="1.7111140">
        <ele>2348.9</ele>
        <time>2015-08-13T15:42:09Z</time>
      </trkpt>
      <trkpt lat="42.2882840" lon="1.7110890">
        <ele>2349.7</ele>
        <time>2015-08-13T15:42:14Z</time>
      </trkpt>
      <trkpt lat="42.2882600" lon="1.7110600">
        <ele>2350.3</ele>
        <time>2015-08-13T15:42:19Z</time>
      </trkpt>
      <trkpt lat="42.2882470" lon="1.7110270">
        <ele>2350.0</ele>
        <time>2015-08-13T15:43:14Z</time>
      </trkpt>
      <trkpt lat="42.2882220" lon="1.7110120">
        <ele>2351.1</ele>
        <time>2015-08-13T15:43:18Z</time>
      </trkpt>
      <trkpt lat="42.2881980" lon="1.7109810">
        <ele>2351.6</ele>
        <time>2015-08-13T15:43:22Z</time>
      </trkpt>
      <trkpt lat="42.2881680" lon="1.7109750">
        <ele>2353.4</ele>
        <time>2015-08-13T15:43:25Z</time>
      </trkpt>
      <trkpt lat="42.2881360" lon="1.7109630">
        <ele>2355.1</ele>
        <time>2015-08-13T15:43:39Z</time>
      </trkpt>
      <trkpt lat="42.2880980" lon="1.7109590">
        <ele>2357.4</ele>
        <time>2015-08-13T15:43:42Z</time>
      </trkpt>
      <trkpt lat="42.2880790" lon="1.7109860">
        <ele>2359.5</ele>
        <time>2015-08-13T15:44:01Z</time>
      </trkpt>
      <trkpt lat="42.2880890" lon="1.7110230">
        <ele>2360.1</ele>
        <time>2015-08-13T15:44:09Z</time>
      </trkpt>
      <trkpt lat="42.2880610" lon="1.7110230">
        <ele>2362.0</ele>
        <time>2015-08-13T15:46:13Z</time>
      </trkpt>
      <trkpt lat="42.2880470" lon="1.7110640">
        <ele>2364.3</ele>
        <time>2015-08-13T15:46:34Z</time>
      </trkpt>
      <trkpt lat="42.2880250" lon="1.7110900">
        <ele>2366.6</ele>
        <time>2015-08-13T15:47:04Z</time>
      </trkpt>
      <trkpt lat="42.2880170" lon="1.7111250">
        <ele>2368.3</ele>
        <time>2015-08-13T15:47:17Z</time>
      </trkpt>
      <trkpt lat="42.2880010" lon="1.7111680">
        <ele>2370.8</ele>
        <time>2015-08-13T15:47:27Z</time>
      </trkpt>
      <trkpt lat="42.2880010" lon="1.7112120">
        <ele>2372.3</ele>
        <time>2015-08-13T15:47:32Z</time>
      </trkpt>
      <trkpt lat="42.2879960" lon="1.7112520">
        <ele>2373.9</ele>
        <time>2015-08-13T15:47:43Z</time>
      </trkpt>
      <trkpt lat="42.2879980" lon="1.7112890">
        <ele>2374.8</ele>
        <time>2015-08-13T15:47:47Z</time>
      </trkpt>
      <trkpt lat="42.2880040" lon="1.7113260">
        <ele>2375.4</ele>
        <time>2015-08-13T15:48:10Z</time>
      </trkpt>
      <trkpt lat="42.2880140" lon="1.7113620">
        <ele>2375.7</ele>
        <time>2015-08-13T15:48:20Z</time>
      </trkpt>
      <trkpt lat="42.2880140" lon="1.7114010">
        <ele>2376.8</ele>
        <time>2015-08-13T15:48:29Z</time>
      </trkpt>
      <trkpt lat="42.2879880" lon="1.7114460">
        <ele>2379.6</ele>
        <time>2015-08-13T15:48:32Z</time>
      </trkpt>
      <trkpt lat="42.2879850" lon="1.7114920">
        <ele>2381.1</ele>
        <time>2015-08-13T15:48:37Z</time>
      </trkpt>
      <trkpt lat="42.2880100" lon="1.7115120">
        <ele>2380.0</ele>
        <time>2015-08-13T15:48:46Z</time>
      </trkpt>
      <trkpt lat="42.2880390" lon="1.7115330">
        <ele>2378.7</ele>
        <time>2015-08-13T15:48:49Z</time>
      </trkpt>
      <trkpt lat="42.2880220" lon="1.7115020">
        <ele>2379.0</ele>
        <time>2015-08-13T15:49:14Z</time>
      </trkpt>
      <trkpt lat="42.2880080" lon="1.7114670">
        <ele>2378.9</ele>
        <time>2015-08-13T15:49:18Z</time>
      </trkpt>
      <trkpt lat="42.2879960" lon="1.7114270">
        <ele>2378.6</ele>
        <time>2015-08-13T15:49:26Z</time>
      </trkpt>
      <trkpt lat="42.2879640" lon="1.7113980">
        <ele>2379.9</ele>
        <time>2015-08-13T15:49:37Z</time>
      </trkpt>
      <trkpt lat="42.2879420" lon="1.7113680">
        <ele>2380.5</ele>
        <time>2015-08-13T15:49:42Z</time>
      </trkpt>
      <trkpt lat="42.2879190" lon="1.7113380">
        <ele>2381.2</ele>
        <time>2015-08-13T15:49:47Z</time>
      </trkpt>
      <trkpt lat="42.2879060" lon="1.7113060">
        <ele>2381.0</ele>
        <time>2015-08-13T15:49:59Z</time>
      </trkpt>
      <trkpt lat="42.2878720" lon="1.7113030">
        <ele>2382.4</ele>
        <time>2015-08-13T15:50:02Z</time>
      </trkpt>
      <trkpt lat="42.2878450" lon="1.7112830">
        <ele>2383.2</ele>
        <time>2015-08-13T15:50:21Z</time>
      </trkpt>
      <trkpt lat="42.2878360" lon="1.7112330">
        <ele>2382.2</ele>
        <time>2015-08-13T15:50:25Z</time>
      </trkpt>
      <trkpt lat="42.2878080" lon="1.7112110">
        <ele>2382.9</ele>
        <time>2015-08-13T15:50:32Z</time>
      </trkpt>
      <trkpt lat="42.2877800" lon="1.7111930">
        <ele>2383.7</ele>
        <time>2015-08-13T15:50:54Z</time>
      </trkpt>
      <trkpt lat="42.2877530" lon="1.7111820">
        <ele>2384.6</ele>
        <time>2015-08-13T15:51:03Z</time>
      </trkpt>
      <trkpt lat="42.2877220" lon="1.7111530">
        <ele>2385.3</ele>
        <time>2015-08-13T15:51:13Z</time>
      </trkpt>
      <trkpt lat="42.2876950" lon="1.7111470">
        <ele>2386.5</ele>
        <time>2015-08-13T15:51:15Z</time>
      </trkpt>
      <trkpt lat="42.2876770" lon="1.7111180">
        <ele>2386.6</ele>
        <time>2015-08-13T15:51:22Z</time>
      </trkpt>
      <trkpt lat="42.2876520" lon="1.7111030">
        <ele>2387.4</ele>
        <time>2015-08-13T15:59:51Z</time>
      </trkpt>
      <trkpt lat="42.2876230" lon="1.7111100">
        <ele>2389.0</ele>
        <time>2015-08-13T15:59:59Z</time>
      </trkpt>
      <trkpt lat="42.2875960" lon="1.7111030">
        <ele>2390.2</ele>
        <time>2015-08-13T16:00:18Z</time>
      </trkpt>
      <trkpt lat="42.2875530" lon="1.7111080">
        <ele>2392.5</ele>
        <time>2015-08-13T16:00:35Z</time>
      </trkpt>
      <trkpt lat="42.2875220" lon="1.7111050">
        <ele>2394.0</ele>
        <time>2015-08-13T16:00:37Z</time>
      </trkpt>
      <trkpt lat="42.2874910" lon="1.7110890">
        <ele>2395.2</ele>
        <time>2015-08-13T16:00:40Z</time>
      </trkpt>
      <trkpt lat="42.2875120" lon="1.7110630">
        <ele>2393.5</ele>
        <time>2015-08-13T16:01:09Z</time>
      </trkpt>
      <trkpt lat="42.2874790" lon="1.7110470">
        <ele>2394.8</ele>
        <time>2015-08-13T16:01:11Z</time>
      </trkpt>
      <trkpt lat="42.2874560" lon="1.7110230">
        <ele>2395.5</ele>
        <time>2015-08-13T16:01:16Z</time>
      </trkpt>
      <trkpt lat="42.2874400" lon="1.7110600">
        <ele>2397.1</ele>
        <time>2015-08-13T16:01:20Z</time>
      </trkpt>
      <trkpt lat="42.2874110" lon="1.7110470">
        <ele>2398.4</ele>
        <time>2015-08-13T16:01:25Z</time>
      </trkpt>
      <trkpt lat="42.2874400" lon="1.7110680">
        <ele>2397.3</ele>
        <time>2015-08-13T16:01:36Z</time>
      </trkpt>
      <trkpt lat="42.2874470" lon="1.7111090">
        <ele>2397.9</ele>
        <time>2015-08-13T16:01:45Z</time>
      </trkpt>
      <trkpt lat="42.2874480" lon="1.7111500">
        <ele>2398.7</ele>
        <time>2015-08-13T16:01:48Z</time>
      </trkpt>
      <trkpt lat="42.2874690" lon="1.7111730">
        <ele>2398.2</ele>
        <time>2015-08-13T16:01:57Z</time>
      </trkpt>
      <trkpt lat="42.2874980" lon="1.7111890">
        <ele>2397.2</ele>
        <time>2015-08-13T16:02:00Z</time>
      </trkpt>
      <trkpt lat="42.2875110" lon="1.7112350">
        <ele>2397.6</ele>
        <time>2015-08-13T16:02:05Z</time>
      </trkpt>
      <trkpt lat="42.2875090" lon="1.7112770">
        <ele>2398.6</ele>
        <time>2015-08-13T16:02:10Z</time>
      </trkpt>
      <trkpt lat="42.2875100" lon="1.7113130">
        <ele>2399.1</ele>
        <time>2015-08-13T16:02:26Z</time>
      </trkpt>
      <trkpt lat="42.2875350" lon="1.7113560">
        <ele>2398.8</ele>
        <time>2015-08-13T16:02:29Z</time>
      </trkpt>
      <trkpt lat="42.2875390" lon="1.7113970">
        <ele>2399.4</ele>
        <time>2015-08-13T16:02:32Z</time>
      </trkpt>
      <trkpt lat="42.2875480" lon="1.7114320">
        <ele>2399.6</ele>
        <time>2015-08-13T16:02:35Z</time>
      </trkpt>
      <trkpt lat="42.2875520" lon="1.7114800">
        <ele>2400.3</ele>
        <time>2015-08-13T16:02:38Z</time>
      </trkpt>
      <trkpt lat="42.2875310" lon="1.7115160">
        <ele>2401.9</ele>
        <time>2015-08-13T16:02:41Z</time>
      </trkpt>
      <trkpt lat="42.2875130" lon="1.7115590">
        <ele>2403.4</ele>
        <time>2015-08-13T16:02:45Z</time>
      </trkpt>
      <trkpt lat="42.2875100" lon="1.7115980">
        <ele>2404.2</ele>
        <time>2015-08-13T16:02:49Z</time>
      </trkpt>
      <trkpt lat="42.2875360" lon="1.7116100">
        <ele>2403.4</ele>
        <time>2015-08-13T16:02:54Z</time>
      </trkpt>
      <trkpt lat="42.2875630" lon="1.7116360">
        <ele>2402.8</ele>
        <time>2015-08-13T16:02:55Z</time>
      </trkpt>
      <trkpt lat="42.2875960" lon="1.7116610">
        <ele>2402.0</ele>
        <time>2015-08-13T16:02:56Z</time>
      </trkpt>
      <trkpt lat="42.2875980" lon="1.7116990">
        <ele>2402.7</ele>
        <time>2015-08-13T16:02:59Z</time>
      </trkpt>
      <trkpt lat="42.2876280" lon="1.7117020">
        <ele>2401.6</ele>
        <time>2015-08-13T16:03:06Z</time>
      </trkpt>
      <trkpt lat="42.2876480" lon="1.7117350">
        <ele>2401.6</ele>
        <time>2015-08-13T16:03:12Z</time>
      </trkpt>
      <trkpt lat="42.2876520" lon="1.7117720">
        <ele>2402.2</ele>
        <time>2015-08-13T16:03:15Z</time>
      </trkpt>
      <trkpt lat="42.2876610" lon="1.7118200">
        <ele>2402.9</ele>
        <time>2015-08-13T16:03:20Z</time>
      </trkpt>
      <trkpt lat="42.2876760" lon="1.7118560">
        <ele>2403.1</ele>
        <time>2015-08-13T16:03:26Z</time>
      </trkpt>
      <trkpt lat="42.2876820" lon="1.7118930">
        <ele>2403.7</ele>
        <time>2015-08-13T16:03:30Z</time>
      </trkpt>
      <trkpt lat="42.2877050" lon="1.7119170">
        <ele>2403.5</ele>
        <time>2015-08-13T16:03:35Z</time>
      </trkpt>
      <trkpt lat="42.2877110" lon="1.7119620">
        <ele>2404.3</ele>
        <time>2015-08-13T16:03:42Z</time>
      </trkpt>
      <trkpt lat="42.2877250" lon="1.7119990">
        <ele>2404.6</ele>
        <time>2015-08-13T16:03:53Z</time>
      </trkpt>
      <trkpt lat="42.2877350" lon="1.7120490">
        <ele>2405.5</ele>
        <time>2015-08-13T16:03:59Z</time>
      </trkpt>
      <trkpt lat="42.2877200" lon="1.7120870">
        <ele>2406.8</ele>
        <time>2015-08-13T16:04:07Z</time>
      </trkpt>
      <trkpt lat="42.2876980" lon="1.7120540">
        <ele>2406.7</ele>
        <time>2015-08-13T16:04:20Z</time>
      </trkpt>
      <trkpt lat="42.2876680" lon="1.7120400">
        <ele>2407.3</ele>
        <time>2015-08-13T16:04:28Z</time>
      </trkpt>
      <trkpt lat="42.2876410" lon="1.7120240">
        <ele>2407.7</ele>
        <time>2015-08-13T16:04:32Z</time>
      </trkpt>
      <trkpt lat="42.2876150" lon="1.7120100">
        <ele>2408.2</ele>
        <time>2015-08-13T16:04:35Z</time>
      </trkpt>
      <trkpt lat="42.2875980" lon="1.7120410">
        <ele>2409.4</ele>
        <time>2015-08-13T16:04:42Z</time>
      </trkpt>
      <trkpt lat="42.2876040" lon="1.7120810">
        <ele>2410.0</ele>
        <time>2015-08-13T16:04:48Z</time>
      </trkpt>
      <trkpt lat="42.2876170" lon="1.7121230">
        <ele>2410.5</ele>
        <time>2015-08-13T16:05:01Z</time>
      </trkpt>
      <trkpt lat="42.2875960" lon="1.7121480">
        <ele>2411.7</ele>
        <time>2015-08-13T16:05:19Z</time>
      </trkpt>
      <trkpt lat="42.2875760" lon="1.7121190">
        <ele>2411.6</ele>
        <time>2015-08-13T16:05:22Z</time>
      </trkpt>
      <trkpt lat="42.2875680" lon="1.7121790">
        <ele>2413.1</ele>
        <time>2015-08-13T16:05:24Z</time>
      </trkpt>
      <trkpt lat="42.2875600" lon="1.7121420">
        <ele>2412.5</ele>
        <time>2015-08-13T16:05:44Z</time>
      </trkpt>
      <trkpt lat="42.2875320" lon="1.7121230">
        <ele>2412.9</ele>
        <time>2015-08-13T16:06:02Z</time>
      </trkpt>
      <trkpt lat="42.2875100" lon="1.7120870">
        <ele>2412.8</ele>
        <time>2015-08-13T16:06:05Z</time>
      </trkpt>
      <trkpt lat="42.2874880" lon="1.7120520">
        <ele>2412.8</ele>
        <time>2015-08-13T16:06:08Z</time>
      </trkpt>
      <trkpt lat="42.2874640" lon="1.7120200">
        <ele>2413.0</ele>
        <time>2015-08-13T16:06:11Z</time>
      </trkpt>
      <trkpt lat="42.2874440" lon="1.7119850">
        <ele>2413.0</ele>
        <time>2015-08-13T16:06:14Z</time>
      </trkpt>
      <trkpt lat="42.2874150" lon="1.7119730">
        <ele>2413.7</ele>
        <time>2015-08-13T16:06:18Z</time>
      </trkpt>
      <trkpt lat="42.2873880" lon="1.7119650">
        <ele>2414.5</ele>
        <time>2015-08-13T16:06:23Z</time>
      </trkpt>
      <trkpt lat="42.2873740" lon="1.7119300">
        <ele>2414.4</ele>
        <time>2015-08-13T16:06:29Z</time>
      </trkpt>
      <trkpt lat="42.2873600" lon="1.7118950">
        <ele>2414.3</ele>
        <time>2015-08-13T16:06:31Z</time>
      </trkpt>
      <trkpt lat="42.2873490" lon="1.7118490">
        <ele>2414.0</ele>
        <time>2015-08-13T16:06:34Z</time>
      </trkpt>
      <trkpt lat="42.2873310" lon="1.7118090">
        <ele>2414.1</ele>
        <time>2015-08-13T16:06:38Z</time>
      </trkpt>
      <trkpt lat="42.2873140" lon="1.7117810">
        <ele>2414.3</ele>
        <time>2015-08-13T16:06:41Z</time>
      </trkpt>
      <trkpt lat="42.2873090" lon="1.7117420">
        <ele>2414.0</ele>
        <time>2015-08-13T16:06:44Z</time>
      </trkpt>
      <trkpt lat="42.2873000" lon="1.7116980">
        <ele>2413.7</ele>
        <time>2015-08-13T16:06:47Z</time>
      </trkpt>
      <trkpt lat="42.2872780" lon="1.7116650">
        <ele>2414.1</ele>
        <time>2015-08-13T16:06:51Z</time>
      </trkpt>
      <trkpt lat="42.2872640" lon="1.7116330">
        <ele>2414.3</ele>
        <time>2015-08-13T16:06:54Z</time>
      </trkpt>
      <trkpt lat="42.2872410" lon="1.7116040">
        <ele>2414.8</ele>
        <time>2015-08-13T16:07:05Z</time>
      </trkpt>
      <trkpt lat="42.2872170" lon="1.7115780">
        <ele>2415.4</ele>
        <time>2015-08-13T16:07:09Z</time>
      </trkpt>
      <trkpt lat="42.2871910" lon="1.7115620">
        <ele>2416.3</ele>
        <time>2015-08-13T16:07:13Z</time>
      </trkpt>
      <trkpt lat="42.2871620" lon="1.7115510">
        <ele>2417.4</ele>
        <time>2015-08-13T16:07:18Z</time>
      </trkpt>
      <trkpt lat="42.2871400" lon="1.7115220">
        <ele>2418.0</ele>
        <time>2015-08-13T16:07:22Z</time>
      </trkpt>
      <trkpt lat="42.2871190" lon="1.7114940">
        <ele>2418.6</ele>
        <time>2015-08-13T16:07:26Z</time>
      </trkpt>
      <trkpt lat="42.2870920" lon="1.7114800">
        <ele>2419.6</ele>
        <time>2015-08-13T16:07:30Z</time>
      </trkpt>
      <trkpt lat="42.2870610" lon="1.7114700">
        <ele>2419.6</ele>
        <time>2015-08-13T16:07:33Z</time>
      </trkpt>
      <trkpt lat="42.2870320" lon="1.7114650">
        <ele>2419.3</ele>
        <time>2015-08-13T16:07:36Z</time>
      </trkpt>
      <trkpt lat="42.2870020" lon="1.7114590">
        <ele>2419.0</ele>
        <time>2015-08-13T16:07:39Z</time>
      </trkpt>
      <trkpt lat="42.2869660" lon="1.7114460">
        <ele>2418.6</ele>
        <time>2015-08-13T16:07:43Z</time>
      </trkpt>
      <trkpt lat="42.2869330" lon="1.7114390">
        <ele>2418.2</ele>
        <time>2015-08-13T16:07:47Z</time>
      </trkpt>
      <trkpt lat="42.2869030" lon="1.7114160">
        <ele>2417.8</ele>
        <time>2015-08-13T16:07:51Z</time>
      </trkpt>
      <trkpt lat="42.2868660" lon="1.7113930">
        <ele>2417.3</ele>
        <time>2015-08-13T16:08:04Z</time>
      </trkpt>
      <trkpt lat="42.2868420" lon="1.7113730">
        <ele>2416.9</ele>
        <time>2015-08-13T16:08:09Z</time>
      </trkpt>
      <trkpt lat="42.2868090" lon="1.7113580">
        <ele>2416.5</ele>
        <time>2015-08-13T16:08:23Z</time>
      </trkpt>
      <trkpt lat="42.2867830" lon="1.7113440">
        <ele>2416.2</ele>
        <time>2015-08-13T16:08:27Z</time>
      </trkpt>
      <trkpt lat="42.2867550" lon="1.7113280">
        <ele>2415.8</ele>
        <time>2015-08-13T16:08:33Z</time>
      </trkpt>
      <trkpt lat="42.2867320" lon="1.7113090">
        <ele>2415.5</ele>
        <time>2015-08-13T16:16:21Z</time>
      </trkpt>
      <trkpt lat="42.2867080" lon="1.7112920">
        <ele>2415.2</ele>
        <time>2015-08-13T16:25:51Z</time>
      </trkpt>
      <trkpt lat="42.2866800" lon="1.7112680">
        <ele>2414.7</ele>
        <time>2015-08-13T16:26:41Z</time>
      </trkpt>
      <trkpt lat="42.2866500" lon="1.7112560">
        <ele>2414.4</ele>
        <time>2015-08-13T16:26:47Z</time>
      </trkpt>
      <trkpt lat="42.2866240" lon="1.7112410">
        <ele>2414.1</ele>
        <time>2015-08-13T16:27:14Z</time>
      </trkpt>
      <trkpt lat="42.2865970" lon="1.7112350">
        <ele>2413.9</ele>
        <time>2015-08-13T16:27:59Z</time>
      </trkpt>
      <trkpt lat="42.2865690" lon="1.7112260">
        <ele>2413.6</ele>
        <time>2015-08-13T16:28:16Z</time>
      </trkpt>
      <trkpt lat="42.2865760" lon="1.7112620">
        <ele>2413.8</ele>
        <time>2015-08-13T16:31:01Z</time>
      </trkpt>
      <trkpt lat="42.2865960" lon="1.7112350">
        <ele>2413.9</ele>
        <time>2015-08-13T16:36:30Z</time>
      </trkpt>
      <trkpt lat="42.2865810" lon="1.7112030">
        <ele>2413.7</ele>
        <time>2015-08-13T16:36:32Z</time>
      </trkpt>
      <trkpt lat="42.2865480" lon="1.7111910">
        <ele>2413.4</ele>
        <time>2015-08-13T16:36:36Z</time>
      </trkpt>
      <trkpt lat="42.2865170" lon="1.7112040">
        <ele>2413.2</ele>
        <time>2015-08-13T16:36:39Z</time>
      </trkpt>
      <trkpt lat="42.2864760" lon="1.7112350">
        <ele>2412.9</ele>
        <time>2015-08-13T16:36:42Z</time>
      </trkpt>
      <trkpt lat="42.2864380" lon="1.7112650">
        <ele>2412.7</ele>
        <time>2015-08-13T16:36:44Z</time>
      </trkpt>
      <trkpt lat="42.2864090" lon="1.7112570">
        <ele>2412.4</ele>
        <time>2015-08-13T16:36:45Z</time>
      </trkpt>
      <trkpt lat="42.2863870" lon="1.7112250">
        <ele>2412.2</ele>
        <time>2015-08-13T16:36:46Z</time>
      </trkpt>
      <trkpt lat="42.2863430" lon="1.7111910">
        <ele>2411.9</ele>
        <time>2015-08-13T16:36:48Z</time>
      </trkpt>
      <trkpt lat="42.2863230" lon="1.7111670">
        <ele>2411.9</ele>
        <time>2015-08-13T16:36:49Z</time>
      </trkpt>
      <trkpt lat="42.2863010" lon="1.7111420">
        <ele>2411.8</ele>
        <time>2015-08-13T16:36:50Z</time>
      </trkpt>
      <trkpt lat="42.2862810" lon="1.7111090">
        <ele>2411.8</ele>
        <time>2015-08-13T16:36:51Z</time>
      </trkpt>
      <trkpt lat="42.2862530" lon="1.7110840">
        <ele>2411.8</ele>
        <time>2015-08-13T16:36:52Z</time>
      </trkpt>
      <trkpt lat="42.2862270" lon="1.7110700">
        <ele>2411.6</ele>
        <time>2015-08-13T16:36:53Z</time>
      </trkpt>
      <trkpt lat="42.2861540" lon="1.7110260">
        <ele>2411.0</ele>
        <time>2015-08-13T16:37:01Z</time>
      </trkpt>
      <trkpt lat="42.2861240" lon="1.7110050">
        <ele>2410.8</ele>
        <time>2015-08-13T16:37:02Z</time>
      </trkpt>
      <trkpt lat="42.2860970" lon="1.7109720">
        <ele>2410.6</ele>
        <time>2015-08-13T16:37:03Z</time>
      </trkpt>
      <trkpt lat="42.2860680" lon="1.7109490">
        <ele>2410.3</ele>
        <time>2015-08-13T16:37:07Z</time>
      </trkpt>
      <trkpt lat="42.2860300" lon="1.7109050">
        <ele>2409.9</ele>
        <time>2015-08-13T16:37:09Z</time>
      </trkpt>
      <trkpt lat="42.2859730" lon="1.7108630">
        <ele>2409.2</ele>
        <time>2015-08-13T16:37:10Z</time>
      </trkpt>
      <trkpt lat="42.2859310" lon="1.7108380">
        <ele>2408.6</ele>
        <time>2015-08-13T16:37:11Z</time>
      </trkpt>
      <trkpt lat="42.2858790" lon="1.7108220">
        <ele>2407.9</ele>
        <time>2015-08-13T16:37:12Z</time>
      </trkpt>
      <trkpt lat="42.2858130" lon="1.7108310">
        <ele>2407.0</ele>
        <time>2015-08-13T16:37:13Z</time>
      </trkpt>
      <trkpt lat="42.2857220" lon="1.7108140">
        <ele>2405.6</ele>
        <time>2015-08-13T16:37:14Z</time>
      </trkpt>
      <trkpt lat="42.2856560" lon="1.7108060">
        <ele>2404.7</ele>
        <time>2015-08-13T16:37:15Z</time>
      </trkpt>
      <trkpt lat="42.2855870" lon="1.7107950">
        <ele>2403.6</ele>
        <time>2015-08-13T16:37:16Z</time>
      </trkpt>
      <trkpt lat="42.2855190" lon="1.7107690">
        <ele>2402.5</ele>
        <time>2015-08-13T16:37:17Z</time>
      </trkpt>
      <trkpt lat="42.2854670" lon="1.7107710">
        <ele>2401.7</ele>
        <time>2015-08-13T16:37:18Z</time>
      </trkpt>
      <trkpt lat="42.2854180" lon="1.7107800">
        <ele>2401.1</ele>
        <time>2015-08-13T16:37:19Z</time>
      </trkpt>
      <trkpt lat="42.2853430" lon="1.7107680">
        <ele>2401.3</ele>
        <time>2015-08-13T16:37:20Z</time>
      </trkpt>
      <trkpt lat="42.2852910" lon="1.7107880">
        <ele>2401.8</ele>
        <time>2015-08-13T16:37:21Z</time>
      </trkpt>
      <trkpt lat="42.2852320" lon="1.7107920">
        <ele>2402.1</ele>
        <time>2015-08-13T16:37:22Z</time>
      </trkpt>
      <trkpt lat="42.2851870" lon="1.7108040">
        <ele>2402.5</ele>
        <time>2015-08-13T16:37:23Z</time>
      </trkpt>
      <trkpt lat="42.2851470" lon="1.7108080">
        <ele>2402.7</ele>
        <time>2015-08-13T16:37:24Z</time>
      </trkpt>
      <trkpt lat="42.2851010" lon="1.7108010">
        <ele>2402.9</ele>
        <time>2015-08-13T16:37:25Z</time>
      </trkpt>
      <trkpt lat="42.2850520" lon="1.7107930">
        <ele>2403.1</ele>
        <time>2015-08-13T16:37:26Z</time>
      </trkpt>
      <trkpt lat="42.2850230" lon="1.7107830">
        <ele>2403.1</ele>
        <time>2015-08-13T16:37:27Z</time>
      </trkpt>
      <trkpt lat="42.2849850" lon="1.7107440">
        <ele>2402.9</ele>
        <time>2015-08-13T16:37:29Z</time>
      </trkpt>
      <trkpt lat="42.2849620" lon="1.7107230">
        <ele>2402.8</ele>
        <time>2015-08-13T16:37:30Z</time>
      </trkpt>
      <trkpt lat="42.2849280" lon="1.7107020">
        <ele>2402.8</ele>
        <time>2015-08-13T16:37:32Z</time>
      </trkpt>
      <trkpt lat="42.2848980" lon="1.7106730">
        <ele>2402.6</ele>
        <time>2015-08-13T16:37:34Z</time>
      </trkpt>
      <trkpt lat="42.2848800" lon="1.7106450">
        <ele>2402.4</ele>
        <time>2015-08-13T16:37:35Z</time>
      </trkpt>
      <trkpt lat="42.2848340" lon="1.7105990">
        <ele>2402.1</ele>
        <time>2015-08-13T16:37:37Z</time>
      </trkpt>
      <trkpt lat="42.2847970" lon="1.7105540">
        <ele>2401.8</ele>
        <time>2015-08-13T16:37:39Z</time>
      </trkpt>
      <trkpt lat="42.2847720" lon="1.7105350">
        <ele>2401.6</ele>
        <time>2015-08-13T16:37:40Z</time>
      </trkpt>
      <trkpt lat="42.2847480" lon="1.7105130">
        <ele>2401.5</ele>
        <time>2015-08-13T16:37:41Z</time>
      </trkpt>
      <trkpt lat="42.2847110" lon="1.7104750">
        <ele>2401.2</ele>
        <time>2015-08-13T16:37:43Z</time>
      </trkpt>
      <trkpt lat="42.2846840" lon="1.7104390">
        <ele>2400.9</ele>
        <time>2015-08-13T16:37:45Z</time>
      </trkpt>
      <trkpt lat="42.2846480" lon="1.7104130">
        <ele>2400.7</ele>
        <time>2015-08-13T16:37:47Z</time>
      </trkpt>
      <trkpt lat="42.2846050" lon="1.7103880">
        <ele>2400.6</ele>
        <time>2015-08-13T16:37:49Z</time>
      </trkpt>
      <trkpt lat="42.2845580" lon="1.7103660">
        <ele>2400.4</ele>
        <time>2015-08-13T16:37:51Z</time>
      </trkpt>
      <trkpt lat="42.2845260" lon="1.7103400">
        <ele>2400.2</ele>
        <time>2015-08-13T16:37:52Z</time>
      </trkpt>
      <trkpt lat="42.2844920" lon="1.7103060">
        <ele>2399.8</ele>
        <time>2015-08-13T16:37:54Z</time>
      </trkpt>
      <trkpt lat="42.2844630" lon="1.7102730">
        <ele>2399.4</ele>
        <time>2015-08-13T16:37:56Z</time>
      </trkpt>
      <trkpt lat="42.2844370" lon="1.7102420">
        <ele>2399.0</ele>
        <time>2015-08-13T16:37:58Z</time>
      </trkpt>
      <trkpt lat="42.2844040" lon="1.7102140">
        <ele>2398.7</ele>
        <time>2015-08-13T16:38:00Z</time>
      </trkpt>
      <trkpt lat="42.2843650" lon="1.7101790">
        <ele>2398.3</ele>
        <time>2015-08-13T16:38:02Z</time>
      </trkpt>
      <trkpt lat="42.2843260" lon="1.7101530">
        <ele>2398.0</ele>
        <time>2015-08-13T16:38:04Z</time>
      </trkpt>
      <trkpt lat="42.2842950" lon="1.7101390">
        <ele>2397.8</ele>
        <time>2015-08-13T16:38:06Z</time>
      </trkpt>
      <trkpt lat="42.2842570" lon="1.7101300">
        <ele>2397.7</ele>
        <time>2015-08-13T16:38:08Z</time>
      </trkpt>
      <trkpt lat="42.2842200" lon="1.7101100">
        <ele>2397.5</ele>
        <time>2015-08-13T16:38:10Z</time>
      </trkpt>
      <trkpt lat="42.2841810" lon="1.7101070">
        <ele>2397.5</ele>
        <time>2015-08-13T16:38:12Z</time>
      </trkpt>
      <trkpt lat="42.2841490" lon="1.7101190">
        <ele>2397.7</ele>
        <time>2015-08-13T16:38:14Z</time>
      </trkpt>
      <trkpt lat="42.2841090" lon="1.7101120">
        <ele>2397.6</ele>
        <time>2015-08-13T16:38:16Z</time>
      </trkpt>
      <trkpt lat="42.2840770" lon="1.7100930">
        <ele>2397.4</ele>
        <time>2015-08-13T16:38:18Z</time>
      </trkpt>
      <trkpt lat="42.2840320" lon="1.7100720">
        <ele>2397.1</ele>
        <time>2015-08-13T16:38:20Z</time>
      </trkpt>
      <trkpt lat="42.2839970" lon="1.7100580">
        <ele>2396.9</ele>
        <time>2015-08-13T16:38:22Z</time>
      </trkpt>
      <trkpt lat="42.2839590" lon="1.7100390">
        <ele>2396.6</ele>
        <time>2015-08-13T16:38:24Z</time>
      </trkpt>
      <trkpt lat="42.2839140" lon="1.7100320">
        <ele>2396.5</ele>
        <time>2015-08-13T16:38:26Z</time>
      </trkpt>
      <trkpt lat="42.2838860" lon="1.7100130">
        <ele>2396.2</ele>
        <time>2015-08-13T16:38:29Z</time>
      </trkpt>
      <trkpt lat="42.2838400" lon="1.7100060">
        <ele>2396.1</ele>
        <time>2015-08-13T16:38:31Z</time>
      </trkpt>
      <trkpt lat="42.2838140" lon="1.7100200">
        <ele>2396.3</ele>
        <time>2015-08-13T16:38:33Z</time>
      </trkpt>
      <trkpt lat="42.2837910" lon="1.7100410">
        <ele>2396.8</ele>
        <time>2015-08-13T16:38:35Z</time>
      </trkpt>
      <trkpt lat="42.2837500" lon="1.7100660">
        <ele>2397.3</ele>
        <time>2015-08-13T16:38:38Z</time>
      </trkpt>
      <trkpt lat="42.2837130" lon="1.7100740">
        <ele>2397.8</ele>
        <time>2015-08-13T16:38:40Z</time>
      </trkpt>
      <trkpt lat="42.2836860" lon="1.7100750">
        <ele>2398.1</ele>
        <time>2015-08-13T16:38:41Z</time>
      </trkpt>
      <trkpt lat="42.2836540" lon="1.7100750">
        <ele>2398.5</ele>
        <time>2015-08-13T16:38:42Z</time>
      </trkpt>
      <trkpt lat="42.2836240" lon="1.7100680">
        <ele>2398.7</ele>
        <time>2015-08-13T16:38:43Z</time>
      </trkpt>
      <trkpt lat="42.2835920" lon="1.7100710">
        <ele>2399.1</ele>
        <time>2015-08-13T16:38:44Z</time>
      </trkpt>
      <trkpt lat="42.2835560" lon="1.7100630">
        <ele>2399.3</ele>
        <time>2015-08-13T16:38:45Z</time>
      </trkpt>
      <trkpt lat="42.2835210" lon="1.7100440">
        <ele>2399.3</ele>
        <time>2015-08-13T16:38:46Z</time>
      </trkpt>
      <trkpt lat="42.2834930" lon="1.7100270">
        <ele>2399.3</ele>
        <time>2015-08-13T16:38:47Z</time>
      </trkpt>
      <trkpt lat="42.2834650" lon="1.7100240">
        <ele>2399.5</ele>
        <time>2015-08-13T16:39:06Z</time>
      </trkpt>
      <trkpt lat="42.2834370" lon="1.7100260">
        <ele>2399.9</ele>
        <time>2015-08-13T16:39:08Z</time>
      </trkpt>
      <trkpt lat="42.2833970" lon="1.7100250">
        <ele>2400.3</ele>
        <time>2015-08-13T16:39:10Z</time>
      </trkpt>
      <trkpt lat="42.2833610" lon="1.7100210">
        <ele>2400.6</ele>
        <time>2015-08-13T16:39:12Z</time>
      </trkpt>
      <trkpt lat="42.2833260" lon="1.7100210">
        <ele>2401.0</ele>
        <time>2015-08-13T16:39:14Z</time>
      </trkpt>
      <trkpt lat="42.2832900" lon="1.7100190">
        <ele>2401.3</ele>
        <time>2015-08-13T16:39:16Z</time>
      </trkpt>
      <trkpt lat="42.2832610" lon="1.7100240">
        <ele>2401.7</ele>
        <time>2015-08-13T16:39:18Z</time>
      </trkpt>
      <trkpt lat="42.2832340" lon="1.7100240">
        <ele>2402.0</ele>
        <time>2015-08-13T16:39:20Z</time>
      </trkpt>
      <trkpt lat="42.2832010" lon="1.7100180">
        <ele>2402.3</ele>
        <time>2015-08-13T16:39:22Z</time>
      </trkpt>
      <trkpt lat="42.2831730" lon="1.7100080">
        <ele>2402.4</ele>
        <time>2015-08-13T16:39:24Z</time>
      </trkpt>
      <trkpt lat="42.2831410" lon="1.7100040">
        <ele>2402.7</ele>
        <time>2015-08-13T16:39:26Z</time>
      </trkpt>
      <trkpt lat="42.2831100" lon="1.7099950">
        <ele>2402.8</ele>
        <time>2015-08-13T16:39:28Z</time>
      </trkpt>
      <trkpt lat="42.2830800" lon="1.7099730">
        <ele>2402.7</ele>
        <time>2015-08-13T16:39:31Z</time>
      </trkpt>
      <trkpt lat="42.2830450" lon="1.7099510">
        <ele>2402.7</ele>
        <time>2015-08-13T16:39:34Z</time>
      </trkpt>
      <trkpt lat="42.2830100" lon="1.7099250">
        <ele>2402.6</ele>
        <time>2015-08-13T16:39:36Z</time>
      </trkpt>
      <trkpt lat="42.2829780" lon="1.7099060">
        <ele>2402.5</ele>
        <time>2015-08-13T16:39:38Z</time>
      </trkpt>
      <trkpt lat="42.2829500" lon="1.7099010">
        <ele>2402.7</ele>
        <time>2015-08-13T16:39:40Z</time>
      </trkpt>
      <trkpt lat="42.2829190" lon="1.7098830">
        <ele>2402.7</ele>
        <time>2015-08-13T16:39:42Z</time>
      </trkpt>
      <trkpt lat="42.2828840" lon="1.7098520">
        <ele>2402.2</ele>
        <time>2015-08-13T16:39:45Z</time>
      </trkpt>
      <trkpt lat="42.2828530" lon="1.7098380">
        <ele>2402.0</ele>
        <time>2015-08-13T16:39:47Z</time>
      </trkpt>
      <trkpt lat="42.2827740" lon="1.7098270">
        <ele>2402.0</ele>
        <time>2015-08-13T16:39:51Z</time>
      </trkpt>
      <trkpt lat="42.2827430" lon="1.7098250">
        <ele>2402.1</ele>
        <time>2015-08-13T16:39:54Z</time>
      </trkpt>
      <trkpt lat="42.2826690" lon="1.7098130">
        <ele>2402.1</ele>
        <time>2015-08-13T16:39:58Z</time>
      </trkpt>
      <trkpt lat="42.2826130" lon="1.7097890">
        <ele>2401.9</ele>
        <time>2015-08-13T16:40:01Z</time>
      </trkpt>
      <trkpt lat="42.2825600" lon="1.7097740">
        <ele>2401.8</ele>
        <time>2015-08-13T16:40:03Z</time>
      </trkpt>
      <trkpt lat="42.2825190" lon="1.7097490">
        <ele>2401.6</ele>
        <time>2015-08-13T16:40:05Z</time>
      </trkpt>
      <trkpt lat="42.2824820" lon="1.7097250">
        <ele>2401.4</ele>
        <time>2015-08-13T16:40:07Z</time>
      </trkpt>
      <trkpt lat="42.2824500" lon="1.7096990">
        <ele>2401.2</ele>
        <time>2015-08-13T16:40:09Z</time>
      </trkpt>
      <trkpt lat="42.2824230" lon="1.7096840">
        <ele>2401.2</ele>
        <time>2015-08-13T16:40:11Z</time>
      </trkpt>
      <trkpt lat="42.2823940" lon="1.7096690">
        <ele>2401.1</ele>
        <time>2015-08-13T16:40:13Z</time>
      </trkpt>
      <trkpt lat="42.2823610" lon="1.7096520">
        <ele>2401.1</ele>
        <time>2015-08-13T16:40:15Z</time>
      </trkpt>
      <trkpt lat="42.2823280" lon="1.7096510">
        <ele>2401.3</ele>
        <time>2015-08-13T16:40:18Z</time>
      </trkpt>
      <trkpt lat="42.2823020" lon="1.7096390">
        <ele>2401.3</ele>
        <time>2015-08-13T16:40:20Z</time>
      </trkpt>
      <trkpt lat="42.2822650" lon="1.7096230">
        <ele>2401.3</ele>
        <time>2015-08-13T16:40:23Z</time>
      </trkpt>
      <trkpt lat="42.2822340" lon="1.7096190">
        <ele>2401.4</ele>
        <time>2015-08-13T16:40:25Z</time>
      </trkpt>
      <trkpt lat="42.2821990" lon="1.7095950">
        <ele>2401.4</ele>
        <time>2015-08-13T16:40:28Z</time>
      </trkpt>
      <trkpt lat="42.2821660" lon="1.7095910">
        <ele>2401.6</ele>
        <time>2015-08-13T16:40:30Z</time>
      </trkpt>
      <trkpt lat="42.2821370" lon="1.7095900">
        <ele>2401.7</ele>
        <time>2015-08-13T16:40:32Z</time>
      </trkpt>
      <trkpt lat="42.2820980" lon="1.7095850">
        <ele>2401.9</ele>
        <time>2015-08-13T16:40:35Z</time>
      </trkpt>
      <trkpt lat="42.2820640" lon="1.7095870">
        <ele>2401.8</ele>
        <time>2015-08-13T16:40:38Z</time>
      </trkpt>
      <trkpt lat="42.2820330" lon="1.7095820">
        <ele>2401.5</ele>
        <time>2015-08-13T16:40:40Z</time>
      </trkpt>
      <trkpt lat="42.2820020" lon="1.7095670">
        <ele>2401.0</ele>
        <time>2015-08-13T16:40:42Z</time>
      </trkpt>
      <trkpt lat="42.2819720" lon="1.7095580">
        <ele>2400.6</ele>
        <time>2015-08-13T16:40:44Z</time>
      </trkpt>
      <trkpt lat="42.2819430" lon="1.7095590">
        <ele>2400.3</ele>
        <time>2015-08-13T16:40:46Z</time>
      </trkpt>
      <trkpt lat="42.2819140" lon="1.7095710">
        <ele>2400.2</ele>
        <time>2015-08-13T16:40:48Z</time>
      </trkpt>
      <trkpt lat="42.2818760" lon="1.7095960">
        <ele>2400.1</ele>
        <time>2015-08-13T16:40:51Z</time>
      </trkpt>
      <trkpt lat="42.2818470" lon="1.7096170">
        <ele>2399.9</ele>
        <time>2015-08-13T16:40:53Z</time>
      </trkpt>
      <trkpt lat="42.2818360" lon="1.7096580">
        <ele>2400.1</ele>
        <time>2015-08-13T16:40:55Z</time>
      </trkpt>
      <trkpt lat="42.2817990" lon="1.7097030">
        <ele>2400.0</ele>
        <time>2015-08-13T16:40:58Z</time>
      </trkpt>
      <trkpt lat="42.2817690" lon="1.7097130">
        <ele>2399.7</ele>
        <time>2015-08-13T16:41:00Z</time>
      </trkpt>
      <trkpt lat="42.2817530" lon="1.7097520">
        <ele>2399.8</ele>
        <time>2015-08-13T16:41:02Z</time>
      </trkpt>
      <trkpt lat="42.2817170" lon="1.7097960">
        <ele>2399.7</ele>
        <time>2015-08-13T16:41:04Z</time>
      </trkpt>
      <trkpt lat="42.2816980" lon="1.7098370">
        <ele>2399.7</ele>
        <time>2015-08-13T16:41:07Z</time>
      </trkpt>
      <trkpt lat="42.2816710" lon="1.7097900">
        <ele>2399.2</ele>
        <time>2015-08-13T16:41:09Z</time>
      </trkpt>
      <trkpt lat="42.2816470" lon="1.7098200">
        <ele>2399.1</ele>
        <time>2015-08-13T16:41:10Z</time>
      </trkpt>
      <trkpt lat="42.2816360" lon="1.7098690">
        <ele>2399.2</ele>
        <time>2015-08-13T16:41:11Z</time>
      </trkpt>
      <trkpt lat="42.2815430" lon="1.7099290">
        <ele>2398.5</ele>
        <time>2015-08-13T16:41:13Z</time>
      </trkpt>
      <trkpt lat="42.2814940" lon="1.7099570">
        <ele>2398.1</ele>
        <time>2015-08-13T16:41:14Z</time>
      </trkpt>
      <trkpt lat="42.2814500" lon="1.7099860">
        <ele>2397.7</ele>
        <time>2015-08-13T16:41:15Z</time>
      </trkpt>
      <trkpt lat="42.2813870" lon="1.7099950">
        <ele>2397.0</ele>
        <time>2015-08-13T16:41:16Z</time>
      </trkpt>
      <trkpt lat="42.2813340" lon="1.7099930">
        <ele>2396.4</ele>
        <time>2015-08-13T16:41:17Z</time>
      </trkpt>
      <trkpt lat="42.2811260" lon="1.7100020">
        <ele>2395.6</ele>
        <time>2015-08-13T16:41:20Z</time>
      </trkpt>
      <trkpt lat="42.2810680" lon="1.7100010">
        <ele>2395.6</ele>
        <time>2015-08-13T16:41:21Z</time>
      </trkpt>
      <trkpt lat="42.2810090" lon="1.7100110">
        <ele>2395.7</ele>
        <time>2015-08-13T16:41:22Z</time>
      </trkpt>
      <trkpt lat="42.2809490" lon="1.7100110">
        <ele>2395.7</ele>
        <time>2015-08-13T16:41:23Z</time>
      </trkpt>
      <trkpt lat="42.2808910" lon="1.7100290">
        <ele>2395.8</ele>
        <time>2015-08-13T16:41:24Z</time>
      </trkpt>
      <trkpt lat="42.2808340" lon="1.7100440">
        <ele>2395.9</ele>
        <time>2015-08-13T16:41:25Z</time>
      </trkpt>
      <trkpt lat="42.2807700" lon="1.7100450">
        <ele>2395.9</ele>
        <time>2015-08-13T16:41:26Z</time>
      </trkpt>
      <trkpt lat="42.2807100" lon="1.7100500">
        <ele>2396.0</ele>
        <time>2015-08-13T16:41:27Z</time>
      </trkpt>
      <trkpt lat="42.2806390" lon="1.7100600">
        <ele>2396.0</ele>
        <time>2015-08-13T16:41:28Z</time>
      </trkpt>
      <trkpt lat="42.2805780" lon="1.7100690">
        <ele>2396.1</ele>
        <time>2015-08-13T16:41:29Z</time>
      </trkpt>
      <trkpt lat="42.2805150" lon="1.7100810">
        <ele>2396.1</ele>
        <time>2015-08-13T16:41:30Z</time>
      </trkpt>
      <trkpt lat="42.2804480" lon="1.7100840">
        <ele>2396.2</ele>
        <time>2015-08-13T16:41:31Z</time>
      </trkpt>
      <trkpt lat="42.2803860" lon="1.7100880">
        <ele>2396.4</ele>
        <time>2015-08-13T16:41:32Z</time>
      </trkpt>
      <trkpt lat="42.2803230" lon="1.7100810">
        <ele>2396.8</ele>
        <time>2015-08-13T16:41:33Z</time>
      </trkpt>
      <trkpt lat="42.2802800" lon="1.7100940">
        <ele>2397.1</ele>
        <time>2015-08-13T16:41:34Z</time>
      </trkpt>
      <trkpt lat="42.2802220" lon="1.7100980">
        <ele>2397.5</ele>
        <time>2015-08-13T16:41:35Z</time>
      </trkpt>
      <trkpt lat="42.2801830" lon="1.7101160">
        <ele>2397.9</ele>
        <time>2015-08-13T16:41:36Z</time>
      </trkpt>
      <trkpt lat="42.2801350" lon="1.7101170">
        <ele>2398.2</ele>
        <time>2015-08-13T16:41:37Z</time>
      </trkpt>
      <trkpt lat="42.2800730" lon="1.7101150">
        <ele>2398.6</ele>
        <time>2015-08-13T16:41:38Z</time>
      </trkpt>
      <trkpt lat="42.2800240" lon="1.7101170">
        <ele>2398.9</ele>
        <time>2015-08-13T16:41:39Z</time>
      </trkpt>
      <trkpt lat="42.2799720" lon="1.7101160">
        <ele>2399.3</ele>
        <time>2015-08-13T16:41:40Z</time>
      </trkpt>
      <trkpt lat="42.2799290" lon="1.7101120">
        <ele>2399.6</ele>
        <time>2015-08-13T16:41:41Z</time>
      </trkpt>
      <trkpt lat="42.2798910" lon="1.7100420">
        <ele>2399.6</ele>
        <time>2015-08-13T16:41:42Z</time>
      </trkpt>
      <trkpt lat="42.2798570" lon="1.7099870">
        <ele>2399.7</ele>
        <time>2015-08-13T16:41:43Z</time>
      </trkpt>
      <trkpt lat="42.2798190" lon="1.7099670">
        <ele>2399.8</ele>
        <time>2015-08-13T16:41:44Z</time>
      </trkpt>
      <trkpt lat="42.2797910" lon="1.7099540">
        <ele>2400.0</ele>
        <time>2015-08-13T16:41:45Z</time>
      </trkpt>
      <trkpt lat="42.2797620" lon="1.7099380">
        <ele>2400.1</ele>
        <time>2015-08-13T16:41:46Z</time>
      </trkpt>
      <trkpt lat="42.2797360" lon="1.7099250">
        <ele>2400.2</ele>
        <time>2015-08-13T16:41:47Z</time>
      </trkpt>
      <trkpt lat="42.2797670" lon="1.7099250">
        <ele>2400.0</ele>
        <time>2015-08-13T16:41:48Z</time>
      </trkpt>
      <trkpt lat="42.2797510" lon="1.7098930">
        <ele>2400.0</ele>
        <time>2015-08-13T16:42:02Z</time>
      </trkpt>
      <trkpt lat="42.2797340" lon="1.7098640">
        <ele>2400.0</ele>
        <time>2015-08-13T16:42:07Z</time>
      </trkpt>
      <trkpt lat="42.2797160" lon="1.7098320">
        <ele>2400.1</ele>
        <time>2015-08-13T16:42:10Z</time>
      </trkpt>
      <trkpt lat="42.2796930" lon="1.7098100">
        <ele>2400.1</ele>
        <time>2015-08-13T16:42:17Z</time>
      </trkpt>
      <trkpt lat="42.2796700" lon="1.7097900">
        <ele>2400.2</ele>
        <time>2015-08-13T16:42:20Z</time>
      </trkpt>
      <trkpt lat="42.2796430" lon="1.7097630">
        <ele>2400.3</ele>
        <time>2015-08-13T16:42:24Z</time>
      </trkpt>
      <trkpt lat="42.2796270" lon="1.7097320">
        <ele>2400.3</ele>
        <time>2015-08-13T16:42:27Z</time>
      </trkpt>
      <trkpt lat="42.2796170" lon="1.7096960">
        <ele>2400.2</ele>
        <time>2015-08-13T16:42:31Z</time>
      </trkpt>
      <trkpt lat="42.2795930" lon="1.7096660">
        <ele>2400.2</ele>
        <time>2015-08-13T16:42:48Z</time>
      </trkpt>
      <trkpt lat="42.2795770" lon="1.7096320">
        <ele>2400.1</ele>
        <time>2015-08-13T16:42:51Z</time>
      </trkpt>
      <trkpt lat="42.2795660" lon="1.7095970">
        <ele>2399.9</ele>
        <time>2015-08-13T16:42:54Z</time>
      </trkpt>
      <trkpt lat="42.2795530" lon="1.7095650">
        <ele>2399.8</ele>
        <time>2015-08-13T16:42:57Z</time>
      </trkpt>
      <trkpt lat="42.2795360" lon="1.7095230">
        <ele>2399.8</ele>
        <time>2015-08-13T16:43:00Z</time>
      </trkpt>
      <trkpt lat="42.2795180" lon="1.7094690">
        <ele>2399.8</ele>
        <time>2015-08-13T16:43:04Z</time>
      </trkpt>
      <trkpt lat="42.2795070" lon="1.7094250">
        <ele>2399.8</ele>
        <time>2015-08-13T16:43:06Z</time>
      </trkpt>
      <trkpt lat="42.2794940" lon="1.7093760">
        <ele>2399.9</ele>
        <time>2015-08-13T16:43:08Z</time>
      </trkpt>
      <trkpt lat="42.2794830" lon="1.7093310">
        <ele>2399.9</ele>
        <time>2015-08-13T16:43:10Z</time>
      </trkpt>
      <trkpt lat="42.2794660" lon="1.7092750">
        <ele>2399.9</ele>
        <time>2015-08-13T16:43:12Z</time>
      </trkpt>
      <trkpt lat="42.2794580" lon="1.7092390">
        <ele>2400.0</ele>
        <time>2015-08-13T16:43:13Z</time>
      </trkpt>
      <trkpt lat="42.2794560" lon="1.7091960">
        <ele>2400.1</ele>
        <time>2015-08-13T16:43:14Z</time>
      </trkpt>
      <trkpt lat="42.2794600" lon="1.7091370">
        <ele>2400.3</ele>
        <time>2015-08-13T16:43:16Z</time>
      </trkpt>
      <trkpt lat="42.2794520" lon="1.7090730">
        <ele>2400.4</ele>
        <time>2015-08-13T16:43:18Z</time>
      </trkpt>
      <trkpt lat="42.2794470" lon="1.7090030">
        <ele>2400.5</ele>
        <time>2015-08-13T16:43:20Z</time>
      </trkpt>
      <trkpt lat="42.2794390" lon="1.7089580">
        <ele>2400.6</ele>
        <time>2015-08-13T16:43:21Z</time>
      </trkpt>
      <trkpt lat="42.2794170" lon="1.7089100">
        <ele>2400.6</ele>
        <time>2015-08-13T16:43:23Z</time>
      </trkpt>
      <trkpt lat="42.2793950" lon="1.7088720">
        <ele>2400.5</ele>
        <time>2015-08-13T16:43:25Z</time>
      </trkpt>
      <trkpt lat="42.2793860" lon="1.7088200">
        <ele>2400.6</ele>
        <time>2015-08-13T16:43:27Z</time>
      </trkpt>
      <trkpt lat="42.2793790" lon="1.7087640">
        <ele>2400.7</ele>
        <time>2015-08-13T16:43:29Z</time>
      </trkpt>
      <trkpt lat="42.2793810" lon="1.7087230">
        <ele>2401.1</ele>
        <time>2015-08-13T16:43:31Z</time>
      </trkpt>
      <trkpt lat="42.2793790" lon="1.7087700">
        <ele>2400.7</ele>
        <time>2015-08-13T16:43:38Z</time>
      </trkpt>
      <trkpt lat="42.2793600" lon="1.7087070">
        <ele>2401.2</ele>
        <time>2015-08-13T16:44:08Z</time>
      </trkpt>
      <trkpt lat="42.2793350" lon="1.7086430">
        <ele>2401.8</ele>
        <time>2015-08-13T16:44:10Z</time>
      </trkpt>
      <trkpt lat="42.2793220" lon="1.7085840">
        <ele>2402.4</ele>
        <time>2015-08-13T16:44:11Z</time>
      </trkpt>
      <trkpt lat="42.2793250" lon="1.7085330">
        <ele>2403.0</ele>
        <time>2015-08-13T16:44:12Z</time>
      </trkpt>
      <trkpt lat="42.2793030" lon="1.7084840">
        <ele>2403.4</ele>
        <time>2015-08-13T16:44:13Z</time>
      </trkpt>
      <trkpt lat="42.2792870" lon="1.7084330">
        <ele>2403.9</ele>
        <time>2015-08-13T16:44:14Z</time>
      </trkpt>
      <trkpt lat="42.2792740" lon="1.7083740">
        <ele>2404.5</ele>
        <time>2015-08-13T16:44:15Z</time>
      </trkpt>
      <trkpt lat="42.2792610" lon="1.7083080">
        <ele>2405.2</ele>
        <time>2015-08-13T16:44:16Z</time>
      </trkpt>
      <trkpt lat="42.2793010" lon="1.7082470">
        <ele>2406.1</ele>
        <time>2015-08-13T16:44:17Z</time>
      </trkpt>
      <trkpt lat="42.2793090" lon="1.7081980">
        <ele>2406.8</ele>
        <time>2015-08-13T16:44:18Z</time>
      </trkpt>
      <trkpt lat="42.2793150" lon="1.7081370">
        <ele>2407.5</ele>
        <time>2015-08-13T16:44:19Z</time>
      </trkpt>
      <trkpt lat="42.2793150" lon="1.7080630">
        <ele>2408.4</ele>
        <time>2015-08-13T16:44:20Z</time>
      </trkpt>
      <trkpt lat="42.2793110" lon="1.7080100">
        <ele>2409.0</ele>
        <time>2015-08-13T16:44:21Z</time>
      </trkpt>
      <trkpt lat="42.2792990" lon="1.7079580">
        <ele>2409.5</ele>
        <time>2015-08-13T16:44:22Z</time>
      </trkpt>
      <trkpt lat="42.2793180" lon="1.7078830">
        <ele>2410.1</ele>
        <time>2015-08-13T16:44:24Z</time>
      </trkpt>
      <trkpt lat="42.2793320" lon="1.7078220">
        <ele>2410.1</ele>
        <time>2015-08-13T16:44:26Z</time>
      </trkpt>
      <trkpt lat="42.2793210" lon="1.7077460">
        <ele>2409.9</ele>
        <time>2015-08-13T16:44:28Z</time>
      </trkpt>
      <trkpt lat="42.2793130" lon="1.7077070">
        <ele>2409.9</ele>
        <time>2015-08-13T16:44:29Z</time>
      </trkpt>
      <trkpt lat="42.2793110" lon="1.7076650">
        <ele>2409.8</ele>
        <time>2015-08-13T16:44:30Z</time>
      </trkpt>
      <trkpt lat="42.2793080" lon="1.7076250">
        <ele>2409.8</ele>
        <time>2015-08-13T16:44:31Z</time>
      </trkpt>
      <trkpt lat="42.2792920" lon="1.7075670">
        <ele>2409.7</ele>
        <time>2015-08-13T16:44:33Z</time>
      </trkpt>
      <trkpt lat="42.2793070" lon="1.7074990">
        <ele>2409.7</ele>
        <time>2015-08-13T16:44:35Z</time>
      </trkpt>
      <trkpt lat="42.2793000" lon="1.7074520">
        <ele>2409.6</ele>
        <time>2015-08-13T16:44:36Z</time>
      </trkpt>
      <trkpt lat="42.2792970" lon="1.7074090">
        <ele>2409.6</ele>
        <time>2015-08-13T16:44:37Z</time>
      </trkpt>
      <trkpt lat="42.2792990" lon="1.7073330">
        <ele>2409.6</ele>
        <time>2015-08-13T16:44:39Z</time>
      </trkpt>
      <trkpt lat="42.2792910" lon="1.7072990">
        <ele>2409.6</ele>
        <time>2015-08-13T16:44:40Z</time>
      </trkpt>
      <trkpt lat="42.2792830" lon="1.7072340">
        <ele>2409.6</ele>
        <time>2015-08-13T16:44:42Z</time>
      </trkpt>
      <trkpt lat="42.2792710" lon="1.7071980">
        <ele>2409.6</ele>
        <time>2015-08-13T16:44:43Z</time>
      </trkpt>
      <trkpt lat="42.2792690" lon="1.7071330">
        <ele>2409.6</ele>
        <time>2015-08-13T16:44:45Z</time>
      </trkpt>
      <trkpt lat="42.2792670" lon="1.7070520">
        <ele>2409.8</ele>
        <time>2015-08-13T16:44:47Z</time>
      </trkpt>
      <trkpt lat="42.2792560" lon="1.7069980">
        <ele>2410.1</ele>
        <time>2015-08-13T16:44:49Z</time>
      </trkpt>
      <trkpt lat="42.2792440" lon="1.7069610">
        <ele>2410.3</ele>
        <time>2015-08-13T16:44:51Z</time>
      </trkpt>
      <trkpt lat="42.2792270" lon="1.7069110">
        <ele>2410.7</ele>
        <time>2015-08-13T16:44:53Z</time>
      </trkpt>
      <trkpt lat="42.2792260" lon="1.7068720">
        <ele>2410.9</ele>
        <time>2015-08-13T16:44:54Z</time>
      </trkpt>
      <trkpt lat="42.2792280" lon="1.7068290">
        <ele>2411.1</ele>
        <time>2015-08-13T16:44:55Z</time>
      </trkpt>
      <trkpt lat="42.2792190" lon="1.7067900">
        <ele>2411.4</ele>
        <time>2015-08-13T16:44:56Z</time>
      </trkpt>
      <trkpt lat="42.2792040" lon="1.7067360">
        <ele>2411.8</ele>
        <time>2015-08-13T16:44:58Z</time>
      </trkpt>
      <trkpt lat="42.2791760" lon="1.7066890">
        <ele>2412.5</ele>
        <time>2015-08-13T16:45:00Z</time>
      </trkpt>
      <trkpt lat="42.2791560" lon="1.7066520">
        <ele>2413.0</ele>
        <time>2015-08-13T16:45:01Z</time>
      </trkpt>
      <trkpt lat="42.2791430" lon="1.7065950">
        <ele>2413.6</ele>
        <time>2015-08-13T16:45:03Z</time>
      </trkpt>
      <trkpt lat="42.2791270" lon="1.7065590">
        <ele>2414.1</ele>
        <time>2015-08-13T16:45:04Z</time>
      </trkpt>
      <trkpt lat="42.2791070" lon="1.7065150">
        <ele>2414.7</ele>
        <time>2015-08-13T16:45:05Z</time>
      </trkpt>
      <trkpt lat="42.2791030" lon="1.7064400">
        <ele>2415.3</ele>
        <time>2015-08-13T16:45:07Z</time>
      </trkpt>
      <trkpt lat="42.2790890" lon="1.7063830">
        <ele>2416.0</ele>
        <time>2015-08-13T16:45:09Z</time>
      </trkpt>
      <trkpt lat="42.2790640" lon="1.7063190">
        <ele>2417.0</ele>
        <time>2015-08-13T16:45:11Z</time>
      </trkpt>
      <trkpt lat="42.2790530" lon="1.7062850">
        <ele>2417.5</ele>
        <time>2015-08-13T16:45:12Z</time>
      </trkpt>
      <trkpt lat="42.2790420" lon="1.7062170">
        <ele>2418.0</ele>
        <time>2015-08-13T16:45:14Z</time>
      </trkpt>
      <trkpt lat="42.2790410" lon="1.7061770">
        <ele>2418.1</ele>
        <time>2015-08-13T16:45:15Z</time>
      </trkpt>
      <trkpt lat="42.2790340" lon="1.7061320">
        <ele>2418.4</ele>
        <time>2015-08-13T16:45:16Z</time>
      </trkpt>
      <trkpt lat="42.2790350" lon="1.7060880">
        <ele>2418.4</ele>
        <time>2015-08-13T16:45:17Z</time>
      </trkpt>
      <trkpt lat="42.2790350" lon="1.7060400">
        <ele>2418.5</ele>
        <time>2015-08-13T16:45:18Z</time>
      </trkpt>
      <trkpt lat="42.2790340" lon="1.7059920">
        <ele>2418.6</ele>
        <time>2015-08-13T16:45:19Z</time>
      </trkpt>
      <trkpt lat="42.2790300" lon="1.7059380">
        <ele>2418.8</ele>
        <time>2015-08-13T16:45:20Z</time>
      </trkpt>
      <trkpt lat="42.2790220" lon="1.7058840">
        <ele>2419.1</ele>
        <time>2015-08-13T16:45:21Z</time>
      </trkpt>
      <trkpt lat="42.2790120" lon="1.7058290">
        <ele>2419.4</ele>
        <time>2015-08-13T16:45:22Z</time>
      </trkpt>
      <trkpt lat="42.2789850" lon="1.7057670">
        <ele>2420.3</ele>
        <time>2015-08-13T16:45:25Z</time>
      </trkpt>
      <trkpt lat="42.2789730" lon="1.7057270">
        <ele>2420.7</ele>
        <time>2015-08-13T16:45:27Z</time>
      </trkpt>
      <trkpt lat="42.2789470" lon="1.7056720">
        <ele>2421.5</ele>
        <time>2015-08-13T16:45:29Z</time>
      </trkpt>
      <trkpt lat="42.2789340" lon="1.7056210">
        <ele>2422.0</ele>
        <time>2015-08-13T16:45:30Z</time>
      </trkpt>
      <trkpt lat="42.2789190" lon="1.7055820">
        <ele>2422.5</ele>
        <time>2015-08-13T16:45:31Z</time>
      </trkpt>
      <trkpt lat="42.2789310" lon="1.7055310">
        <ele>2422.3</ele>
        <time>2015-08-13T16:45:32Z</time>
      </trkpt>
      <trkpt lat="42.2789210" lon="1.7054870">
        <ele>2422.7</ele>
        <time>2015-08-13T16:45:33Z</time>
      </trkpt>
      <trkpt lat="42.2789130" lon="1.7054450">
        <ele>2423.0</ele>
        <time>2015-08-13T16:45:34Z</time>
      </trkpt>
      <trkpt lat="42.2789140" lon="1.7053760">
        <ele>2423.1</ele>
        <time>2015-08-13T16:45:36Z</time>
      </trkpt>
      <trkpt lat="42.2789250" lon="1.7053360">
        <ele>2422.7</ele>
        <time>2015-08-13T16:45:37Z</time>
      </trkpt>
      <trkpt lat="42.2789490" lon="1.7052890">
        <ele>2422.0</ele>
        <time>2015-08-13T16:45:38Z</time>
      </trkpt>
      <trkpt lat="42.2789470" lon="1.7052290">
        <ele>2422.0</ele>
        <time>2015-08-13T16:45:40Z</time>
      </trkpt>
      <trkpt lat="42.2789360" lon="1.7051760">
        <ele>2422.4</ele>
        <time>2015-08-13T16:45:42Z</time>
      </trkpt>
      <trkpt lat="42.2789070" lon="1.7051190">
        <ele>2423.3</ele>
        <time>2015-08-13T16:45:44Z</time>
      </trkpt>
      <trkpt lat="42.2788920" lon="1.7050580">
        <ele>2423.9</ele>
        <time>2015-08-13T16:45:46Z</time>
      </trkpt>
      <trkpt lat="42.2788930" lon="1.7050070">
        <ele>2423.8</ele>
        <time>2015-08-13T16:45:48Z</time>
      </trkpt>
      <trkpt lat="42.2788940" lon="1.7049510">
        <ele>2423.8</ele>
        <time>2015-08-13T16:45:50Z</time>
      </trkpt>
      <trkpt lat="42.2788860" lon="1.7049000">
        <ele>2424.1</ele>
        <time>2015-08-13T16:45:51Z</time>
      </trkpt>
      <trkpt lat="42.2788710" lon="1.7048660">
        <ele>2424.7</ele>
        <time>2015-08-13T16:45:53Z</time>
      </trkpt>
      <trkpt lat="42.2788570" lon="1.7048110">
        <ele>2425.3</ele>
        <time>2015-08-13T16:45:54Z</time>
      </trkpt>
      <trkpt lat="42.2788520" lon="1.7047580">
        <ele>2425.6</ele>
        <time>2015-08-13T16:45:57Z</time>
      </trkpt>
      <trkpt lat="42.2788390" lon="1.7047140">
        <ele>2426.1</ele>
        <time>2015-08-13T16:45:59Z</time>
      </trkpt>
      <trkpt lat="42.2788130" lon="1.7046850">
        <ele>2427.2</ele>
        <time>2015-08-13T16:46:01Z</time>
      </trkpt>
      <trkpt lat="42.2788100" lon="1.7046440">
        <ele>2427.4</ele>
        <time>2015-08-13T16:46:03Z</time>
      </trkpt>
      <trkpt lat="42.2788060" lon="1.7045980">
        <ele>2427.6</ele>
        <time>2015-08-13T16:46:05Z</time>
      </trkpt>
      <trkpt lat="42.2787900" lon="1.7045550">
        <ele>2427.9</ele>
        <time>2015-08-13T16:46:07Z</time>
      </trkpt>
      <trkpt lat="42.2787720" lon="1.7045150">
        <ele>2428.0</ele>
        <time>2015-08-13T16:46:10Z</time>
      </trkpt>
      <trkpt lat="42.2787700" lon="1.7044770">
        <ele>2427.5</ele>
        <time>2015-08-13T16:46:12Z</time>
      </trkpt>
      <trkpt lat="42.2787500" lon="1.7044210">
        <ele>2427.5</ele>
        <time>2015-08-13T16:46:14Z</time>
      </trkpt>
      <trkpt lat="42.2787420" lon="1.7043760">
        <ele>2426.7</ele>
        <time>2015-08-13T16:46:16Z</time>
      </trkpt>
      <trkpt lat="42.2787360" lon="1.7043300">
        <ele>2426.0</ele>
        <time>2015-08-13T16:46:18Z</time>
      </trkpt>
      <trkpt lat="42.2787290" lon="1.7042930">
        <ele>2425.4</ele>
        <time>2015-08-13T16:46:20Z</time>
      </trkpt>
      <trkpt lat="42.2787120" lon="1.7042570">
        <ele>2424.9</ele>
        <time>2015-08-13T16:46:22Z</time>
      </trkpt>
      <trkpt lat="42.2786940" lon="1.7042120">
        <ele>2424.2</ele>
        <time>2015-08-13T16:46:25Z</time>
      </trkpt>
      <trkpt lat="42.2786730" lon="1.7041800">
        <ele>2423.8</ele>
        <time>2015-08-13T16:46:28Z</time>
      </trkpt>
      <trkpt lat="42.2786440" lon="1.7041350">
        <ele>2423.3</ele>
        <time>2015-08-13T16:46:32Z</time>
      </trkpt>
      <trkpt lat="42.2786270" lon="1.7040990">
        <ele>2422.9</ele>
        <time>2015-08-13T16:46:35Z</time>
      </trkpt>
      <trkpt lat="42.2786050" lon="1.7040710">
        <ele>2422.7</ele>
        <time>2015-08-13T16:46:37Z</time>
      </trkpt>
      <trkpt lat="42.2785810" lon="1.7040370">
        <ele>2422.4</ele>
        <time>2015-08-13T16:46:40Z</time>
      </trkpt>
      <trkpt lat="42.2785740" lon="1.7039850">
        <ele>2421.9</ele>
        <time>2015-08-13T16:46:43Z</time>
      </trkpt>
      <trkpt lat="42.2785520" lon="1.7039490">
        <ele>2421.8</ele>
        <time>2015-08-13T16:46:46Z</time>
      </trkpt>
      <trkpt lat="42.2785430" lon="1.7038920">
        <ele>2421.3</ele>
        <time>2015-08-13T16:46:49Z</time>
      </trkpt>
      <trkpt lat="42.2785250" lon="1.7038410">
        <ele>2421.0</ele>
        <time>2015-08-13T16:46:52Z</time>
      </trkpt>
      <trkpt lat="42.2785140" lon="1.7038080">
        <ele>2420.9</ele>
        <time>2015-08-13T16:49:02Z</time>
      </trkpt>
      <trkpt lat="42.2784920" lon="1.7037780">
        <ele>2420.9</ele>
        <time>2015-08-13T16:49:04Z</time>
      </trkpt>
      <trkpt lat="42.2784790" lon="1.7037360">
        <ele>2420.8</ele>
        <time>2015-08-13T16:49:06Z</time>
      </trkpt>
      <trkpt lat="42.2784720" lon="1.7036880">
        <ele>2420.6</ele>
        <time>2015-08-13T16:49:08Z</time>
      </trkpt>
      <trkpt lat="42.2784480" lon="1.7036500">
        <ele>2420.6</ele>
        <time>2015-08-13T16:49:10Z</time>
      </trkpt>
      <trkpt lat="42.2784350" lon="1.7036090">
        <ele>2420.5</ele>
        <time>2015-08-13T16:49:14Z</time>
      </trkpt>
      <trkpt lat="42.2784060" lon="1.7035690">
        <ele>2420.7</ele>
        <time>2015-08-13T16:49:17Z</time>
      </trkpt>
      <trkpt lat="42.2783780" lon="1.7035320">
        <ele>2420.9</ele>
        <time>2015-08-13T16:49:19Z</time>
      </trkpt>
      <trkpt lat="42.2783650" lon="1.7034920">
        <ele>2420.8</ele>
        <time>2015-08-13T16:49:21Z</time>
      </trkpt>
      <trkpt lat="42.2783520" lon="1.7034370">
        <ele>2420.6</ele>
        <time>2015-08-13T16:49:23Z</time>
      </trkpt>
      <trkpt lat="42.2782970" lon="1.7033720">
        <ele>2421.1</ele>
        <time>2015-08-13T16:50:04Z</time>
      </trkpt>
      <trkpt lat="42.2782710" lon="1.7033500">
        <ele>2421.4</ele>
        <time>2015-08-13T16:50:05Z</time>
      </trkpt>
      <trkpt lat="42.2781800" lon="1.7032690">
        <ele>2422.4</ele>
        <time>2015-08-13T16:50:06Z</time>
      </trkpt>
      <trkpt lat="42.2781270" lon="1.7031760">
        <ele>2422.7</ele>
        <time>2015-08-13T16:50:07Z</time>
      </trkpt>
      <trkpt lat="42.2780900" lon="1.7031070">
        <ele>2422.9</ele>
        <time>2015-08-13T16:50:08Z</time>
      </trkpt>
      <trkpt lat="42.2780650" lon="1.7030370">
        <ele>2423.0</ele>
        <time>2015-08-13T16:50:09Z</time>
      </trkpt>
      <trkpt lat="42.2779930" lon="1.7028620">
        <ele>2423.5</ele>
        <time>2015-08-13T16:50:12Z</time>
      </trkpt>
      <trkpt lat="42.2779770" lon="1.7028220">
        <ele>2423.7</ele>
        <time>2015-08-13T16:50:13Z</time>
      </trkpt>
      <trkpt lat="42.2779670" lon="1.7027470">
        <ele>2423.8</ele>
        <time>2015-08-13T16:50:14Z</time>
      </trkpt>
      <trkpt lat="42.2779500" lon="1.7026890">
        <ele>2424.0</ele>
        <time>2015-08-13T16:50:15Z</time>
      </trkpt>
      <trkpt lat="42.2779230" lon="1.7026540">
        <ele>2424.5</ele>
        <time>2015-08-13T16:50:16Z</time>
      </trkpt>
      <trkpt lat="42.2779040" lon="1.7025950">
        <ele>2424.0</ele>
        <time>2015-08-13T16:50:18Z</time>
      </trkpt>
      <trkpt lat="42.2778920" lon="1.7025600">
        <ele>2423.4</ele>
        <time>2015-08-13T16:50:19Z</time>
      </trkpt>
      <trkpt lat="42.2778770" lon="1.7025120">
        <ele>2422.7</ele>
        <time>2015-08-13T16:50:20Z</time>
      </trkpt>
      <trkpt lat="42.2778630" lon="1.7024770">
        <ele>2422.0</ele>
        <time>2015-08-13T16:50:21Z</time>
      </trkpt>
      <trkpt lat="42.2778450" lon="1.7024410">
        <ele>2421.2</ele>
        <time>2015-08-13T16:50:22Z</time>
      </trkpt>
      <trkpt lat="42.2778210" lon="1.7023790">
        <ele>2420.2</ele>
        <time>2015-08-13T16:50:24Z</time>
      </trkpt>
      <trkpt lat="42.2778050" lon="1.7023360">
        <ele>2419.6</ele>
        <time>2015-08-13T16:50:26Z</time>
      </trkpt>
      <trkpt lat="42.2777740" lon="1.7022490">
        <ele>2418.5</ele>
        <time>2015-08-13T16:50:29Z</time>
      </trkpt>
      <trkpt lat="42.2777680" lon="1.7022110">
        <ele>2418.3</ele>
        <time>2015-08-13T16:50:31Z</time>
      </trkpt>
      <trkpt lat="42.2777580" lon="1.7021690">
        <ele>2418.1</ele>
        <time>2015-08-13T16:50:33Z</time>
      </trkpt>
      <trkpt lat="42.2777630" lon="1.7021140">
        <ele>2418.4</ele>
        <time>2015-08-13T16:50:36Z</time>
      </trkpt>
      <trkpt lat="42.2777490" lon="1.7020460">
        <ele>2418.0</ele>
        <time>2015-08-13T16:50:39Z</time>
      </trkpt>
      <trkpt lat="42.2777470" lon="1.7020030">
        <ele>2418.0</ele>
        <time>2015-08-13T16:50:46Z</time>
      </trkpt>
      <trkpt lat="42.2777310" lon="1.7019680">
        <ele>2417.5</ele>
        <time>2015-08-13T16:50:48Z</time>
      </trkpt>
      <trkpt lat="42.2777600" lon="1.7019180">
        <ele>2418.5</ele>
        <time>2015-08-13T16:50:54Z</time>
      </trkpt>
      <trkpt lat="42.2777660" lon="1.7018690">
        <ele>2418.7</ele>
        <time>2015-08-13T16:50:56Z</time>
      </trkpt>
      <trkpt lat="42.2777480" lon="1.7018200">
        <ele>2418.2</ele>
        <time>2015-08-13T16:50:58Z</time>
      </trkpt>
      <trkpt lat="42.2777230" lon="1.7017680">
        <ele>2417.5</ele>
        <time>2015-08-13T16:51:00Z</time>
      </trkpt>
      <trkpt lat="42.2777120" lon="1.7017300">
        <ele>2417.2</ele>
        <time>2015-08-13T16:51:01Z</time>
      </trkpt>
      <trkpt lat="42.2776950" lon="1.7016710">
        <ele>2416.9</ele>
        <time>2015-08-13T16:51:03Z</time>
      </trkpt>
      <trkpt lat="42.2776700" lon="1.7016140">
        <ele>2416.3</ele>
        <time>2015-08-13T16:51:05Z</time>
      </trkpt>
      <trkpt lat="42.2776510" lon="1.7015710">
        <ele>2416.0</ele>
        <time>2015-08-13T16:51:07Z</time>
      </trkpt>
      <trkpt lat="42.2776420" lon="1.7015090">
        <ele>2415.9</ele>
        <time>2015-08-13T16:51:09Z</time>
      </trkpt>
      <trkpt lat="42.2776330" lon="1.7014380">
        <ele>2415.9</ele>
        <time>2015-08-13T16:51:11Z</time>
      </trkpt>
      <trkpt lat="42.2776160" lon="1.7013800">
        <ele>2415.8</ele>
        <time>2015-08-13T16:51:13Z</time>
      </trkpt>
      <trkpt lat="42.2776050" lon="1.7013430">
        <ele>2415.7</ele>
        <time>2015-08-13T16:51:14Z</time>
      </trkpt>
      <trkpt lat="42.2775900" lon="1.7013080">
        <ele>2415.5</ele>
        <time>2015-08-13T16:51:15Z</time>
      </trkpt>
      <trkpt lat="42.2775600" lon="1.7012470">
        <ele>2415.1</ele>
        <time>2015-08-13T16:51:17Z</time>
      </trkpt>
      <trkpt lat="42.2775430" lon="1.7011910">
        <ele>2414.6</ele>
        <time>2015-08-13T16:51:19Z</time>
      </trkpt>
      <trkpt lat="42.2775430" lon="1.7011300">
        <ele>2414.4</ele>
        <time>2015-08-13T16:51:21Z</time>
      </trkpt>
      <trkpt lat="42.2775470" lon="1.7010900">
        <ele>2414.3</ele>
        <time>2015-08-13T16:51:22Z</time>
      </trkpt>
      <trkpt lat="42.2775500" lon="1.7010500">
        <ele>2414.2</ele>
        <time>2015-08-13T16:51:23Z</time>
      </trkpt>
      <trkpt lat="42.2775520" lon="1.7010060">
        <ele>2414.1</ele>
        <time>2015-08-13T16:51:24Z</time>
      </trkpt>
      <trkpt lat="42.2775520" lon="1.7009590">
        <ele>2413.9</ele>
        <time>2015-08-13T16:51:25Z</time>
      </trkpt>
      <trkpt lat="42.2775260" lon="1.7009050">
        <ele>2413.3</ele>
        <time>2015-08-13T16:51:27Z</time>
      </trkpt>
      <trkpt lat="42.2775180" lon="1.7008600">
        <ele>2413.1</ele>
        <time>2015-08-13T16:51:29Z</time>
      </trkpt>
      <trkpt lat="42.2775190" lon="1.7008180">
        <ele>2412.9</ele>
        <time>2015-08-13T16:51:31Z</time>
      </trkpt>
      <trkpt lat="42.2775050" lon="1.7007600">
        <ele>2412.6</ele>
        <time>2015-08-13T16:51:33Z</time>
      </trkpt>
      <trkpt lat="42.2774830" lon="1.7007260">
        <ele>2412.2</ele>
        <time>2015-08-13T16:51:35Z</time>
      </trkpt>
      <trkpt lat="42.2774650" lon="1.7006900">
        <ele>2412.0</ele>
        <time>2015-08-13T16:51:42Z</time>
      </trkpt>
      <trkpt lat="42.2774370" lon="1.7006800">
        <ele>2411.6</ele>
        <time>2015-08-13T16:51:46Z</time>
      </trkpt>
      <trkpt lat="42.2774310" lon="1.7006360">
        <ele>2411.5</ele>
        <time>2015-08-13T16:51:51Z</time>
      </trkpt>
      <trkpt lat="42.2774110" lon="1.7005960">
        <ele>2411.3</ele>
        <time>2015-08-13T16:51:58Z</time>
      </trkpt>
      <trkpt lat="42.2773940" lon="1.7005510">
        <ele>2411.0</ele>
        <time>2015-08-13T16:52:09Z</time>
      </trkpt>
      <trkpt lat="42.2773840" lon="1.7004760">
        <ele>2410.9</ele>
        <time>2015-08-13T16:52:11Z</time>
      </trkpt>
      <trkpt lat="42.2773850" lon="1.7004250">
        <ele>2410.8</ele>
        <time>2015-08-13T16:52:12Z</time>
      </trkpt>
      <trkpt lat="42.2773810" lon="1.7003790">
        <ele>2410.9</ele>
        <time>2015-08-13T16:52:13Z</time>
      </trkpt>
      <trkpt lat="42.2773610" lon="1.7003320">
        <ele>2410.9</ele>
        <time>2015-08-13T16:52:14Z</time>
      </trkpt>
      <trkpt lat="42.2773530" lon="1.7002870">
        <ele>2411.0</ele>
        <time>2015-08-13T16:52:15Z</time>
      </trkpt>
      <trkpt lat="42.2773360" lon="1.7002530">
        <ele>2411.0</ele>
        <time>2015-08-13T16:52:16Z</time>
      </trkpt>
      <trkpt lat="42.2773160" lon="1.7001980">
        <ele>2411.1</ele>
        <time>2015-08-13T16:52:18Z</time>
      </trkpt>
      <trkpt lat="42.2773010" lon="1.7001670">
        <ele>2411.2</ele>
        <time>2015-08-13T16:52:20Z</time>
      </trkpt>
      <trkpt lat="42.2772710" lon="1.7001370">
        <ele>2411.2</ele>
        <time>2015-08-13T16:52:22Z</time>
      </trkpt>
      <trkpt lat="42.2772630" lon="1.7000990">
        <ele>2411.3</ele>
        <time>2015-08-13T16:52:23Z</time>
      </trkpt>
      <trkpt lat="42.2772540" lon="1.7000610">
        <ele>2411.5</ele>
        <time>2015-08-13T16:52:24Z</time>
      </trkpt>
      <trkpt lat="42.2772290" lon="1.7000320">
        <ele>2411.5</ele>
        <time>2015-08-13T16:52:25Z</time>
      </trkpt>
      <trkpt lat="42.2772030" lon="1.7000200">
        <ele>2411.6</ele>
        <time>2015-08-13T16:52:26Z</time>
      </trkpt>
      <trkpt lat="42.2772050" lon="1.6999770">
        <ele>2411.8</ele>
        <time>2015-08-13T16:52:27Z</time>
      </trkpt>
      <trkpt lat="42.2772030" lon="1.6999190">
        <ele>2412.0</ele>
        <time>2015-08-13T16:52:29Z</time>
      </trkpt>
      <trkpt lat="42.2771810" lon="1.6998800">
        <ele>2412.2</ele>
        <time>2015-08-13T16:52:31Z</time>
      </trkpt>
      <trkpt lat="42.2771640" lon="1.6998140">
        <ele>2412.5</ele>
        <time>2015-08-13T16:52:44Z</time>
      </trkpt>
      <trkpt lat="42.2771470" lon="1.6997630">
        <ele>2412.8</ele>
        <time>2015-08-13T16:52:46Z</time>
      </trkpt>
      <trkpt lat="42.2771340" lon="1.6997180">
        <ele>2413.1</ele>
        <time>2015-08-13T16:52:48Z</time>
      </trkpt>
      <trkpt lat="42.2771560" lon="1.6996790">
        <ele>2413.2</ele>
        <time>2015-08-13T16:52:50Z</time>
      </trkpt>
      <trkpt lat="42.2771650" lon="1.6996400">
        <ele>2413.4</ele>
        <time>2015-08-13T16:52:52Z</time>
      </trkpt>
      <trkpt lat="42.2771730" lon="1.6996030">
        <ele>2413.6</ele>
        <time>2015-08-13T16:52:53Z</time>
      </trkpt>
      <trkpt lat="42.2771720" lon="1.6995640">
        <ele>2413.6</ele>
        <time>2015-08-13T16:52:54Z</time>
      </trkpt>
      <trkpt lat="42.2771730" lon="1.6995280">
        <ele>2413.4</ele>
        <time>2015-08-13T16:52:55Z</time>
      </trkpt>
      <trkpt lat="42.2771700" lon="1.6994810">
        <ele>2413.2</ele>
        <time>2015-08-13T16:52:56Z</time>
      </trkpt>
      <trkpt lat="42.2771600" lon="1.6994410">
        <ele>2413.1</ele>
        <time>2015-08-13T16:52:57Z</time>
      </trkpt>
      <trkpt lat="42.2771610" lon="1.6994010">
        <ele>2412.9</ele>
        <time>2015-08-13T16:52:58Z</time>
      </trkpt>
      <trkpt lat="42.2771530" lon="1.6993480">
        <ele>2412.7</ele>
        <time>2015-08-13T16:53:00Z</time>
      </trkpt>
      <trkpt lat="42.2771430" lon="1.6993060">
        <ele>2412.5</ele>
        <time>2015-08-13T16:53:02Z</time>
      </trkpt>
      <trkpt lat="42.2771270" lon="1.6992580">
        <ele>2412.5</ele>
        <time>2015-08-13T16:53:04Z</time>
      </trkpt>
      <trkpt lat="42.2771160" lon="1.6992050">
        <ele>2412.3</ele>
        <time>2015-08-13T16:53:06Z</time>
      </trkpt>
      <trkpt lat="42.2771000" lon="1.6991660">
        <ele>2412.3</ele>
        <time>2015-08-13T16:53:08Z</time>
      </trkpt>
      <trkpt lat="42.2770760" lon="1.6991400">
        <ele>2412.0</ele>
        <time>2015-08-13T16:53:20Z</time>
      </trkpt>
      <trkpt lat="42.2770730" lon="1.6990920">
        <ele>2411.6</ele>
        <time>2015-08-13T16:53:23Z</time>
      </trkpt>
      <trkpt lat="42.2770700" lon="1.6990490">
        <ele>2411.3</ele>
        <time>2015-08-13T16:53:25Z</time>
      </trkpt>
      <trkpt lat="42.2770650" lon="1.6990050">
        <ele>2410.9</ele>
        <time>2015-08-13T16:53:28Z</time>
      </trkpt>
      <trkpt lat="42.2770660" lon="1.6989630">
        <ele>2410.8</ele>
        <time>2015-08-13T16:53:31Z</time>
      </trkpt>
      <trkpt lat="42.2770640" lon="1.6989200">
        <ele>2410.5</ele>
        <time>2015-08-13T16:53:33Z</time>
      </trkpt>
      <trkpt lat="42.2770740" lon="1.6988660">
        <ele>2410.9</ele>
        <time>2015-08-13T16:54:35Z</time>
      </trkpt>
      <trkpt lat="42.2770720" lon="1.6988280">
        <ele>2410.6</ele>
        <time>2015-08-13T16:54:37Z</time>
      </trkpt>
      <trkpt lat="42.2770570" lon="1.6987790">
        <ele>2409.6</ele>
        <time>2015-08-13T16:54:40Z</time>
      </trkpt>
      <trkpt lat="42.2770620" lon="1.6987430">
        <ele>2409.7</ele>
        <time>2015-08-13T16:54:44Z</time>
      </trkpt>
      <trkpt lat="42.2770700" lon="1.6986950">
        <ele>2409.7</ele>
        <time>2015-08-13T16:54:48Z</time>
      </trkpt>
      <trkpt lat="42.2770500" lon="1.6986570">
        <ele>2408.2</ele>
        <time>2015-08-13T16:54:52Z</time>
      </trkpt>
      <trkpt lat="42.2770450" lon="1.6986170">
        <ele>2407.5</ele>
        <time>2015-08-13T16:54:56Z</time>
      </trkpt>
      <trkpt lat="42.2770310" lon="1.6985800">
        <ele>2406.4</ele>
        <time>2015-08-13T16:55:00Z</time>
      </trkpt>
      <trkpt lat="42.2770230" lon="1.6985350">
        <ele>2405.5</ele>
        <time>2015-08-13T16:55:03Z</time>
      </trkpt>
      <trkpt lat="42.2770060" lon="1.6985060">
        <ele>2404.4</ele>
        <time>2015-08-13T16:55:10Z</time>
      </trkpt>
      <trkpt lat="42.2769840" lon="1.6984780">
        <ele>2403.0</ele>
        <time>2015-08-13T16:55:13Z</time>
      </trkpt>
      <trkpt lat="42.2769560" lon="1.6984620">
        <ele>2401.4</ele>
        <time>2015-08-13T16:55:17Z</time>
      </trkpt>
      <trkpt lat="42.2769340" lon="1.6984320">
        <ele>2400.0</ele>
        <time>2015-08-13T16:55:21Z</time>
      </trkpt>
      <trkpt lat="42.2769290" lon="1.6983850">
        <ele>2399.3</ele>
        <time>2015-08-13T16:55:29Z</time>
      </trkpt>
      <trkpt lat="42.2769110" lon="1.6983490">
        <ele>2398.2</ele>
        <time>2015-08-13T16:55:34Z</time>
      </trkpt>
      <trkpt lat="42.2769200" lon="1.6982850">
        <ele>2398.1</ele>
        <time>2015-08-13T16:55:50Z</time>
      </trkpt>
      <trkpt lat="42.2769260" lon="1.6982490">
        <ele>2398.0</ele>
        <time>2015-08-13T16:55:51Z</time>
      </trkpt>
      <trkpt lat="42.2769230" lon="1.6982010">
        <ele>2397.5</ele>
        <time>2015-08-13T16:55:52Z</time>
      </trkpt>
      <trkpt lat="42.2769210" lon="1.6981580">
        <ele>2397.0</ele>
        <time>2015-08-13T16:55:53Z</time>
      </trkpt>
      <trkpt lat="42.2769210" lon="1.6981120">
        <ele>2396.6</ele>
        <time>2015-08-13T16:55:54Z</time>
      </trkpt>
      <trkpt lat="42.2769290" lon="1.6980620">
        <ele>2396.6</ele>
        <time>2015-08-13T16:55:55Z</time>
      </trkpt>
      <trkpt lat="42.2769350" lon="1.6980080">
        <ele>2396.4</ele>
        <time>2015-08-13T16:55:56Z</time>
      </trkpt>
      <trkpt lat="42.2769400" lon="1.6979550">
        <ele>2396.1</ele>
        <time>2015-08-13T16:55:57Z</time>
      </trkpt>
      <trkpt lat="42.2769360" lon="1.6978990">
        <ele>2395.6</ele>
        <time>2015-08-13T16:55:58Z</time>
      </trkpt>
      <trkpt lat="42.2769340" lon="1.6978330">
        <ele>2395.2</ele>
        <time>2015-08-13T16:55:59Z</time>
      </trkpt>
      <trkpt lat="42.2769370" lon="1.6977730">
        <ele>2395.0</ele>
        <time>2015-08-13T16:56:00Z</time>
      </trkpt>
      <trkpt lat="42.2769470" lon="1.6977170">
        <ele>2395.2</ele>
        <time>2015-08-13T16:56:01Z</time>
      </trkpt>
      <trkpt lat="42.2769500" lon="1.6976710">
        <ele>2395.1</ele>
        <time>2015-08-13T16:56:02Z</time>
      </trkpt>
      <trkpt lat="42.2769310" lon="1.6976280">
        <ele>2394.1</ele>
        <time>2015-08-13T16:56:04Z</time>
      </trkpt>
      <trkpt lat="42.2769090" lon="1.6975910">
        <ele>2393.0</ele>
        <time>2015-08-13T16:56:06Z</time>
      </trkpt>
      <trkpt lat="42.2768880" lon="1.6975620">
        <ele>2392.0</ele>
        <time>2015-08-13T16:56:14Z</time>
      </trkpt>
      <trkpt lat="42.2768680" lon="1.6975380">
        <ele>2391.0</ele>
        <time>2015-08-13T16:56:18Z</time>
      </trkpt>
      <trkpt lat="42.2768460" lon="1.6975110">
        <ele>2389.9</ele>
        <time>2015-08-13T16:56:23Z</time>
      </trkpt>
      <trkpt lat="42.2768100" lon="1.6975310">
        <ele>2388.5</ele>
        <time>2015-08-13T16:56:38Z</time>
      </trkpt>
      <trkpt lat="42.2767900" lon="1.6975600">
        <ele>2387.8</ele>
        <time>2015-08-13T16:56:43Z</time>
      </trkpt>
      <trkpt lat="42.2767650" lon="1.6975760">
        <ele>2386.8</ele>
        <time>2015-08-13T16:56:52Z</time>
      </trkpt>
      <trkpt lat="42.2767360" lon="1.6975650">
        <ele>2385.5</ele>
        <time>2015-08-13T16:57:00Z</time>
      </trkpt>
      <trkpt lat="42.2767220" lon="1.6976080">
        <ele>2385.1</ele>
        <time>2015-08-13T16:57:03Z</time>
      </trkpt>
      <trkpt lat="42.2767060" lon="1.6976390">
        <ele>2384.5</ele>
        <time>2015-08-13T16:57:34Z</time>
      </trkpt>
      <trkpt lat="42.2766790" lon="1.6976550">
        <ele>2383.4</ele>
        <time>2015-08-13T16:58:57Z</time>
      </trkpt>
      <trkpt lat="42.2766520" lon="1.6976540">
        <ele>2382.3</ele>
        <time>2015-08-13T16:59:06Z</time>
      </trkpt>
      <trkpt lat="42.2766770" lon="1.6976700">
        <ele>2383.4</ele>
        <time>2015-08-13T16:59:57Z</time>
      </trkpt>
      <trkpt lat="42.2767020" lon="1.6976950">
        <ele>2384.6</ele>
        <time>2015-08-13T17:00:01Z</time>
      </trkpt>
      <trkpt lat="42.2767270" lon="1.6977120">
        <ele>2385.7</ele>
        <time>2015-08-13T17:00:07Z</time>
      </trkpt>
      <trkpt lat="42.2767060" lon="1.6976840">
        <ele>2384.7</ele>
        <time>2015-08-13T17:01:25Z</time>
      </trkpt>
      <trkpt lat="42.2766810" lon="1.6976580">
        <ele>2383.5</ele>
        <time>2015-08-13T17:01:27Z</time>
      </trkpt>
      <trkpt lat="42.2766730" lon="1.6976180">
        <ele>2383.0</ele>
        <time>2015-08-13T17:01:29Z</time>
      </trkpt>
      <trkpt lat="42.2766620" lon="1.6975760">
        <ele>2382.4</ele>
        <time>2015-08-13T17:01:32Z</time>
      </trkpt>
      <trkpt lat="42.2766500" lon="1.6975240">
        <ele>2381.6</ele>
        <time>2015-08-13T17:02:21Z</time>
      </trkpt>
      <trkpt lat="42.2766230" lon="1.6974920">
        <ele>2380.4</ele>
        <time>2015-08-13T17:02:23Z</time>
      </trkpt>
      <trkpt lat="42.2766130" lon="1.6974520">
        <ele>2379.8</ele>
        <time>2015-08-13T17:02:24Z</time>
      </trkpt>
      <trkpt lat="42.2765970" lon="1.6973940">
        <ele>2378.8</ele>
        <time>2015-08-13T17:02:27Z</time>
      </trkpt>
      <trkpt lat="42.2765540" lon="1.6973670">
        <ele>2376.9</ele>
        <time>2015-08-13T17:02:29Z</time>
      </trkpt>
      <trkpt lat="42.2765200" lon="1.6973160">
        <ele>2375.3</ele>
        <time>2015-08-13T17:02:31Z</time>
      </trkpt>
      <trkpt lat="42.2764960" lon="1.6972490">
        <ele>2374.0</ele>
        <time>2015-08-13T17:02:33Z</time>
      </trkpt>
      <trkpt lat="42.2764810" lon="1.6972120">
        <ele>2373.2</ele>
        <time>2015-08-13T17:02:34Z</time>
      </trkpt>
      <trkpt lat="42.2764660" lon="1.6971810">
        <ele>2372.5</ele>
        <time>2015-08-13T17:02:35Z</time>
      </trkpt>
      <trkpt lat="42.2764540" lon="1.6971310">
        <ele>2371.8</ele>
        <time>2015-08-13T17:02:36Z</time>
      </trkpt>
      <trkpt lat="42.2764290" lon="1.6970530">
        <ele>2370.5</ele>
        <time>2015-08-13T17:02:38Z</time>
      </trkpt>
      <trkpt lat="42.2764130" lon="1.6970080">
        <ele>2369.7</ele>
        <time>2015-08-13T17:02:39Z</time>
      </trkpt>
      <trkpt lat="42.2763920" lon="1.6969610">
        <ele>2368.7</ele>
        <time>2015-08-13T17:02:40Z</time>
      </trkpt>
      <trkpt lat="42.2763710" lon="1.6969190">
        <ele>2367.8</ele>
        <time>2015-08-13T17:02:41Z</time>
      </trkpt>
      <trkpt lat="42.2763450" lon="1.6968720">
        <ele>2366.6</ele>
        <time>2015-08-13T17:02:42Z</time>
      </trkpt>
      <trkpt lat="42.2763210" lon="1.6968030">
        <ele>2365.6</ele>
        <time>2015-08-13T17:02:43Z</time>
      </trkpt>
      <trkpt lat="42.2762990" lon="1.6967340">
        <ele>2364.6</ele>
        <time>2015-08-13T17:02:44Z</time>
      </trkpt>
      <trkpt lat="42.2762780" lon="1.6966670">
        <ele>2363.6</ele>
        <time>2015-08-13T17:02:45Z</time>
      </trkpt>
      <trkpt lat="42.2762550" lon="1.6965920">
        <ele>2362.6</ele>
        <time>2015-08-13T17:02:46Z</time>
      </trkpt>
      <trkpt lat="42.2762380" lon="1.6965150">
        <ele>2361.7</ele>
        <time>2015-08-13T17:02:47Z</time>
      </trkpt>
      <trkpt lat="42.2762220" lon="1.6964520">
        <ele>2360.9</ele>
        <time>2015-08-13T17:02:48Z</time>
      </trkpt>
      <trkpt lat="42.2762020" lon="1.6964000">
        <ele>2359.8</ele>
        <time>2015-08-13T17:02:49Z</time>
      </trkpt>
      <trkpt lat="42.2761740" lon="1.6963560">
        <ele>2358.4</ele>
        <time>2015-08-13T17:02:50Z</time>
      </trkpt>
      <trkpt lat="42.2761530" lon="1.6962950">
        <ele>2357.4</ele>
        <time>2015-08-13T17:02:51Z</time>
      </trkpt>
      <trkpt lat="42.2761300" lon="1.6962430">
        <ele>2356.2</ele>
        <time>2015-08-13T17:02:52Z</time>
      </trkpt>
      <trkpt lat="42.2761130" lon="1.6961890">
        <ele>2355.1</ele>
        <time>2015-08-13T17:02:53Z</time>
      </trkpt>
      <trkpt lat="42.2760970" lon="1.6961390">
        <ele>2354.1</ele>
        <time>2015-08-13T17:02:54Z</time>
      </trkpt>
      <trkpt lat="42.2760720" lon="1.6961150">
        <ele>2352.8</ele>
        <time>2015-08-13T17:02:55Z</time>
      </trkpt>
      <trkpt lat="42.2760430" lon="1.6960810">
        <ele>2351.3</ele>
        <time>2015-08-13T17:02:56Z</time>
      </trkpt>
      <trkpt lat="42.2760140" lon="1.6960230">
        <ele>2349.7</ele>
        <time>2015-08-13T17:02:57Z</time>
      </trkpt>
      <trkpt lat="42.2759940" lon="1.6959640">
        <ele>2348.6</ele>
        <time>2015-08-13T17:02:58Z</time>
      </trkpt>
      <trkpt lat="42.2759800" lon="1.6958860">
        <ele>2347.7</ele>
        <time>2015-08-13T17:02:59Z</time>
      </trkpt>
      <trkpt lat="42.2759760" lon="1.6958180">
        <ele>2347.3</ele>
        <time>2015-08-13T17:03:00Z</time>
      </trkpt>
      <trkpt lat="42.2759640" lon="1.6957420">
        <ele>2346.5</ele>
        <time>2015-08-13T17:03:01Z</time>
      </trkpt>
      <trkpt lat="42.2759450" lon="1.6956870">
        <ele>2345.5</ele>
        <time>2015-08-13T17:03:02Z</time>
      </trkpt>
      <trkpt lat="42.2759240" lon="1.6956110">
        <ele>2344.5</ele>
        <time>2015-08-13T17:03:03Z</time>
      </trkpt>
      <trkpt lat="42.2759060" lon="1.6955450">
        <ele>2343.6</ele>
        <time>2015-08-13T17:03:04Z</time>
      </trkpt>
      <trkpt lat="42.2758740" lon="1.6954610">
        <ele>2342.1</ele>
        <time>2015-08-13T17:03:05Z</time>
      </trkpt>
      <trkpt lat="42.2758500" lon="1.6953810">
        <ele>2340.9</ele>
        <time>2015-08-13T17:03:06Z</time>
      </trkpt>
      <trkpt lat="42.2758350" lon="1.6952930">
        <ele>2339.8</ele>
        <time>2015-08-13T17:03:07Z</time>
      </trkpt>
      <trkpt lat="42.2758180" lon="1.6952140">
        <ele>2338.7</ele>
        <time>2015-08-13T17:03:08Z</time>
      </trkpt>
      <trkpt lat="42.2758050" lon="1.6951380">
        <ele>2337.9</ele>
        <time>2015-08-13T17:03:09Z</time>
      </trkpt>
      <trkpt lat="42.2757690" lon="1.6950820">
        <ele>2336.3</ele>
        <time>2015-08-13T17:03:10Z</time>
      </trkpt>
      <trkpt lat="42.2757450" lon="1.6950090">
        <ele>2335.2</ele>
        <time>2015-08-13T17:03:11Z</time>
      </trkpt>
      <trkpt lat="42.2757160" lon="1.6949210">
        <ele>2333.8</ele>
        <time>2015-08-13T17:03:12Z</time>
      </trkpt>
      <trkpt lat="42.2756910" lon="1.6948250">
        <ele>2332.6</ele>
        <time>2015-08-13T17:03:13Z</time>
      </trkpt>
      <trkpt lat="42.2756680" lon="1.6947260">
        <ele>2331.5</ele>
        <time>2015-08-13T17:03:14Z</time>
      </trkpt>
      <trkpt lat="42.2756620" lon="1.6946240">
        <ele>2330.9</ele>
        <time>2015-08-13T17:03:15Z</time>
      </trkpt>
      <trkpt lat="42.2756480" lon="1.6945250">
        <ele>2330.2</ele>
        <time>2015-08-13T17:03:16Z</time>
      </trkpt>
      <trkpt lat="42.2756470" lon="1.6944230">
        <ele>2329.8</ele>
        <time>2015-08-13T17:03:17Z</time>
      </trkpt>
      <trkpt lat="42.2756500" lon="1.6943370">
        <ele>2329.6</ele>
        <time>2015-08-13T17:03:18Z</time>
      </trkpt>
      <trkpt lat="42.2756330" lon="1.6942690">
        <ele>2328.9</ele>
        <time>2015-08-13T17:03:19Z</time>
      </trkpt>
      <trkpt lat="42.2756110" lon="1.6942070">
        <ele>2328.2</ele>
        <time>2015-08-13T17:03:20Z</time>
      </trkpt>
      <trkpt lat="42.2756050" lon="1.6941350">
        <ele>2327.8</ele>
        <time>2015-08-13T17:03:21Z</time>
      </trkpt>
      <trkpt lat="42.2755960" lon="1.6940570">
        <ele>2327.4</ele>
        <time>2015-08-13T17:03:22Z</time>
      </trkpt>
      <trkpt lat="42.2755890" lon="1.6939800">
        <ele>2327.0</ele>
        <time>2015-08-13T17:03:23Z</time>
      </trkpt>
      <trkpt lat="42.2756000" lon="1.6938860">
        <ele>2326.9</ele>
        <time>2015-08-13T17:03:24Z</time>
      </trkpt>
      <trkpt lat="42.2756020" lon="1.6938090">
        <ele>2326.7</ele>
        <time>2015-08-13T17:03:25Z</time>
      </trkpt>
      <trkpt lat="42.2756000" lon="1.6937330">
        <ele>2326.4</ele>
        <time>2015-08-13T17:03:26Z</time>
      </trkpt>
      <trkpt lat="42.2755800" lon="1.6936570">
        <ele>2325.8</ele>
        <time>2015-08-13T17:03:27Z</time>
      </trkpt>
      <trkpt lat="42.2755540" lon="1.6935830">
        <ele>2325.0</ele>
        <time>2015-08-13T17:03:28Z</time>
      </trkpt>
      <trkpt lat="42.2755320" lon="1.6934900">
        <ele>2324.2</ele>
        <time>2015-08-13T17:03:29Z</time>
      </trkpt>
      <trkpt lat="42.2755040" lon="1.6934100">
        <ele>2323.4</ele>
        <time>2015-08-13T17:03:30Z</time>
      </trkpt>
      <trkpt lat="42.2754940" lon="1.6933100">
        <ele>2322.8</ele>
        <time>2015-08-13T17:03:31Z</time>
      </trkpt>
      <trkpt lat="42.2754920" lon="1.6932050">
        <ele>2322.4</ele>
        <time>2015-08-13T17:03:32Z</time>
      </trkpt>
      <trkpt lat="42.2755000" lon="1.6931010">
        <ele>2322.1</ele>
        <time>2015-08-13T17:03:33Z</time>
      </trkpt>
      <trkpt lat="42.2754980" lon="1.6930020">
        <ele>2321.7</ele>
        <time>2015-08-13T17:03:34Z</time>
      </trkpt>
      <trkpt lat="42.2754930" lon="1.6929220">
        <ele>2321.3</ele>
        <time>2015-08-13T17:03:35Z</time>
      </trkpt>
      <trkpt lat="42.2754800" lon="1.6928280">
        <ele>2320.5</ele>
        <time>2015-08-13T17:03:36Z</time>
      </trkpt>
      <trkpt lat="42.2754670" lon="1.6927240">
        <ele>2319.7</ele>
        <time>2015-08-13T17:03:37Z</time>
      </trkpt>
      <trkpt lat="42.2754600" lon="1.6926290">
        <ele>2319.0</ele>
        <time>2015-08-13T17:03:38Z</time>
      </trkpt>
      <trkpt lat="42.2754520" lon="1.6925220">
        <ele>2318.2</ele>
        <time>2015-08-13T17:03:39Z</time>
      </trkpt>
      <trkpt lat="42.2754410" lon="1.6924440">
        <ele>2317.6</ele>
        <time>2015-08-13T17:03:40Z</time>
      </trkpt>
      <trkpt lat="42.2754340" lon="1.6923480">
        <ele>2316.9</ele>
        <time>2015-08-13T17:03:41Z</time>
      </trkpt>
      <trkpt lat="42.2754350" lon="1.6922610">
        <ele>2316.4</ele>
        <time>2015-08-13T17:03:42Z</time>
      </trkpt>
      <trkpt lat="42.2754450" lon="1.6921740">
        <ele>2316.0</ele>
        <time>2015-08-13T17:03:43Z</time>
      </trkpt>
      <trkpt lat="42.2754440" lon="1.6920730">
        <ele>2315.4</ele>
        <time>2015-08-13T17:03:44Z</time>
      </trkpt>
      <trkpt lat="42.2754380" lon="1.6919690">
        <ele>2314.6</ele>
        <time>2015-08-13T17:03:45Z</time>
      </trkpt>
      <trkpt lat="42.2754410" lon="1.6918520">
        <ele>2314.0</ele>
        <time>2015-08-13T17:03:46Z</time>
      </trkpt>
      <trkpt lat="42.2754390" lon="1.6917470">
        <ele>2313.3</ele>
        <time>2015-08-13T17:03:47Z</time>
      </trkpt>
      <trkpt lat="42.2754300" lon="1.6916330">
        <ele>2312.5</ele>
        <time>2015-08-13T17:03:48Z</time>
      </trkpt>
      <trkpt lat="42.2754300" lon="1.6915200">
        <ele>2311.8</ele>
        <time>2015-08-13T17:03:49Z</time>
      </trkpt>
      <trkpt lat="42.2754050" lon="1.6914030">
        <ele>2310.7</ele>
        <time>2015-08-13T17:03:50Z</time>
      </trkpt>
      <trkpt lat="42.2753880" lon="1.6912980">
        <ele>2309.9</ele>
        <time>2015-08-13T17:03:51Z</time>
      </trkpt>
      <trkpt lat="42.2753550" lon="1.6911840">
        <ele>2308.4</ele>
        <time>2015-08-13T17:03:52Z</time>
      </trkpt>
      <trkpt lat="42.2753140" lon="1.6910700">
        <ele>2306.8</ele>
        <time>2015-08-13T17:03:53Z</time>
      </trkpt>
      <trkpt lat="42.2752650" lon="1.6909510">
        <ele>2305.1</ele>
        <time>2015-08-13T17:03:54Z</time>
      </trkpt>
      <trkpt lat="42.2752240" lon="1.6908430">
        <ele>2303.7</ele>
        <time>2015-08-13T17:03:55Z</time>
      </trkpt>
      <trkpt lat="42.2752150" lon="1.6907100">
        <ele>2302.5</ele>
        <time>2015-08-13T17:03:56Z</time>
      </trkpt>
      <trkpt lat="42.2752240" lon="1.6905900">
        <ele>2301.6</ele>
        <time>2015-08-13T17:03:57Z</time>
      </trkpt>
      <trkpt lat="42.2752300" lon="1.6904690">
        <ele>2300.6</ele>
        <time>2015-08-13T17:03:58Z</time>
      </trkpt>
      <trkpt lat="42.2752360" lon="1.6903590">
        <ele>2300.0</ele>
        <time>2015-08-13T17:03:59Z</time>
      </trkpt>
      <trkpt lat="42.2752290" lon="1.6902430">
        <ele>2299.7</ele>
        <time>2015-08-13T17:04:00Z</time>
      </trkpt>
      <trkpt lat="42.2752010" lon="1.6900950">
        <ele>2299.2</ele>
        <time>2015-08-13T17:04:01Z</time>
      </trkpt>
      <trkpt lat="42.2751990" lon="1.6899680">
        <ele>2298.9</ele>
        <time>2015-08-13T17:04:02Z</time>
      </trkpt>
      <trkpt lat="42.2752030" lon="1.6898500">
        <ele>2298.6</ele>
        <time>2015-08-13T17:04:03Z</time>
      </trkpt>
      <trkpt lat="42.2751830" lon="1.6897070">
        <ele>2298.3</ele>
        <time>2015-08-13T17:04:04Z</time>
      </trkpt>
      <trkpt lat="42.2751850" lon="1.6896370">
        <ele>2298.1</ele>
        <time>2015-08-13T17:04:05Z</time>
      </trkpt>
      <trkpt lat="42.2751720" lon="1.6895440">
        <ele>2297.6</ele>
        <time>2015-08-13T17:04:06Z</time>
      </trkpt>
      <trkpt lat="42.2751710" lon="1.6894910">
        <ele>2297.2</ele>
        <time>2015-08-13T17:04:07Z</time>
      </trkpt>
      <trkpt lat="42.2751620" lon="1.6894390">
        <ele>2296.7</ele>
        <time>2015-08-13T17:04:08Z</time>
      </trkpt>
      <trkpt lat="42.2751540" lon="1.6894030">
        <ele>2296.4</ele>
        <time>2015-08-13T17:04:09Z</time>
      </trkpt>
      <trkpt lat="42.2751260" lon="1.6893740">
        <ele>2296.1</ele>
        <time>2015-08-13T17:04:18Z</time>
      </trkpt>
      <trkpt lat="42.2751540" lon="1.6893960">
        <ele>2296.3</ele>
        <time>2015-08-13T17:04:20Z</time>
      </trkpt>
      <trkpt lat="42.2751810" lon="1.6893880">
        <ele>2296.3</ele>
        <time>2015-08-13T17:04:35Z</time>
      </trkpt>
      <trkpt lat="42.2751830" lon="1.6893350">
        <ele>2295.8</ele>
        <time>2015-08-13T17:05:43Z</time>
      </trkpt>
      <trkpt lat="42.2751750" lon="1.6892970">
        <ele>2295.4</ele>
        <time>2015-08-13T17:05:44Z</time>
      </trkpt>
      <trkpt lat="42.2751770" lon="1.6892600">
        <ele>2295.1</ele>
        <time>2015-08-13T17:05:45Z</time>
      </trkpt>
      <trkpt lat="42.2751760" lon="1.6892220">
        <ele>2294.8</ele>
        <time>2015-08-13T17:05:46Z</time>
      </trkpt>
      <trkpt lat="42.2751790" lon="1.6891710">
        <ele>2294.3</ele>
        <time>2015-08-13T17:05:47Z</time>
      </trkpt>
      <trkpt lat="42.2751780" lon="1.6891260">
        <ele>2293.9</ele>
        <time>2015-08-13T17:05:48Z</time>
      </trkpt>
      <trkpt lat="42.2751790" lon="1.6890790">
        <ele>2293.5</ele>
        <time>2015-08-13T17:05:49Z</time>
      </trkpt>
      <trkpt lat="42.2751810" lon="1.6890320">
        <ele>2293.1</ele>
        <time>2015-08-13T17:05:50Z</time>
      </trkpt>
      <trkpt lat="42.2751830" lon="1.6889880">
        <ele>2292.7</ele>
        <time>2015-08-13T17:05:51Z</time>
      </trkpt>
      <trkpt lat="42.2751760" lon="1.6888690">
        <ele>2291.6</ele>
        <time>2015-08-13T17:05:53Z</time>
      </trkpt>
      <trkpt lat="42.2751810" lon="1.6888180">
        <ele>2291.2</ele>
        <time>2015-08-13T17:05:54Z</time>
      </trkpt>
      <trkpt lat="42.2751710" lon="1.6887520">
        <ele>2290.5</ele>
        <time>2015-08-13T17:05:55Z</time>
      </trkpt>
      <trkpt lat="42.2751590" lon="1.6886830">
        <ele>2289.6</ele>
        <time>2015-08-13T17:05:56Z</time>
      </trkpt>
      <trkpt lat="42.2751480" lon="1.6886120">
        <ele>2288.6</ele>
        <time>2015-08-13T17:05:57Z</time>
      </trkpt>
      <trkpt lat="42.2751480" lon="1.6885180">
        <ele>2287.4</ele>
        <time>2015-08-13T17:05:58Z</time>
      </trkpt>
      <trkpt lat="42.2751440" lon="1.6884300">
        <ele>2286.3</ele>
        <time>2015-08-13T17:05:59Z</time>
      </trkpt>
      <trkpt lat="42.2751370" lon="1.6883470">
        <ele>2285.2</ele>
        <time>2015-08-13T17:06:00Z</time>
      </trkpt>
      <trkpt lat="42.2751220" lon="1.6882490">
        <ele>2283.8</ele>
        <time>2015-08-13T17:06:01Z</time>
      </trkpt>
      <trkpt lat="42.2751150" lon="1.6881520">
        <ele>2282.5</ele>
        <time>2015-08-13T17:06:02Z</time>
      </trkpt>
      <trkpt lat="42.2751200" lon="1.6880540">
        <ele>2281.3</ele>
        <time>2015-08-13T17:06:03Z</time>
      </trkpt>
      <trkpt lat="42.2751320" lon="1.6879590">
        <ele>2280.2</ele>
        <time>2015-08-13T17:06:04Z</time>
      </trkpt>
      <trkpt lat="42.2751270" lon="1.6878480">
        <ele>2279.0</ele>
        <time>2015-08-13T17:06:05Z</time>
      </trkpt>
      <trkpt lat="42.2751060" lon="1.6877330">
        <ele>2277.9</ele>
        <time>2015-08-13T17:06:06Z</time>
      </trkpt>
      <trkpt lat="42.2750890" lon="1.6876210">
        <ele>2276.9</ele>
        <time>2015-08-13T17:06:07Z</time>
      </trkpt>
      <trkpt lat="42.2750640" lon="1.6875050">
        <ele>2275.6</ele>
        <time>2015-08-13T17:06:08Z</time>
      </trkpt>
      <trkpt lat="42.2750260" lon="1.6873900">
        <ele>2274.1</ele>
        <time>2015-08-13T17:06:09Z</time>
      </trkpt>
      <trkpt lat="42.2749770" lon="1.6873040">
        <ele>2272.7</ele>
        <time>2015-08-13T17:06:10Z</time>
      </trkpt>
      <trkpt lat="42.2749210" lon="1.6872220">
        <ele>2271.0</ele>
        <time>2015-08-13T17:06:11Z</time>
      </trkpt>
      <trkpt lat="42.2748820" lon="1.6871280">
        <ele>2269.5</ele>
        <time>2015-08-13T17:06:12Z</time>
      </trkpt>
      <trkpt lat="42.2748440" lon="1.6870270">
        <ele>2267.8</ele>
        <time>2015-08-13T17:06:13Z</time>
      </trkpt>
      <trkpt lat="42.2748060" lon="1.6869410">
        <ele>2266.3</ele>
        <time>2015-08-13T17:06:14Z</time>
      </trkpt>
      <trkpt lat="42.2747630" lon="1.6868700">
        <ele>2265.0</ele>
        <time>2015-08-13T17:06:15Z</time>
      </trkpt>
      <trkpt lat="42.2747070" lon="1.6868120">
        <ele>2263.8</ele>
        <time>2015-08-13T17:06:16Z</time>
      </trkpt>
      <trkpt lat="42.2746530" lon="1.6867580">
        <ele>2262.8</ele>
        <time>2015-08-13T17:06:17Z</time>
      </trkpt>
      <trkpt lat="42.2745980" lon="1.6867210">
        <ele>2262.0</ele>
        <time>2015-08-13T17:06:18Z</time>
      </trkpt>
      <trkpt lat="42.2743680" lon="1.6865970">
        <ele>2255.5</ele>
        <time>2015-08-13T17:06:21Z</time>
      </trkpt>
      <trkpt lat="42.2742440" lon="1.6864430">
        <ele>2250.6</ele>
        <time>2015-08-13T17:06:24Z</time>
      </trkpt>
      <trkpt lat="42.2742050" lon="1.6864220">
        <ele>2249.3</ele>
        <time>2015-08-13T17:06:25Z</time>
      </trkpt>
      <trkpt lat="42.2741510" lon="1.6863700">
        <ele>2247.1</ele>
        <time>2015-08-13T17:06:27Z</time>
      </trkpt>
      <trkpt lat="42.2741210" lon="1.6863400">
        <ele>2245.8</ele>
        <time>2015-08-13T17:07:45Z</time>
      </trkpt>
      <trkpt lat="42.2740920" lon="1.6863100">
        <ele>2244.5</ele>
        <time>2015-08-13T17:07:46Z</time>
      </trkpt>
      <trkpt lat="42.2740600" lon="1.6862710">
        <ele>2243.0</ele>
        <time>2015-08-13T17:07:47Z</time>
      </trkpt>
      <trkpt lat="42.2740210" lon="1.6862360">
        <ele>2241.3</ele>
        <time>2015-08-13T17:07:48Z</time>
      </trkpt>
      <trkpt lat="42.2739960" lon="1.6862050">
        <ele>2240.1</ele>
        <time>2015-08-13T17:07:49Z</time>
      </trkpt>
      <trkpt lat="42.2739590" lon="1.6861780">
        <ele>2238.6</ele>
        <time>2015-08-13T17:07:50Z</time>
      </trkpt>
      <trkpt lat="42.2739490" lon="1.6861100">
        <ele>2237.4</ele>
        <time>2015-08-13T17:07:51Z</time>
      </trkpt>
      <trkpt lat="42.2739160" lon="1.6860630">
        <ele>2235.8</ele>
        <time>2015-08-13T17:07:52Z</time>
      </trkpt>
      <trkpt lat="42.2738920" lon="1.6859930">
        <ele>2234.1</ele>
        <time>2015-08-13T17:07:53Z</time>
      </trkpt>
      <trkpt lat="42.2738710" lon="1.6859210">
        <ele>2232.5</ele>
        <time>2015-08-13T17:07:54Z</time>
      </trkpt>
      <trkpt lat="42.2738480" lon="1.6858440">
        <ele>2230.8</ele>
        <time>2015-08-13T17:07:55Z</time>
      </trkpt>
      <trkpt lat="42.2738320" lon="1.6857590">
        <ele>2229.1</ele>
        <time>2015-08-13T17:07:56Z</time>
      </trkpt>
      <trkpt lat="42.2738040" lon="1.6856630">
        <ele>2227.0</ele>
        <time>2015-08-13T17:07:57Z</time>
      </trkpt>
      <trkpt lat="42.2737840" lon="1.6855740">
        <ele>2225.2</ele>
        <time>2015-08-13T17:07:58Z</time>
      </trkpt>
      <trkpt lat="42.2737600" lon="1.6854780">
        <ele>2223.1</ele>
        <time>2015-08-13T17:07:59Z</time>
      </trkpt>
      <trkpt lat="42.2737280" lon="1.6853750">
        <ele>2221.1</ele>
        <time>2015-08-13T17:08:00Z</time>
      </trkpt>
      <trkpt lat="42.2737100" lon="1.6852570">
        <ele>2220.0</ele>
        <time>2015-08-13T17:08:01Z</time>
      </trkpt>
      <trkpt lat="42.2736730" lon="1.6851580">
        <ele>2218.3</ele>
        <time>2015-08-13T17:08:02Z</time>
      </trkpt>
      <trkpt lat="42.2736490" lon="1.6850630">
        <ele>2217.1</ele>
        <time>2015-08-13T17:08:03Z</time>
      </trkpt>
      <trkpt lat="42.2736430" lon="1.6849790">
        <ele>2216.5</ele>
        <time>2015-08-13T17:08:04Z</time>
      </trkpt>
      <trkpt lat="42.2736290" lon="1.6848900">
        <ele>2215.6</ele>
        <time>2015-08-13T17:08:05Z</time>
      </trkpt>
      <trkpt lat="42.2736210" lon="1.6847820">
        <ele>2214.8</ele>
        <time>2015-08-13T17:08:06Z</time>
      </trkpt>
      <trkpt lat="42.2736130" lon="1.6846800">
        <ele>2214.0</ele>
        <time>2015-08-13T17:08:07Z</time>
      </trkpt>
      <trkpt lat="42.2736150" lon="1.6845740">
        <ele>2213.5</ele>
        <time>2015-08-13T17:08:08Z</time>
      </trkpt>
      <trkpt lat="42.2735910" lon="1.6844650">
        <ele>2211.4</ele>
        <time>2015-08-13T17:08:09Z</time>
      </trkpt>
      <trkpt lat="42.2735790" lon="1.6843780">
        <ele>2210.0</ele>
        <time>2015-08-13T17:08:10Z</time>
      </trkpt>
      <trkpt lat="42.2735470" lon="1.6842970">
        <ele>2208.0</ele>
        <time>2015-08-13T17:08:11Z</time>
      </trkpt>
      <trkpt lat="42.2735210" lon="1.6842170">
        <ele>2206.3</ele>
        <time>2015-08-13T17:08:12Z</time>
      </trkpt>
      <trkpt lat="42.2735030" lon="1.6841310">
        <ele>2205.0</ele>
        <time>2015-08-13T17:08:13Z</time>
      </trkpt>
      <trkpt lat="42.2734780" lon="1.6840450">
        <ele>2203.4</ele>
        <time>2015-08-13T17:08:14Z</time>
      </trkpt>
      <trkpt lat="42.2734510" lon="1.6839550">
        <ele>2201.9</ele>
        <time>2015-08-13T17:08:15Z</time>
      </trkpt>
      <trkpt lat="42.2734150" lon="1.6838740">
        <ele>2200.3</ele>
        <time>2015-08-13T17:08:16Z</time>
      </trkpt>
      <trkpt lat="42.2733870" lon="1.6838270">
        <ele>2199.3</ele>
        <time>2015-08-13T17:08:17Z</time>
      </trkpt>
      <trkpt lat="42.2733630" lon="1.6838000">
        <ele>2198.5</ele>
        <time>2015-08-13T17:08:18Z</time>
      </trkpt>
      <trkpt lat="42.2733360" lon="1.6838670">
        <ele>2198.3</ele>
        <time>2015-08-13T17:08:19Z</time>
      </trkpt>
      <trkpt lat="42.2733150" lon="1.6839030">
        <ele>2197.9</ele>
        <time>2015-08-13T17:08:20Z</time>
      </trkpt>
      <trkpt lat="42.2732860" lon="1.6839410">
        <ele>2197.4</ele>
        <time>2015-08-13T17:08:21Z</time>
      </trkpt>
      <trkpt lat="42.2732450" lon="1.6840060">
        <ele>2196.6</ele>
        <time>2015-08-13T17:08:22Z</time>
      </trkpt>
      <trkpt lat="42.2732130" lon="1.6840940">
        <ele>2196.0</ele>
        <time>2015-08-13T17:08:23Z</time>
      </trkpt>
      <trkpt lat="42.2731990" lon="1.6841550">
        <ele>2195.8</ele>
        <time>2015-08-13T17:08:24Z</time>
      </trkpt>
      <trkpt lat="42.2731600" lon="1.6842240">
        <ele>2194.7</ele>
        <time>2015-08-13T17:08:25Z</time>
      </trkpt>
      <trkpt lat="42.2731220" lon="1.6842780">
        <ele>2193.6</ele>
        <time>2015-08-13T17:08:26Z</time>
      </trkpt>
      <trkpt lat="42.2730740" lon="1.6843400">
        <ele>2192.0</ele>
        <time>2015-08-13T17:08:27Z</time>
      </trkpt>
      <trkpt lat="42.2730240" lon="1.6844210">
        <ele>2190.3</ele>
        <time>2015-08-13T17:08:28Z</time>
      </trkpt>
      <trkpt lat="42.2729850" lon="1.6845020">
        <ele>2188.8</ele>
        <time>2015-08-13T17:08:29Z</time>
      </trkpt>
      <trkpt lat="42.2729500" lon="1.6845750">
        <ele>2187.3</ele>
        <time>2015-08-13T17:08:30Z</time>
      </trkpt>
      <trkpt lat="42.2729170" lon="1.6846470">
        <ele>2186.6</ele>
        <time>2015-08-13T17:08:31Z</time>
      </trkpt>
      <trkpt lat="42.2728750" lon="1.6847190">
        <ele>2185.8</ele>
        <time>2015-08-13T17:08:32Z</time>
      </trkpt>
      <trkpt lat="42.2728390" lon="1.6848020">
        <ele>2185.3</ele>
        <time>2015-08-13T17:08:33Z</time>
      </trkpt>
      <trkpt lat="42.2728140" lon="1.6848530">
        <ele>2184.9</ele>
        <time>2015-08-13T17:08:34Z</time>
      </trkpt>
      <trkpt lat="42.2727860" lon="1.6848970">
        <ele>2184.4</ele>
        <time>2015-08-13T17:08:35Z</time>
      </trkpt>
      <trkpt lat="42.2727370" lon="1.6849320">
        <ele>2183.0</ele>
        <time>2015-08-13T17:08:36Z</time>
      </trkpt>
      <trkpt lat="42.2726940" lon="1.6848990">
        <ele>2181.1</ele>
        <time>2015-08-13T17:08:37Z</time>
      </trkpt>
      <trkpt lat="42.2726790" lon="1.6848580">
        <ele>2180.2</ele>
        <time>2015-08-13T17:08:38Z</time>
      </trkpt>
      <trkpt lat="42.2726480" lon="1.6848010">
        <ele>2178.5</ele>
        <time>2015-08-13T17:08:39Z</time>
      </trkpt>
      <trkpt lat="42.2726250" lon="1.6847440">
        <ele>2177.1</ele>
        <time>2015-08-13T17:08:40Z</time>
      </trkpt>
      <trkpt lat="42.2726060" lon="1.6846740">
        <ele>2175.7</ele>
        <time>2015-08-13T17:08:41Z</time>
      </trkpt>
      <trkpt lat="42.2725760" lon="1.6846070">
        <ele>2174.0</ele>
        <time>2015-08-13T17:08:42Z</time>
      </trkpt>
      <trkpt lat="42.2725610" lon="1.6845330">
        <ele>2173.3</ele>
        <time>2015-08-13T17:08:43Z</time>
      </trkpt>
      <trkpt lat="42.2725460" lon="1.6844520">
        <ele>2172.8</ele>
        <time>2015-08-13T17:08:44Z</time>
      </trkpt>
      <trkpt lat="42.2725370" lon="1.6843960">
        <ele>2172.6</ele>
        <time>2015-08-13T17:08:45Z</time>
      </trkpt>
      <trkpt lat="42.2725330" lon="1.6843220">
        <ele>2172.5</ele>
        <time>2015-08-13T17:08:46Z</time>
      </trkpt>
      <trkpt lat="42.2725210" lon="1.6842600">
        <ele>2172.2</ele>
        <time>2015-08-13T17:08:47Z</time>
      </trkpt>
      <trkpt lat="42.2725170" lon="1.6841990">
        <ele>2172.1</ele>
        <time>2015-08-13T17:08:48Z</time>
      </trkpt>
      <trkpt lat="42.2724870" lon="1.6841130">
        <ele>2171.1</ele>
        <time>2015-08-13T17:08:49Z</time>
      </trkpt>
      <trkpt lat="42.2724510" lon="1.6840160">
        <ele>2169.8</ele>
        <time>2015-08-13T17:08:50Z</time>
      </trkpt>
      <trkpt lat="42.2724410" lon="1.6839030">
        <ele>2169.6</ele>
        <time>2015-08-13T17:08:51Z</time>
      </trkpt>
      <trkpt lat="42.2724250" lon="1.6837950">
        <ele>2169.1</ele>
        <time>2015-08-13T17:08:52Z</time>
      </trkpt>
      <trkpt lat="42.2723920" lon="1.6837030">
        <ele>2167.8</ele>
        <time>2015-08-13T17:08:53Z</time>
      </trkpt>
      <trkpt lat="42.2723570" lon="1.6836030">
        <ele>2166.4</ele>
        <time>2015-08-13T17:08:54Z</time>
      </trkpt>
      <trkpt lat="42.2723290" lon="1.6835000">
        <ele>2165.3</ele>
        <time>2015-08-13T17:08:55Z</time>
      </trkpt>
      <trkpt lat="42.2723040" lon="1.6833990">
        <ele>2164.3</ele>
        <time>2015-08-13T17:08:56Z</time>
      </trkpt>
      <trkpt lat="42.2722800" lon="1.6832950">
        <ele>2163.5</ele>
        <time>2015-08-13T17:08:57Z</time>
      </trkpt>
      <trkpt lat="42.2722490" lon="1.6831860">
        <ele>2162.4</ele>
        <time>2015-08-13T17:08:58Z</time>
      </trkpt>
      <trkpt lat="42.2722240" lon="1.6830700">
        <ele>2161.5</ele>
        <time>2015-08-13T17:08:59Z</time>
      </trkpt>
      <trkpt lat="42.2721960" lon="1.6829520">
        <ele>2160.6</ele>
        <time>2015-08-13T17:09:00Z</time>
      </trkpt>
      <trkpt lat="42.2721760" lon="1.6828260">
        <ele>2159.7</ele>
        <time>2015-08-13T17:09:01Z</time>
      </trkpt>
      <trkpt lat="42.2721580" lon="1.6827140">
        <ele>2158.8</ele>
        <time>2015-08-13T17:09:02Z</time>
      </trkpt>
      <trkpt lat="42.2721350" lon="1.6825980">
        <ele>2158.0</ele>
        <time>2015-08-13T17:09:03Z</time>
      </trkpt>
      <trkpt lat="42.2721250" lon="1.6824990">
        <ele>2157.6</ele>
        <time>2015-08-13T17:09:04Z</time>
      </trkpt>
      <trkpt lat="42.2721250" lon="1.6824030">
        <ele>2157.5</ele>
        <time>2015-08-13T17:09:05Z</time>
      </trkpt>
      <trkpt lat="42.2721020" lon="1.6823220">
        <ele>2157.2</ele>
        <time>2015-08-13T17:09:06Z</time>
      </trkpt>
      <trkpt lat="42.2720870" lon="1.6822710">
        <ele>2157.0</ele>
        <time>2015-08-13T17:09:07Z</time>
      </trkpt>
      <trkpt lat="42.2720590" lon="1.6822010">
        <ele>2156.2</ele>
        <time>2015-08-13T17:09:08Z</time>
      </trkpt>
      <trkpt lat="42.2720350" lon="1.6821580">
        <ele>2155.5</ele>
        <time>2015-08-13T17:09:09Z</time>
      </trkpt>
      <trkpt lat="42.2719940" lon="1.6821070">
        <ele>2154.3</ele>
        <time>2015-08-13T17:09:10Z</time>
      </trkpt>
      <trkpt lat="42.2719690" lon="1.6820240">
        <ele>2151.6</ele>
        <time>2015-08-13T17:09:11Z</time>
      </trkpt>
      <trkpt lat="42.2719390" lon="1.6819570">
        <ele>2148.6</ele>
        <time>2015-08-13T17:09:12Z</time>
      </trkpt>
      <trkpt lat="42.2719130" lon="1.6818790">
        <ele>2145.5</ele>
        <time>2015-08-13T17:09:13Z</time>
      </trkpt>
      <trkpt lat="42.2718710" lon="1.6818060">
        <ele>2142.4</ele>
        <time>2015-08-13T17:09:14Z</time>
      </trkpt>
      <trkpt lat="42.2718290" lon="1.6817380">
        <ele>2139.7</ele>
        <time>2015-08-13T17:09:15Z</time>
      </trkpt>
      <trkpt lat="42.2718090" lon="1.6816740">
        <ele>2137.6</ele>
        <time>2015-08-13T17:09:16Z</time>
      </trkpt>
      <trkpt lat="42.2717840" lon="1.6816160">
        <ele>2135.7</ele>
        <time>2015-08-13T17:09:17Z</time>
      </trkpt>
      <trkpt lat="42.2717430" lon="1.6815640">
        <ele>2133.8</ele>
        <time>2015-08-13T17:09:18Z</time>
      </trkpt>
      <trkpt lat="42.2717030" lon="1.6815190">
        <ele>2132.3</ele>
        <time>2015-08-13T17:09:19Z</time>
      </trkpt>
      <trkpt lat="42.2716720" lon="1.6815200">
        <ele>2132.0</ele>
        <time>2015-08-13T17:09:20Z</time>
      </trkpt>
      <trkpt lat="42.2716460" lon="1.6815350">
        <ele>2132.1</ele>
        <time>2015-08-13T17:09:21Z</time>
      </trkpt>
      <trkpt lat="42.2716210" lon="1.6815580">
        <ele>2132.3</ele>
        <time>2015-08-13T17:09:22Z</time>
      </trkpt>
      <trkpt lat="42.2716240" lon="1.6816110">
        <ele>2133.5</ele>
        <time>2015-08-13T17:09:51Z</time>
      </trkpt>
      <trkpt lat="42.2716120" lon="1.6816540">
        <ele>2134.2</ele>
        <time>2015-08-13T17:09:52Z</time>
      </trkpt>
      <trkpt lat="42.2716040" lon="1.6817010">
        <ele>2135.0</ele>
        <time>2015-08-13T17:09:53Z</time>
      </trkpt>
      <trkpt lat="42.2715940" lon="1.6817560">
        <ele>2135.9</ele>
        <time>2015-08-13T17:09:54Z</time>
      </trkpt>
      <trkpt lat="42.2715770" lon="1.6818260">
        <ele>2136.9</ele>
        <time>2015-08-13T17:09:55Z</time>
      </trkpt>
      <trkpt lat="42.2715550" lon="1.6818880">
        <ele>2137.6</ele>
        <time>2015-08-13T17:09:56Z</time>
      </trkpt>
      <trkpt lat="42.2715290" lon="1.6819520">
        <ele>2138.1</ele>
        <time>2015-08-13T17:09:57Z</time>
      </trkpt>
      <trkpt lat="42.2715120" lon="1.6820150">
        <ele>2138.7</ele>
        <time>2015-08-13T17:09:58Z</time>
      </trkpt>
      <trkpt lat="42.2714790" lon="1.6820700">
        <ele>2138.7</ele>
        <time>2015-08-13T17:09:59Z</time>
      </trkpt>
      <trkpt lat="42.2714470" lon="1.6821270">
        <ele>2137.5</ele>
        <time>2015-08-13T17:10:00Z</time>
      </trkpt>
      <trkpt lat="42.2714190" lon="1.6821730">
        <ele>2136.3</ele>
        <time>2015-08-13T17:10:01Z</time>
      </trkpt>
      <trkpt lat="42.2713940" lon="1.6822170">
        <ele>2135.1</ele>
        <time>2015-08-13T17:10:02Z</time>
      </trkpt>
      <trkpt lat="42.2713590" lon="1.6822770">
        <ele>2133.5</ele>
        <time>2015-08-13T17:10:03Z</time>
      </trkpt>
      <trkpt lat="42.2713280" lon="1.6823380">
        <ele>2131.8</ele>
        <time>2015-08-13T17:10:04Z</time>
      </trkpt>
      <trkpt lat="42.2713000" lon="1.6823900">
        <ele>2130.4</ele>
        <time>2015-08-13T17:10:05Z</time>
      </trkpt>
      <trkpt lat="42.2712730" lon="1.6824470">
        <ele>2128.9</ele>
        <time>2015-08-13T17:10:06Z</time>
      </trkpt>
      <trkpt lat="42.2712590" lon="1.6824900">
        <ele>2127.9</ele>
        <time>2015-08-13T17:10:07Z</time>
      </trkpt>
      <trkpt lat="42.2712360" lon="1.6825470">
        <ele>2126.5</ele>
        <time>2015-08-13T17:10:08Z</time>
      </trkpt>
      <trkpt lat="42.2712060" lon="1.6825980">
        <ele>2125.0</ele>
        <time>2015-08-13T17:10:09Z</time>
      </trkpt>
      <trkpt lat="42.2711960" lon="1.6826760">
        <ele>2123.8</ele>
        <time>2015-08-13T17:10:10Z</time>
      </trkpt>
      <trkpt lat="42.2711740" lon="1.6827520">
        <ele>2122.3</ele>
        <time>2015-08-13T17:10:11Z</time>
      </trkpt>
      <trkpt lat="42.2711610" lon="1.6828330">
        <ele>2121.0</ele>
        <time>2015-08-13T17:10:12Z</time>
      </trkpt>
      <trkpt lat="42.2711360" lon="1.6829390">
        <ele>2119.3</ele>
        <time>2015-08-13T17:10:13Z</time>
      </trkpt>
      <trkpt lat="42.2711020" lon="1.6830380">
        <ele>2118.2</ele>
        <time>2015-08-13T17:10:14Z</time>
      </trkpt>
      <trkpt lat="42.2710450" lon="1.6831390">
        <ele>2116.4</ele>
        <time>2015-08-13T17:10:15Z</time>
      </trkpt>
      <trkpt lat="42.2710220" lon="1.6832560">
        <ele>2115.7</ele>
        <time>2015-08-13T17:10:16Z</time>
      </trkpt>
      <trkpt lat="42.2709760" lon="1.6833550">
        <ele>2114.3</ele>
        <time>2015-08-13T17:10:17Z</time>
      </trkpt>
      <trkpt lat="42.2709360" lon="1.6834740">
        <ele>2113.2</ele>
        <time>2015-08-13T17:10:18Z</time>
      </trkpt>
      <trkpt lat="42.2708930" lon="1.6835850">
        <ele>2112.0</ele>
        <time>2015-08-13T17:10:19Z</time>
      </trkpt>
      <trkpt lat="42.2708490" lon="1.6836680">
        <ele>2110.8</ele>
        <time>2015-08-13T17:10:20Z</time>
      </trkpt>
      <trkpt lat="42.2707900" lon="1.6837360">
        <ele>2109.3</ele>
        <time>2015-08-13T17:10:21Z</time>
      </trkpt>
      <trkpt lat="42.2707380" lon="1.6838190">
        <ele>2108.2</ele>
        <time>2015-08-13T17:10:22Z</time>
      </trkpt>
      <trkpt lat="42.2707110" lon="1.6838830">
        <ele>2107.8</ele>
        <time>2015-08-13T17:10:23Z</time>
      </trkpt>
      <trkpt lat="42.2706860" lon="1.6839500">
        <ele>2107.5</ele>
        <time>2015-08-13T17:10:24Z</time>
      </trkpt>
      <trkpt lat="42.2706600" lon="1.6840150">
        <ele>2107.1</ele>
        <time>2015-08-13T17:10:25Z</time>
      </trkpt>
      <trkpt lat="42.2706460" lon="1.6840960">
        <ele>2107.1</ele>
        <time>2015-08-13T17:10:26Z</time>
      </trkpt>
      <trkpt lat="42.2706330" lon="1.6841560">
        <ele>2107.0</ele>
        <time>2015-08-13T17:10:27Z</time>
      </trkpt>
      <trkpt lat="42.2706080" lon="1.6842260">
        <ele>2106.7</ele>
        <time>2015-08-13T17:10:28Z</time>
      </trkpt>
      <trkpt lat="42.2705460" lon="1.6842640">
        <ele>2105.1</ele>
        <time>2015-08-13T17:10:29Z</time>
      </trkpt>
      <trkpt lat="42.2705000" lon="1.6843140">
        <ele>2104.1</ele>
        <time>2015-08-13T17:10:30Z</time>
      </trkpt>
      <trkpt lat="42.2704490" lon="1.6843550">
        <ele>2102.8</ele>
        <time>2015-08-13T17:10:31Z</time>
      </trkpt>
      <trkpt lat="42.2704190" lon="1.6844080">
        <ele>2102.2</ele>
        <time>2015-08-13T17:10:32Z</time>
      </trkpt>
      <trkpt lat="42.2703950" lon="1.6844580">
        <ele>2101.8</ele>
        <time>2015-08-13T17:10:33Z</time>
      </trkpt>
      <trkpt lat="42.2703610" lon="1.6845270">
        <ele>2101.1</ele>
        <time>2015-08-13T17:10:35Z</time>
      </trkpt>
      <trkpt lat="42.2703480" lon="1.6845720">
        <ele>2100.9</ele>
        <time>2015-08-13T17:10:36Z</time>
      </trkpt>
      <trkpt lat="42.2703310" lon="1.6846200">
        <ele>2100.3</ele>
        <time>2015-08-13T17:10:37Z</time>
      </trkpt>
      <trkpt lat="42.2702980" lon="1.6846720">
        <ele>2099.2</ele>
        <time>2015-08-13T17:10:38Z</time>
      </trkpt>
      <trkpt lat="42.2702700" lon="1.6847320">
        <ele>2098.1</ele>
        <time>2015-08-13T17:10:39Z</time>
      </trkpt>
      <trkpt lat="42.2702520" lon="1.6847860">
        <ele>2097.3</ele>
        <time>2015-08-13T17:10:40Z</time>
      </trkpt>
      <trkpt lat="42.2702330" lon="1.6848410">
        <ele>2096.5</ele>
        <time>2015-08-13T17:10:41Z</time>
      </trkpt>
      <trkpt lat="42.2702190" lon="1.6848870">
        <ele>2095.8</ele>
        <time>2015-08-13T17:10:42Z</time>
      </trkpt>
      <trkpt lat="42.2701970" lon="1.6849380">
        <ele>2094.9</ele>
        <time>2015-08-13T17:10:43Z</time>
      </trkpt>
      <trkpt lat="42.2701850" lon="1.6850000">
        <ele>2094.2</ele>
        <time>2015-08-13T17:10:44Z</time>
      </trkpt>
      <trkpt lat="42.2701580" lon="1.6850450">
        <ele>2093.0</ele>
        <time>2015-08-13T17:10:45Z</time>
      </trkpt>
      <trkpt lat="42.2701470" lon="1.6850880">
        <ele>2092.3</ele>
        <time>2015-08-13T17:10:46Z</time>
      </trkpt>
      <trkpt lat="42.2701400" lon="1.6851350">
        <ele>2091.8</ele>
        <time>2015-08-13T17:10:48Z</time>
      </trkpt>
      <trkpt lat="42.2701370" lon="1.6851940">
        <ele>2091.4</ele>
        <time>2015-08-13T17:10:50Z</time>
      </trkpt>
      <trkpt lat="42.2701400" lon="1.6852630">
        <ele>2091.2</ele>
        <time>2015-08-13T17:10:52Z</time>
      </trkpt>
      <trkpt lat="42.2701370" lon="1.6853070">
        <ele>2090.8</ele>
        <time>2015-08-13T17:10:53Z</time>
      </trkpt>
      <trkpt lat="42.2701370" lon="1.6853610">
        <ele>2090.5</ele>
        <time>2015-08-13T17:10:55Z</time>
      </trkpt>
      <trkpt lat="42.2701430" lon="1.6854260">
        <ele>2090.5</ele>
        <time>2015-08-13T17:10:57Z</time>
      </trkpt>
      <trkpt lat="42.2701670" lon="1.6854830">
        <ele>2091.1</ele>
        <time>2015-08-13T17:10:59Z</time>
      </trkpt>
      <trkpt lat="42.2701790" lon="1.6855240">
        <ele>2091.4</ele>
        <time>2015-08-13T17:11:01Z</time>
      </trkpt>
      <trkpt lat="42.2702020" lon="1.6855700">
        <ele>2092.1</ele>
        <time>2015-08-13T17:11:03Z</time>
      </trkpt>
      <trkpt lat="42.2702220" lon="1.6856150">
        <ele>2092.7</ele>
        <time>2015-08-13T17:11:05Z</time>
      </trkpt>
      <trkpt lat="42.2702150" lon="1.6856540">
        <ele>2092.2</ele>
        <time>2015-08-13T17:11:07Z</time>
      </trkpt>
      <trkpt lat="42.2701830" lon="1.6856760">
        <ele>2090.7</ele>
        <time>2015-08-13T17:11:09Z</time>
      </trkpt>
      <trkpt lat="42.2701510" lon="1.6856690">
        <ele>2089.3</ele>
        <time>2015-08-13T17:11:11Z</time>
      </trkpt>
      <trkpt lat="42.2701140" lon="1.6856830">
        <ele>2087.7</ele>
        <time>2015-08-13T17:12:16Z</time>
      </trkpt>
      <trkpt lat="42.2700890" lon="1.6856960">
        <ele>2086.5</ele>
        <time>2015-08-13T17:12:17Z</time>
      </trkpt>
      <trkpt lat="42.2700610" lon="1.6857030">
        <ele>2085.2</ele>
        <time>2015-08-13T17:12:18Z</time>
      </trkpt>
      <trkpt lat="42.2700110" lon="1.6857190">
        <ele>2083.0</ele>
        <time>2015-08-13T17:12:20Z</time>
      </trkpt>
      <trkpt lat="42.2699810" lon="1.6857230">
        <ele>2081.7</ele>
        <time>2015-08-13T17:12:21Z</time>
      </trkpt>
      <trkpt lat="42.2699450" lon="1.6857270">
        <ele>2080.1</ele>
        <time>2015-08-13T17:12:22Z</time>
      </trkpt>
      <trkpt lat="42.2699140" lon="1.6857360">
        <ele>2078.7</ele>
        <time>2015-08-13T17:12:23Z</time>
      </trkpt>
      <trkpt lat="42.2698810" lon="1.6857150">
        <ele>2077.4</ele>
        <time>2015-08-13T17:12:26Z</time>
      </trkpt>
      <trkpt lat="42.2698410" lon="1.6857220">
        <ele>2075.6</ele>
        <time>2015-08-13T17:12:29Z</time>
      </trkpt>
      <trkpt lat="42.2698080" lon="1.6857350">
        <ele>2074.1</ele>
        <time>2015-08-13T17:12:31Z</time>
      </trkpt>
      <trkpt lat="42.2697820" lon="1.6857510">
        <ele>2072.8</ele>
        <time>2015-08-13T17:12:33Z</time>
      </trkpt>
      <trkpt lat="42.2697670" lon="1.6857960">
        <ele>2071.8</ele>
        <time>2015-08-13T17:12:35Z</time>
      </trkpt>
      <trkpt lat="42.2697290" lon="1.6857990">
        <ele>2070.1</ele>
        <time>2015-08-13T17:14:25Z</time>
      </trkpt>
      <trkpt lat="42.2696940" lon="1.6857960">
        <ele>2068.6</ele>
        <time>2015-08-13T17:15:25Z</time>
      </trkpt>
      <trkpt lat="42.2696600" lon="1.6857870">
        <ele>2067.2</ele>
        <time>2015-08-13T17:15:39Z</time>
      </trkpt>
      <trkpt lat="42.2696350" lon="1.6858130">
        <ele>2065.9</ele>
        <time>2015-08-13T17:15:42Z</time>
      </trkpt>
      <trkpt lat="42.2696160" lon="1.6858510">
        <ele>2064.8</ele>
        <time>2015-08-13T17:15:44Z</time>
      </trkpt>
      <trkpt lat="42.2695670" lon="1.6859150">
        <ele>2062.2</ele>
        <time>2015-08-13T17:15:46Z</time>
      </trkpt>
      <trkpt lat="42.2695750" lon="1.6859510">
        <ele>2062.2</ele>
        <time>2015-08-13T17:16:01Z</time>
      </trkpt>
      <trkpt lat="42.2695470" lon="1.6859930">
        <ele>2060.8</ele>
        <time>2015-08-13T17:16:26Z</time>
      </trkpt>
      <trkpt lat="42.2694980" lon="1.6860270">
        <ele>2058.6</ele>
        <time>2015-08-13T17:16:28Z</time>
      </trkpt>
      <trkpt lat="42.2694450" lon="1.6860260">
        <ele>2056.6</ele>
        <time>2015-08-13T17:16:30Z</time>
      </trkpt>
      <trkpt lat="42.2694030" lon="1.6860220">
        <ele>2055.0</ele>
        <time>2015-08-13T17:16:32Z</time>
      </trkpt>
      <trkpt lat="42.2693820" lon="1.6859780">
        <ele>2054.6</ele>
        <time>2015-08-13T17:16:34Z</time>
      </trkpt>
      <trkpt lat="42.2693530" lon="1.6859700">
        <ele>2053.5</ele>
        <time>2015-08-13T17:16:37Z</time>
      </trkpt>
      <trkpt lat="42.2693210" lon="1.6859640">
        <ele>2052.3</ele>
        <time>2015-08-13T17:16:39Z</time>
      </trkpt>
      <trkpt lat="42.2692980" lon="1.6859840">
        <ele>2051.3</ele>
        <time>2015-08-13T17:16:40Z</time>
      </trkpt>
      <trkpt lat="42.2692690" lon="1.6860020">
        <ele>2050.0</ele>
        <time>2015-08-13T17:16:41Z</time>
      </trkpt>
      <trkpt lat="42.2692340" lon="1.6860150">
        <ele>2048.6</ele>
        <time>2015-08-13T17:16:43Z</time>
      </trkpt>
      <trkpt lat="42.2692110" lon="1.6860360">
        <ele>2047.5</ele>
        <time>2015-08-13T17:16:46Z</time>
      </trkpt>
      <trkpt lat="42.2691830" lon="1.6860340">
        <ele>2046.4</ele>
        <time>2015-08-13T17:16:47Z</time>
      </trkpt>
      <trkpt lat="42.2691370" lon="1.6860410">
        <ele>2044.6</ele>
        <time>2015-08-13T17:16:48Z</time>
      </trkpt>
      <trkpt lat="42.2691010" lon="1.6860540">
        <ele>2043.1</ele>
        <time>2015-08-13T17:16:49Z</time>
      </trkpt>
      <trkpt lat="42.2690280" lon="1.6861040">
        <ele>2039.9</ele>
        <time>2015-08-13T17:18:50Z</time>
      </trkpt>
      <trkpt lat="42.2690040" lon="1.6861490">
        <ele>2038.6</ele>
        <time>2015-08-13T17:18:51Z</time>
      </trkpt>
      <trkpt lat="42.2689710" lon="1.6862160">
        <ele>2036.8</ele>
        <time>2015-08-13T17:18:52Z</time>
      </trkpt>
      <trkpt lat="42.2689180" lon="1.6862780">
        <ele>2034.7</ele>
        <time>2015-08-13T17:18:53Z</time>
      </trkpt>
      <trkpt lat="42.2688900" lon="1.6863280">
        <ele>2034.0</ele>
        <time>2015-08-13T17:18:54Z</time>
      </trkpt>
      <trkpt lat="42.2688360" lon="1.6863890">
        <ele>2032.4</ele>
        <time>2015-08-13T17:18:55Z</time>
      </trkpt>
      <trkpt lat="42.2687700" lon="1.6864060">
        <ele>2030.1</ele>
        <time>2015-08-13T17:18:56Z</time>
      </trkpt>
      <trkpt lat="42.2687230" lon="1.6864230">
        <ele>2028.6</ele>
        <time>2015-08-13T17:18:57Z</time>
      </trkpt>
      <trkpt lat="42.2686740" lon="1.6864140">
        <ele>2027.1</ele>
        <time>2015-08-13T17:18:58Z</time>
      </trkpt>
      <trkpt lat="42.2686300" lon="1.6864080">
        <ele>2025.8</ele>
        <time>2015-08-13T17:18:59Z</time>
      </trkpt>
      <trkpt lat="42.2685840" lon="1.6863980">
        <ele>2024.3</ele>
        <time>2015-08-13T17:19:00Z</time>
      </trkpt>
      <trkpt lat="42.2685440" lon="1.6863890">
        <ele>2023.1</ele>
        <time>2015-08-13T17:19:01Z</time>
      </trkpt>
      <trkpt lat="42.2685180" lon="1.6863750">
        <ele>2022.3</ele>
        <time>2015-08-13T17:19:02Z</time>
      </trkpt>
      <trkpt lat="42.2684830" lon="1.6863700">
        <ele>2021.2</ele>
        <time>2015-08-13T17:19:04Z</time>
      </trkpt>
      <trkpt lat="42.2684560" lon="1.6863350">
        <ele>2020.3</ele>
        <time>2015-08-13T17:19:06Z</time>
      </trkpt>
      <trkpt lat="42.2684260" lon="1.6862980">
        <ele>2019.3</ele>
        <time>2015-08-13T17:19:08Z</time>
      </trkpt>
      <trkpt lat="42.2684260" lon="1.6862320">
        <ele>2019.2</ele>
        <time>2015-08-13T17:19:10Z</time>
      </trkpt>
      <trkpt lat="42.2684270" lon="1.6861810">
        <ele>2019.4</ele>
        <time>2015-08-13T17:19:12Z</time>
      </trkpt>
      <trkpt lat="42.2684250" lon="1.6861220">
        <ele>2019.7</ele>
        <time>2015-08-13T17:19:14Z</time>
      </trkpt>
      <trkpt lat="42.2684140" lon="1.6860530">
        <ele>2019.7</ele>
        <time>2015-08-13T17:19:23Z</time>
      </trkpt>
      <trkpt lat="42.2684110" lon="1.6860200">
        <ele>2019.8</ele>
        <time>2015-08-13T17:19:24Z</time>
      </trkpt>
      <trkpt lat="42.2684330" lon="1.6859440">
        <ele>2020.8</ele>
        <time>2015-08-13T17:19:26Z</time>
      </trkpt>
      <trkpt lat="42.2684240" lon="1.6859020">
        <ele>2020.8</ele>
        <time>2015-08-13T17:19:28Z</time>
      </trkpt>
      <trkpt lat="42.2684100" lon="1.6858710">
        <ele>2020.5</ele>
        <time>2015-08-13T17:19:30Z</time>
      </trkpt>
      <trkpt lat="42.2683800" lon="1.6858280">
        <ele>2019.8</ele>
        <time>2015-08-13T17:19:32Z</time>
      </trkpt>
      <trkpt lat="42.2683670" lon="1.6857470">
        <ele>2019.7</ele>
        <time>2015-08-13T17:26:14Z</time>
      </trkpt>
      <trkpt lat="42.2683500" lon="1.6856920">
        <ele>2019.4</ele>
        <time>2015-08-13T17:26:16Z</time>
      </trkpt>
      <trkpt lat="42.2683210" lon="1.6856620">
        <ele>2018.6</ele>
        <time>2015-08-13T17:26:17Z</time>
      </trkpt>
      <trkpt lat="42.2682800" lon="1.6856150">
        <ele>2017.4</ele>
        <time>2015-08-13T17:26:19Z</time>
      </trkpt>
      <trkpt lat="42.2682490" lon="1.6856010">
        <ele>2016.3</ele>
        <time>2015-08-13T17:26:20Z</time>
      </trkpt>
      <trkpt lat="42.2682220" lon="1.6855990">
        <ele>2015.4</ele>
        <time>2015-08-13T17:26:21Z</time>
      </trkpt>
      <trkpt lat="42.2681690" lon="1.6855960">
        <ele>2013.6</ele>
        <time>2015-08-13T17:26:23Z</time>
      </trkpt>
      <trkpt lat="42.2681390" lon="1.6855860">
        <ele>2012.6</ele>
        <time>2015-08-13T17:26:24Z</time>
      </trkpt>
      <trkpt lat="42.2680970" lon="1.6855820">
        <ele>2011.2</ele>
        <time>2015-08-13T17:26:25Z</time>
      </trkpt>
      <trkpt lat="42.2680630" lon="1.6855840">
        <ele>2010.0</ele>
        <time>2015-08-13T17:26:26Z</time>
      </trkpt>
      <trkpt lat="42.2680040" lon="1.6856550">
        <ele>2007.9</ele>
        <time>2015-08-13T17:26:28Z</time>
      </trkpt>
      <trkpt lat="42.2679790" lon="1.6856830">
        <ele>2007.1</ele>
        <time>2015-08-13T17:26:29Z</time>
      </trkpt>
      <trkpt lat="42.2679550" lon="1.6857250">
        <ele>2006.3</ele>
        <time>2015-08-13T17:26:30Z</time>
      </trkpt>
      <trkpt lat="42.2679080" lon="1.6857300">
        <ele>2004.8</ele>
        <time>2015-08-13T17:26:31Z</time>
      </trkpt>
      <trkpt lat="42.2678600" lon="1.6857330">
        <ele>2003.7</ele>
        <time>2015-08-13T17:26:32Z</time>
      </trkpt>
      <trkpt lat="42.2678280" lon="1.6857470">
        <ele>2003.0</ele>
        <time>2015-08-13T17:26:33Z</time>
      </trkpt>
      <trkpt lat="42.2678040" lon="1.6857910">
        <ele>2002.5</ele>
        <time>2015-08-13T17:26:36Z</time>
      </trkpt>
      <trkpt lat="42.2677710" lon="1.6858060">
        <ele>2001.8</ele>
        <time>2015-08-13T17:26:37Z</time>
      </trkpt>
      <trkpt lat="42.2677420" lon="1.6858300">
        <ele>2001.2</ele>
        <time>2015-08-13T17:26:38Z</time>
      </trkpt>
      <trkpt lat="42.2677160" lon="1.6858650">
        <ele>2000.7</ele>
        <time>2015-08-13T17:26:39Z</time>
      </trkpt>
      <trkpt lat="42.2676910" lon="1.6859030">
        <ele>2000.2</ele>
        <time>2015-08-13T17:26:40Z</time>
      </trkpt>
      <trkpt lat="42.2676670" lon="1.6859410">
        <ele>1999.8</ele>
        <time>2015-08-13T17:26:41Z</time>
      </trkpt>
      <trkpt lat="42.2676450" lon="1.6859960">
        <ele>1999.4</ele>
        <time>2015-08-13T17:26:42Z</time>
      </trkpt>
      <trkpt lat="42.2676270" lon="1.6860370">
        <ele>1999.1</ele>
        <time>2015-08-13T17:26:43Z</time>
      </trkpt>
      <trkpt lat="42.2676150" lon="1.6860720">
        <ele>1998.9</ele>
        <time>2015-08-13T17:26:45Z</time>
      </trkpt>
      <trkpt lat="42.2676100" lon="1.6861140">
        <ele>1998.9</ele>
        <time>2015-08-13T17:27:02Z</time>
      </trkpt>
      <trkpt lat="42.2676060" lon="1.6861570">
        <ele>1998.9</ele>
        <time>2015-08-13T17:27:03Z</time>
      </trkpt>
      <trkpt lat="42.2675980" lon="1.6862130">
        <ele>1998.8</ele>
        <time>2015-08-13T17:27:04Z</time>
      </trkpt>
      <trkpt lat="42.2675880" lon="1.6862730">
        <ele>1998.6</ele>
        <time>2015-08-13T17:27:05Z</time>
      </trkpt>
      <trkpt lat="42.2675780" lon="1.6863430">
        <ele>1998.0</ele>
        <time>2015-08-13T17:27:06Z</time>
      </trkpt>
      <trkpt lat="42.2675670" lon="1.6864280">
        <ele>1997.4</ele>
        <time>2015-08-13T17:27:07Z</time>
      </trkpt>
      <trkpt lat="42.2675410" lon="1.6864950">
        <ele>1996.5</ele>
        <time>2015-08-13T17:27:08Z</time>
      </trkpt>
      <trkpt lat="42.2675430" lon="1.6865490">
        <ele>1996.3</ele>
        <time>2015-08-13T17:27:10Z</time>
      </trkpt>
      <trkpt lat="42.2675440" lon="1.6865860">
        <ele>1996.1</ele>
        <time>2015-08-13T17:27:11Z</time>
      </trkpt>
      <trkpt lat="42.2675230" lon="1.6866320">
        <ele>1995.4</ele>
        <time>2015-08-13T17:27:12Z</time>
      </trkpt>
      <trkpt lat="42.2675170" lon="1.6867090">
        <ele>1994.9</ele>
        <time>2015-08-13T17:27:14Z</time>
      </trkpt>
      <trkpt lat="42.2675120" lon="1.6867490">
        <ele>1994.6</ele>
        <time>2015-08-13T17:27:15Z</time>
      </trkpt>
      <trkpt lat="42.2675190" lon="1.6867850">
        <ele>1994.5</ele>
        <time>2015-08-13T17:27:17Z</time>
      </trkpt>
      <trkpt lat="42.2675240" lon="1.6868300">
        <ele>1994.4</ele>
        <time>2015-08-13T17:27:19Z</time>
      </trkpt>
      <trkpt lat="42.2675110" lon="1.6868750">
        <ele>1993.9</ele>
        <time>2015-08-13T17:27:21Z</time>
      </trkpt>
      <trkpt lat="42.2674730" lon="1.6869260">
        <ele>1992.7</ele>
        <time>2015-08-13T17:27:23Z</time>
      </trkpt>
      <trkpt lat="42.2674530" lon="1.6869520">
        <ele>1992.1</ele>
        <time>2015-08-13T17:27:24Z</time>
      </trkpt>
      <trkpt lat="42.2674270" lon="1.6869720">
        <ele>1991.3</ele>
        <time>2015-08-13T17:27:25Z</time>
      </trkpt>
      <trkpt lat="42.2673890" lon="1.6870030">
        <ele>1990.2</ele>
        <time>2015-08-13T17:27:26Z</time>
      </trkpt>
      <trkpt lat="42.2673510" lon="1.6870350">
        <ele>1989.1</ele>
        <time>2015-08-13T17:27:27Z</time>
      </trkpt>
      <trkpt lat="42.2673090" lon="1.6870570">
        <ele>1987.9</ele>
        <time>2015-08-13T17:27:28Z</time>
      </trkpt>
      <trkpt lat="42.2672760" lon="1.6871080">
        <ele>1986.6</ele>
        <time>2015-08-13T17:27:29Z</time>
      </trkpt>
      <trkpt lat="42.2672480" lon="1.6871640">
        <ele>1985.3</ele>
        <time>2015-08-13T17:27:30Z</time>
      </trkpt>
      <trkpt lat="42.2671790" lon="1.6872340">
        <ele>1982.8</ele>
        <time>2015-08-13T17:27:31Z</time>
      </trkpt>
      <trkpt lat="42.2671740" lon="1.6872920">
        <ele>1982.1</ele>
        <time>2015-08-13T17:27:32Z</time>
      </trkpt>
      <trkpt lat="42.2671230" lon="1.6873310">
        <ele>1980.4</ele>
        <time>2015-08-13T17:27:33Z</time>
      </trkpt>
      <trkpt lat="42.2671100" lon="1.6874000">
        <ele>1979.3</ele>
        <time>2015-08-13T17:27:34Z</time>
      </trkpt>
      <trkpt lat="42.2670970" lon="1.6874520">
        <ele>1978.4</ele>
        <time>2015-08-13T17:27:35Z</time>
      </trkpt>
      <trkpt lat="42.2670720" lon="1.6875070">
        <ele>1977.1</ele>
        <time>2015-08-13T17:27:36Z</time>
      </trkpt>
      <trkpt lat="42.2670320" lon="1.6875640">
        <ele>1975.5</ele>
        <time>2015-08-13T17:27:37Z</time>
      </trkpt>
      <trkpt lat="42.2670040" lon="1.6876230">
        <ele>1974.1</ele>
        <time>2015-08-13T17:27:38Z</time>
      </trkpt>
      <trkpt lat="42.2669770" lon="1.6876830">
        <ele>1972.8</ele>
        <time>2015-08-13T17:27:39Z</time>
      </trkpt>
      <trkpt lat="42.2669480" lon="1.6877370">
        <ele>1971.6</ele>
        <time>2015-08-13T17:27:40Z</time>
      </trkpt>
      <trkpt lat="42.2669190" lon="1.6877940">
        <ele>1970.3</ele>
        <time>2015-08-13T17:27:41Z</time>
      </trkpt>
      <trkpt lat="42.2668890" lon="1.6878360">
        <ele>1969.1</ele>
        <time>2015-08-13T17:27:42Z</time>
      </trkpt>
      <trkpt lat="42.2668600" lon="1.6878780">
        <ele>1968.0</ele>
        <time>2015-08-13T17:27:43Z</time>
      </trkpt>
      <trkpt lat="42.2668310" lon="1.6879240">
        <ele>1966.9</ele>
        <time>2015-08-13T17:27:44Z</time>
      </trkpt>
      <trkpt lat="42.2668010" lon="1.6879690">
        <ele>1965.6</ele>
        <time>2015-08-13T17:27:45Z</time>
      </trkpt>
      <trkpt lat="42.2667420" lon="1.6880040">
        <ele>1963.8</ele>
        <time>2015-08-13T17:27:46Z</time>
      </trkpt>
      <trkpt lat="42.2667000" lon="1.6879990">
        <ele>1962.9</ele>
        <time>2015-08-13T17:27:47Z</time>
      </trkpt>
      <trkpt lat="42.2666710" lon="1.6880170">
        <ele>1962.0</ele>
        <time>2015-08-13T17:27:48Z</time>
      </trkpt>
      <trkpt lat="42.2666240" lon="1.6880430">
        <ele>1960.6</ele>
        <time>2015-08-13T17:27:50Z</time>
      </trkpt>
      <trkpt lat="42.2665640" lon="1.6880460">
        <ele>1959.2</ele>
        <time>2015-08-13T17:27:52Z</time>
      </trkpt>
      <trkpt lat="42.2665270" lon="1.6880230">
        <ele>1958.5</ele>
        <time>2015-08-13T17:27:53Z</time>
      </trkpt>
      <trkpt lat="42.2664920" lon="1.6880300">
        <ele>1957.6</ele>
        <time>2015-08-13T17:27:54Z</time>
      </trkpt>
      <trkpt lat="42.2664450" lon="1.6880460">
        <ele>1956.4</ele>
        <time>2015-08-13T17:27:55Z</time>
      </trkpt>
      <trkpt lat="42.2664050" lon="1.6880640">
        <ele>1955.2</ele>
        <time>2015-08-13T17:27:56Z</time>
      </trkpt>
      <trkpt lat="42.2663630" lon="1.6880790">
        <ele>1954.1</ele>
        <time>2015-08-13T17:27:57Z</time>
      </trkpt>
      <trkpt lat="42.2663210" lon="1.6880950">
        <ele>1953.0</ele>
        <time>2015-08-13T17:27:58Z</time>
      </trkpt>
      <trkpt lat="42.2662740" lon="1.6881400">
        <ele>1951.4</ele>
        <time>2015-08-13T17:27:59Z</time>
      </trkpt>
      <trkpt lat="42.2662280" lon="1.6881730">
        <ele>1950.1</ele>
        <time>2015-08-13T17:28:00Z</time>
      </trkpt>
      <trkpt lat="42.2661850" lon="1.6882030">
        <ele>1948.9</ele>
        <time>2015-08-13T17:28:01Z</time>
      </trkpt>
      <trkpt lat="42.2661420" lon="1.6882040">
        <ele>1948.0</ele>
        <time>2015-08-13T17:28:02Z</time>
      </trkpt>
      <trkpt lat="42.2661090" lon="1.6882300">
        <ele>1947.1</ele>
        <time>2015-08-13T17:28:03Z</time>
      </trkpt>
      <trkpt lat="42.2660780" lon="1.6882420">
        <ele>1946.4</ele>
        <time>2015-08-13T17:28:04Z</time>
      </trkpt>
      <trkpt lat="42.2660400" lon="1.6882510">
        <ele>1945.6</ele>
        <time>2015-08-13T17:28:05Z</time>
      </trkpt>
      <trkpt lat="42.2659980" lon="1.6882610">
        <ele>1944.6</ele>
        <time>2015-08-13T17:28:06Z</time>
      </trkpt>
      <trkpt lat="42.2659430" lon="1.6882640">
        <ele>1943.5</ele>
        <time>2015-08-13T17:28:07Z</time>
      </trkpt>
      <trkpt lat="42.2658870" lon="1.6882730">
        <ele>1942.3</ele>
        <time>2015-08-13T17:28:08Z</time>
      </trkpt>
      <trkpt lat="42.2658200" lon="1.6883070">
        <ele>1940.7</ele>
        <time>2015-08-13T17:28:09Z</time>
      </trkpt>
      <trkpt lat="42.2657600" lon="1.6883670">
        <ele>1939.0</ele>
        <time>2015-08-13T17:28:10Z</time>
      </trkpt>
      <trkpt lat="42.2657190" lon="1.6884380">
        <ele>1937.7</ele>
        <time>2015-08-13T17:28:11Z</time>
      </trkpt>
      <trkpt lat="42.2656840" lon="1.6885240">
        <ele>1936.4</ele>
        <time>2015-08-13T17:28:12Z</time>
      </trkpt>
      <trkpt lat="42.2656580" lon="1.6886120">
        <ele>1935.3</ele>
        <time>2015-08-13T17:28:13Z</time>
      </trkpt>
      <trkpt lat="42.2656360" lon="1.6887030">
        <ele>1934.3</ele>
        <time>2015-08-13T17:28:14Z</time>
      </trkpt>
      <trkpt lat="42.2656070" lon="1.6887920">
        <ele>1933.1</ele>
        <time>2015-08-13T17:28:15Z</time>
      </trkpt>
      <trkpt lat="42.2655680" lon="1.6888870">
        <ele>1931.8</ele>
        <time>2015-08-13T17:28:16Z</time>
      </trkpt>
      <trkpt lat="42.2655380" lon="1.6889620">
        <ele>1930.8</ele>
        <time>2015-08-13T17:28:17Z</time>
      </trkpt>
      <trkpt lat="42.2655020" lon="1.6890220">
        <ele>1929.8</ele>
        <time>2015-08-13T17:28:18Z</time>
      </trkpt>
      <trkpt lat="42.2654670" lon="1.6890700">
        <ele>1928.9</ele>
        <time>2015-08-13T17:28:19Z</time>
      </trkpt>
      <trkpt lat="42.2654310" lon="1.6891250">
        <ele>1928.0</ele>
        <time>2015-08-13T17:28:20Z</time>
      </trkpt>
      <trkpt lat="42.2653980" lon="1.6890950">
        <ele>1927.2</ele>
        <time>2015-08-13T17:28:59Z</time>
      </trkpt>
      <trkpt lat="42.2653660" lon="1.6891260">
        <ele>1925.7</ele>
        <time>2015-08-13T17:29:01Z</time>
      </trkpt>
      <trkpt lat="42.2653210" lon="1.6891490">
        <ele>1923.9</ele>
        <time>2015-08-13T17:29:02Z</time>
      </trkpt>
      <trkpt lat="42.2652790" lon="1.6891690">
        <ele>1922.1</ele>
        <time>2015-08-13T17:29:03Z</time>
      </trkpt>
      <trkpt lat="42.2652300" lon="1.6891420">
        <ele>1920.3</ele>
        <time>2015-08-13T17:29:04Z</time>
      </trkpt>
      <trkpt lat="42.2651700" lon="1.6891170">
        <ele>1918.1</ele>
        <time>2015-08-13T17:29:05Z</time>
      </trkpt>
      <trkpt lat="42.2651130" lon="1.6891220">
        <ele>1915.8</ele>
        <time>2015-08-13T17:29:06Z</time>
      </trkpt>
      <trkpt lat="42.2650630" lon="1.6891340">
        <ele>1913.8</ele>
        <time>2015-08-13T17:29:07Z</time>
      </trkpt>
      <trkpt lat="42.2650260" lon="1.6891200">
        <ele>1912.4</ele>
        <time>2015-08-13T17:29:08Z</time>
      </trkpt>
      <trkpt lat="42.2649720" lon="1.6890870">
        <ele>1910.3</ele>
        <time>2015-08-13T17:29:10Z</time>
      </trkpt>
      <trkpt lat="42.2649490" lon="1.6890620">
        <ele>1909.4</ele>
        <time>2015-08-13T17:29:11Z</time>
      </trkpt>
      <trkpt lat="42.2649290" lon="1.6890320">
        <ele>1908.6</ele>
        <time>2015-08-13T17:29:12Z</time>
      </trkpt>
      <trkpt lat="42.2648970" lon="1.6890310">
        <ele>1907.3</ele>
        <time>2015-08-13T17:29:13Z</time>
      </trkpt>
      <trkpt lat="42.2648440" lon="1.6890040">
        <ele>1905.2</ele>
        <time>2015-08-13T17:29:15Z</time>
      </trkpt>
      <trkpt lat="42.2648070" lon="1.6890090">
        <ele>1903.7</ele>
        <time>2015-08-13T17:29:16Z</time>
      </trkpt>
      <trkpt lat="42.2647770" lon="1.6890180">
        <ele>1902.5</ele>
        <time>2015-08-13T17:29:17Z</time>
      </trkpt>
      <trkpt lat="42.2647290" lon="1.6890240">
        <ele>1900.5</ele>
        <time>2015-08-13T17:29:19Z</time>
      </trkpt>
      <trkpt lat="42.2647010" lon="1.6890170">
        <ele>1899.4</ele>
        <time>2015-08-13T17:29:21Z</time>
      </trkpt>
      <trkpt lat="42.2646840" lon="1.6889890">
        <ele>1898.7</ele>
        <time>2015-08-13T17:31:08Z</time>
      </trkpt>
      <trkpt lat="42.2646520" lon="1.6889960">
        <ele>1897.4</ele>
        <time>2015-08-13T17:32:10Z</time>
      </trkpt>
      <trkpt lat="42.2646250" lon="1.6889950">
        <ele>1896.3</ele>
        <time>2015-08-13T17:32:13Z</time>
      </trkpt>
      <trkpt lat="42.2645970" lon="1.6889840">
        <ele>1895.1</ele>
        <time>2015-08-13T17:32:18Z</time>
      </trkpt>
      <trkpt lat="42.2645690" lon="1.6889730">
        <ele>1894.0</ele>
        <time>2015-08-13T17:32:22Z</time>
      </trkpt>
      <trkpt lat="42.2645280" lon="1.6889500">
        <ele>1892.3</ele>
        <time>2015-08-13T17:32:25Z</time>
      </trkpt>
      <trkpt lat="42.2644760" lon="1.6889470">
        <ele>1890.3</ele>
        <time>2015-08-13T17:32:27Z</time>
      </trkpt>
      <trkpt lat="42.2644440" lon="1.6889230">
        <ele>1888.9</ele>
        <time>2015-08-13T17:32:28Z</time>
      </trkpt>
      <trkpt lat="42.2644080" lon="1.6889130">
        <ele>1887.5</ele>
        <time>2015-08-13T17:32:29Z</time>
      </trkpt>
      <trkpt lat="42.2643690" lon="1.6889160">
        <ele>1886.0</ele>
        <time>2015-08-13T17:32:30Z</time>
      </trkpt>
      <trkpt lat="42.2643390" lon="1.6889510">
        <ele>1884.9</ele>
        <time>2015-08-13T17:32:31Z</time>
      </trkpt>
      <trkpt lat="42.2643140" lon="1.6889890">
        <ele>1884.1</ele>
        <time>2015-08-13T17:32:32Z</time>
      </trkpt>
      <trkpt lat="42.2642890" lon="1.6890100">
        <ele>1883.3</ele>
        <time>2015-08-13T17:32:33Z</time>
      </trkpt>
      <trkpt lat="42.2642630" lon="1.6890240">
        <ele>1882.3</ele>
        <time>2015-08-13T17:32:34Z</time>
      </trkpt>
      <trkpt lat="42.2642270" lon="1.6890420">
        <ele>1881.1</ele>
        <time>2015-08-13T17:32:35Z</time>
      </trkpt>
      <trkpt lat="42.2642000" lon="1.6890530">
        <ele>1880.1</ele>
        <time>2015-08-13T17:32:36Z</time>
      </trkpt>
      <trkpt lat="42.2641700" lon="1.6890640">
        <ele>1879.0</ele>
        <time>2015-08-13T17:32:37Z</time>
      </trkpt>
      <trkpt lat="42.2641420" lon="1.6890750">
        <ele>1878.0</ele>
        <time>2015-08-13T17:32:38Z</time>
      </trkpt>
      <trkpt lat="42.2641150" lon="1.6891190">
        <ele>1877.3</ele>
        <time>2015-08-13T17:32:40Z</time>
      </trkpt>
      <trkpt lat="42.2640880" lon="1.6891400">
        <ele>1876.4</ele>
        <time>2015-08-13T17:32:44Z</time>
      </trkpt>
      <trkpt lat="42.2640470" lon="1.6891740">
        <ele>1875.1</ele>
        <time>2015-08-13T17:32:47Z</time>
      </trkpt>
      <trkpt lat="42.2640160" lon="1.6892320">
        <ele>1874.4</ele>
        <time>2015-08-13T17:32:49Z</time>
      </trkpt>
      <trkpt lat="42.2640000" lon="1.6892810">
        <ele>1874.2</ele>
        <time>2015-08-13T17:32:50Z</time>
      </trkpt>
      <trkpt lat="42.2639730" lon="1.6893220">
        <ele>1873.5</ele>
        <time>2015-08-13T17:32:51Z</time>
      </trkpt>
      <trkpt lat="42.2639390" lon="1.6893460">
        <ele>1872.5</ele>
        <time>2015-08-13T17:32:52Z</time>
      </trkpt>
      <trkpt lat="42.2639090" lon="1.6893790">
        <ele>1871.7</ele>
        <time>2015-08-13T17:32:53Z</time>
      </trkpt>
      <trkpt lat="42.2638820" lon="1.6894140">
        <ele>1871.0</ele>
        <time>2015-08-13T17:32:54Z</time>
      </trkpt>
      <trkpt lat="42.2638440" lon="1.6894410">
        <ele>1869.9</ele>
        <time>2015-08-13T17:32:55Z</time>
      </trkpt>
      <trkpt lat="42.2638140" lon="1.6894830">
        <ele>1869.2</ele>
        <time>2015-08-13T17:32:56Z</time>
      </trkpt>
      <trkpt lat="42.2637810" lon="1.6895170">
        <ele>1868.4</ele>
        <time>2015-08-13T17:32:57Z</time>
      </trkpt>
      <trkpt lat="42.2637440" lon="1.6895550">
        <ele>1867.8</ele>
        <time>2015-08-13T17:32:58Z</time>
      </trkpt>
      <trkpt lat="42.2637050" lon="1.6896010">
        <ele>1868.4</ele>
        <time>2015-08-13T17:32:59Z</time>
      </trkpt>
      <trkpt lat="42.2636460" lon="1.6896470">
        <ele>1869.3</ele>
        <time>2015-08-13T17:33:00Z</time>
      </trkpt>
      <trkpt lat="42.2636050" lon="1.6896900">
        <ele>1870.0</ele>
        <time>2015-08-13T17:33:01Z</time>
      </trkpt>
      <trkpt lat="42.2635690" lon="1.6897310">
        <ele>1870.7</ele>
        <time>2015-08-13T17:33:02Z</time>
      </trkpt>
      <trkpt lat="42.2635330" lon="1.6897880">
        <ele>1871.5</ele>
        <time>2015-08-13T17:33:03Z</time>
      </trkpt>
      <trkpt lat="42.2634970" lon="1.6898480">
        <ele>1872.4</ele>
        <time>2015-08-13T17:33:04Z</time>
      </trkpt>
      <trkpt lat="42.2634600" lon="1.6899080">
        <ele>1873.4</ele>
        <time>2015-08-13T17:33:05Z</time>
      </trkpt>
      <trkpt lat="42.2634200" lon="1.6899660">
        <ele>1874.4</ele>
        <time>2015-08-13T17:33:06Z</time>
      </trkpt>
      <trkpt lat="42.2633710" lon="1.6900290">
        <ele>1875.5</ele>
        <time>2015-08-13T17:33:07Z</time>
      </trkpt>
      <trkpt lat="42.2633180" lon="1.6900880">
        <ele>1876.7</ele>
        <time>2015-08-13T17:33:08Z</time>
      </trkpt>
      <trkpt lat="42.2632560" lon="1.6901290">
        <ele>1877.8</ele>
        <time>2015-08-13T17:33:09Z</time>
      </trkpt>
      <trkpt lat="42.2631950" lon="1.6901940">
        <ele>1879.1</ele>
        <time>2015-08-13T17:33:10Z</time>
      </trkpt>
      <trkpt lat="42.2631540" lon="1.6902130">
        <ele>1879.8</ele>
        <time>2015-08-13T17:33:11Z</time>
      </trkpt>
      <trkpt lat="42.2631260" lon="1.6902600">
        <ele>1880.7</ele>
        <time>2015-08-13T17:33:13Z</time>
      </trkpt>
      <trkpt lat="42.2631170" lon="1.6903000">
        <ele>1881.3</ele>
        <time>2015-08-13T17:33:14Z</time>
      </trkpt>
      <trkpt lat="42.2631200" lon="1.6903560">
        <ele>1882.0</ele>
        <time>2015-08-13T17:33:16Z</time>
      </trkpt>
      <trkpt lat="42.2631280" lon="1.6904030">
        <ele>1882.5</ele>
        <time>2015-08-13T17:33:18Z</time>
      </trkpt>
      <trkpt lat="42.2631440" lon="1.6904520">
        <ele>1882.4</ele>
        <time>2015-08-13T17:33:20Z</time>
      </trkpt>
      <trkpt lat="42.2631650" lon="1.6905060">
        <ele>1882.0</ele>
        <time>2015-08-13T17:33:22Z</time>
      </trkpt>
      <trkpt lat="42.2631910" lon="1.6905630">
        <ele>1881.6</ele>
        <time>2015-08-13T17:33:24Z</time>
      </trkpt>
      <trkpt lat="42.2632050" lon="1.6906080">
        <ele>1881.4</ele>
        <time>2015-08-13T17:33:26Z</time>
      </trkpt>
      <trkpt lat="42.2632150" lon="1.6906440">
        <ele>1881.2</ele>
        <time>2015-08-13T17:33:29Z</time>
      </trkpt>
      <trkpt lat="42.2631860" lon="1.6906520">
        <ele>1881.4</ele>
        <time>2015-08-13T17:33:34Z</time>
      </trkpt>
      <trkpt lat="42.2631740" lon="1.6906170">
        <ele>1881.6</ele>
        <time>2015-08-13T17:33:38Z</time>
      </trkpt>
      <trkpt lat="42.2631690" lon="1.6905680">
        <ele>1881.8</ele>
        <time>2015-08-13T17:33:40Z</time>
      </trkpt>
      <trkpt lat="42.2631560" lon="1.6905200">
        <ele>1882.1</ele>
        <time>2015-08-13T17:33:42Z</time>
      </trkpt>
      <trkpt lat="42.2631430" lon="1.6904760">
        <ele>1882.4</ele>
        <time>2015-08-13T17:33:44Z</time>
      </trkpt>
      <trkpt lat="42.2631260" lon="1.6904380">
        <ele>1882.7</ele>
        <time>2015-08-13T17:33:46Z</time>
      </trkpt>
      <trkpt lat="42.2631220" lon="1.6904000">
        <ele>1882.6</ele>
        <time>2015-08-13T17:33:48Z</time>
      </trkpt>
      <trkpt lat="42.2631090" lon="1.6903560">
        <ele>1882.1</ele>
        <time>2015-08-13T17:33:50Z</time>
      </trkpt>
      <trkpt lat="42.2630960" lon="1.6903050">
        <ele>1881.6</ele>
        <time>2015-08-13T17:33:52Z</time>
      </trkpt>
      <trkpt lat="42.2630830" lon="1.6902700">
        <ele>1881.2</ele>
        <time>2015-08-13T17:33:54Z</time>
      </trkpt>
      <trkpt lat="42.2630680" lon="1.6902270">
        <ele>1880.8</ele>
        <time>2015-08-13T17:33:56Z</time>
      </trkpt>
      <trkpt lat="42.2630550" lon="1.6901860">
        <ele>1880.4</ele>
        <time>2015-08-13T17:33:58Z</time>
      </trkpt>
      <trkpt lat="42.2630420" lon="1.6901400">
        <ele>1879.9</ele>
        <time>2015-08-13T17:34:00Z</time>
      </trkpt>
      <trkpt lat="42.2630330" lon="1.6900990">
        <ele>1879.4</ele>
        <time>2015-08-13T17:34:02Z</time>
      </trkpt>
      <trkpt lat="42.2630250" lon="1.6900580">
        <ele>1878.9</ele>
        <time>2015-08-13T17:34:04Z</time>
      </trkpt>
      <trkpt lat="42.2630180" lon="1.6900160">
        <ele>1878.4</ele>
        <time>2015-08-13T17:34:06Z</time>
      </trkpt>
      <trkpt lat="42.2630070" lon="1.6899660">
        <ele>1877.8</ele>
        <time>2015-08-13T17:34:08Z</time>
      </trkpt>
      <trkpt lat="42.2630000" lon="1.6899180">
        <ele>1877.2</ele>
        <time>2015-08-13T17:34:10Z</time>
      </trkpt>
      <trkpt lat="42.2629980" lon="1.6898770">
        <ele>1876.6</ele>
        <time>2015-08-13T17:34:12Z</time>
      </trkpt>
      <trkpt lat="42.2629880" lon="1.6898380">
        <ele>1876.1</ele>
        <time>2015-08-13T17:34:14Z</time>
      </trkpt>
      <trkpt lat="42.2629840" lon="1.6897970">
        <ele>1875.6</ele>
        <time>2015-08-13T17:34:16Z</time>
      </trkpt>
      <trkpt lat="42.2629840" lon="1.6897500">
        <ele>1874.9</ele>
        <time>2015-08-13T17:34:19Z</time>
      </trkpt>
      <trkpt lat="42.2629800" lon="1.6897140">
        <ele>1874.5</ele>
        <time>2015-08-13T17:34:21Z</time>
      </trkpt>
      <trkpt lat="42.2629630" lon="1.6896760">
        <ele>1874.0</ele>
        <time>2015-08-13T17:34:24Z</time>
      </trkpt>
      <trkpt lat="42.2629530" lon="1.6896420">
        <ele>1873.6</ele>
        <time>2015-08-13T17:34:35Z</time>
      </trkpt>
      <trkpt lat="42.2629470" lon="1.6895990">
        <ele>1873.0</ele>
        <time>2015-08-13T17:34:48Z</time>
      </trkpt>
      <trkpt lat="42.2629290" lon="1.6895590">
        <ele>1872.6</ele>
        <time>2015-08-13T17:34:50Z</time>
      </trkpt>
      <trkpt lat="42.2629090" lon="1.6894990">
        <ele>1871.8</ele>
        <time>2015-08-13T17:34:52Z</time>
      </trkpt>
      <trkpt lat="42.2628910" lon="1.6894670">
        <ele>1871.5</ele>
        <time>2015-08-13T17:34:53Z</time>
      </trkpt>
      <trkpt lat="42.2628710" lon="1.6894380">
        <ele>1871.3</ele>
        <time>2015-08-13T17:34:54Z</time>
      </trkpt>
      <trkpt lat="42.2628550" lon="1.6894010">
        <ele>1870.9</ele>
        <time>2015-08-13T17:34:55Z</time>
      </trkpt>
      <trkpt lat="42.2628320" lon="1.6893620">
        <ele>1870.6</ele>
        <time>2015-08-13T17:34:56Z</time>
      </trkpt>
      <trkpt lat="42.2628080" lon="1.6893280">
        <ele>1870.4</ele>
        <time>2015-08-13T17:34:57Z</time>
      </trkpt>
      <trkpt lat="42.2627800" lon="1.6892780">
        <ele>1870.1</ele>
        <time>2015-08-13T17:34:58Z</time>
      </trkpt>
      <trkpt lat="42.2627550" lon="1.6892250">
        <ele>1869.7</ele>
        <time>2015-08-13T17:34:59Z</time>
      </trkpt>
      <trkpt lat="42.2627310" lon="1.6891770">
        <ele>1869.5</ele>
        <time>2015-08-13T17:35:00Z</time>
      </trkpt>
      <trkpt lat="42.2627080" lon="1.6891400">
        <ele>1869.3</ele>
        <time>2015-08-13T17:35:01Z</time>
      </trkpt>
      <trkpt lat="42.2626800" lon="1.6890890">
        <ele>1869.2</ele>
        <time>2015-08-13T17:35:02Z</time>
      </trkpt>
      <trkpt lat="42.2626500" lon="1.6890300">
        <ele>1869.0</ele>
        <time>2015-08-13T17:35:03Z</time>
      </trkpt>
      <trkpt lat="42.2626230" lon="1.6889690">
        <ele>1868.8</ele>
        <time>2015-08-13T17:35:04Z</time>
      </trkpt>
      <trkpt lat="42.2625990" lon="1.6889150">
        <ele>1868.6</ele>
        <time>2015-08-13T17:35:05Z</time>
      </trkpt>
      <trkpt lat="42.2625920" lon="1.6888460">
        <ele>1868.1</ele>
        <time>2015-08-13T17:35:06Z</time>
      </trkpt>
      <trkpt lat="42.2625640" lon="1.6887930">
        <ele>1868.2</ele>
        <time>2015-08-13T17:35:07Z</time>
      </trkpt>
      <trkpt lat="42.2625400" lon="1.6887140">
        <ele>1867.6</ele>
        <time>2015-08-13T17:35:08Z</time>
      </trkpt>
      <trkpt lat="42.2625100" lon="1.6886530">
        <ele>1867.2</ele>
        <time>2015-08-13T17:35:09Z</time>
      </trkpt>
      <trkpt lat="42.2624720" lon="1.6885810">
        <ele>1866.8</ele>
        <time>2015-08-13T17:35:10Z</time>
      </trkpt>
      <trkpt lat="42.2624390" lon="1.6885320">
        <ele>1866.7</ele>
        <time>2015-08-13T17:35:11Z</time>
      </trkpt>
      <trkpt lat="42.2624110" lon="1.6884830">
        <ele>1866.6</ele>
        <time>2015-08-13T17:35:12Z</time>
      </trkpt>
      <trkpt lat="42.2623860" lon="1.6884310">
        <ele>1866.5</ele>
        <time>2015-08-13T17:35:13Z</time>
      </trkpt>
      <trkpt lat="42.2623750" lon="1.6883920">
        <ele>1866.2</ele>
        <time>2015-08-13T17:35:14Z</time>
      </trkpt>
      <trkpt lat="42.2623560" lon="1.6883510">
        <ele>1866.1</ele>
        <time>2015-08-13T17:35:15Z</time>
      </trkpt>
      <trkpt lat="42.2623370" lon="1.6883190">
        <ele>1866.1</ele>
        <time>2015-08-13T17:35:16Z</time>
      </trkpt>
      <trkpt lat="42.2623140" lon="1.6882840">
        <ele>1866.2</ele>
        <time>2015-08-13T17:35:17Z</time>
      </trkpt>
      <trkpt lat="42.2622890" lon="1.6882460">
        <ele>1866.4</ele>
        <time>2015-08-13T17:35:18Z</time>
      </trkpt>
      <trkpt lat="42.2622630" lon="1.6882050">
        <ele>1866.6</ele>
        <time>2015-08-13T17:35:19Z</time>
      </trkpt>
      <trkpt lat="42.2622450" lon="1.6881600">
        <ele>1866.6</ele>
        <time>2015-08-13T17:35:20Z</time>
      </trkpt>
      <trkpt lat="42.2622270" lon="1.6881030">
        <ele>1866.4</ele>
        <time>2015-08-13T17:35:21Z</time>
      </trkpt>
      <trkpt lat="42.2621990" lon="1.6880470">
        <ele>1866.6</ele>
        <time>2015-08-13T17:35:22Z</time>
      </trkpt>
      <trkpt lat="42.2621750" lon="1.6879980">
        <ele>1866.8</ele>
        <time>2015-08-13T17:35:23Z</time>
      </trkpt>
      <trkpt lat="42.2621570" lon="1.6879400">
        <ele>1866.8</ele>
        <time>2015-08-13T17:35:24Z</time>
      </trkpt>
      <trkpt lat="42.2621350" lon="1.6878810">
        <ele>1866.5</ele>
        <time>2015-08-13T17:35:25Z</time>
      </trkpt>
      <trkpt lat="42.2621100" lon="1.6878320">
        <ele>1866.3</ele>
        <time>2015-08-13T17:35:26Z</time>
      </trkpt>
      <trkpt lat="42.2620790" lon="1.6877710">
        <ele>1865.8</ele>
        <time>2015-08-13T17:35:27Z</time>
      </trkpt>
      <trkpt lat="42.2620630" lon="1.6877120">
        <ele>1864.2</ele>
        <time>2015-08-13T17:35:28Z</time>
      </trkpt>
      <trkpt lat="42.2620370" lon="1.6876510">
        <ele>1862.5</ele>
        <time>2015-08-13T17:35:29Z</time>
      </trkpt>
      <trkpt lat="42.2620070" lon="1.6875830">
        <ele>1860.7</ele>
        <time>2015-08-13T17:35:30Z</time>
      </trkpt>
      <trkpt lat="42.2619800" lon="1.6875230">
        <ele>1859.2</ele>
        <time>2015-08-13T17:35:31Z</time>
      </trkpt>
      <trkpt lat="42.2619450" lon="1.6874610">
        <ele>1857.7</ele>
        <time>2015-08-13T17:35:32Z</time>
      </trkpt>
      <trkpt lat="42.2619130" lon="1.6874030">
        <ele>1856.5</ele>
        <time>2015-08-13T17:35:33Z</time>
      </trkpt>
      <trkpt lat="42.2618770" lon="1.6873540">
        <ele>1855.4</ele>
        <time>2015-08-13T17:35:34Z</time>
      </trkpt>
      <trkpt lat="42.2618400" lon="1.6872850">
        <ele>1854.2</ele>
        <time>2015-08-13T17:35:35Z</time>
      </trkpt>
      <trkpt lat="42.2618120" lon="1.6872170">
        <ele>1853.1</ele>
        <time>2015-08-13T17:35:36Z</time>
      </trkpt>
      <trkpt lat="42.2617800" lon="1.6871590">
        <ele>1852.3</ele>
        <time>2015-08-13T17:35:37Z</time>
      </trkpt>
      <trkpt lat="42.2617420" lon="1.6871010">
        <ele>1851.6</ele>
        <time>2015-08-13T17:35:38Z</time>
      </trkpt>
      <trkpt lat="42.2617050" lon="1.6870280">
        <ele>1850.7</ele>
        <time>2015-08-13T17:35:39Z</time>
      </trkpt>
      <trkpt lat="42.2616630" lon="1.6869630">
        <ele>1849.9</ele>
        <time>2015-08-13T17:35:40Z</time>
      </trkpt>
      <trkpt lat="42.2616170" lon="1.6869020">
        <ele>1849.2</ele>
        <time>2015-08-13T17:35:41Z</time>
      </trkpt>
      <trkpt lat="42.2615800" lon="1.6868400">
        <ele>1848.6</ele>
        <time>2015-08-13T17:35:42Z</time>
      </trkpt>
      <trkpt lat="42.2615400" lon="1.6867870">
        <ele>1848.2</ele>
        <time>2015-08-13T17:35:43Z</time>
      </trkpt>
      <trkpt lat="42.2614800" lon="1.6867370">
        <ele>1848.0</ele>
        <time>2015-08-13T17:35:44Z</time>
      </trkpt>
      <trkpt lat="42.2614240" lon="1.6866870">
        <ele>1847.8</ele>
        <time>2015-08-13T17:35:45Z</time>
      </trkpt>
      <trkpt lat="42.2613600" lon="1.6866320">
        <ele>1847.8</ele>
        <time>2015-08-13T17:35:46Z</time>
      </trkpt>
      <trkpt lat="42.2613530" lon="1.6865320">
        <ele>1847.0</ele>
        <time>2015-08-13T17:35:47Z</time>
      </trkpt>
      <trkpt lat="42.2613090" lon="1.6864750">
        <ele>1847.0</ele>
        <time>2015-08-13T17:35:48Z</time>
      </trkpt>
      <trkpt lat="42.2612660" lon="1.6864250">
        <ele>1847.1</ele>
        <time>2015-08-13T17:35:49Z</time>
      </trkpt>
      <trkpt lat="42.2612470" lon="1.6863650">
        <ele>1846.8</ele>
        <time>2015-08-13T17:35:50Z</time>
      </trkpt>
      <trkpt lat="42.2611990" lon="1.6863100">
        <ele>1845.5</ele>
        <time>2015-08-13T17:35:51Z</time>
      </trkpt>
      <trkpt lat="42.2611510" lon="1.6862490">
        <ele>1844.4</ele>
        <time>2015-08-13T17:35:52Z</time>
      </trkpt>
      <trkpt lat="42.2611030" lon="1.6862030">
        <ele>1843.4</ele>
        <time>2015-08-13T17:35:53Z</time>
      </trkpt>
      <trkpt lat="42.2610440" lon="1.6861450">
        <ele>1842.3</ele>
        <time>2015-08-13T17:35:54Z</time>
      </trkpt>
      <trkpt lat="42.2609760" lon="1.6860860">
        <ele>1841.5</ele>
        <time>2015-08-13T17:35:55Z</time>
      </trkpt>
      <trkpt lat="42.2609150" lon="1.6860280">
        <ele>1841.1</ele>
        <time>2015-08-13T17:35:56Z</time>
      </trkpt>
      <trkpt lat="42.2608640" lon="1.6859540">
        <ele>1841.0</ele>
        <time>2015-08-13T17:35:57Z</time>
      </trkpt>
      <trkpt lat="42.2608170" lon="1.6858900">
        <ele>1841.2</ele>
        <time>2015-08-13T17:35:58Z</time>
      </trkpt>
      <trkpt lat="42.2607550" lon="1.6858170">
        <ele>1841.8</ele>
        <time>2015-08-13T17:35:59Z</time>
      </trkpt>
      <trkpt lat="42.2607020" lon="1.6857540">
        <ele>1842.6</ele>
        <time>2015-08-13T17:36:00Z</time>
      </trkpt>
      <trkpt lat="42.2606530" lon="1.6856900">
        <ele>1843.7</ele>
        <time>2015-08-13T17:36:01Z</time>
      </trkpt>
      <trkpt lat="42.2606110" lon="1.6856410">
        <ele>1844.8</ele>
        <time>2015-08-13T17:36:02Z</time>
      </trkpt>
      <trkpt lat="42.2605630" lon="1.6856030">
        <ele>1845.9</ele>
        <time>2015-08-13T17:36:03Z</time>
      </trkpt>
      <trkpt lat="42.2605200" lon="1.6855760">
        <ele>1847.0</ele>
        <time>2015-08-13T17:36:04Z</time>
      </trkpt>
      <trkpt lat="42.2604760" lon="1.6856070">
        <ele>1846.9</ele>
        <time>2015-08-13T17:36:06Z</time>
      </trkpt>
      <trkpt lat="42.2604510" lon="1.6856200">
        <ele>1847.0</ele>
        <time>2015-08-13T17:36:17Z</time>
      </trkpt>
      <trkpt lat="42.2603980" lon="1.6856110">
        <ele>1848.2</ele>
        <time>2015-08-13T17:38:45Z</time>
      </trkpt>
      <trkpt lat="42.2603330" lon="1.6855930">
        <ele>1850.7</ele>
        <time>2015-08-13T17:38:47Z</time>
      </trkpt>
      <trkpt lat="42.2602930" lon="1.6855800">
        <ele>1852.3</ele>
        <time>2015-08-13T17:38:48Z</time>
      </trkpt>
      <trkpt lat="42.2602520" lon="1.6855440">
        <ele>1854.6</ele>
        <time>2015-08-13T17:38:49Z</time>
      </trkpt>
      <trkpt lat="42.2602170" lon="1.6854940">
        <ele>1857.1</ele>
        <time>2015-08-13T17:38:50Z</time>
      </trkpt>
      <trkpt lat="42.2601740" lon="1.6854600">
        <ele>1859.5</ele>
        <time>2015-08-13T17:38:51Z</time>
      </trkpt>
      <trkpt lat="42.2601260" lon="1.6854460">
        <ele>1861.6</ele>
        <time>2015-08-13T17:38:52Z</time>
      </trkpt>
      <trkpt lat="42.2600680" lon="1.6854920">
        <ele>1862.3</ele>
        <time>2015-08-13T17:38:53Z</time>
      </trkpt>
      <trkpt lat="42.2600180" lon="1.6855310">
        <ele>1862.8</ele>
        <time>2015-08-13T17:38:54Z</time>
      </trkpt>
      <trkpt lat="42.2599780" lon="1.6855800">
        <ele>1862.6</ele>
        <time>2015-08-13T17:38:55Z</time>
      </trkpt>
      <trkpt lat="42.2599420" lon="1.6856610">
        <ele>1861.2</ele>
        <time>2015-08-13T17:38:56Z</time>
      </trkpt>
      <trkpt lat="42.2598990" lon="1.6857430">
        <ele>1859.8</ele>
        <time>2015-08-13T17:38:57Z</time>
      </trkpt>
      <trkpt lat="42.2598560" lon="1.6858110">
        <ele>1858.7</ele>
        <time>2015-08-13T17:38:58Z</time>
      </trkpt>
      <trkpt lat="42.2598150" lon="1.6858820">
        <ele>1857.4</ele>
        <time>2015-08-13T17:38:59Z</time>
      </trkpt>
      <trkpt lat="42.2597720" lon="1.6858850">
        <ele>1858.4</ele>
        <time>2015-08-13T17:39:00Z</time>
      </trkpt>
      <trkpt lat="42.2596990" lon="1.6859020">
        <ele>1859.7</ele>
        <time>2015-08-13T17:39:01Z</time>
      </trkpt>
      <trkpt lat="42.2596490" lon="1.6859050">
        <ele>1860.9</ele>
        <time>2015-08-13T17:39:02Z</time>
      </trkpt>
      <trkpt lat="42.2595920" lon="1.6859300">
        <ele>1861.4</ele>
        <time>2015-08-13T17:39:03Z</time>
      </trkpt>
      <trkpt lat="42.2595390" lon="1.6859280">
        <ele>1864.1</ele>
        <time>2015-08-13T17:39:04Z</time>
      </trkpt>
      <trkpt lat="42.2594720" lon="1.6859160">
        <ele>1868.2</ele>
        <time>2015-08-13T17:39:05Z</time>
      </trkpt>
      <trkpt lat="42.2594090" lon="1.6859090">
        <ele>1871.8</ele>
        <time>2015-08-13T17:39:06Z</time>
      </trkpt>
      <trkpt lat="42.2593520" lon="1.6859130">
        <ele>1874.7</ele>
        <time>2015-08-13T17:39:07Z</time>
      </trkpt>
      <trkpt lat="42.2593010" lon="1.6859400">
        <ele>1876.3</ele>
        <time>2015-08-13T17:39:08Z</time>
      </trkpt>
      <trkpt lat="42.2593250" lon="1.6860840">
        <ele>1869.3</ele>
        <time>2015-08-13T17:39:09Z</time>
      </trkpt>
      <trkpt lat="42.2593060" lon="1.6861390">
        <ele>1868.1</ele>
        <time>2015-08-13T17:39:10Z</time>
      </trkpt>
      <trkpt lat="42.2592930" lon="1.6862100">
        <ele>1865.9</ele>
        <time>2015-08-13T17:39:11Z</time>
      </trkpt>
      <trkpt lat="42.2592690" lon="1.6862790">
        <ele>1864.3</ele>
        <time>2015-08-13T17:39:12Z</time>
      </trkpt>
      <trkpt lat="42.2592260" lon="1.6863190">
        <ele>1864.6</ele>
        <time>2015-08-13T17:39:13Z</time>
      </trkpt>
      <trkpt lat="42.2591880" lon="1.6863660">
        <ele>1864.1</ele>
        <time>2015-08-13T17:39:14Z</time>
      </trkpt>
      <trkpt lat="42.2591530" lon="1.6863980">
        <ele>1864.2</ele>
        <time>2015-08-13T17:39:15Z</time>
      </trkpt>
      <trkpt lat="42.2591230" lon="1.6864370">
        <ele>1863.6</ele>
        <time>2015-08-13T17:39:16Z</time>
      </trkpt>
      <trkpt lat="42.2590760" lon="1.6864630">
        <ele>1864.3</ele>
        <time>2015-08-13T17:39:17Z</time>
      </trkpt>
      <trkpt lat="42.2590240" lon="1.6864820">
        <ele>1865.5</ele>
        <time>2015-08-13T17:39:18Z</time>
      </trkpt>
      <trkpt lat="42.2589880" lon="1.6865060">
        <ele>1865.7</ele>
        <time>2015-08-13T17:39:19Z</time>
      </trkpt>
      <trkpt lat="42.2589520" lon="1.6865230">
        <ele>1866.2</ele>
        <time>2015-08-13T17:39:20Z</time>
      </trkpt>
      <trkpt lat="42.2589080" lon="1.6865270">
        <ele>1867.8</ele>
        <time>2015-08-13T17:39:21Z</time>
      </trkpt>
      <trkpt lat="42.2588740" lon="1.6865270">
        <ele>1869.2</ele>
        <time>2015-08-13T17:39:22Z</time>
      </trkpt>
      <trkpt lat="42.2588240" lon="1.6865070">
        <ele>1872.6</ele>
        <time>2015-08-13T17:39:23Z</time>
      </trkpt>
      <trkpt lat="42.2587790" lon="1.6864860">
        <ele>1875.9</ele>
        <time>2015-08-13T17:39:24Z</time>
      </trkpt>
      <trkpt lat="42.2587390" lon="1.6864710">
        <ele>1878.9</ele>
        <time>2015-08-13T17:39:25Z</time>
      </trkpt>
      <trkpt lat="42.2587050" lon="1.6864740">
        <ele>1881.2</ele>
        <time>2015-08-13T17:39:26Z</time>
      </trkpt>
      <trkpt lat="42.2586680" lon="1.6865010">
        <ele>1882.1</ele>
        <time>2015-08-13T17:39:27Z</time>
      </trkpt>
      <trkpt lat="42.2586470" lon="1.6865240">
        <ele>1882.0</ele>
        <time>2015-08-13T17:39:28Z</time>
      </trkpt>
      <trkpt lat="42.2586150" lon="1.6865720">
        <ele>1881.2</ele>
        <time>2015-08-13T17:39:30Z</time>
      </trkpt>
      <trkpt lat="42.2585710" lon="1.6866940">
        <ele>1876.3</ele>
        <time>2015-08-13T17:39:31Z</time>
      </trkpt>
      <trkpt lat="42.2585460" lon="1.6867800">
        <ele>1872.4</ele>
        <time>2015-08-13T17:39:32Z</time>
      </trkpt>
      <trkpt lat="42.2585250" lon="1.6868580">
        <ele>1868.9</ele>
        <time>2015-08-13T17:39:33Z</time>
      </trkpt>
      <trkpt lat="42.2585000" lon="1.6869410">
        <ele>1865.3</ele>
        <time>2015-08-13T17:39:34Z</time>
      </trkpt>
      <trkpt lat="42.2584680" lon="1.6870080">
        <ele>1863.3</ele>
        <time>2015-08-13T17:39:35Z</time>
      </trkpt>
      <trkpt lat="42.2584340" lon="1.6870640">
        <ele>1862.2</ele>
        <time>2015-08-13T17:39:36Z</time>
      </trkpt>
      <trkpt lat="42.2583690" lon="1.6870640">
        <ele>1867.1</ele>
        <time>2015-08-13T17:39:37Z</time>
      </trkpt>
      <trkpt lat="42.2582900" lon="1.6870920">
        <ele>1871.4</ele>
        <time>2015-08-13T17:39:38Z</time>
      </trkpt>
      <trkpt lat="42.2582220" lon="1.6871140">
        <ele>1875.7</ele>
        <time>2015-08-13T17:39:39Z</time>
      </trkpt>
      <trkpt lat="42.2581530" lon="1.6871400">
        <ele>1879.8</ele>
        <time>2015-08-13T17:39:40Z</time>
      </trkpt>
      <trkpt lat="42.2580930" lon="1.6871610">
        <ele>1883.4</ele>
        <time>2015-08-13T17:39:41Z</time>
      </trkpt>
      <trkpt lat="42.2580230" lon="1.6871630">
        <ele>1888.6</ele>
        <time>2015-08-13T17:39:42Z</time>
      </trkpt>
      <trkpt lat="42.2579600" lon="1.6871690">
        <ele>1893.1</ele>
        <time>2015-08-13T17:39:43Z</time>
      </trkpt>
      <trkpt lat="42.2579040" lon="1.6871710">
        <ele>1897.0</ele>
        <time>2015-08-13T17:39:44Z</time>
      </trkpt>
      <trkpt lat="42.2578550" lon="1.6871570">
        <ele>1900.6</ele>
        <time>2015-08-13T17:39:45Z</time>
      </trkpt>
      <trkpt lat="42.2578280" lon="1.6871670">
        <ele>1901.9</ele>
        <time>2015-08-13T17:39:46Z</time>
      </trkpt>
      <trkpt lat="42.2577980" lon="1.6871950">
        <ele>1902.5</ele>
        <time>2015-08-13T17:39:47Z</time>
      </trkpt>
      <trkpt lat="42.2577690" lon="1.6872600">
        <ele>1901.6</ele>
        <time>2015-08-13T17:39:48Z</time>
      </trkpt>
      <trkpt lat="42.2577420" lon="1.6873310">
        <ele>1900.2</ele>
        <time>2015-08-13T17:39:49Z</time>
      </trkpt>
      <trkpt lat="42.2577270" lon="1.6873940">
        <ele>1898.5</ele>
        <time>2015-08-13T17:39:50Z</time>
      </trkpt>
      <trkpt lat="42.2577170" lon="1.6874510">
        <ele>1896.8</ele>
        <time>2015-08-13T17:39:51Z</time>
      </trkpt>
      <trkpt lat="42.2576990" lon="1.6875180">
        <ele>1895.1</ele>
        <time>2015-08-13T17:39:52Z</time>
      </trkpt>
      <trkpt lat="42.2576790" lon="1.6875770">
        <ele>1893.9</ele>
        <time>2015-08-13T17:39:53Z</time>
      </trkpt>
      <trkpt lat="42.2576650" lon="1.6876450">
        <ele>1892.0</ele>
        <time>2015-08-13T17:39:54Z</time>
      </trkpt>
      <trkpt lat="42.2576710" lon="1.6876980">
        <ele>1889.4</ele>
        <time>2015-08-13T17:39:55Z</time>
      </trkpt>
      <trkpt lat="42.2576810" lon="1.6877360">
        <ele>1887.1</ele>
        <time>2015-08-13T17:39:56Z</time>
      </trkpt>
      <trkpt lat="42.2576870" lon="1.6877750">
        <ele>1885.1</ele>
        <time>2015-08-13T17:39:57Z</time>
      </trkpt>
      <trkpt lat="42.2576990" lon="1.6878180">
        <ele>1882.5</ele>
        <time>2015-08-13T17:39:58Z</time>
      </trkpt>
      <trkpt lat="42.2577120" lon="1.6878510">
        <ele>1880.3</ele>
        <time>2015-08-13T17:39:59Z</time>
      </trkpt>
      <trkpt lat="42.2577030" lon="1.6879030">
        <ele>1878.7</ele>
        <time>2015-08-13T17:40:01Z</time>
      </trkpt>
      <trkpt lat="42.2577130" lon="1.6879570">
        <ele>1875.6</ele>
        <time>2015-08-13T17:40:03Z</time>
      </trkpt>
      <trkpt lat="42.2577220" lon="1.6880300">
        <ele>1871.6</ele>
        <time>2015-08-13T17:40:05Z</time>
      </trkpt>
      <trkpt lat="42.2577150" lon="1.6880680">
        <ele>1870.3</ele>
        <time>2015-08-13T17:40:06Z</time>
      </trkpt>
      <trkpt lat="42.2577090" lon="1.6881080">
        <ele>1868.8</ele>
        <time>2015-08-13T17:40:07Z</time>
      </trkpt>
      <trkpt lat="42.2577030" lon="1.6881530">
        <ele>1867.1</ele>
        <time>2015-08-13T17:40:08Z</time>
      </trkpt>
      <trkpt lat="42.2576910" lon="1.6882100">
        <ele>1865.3</ele>
        <time>2015-08-13T17:40:09Z</time>
      </trkpt>
      <trkpt lat="42.2576810" lon="1.6882570">
        <ele>1863.7</ele>
        <time>2015-08-13T17:40:10Z</time>
      </trkpt>
      <trkpt lat="42.2576630" lon="1.6883050">
        <ele>1862.7</ele>
        <time>2015-08-13T17:40:11Z</time>
      </trkpt>
      <trkpt lat="42.2576410" lon="1.6883510">
        <ele>1862.0</ele>
        <time>2015-08-13T17:40:12Z</time>
      </trkpt>
      <trkpt lat="42.2576100" lon="1.6884050">
        <ele>1861.6</ele>
        <time>2015-08-13T17:40:13Z</time>
      </trkpt>
      <trkpt lat="42.2575790" lon="1.6884620">
        <ele>1861.0</ele>
        <time>2015-08-13T17:40:14Z</time>
      </trkpt>
      <trkpt lat="42.2575410" lon="1.6885120">
        <ele>1861.3</ele>
        <time>2015-08-13T17:40:15Z</time>
      </trkpt>
      <trkpt lat="42.2575060" lon="1.6885620">
        <ele>1861.3</ele>
        <time>2015-08-13T17:40:16Z</time>
      </trkpt>
      <trkpt lat="42.2574730" lon="1.6886070">
        <ele>1861.4</ele>
        <time>2015-08-13T17:40:17Z</time>
      </trkpt>
      <trkpt lat="42.2574470" lon="1.6886530">
        <ele>1861.0</ele>
        <time>2015-08-13T17:40:18Z</time>
      </trkpt>
      <trkpt lat="42.2574190" lon="1.6886930">
        <ele>1861.1</ele>
        <time>2015-08-13T17:40:19Z</time>
      </trkpt>
      <trkpt lat="42.2573520" lon="1.6887780">
        <ele>1861.7</ele>
        <time>2015-08-13T17:40:20Z</time>
      </trkpt>
      <trkpt lat="42.2573170" lon="1.6888350">
        <ele>1861.6</ele>
        <time>2015-08-13T17:40:21Z</time>
      </trkpt>
      <trkpt lat="42.2572820" lon="1.6889160">
        <ele>1860.3</ele>
        <time>2015-08-13T17:40:22Z</time>
      </trkpt>
      <trkpt lat="42.2572470" lon="1.6889910">
        <ele>1859.2</ele>
        <time>2015-08-13T17:40:23Z</time>
      </trkpt>
      <trkpt lat="42.2572170" lon="1.6890570">
        <ele>1858.0</ele>
        <time>2015-08-13T17:40:24Z</time>
      </trkpt>
      <trkpt lat="42.2571830" lon="1.6891190">
        <ele>1857.3</ele>
        <time>2015-08-13T17:40:25Z</time>
      </trkpt>
      <trkpt lat="42.2571250" lon="1.6891780">
        <ele>1858.0</ele>
        <time>2015-08-13T17:40:26Z</time>
      </trkpt>
      <trkpt lat="42.2570750" lon="1.6892360">
        <ele>1858.0</ele>
        <time>2015-08-13T17:40:27Z</time>
      </trkpt>
      <trkpt lat="42.2570320" lon="1.6892810">
        <ele>1857.7</ele>
        <time>2015-08-13T17:40:28Z</time>
      </trkpt>
      <trkpt lat="42.2569890" lon="1.6893360">
        <ele>1857.0</ele>
        <time>2015-08-13T17:40:29Z</time>
      </trkpt>
      <trkpt lat="42.2569800" lon="1.6893870">
        <ele>1855.0</ele>
        <time>2015-08-13T17:40:30Z</time>
      </trkpt>
      <trkpt lat="42.2569290" lon="1.6894720">
        <ele>1853.3</ele>
        <time>2015-08-13T17:40:31Z</time>
      </trkpt>
      <trkpt lat="42.2568740" lon="1.6895560">
        <ele>1851.8</ele>
        <time>2015-08-13T17:40:32Z</time>
      </trkpt>
      <trkpt lat="42.2568070" lon="1.6896290">
        <ele>1851.9</ele>
        <time>2015-08-13T17:40:33Z</time>
      </trkpt>
      <trkpt lat="42.2567880" lon="1.6897060">
        <ele>1849.9</ele>
        <time>2015-08-13T17:40:34Z</time>
      </trkpt>
      <trkpt lat="42.2567580" lon="1.6897800">
        <ele>1848.5</ele>
        <time>2015-08-13T17:40:35Z</time>
      </trkpt>
      <trkpt lat="42.2567280" lon="1.6898520">
        <ele>1847.2</ele>
        <time>2015-08-13T17:40:36Z</time>
      </trkpt>
      <trkpt lat="42.2567070" lon="1.6899130">
        <ele>1845.9</ele>
        <time>2015-08-13T17:40:37Z</time>
      </trkpt>
      <trkpt lat="42.2566790" lon="1.6899740">
        <ele>1844.9</ele>
        <time>2015-08-13T17:40:38Z</time>
      </trkpt>
      <trkpt lat="42.2566720" lon="1.6900480">
        <ele>1842.5</ele>
        <time>2015-08-13T17:40:39Z</time>
      </trkpt>
      <trkpt lat="42.2566520" lon="1.6900790">
        <ele>1842.2</ele>
        <time>2015-08-13T17:40:40Z</time>
      </trkpt>
      <trkpt lat="42.2566240" lon="1.6901150">
        <ele>1842.2</ele>
        <time>2015-08-13T17:40:41Z</time>
      </trkpt>
      <trkpt lat="42.2565930" lon="1.6901380">
        <ele>1842.7</ele>
        <time>2015-08-13T17:40:42Z</time>
      </trkpt>
      <trkpt lat="42.2565140" lon="1.6901820">
        <ele>1844.7</ele>
        <time>2015-08-13T17:40:43Z</time>
      </trkpt>
      <trkpt lat="42.2564480" lon="1.6902360">
        <ele>1845.7</ele>
        <time>2015-08-13T17:40:44Z</time>
      </trkpt>
      <trkpt lat="42.2564030" lon="1.6902780">
        <ele>1846.2</ele>
        <time>2015-08-13T17:40:45Z</time>
      </trkpt>
      <trkpt lat="42.2563520" lon="1.6903090">
        <ele>1847.4</ele>
        <time>2015-08-13T17:40:46Z</time>
      </trkpt>
      <trkpt lat="42.2562970" lon="1.6903400">
        <ele>1848.7</ele>
        <time>2015-08-13T17:40:47Z</time>
      </trkpt>
      <trkpt lat="42.2562530" lon="1.6903600">
        <ele>1850.0</ele>
        <time>2015-08-13T17:40:48Z</time>
      </trkpt>
      <trkpt lat="42.2562100" lon="1.6903880">
        <ele>1850.7</ele>
        <time>2015-08-13T17:40:49Z</time>
      </trkpt>
      <trkpt lat="42.2561700" lon="1.6904260">
        <ele>1851.0</ele>
        <time>2015-08-13T17:40:50Z</time>
      </trkpt>
      <trkpt lat="42.2561210" lon="1.6904880">
        <ele>1850.5</ele>
        <time>2015-08-13T17:40:51Z</time>
      </trkpt>
      <trkpt lat="42.2560820" lon="1.6905350">
        <ele>1850.3</ele>
        <time>2015-08-13T17:40:52Z</time>
      </trkpt>
      <trkpt lat="42.2560460" lon="1.6905880">
        <ele>1849.8</ele>
        <time>2015-08-13T17:40:53Z</time>
      </trkpt>
      <trkpt lat="42.2560200" lon="1.6906300">
        <ele>1849.3</ele>
        <time>2015-08-13T17:40:54Z</time>
      </trkpt>
      <trkpt lat="42.2559830" lon="1.6906980">
        <ele>1848.3</ele>
        <time>2015-08-13T17:40:55Z</time>
      </trkpt>
      <trkpt lat="42.2559520" lon="1.6907390">
        <ele>1848.1</ele>
        <time>2015-08-13T17:40:56Z</time>
      </trkpt>
      <trkpt lat="42.2559470" lon="1.6907770">
        <ele>1846.8</ele>
        <time>2015-08-13T17:40:57Z</time>
      </trkpt>
      <trkpt lat="42.2559460" lon="1.6908220">
        <ele>1845.2</ele>
        <time>2015-08-13T17:40:58Z</time>
      </trkpt>
      <trkpt lat="42.2559160" lon="1.6908770">
        <ele>1844.5</ele>
        <time>2015-08-13T17:40:59Z</time>
      </trkpt>
      <trkpt lat="42.2559000" lon="1.6909340">
        <ele>1843.1</ele>
        <time>2015-08-13T17:41:00Z</time>
      </trkpt>
      <trkpt lat="42.2558740" lon="1.6909850">
        <ele>1842.4</ele>
        <time>2015-08-13T17:41:01Z</time>
      </trkpt>
      <trkpt lat="42.2558460" lon="1.6910180">
        <ele>1842.5</ele>
        <time>2015-08-13T17:41:02Z</time>
      </trkpt>
      <trkpt lat="42.2557950" lon="1.6910450">
        <ele>1844.0</ele>
        <time>2015-08-13T17:41:03Z</time>
      </trkpt>
      <trkpt lat="42.2557500" lon="1.6910630">
        <ele>1845.6</ele>
        <time>2015-08-13T17:41:04Z</time>
      </trkpt>
      <trkpt lat="42.2557120" lon="1.6910820">
        <ele>1846.8</ele>
        <time>2015-08-13T17:41:05Z</time>
      </trkpt>
      <trkpt lat="42.2556710" lon="1.6911140">
        <ele>1847.7</ele>
        <time>2015-08-13T17:41:06Z</time>
      </trkpt>
      <trkpt lat="42.2556330" lon="1.6911430">
        <ele>1848.6</ele>
        <time>2015-08-13T17:41:07Z</time>
      </trkpt>
      <trkpt lat="42.2556040" lon="1.6911760">
        <ele>1848.9</ele>
        <time>2015-08-13T17:41:08Z</time>
      </trkpt>
      <trkpt lat="42.2555620" lon="1.6911910">
        <ele>1850.5</ele>
        <time>2015-08-13T17:41:09Z</time>
      </trkpt>
      <trkpt lat="42.2555230" lon="1.6912160">
        <ele>1851.7</ele>
        <time>2015-08-13T17:41:10Z</time>
      </trkpt>
      <trkpt lat="42.2554880" lon="1.6912430">
        <ele>1852.6</ele>
        <time>2015-08-13T17:41:11Z</time>
      </trkpt>
      <trkpt lat="42.2554510" lon="1.6912850">
        <ele>1853.0</ele>
        <time>2015-08-13T17:41:12Z</time>
      </trkpt>
      <trkpt lat="42.2554140" lon="1.6913230">
        <ele>1853.7</ele>
        <time>2015-08-13T17:41:13Z</time>
      </trkpt>
      <trkpt lat="42.2553850" lon="1.6913740">
        <ele>1854.3</ele>
        <time>2015-08-13T17:41:14Z</time>
      </trkpt>
      <trkpt lat="42.2553600" lon="1.6914240">
        <ele>1854.6</ele>
        <time>2015-08-13T17:41:15Z</time>
      </trkpt>
      <trkpt lat="42.2553440" lon="1.6914730">
        <ele>1854.3</ele>
        <time>2015-08-13T17:41:16Z</time>
      </trkpt>
      <trkpt lat="42.2553130" lon="1.6915270">
        <ele>1855.1</ele>
        <time>2015-08-13T17:41:17Z</time>
      </trkpt>
      <trkpt lat="42.2553060" lon="1.6915880">
        <ele>1853.8</ele>
        <time>2015-08-13T17:41:18Z</time>
      </trkpt>
      <trkpt lat="42.2553060" lon="1.6916520">
        <ele>1851.9</ele>
        <time>2015-08-13T17:41:19Z</time>
      </trkpt>
      <trkpt lat="42.2553100" lon="1.6917160">
        <ele>1849.6</ele>
        <time>2015-08-13T17:41:20Z</time>
      </trkpt>
      <trkpt lat="42.2553190" lon="1.6917800">
        <ele>1846.8</ele>
        <time>2015-08-13T17:41:21Z</time>
      </trkpt>
      <trkpt lat="42.2553270" lon="1.6918470">
        <ele>1844.0</ele>
        <time>2015-08-13T17:41:22Z</time>
      </trkpt>
      <trkpt lat="42.2553420" lon="1.6918970">
        <ele>1841.1</ele>
        <time>2015-08-13T17:41:23Z</time>
      </trkpt>
      <trkpt lat="42.2553330" lon="1.6919470">
        <ele>1840.4</ele>
        <time>2015-08-13T17:41:24Z</time>
      </trkpt>
      <trkpt lat="42.2553400" lon="1.6920020">
        <ele>1838.0</ele>
        <time>2015-08-13T17:41:25Z</time>
      </trkpt>
      <trkpt lat="42.2553480" lon="1.6920610">
        <ele>1835.4</ele>
        <time>2015-08-13T17:41:26Z</time>
      </trkpt>
      <trkpt lat="42.2553360" lon="1.6921190">
        <ele>1835.6</ele>
        <time>2015-08-13T17:41:27Z</time>
      </trkpt>
      <trkpt lat="42.2553400" lon="1.6921920">
        <ele>1834.7</ele>
        <time>2015-08-13T17:41:28Z</time>
      </trkpt>
      <trkpt lat="42.2553440" lon="1.6922610">
        <ele>1833.8</ele>
        <time>2015-08-13T17:41:29Z</time>
      </trkpt>
      <trkpt lat="42.2553490" lon="1.6923290">
        <ele>1832.8</ele>
        <time>2015-08-13T17:41:30Z</time>
      </trkpt>
      <trkpt lat="42.2553440" lon="1.6923990">
        <ele>1832.8</ele>
        <time>2015-08-13T17:41:31Z</time>
      </trkpt>
      <trkpt lat="42.2553410" lon="1.6924670">
        <ele>1832.6</ele>
        <time>2015-08-13T17:41:32Z</time>
      </trkpt>
      <trkpt lat="42.2553330" lon="1.6925340">
        <ele>1832.9</ele>
        <time>2015-08-13T17:41:33Z</time>
      </trkpt>
      <trkpt lat="42.2553290" lon="1.6926020">
        <ele>1832.8</ele>
        <time>2015-08-13T17:41:34Z</time>
      </trkpt>
      <trkpt lat="42.2553380" lon="1.6926620">
        <ele>1831.5</ele>
        <time>2015-08-13T17:41:35Z</time>
      </trkpt>
      <trkpt lat="42.2552840" lon="1.6927810">
        <ele>1835.9</ele>
        <time>2015-08-13T17:41:36Z</time>
      </trkpt>
      <trkpt lat="42.2552780" lon="1.6928470">
        <ele>1836.0</ele>
        <time>2015-08-13T17:41:37Z</time>
      </trkpt>
      <trkpt lat="42.2552690" lon="1.6929300">
        <ele>1836.1</ele>
        <time>2015-08-13T17:41:38Z</time>
      </trkpt>
      <trkpt lat="42.2552280" lon="1.6930020">
        <ele>1838.5</ele>
        <time>2015-08-13T17:41:39Z</time>
      </trkpt>
      <trkpt lat="42.2552080" lon="1.6930860">
        <ele>1838.5</ele>
        <time>2015-08-13T17:41:40Z</time>
      </trkpt>
      <trkpt lat="42.2551800" lon="1.6931780">
        <ele>1838.9</ele>
        <time>2015-08-13T17:41:41Z</time>
      </trkpt>
      <trkpt lat="42.2551560" lon="1.6932690">
        <ele>1838.8</ele>
        <time>2015-08-13T17:41:42Z</time>
      </trkpt>
      <trkpt lat="42.2551150" lon="1.6933590">
        <ele>1840.0</ele>
        <time>2015-08-13T17:41:43Z</time>
      </trkpt>
      <trkpt lat="42.2551030" lon="1.6934520">
        <ele>1838.5</ele>
        <time>2015-08-13T17:41:44Z</time>
      </trkpt>
      <trkpt lat="42.2550530" lon="1.6935760">
        <ele>1838.9</ele>
        <time>2015-08-13T17:41:45Z</time>
      </trkpt>
      <trkpt lat="42.2549870" lon="1.6936880">
        <ele>1840.2</ele>
        <time>2015-08-13T17:41:46Z</time>
      </trkpt>
      <trkpt lat="42.2549520" lon="1.6937810">
        <ele>1839.5</ele>
        <time>2015-08-13T17:41:47Z</time>
      </trkpt>
      <trkpt lat="42.2549120" lon="1.6938540">
        <ele>1839.2</ele>
        <time>2015-08-13T17:41:48Z</time>
      </trkpt>
      <trkpt lat="42.2548750" lon="1.6939310">
        <ele>1838.6</ele>
        <time>2015-08-13T17:41:49Z</time>
      </trkpt>
      <trkpt lat="42.2548360" lon="1.6940210">
        <ele>1837.5</ele>
        <time>2015-08-13T17:41:50Z</time>
      </trkpt>
      <trkpt lat="42.2547810" lon="1.6940940">
        <ele>1838.1</ele>
        <time>2015-08-13T17:41:51Z</time>
      </trkpt>
      <trkpt lat="42.2547430" lon="1.6941800">
        <ele>1837.0</ele>
        <time>2015-08-13T17:41:52Z</time>
      </trkpt>
      <trkpt lat="42.2547110" lon="1.6942700">
        <ele>1835.3</ele>
        <time>2015-08-13T17:41:53Z</time>
      </trkpt>
      <trkpt lat="42.2546750" lon="1.6943670">
        <ele>1833.5</ele>
        <time>2015-08-13T17:41:54Z</time>
      </trkpt>
      <trkpt lat="42.2546250" lon="1.6944600">
        <ele>1832.7</ele>
        <time>2015-08-13T17:41:55Z</time>
      </trkpt>
      <trkpt lat="42.2545800" lon="1.6945070">
        <ele>1833.4</ele>
        <time>2015-08-13T17:41:56Z</time>
      </trkpt>
      <trkpt lat="42.2545290" lon="1.6945490">
        <ele>1834.4</ele>
        <time>2015-08-13T17:41:57Z</time>
      </trkpt>
      <trkpt lat="42.2544510" lon="1.6945920">
        <ele>1836.8</ele>
        <time>2015-08-13T17:41:58Z</time>
      </trkpt>
      <trkpt lat="42.2543860" lon="1.6946100">
        <ele>1839.5</ele>
        <time>2015-08-13T17:41:59Z</time>
      </trkpt>
      <trkpt lat="42.2543230" lon="1.6946370">
        <ele>1841.8</ele>
        <time>2015-08-13T17:42:00Z</time>
      </trkpt>
      <trkpt lat="42.2542680" lon="1.6946780">
        <ele>1843.2</ele>
        <time>2015-08-13T17:42:01Z</time>
      </trkpt>
      <trkpt lat="42.2542030" lon="1.6947630">
        <ele>1843.4</ele>
        <time>2015-08-13T17:42:02Z</time>
      </trkpt>
      <trkpt lat="42.2541400" lon="1.6948250">
        <ele>1844.6</ele>
        <time>2015-08-13T17:42:03Z</time>
      </trkpt>
      <trkpt lat="42.2540670" lon="1.6948950">
        <ele>1846.2</ele>
        <time>2015-08-13T17:42:04Z</time>
      </trkpt>
      <trkpt lat="42.2540320" lon="1.6949620">
        <ele>1845.8</ele>
        <time>2015-08-13T17:42:05Z</time>
      </trkpt>
      <trkpt lat="42.2539920" lon="1.6950780">
        <ele>1844.0</ele>
        <time>2015-08-13T17:42:06Z</time>
      </trkpt>
      <trkpt lat="42.2539880" lon="1.6951700">
        <ele>1840.9</ele>
        <time>2015-08-13T17:42:07Z</time>
      </trkpt>
      <trkpt lat="42.2539920" lon="1.6952630">
        <ele>1837.3</ele>
        <time>2015-08-13T17:42:08Z</time>
      </trkpt>
      <trkpt lat="42.2540090" lon="1.6953450">
        <ele>1833.2</ele>
        <time>2015-08-13T17:42:09Z</time>
      </trkpt>
      <trkpt lat="42.2540200" lon="1.6954350">
        <ele>1829.7</ele>
        <time>2015-08-13T17:42:10Z</time>
      </trkpt>
      <trkpt lat="42.2540410" lon="1.6955000">
        <ele>1827.6</ele>
        <time>2015-08-13T17:42:11Z</time>
      </trkpt>
      <trkpt lat="42.2540520" lon="1.6955740">
        <ele>1826.0</ele>
        <time>2015-08-13T17:42:12Z</time>
      </trkpt>
      <trkpt lat="42.2540650" lon="1.6956370">
        <ele>1824.5</ele>
        <time>2015-08-13T17:42:13Z</time>
      </trkpt>
      <trkpt lat="42.2540770" lon="1.6957160">
        <ele>1822.8</ele>
        <time>2015-08-13T17:42:14Z</time>
      </trkpt>
      <trkpt lat="42.2540840" lon="1.6957700">
        <ele>1821.7</ele>
        <time>2015-08-13T17:42:15Z</time>
      </trkpt>
      <trkpt lat="42.2540830" lon="1.6958290">
        <ele>1821.2</ele>
        <time>2015-08-13T17:42:16Z</time>
      </trkpt>
      <trkpt lat="42.2540630" lon="1.6959240">
        <ele>1821.6</ele>
        <time>2015-08-13T17:42:17Z</time>
      </trkpt>
      <trkpt lat="42.2540690" lon="1.6960020">
        <ele>1820.3</ele>
        <time>2015-08-13T17:42:18Z</time>
      </trkpt>
      <trkpt lat="42.2540520" lon="1.6960940">
        <ele>1820.5</ele>
        <time>2015-08-13T17:42:19Z</time>
      </trkpt>
      <trkpt lat="42.2540270" lon="1.6961930">
        <ele>1821.3</ele>
        <time>2015-08-13T17:42:20Z</time>
      </trkpt>
      <trkpt lat="42.2540250" lon="1.6962830">
        <ele>1820.3</ele>
        <time>2015-08-13T17:42:21Z</time>
      </trkpt>
      <trkpt lat="42.2540180" lon="1.6963700">
        <ele>1819.2</ele>
        <time>2015-08-13T17:42:22Z</time>
      </trkpt>
      <trkpt lat="42.2540000" lon="1.6964610">
        <ele>1818.9</ele>
        <time>2015-08-13T17:42:23Z</time>
      </trkpt>
      <trkpt lat="42.2539750" lon="1.6965540">
        <ele>1818.9</ele>
        <time>2015-08-13T17:42:24Z</time>
      </trkpt>
      <trkpt lat="42.2539480" lon="1.6966350">
        <ele>1819.3</ele>
        <time>2015-08-13T17:42:25Z</time>
      </trkpt>
      <trkpt lat="42.2539190" lon="1.6966940">
        <ele>1820.2</ele>
        <time>2015-08-13T17:42:26Z</time>
      </trkpt>
      <trkpt lat="42.2538890" lon="1.6967430">
        <ele>1821.4</ele>
        <time>2015-08-13T17:42:27Z</time>
      </trkpt>
      <trkpt lat="42.2538460" lon="1.6967960">
        <ele>1823.3</ele>
        <time>2015-08-13T17:42:28Z</time>
      </trkpt>
      <trkpt lat="42.2538080" lon="1.6968560">
        <ele>1824.7</ele>
        <time>2015-08-13T17:42:29Z</time>
      </trkpt>
      <trkpt lat="42.2537720" lon="1.6969220">
        <ele>1825.8</ele>
        <time>2015-08-13T17:42:30Z</time>
      </trkpt>
      <trkpt lat="42.2537450" lon="1.6969800">
        <ele>1826.3</ele>
        <time>2015-08-13T17:42:31Z</time>
      </trkpt>
      <trkpt lat="42.2537400" lon="1.6970580">
        <ele>1824.9</ele>
        <time>2015-08-13T17:42:32Z</time>
      </trkpt>
      <trkpt lat="42.2537130" lon="1.6971310">
        <ele>1823.2</ele>
        <time>2015-08-13T17:42:33Z</time>
      </trkpt>
      <trkpt lat="42.2536930" lon="1.6971870">
        <ele>1821.4</ele>
        <time>2015-08-13T17:42:34Z</time>
      </trkpt>
      <trkpt lat="42.2536740" lon="1.6972450">
        <ele>1819.4</ele>
        <time>2015-08-13T17:42:35Z</time>
      </trkpt>
      <trkpt lat="42.2536580" lon="1.6972980">
        <ele>1817.5</ele>
        <time>2015-08-13T17:42:36Z</time>
      </trkpt>
      <trkpt lat="42.2536100" lon="1.6973510">
        <ele>1816.6</ele>
        <time>2015-08-13T17:42:38Z</time>
      </trkpt>
      <trkpt lat="42.2535630" lon="1.6973870">
        <ele>1816.4</ele>
        <time>2015-08-13T17:42:39Z</time>
      </trkpt>
      <trkpt lat="42.2534970" lon="1.6974370">
        <ele>1816.0</ele>
        <time>2015-08-13T17:42:40Z</time>
      </trkpt>
      <trkpt lat="42.2534600" lon="1.6974610">
        <ele>1816.0</ele>
        <time>2015-08-13T17:42:41Z</time>
      </trkpt>
      <trkpt lat="42.2534340" lon="1.6975010">
        <ele>1814.7</ele>
        <time>2015-08-13T17:42:42Z</time>
      </trkpt>
      <trkpt lat="42.2533850" lon="1.6975360">
        <ele>1814.4</ele>
        <time>2015-08-13T17:42:43Z</time>
      </trkpt>
      <trkpt lat="42.2533570" lon="1.6975630">
        <ele>1813.8</ele>
        <time>2015-08-13T17:42:44Z</time>
      </trkpt>
      <trkpt lat="42.2533140" lon="1.6975810">
        <ele>1814.1</ele>
        <time>2015-08-13T17:42:45Z</time>
      </trkpt>
      <trkpt lat="42.2532810" lon="1.6976090">
        <ele>1813.5</ele>
        <time>2015-08-13T17:42:46Z</time>
      </trkpt>
      <trkpt lat="42.2532570" lon="1.6976420">
        <ele>1812.4</ele>
        <time>2015-08-13T17:42:47Z</time>
      </trkpt>
      <trkpt lat="42.2532430" lon="1.6976840">
        <ele>1810.5</ele>
        <time>2015-08-13T17:42:48Z</time>
      </trkpt>
      <trkpt lat="42.2532300" lon="1.6977350">
        <ele>1808.1</ele>
        <time>2015-08-13T17:42:49Z</time>
      </trkpt>
      <trkpt lat="42.2531700" lon="1.6977830">
        <ele>1806.9</ele>
        <time>2015-08-13T17:42:50Z</time>
      </trkpt>
      <trkpt lat="42.2532040" lon="1.6977630">
        <ele>1807.2</ele>
        <time>2015-08-13T17:42:51Z</time>
      </trkpt>
      <trkpt lat="42.2531350" lon="1.6978000">
        <ele>1806.8</ele>
        <time>2015-08-13T17:42:54Z</time>
      </trkpt>
      <trkpt lat="42.2531120" lon="1.6978410">
        <ele>1805.0</ele>
        <time>2015-08-13T17:42:55Z</time>
      </trkpt>
      <trkpt lat="42.2530770" lon="1.6979020">
        <ele>1802.4</ele>
        <time>2015-08-13T17:42:57Z</time>
      </trkpt>
      <trkpt lat="42.2530620" lon="1.6979540">
        <ele>1799.6</ele>
        <time>2015-08-13T17:42:58Z</time>
      </trkpt>
      <trkpt lat="42.2530310" lon="1.6980110">
        <ele>1796.9</ele>
        <time>2015-08-13T17:42:59Z</time>
      </trkpt>
      <trkpt lat="42.2529950" lon="1.6980640">
        <ele>1794.5</ele>
        <time>2015-08-13T17:43:00Z</time>
      </trkpt>
      <trkpt lat="42.2529570" lon="1.6981080">
        <ele>1792.7</ele>
        <time>2015-08-13T17:43:01Z</time>
      </trkpt>
      <trkpt lat="42.2529140" lon="1.6981310">
        <ele>1792.1</ele>
        <time>2015-08-13T17:43:02Z</time>
      </trkpt>
      <trkpt lat="42.2528610" lon="1.6981450">
        <ele>1791.4</ele>
        <time>2015-08-13T17:43:03Z</time>
      </trkpt>
      <trkpt lat="42.2528430" lon="1.6981170">
        <ele>1793.1</ele>
        <time>2015-08-13T17:43:04Z</time>
      </trkpt>
      <trkpt lat="42.2527960" lon="1.6980940">
        <ele>1794.6</ele>
        <time>2015-08-13T17:43:06Z</time>
      </trkpt>
      <trkpt lat="42.2527400" lon="1.6980260">
        <ele>1798.5</ele>
        <time>2015-08-13T17:43:07Z</time>
      </trkpt>
      <trkpt lat="42.2526960" lon="1.6979970">
        <ele>1800.2</ele>
        <time>2015-08-13T17:43:08Z</time>
      </trkpt>
      <trkpt lat="42.2526450" lon="1.6979500">
        <ele>1802.8</ele>
        <time>2015-08-13T17:43:09Z</time>
      </trkpt>
      <trkpt lat="42.2525870" lon="1.6979010">
        <ele>1805.6</ele>
        <time>2015-08-13T17:43:10Z</time>
      </trkpt>
      <trkpt lat="42.2525320" lon="1.6978570">
        <ele>1808.4</ele>
        <time>2015-08-13T17:43:11Z</time>
      </trkpt>
      <trkpt lat="42.2524780" lon="1.6978680">
        <ele>1807.7</ele>
        <time>2015-08-13T17:43:12Z</time>
      </trkpt>
      <trkpt lat="42.2524510" lon="1.6979030">
        <ele>1805.4</ele>
        <time>2015-08-13T17:43:14Z</time>
      </trkpt>
      <trkpt lat="42.2523840" lon="1.6979240">
        <ele>1804.0</ele>
        <time>2015-08-13T17:43:15Z</time>
      </trkpt>
      <trkpt lat="42.2523170" lon="1.6979540">
        <ele>1802.4</ele>
        <time>2015-08-13T17:43:16Z</time>
      </trkpt>
      <trkpt lat="42.2522660" lon="1.6979530">
        <ele>1802.4</ele>
        <time>2015-08-13T17:43:17Z</time>
      </trkpt>
      <trkpt lat="42.2521790" lon="1.6979430">
        <ele>1802.8</ele>
        <time>2015-08-13T17:43:18Z</time>
      </trkpt>
      <trkpt lat="42.2520970" lon="1.6979780">
        <ele>1801.1</ele>
        <time>2015-08-13T17:43:19Z</time>
      </trkpt>
      <trkpt lat="42.2519980" lon="1.6980240">
        <ele>1802.6</ele>
        <time>2015-08-13T17:43:20Z</time>
      </trkpt>
      <trkpt lat="42.2519090" lon="1.6980890">
        <ele>1803.6</ele>
        <time>2015-08-13T17:43:21Z</time>
      </trkpt>
      <trkpt lat="42.2518020" lon="1.6981470">
        <ele>1806.0</ele>
        <time>2015-08-13T17:43:22Z</time>
      </trkpt>
      <trkpt lat="42.2517360" lon="1.6981710">
        <ele>1808.1</ele>
        <time>2015-08-13T17:43:23Z</time>
      </trkpt>
      <trkpt lat="42.2516780" lon="1.6981640">
        <ele>1811.1</ele>
        <time>2015-08-13T17:43:24Z</time>
      </trkpt>
      <trkpt lat="42.2516250" lon="1.6981730">
        <ele>1813.2</ele>
        <time>2015-08-13T17:43:25Z</time>
      </trkpt>
      <trkpt lat="42.2515820" lon="1.6982080">
        <ele>1814.0</ele>
        <time>2015-08-13T17:43:26Z</time>
      </trkpt>
      <trkpt lat="42.2515240" lon="1.6983080">
        <ele>1813.5</ele>
        <time>2015-08-13T17:43:27Z</time>
      </trkpt>
      <trkpt lat="42.2514770" lon="1.6983850">
        <ele>1813.5</ele>
        <time>2015-08-13T17:43:28Z</time>
      </trkpt>
      <trkpt lat="42.2515060" lon="1.6984480">
        <ele>1809.9</ele>
        <time>2015-08-13T17:43:29Z</time>
      </trkpt>
      <trkpt lat="42.2515370" lon="1.6984940">
        <ele>1806.8</ele>
        <time>2015-08-13T17:43:30Z</time>
      </trkpt>
      <trkpt lat="42.2515560" lon="1.6985630">
        <ele>1803.5</ele>
        <time>2015-08-13T17:43:31Z</time>
      </trkpt>
      <trkpt lat="42.2515640" lon="1.6986100">
        <ele>1801.5</ele>
        <time>2015-08-13T17:43:32Z</time>
      </trkpt>
      <trkpt lat="42.2515510" lon="1.6986550">
        <ele>1800.7</ele>
        <time>2015-08-13T17:43:33Z</time>
      </trkpt>
      <trkpt lat="42.2515940" lon="1.6987260">
        <ele>1795.8</ele>
        <time>2015-08-13T17:43:34Z</time>
      </trkpt>
      <trkpt lat="42.2516360" lon="1.6988010">
        <ele>1792.7</ele>
        <time>2015-08-13T17:43:35Z</time>
      </trkpt>
      <trkpt lat="42.2516480" lon="1.6989020">
        <ele>1792.5</ele>
        <time>2015-08-13T17:43:36Z</time>
      </trkpt>
      <trkpt lat="42.2516610" lon="1.6989990">
        <ele>1792.2</ele>
        <time>2015-08-13T17:43:37Z</time>
      </trkpt>
      <trkpt lat="42.2516520" lon="1.6991020">
        <ele>1793.4</ele>
        <time>2015-08-13T17:43:38Z</time>
      </trkpt>
      <trkpt lat="42.2516460" lon="1.6991980">
        <ele>1794.4</ele>
        <time>2015-08-13T17:43:39Z</time>
      </trkpt>
      <trkpt lat="42.2516190" lon="1.6992960">
        <ele>1797.1</ele>
        <time>2015-08-13T17:43:40Z</time>
      </trkpt>
      <trkpt lat="42.2516040" lon="1.6993910">
        <ele>1798.9</ele>
        <time>2015-08-13T17:43:41Z</time>
      </trkpt>
      <trkpt lat="42.2515960" lon="1.6995090">
        <ele>1800.4</ele>
        <time>2015-08-13T17:43:42Z</time>
      </trkpt>
      <trkpt lat="42.2515870" lon="1.6995870">
        <ele>1801.7</ele>
        <time>2015-08-13T17:43:43Z</time>
      </trkpt>
      <trkpt lat="42.2515860" lon="1.6996570">
        <ele>1802.5</ele>
        <time>2015-08-13T17:43:45Z</time>
      </trkpt>
      <trkpt lat="42.2515790" lon="1.6997160">
        <ele>1803.7</ele>
        <time>2015-08-13T17:43:46Z</time>
      </trkpt>
      <trkpt lat="42.2515680" lon="1.6997730">
        <ele>1805.2</ele>
        <time>2015-08-13T17:43:47Z</time>
      </trkpt>
      <trkpt lat="42.2515880" lon="1.6998220">
        <ele>1804.0</ele>
        <time>2015-08-13T17:43:48Z</time>
      </trkpt>
      <trkpt lat="42.2515950" lon="1.6998670">
        <ele>1803.8</ele>
        <time>2015-08-13T17:43:49Z</time>
      </trkpt>
      <trkpt lat="42.2516260" lon="1.6998970">
        <ele>1801.5</ele>
        <time>2015-08-13T17:43:50Z</time>
      </trkpt>
      <trkpt lat="42.2516460" lon="1.6999300">
        <ele>1800.1</ele>
        <time>2015-08-13T17:43:51Z</time>
      </trkpt>
      <trkpt lat="42.2516640" lon="1.6999610">
        <ele>1798.9</ele>
        <time>2015-08-13T17:43:52Z</time>
      </trkpt>
      <trkpt lat="42.2516890" lon="1.6999900">
        <ele>1797.0</ele>
        <time>2015-08-13T17:43:53Z</time>
      </trkpt>
      <trkpt lat="42.2517230" lon="1.7000210">
        <ele>1794.4</ele>
        <time>2015-08-13T17:43:55Z</time>
      </trkpt>
      <trkpt lat="42.2517420" lon="1.7000610">
        <ele>1793.2</ele>
        <time>2015-08-13T17:43:57Z</time>
      </trkpt>
      <trkpt lat="42.2517590" lon="1.7001090">
        <ele>1792.2</ele>
        <time>2015-08-13T17:44:00Z</time>
      </trkpt>
      <trkpt lat="42.2517590" lon="1.7001460">
        <ele>1792.5</ele>
        <time>2015-08-13T17:44:02Z</time>
      </trkpt>
      <trkpt lat="42.2517820" lon="1.7001680">
        <ele>1790.7</ele>
        <time>2015-08-13T17:44:03Z</time>
      </trkpt>
      <trkpt lat="42.2517830" lon="1.7002140">
        <ele>1791.1</ele>
        <time>2015-08-13T17:44:05Z</time>
      </trkpt>
      <trkpt lat="42.2517950" lon="1.7002590">
        <ele>1790.5</ele>
        <time>2015-08-13T17:44:07Z</time>
      </trkpt>
      <trkpt lat="42.2518120" lon="1.7002900">
        <ele>1789.3</ele>
        <time>2015-08-13T17:44:09Z</time>
      </trkpt>
      <trkpt lat="42.2518430" lon="1.7003240">
        <ele>1786.9</ele>
        <time>2015-08-13T17:44:11Z</time>
      </trkpt>
      <trkpt lat="42.2518530" lon="1.7003690">
        <ele>1786.5</ele>
        <time>2015-08-13T17:44:14Z</time>
      </trkpt>
      <trkpt lat="42.2518810" lon="1.7004000">
        <ele>1784.3</ele>
        <time>2015-08-13T17:44:16Z</time>
      </trkpt>
      <trkpt lat="42.2518970" lon="1.7004390">
        <ele>1783.6</ele>
        <time>2015-08-13T17:44:18Z</time>
      </trkpt>
      <trkpt lat="42.2519220" lon="1.7004590">
        <ele>1781.9</ele>
        <time>2015-08-13T17:44:20Z</time>
      </trkpt>
      <trkpt lat="42.2519460" lon="1.7005050">
        <ele>1781.0</ele>
        <time>2015-08-13T17:44:23Z</time>
      </trkpt>
      <trkpt lat="42.2519680" lon="1.7005440">
        <ele>1780.0</ele>
        <time>2015-08-13T17:44:25Z</time>
      </trkpt>
      <trkpt lat="42.2519990" lon="1.7005740">
        <ele>1778.1</ele>
        <time>2015-08-13T17:44:27Z</time>
      </trkpt>
      <trkpt lat="42.2520350" lon="1.7005950">
        <ele>1775.6</ele>
        <time>2015-08-13T17:44:29Z</time>
      </trkpt>
      <trkpt lat="42.2520690" lon="1.7006380">
        <ele>1773.8</ele>
        <time>2015-08-13T17:44:31Z</time>
      </trkpt>
      <trkpt lat="42.2520850" lon="1.7006810">
        <ele>1773.5</ele>
        <time>2015-08-13T17:44:33Z</time>
      </trkpt>
      <trkpt lat="42.2520980" lon="1.7007290">
        <ele>1773.9</ele>
        <time>2015-08-13T17:44:35Z</time>
      </trkpt>
      <trkpt lat="42.2521060" lon="1.7007900">
        <ele>1774.9</ele>
        <time>2015-08-13T17:44:37Z</time>
      </trkpt>
      <trkpt lat="42.2521220" lon="1.7008370">
        <ele>1775.0</ele>
        <time>2015-08-13T17:44:39Z</time>
      </trkpt>
      <trkpt lat="42.2521270" lon="1.7008820">
        <ele>1775.9</ele>
        <time>2015-08-13T17:44:41Z</time>
      </trkpt>
      <trkpt lat="42.2521310" lon="1.7009320">
        <ele>1776.9</ele>
        <time>2015-08-13T17:44:43Z</time>
      </trkpt>
      <trkpt lat="42.2521460" lon="1.7009780">
        <ele>1777.1</ele>
        <time>2015-08-13T17:44:45Z</time>
      </trkpt>
      <trkpt lat="42.2521420" lon="1.7010220">
        <ele>1778.5</ele>
        <time>2015-08-13T17:44:47Z</time>
      </trkpt>
      <trkpt lat="42.2521360" lon="1.7010790">
        <ele>1780.4</ele>
        <time>2015-08-13T17:44:49Z</time>
      </trkpt>
      <trkpt lat="42.2521200" lon="1.7011350">
        <ele>1782.8</ele>
        <time>2015-08-13T17:44:51Z</time>
      </trkpt>
      <trkpt lat="42.2521040" lon="1.7011930">
        <ele>1785.3</ele>
        <time>2015-08-13T17:44:53Z</time>
      </trkpt>
      <trkpt lat="42.2520800" lon="1.7012580">
        <ele>1788.5</ele>
        <time>2015-08-13T17:44:55Z</time>
      </trkpt>
      <trkpt lat="42.2520700" lon="1.7013210">
        <ele>1790.9</ele>
        <time>2015-08-13T17:44:57Z</time>
      </trkpt>
      <trkpt lat="42.2520630" lon="1.7013580">
        <ele>1792.4</ele>
        <time>2015-08-13T17:44:58Z</time>
      </trkpt>
      <trkpt lat="42.2520510" lon="1.7014180">
        <ele>1794.9</ele>
        <time>2015-08-13T17:45:00Z</time>
      </trkpt>
      <trkpt lat="42.2520430" lon="1.7014860">
        <ele>1797.3</ele>
        <time>2015-08-13T17:45:02Z</time>
      </trkpt>
      <trkpt lat="42.2520460" lon="1.7015610">
        <ele>1799.0</ele>
        <time>2015-08-13T17:45:04Z</time>
      </trkpt>
      <trkpt lat="42.2520480" lon="1.7015990">
        <ele>1799.9</ele>
        <time>2015-08-13T17:45:05Z</time>
      </trkpt>
      <trkpt lat="42.2520510" lon="1.7016400">
        <ele>1800.7</ele>
        <time>2015-08-13T17:45:06Z</time>
      </trkpt>
      <trkpt lat="42.2520510" lon="1.7016790">
        <ele>1801.7</ele>
        <time>2015-08-13T17:45:07Z</time>
      </trkpt>
      <trkpt lat="42.2520630" lon="1.7017520">
        <ele>1802.8</ele>
        <time>2015-08-13T17:45:09Z</time>
      </trkpt>
      <trkpt lat="42.2520820" lon="1.7018170">
        <ele>1803.1</ele>
        <time>2015-08-13T17:45:11Z</time>
      </trkpt>
      <trkpt lat="42.2520950" lon="1.7018500">
        <ele>1803.0</ele>
        <time>2015-08-13T17:45:12Z</time>
      </trkpt>
      <trkpt lat="42.2521020" lon="1.7019090">
        <ele>1804.1</ele>
        <time>2015-08-13T17:45:14Z</time>
      </trkpt>
      <trkpt lat="42.2521240" lon="1.7019620">
        <ele>1803.9</ele>
        <time>2015-08-13T17:45:16Z</time>
      </trkpt>
      <trkpt lat="42.2521470" lon="1.7019860">
        <ele>1802.9</ele>
        <time>2015-08-13T17:45:17Z</time>
      </trkpt>
      <trkpt lat="42.2521760" lon="1.7020270">
        <ele>1801.8</ele>
        <time>2015-08-13T17:45:19Z</time>
      </trkpt>
      <trkpt lat="42.2521960" lon="1.7020700">
        <ele>1801.4</ele>
        <time>2015-08-13T17:45:21Z</time>
      </trkpt>
      <trkpt lat="42.2522250" lon="1.7021080">
        <ele>1800.2</ele>
        <time>2015-08-13T17:45:23Z</time>
      </trkpt>
      <trkpt lat="42.2522520" lon="1.7021370">
        <ele>1798.8</ele>
        <time>2015-08-13T17:45:25Z</time>
      </trkpt>
      <trkpt lat="42.2522760" lon="1.7021650">
        <ele>1797.7</ele>
        <time>2015-08-13T17:45:27Z</time>
      </trkpt>
      <trkpt lat="42.2523030" lon="1.7021920">
        <ele>1796.4</ele>
        <time>2015-08-13T17:45:29Z</time>
      </trkpt>
      <trkpt lat="42.2523340" lon="1.7022140">
        <ele>1794.6</ele>
        <time>2015-08-13T17:45:31Z</time>
      </trkpt>
      <trkpt lat="42.2523500" lon="1.7022550">
        <ele>1794.4</ele>
        <time>2015-08-13T17:45:34Z</time>
      </trkpt>
      <trkpt lat="42.2523580" lon="1.7022920">
        <ele>1794.7</ele>
        <time>2015-08-13T17:45:36Z</time>
      </trkpt>
      <trkpt lat="42.2523810" lon="1.7023210">
        <ele>1793.8</ele>
        <time>2015-08-13T17:45:38Z</time>
      </trkpt>
      <trkpt lat="42.2524090" lon="1.7023530">
        <ele>1792.6</ele>
        <time>2015-08-13T17:45:40Z</time>
      </trkpt>
      <trkpt lat="42.2524290" lon="1.7023770">
        <ele>1791.8</ele>
        <time>2015-08-13T17:45:42Z</time>
      </trkpt>
      <trkpt lat="42.2524450" lon="1.7024160">
        <ele>1791.6</ele>
        <time>2015-08-13T17:45:44Z</time>
      </trkpt>
      <trkpt lat="42.2524710" lon="1.7024460">
        <ele>1790.6</ele>
        <time>2015-08-13T17:45:46Z</time>
      </trkpt>
      <trkpt lat="42.2524750" lon="1.7024950">
        <ele>1791.6</ele>
        <time>2015-08-13T17:45:48Z</time>
      </trkpt>
      <trkpt lat="42.2525010" lon="1.7025330">
        <ele>1790.8</ele>
        <time>2015-08-13T17:45:50Z</time>
      </trkpt>
      <trkpt lat="42.2525310" lon="1.7025560">
        <ele>1789.4</ele>
        <time>2015-08-13T17:45:52Z</time>
      </trkpt>
      <trkpt lat="42.2525700" lon="1.7025560">
        <ele>1786.8</ele>
        <time>2015-08-13T17:45:56Z</time>
      </trkpt>
      <trkpt lat="42.2526010" lon="1.7025870">
        <ele>1785.5</ele>
        <time>2015-08-13T17:46:00Z</time>
      </trkpt>
      <trkpt lat="42.2526250" lon="1.7026110">
        <ele>1784.6</ele>
        <time>2015-08-13T17:46:03Z</time>
      </trkpt>
      <trkpt lat="42.2526420" lon="1.7026420">
        <ele>1784.3</ele>
        <time>2015-08-13T17:46:05Z</time>
      </trkpt>
      <trkpt lat="42.2526590" lon="1.7026910">
        <ele>1784.6</ele>
        <time>2015-08-13T17:46:08Z</time>
      </trkpt>
      <trkpt lat="42.2526760" lon="1.7027300">
        <ele>1784.6</ele>
        <time>2015-08-13T17:46:10Z</time>
      </trkpt>
      <trkpt lat="42.2526870" lon="1.7027680">
        <ele>1784.9</ele>
        <time>2015-08-13T17:46:12Z</time>
      </trkpt>
      <trkpt lat="42.2526960" lon="1.7028030">
        <ele>1785.3</ele>
        <time>2015-08-13T17:46:14Z</time>
      </trkpt>
      <trkpt lat="42.2527200" lon="1.7028370">
        <ele>1784.8</ele>
        <time>2015-08-13T17:46:16Z</time>
      </trkpt>
      <trkpt lat="42.2527280" lon="1.7028770">
        <ele>1785.4</ele>
        <time>2015-08-13T17:46:18Z</time>
      </trkpt>
      <trkpt lat="42.2527330" lon="1.7029230">
        <ele>1786.3</ele>
        <time>2015-08-13T17:46:20Z</time>
      </trkpt>
      <trkpt lat="42.2527250" lon="1.7029690">
        <ele>1787.3</ele>
        <time>2015-08-13T17:46:22Z</time>
      </trkpt>
      <trkpt lat="42.2527310" lon="1.7030300">
        <ele>1787.6</ele>
        <time>2015-08-13T17:46:24Z</time>
      </trkpt>
      <trkpt lat="42.2527290" lon="1.7030680">
        <ele>1788.2</ele>
        <time>2015-08-13T17:46:25Z</time>
      </trkpt>
      <trkpt lat="42.2527150" lon="1.7031300">
        <ele>1789.7</ele>
        <time>2015-08-13T17:46:27Z</time>
      </trkpt>
      <trkpt lat="42.2527000" lon="1.7031960">
        <ele>1791.2</ele>
        <time>2015-08-13T17:46:29Z</time>
      </trkpt>
      <trkpt lat="42.2526790" lon="1.7032550">
        <ele>1793.0</ele>
        <time>2015-08-13T17:46:31Z</time>
      </trkpt>
      <trkpt lat="42.2526770" lon="1.7032960">
        <ele>1793.6</ele>
        <time>2015-08-13T17:46:33Z</time>
      </trkpt>
      <trkpt lat="42.2526590" lon="1.7033370">
        <ele>1795.0</ele>
        <time>2015-08-13T17:46:34Z</time>
      </trkpt>
      <trkpt lat="42.2526140" lon="1.7034030">
        <ele>1798.0</ele>
        <time>2015-08-13T17:46:36Z</time>
      </trkpt>
      <trkpt lat="42.2525950" lon="1.7034410">
        <ele>1799.3</ele>
        <time>2015-08-13T17:46:37Z</time>
      </trkpt>
      <trkpt lat="42.2525870" lon="1.7035000">
        <ele>1800.3</ele>
        <time>2015-08-13T17:46:39Z</time>
      </trkpt>
      <trkpt lat="42.2525760" lon="1.7035500">
        <ele>1801.2</ele>
        <time>2015-08-13T17:46:41Z</time>
      </trkpt>
      <trkpt lat="42.2525540" lon="1.7036050">
        <ele>1802.8</ele>
        <time>2015-08-13T17:46:43Z</time>
      </trkpt>
      <trkpt lat="42.2525340" lon="1.7036320">
        <ele>1804.0</ele>
        <time>2015-08-13T17:46:44Z</time>
      </trkpt>
      <trkpt lat="42.2525250" lon="1.7036800">
        <ele>1804.8</ele>
        <time>2015-08-13T17:46:46Z</time>
      </trkpt>
      <trkpt lat="42.2525250" lon="1.7037220">
        <ele>1805.1</ele>
        <time>2015-08-13T17:46:48Z</time>
      </trkpt>
      <trkpt lat="42.2524950" lon="1.7037640">
        <ele>1806.1</ele>
        <time>2015-08-13T17:46:50Z</time>
      </trkpt>
      <trkpt lat="42.2524320" lon="1.7038110">
        <ele>1806.8</ele>
        <time>2015-08-13T17:46:52Z</time>
      </trkpt>
      <trkpt lat="42.2523790" lon="1.7038320">
        <ele>1808.1</ele>
        <time>2015-08-13T17:46:53Z</time>
      </trkpt>
      <trkpt lat="42.2523530" lon="1.7038510">
        <ele>1808.2</ele>
        <time>2015-08-13T17:46:54Z</time>
      </trkpt>
      <trkpt lat="42.2523190" lon="1.7038750">
        <ele>1808.3</ele>
        <time>2015-08-13T17:46:55Z</time>
      </trkpt>
      <trkpt lat="42.2522610" lon="1.7038870">
        <ele>1809.9</ele>
        <time>2015-08-13T17:46:56Z</time>
      </trkpt>
      <trkpt lat="42.2522080" lon="1.7039040">
        <ele>1811.0</ele>
        <time>2015-08-13T17:46:57Z</time>
      </trkpt>
      <trkpt lat="42.2521570" lon="1.7039230">
        <ele>1811.7</ele>
        <time>2015-08-13T17:46:58Z</time>
      </trkpt>
      <trkpt lat="42.2521120" lon="1.7039480">
        <ele>1811.7</ele>
        <time>2015-08-13T17:46:59Z</time>
      </trkpt>
      <trkpt lat="42.2520600" lon="1.7039820">
        <ele>1810.8</ele>
        <time>2015-08-13T17:47:00Z</time>
      </trkpt>
      <trkpt lat="42.2520000" lon="1.7040030">
        <ele>1810.4</ele>
        <time>2015-08-13T17:47:01Z</time>
      </trkpt>
      <trkpt lat="42.2519410" lon="1.7040260">
        <ele>1809.9</ele>
        <time>2015-08-13T17:47:02Z</time>
      </trkpt>
      <trkpt lat="42.2518800" lon="1.7040470">
        <ele>1809.6</ele>
        <time>2015-08-13T17:47:03Z</time>
      </trkpt>
      <trkpt lat="42.2518250" lon="1.7040620">
        <ele>1809.6</ele>
        <time>2015-08-13T17:47:04Z</time>
      </trkpt>
      <trkpt lat="42.2517600" lon="1.7040620">
        <ele>1810.7</ele>
        <time>2015-08-13T17:47:05Z</time>
      </trkpt>
      <trkpt lat="42.2516900" lon="1.7040550">
        <ele>1812.4</ele>
        <time>2015-08-13T17:47:06Z</time>
      </trkpt>
      <trkpt lat="42.2516250" lon="1.7040460">
        <ele>1814.1</ele>
        <time>2015-08-13T17:47:07Z</time>
      </trkpt>
      <trkpt lat="42.2514990" lon="1.7041150">
        <ele>1812.0</ele>
        <time>2015-08-13T17:47:08Z</time>
      </trkpt>
      <trkpt lat="42.2514220" lon="1.7041330">
        <ele>1812.3</ele>
        <time>2015-08-13T17:47:09Z</time>
      </trkpt>
      <trkpt lat="42.2513530" lon="1.7041830">
        <ele>1810.6</ele>
        <time>2015-08-13T17:47:10Z</time>
      </trkpt>
      <trkpt lat="42.2513440" lon="1.7042220">
        <ele>1808.4</ele>
        <time>2015-08-13T17:47:11Z</time>
      </trkpt>
      <trkpt lat="42.2513020" lon="1.7042630">
        <ele>1806.8</ele>
        <time>2015-08-13T17:47:12Z</time>
      </trkpt>
      <trkpt lat="42.2512650" lon="1.7042960">
        <ele>1805.6</ele>
        <time>2015-08-13T17:47:14Z</time>
      </trkpt>
      <trkpt lat="42.2512080" lon="1.7043400">
        <ele>1804.6</ele>
        <time>2015-08-13T17:47:16Z</time>
      </trkpt>
      <trkpt lat="42.2511630" lon="1.7043660">
        <ele>1804.4</ele>
        <time>2015-08-13T17:47:17Z</time>
      </trkpt>
      <trkpt lat="42.2511170" lon="1.7043900">
        <ele>1804.4</ele>
        <time>2015-08-13T17:47:18Z</time>
      </trkpt>
      <trkpt lat="42.2510790" lon="1.7043940">
        <ele>1805.3</ele>
        <time>2015-08-13T17:47:19Z</time>
      </trkpt>
      <trkpt lat="42.2510410" lon="1.7044010">
        <ele>1806.0</ele>
        <time>2015-08-13T17:47:20Z</time>
      </trkpt>
      <trkpt lat="42.2510000" lon="1.7044130">
        <ele>1806.4</ele>
        <time>2015-08-13T17:47:21Z</time>
      </trkpt>
      <trkpt lat="42.2509640" lon="1.7044370">
        <ele>1805.9</ele>
        <time>2015-08-13T17:47:22Z</time>
      </trkpt>
      <trkpt lat="42.2509270" lon="1.7044640">
        <ele>1805.3</ele>
        <time>2015-08-13T17:47:23Z</time>
      </trkpt>
      <trkpt lat="42.2508930" lon="1.7045130">
        <ele>1803.0</ele>
        <time>2015-08-13T17:47:24Z</time>
      </trkpt>
      <trkpt lat="42.2508540" lon="1.7045390">
        <ele>1802.4</ele>
        <time>2015-08-13T17:47:25Z</time>
      </trkpt>
      <trkpt lat="42.2508190" lon="1.7045680">
        <ele>1801.4</ele>
        <time>2015-08-13T17:47:26Z</time>
      </trkpt>
      <trkpt lat="42.2507770" lon="1.7045950">
        <ele>1800.6</ele>
        <time>2015-08-13T17:47:27Z</time>
      </trkpt>
      <trkpt lat="42.2507410" lon="1.7046220">
        <ele>1799.6</ele>
        <time>2015-08-13T17:47:28Z</time>
      </trkpt>
      <trkpt lat="42.2506990" lon="1.7046360">
        <ele>1799.6</ele>
        <time>2015-08-13T17:47:29Z</time>
      </trkpt>
      <trkpt lat="42.2506550" lon="1.7046640">
        <ele>1798.6</ele>
        <time>2015-08-13T17:47:30Z</time>
      </trkpt>
      <trkpt lat="42.2506190" lon="1.7046320">
        <ele>1801.9</ele>
        <time>2015-08-13T17:47:31Z</time>
      </trkpt>
      <trkpt lat="42.2505690" lon="1.7046150">
        <ele>1804.5</ele>
        <time>2015-08-13T17:47:32Z</time>
      </trkpt>
      <trkpt lat="42.2504350" lon="1.7045750">
        <ele>1811.1</ele>
        <time>2015-08-13T17:47:33Z</time>
      </trkpt>
      <trkpt lat="42.2503530" lon="1.7045560">
        <ele>1814.2</ele>
        <time>2015-08-13T17:47:34Z</time>
      </trkpt>
      <trkpt lat="42.2502850" lon="1.7045770">
        <ele>1813.8</ele>
        <time>2015-08-13T17:47:35Z</time>
      </trkpt>
      <trkpt lat="42.2501960" lon="1.7045860">
        <ele>1814.8</ele>
        <time>2015-08-13T17:47:36Z</time>
      </trkpt>
      <trkpt lat="42.2501440" lon="1.7046140">
        <ele>1813.5</ele>
        <time>2015-08-13T17:47:37Z</time>
      </trkpt>
      <trkpt lat="42.2500890" lon="1.7046490">
        <ele>1811.7</ele>
        <time>2015-08-13T17:47:38Z</time>
      </trkpt>
      <trkpt lat="42.2500510" lon="1.7046790">
        <ele>1810.0</ele>
        <time>2015-08-13T17:47:39Z</time>
      </trkpt>
      <trkpt lat="42.2500090" lon="1.7047160">
        <ele>1807.8</ele>
        <time>2015-08-13T17:47:40Z</time>
      </trkpt>
      <trkpt lat="42.2499350" lon="1.7047290">
        <ele>1808.2</ele>
        <time>2015-08-13T17:47:41Z</time>
      </trkpt>
      <trkpt lat="42.2498840" lon="1.7047710">
        <ele>1805.8</ele>
        <time>2015-08-13T17:47:42Z</time>
      </trkpt>
      <trkpt lat="42.2498240" lon="1.7048160">
        <ele>1803.4</ele>
        <time>2015-08-13T17:47:43Z</time>
      </trkpt>
      <trkpt lat="42.2497720" lon="1.7048440">
        <ele>1802.1</ele>
        <time>2015-08-13T17:47:44Z</time>
      </trkpt>
      <trkpt lat="42.2497160" lon="1.7048810">
        <ele>1800.3</ele>
        <time>2015-08-13T17:47:45Z</time>
      </trkpt>
      <trkpt lat="42.2496630" lon="1.7049110">
        <ele>1798.9</ele>
        <time>2015-08-13T17:47:46Z</time>
      </trkpt>
      <trkpt lat="42.2496310" lon="1.7049200">
        <ele>1798.8</ele>
        <time>2015-08-13T17:47:48Z</time>
      </trkpt>
      <trkpt lat="42.2496000" lon="1.7049210">
        <ele>1799.3</ele>
        <time>2015-08-13T17:47:49Z</time>
      </trkpt>
      <trkpt lat="42.2495690" lon="1.7049390">
        <ele>1798.8</ele>
        <time>2015-08-13T17:47:50Z</time>
      </trkpt>
      <trkpt lat="42.2495390" lon="1.7049480">
        <ele>1799.1</ele>
        <time>2015-08-13T17:47:51Z</time>
      </trkpt>
      <trkpt lat="42.2495040" lon="1.7049700">
        <ele>1798.7</ele>
        <time>2015-08-13T17:47:52Z</time>
      </trkpt>
      <trkpt lat="42.2494690" lon="1.7049880">
        <ele>1798.7</ele>
        <time>2015-08-13T17:47:53Z</time>
      </trkpt>
      <trkpt lat="42.2494310" lon="1.7050020">
        <ele>1799.1</ele>
        <time>2015-08-13T17:47:54Z</time>
      </trkpt>
      <trkpt lat="42.2493280" lon="1.7050480">
        <ele>1800.0</ele>
        <time>2015-08-13T17:47:55Z</time>
      </trkpt>
      <trkpt lat="42.2492920" lon="1.7050460">
        <ele>1801.6</ele>
        <time>2015-08-13T17:47:56Z</time>
      </trkpt>
      <trkpt lat="42.2492460" lon="1.7050650">
        <ele>1802.2</ele>
        <time>2015-08-13T17:47:57Z</time>
      </trkpt>
      <trkpt lat="42.2492160" lon="1.7050790">
        <ele>1802.6</ele>
        <time>2015-08-13T17:47:58Z</time>
      </trkpt>
      <trkpt lat="42.2491690" lon="1.7050940">
        <ele>1803.7</ele>
        <time>2015-08-13T17:47:59Z</time>
      </trkpt>
      <trkpt lat="42.2491280" lon="1.7051170">
        <ele>1804.1</ele>
        <time>2015-08-13T17:48:00Z</time>
      </trkpt>
      <trkpt lat="42.2491010" lon="1.7051520">
        <ele>1803.4</ele>
        <time>2015-08-13T17:48:01Z</time>
      </trkpt>
      <trkpt lat="42.2490570" lon="1.7051880">
        <ele>1803.4</ele>
        <time>2015-08-13T17:48:02Z</time>
      </trkpt>
      <trkpt lat="42.2490150" lon="1.7052180">
        <ele>1803.9</ele>
        <time>2015-08-13T17:48:03Z</time>
      </trkpt>
      <trkpt lat="42.2489880" lon="1.7052450">
        <ele>1803.8</ele>
        <time>2015-08-13T17:48:04Z</time>
      </trkpt>
      <trkpt lat="42.2489510" lon="1.7052730">
        <ele>1804.3</ele>
        <time>2015-08-13T17:48:05Z</time>
      </trkpt>
      <trkpt lat="42.2489180" lon="1.7053020">
        <ele>1804.6</ele>
        <time>2015-08-13T17:48:06Z</time>
      </trkpt>
      <trkpt lat="42.2488900" lon="1.7053330">
        <ele>1804.7</ele>
        <time>2015-08-13T17:48:07Z</time>
      </trkpt>
      <trkpt lat="42.2488600" lon="1.7053600">
        <ele>1805.1</ele>
        <time>2015-08-13T17:48:08Z</time>
      </trkpt>
      <trkpt lat="42.2488150" lon="1.7053950">
        <ele>1806.2</ele>
        <time>2015-08-13T17:48:10Z</time>
      </trkpt>
      <trkpt lat="42.2487970" lon="1.7054380">
        <ele>1805.5</ele>
        <time>2015-08-13T17:48:11Z</time>
      </trkpt>
      <trkpt lat="42.2487830" lon="1.7054710">
        <ele>1805.2</ele>
        <time>2015-08-13T17:48:12Z</time>
      </trkpt>
      <trkpt lat="42.2487870" lon="1.7055360">
        <ele>1802.6</ele>
        <time>2015-08-13T17:48:14Z</time>
      </trkpt>
      <trkpt lat="42.2487890" lon="1.7055860">
        <ele>1800.7</ele>
        <time>2015-08-13T17:48:16Z</time>
      </trkpt>
      <trkpt lat="42.2487850" lon="1.7056310">
        <ele>1799.4</ele>
        <time>2015-08-13T17:48:18Z</time>
      </trkpt>
      <trkpt lat="42.2487940" lon="1.7056880">
        <ele>1796.8</ele>
        <time>2015-08-13T17:48:20Z</time>
      </trkpt>
      <trkpt lat="42.2488040" lon="1.7057590">
        <ele>1793.6</ele>
        <time>2015-08-13T17:48:22Z</time>
      </trkpt>
      <trkpt lat="42.2488080" lon="1.7058110">
        <ele>1791.5</ele>
        <time>2015-08-13T17:48:23Z</time>
      </trkpt>
      <trkpt lat="42.2488080" lon="1.7058640">
        <ele>1789.6</ele>
        <time>2015-08-13T17:48:24Z</time>
      </trkpt>
      <trkpt lat="42.2488050" lon="1.7059200">
        <ele>1787.8</ele>
        <time>2015-08-13T17:48:25Z</time>
      </trkpt>
      <trkpt lat="42.2488020" lon="1.7059790">
        <ele>1785.9</ele>
        <time>2015-08-13T17:48:26Z</time>
      </trkpt>
      <trkpt lat="42.2487950" lon="1.7060410">
        <ele>1784.2</ele>
        <time>2015-08-13T17:48:27Z</time>
      </trkpt>
      <trkpt lat="42.2487900" lon="1.7060980">
        <ele>1782.5</ele>
        <time>2015-08-13T17:48:28Z</time>
      </trkpt>
      <trkpt lat="42.2487580" lon="1.7061560">
        <ele>1782.7</ele>
        <time>2015-08-13T17:48:29Z</time>
      </trkpt>
      <trkpt lat="42.2487320" lon="1.7062230">
        <ele>1782.2</ele>
        <time>2015-08-13T17:48:30Z</time>
      </trkpt>
      <trkpt lat="42.2486980" lon="1.7062860">
        <ele>1782.1</ele>
        <time>2015-08-13T17:48:31Z</time>
      </trkpt>
      <trkpt lat="42.2486540" lon="1.7063490">
        <ele>1782.4</ele>
        <time>2015-08-13T17:48:32Z</time>
      </trkpt>
      <trkpt lat="42.2486120" lon="1.7064050">
        <ele>1782.8</ele>
        <time>2015-08-13T17:48:33Z</time>
      </trkpt>
      <trkpt lat="42.2485780" lon="1.7064710">
        <ele>1782.1</ele>
        <time>2015-08-13T17:48:34Z</time>
      </trkpt>
      <trkpt lat="42.2485450" lon="1.7065410">
        <ele>1781.1</ele>
        <time>2015-08-13T17:48:35Z</time>
      </trkpt>
      <trkpt lat="42.2485240" lon="1.7066260">
        <ele>1778.7</ele>
        <time>2015-08-13T17:48:36Z</time>
      </trkpt>
      <trkpt lat="42.2485020" lon="1.7067130">
        <ele>1776.1</ele>
        <time>2015-08-13T17:48:37Z</time>
      </trkpt>
      <trkpt lat="42.2484990" lon="1.7067870">
        <ele>1772.9</ele>
        <time>2015-08-13T17:48:38Z</time>
      </trkpt>
      <trkpt lat="42.2484920" lon="1.7068650">
        <ele>1769.8</ele>
        <time>2015-08-13T17:48:39Z</time>
      </trkpt>
      <trkpt lat="42.2484830" lon="1.7069370">
        <ele>1767.1</ele>
        <time>2015-08-13T17:48:40Z</time>
      </trkpt>
      <trkpt lat="42.2484710" lon="1.7070120">
        <ele>1764.3</ele>
        <time>2015-08-13T17:48:41Z</time>
      </trkpt>
      <trkpt lat="42.2484540" lon="1.7070850">
        <ele>1761.8</ele>
        <time>2015-08-13T17:48:42Z</time>
      </trkpt>
      <trkpt lat="42.2484460" lon="1.7071720">
        <ele>1757.7</ele>
        <time>2015-08-13T17:48:43Z</time>
      </trkpt>
      <trkpt lat="42.2484290" lon="1.7072480">
        <ele>1754.5</ele>
        <time>2015-08-13T17:48:44Z</time>
      </trkpt>
      <trkpt lat="42.2484130" lon="1.7073250">
        <ele>1751.1</ele>
        <time>2015-08-13T17:48:45Z</time>
      </trkpt>
      <trkpt lat="42.2483960" lon="1.7073970">
        <ele>1747.9</ele>
        <time>2015-08-13T17:48:46Z</time>
      </trkpt>
      <trkpt lat="42.2482860" lon="1.7074030">
        <ele>1751.5</ele>
        <time>2015-08-13T17:48:47Z</time>
      </trkpt>
      <trkpt lat="42.2482300" lon="1.7074310">
        <ele>1751.9</ele>
        <time>2015-08-13T17:48:48Z</time>
      </trkpt>
      <trkpt lat="42.2481740" lon="1.7074580">
        <ele>1752.2</ele>
        <time>2015-08-13T17:48:49Z</time>
      </trkpt>
      <trkpt lat="42.2481080" lon="1.7074910">
        <ele>1752.4</ele>
        <time>2015-08-13T17:48:50Z</time>
      </trkpt>
      <trkpt lat="42.2480450" lon="1.7075200">
        <ele>1752.5</ele>
        <time>2015-08-13T17:48:51Z</time>
      </trkpt>
      <trkpt lat="42.2479820" lon="1.7075510">
        <ele>1752.4</ele>
        <time>2015-08-13T17:48:52Z</time>
      </trkpt>
      <trkpt lat="42.2479150" lon="1.7075630">
        <ele>1753.7</ele>
        <time>2015-08-13T17:48:53Z</time>
      </trkpt>
      <trkpt lat="42.2478480" lon="1.7075560">
        <ele>1755.6</ele>
        <time>2015-08-13T17:48:54Z</time>
      </trkpt>
      <trkpt lat="42.2477910" lon="1.7075540">
        <ele>1756.9</ele>
        <time>2015-08-13T17:48:55Z</time>
      </trkpt>
      <trkpt lat="42.2477350" lon="1.7075450">
        <ele>1758.7</ele>
        <time>2015-08-13T17:48:56Z</time>
      </trkpt>
      <trkpt lat="42.2476810" lon="1.7075630">
        <ele>1758.6</ele>
        <time>2015-08-13T17:48:57Z</time>
      </trkpt>
      <trkpt lat="42.2476280" lon="1.7075750">
        <ele>1759.0</ele>
        <time>2015-08-13T17:48:58Z</time>
      </trkpt>
      <trkpt lat="42.2475760" lon="1.7075890">
        <ele>1759.2</ele>
        <time>2015-08-13T17:48:59Z</time>
      </trkpt>
      <trkpt lat="42.2475260" lon="1.7076220">
        <ele>1758.2</ele>
        <time>2015-08-13T17:49:00Z</time>
      </trkpt>
      <trkpt lat="42.2474730" lon="1.7076560">
        <ele>1757.2</ele>
        <time>2015-08-13T17:49:01Z</time>
      </trkpt>
      <trkpt lat="42.2474180" lon="1.7076810">
        <ele>1756.9</ele>
        <time>2015-08-13T17:49:02Z</time>
      </trkpt>
      <trkpt lat="42.2473630" lon="1.7077120">
        <ele>1756.2</ele>
        <time>2015-08-13T17:49:03Z</time>
      </trkpt>
      <trkpt lat="42.2473160" lon="1.7077410">
        <ele>1755.6</ele>
        <time>2015-08-13T17:49:04Z</time>
      </trkpt>
      <trkpt lat="42.2472740" lon="1.7077700">
        <ele>1754.8</ele>
        <time>2015-08-13T17:49:05Z</time>
      </trkpt>
      <trkpt lat="42.2472290" lon="1.7078360">
        <ele>1752.0</ele>
        <time>2015-08-13T17:49:06Z</time>
      </trkpt>
      <trkpt lat="42.2471860" lon="1.7078980">
        <ele>1749.4</ele>
        <time>2015-08-13T17:49:07Z</time>
      </trkpt>
      <trkpt lat="42.2471420" lon="1.7079630">
        <ele>1746.6</ele>
        <time>2015-08-13T17:49:08Z</time>
      </trkpt>
      <trkpt lat="42.2471140" lon="1.7080280">
        <ele>1743.5</ele>
        <time>2015-08-13T17:49:09Z</time>
      </trkpt>
      <trkpt lat="42.2470940" lon="1.7080850">
        <ele>1740.6</ele>
        <time>2015-08-13T17:49:10Z</time>
      </trkpt>
      <trkpt lat="42.2470750" lon="1.7081330">
        <ele>1738.0</ele>
        <time>2015-08-13T17:49:11Z</time>
      </trkpt>
      <trkpt lat="42.2470470" lon="1.7081840">
        <ele>1735.0</ele>
        <time>2015-08-13T17:49:12Z</time>
      </trkpt>
      <trkpt lat="42.2469910" lon="1.7082410">
        <ele>1731.8</ele>
        <time>2015-08-13T17:49:13Z</time>
      </trkpt>
      <trkpt lat="42.2469340" lon="1.7083060">
        <ele>1728.0</ele>
        <time>2015-08-13T17:49:14Z</time>
      </trkpt>
      <trkpt lat="42.2468800" lon="1.7083600">
        <ele>1724.9</ele>
        <time>2015-08-13T17:49:15Z</time>
      </trkpt>
      <trkpt lat="42.2468230" lon="1.7083880">
        <ele>1723.3</ele>
        <time>2015-08-13T17:49:16Z</time>
      </trkpt>
      <trkpt lat="42.2467450" lon="1.7083420">
        <ele>1726.3</ele>
        <time>2015-08-13T17:49:17Z</time>
      </trkpt>
      <trkpt lat="42.2466660" lon="1.7083570">
        <ele>1725.6</ele>
        <time>2015-08-13T17:49:18Z</time>
      </trkpt>
      <trkpt lat="42.2465900" lon="1.7083640">
        <ele>1725.3</ele>
        <time>2015-08-13T17:49:19Z</time>
      </trkpt>
      <trkpt lat="42.2465180" lon="1.7083920">
        <ele>1723.8</ele>
        <time>2015-08-13T17:49:20Z</time>
      </trkpt>
      <trkpt lat="42.2464660" lon="1.7084210">
        <ele>1722.2</ele>
        <time>2015-08-13T17:49:21Z</time>
      </trkpt>
      <trkpt lat="42.2464100" lon="1.7084470">
        <ele>1720.8</ele>
        <time>2015-08-13T17:49:22Z</time>
      </trkpt>
      <trkpt lat="42.2463400" lon="1.7085270">
        <ele>1716.2</ele>
        <time>2015-08-13T17:49:23Z</time>
      </trkpt>
      <trkpt lat="42.2462830" lon="1.7085730">
        <ele>1713.5</ele>
        <time>2015-08-13T17:49:24Z</time>
      </trkpt>
      <trkpt lat="42.2462290" lon="1.7086270">
        <ele>1711.0</ele>
        <time>2015-08-13T17:49:25Z</time>
      </trkpt>
      <trkpt lat="42.2461750" lon="1.7086640">
        <ele>1710.4</ele>
        <time>2015-08-13T17:49:26Z</time>
      </trkpt>
      <trkpt lat="42.2461210" lon="1.7086820">
        <ele>1710.9</ele>
        <time>2015-08-13T17:49:27Z</time>
      </trkpt>
      <trkpt lat="42.2460750" lon="1.7086770">
        <ele>1712.6</ele>
        <time>2015-08-13T17:49:28Z</time>
      </trkpt>
      <trkpt lat="42.2459870" lon="1.7086420">
        <ele>1717.1</ele>
        <time>2015-08-13T17:49:29Z</time>
      </trkpt>
      <trkpt lat="42.2459250" lon="1.7086230">
        <ele>1719.9</ele>
        <time>2015-08-13T17:49:30Z</time>
      </trkpt>
      <trkpt lat="42.2458850" lon="1.7086280">
        <ele>1720.8</ele>
        <time>2015-08-13T17:49:31Z</time>
      </trkpt>
      <trkpt lat="42.2458220" lon="1.7086100">
        <ele>1723.5</ele>
        <time>2015-08-13T17:49:32Z</time>
      </trkpt>
      <trkpt lat="42.2457770" lon="1.7085940">
        <ele>1725.6</ele>
        <time>2015-08-13T17:49:33Z</time>
      </trkpt>
      <trkpt lat="42.2457300" lon="1.7085500">
        <ele>1729.1</ele>
        <time>2015-08-13T17:49:34Z</time>
      </trkpt>
      <trkpt lat="42.2456800" lon="1.7085290">
        <ele>1731.5</ele>
        <time>2015-08-13T17:49:35Z</time>
      </trkpt>
      <trkpt lat="42.2456380" lon="1.7085200">
        <ele>1733.1</ele>
        <time>2015-08-13T17:49:36Z</time>
      </trkpt>
      <trkpt lat="42.2455950" lon="1.7085080">
        <ele>1734.8</ele>
        <time>2015-08-13T17:49:37Z</time>
      </trkpt>
      <trkpt lat="42.2455460" lon="1.7085020">
        <ele>1736.3</ele>
        <time>2015-08-13T17:49:38Z</time>
      </trkpt>
      <trkpt lat="42.2455180" lon="1.7085080">
        <ele>1736.8</ele>
        <time>2015-08-13T17:49:39Z</time>
      </trkpt>
      <trkpt lat="42.2454760" lon="1.7085230">
        <ele>1737.2</ele>
        <time>2015-08-13T17:49:41Z</time>
      </trkpt>
      <trkpt lat="42.2454670" lon="1.7085730">
        <ele>1735.3</ele>
        <time>2015-08-13T17:49:45Z</time>
      </trkpt>
      <trkpt lat="42.2454780" lon="1.7086180">
        <ele>1733.0</ele>
        <time>2015-08-13T17:49:46Z</time>
      </trkpt>
      <trkpt lat="42.2454650" lon="1.7086810">
        <ele>1730.5</ele>
        <time>2015-08-13T17:49:47Z</time>
      </trkpt>
      <trkpt lat="42.2454430" lon="1.7087400">
        <ele>1728.6</ele>
        <time>2015-08-13T17:49:48Z</time>
      </trkpt>
      <trkpt lat="42.2454330" lon="1.7087960">
        <ele>1726.8</ele>
        <time>2015-08-13T17:49:49Z</time>
      </trkpt>
      <trkpt lat="42.2454330" lon="1.7088330">
        <ele>1725.4</ele>
        <time>2015-08-13T17:49:50Z</time>
      </trkpt>
      <trkpt lat="42.2454260" lon="1.7088770">
        <ele>1724.0</ele>
        <time>2015-08-13T17:49:51Z</time>
      </trkpt>
      <trkpt lat="42.2454300" lon="1.7089270">
        <ele>1722.0</ele>
        <time>2015-08-13T17:49:52Z</time>
      </trkpt>
      <trkpt lat="42.2454350" lon="1.7089810">
        <ele>1719.8</ele>
        <time>2015-08-13T17:49:53Z</time>
      </trkpt>
      <trkpt lat="42.2454670" lon="1.7090310">
        <ele>1716.8</ele>
        <time>2015-08-13T17:49:54Z</time>
      </trkpt>
      <trkpt lat="42.2454930" lon="1.7090850">
        <ele>1713.8</ele>
        <time>2015-08-13T17:49:55Z</time>
      </trkpt>
      <trkpt lat="42.2454820" lon="1.7091270">
        <ele>1712.6</ele>
        <time>2015-08-13T17:49:56Z</time>
      </trkpt>
      <trkpt lat="42.2454820" lon="1.7091740">
        <ele>1710.8</ele>
        <time>2015-08-13T17:49:57Z</time>
      </trkpt>
      <trkpt lat="42.2454640" lon="1.7092300">
        <ele>1709.4</ele>
        <time>2015-08-13T17:49:58Z</time>
      </trkpt>
      <trkpt lat="42.2454480" lon="1.7092840">
        <ele>1707.9</ele>
        <time>2015-08-13T17:49:59Z</time>
      </trkpt>
      <trkpt lat="42.2454370" lon="1.7093190">
        <ele>1707.0</ele>
        <time>2015-08-13T17:50:00Z</time>
      </trkpt>
      <trkpt lat="42.2454060" lon="1.7093880">
        <ele>1705.9</ele>
        <time>2015-08-13T17:50:02Z</time>
      </trkpt>
      <trkpt lat="42.2453880" lon="1.7094170">
        <ele>1706.0</ele>
        <time>2015-08-13T17:50:03Z</time>
      </trkpt>
      <trkpt lat="42.2453370" lon="1.7093850">
        <ele>1710.3</ele>
        <time>2015-08-13T17:50:04Z</time>
      </trkpt>
      <trkpt lat="42.2453080" lon="1.7093870">
        <ele>1712.0</ele>
        <time>2015-08-13T17:50:05Z</time>
      </trkpt>
      <trkpt lat="42.2452690" lon="1.7093950">
        <ele>1714.1</ele>
        <time>2015-08-13T17:50:06Z</time>
      </trkpt>
      <trkpt lat="42.2452570" lon="1.7094370">
        <ele>1713.4</ele>
        <time>2015-08-13T17:50:07Z</time>
      </trkpt>
      <trkpt lat="42.2452230" lon="1.7094860">
        <ele>1714.0</ele>
        <time>2015-08-13T17:50:09Z</time>
      </trkpt>
      <trkpt lat="42.2451690" lon="1.7095330">
        <ele>1715.9</ele>
        <time>2015-08-13T17:50:10Z</time>
      </trkpt>
      <trkpt lat="42.2451390" lon="1.7095860">
        <ele>1716.3</ele>
        <time>2015-08-13T17:50:11Z</time>
      </trkpt>
      <trkpt lat="42.2451210" lon="1.7096420">
        <ele>1716.8</ele>
        <time>2015-08-13T17:50:12Z</time>
      </trkpt>
      <trkpt lat="42.2451080" lon="1.7096920">
        <ele>1717.1</ele>
        <time>2015-08-13T17:50:13Z</time>
      </trkpt>
      <trkpt lat="42.2450910" lon="1.7097440">
        <ele>1717.6</ele>
        <time>2015-08-13T17:50:14Z</time>
      </trkpt>
      <trkpt lat="42.2451300" lon="1.7097990">
        <ele>1714.3</ele>
        <time>2015-08-13T17:50:15Z</time>
      </trkpt>
      <trkpt lat="42.2451370" lon="1.7098550">
        <ele>1713.1</ele>
        <time>2015-08-13T17:50:16Z</time>
      </trkpt>
      <trkpt lat="42.2451380" lon="1.7099020">
        <ele>1712.4</ele>
        <time>2015-08-13T17:50:17Z</time>
      </trkpt>
      <trkpt lat="42.2451440" lon="1.7099560">
        <ele>1711.4</ele>
        <time>2015-08-13T17:50:18Z</time>
      </trkpt>
      <trkpt lat="42.2451020" lon="1.7100330">
        <ele>1713.4</ele>
        <time>2015-08-13T17:50:19Z</time>
      </trkpt>
      <trkpt lat="42.2450890" lon="1.7100970">
        <ele>1713.6</ele>
        <time>2015-08-13T17:50:20Z</time>
      </trkpt>
      <trkpt lat="42.2450680" lon="1.7101510">
        <ele>1714.4</ele>
        <time>2015-08-13T17:50:21Z</time>
      </trkpt>
      <trkpt lat="42.2450700" lon="1.7102250">
        <ele>1713.4</ele>
        <time>2015-08-13T17:50:22Z</time>
      </trkpt>
      <trkpt lat="42.2450780" lon="1.7102870">
        <ele>1712.1</ele>
        <time>2015-08-13T17:50:23Z</time>
      </trkpt>
      <trkpt lat="42.2450790" lon="1.7103610">
        <ele>1711.2</ele>
        <time>2015-08-13T17:50:24Z</time>
      </trkpt>
      <trkpt lat="42.2450810" lon="1.7104220">
        <ele>1710.3</ele>
        <time>2015-08-13T17:50:25Z</time>
      </trkpt>
      <trkpt lat="42.2450860" lon="1.7105120">
        <ele>1708.9</ele>
        <time>2015-08-13T17:50:26Z</time>
      </trkpt>
      <trkpt lat="42.2451000" lon="1.7105840">
        <ele>1707.1</ele>
        <time>2015-08-13T17:50:27Z</time>
      </trkpt>
      <trkpt lat="42.2451050" lon="1.7106490">
        <ele>1706.0</ele>
        <time>2015-08-13T17:50:28Z</time>
      </trkpt>
      <trkpt lat="42.2451250" lon="1.7107230">
        <ele>1703.7</ele>
        <time>2015-08-13T17:50:29Z</time>
      </trkpt>
      <trkpt lat="42.2451410" lon="1.7107990">
        <ele>1701.7</ele>
        <time>2015-08-13T17:50:30Z</time>
      </trkpt>
      <trkpt lat="42.2451570" lon="1.7108610">
        <ele>1699.9</ele>
        <time>2015-08-13T17:50:31Z</time>
      </trkpt>
      <trkpt lat="42.2451600" lon="1.7109220">
        <ele>1699.0</ele>
        <time>2015-08-13T17:50:32Z</time>
      </trkpt>
      <trkpt lat="42.2451710" lon="1.7110350">
        <ele>1697.1</ele>
        <time>2015-08-13T17:50:34Z</time>
      </trkpt>
      <trkpt lat="42.2451660" lon="1.7110860">
        <ele>1696.9</ele>
        <time>2015-08-13T17:50:35Z</time>
      </trkpt>
      <trkpt lat="42.2451140" lon="1.7111290">
        <ele>1700.0</ele>
        <time>2015-08-13T17:50:36Z</time>
      </trkpt>
      <trkpt lat="42.2450850" lon="1.7111610">
        <ele>1701.7</ele>
        <time>2015-08-13T17:50:37Z</time>
      </trkpt>
      <trkpt lat="42.2449970" lon="1.7112210">
        <ele>1707.1</ele>
        <time>2015-08-13T17:50:38Z</time>
      </trkpt>
      <trkpt lat="42.2449430" lon="1.7112860">
        <ele>1709.8</ele>
        <time>2015-08-13T17:50:39Z</time>
      </trkpt>
      <trkpt lat="42.2449100" lon="1.7113520">
        <ele>1711.0</ele>
        <time>2015-08-13T17:50:40Z</time>
      </trkpt>
      <trkpt lat="42.2448880" lon="1.7114210">
        <ele>1711.5</ele>
        <time>2015-08-13T17:50:41Z</time>
      </trkpt>
      <trkpt lat="42.2448710" lon="1.7114910">
        <ele>1711.6</ele>
        <time>2015-08-13T17:50:42Z</time>
      </trkpt>
      <trkpt lat="42.2448960" lon="1.7115520">
        <ele>1708.9</ele>
        <time>2015-08-13T17:50:43Z</time>
      </trkpt>
      <trkpt lat="42.2449160" lon="1.7116230">
        <ele>1706.3</ele>
        <time>2015-08-13T17:50:44Z</time>
      </trkpt>
      <trkpt lat="42.2449310" lon="1.7116950">
        <ele>1704.1</ele>
        <time>2015-08-13T17:50:45Z</time>
      </trkpt>
      <trkpt lat="42.2449380" lon="1.7117520">
        <ele>1702.7</ele>
        <time>2015-08-13T17:50:46Z</time>
      </trkpt>
      <trkpt lat="42.2449560" lon="1.7118130">
        <ele>1700.5</ele>
        <time>2015-08-13T17:50:47Z</time>
      </trkpt>
      <trkpt lat="42.2449720" lon="1.7118770">
        <ele>1698.3</ele>
        <time>2015-08-13T17:50:48Z</time>
      </trkpt>
      <trkpt lat="42.2449930" lon="1.7119470">
        <ele>1695.7</ele>
        <time>2015-08-13T17:50:49Z</time>
      </trkpt>
      <trkpt lat="42.2450100" lon="1.7120100">
        <ele>1693.5</ele>
        <time>2015-08-13T17:50:50Z</time>
      </trkpt>
      <trkpt lat="42.2449310" lon="1.7121110">
        <ele>1698.2</ele>
        <time>2015-08-13T17:50:51Z</time>
      </trkpt>
      <trkpt lat="42.2448990" lon="1.7122010">
        <ele>1701.3</ele>
        <time>2015-08-13T17:50:52Z</time>
      </trkpt>
      <trkpt lat="42.2449290" lon="1.7122640">
        <ele>1699.6</ele>
        <time>2015-08-13T17:50:53Z</time>
      </trkpt>
      <trkpt lat="42.2449790" lon="1.7122850">
        <ele>1696.1</ele>
        <time>2015-08-13T17:50:54Z</time>
      </trkpt>
      <trkpt lat="42.2450430" lon="1.7123540">
        <ele>1691.9</ele>
        <time>2015-08-13T17:50:55Z</time>
      </trkpt>
      <trkpt lat="42.2450800" lon="1.7124180">
        <ele>1689.7</ele>
        <time>2015-08-13T17:50:56Z</time>
      </trkpt>
      <trkpt lat="42.2451230" lon="1.7124940">
        <ele>1687.0</ele>
        <time>2015-08-13T17:50:57Z</time>
      </trkpt>
      <trkpt lat="42.2451650" lon="1.7125720">
        <ele>1684.4</ele>
        <time>2015-08-13T17:50:58Z</time>
      </trkpt>
      <trkpt lat="42.2452060" lon="1.7126580">
        <ele>1681.8</ele>
        <time>2015-08-13T17:50:59Z</time>
      </trkpt>
      <trkpt lat="42.2452140" lon="1.7127570">
        <ele>1681.8</ele>
        <time>2015-08-13T17:51:00Z</time>
      </trkpt>
      <trkpt lat="42.2452250" lon="1.7128380">
        <ele>1681.5</ele>
        <time>2015-08-13T17:51:01Z</time>
      </trkpt>
      <trkpt lat="42.2452370" lon="1.7129160">
        <ele>1681.0</ele>
        <time>2015-08-13T17:51:02Z</time>
      </trkpt>
      <trkpt lat="42.2452760" lon="1.7129780">
        <ele>1678.9</ele>
        <time>2015-08-13T17:51:03Z</time>
      </trkpt>
      <trkpt lat="42.2453060" lon="1.7130420">
        <ele>1677.6</ele>
        <time>2015-08-13T17:51:04Z</time>
      </trkpt>
      <trkpt lat="42.2453460" lon="1.7131020">
        <ele>1675.5</ele>
        <time>2015-08-13T17:51:05Z</time>
      </trkpt>
      <trkpt lat="42.2453710" lon="1.7131720">
        <ele>1674.7</ele>
        <time>2015-08-13T17:51:06Z</time>
      </trkpt>
      <trkpt lat="42.2454030" lon="1.7132390">
        <ele>1673.4</ele>
        <time>2015-08-13T17:51:07Z</time>
      </trkpt>
      <trkpt lat="42.2454240" lon="1.7132970">
        <ele>1672.9</ele>
        <time>2015-08-13T17:51:08Z</time>
      </trkpt>
      <trkpt lat="42.2454080" lon="1.7133700">
        <ele>1675.2</ele>
        <time>2015-08-13T17:51:09Z</time>
      </trkpt>
      <trkpt lat="42.2454120" lon="1.7134190">
        <ele>1675.8</ele>
        <time>2015-08-13T17:51:10Z</time>
      </trkpt>
      <trkpt lat="42.2454140" lon="1.7134590">
        <ele>1676.3</ele>
        <time>2015-08-13T17:51:11Z</time>
      </trkpt>
      <trkpt lat="42.2454150" lon="1.7135070">
        <ele>1677.0</ele>
        <time>2015-08-13T17:51:12Z</time>
      </trkpt>
      <trkpt lat="42.2454230" lon="1.7135650">
        <ele>1677.5</ele>
        <time>2015-08-13T17:51:14Z</time>
      </trkpt>
      <trkpt lat="42.2454460" lon="1.7136190">
        <ele>1676.8</ele>
        <time>2015-08-13T17:51:16Z</time>
      </trkpt>
      <trkpt lat="42.2454580" lon="1.7136630">
        <ele>1676.6</ele>
        <time>2015-08-13T17:51:18Z</time>
      </trkpt>
      <trkpt lat="42.2454920" lon="1.7136980">
        <ele>1674.8</ele>
        <time>2015-08-13T17:51:20Z</time>
      </trkpt>
      <trkpt lat="42.2454780" lon="1.7137290">
        <ele>1676.3</ele>
        <time>2015-08-13T17:51:22Z</time>
      </trkpt>
      <trkpt lat="42.2455160" lon="1.7137670">
        <ele>1674.0</ele>
        <time>2015-08-13T17:51:24Z</time>
      </trkpt>
      <trkpt lat="42.2455110" lon="1.7138110">
        <ele>1674.3</ele>
        <time>2015-08-13T17:51:26Z</time>
      </trkpt>
      <trkpt lat="42.2455270" lon="1.7138700">
        <ele>1673.2</ele>
        <time>2015-08-13T17:51:28Z</time>
      </trkpt>
      <trkpt lat="42.2455350" lon="1.7139240">
        <ele>1672.6</ele>
        <time>2015-08-13T17:51:29Z</time>
      </trkpt>
      <trkpt lat="42.2455410" lon="1.7139760">
        <ele>1672.1</ele>
        <time>2015-08-13T17:51:30Z</time>
      </trkpt>
      <trkpt lat="42.2455320" lon="1.7140480">
        <ele>1672.7</ele>
        <time>2015-08-13T17:51:31Z</time>
      </trkpt>
      <trkpt lat="42.2455230" lon="1.7141230">
        <ele>1673.4</ele>
        <time>2015-08-13T17:51:32Z</time>
      </trkpt>
      <trkpt lat="42.2455110" lon="1.7142040">
        <ele>1674.2</ele>
        <time>2015-08-13T17:51:33Z</time>
      </trkpt>
      <trkpt lat="42.2454980" lon="1.7142850">
        <ele>1675.1</ele>
        <time>2015-08-13T17:51:34Z</time>
      </trkpt>
      <trkpt lat="42.2454860" lon="1.7143510">
        <ele>1676.0</ele>
        <time>2015-08-13T17:51:35Z</time>
      </trkpt>
      <trkpt lat="42.2454760" lon="1.7144280">
        <ele>1676.7</ele>
        <time>2015-08-13T17:51:36Z</time>
      </trkpt>
      <trkpt lat="42.2454630" lon="1.7144990">
        <ele>1677.6</ele>
        <time>2015-08-13T17:51:37Z</time>
      </trkpt>
      <trkpt lat="42.2454660" lon="1.7145680">
        <ele>1677.4</ele>
        <time>2015-08-13T17:51:38Z</time>
      </trkpt>
      <trkpt lat="42.2454750" lon="1.7146410">
        <ele>1676.8</ele>
        <time>2015-08-13T17:51:39Z</time>
      </trkpt>
      <trkpt lat="42.2454830" lon="1.7147080">
        <ele>1676.3</ele>
        <time>2015-08-13T17:51:40Z</time>
      </trkpt>
      <trkpt lat="42.2454860" lon="1.7147790">
        <ele>1676.2</ele>
        <time>2015-08-13T17:51:41Z</time>
      </trkpt>
      <trkpt lat="42.2454940" lon="1.7148460">
        <ele>1675.7</ele>
        <time>2015-08-13T17:51:42Z</time>
      </trkpt>
      <trkpt lat="42.2455090" lon="1.7149240">
        <ele>1674.7</ele>
        <time>2015-08-13T17:51:43Z</time>
      </trkpt>
      <trkpt lat="42.2455330" lon="1.7149440">
        <ele>1673.0</ele>
        <time>2015-08-13T17:51:45Z</time>
      </trkpt>
      <trkpt lat="42.2455620" lon="1.7150090">
        <ele>1671.1</ele>
        <time>2015-08-13T17:51:47Z</time>
      </trkpt>
      <trkpt lat="42.2455970" lon="1.7150330">
        <ele>1668.6</ele>
        <time>2015-08-13T17:51:48Z</time>
      </trkpt>
      <trkpt lat="42.2456080" lon="1.7150680">
        <ele>1667.8</ele>
        <time>2015-08-13T17:51:49Z</time>
      </trkpt>
      <trkpt lat="42.2456430" lon="1.7151030">
        <ele>1665.4</ele>
        <time>2015-08-13T17:51:50Z</time>
      </trkpt>
      <trkpt lat="42.2456800" lon="1.7151340">
        <ele>1662.8</ele>
        <time>2015-08-13T17:51:51Z</time>
      </trkpt>
      <trkpt lat="42.2457340" lon="1.7151780">
        <ele>1659.0</ele>
        <time>2015-08-13T17:51:53Z</time>
      </trkpt>
      <trkpt lat="42.2457640" lon="1.7151900">
        <ele>1656.9</ele>
        <time>2015-08-13T17:51:54Z</time>
      </trkpt>
      <trkpt lat="42.2457950" lon="1.7152110">
        <ele>1654.7</ele>
        <time>2015-08-13T17:51:55Z</time>
      </trkpt>
      <trkpt lat="42.2458240" lon="1.7152390">
        <ele>1652.7</ele>
        <time>2015-08-13T17:51:56Z</time>
      </trkpt>
      <trkpt lat="42.2458640" lon="1.7152580">
        <ele>1649.9</ele>
        <time>2015-08-13T17:51:57Z</time>
      </trkpt>
      <trkpt lat="42.2458970" lon="1.7152780">
        <ele>1647.6</ele>
        <time>2015-08-13T17:51:58Z</time>
      </trkpt>
      <trkpt lat="42.2459290" lon="1.7153020">
        <ele>1645.4</ele>
        <time>2015-08-13T17:51:59Z</time>
      </trkpt>
      <trkpt lat="42.2459790" lon="1.7153210">
        <ele>1641.9</ele>
        <time>2015-08-13T17:52:00Z</time>
      </trkpt>
      <trkpt lat="42.2460190" lon="1.7153540">
        <ele>1639.2</ele>
        <time>2015-08-13T17:52:01Z</time>
      </trkpt>
      <trkpt lat="42.2460580" lon="1.7153840">
        <ele>1636.5</ele>
        <time>2015-08-13T17:52:02Z</time>
      </trkpt>
      <trkpt lat="42.2461100" lon="1.7154470">
        <ele>1633.7</ele>
        <time>2015-08-13T17:52:03Z</time>
      </trkpt>
      <trkpt lat="42.2461500" lon="1.7154860">
        <ele>1632.0</ele>
        <time>2015-08-13T17:52:04Z</time>
      </trkpt>
      <trkpt lat="42.2462080" lon="1.7155590">
        <ele>1630.2</ele>
        <time>2015-08-13T17:52:05Z</time>
      </trkpt>
      <trkpt lat="42.2462570" lon="1.7156290">
        <ele>1629.3</ele>
        <time>2015-08-13T17:52:06Z</time>
      </trkpt>
      <trkpt lat="42.2463060" lon="1.7156760">
        <ele>1628.1</ele>
        <time>2015-08-13T17:52:07Z</time>
      </trkpt>
      <trkpt lat="42.2463360" lon="1.7157190">
        <ele>1627.9</ele>
        <time>2015-08-13T17:52:08Z</time>
      </trkpt>
      <trkpt lat="42.2463690" lon="1.7157710">
        <ele>1627.7</ele>
        <time>2015-08-13T17:52:09Z</time>
      </trkpt>
      <trkpt lat="42.2464060" lon="1.7158140">
        <ele>1627.0</ele>
        <time>2015-08-13T17:52:10Z</time>
      </trkpt>
      <trkpt lat="42.2464350" lon="1.7158620">
        <ele>1626.9</ele>
        <time>2015-08-13T17:52:11Z</time>
      </trkpt>
      <trkpt lat="42.2464630" lon="1.7159090">
        <ele>1626.7</ele>
        <time>2015-08-13T17:52:12Z</time>
      </trkpt>
      <trkpt lat="42.2464790" lon="1.7159480">
        <ele>1627.0</ele>
        <time>2015-08-13T17:52:13Z</time>
      </trkpt>
      <trkpt lat="42.2464960" lon="1.7159810">
        <ele>1627.0</ele>
        <time>2015-08-13T17:52:14Z</time>
      </trkpt>
      <trkpt lat="42.2465200" lon="1.7160310">
        <ele>1627.1</ele>
        <time>2015-08-13T17:52:16Z</time>
      </trkpt>
      <trkpt lat="42.2465270" lon="1.7160670">
        <ele>1627.8</ele>
        <time>2015-08-13T17:52:18Z</time>
      </trkpt>
      <trkpt lat="42.2465130" lon="1.7160770">
        <ele>1628.8</ele>
        <time>2015-08-13T17:52:21Z</time>
      </trkpt>
      <trkpt lat="42.2465000" lon="1.7160870">
        <ele>1629.9</ele>
        <time>2015-08-13T17:52:58Z</time>
      </trkpt>
      <trkpt lat="42.2464860" lon="1.7160970">
        <ele>1630.9</ele>
        <time>2015-08-13T17:52:59Z</time>
      </trkpt>
      <trkpt lat="42.2464340" lon="1.7160980">
        <ele>1633.9</ele>
        <time>2015-08-13T17:53:00Z</time>
      </trkpt>
      <trkpt lat="42.2464070" lon="1.7160630">
        <ele>1634.4</ele>
        <time>2015-08-13T17:53:02Z</time>
      </trkpt>
      <trkpt lat="42.2463760" lon="1.7160570">
        <ele>1635.9</ele>
        <time>2015-08-13T17:53:06Z</time>
      </trkpt>
      <trkpt lat="42.2463460" lon="1.7160490">
        <ele>1637.4</ele>
        <time>2015-08-13T17:53:09Z</time>
      </trkpt>
      <trkpt lat="42.2463380" lon="1.7160100">
        <ele>1636.6</ele>
        <time>2015-08-13T17:53:12Z</time>
      </trkpt>
      <trkpt lat="42.2463040" lon="1.7159990">
        <ele>1638.2</ele>
        <time>2015-08-13T17:53:17Z</time>
      </trkpt>
      <trkpt lat="42.2463010" lon="1.7159470">
        <ele>1636.7</ele>
        <time>2015-08-13T17:53:21Z</time>
      </trkpt>
      <trkpt lat="42.2462740" lon="1.7159350">
        <ele>1637.9</ele>
        <time>2015-08-13T17:53:24Z</time>
      </trkpt>
      <trkpt lat="42.2462690" lon="1.7158770">
        <ele>1636.3</ele>
        <time>2015-08-13T17:53:29Z</time>
      </trkpt>
      <trkpt lat="42.2462350" lon="1.7158840">
        <ele>1638.4</ele>
        <time>2015-08-13T17:53:31Z</time>
      </trkpt>
      <trkpt lat="42.2462130" lon="1.7158640">
        <ele>1638.9</ele>
        <time>2015-08-13T17:53:34Z</time>
      </trkpt>
      <trkpt lat="42.2461860" lon="1.7158360">
        <ele>1639.5</ele>
        <time>2015-08-13T17:53:37Z</time>
      </trkpt>
      <trkpt lat="42.2461560" lon="1.7158310">
        <ele>1641.0</ele>
        <time>2015-08-13T17:53:40Z</time>
      </trkpt>
      <trkpt lat="42.2461280" lon="1.7158120">
        <ele>1642.0</ele>
        <time>2015-08-13T17:53:43Z</time>
      </trkpt>
      <trkpt lat="42.2460970" lon="1.7157910">
        <ele>1643.2</ele>
        <time>2015-08-13T17:53:46Z</time>
      </trkpt>
      <trkpt lat="42.2460710" lon="1.7157750">
        <ele>1644.3</ele>
        <time>2015-08-13T17:53:49Z</time>
      </trkpt>
      <trkpt lat="42.2460490" lon="1.7157510">
        <ele>1645.0</ele>
        <time>2015-08-13T17:53:52Z</time>
      </trkpt>
      <trkpt lat="42.2460400" lon="1.7157150">
        <ele>1644.6</ele>
        <time>2015-08-13T17:53:56Z</time>
      </trkpt>
      <trkpt lat="42.2460120" lon="1.7156960">
        <ele>1645.9</ele>
        <time>2015-08-13T17:53:59Z</time>
      </trkpt>
      <trkpt lat="42.2459840" lon="1.7156690">
        <ele>1647.0</ele>
        <time>2015-08-13T17:54:03Z</time>
      </trkpt>
      <trkpt lat="42.2459750" lon="1.7156250">
        <ele>1646.7</ele>
        <time>2015-08-13T17:54:07Z</time>
      </trkpt>
      <trkpt lat="42.2459640" lon="1.7155910">
        <ele>1646.7</ele>
        <time>2015-08-13T17:54:10Z</time>
      </trkpt>
      <trkpt lat="42.2459460" lon="1.7155490">
        <ele>1647.0</ele>
        <time>2015-08-13T17:54:17Z</time>
      </trkpt>
      <trkpt lat="42.2459360" lon="1.7155070">
        <ele>1646.9</ele>
        <time>2015-08-13T17:54:20Z</time>
      </trkpt>
      <trkpt lat="42.2459180" lon="1.7154520">
        <ele>1647.1</ele>
        <time>2015-08-13T17:54:24Z</time>
      </trkpt>
      <trkpt lat="42.2459220" lon="1.7154140">
        <ele>1646.2</ele>
        <time>2015-08-13T17:54:27Z</time>
      </trkpt>
      <trkpt lat="42.2459040" lon="1.7153860">
        <ele>1647.4</ele>
        <time>2015-08-13T17:54:30Z</time>
      </trkpt>
      <trkpt lat="42.2458730" lon="1.7153680">
        <ele>1649.6</ele>
        <time>2015-08-13T17:54:32Z</time>
      </trkpt>
      <trkpt lat="42.2458500" lon="1.7153360">
        <ele>1651.1</ele>
        <time>2015-08-13T17:54:34Z</time>
      </trkpt>
      <trkpt lat="42.2458200" lon="1.7153150">
        <ele>1653.2</ele>
        <time>2015-08-13T17:54:37Z</time>
      </trkpt>
      <trkpt lat="42.2457900" lon="1.7152940">
        <ele>1655.3</ele>
        <time>2015-08-13T17:54:41Z</time>
      </trkpt>
      <trkpt lat="42.2457630" lon="1.7152820">
        <ele>1657.2</ele>
        <time>2015-08-13T17:54:43Z</time>
      </trkpt>
      <trkpt lat="42.2457320" lon="1.7152490">
        <ele>1659.3</ele>
        <time>2015-08-13T17:54:47Z</time>
      </trkpt>
      <trkpt lat="42.2456970" lon="1.7152330">
        <ele>1661.8</ele>
        <time>2015-08-13T17:54:50Z</time>
      </trkpt>
      <trkpt lat="42.2456650" lon="1.7152250">
        <ele>1664.1</ele>
        <time>2015-08-13T17:54:52Z</time>
      </trkpt>
      <trkpt lat="42.2456500" lon="1.7151830">
        <ele>1665.0</ele>
        <time>2015-08-13T17:54:55Z</time>
      </trkpt>
      <trkpt lat="42.2456140" lon="1.7151480">
        <ele>1667.6</ele>
        <time>2015-08-13T17:54:58Z</time>
      </trkpt>
      <trkpt lat="42.2455900" lon="1.7151280">
        <ele>1669.2</ele>
        <time>2015-08-13T17:55:00Z</time>
      </trkpt>
      <trkpt lat="42.2455710" lon="1.7150790">
        <ele>1670.5</ele>
        <time>2015-08-13T17:55:02Z</time>
      </trkpt>
      <trkpt lat="42.2455530" lon="1.7150450">
        <ele>1671.8</ele>
        <time>2015-08-13T17:55:05Z</time>
      </trkpt>
      <trkpt lat="42.2455430" lon="1.7149990">
        <ele>1672.4</ele>
        <time>2015-08-13T17:55:08Z</time>
      </trkpt>
      <trkpt lat="42.2455280" lon="1.7149560">
        <ele>1673.4</ele>
        <time>2015-08-13T17:55:11Z</time>
      </trkpt>
      <trkpt lat="42.2455190" lon="1.7149100">
        <ele>1674.0</ele>
        <time>2015-08-13T17:55:14Z</time>
      </trkpt>
      <trkpt lat="42.2455000" lon="1.7148660">
        <ele>1675.3</ele>
        <time>2015-08-13T17:55:19Z</time>
      </trkpt>
      <trkpt lat="42.2455040" lon="1.7148200">
        <ele>1675.0</ele>
        <time>2015-08-13T17:55:21Z</time>
      </trkpt>
      <trkpt lat="42.2455000" lon="1.7147750">
        <ele>1675.2</ele>
        <time>2015-08-13T17:55:24Z</time>
      </trkpt>
      <trkpt lat="42.2455040" lon="1.7147290">
        <ele>1674.8</ele>
        <time>2015-08-13T17:55:27Z</time>
      </trkpt>
      <trkpt lat="42.2455120" lon="1.7146790">
        <ele>1674.2</ele>
        <time>2015-08-13T17:55:30Z</time>
      </trkpt>
      <trkpt lat="42.2455240" lon="1.7146440">
        <ele>1673.2</ele>
        <time>2015-08-13T17:55:31Z</time>
      </trkpt>
      <trkpt lat="42.2455470" lon="1.7146170">
        <ele>1671.5</ele>
        <time>2015-08-13T17:55:33Z</time>
      </trkpt>
      <trkpt lat="42.2455400" lon="1.7145690">
        <ele>1672.0</ele>
        <time>2015-08-13T17:55:35Z</time>
      </trkpt>
      <trkpt lat="42.2455320" lon="1.7145200">
        <ele>1672.6</ele>
        <time>2015-08-13T17:55:38Z</time>
      </trkpt>
      <trkpt lat="42.2455160" lon="1.7144870">
        <ele>1673.8</ele>
        <time>2015-08-13T17:55:42Z</time>
      </trkpt>
      <trkpt lat="42.2454620" lon="1.7144760">
        <ele>1677.7</ele>
        <time>2015-08-13T17:55:45Z</time>
      </trkpt>
      <trkpt lat="42.2454840" lon="1.7144480">
        <ele>1676.1</ele>
        <time>2015-08-13T17:55:56Z</time>
      </trkpt>
      <trkpt lat="42.2454920" lon="1.7144100">
        <ele>1675.5</ele>
        <time>2015-08-13T17:56:06Z</time>
      </trkpt>
      <trkpt lat="42.2455180" lon="1.7143980">
        <ele>1673.6</ele>
        <time>2015-08-13T18:00:13Z</time>
      </trkpt>
      <trkpt lat="42.2455360" lon="1.7144340">
        <ele>1672.3</ele>
        <time>2015-08-13T18:01:20Z</time>
      </trkpt>
      <trkpt lat="42.2455200" lon="1.7144660">
        <ele>1673.5</ele>
        <time>2015-08-13T18:01:24Z</time>
      </trkpt>
      <trkpt lat="42.2455010" lon="1.7144990">
        <ele>1674.8</ele>
        <time>2015-08-13T18:01:40Z</time>
      </trkpt>
      <trkpt lat="42.2454820" lon="1.7145320">
        <ele>1676.2</ele>
        <time>2015-08-13T18:01:53Z</time>
      </trkpt>
      <trkpt lat="42.2454500" lon="1.7145280">
        <ele>1678.6</ele>
        <time>2015-08-13T18:01:55Z</time>
      </trkpt>
      <trkpt lat="42.2454670" lon="1.7145600">
        <ele>1677.3</ele>
        <time>2015-08-13T18:01:57Z</time>
      </trkpt>
      <trkpt lat="42.2454420" lon="1.7145750">
        <ele>1679.1</ele>
        <time>2015-08-13T18:01:59Z</time>
      </trkpt>
      <trkpt lat="42.2454600" lon="1.7146030">
        <ele>1677.9</ele>
        <time>2015-08-13T18:02:06Z</time>
      </trkpt>
      <trkpt lat="42.2454950" lon="1.7146200">
        <ele>1675.3</ele>
        <time>2015-08-13T18:02:17Z</time>
      </trkpt>
      <trkpt lat="42.2454610" lon="1.7146280">
        <ele>1677.8</ele>
        <time>2015-08-13T18:02:34Z</time>
      </trkpt>
      <trkpt lat="42.2454720" lon="1.7146810">
        <ele>1677.1</ele>
        <time>2015-08-13T18:02:36Z</time>
      </trkpt>
      <trkpt lat="42.2454530" lon="1.7147170">
        <ele>1678.5</ele>
        <time>2015-08-13T18:02:39Z</time>
      </trkpt>
      <trkpt lat="42.2454640" lon="1.7147520">
        <ele>1677.8</ele>
        <time>2015-08-13T18:02:42Z</time>
      </trkpt>
      <trkpt lat="42.2454530" lon="1.7147870">
        <ele>1678.6</ele>
        <time>2015-08-13T18:02:45Z</time>
      </trkpt>
      <trkpt lat="42.2454290" lon="1.7148160">
        <ele>1680.4</ele>
        <time>2015-08-13T18:02:57Z</time>
      </trkpt>
      <trkpt lat="42.2454100" lon="1.7148440">
        <ele>1681.8</ele>
        <time>2015-08-13T18:03:04Z</time>
      </trkpt>
      <trkpt lat="42.2454090" lon="1.7148830">
        <ele>1681.9</ele>
        <time>2015-08-13T18:03:13Z</time>
      </trkpt>
      <trkpt lat="42.2453940" lon="1.7149480">
        <ele>1683.0</ele>
        <time>2015-08-13T18:03:16Z</time>
      </trkpt>
      <trkpt lat="42.2454210" lon="1.7149230">
        <ele>1681.1</ele>
        <time>2015-08-13T18:03:18Z</time>
      </trkpt>
      <trkpt lat="42.2454120" lon="1.7149580">
        <ele>1681.8</ele>
        <time>2015-08-13T18:03:33Z</time>
      </trkpt>
      <trkpt lat="42.2453900" lon="1.7149890">
        <ele>1683.3</ele>
        <time>2015-08-13T18:03:58Z</time>
      </trkpt>
      <trkpt lat="42.2453580" lon="1.7150350">
        <ele>1685.5</ele>
        <time>2015-08-13T18:04:21Z</time>
      </trkpt>
      <trkpt lat="42.2453390" lon="1.7150630">
        <ele>1686.8</ele>
        <time>2015-08-13T18:04:22Z</time>
      </trkpt>
      <trkpt lat="42.2453340" lon="1.7151140">
        <ele>1687.2</ele>
        <time>2015-08-13T18:04:25Z</time>
      </trkpt>
      <trkpt lat="42.2453180" lon="1.7151460">
        <ele>1688.3</ele>
        <time>2015-08-13T18:04:26Z</time>
      </trkpt>
      <trkpt lat="42.2452830" lon="1.7151770">
        <ele>1690.6</ele>
        <time>2015-08-13T18:04:28Z</time>
      </trkpt>
      <trkpt lat="42.2453440" lon="1.7152200">
        <ele>1686.6</ele>
        <time>2015-08-13T18:04:30Z</time>
      </trkpt>
      <trkpt lat="42.2453590" lon="1.7152510">
        <ele>1685.6</ele>
        <time>2015-08-13T18:04:35Z</time>
      </trkpt>
      <trkpt lat="42.2453860" lon="1.7152610">
        <ele>1683.8</ele>
        <time>2015-08-13T18:04:45Z</time>
      </trkpt>
      <trkpt lat="42.2453950" lon="1.7153130">
        <ele>1683.3</ele>
        <time>2015-08-13T18:05:10Z</time>
      </trkpt>
      <trkpt lat="42.2453790" lon="1.7153710">
        <ele>1684.4</ele>
        <time>2015-08-13T18:05:12Z</time>
      </trkpt>
      <trkpt lat="42.2453610" lon="1.7154470">
        <ele>1685.5</ele>
        <time>2015-08-13T18:05:17Z</time>
      </trkpt>
      <trkpt lat="42.2453670" lon="1.7154820">
        <ele>1685.0</ele>
        <time>2015-08-13T18:05:19Z</time>
      </trkpt>
      <trkpt lat="42.2453730" lon="1.7155180">
        <ele>1684.5</ele>
        <time>2015-08-13T18:06:09Z</time>
      </trkpt>
      <trkpt lat="42.2453790" lon="1.7155530">
        <ele>1684.0</ele>
        <time>2015-08-13T18:06:26Z</time>
      </trkpt>
      <trkpt lat="42.2453850" lon="1.7155890">
        <ele>1683.6</ele>
        <time>2015-08-13T18:06:46Z</time>
      </trkpt>
      <trkpt lat="42.2453900" lon="1.7156250">
        <ele>1683.1</ele>
        <time>2015-08-13T18:06:48Z</time>
      </trkpt>
      <trkpt lat="42.2453960" lon="1.7156600">
        <ele>1682.7</ele>
        <time>2015-08-13T18:06:50Z</time>
      </trkpt>
      <trkpt lat="42.2454020" lon="1.7156960">
        <ele>1682.2</ele>
        <time>2015-08-13T18:06:57Z</time>
      </trkpt>
      <trkpt lat="42.2454080" lon="1.7157310">
        <ele>1681.8</ele>
        <time>2015-08-13T18:07:09Z</time>
      </trkpt>
      <trkpt lat="42.2454140" lon="1.7157670">
        <ele>1681.3</ele>
        <time>2015-08-13T18:07:11Z</time>
      </trkpt>
      <trkpt lat="42.2454200" lon="1.7158030">
        <ele>1680.9</ele>
        <time>2015-08-13T18:07:28Z</time>
      </trkpt>
      <trkpt lat="42.2454260" lon="1.7158380">
        <ele>1680.5</ele>
        <time>2015-08-13T18:07:48Z</time>
      </trkpt>
      <trkpt lat="42.2454320" lon="1.7158740">
        <ele>1680.1</ele>
        <time>2015-08-13T18:07:50Z</time>
      </trkpt>
      <trkpt lat="42.2454380" lon="1.7159090">
        <ele>1679.7</ele>
        <time>2015-08-13T18:07:54Z</time>
      </trkpt>
      <trkpt lat="42.2454440" lon="1.7159450">
        <ele>1679.4</ele>
        <time>2015-08-13T18:08:07Z</time>
      </trkpt>
      <trkpt lat="42.2454490" lon="1.7159810">
        <ele>1679.1</ele>
        <time>2015-08-13T18:08:10Z</time>
      </trkpt>
      <trkpt lat="42.2454550" lon="1.7160160">
        <ele>1678.8</ele>
        <time>2015-08-13T18:08:12Z</time>
      </trkpt>
      <trkpt lat="42.2454610" lon="1.7160520">
        <ele>1678.5</ele>
        <time>2015-08-13T18:08:19Z</time>
      </trkpt>
      <trkpt lat="42.2454670" lon="1.7160870">
        <ele>1678.2</ele>
        <time>2015-08-13T18:08:32Z</time>
      </trkpt>
      <trkpt lat="42.2454730" lon="1.7161230">
        <ele>1677.9</ele>
        <time>2015-08-13T18:08:33Z</time>
      </trkpt>
      <trkpt lat="42.2454760" lon="1.7161630">
        <ele>1677.8</ele>
        <time>2015-08-13T18:08:35Z</time>
      </trkpt>
      <trkpt lat="42.2454890" lon="1.7161950">
        <ele>1677.3</ele>
        <time>2015-08-13T18:08:36Z</time>
      </trkpt>
      <trkpt lat="42.2454600" lon="1.7162350">
        <ele>1678.4</ele>
        <time>2015-08-13T18:08:39Z</time>
      </trkpt>
      <trkpt lat="42.2454330" lon="1.7162350">
        <ele>1679.4</ele>
        <time>2015-08-13T18:08:40Z</time>
      </trkpt>
      <trkpt lat="42.2454240" lon="1.7162710">
        <ele>1679.6</ele>
        <time>2015-08-13T18:08:42Z</time>
      </trkpt>
      <trkpt lat="42.2454080" lon="1.7163120">
        <ele>1680.1</ele>
        <time>2015-08-13T18:08:44Z</time>
      </trkpt>
      <trkpt lat="42.2453800" lon="1.7163280">
        <ele>1681.4</ele>
        <time>2015-08-13T18:08:46Z</time>
      </trkpt>
      <trkpt lat="42.2453560" lon="1.7163500">
        <ele>1682.4</ele>
        <time>2015-08-13T18:08:48Z</time>
      </trkpt>
      <trkpt lat="42.2453260" lon="1.7163620">
        <ele>1683.8</ele>
        <time>2015-08-13T18:08:50Z</time>
      </trkpt>
      <trkpt lat="42.2453200" lon="1.7163230">
        <ele>1684.4</ele>
        <time>2015-08-13T18:08:56Z</time>
      </trkpt>
      <trkpt lat="42.2453000" lon="1.7162910">
        <ele>1685.7</ele>
        <time>2015-08-13T18:09:01Z</time>
      </trkpt>
      <trkpt lat="42.2453580" lon="1.7162950">
        <ele>1682.7</ele>
        <time>2015-08-13T18:09:04Z</time>
      </trkpt>
      <trkpt lat="42.2453930" lon="1.7162970">
        <ele>1680.9</ele>
        <time>2015-08-13T18:09:06Z</time>
      </trkpt>
      <trkpt lat="42.2454250" lon="1.7163000">
        <ele>1679.4</ele>
        <time>2015-08-13T18:09:08Z</time>
      </trkpt>
      <trkpt lat="42.2453950" lon="1.7162900">
        <ele>1680.9</ele>
        <time>2015-08-13T18:09:14Z</time>
      </trkpt>
      <trkpt lat="42.2453850" lon="1.7163250">
        <ele>1681.1</ele>
        <time>2015-08-13T18:09:43Z</time>
      </trkpt>
      <trkpt lat="42.2453610" lon="1.7163550">
        <ele>1682.1</ele>
        <time>2015-08-13T18:10:50Z</time>
      </trkpt>
      <trkpt lat="42.2453160" lon="1.7163940">
        <ele>1684.0</ele>
        <time>2015-08-13T18:10:52Z</time>
      </trkpt>
      <trkpt lat="42.2453290" lon="1.7163930">
        <ele>1683.4</ele>
        <time>2015-08-13T18:10:57Z</time>
      </trkpt>
      <trkpt lat="42.2453380" lon="1.7163560">
        <ele>1683.2</ele>
        <time>2015-08-13T18:11:12Z</time>
      </trkpt>
      <trkpt lat="42.2453480" lon="1.7163190">
        <ele>1683.0</ele>
        <time>2015-08-13T18:12:03Z</time>
      </trkpt>
      <trkpt lat="42.2453570" lon="1.7162820">
        <ele>1682.8</ele>
        <time>2015-08-13T18:12:05Z</time>
      </trkpt>
      <trkpt lat="42.2453660" lon="1.7162450">
        <ele>1682.6</ele>
        <time>2015-08-13T18:12:06Z</time>
      </trkpt>
      <trkpt lat="42.2453350" lon="1.7162250">
        <ele>1684.3</ele>
        <time>2015-08-13T18:12:08Z</time>
      </trkpt>
      <trkpt lat="42.2453440" lon="1.7161830">
        <ele>1684.0</ele>
        <time>2015-08-13T18:12:11Z</time>
      </trkpt>
      <trkpt lat="42.2453140" lon="1.7161980">
        <ele>1685.5</ele>
        <time>2015-08-13T18:12:15Z</time>
      </trkpt>
      <trkpt lat="42.2453260" lon="1.7161650">
        <ele>1685.0</ele>
        <time>2015-08-13T18:13:59Z</time>
      </trkpt>
      <trkpt lat="42.2450550" lon="1.7161970">
        <ele>1699.1</ele>
        <time>2015-08-14T07:16:57Z</time>
      </trkpt>
      <trkpt lat="42.2450230" lon="1.7161950">
        <ele>1700.8</ele>
        <time>2015-08-14T07:18:03Z</time>
      </trkpt>
      <trkpt lat="42.2449950" lon="1.7161920">
        <ele>1702.3</ele>
        <time>2015-08-14T07:20:04Z</time>
      </trkpt>
      <trkpt lat="42.2449680" lon="1.7161880">
        <ele>1703.7</ele>
        <time>2015-08-14T07:21:14Z</time>
      </trkpt>
      <trkpt lat="42.2449410" lon="1.7161920">
        <ele>1705.1</ele>
        <time>2015-08-14T07:22:39Z</time>
      </trkpt>
      <trkpt lat="42.2449130" lon="1.7161940">
        <ele>1706.6</ele>
        <time>2015-08-14T07:23:39Z</time>
      </trkpt>
      <trkpt lat="42.2448860" lon="1.7161930">
        <ele>1708.0</ele>
        <time>2015-08-14T07:25:31Z</time>
      </trkpt>
      <trkpt lat="42.2451340" lon="1.7163330">
        <ele>1693.6</ele>
        <time>2015-08-14T07:34:03Z</time>
      </trkpt>
      <trkpt lat="42.2451480" lon="1.7163750">
        <ele>1692.4</ele>
        <time>2015-08-14T07:34:05Z</time>
      </trkpt>
      <trkpt lat="42.2451480" lon="1.7163300">
        <ele>1692.9</ele>
        <time>2015-08-14T07:34:08Z</time>
      </trkpt>
      <trkpt lat="42.2451960" lon="1.7163490">
        <ele>1690.3</ele>
        <time>2015-08-14T07:34:10Z</time>
      </trkpt>
      <trkpt lat="42.2452450" lon="1.7163990">
        <ele>1687.4</ele>
        <time>2015-08-14T07:34:11Z</time>
      </trkpt>
      <trkpt lat="42.2452830" lon="1.7164190">
        <ele>1685.4</ele>
        <time>2015-08-14T07:34:12Z</time>
      </trkpt>
      <trkpt lat="42.2452560" lon="1.7164800">
        <ele>1686.1</ele>
        <time>2015-08-14T07:34:13Z</time>
      </trkpt>
      <trkpt lat="42.2453150" lon="1.7165630">
        <ele>1682.7</ele>
        <time>2015-08-14T07:34:14Z</time>
      </trkpt>
      <trkpt lat="42.2453520" lon="1.7166170">
        <ele>1680.6</ele>
        <time>2015-08-14T07:34:15Z</time>
      </trkpt>
      <trkpt lat="42.2453220" lon="1.7166980">
        <ele>1681.3</ele>
        <time>2015-08-14T07:34:16Z</time>
      </trkpt>
      <trkpt lat="42.2453230" lon="1.7167740">
        <ele>1680.6</ele>
        <time>2015-08-14T07:34:17Z</time>
      </trkpt>
      <trkpt lat="42.2453020" lon="1.7168240">
        <ele>1681.1</ele>
        <time>2015-08-14T07:34:19Z</time>
      </trkpt>
      <trkpt lat="42.2453200" lon="1.7168930">
        <ele>1679.8</ele>
        <time>2015-08-14T07:34:21Z</time>
      </trkpt>
      <trkpt lat="42.2453280" lon="1.7169290">
        <ele>1679.2</ele>
        <time>2015-08-14T07:34:22Z</time>
      </trkpt>
      <trkpt lat="42.2453560" lon="1.7169780">
        <ele>1677.8</ele>
        <time>2015-08-14T07:34:24Z</time>
      </trkpt>
      <trkpt lat="42.2453650" lon="1.7170300">
        <ele>1677.1</ele>
        <time>2015-08-14T07:34:26Z</time>
      </trkpt>
      <trkpt lat="42.2454250" lon="1.7170560">
        <ele>1675.0</ele>
        <time>2015-08-14T07:34:27Z</time>
      </trkpt>
      <trkpt lat="42.2454500" lon="1.7170800">
        <ele>1674.4</ele>
        <time>2015-08-14T07:34:28Z</time>
      </trkpt>
      <trkpt lat="42.2454590" lon="1.7171310">
        <ele>1673.3</ele>
        <time>2015-08-14T07:34:32Z</time>
      </trkpt>
      <trkpt lat="42.2454670" lon="1.7171840">
        <ele>1672.2</ele>
        <time>2015-08-14T07:34:35Z</time>
      </trkpt>
      <trkpt lat="42.2454770" lon="1.7172460">
        <ele>1670.9</ele>
        <time>2015-08-14T07:34:37Z</time>
      </trkpt>
      <trkpt lat="42.2454720" lon="1.7173050">
        <ele>1670.0</ele>
        <time>2015-08-14T07:34:39Z</time>
      </trkpt>
      <trkpt lat="42.2454640" lon="1.7173480">
        <ele>1669.4</ele>
        <time>2015-08-14T07:34:41Z</time>
      </trkpt>
      <trkpt lat="42.2454920" lon="1.7173900">
        <ele>1668.1</ele>
        <time>2015-08-14T07:34:42Z</time>
      </trkpt>
      <trkpt lat="42.2455130" lon="1.7174260">
        <ele>1667.1</ele>
        <time>2015-08-14T07:34:43Z</time>
      </trkpt>
      <trkpt lat="42.2455320" lon="1.7174600">
        <ele>1666.1</ele>
        <time>2015-08-14T07:34:44Z</time>
      </trkpt>
      <trkpt lat="42.2455400" lon="1.7174950">
        <ele>1665.4</ele>
        <time>2015-08-14T07:34:45Z</time>
      </trkpt>
      <trkpt lat="42.2455230" lon="1.7175360">
        <ele>1664.9</ele>
        <time>2015-08-14T07:34:48Z</time>
      </trkpt>
      <trkpt lat="42.2454900" lon="1.7175640">
        <ele>1665.0</ele>
        <time>2015-08-14T07:34:49Z</time>
      </trkpt>
      <trkpt lat="42.2455120" lon="1.7176140">
        <ele>1663.8</ele>
        <time>2015-08-14T07:34:51Z</time>
      </trkpt>
      <trkpt lat="42.2455460" lon="1.7176390">
        <ele>1662.7</ele>
        <time>2015-08-14T07:34:53Z</time>
      </trkpt>
      <trkpt lat="42.2455360" lon="1.7176960">
        <ele>1661.9</ele>
        <time>2015-08-14T07:34:55Z</time>
      </trkpt>
      <trkpt lat="42.2455480" lon="1.7177610">
        <ele>1660.5</ele>
        <time>2015-08-14T07:34:57Z</time>
      </trkpt>
      <trkpt lat="42.2455340" lon="1.7177960">
        <ele>1660.2</ele>
        <time>2015-08-14T07:35:00Z</time>
      </trkpt>
      <trkpt lat="42.2455210" lon="1.7178290">
        <ele>1659.8</ele>
        <time>2015-08-14T07:35:03Z</time>
      </trkpt>
      <trkpt lat="42.2455130" lon="1.7178650">
        <ele>1659.3</ele>
        <time>2015-08-14T07:35:05Z</time>
      </trkpt>
      <trkpt lat="42.2454990" lon="1.7179080">
        <ele>1658.8</ele>
        <time>2015-08-14T07:35:07Z</time>
      </trkpt>
      <trkpt lat="42.2454660" lon="1.7179500">
        <ele>1658.1</ele>
        <time>2015-08-14T07:35:08Z</time>
      </trkpt>
      <trkpt lat="42.2454660" lon="1.7179880">
        <ele>1657.0</ele>
        <time>2015-08-14T07:35:09Z</time>
      </trkpt>
      <trkpt lat="42.2454340" lon="1.7180490">
        <ele>1655.5</ele>
        <time>2015-08-14T07:35:11Z</time>
      </trkpt>
      <trkpt lat="42.2454240" lon="1.7180900">
        <ele>1654.3</ele>
        <time>2015-08-14T07:35:12Z</time>
      </trkpt>
      <trkpt lat="42.2454110" lon="1.7181380">
        <ele>1652.9</ele>
        <time>2015-08-14T07:35:13Z</time>
      </trkpt>
      <trkpt lat="42.2454150" lon="1.7181890">
        <ele>1651.2</ele>
        <time>2015-08-14T07:35:14Z</time>
      </trkpt>
      <trkpt lat="42.2454860" lon="1.7182130">
        <ele>1649.8</ele>
        <time>2015-08-14T07:35:15Z</time>
      </trkpt>
      <trkpt lat="42.2455040" lon="1.7182570">
        <ele>1648.4</ele>
        <time>2015-08-14T07:35:16Z</time>
      </trkpt>
      <trkpt lat="42.2455210" lon="1.7183300">
        <ele>1646.1</ele>
        <time>2015-08-14T07:35:18Z</time>
      </trkpt>
      <trkpt lat="42.2455400" lon="1.7183570">
        <ele>1645.2</ele>
        <time>2015-08-14T07:35:19Z</time>
      </trkpt>
      <trkpt lat="42.2455440" lon="1.7183960">
        <ele>1644.1</ele>
        <time>2015-08-14T07:35:20Z</time>
      </trkpt>
      <trkpt lat="42.2455620" lon="1.7184400">
        <ele>1642.8</ele>
        <time>2015-08-14T07:35:21Z</time>
      </trkpt>
      <trkpt lat="42.2455760" lon="1.7185050">
        <ele>1641.0</ele>
        <time>2015-08-14T07:35:23Z</time>
      </trkpt>
      <trkpt lat="42.2455950" lon="1.7185440">
        <ele>1639.9</ele>
        <time>2015-08-14T07:35:24Z</time>
      </trkpt>
      <trkpt lat="42.2455970" lon="1.7185920">
        <ele>1638.6</ele>
        <time>2015-08-14T07:35:25Z</time>
      </trkpt>
      <trkpt lat="42.2456140" lon="1.7186280">
        <ele>1637.7</ele>
        <time>2015-08-14T07:35:26Z</time>
      </trkpt>
      <trkpt lat="42.2456300" lon="1.7186960">
        <ele>1636.0</ele>
        <time>2015-08-14T07:35:27Z</time>
      </trkpt>
      <trkpt lat="42.2456760" lon="1.7187330">
        <ele>1635.3</ele>
        <time>2015-08-14T07:35:28Z</time>
      </trkpt>
      <trkpt lat="42.2457040" lon="1.7187900">
        <ele>1634.1</ele>
        <time>2015-08-14T07:35:29Z</time>
      </trkpt>
      <trkpt lat="42.2457260" lon="1.7188390">
        <ele>1633.0</ele>
        <time>2015-08-14T07:35:30Z</time>
      </trkpt>
      <trkpt lat="42.2457510" lon="1.7188930">
        <ele>1632.0</ele>
        <time>2015-08-14T07:35:31Z</time>
      </trkpt>
      <trkpt lat="42.2457620" lon="1.7189450">
        <ele>1630.9</ele>
        <time>2015-08-14T07:35:32Z</time>
      </trkpt>
      <trkpt lat="42.2457810" lon="1.7189860">
        <ele>1630.1</ele>
        <time>2015-08-14T07:35:33Z</time>
      </trkpt>
      <trkpt lat="42.2457910" lon="1.7190220">
        <ele>1629.4</ele>
        <time>2015-08-14T07:35:40Z</time>
      </trkpt>
      <trkpt lat="42.2457980" lon="1.7190700">
        <ele>1628.4</ele>
        <time>2015-08-14T07:35:43Z</time>
      </trkpt>
      <trkpt lat="42.2457990" lon="1.7191170">
        <ele>1627.3</ele>
        <time>2015-08-14T07:35:46Z</time>
      </trkpt>
      <trkpt lat="42.2458430" lon="1.7191560">
        <ele>1627.1</ele>
        <time>2015-08-14T07:35:58Z</time>
      </trkpt>
      <trkpt lat="42.2458610" lon="1.7191830">
        <ele>1626.8</ele>
        <time>2015-08-14T07:36:00Z</time>
      </trkpt>
      <trkpt lat="42.2458930" lon="1.7192100">
        <ele>1626.8</ele>
        <time>2015-08-14T07:36:01Z</time>
      </trkpt>
      <trkpt lat="42.2459330" lon="1.7191920">
        <ele>1627.9</ele>
        <time>2015-08-14T07:36:06Z</time>
      </trkpt>
      <trkpt lat="42.2459640" lon="1.7191940">
        <ele>1628.3</ele>
        <time>2015-08-14T07:36:07Z</time>
      </trkpt>
      <trkpt lat="42.2459840" lon="1.7192220">
        <ele>1628.1</ele>
        <time>2015-08-14T07:36:14Z</time>
      </trkpt>
      <trkpt lat="42.2460200" lon="1.7192290">
        <ele>1628.6</ele>
        <time>2015-08-14T07:36:54Z</time>
      </trkpt>
      <trkpt lat="42.2460520" lon="1.7192150">
        <ele>1629.4</ele>
        <time>2015-08-14T07:36:57Z</time>
      </trkpt>
      <trkpt lat="42.2460880" lon="1.7192140">
        <ele>1630.1</ele>
        <time>2015-08-14T07:36:59Z</time>
      </trkpt>
      <trkpt lat="42.2461170" lon="1.7192060">
        <ele>1630.7</ele>
        <time>2015-08-14T07:37:01Z</time>
      </trkpt>
      <trkpt lat="42.2461550" lon="1.7192740">
        <ele>1630.3</ele>
        <time>2015-08-14T07:37:03Z</time>
      </trkpt>
      <trkpt lat="42.2461880" lon="1.7192740">
        <ele>1630.9</ele>
        <time>2015-08-14T07:37:04Z</time>
      </trkpt>
      <trkpt lat="42.2462310" lon="1.7192870">
        <ele>1631.6</ele>
        <time>2015-08-14T07:37:06Z</time>
      </trkpt>
      <trkpt lat="42.2462880" lon="1.7193370">
        <ele>1630.4</ele>
        <time>2015-08-14T07:37:08Z</time>
      </trkpt>
      <trkpt lat="42.2463490" lon="1.7193610">
        <ele>1628.9</ele>
        <time>2015-08-14T07:37:10Z</time>
      </trkpt>
      <trkpt lat="42.2463800" lon="1.7193840">
        <ele>1628.1</ele>
        <time>2015-08-14T07:37:11Z</time>
      </trkpt>
      <trkpt lat="42.2464100" lon="1.7193900">
        <ele>1627.5</ele>
        <time>2015-08-14T07:37:13Z</time>
      </trkpt>
      <trkpt lat="42.2464680" lon="1.7194170">
        <ele>1626.4</ele>
        <time>2015-08-14T07:37:15Z</time>
      </trkpt>
      <trkpt lat="42.2465010" lon="1.7194180">
        <ele>1625.8</ele>
        <time>2015-08-14T07:37:16Z</time>
      </trkpt>
      <trkpt lat="42.2465210" lon="1.7194480">
        <ele>1625.5</ele>
        <time>2015-08-14T07:37:17Z</time>
      </trkpt>
      <trkpt lat="42.2465860" lon="1.7194730">
        <ele>1624.6</ele>
        <time>2015-08-14T07:37:19Z</time>
      </trkpt>
      <trkpt lat="42.2466510" lon="1.7195130">
        <ele>1624.0</ele>
        <time>2015-08-14T07:37:20Z</time>
      </trkpt>
      <trkpt lat="42.2467020" lon="1.7195170">
        <ele>1623.4</ele>
        <time>2015-08-14T07:37:21Z</time>
      </trkpt>
      <trkpt lat="42.2467800" lon="1.7195240">
        <ele>1622.6</ele>
        <time>2015-08-14T07:37:22Z</time>
      </trkpt>
      <trkpt lat="42.2468240" lon="1.7195400">
        <ele>1622.4</ele>
        <time>2015-08-14T07:37:23Z</time>
      </trkpt>
      <trkpt lat="42.2468730" lon="1.7195500">
        <ele>1622.1</ele>
        <time>2015-08-14T07:37:24Z</time>
      </trkpt>
      <trkpt lat="42.2469090" lon="1.7195660">
        <ele>1622.1</ele>
        <time>2015-08-14T07:37:25Z</time>
      </trkpt>
      <trkpt lat="42.2469500" lon="1.7196230">
        <ele>1622.5</ele>
        <time>2015-08-14T07:37:27Z</time>
      </trkpt>
      <trkpt lat="42.2469840" lon="1.7195820">
        <ele>1621.8</ele>
        <time>2015-08-14T07:37:31Z</time>
      </trkpt>
      <trkpt lat="42.2470050" lon="1.7196180">
        <ele>1622.1</ele>
        <time>2015-08-14T07:37:33Z</time>
      </trkpt>
      <trkpt lat="42.2470330" lon="1.7196190">
        <ele>1621.9</ele>
        <time>2015-08-14T07:37:35Z</time>
      </trkpt>
      <trkpt lat="42.2470610" lon="1.7196260">
        <ele>1621.8</ele>
        <time>2015-08-14T07:37:37Z</time>
      </trkpt>
      <trkpt lat="42.2470750" lon="1.7196580">
        <ele>1622.2</ele>
        <time>2015-08-14T07:38:18Z</time>
      </trkpt>
      <trkpt lat="42.2470810" lon="1.7196950">
        <ele>1622.8</ele>
        <time>2015-08-14T07:38:43Z</time>
      </trkpt>
      <trkpt lat="42.2471000" lon="1.7197320">
        <ele>1622.7</ele>
        <time>2015-08-14T07:38:47Z</time>
      </trkpt>
      <trkpt lat="42.2471120" lon="1.7197810">
        <ele>1622.9</ele>
        <time>2015-08-14T07:38:52Z</time>
      </trkpt>
      <trkpt lat="42.2470940" lon="1.7198220">
        <ele>1624.3</ele>
        <time>2015-08-14T07:38:54Z</time>
      </trkpt>
      <trkpt lat="42.2470760" lon="1.7198650">
        <ele>1625.4</ele>
        <time>2015-08-14T07:38:56Z</time>
      </trkpt>
      <trkpt lat="42.2470570" lon="1.7198960">
        <ele>1625.8</ele>
        <time>2015-08-14T07:38:58Z</time>
      </trkpt>
      <trkpt lat="42.2470350" lon="1.7199440">
        <ele>1626.3</ele>
        <time>2015-08-14T07:39:58Z</time>
      </trkpt>
      <trkpt lat="42.2470210" lon="1.7199950">
        <ele>1626.9</ele>
        <time>2015-08-14T07:40:00Z</time>
      </trkpt>
      <trkpt lat="42.2470010" lon="1.7200320">
        <ele>1627.2</ele>
        <time>2015-08-14T07:40:03Z</time>
      </trkpt>
      <trkpt lat="42.2469690" lon="1.7200330">
        <ele>1626.9</ele>
        <time>2015-08-14T07:40:07Z</time>
      </trkpt>
      <trkpt lat="42.2469980" lon="1.7200400">
        <ele>1627.3</ele>
        <time>2015-08-14T07:40:08Z</time>
      </trkpt>
      <trkpt lat="42.2470240" lon="1.7200660">
        <ele>1627.9</ele>
        <time>2015-08-14T07:40:14Z</time>
      </trkpt>
      <trkpt lat="42.2470470" lon="1.7200870">
        <ele>1628.4</ele>
        <time>2015-08-14T07:40:20Z</time>
      </trkpt>
      <trkpt lat="42.2470250" lon="1.7201310">
        <ele>1628.7</ele>
        <time>2015-08-14T07:40:31Z</time>
      </trkpt>
      <trkpt lat="42.2470240" lon="1.7201730">
        <ele>1629.3</ele>
        <time>2015-08-14T07:40:35Z</time>
      </trkpt>
      <trkpt lat="42.2470420" lon="1.7202220">
        <ele>1630.2</ele>
        <time>2015-08-14T07:40:38Z</time>
      </trkpt>
      <trkpt lat="42.2470660" lon="1.7202610">
        <ele>1631.2</ele>
        <time>2015-08-14T07:40:40Z</time>
      </trkpt>
      <trkpt lat="42.2470580" lon="1.7203120">
        <ele>1631.8</ele>
        <time>2015-08-14T07:40:42Z</time>
      </trkpt>
      <trkpt lat="42.2470590" lon="1.7203750">
        <ele>1632.8</ele>
        <time>2015-08-14T07:40:44Z</time>
      </trkpt>
      <trkpt lat="42.2470750" lon="1.7204080">
        <ele>1633.7</ele>
        <time>2015-08-14T07:40:46Z</time>
      </trkpt>
      <trkpt lat="42.2470520" lon="1.7204300">
        <ele>1632.9</ele>
        <time>2015-08-14T07:40:47Z</time>
      </trkpt>
      <trkpt lat="42.2470170" lon="1.7204470">
        <ele>1631.7</ele>
        <time>2015-08-14T07:40:48Z</time>
      </trkpt>
      <trkpt lat="42.2469850" lon="1.7204700">
        <ele>1630.4</ele>
        <time>2015-08-14T07:40:50Z</time>
      </trkpt>
      <trkpt lat="42.2469640" lon="1.7205010">
        <ele>1629.2</ele>
        <time>2015-08-14T07:40:54Z</time>
      </trkpt>
      <trkpt lat="42.2469770" lon="1.7205360">
        <ele>1628.8</ele>
        <time>2015-08-14T07:41:01Z</time>
      </trkpt>
      <trkpt lat="42.2469840" lon="1.7205810">
        <ele>1628.0</ele>
        <time>2015-08-14T07:41:07Z</time>
      </trkpt>
      <trkpt lat="42.2469980" lon="1.7206120">
        <ele>1627.7</ele>
        <time>2015-08-14T07:41:50Z</time>
      </trkpt>
      <trkpt lat="42.2470080" lon="1.7206810">
        <ele>1626.5</ele>
        <time>2015-08-14T07:41:54Z</time>
      </trkpt>
      <trkpt lat="42.2470100" lon="1.7207350">
        <ele>1625.4</ele>
        <time>2015-08-14T07:41:56Z</time>
      </trkpt>
      <trkpt lat="42.2470240" lon="1.7207920">
        <ele>1624.6</ele>
        <time>2015-08-14T07:41:59Z</time>
      </trkpt>
      <trkpt lat="42.2470230" lon="1.7208370">
        <ele>1623.6</ele>
        <time>2015-08-14T07:42:00Z</time>
      </trkpt>
      <trkpt lat="42.2470390" lon="1.7208760">
        <ele>1623.3</ele>
        <time>2015-08-14T07:42:04Z</time>
      </trkpt>
      <trkpt lat="42.2470340" lon="1.7209190">
        <ele>1622.3</ele>
        <time>2015-08-14T07:42:06Z</time>
      </trkpt>
      <trkpt lat="42.2470140" lon="1.7209660">
        <ele>1620.7</ele>
        <time>2015-08-14T07:42:09Z</time>
      </trkpt>
      <trkpt lat="42.2469940" lon="1.7209910">
        <ele>1619.5</ele>
        <time>2015-08-14T07:42:19Z</time>
      </trkpt>
      <trkpt lat="42.2469740" lon="1.7210180">
        <ele>1618.3</ele>
        <time>2015-08-14T07:43:09Z</time>
      </trkpt>
      <trkpt lat="42.2469470" lon="1.7210250">
        <ele>1617.3</ele>
        <time>2015-08-14T07:43:13Z</time>
      </trkpt>
      <trkpt lat="42.2469370" lon="1.7210610">
        <ele>1616.2</ele>
        <time>2015-08-14T07:43:55Z</time>
      </trkpt>
      <trkpt lat="42.2470160" lon="1.7211290">
        <ele>1617.3</ele>
        <time>2015-08-14T07:44:55Z</time>
      </trkpt>
      <trkpt lat="42.2469400" lon="1.7210730">
        <ele>1616.1</ele>
        <time>2015-08-14T07:44:57Z</time>
      </trkpt>
      <trkpt lat="42.2469220" lon="1.7211200">
        <ele>1614.4</ele>
        <time>2015-08-14T07:45:03Z</time>
      </trkpt>
      <trkpt lat="42.2469220" lon="1.7212480">
        <ele>1611.6</ele>
        <time>2015-08-14T07:45:06Z</time>
      </trkpt>
      <trkpt lat="42.2469080" lon="1.7212100">
        <ele>1612.0</ele>
        <time>2015-08-14T07:45:07Z</time>
      </trkpt>
      <trkpt lat="42.2469250" lon="1.7212400">
        <ele>1611.9</ele>
        <time>2015-08-14T07:45:08Z</time>
      </trkpt>
      <trkpt lat="42.2469550" lon="1.7213090">
        <ele>1610.8</ele>
        <time>2015-08-14T07:45:10Z</time>
      </trkpt>
      <trkpt lat="42.2469760" lon="1.7213390">
        <ele>1610.5</ele>
        <time>2015-08-14T07:45:11Z</time>
      </trkpt>
      <trkpt lat="42.2470380" lon="1.7214340">
        <ele>1609.4</ele>
        <time>2015-08-14T07:45:13Z</time>
      </trkpt>
      <trkpt lat="42.2470610" lon="1.7215100">
        <ele>1607.6</ele>
        <time>2015-08-14T07:45:14Z</time>
      </trkpt>
      <trkpt lat="42.2470870" lon="1.7215600">
        <ele>1606.4</ele>
        <time>2015-08-14T07:45:15Z</time>
      </trkpt>
      <trkpt lat="42.2471050" lon="1.7216260">
        <ele>1603.6</ele>
        <time>2015-08-14T07:45:16Z</time>
      </trkpt>
      <trkpt lat="42.2471280" lon="1.7216560">
        <ele>1601.7</ele>
        <time>2015-08-14T07:45:17Z</time>
      </trkpt>
      <trkpt lat="42.2470970" lon="1.7216150">
        <ele>1604.2</ele>
        <time>2015-08-14T07:45:18Z</time>
      </trkpt>
      <trkpt lat="42.2470800" lon="1.7216480">
        <ele>1603.5</ele>
        <time>2015-08-14T07:47:07Z</time>
      </trkpt>
      <trkpt lat="42.2470490" lon="1.7216990">
        <ele>1600.9</ele>
        <time>2015-08-14T07:47:09Z</time>
      </trkpt>
      <trkpt lat="42.2470280" lon="1.7217350">
        <ele>1599.1</ele>
        <time>2015-08-14T07:47:11Z</time>
      </trkpt>
      <trkpt lat="42.2470030" lon="1.7217630">
        <ele>1597.4</ele>
        <time>2015-08-14T07:47:13Z</time>
      </trkpt>
      <trkpt lat="42.2469110" lon="1.7217630">
        <ele>1594.7</ele>
        <time>2015-08-14T07:47:15Z</time>
      </trkpt>
      <trkpt lat="42.2468720" lon="1.7217560">
        <ele>1593.8</ele>
        <time>2015-08-14T07:47:16Z</time>
      </trkpt>
      <trkpt lat="42.2468320" lon="1.7217490">
        <ele>1592.9</ele>
        <time>2015-08-14T07:47:17Z</time>
      </trkpt>
      <trkpt lat="42.2467890" lon="1.7217360">
        <ele>1592.0</ele>
        <time>2015-08-14T07:47:18Z</time>
      </trkpt>
      <trkpt lat="42.2467600" lon="1.7217550">
        <ele>1590.6</ele>
        <time>2015-08-14T07:47:21Z</time>
      </trkpt>
      <trkpt lat="42.2467320" lon="1.7217810">
        <ele>1589.0</ele>
        <time>2015-08-14T07:47:23Z</time>
      </trkpt>
      <trkpt lat="42.2466980" lon="1.7218050">
        <ele>1587.3</ele>
        <time>2015-08-14T07:47:25Z</time>
      </trkpt>
      <trkpt lat="42.2466750" lon="1.7218330">
        <ele>1585.7</ele>
        <time>2015-08-14T07:47:27Z</time>
      </trkpt>
      <trkpt lat="42.2466520" lon="1.7218570">
        <ele>1584.4</ele>
        <time>2015-08-14T07:47:29Z</time>
      </trkpt>
      <trkpt lat="42.2466310" lon="1.7218860">
        <ele>1582.9</ele>
        <time>2015-08-14T07:47:32Z</time>
      </trkpt>
      <trkpt lat="42.2466020" lon="1.7219040">
        <ele>1581.6</ele>
        <time>2015-08-14T07:47:34Z</time>
      </trkpt>
      <trkpt lat="42.2465730" lon="1.7219200">
        <ele>1580.3</ele>
        <time>2015-08-14T07:47:36Z</time>
      </trkpt>
      <trkpt lat="42.2465280" lon="1.7219360">
        <ele>1578.6</ele>
        <time>2015-08-14T07:47:38Z</time>
      </trkpt>
      <trkpt lat="42.2464850" lon="1.7219420">
        <ele>1577.2</ele>
        <time>2015-08-14T07:47:40Z</time>
      </trkpt>
      <trkpt lat="42.2465180" lon="1.7219420">
        <ele>1578.1</ele>
        <time>2015-08-14T07:47:41Z</time>
      </trkpt>
      <trkpt lat="42.2465170" lon="1.7219790">
        <ele>1577.0</ele>
        <time>2015-08-14T07:48:28Z</time>
      </trkpt>
      <trkpt lat="42.2464570" lon="1.7219600">
        <ele>1575.9</ele>
        <time>2015-08-14T07:49:01Z</time>
      </trkpt>
      <trkpt lat="42.2464020" lon="1.7219680">
        <ele>1574.2</ele>
        <time>2015-08-14T07:49:03Z</time>
      </trkpt>
      <trkpt lat="42.2463670" lon="1.7219980">
        <ele>1572.4</ele>
        <time>2015-08-14T07:49:04Z</time>
      </trkpt>
      <trkpt lat="42.2463300" lon="1.7220160">
        <ele>1570.9</ele>
        <time>2015-08-14T07:49:05Z</time>
      </trkpt>
      <trkpt lat="42.2463010" lon="1.7220200">
        <ele>1570.0</ele>
        <time>2015-08-14T07:49:06Z</time>
      </trkpt>
      <trkpt lat="42.2462610" lon="1.7219940">
        <ele>1569.7</ele>
        <time>2015-08-14T07:49:07Z</time>
      </trkpt>
      <trkpt lat="42.2462300" lon="1.7219820">
        <ele>1568.6</ele>
        <time>2015-08-14T07:49:08Z</time>
      </trkpt>
      <trkpt lat="42.2462680" lon="1.7219640">
        <ele>1570.6</ele>
        <time>2015-08-14T07:49:09Z</time>
      </trkpt>
      <trkpt lat="42.2462990" lon="1.7219680">
        <ele>1571.4</ele>
        <time>2015-08-14T07:49:13Z</time>
      </trkpt>
      <trkpt lat="42.2463380" lon="1.7219630">
        <ele>1572.6</ele>
        <time>2015-08-14T07:49:15Z</time>
      </trkpt>
      <trkpt lat="42.2463780" lon="1.7219590">
        <ele>1573.8</ele>
        <time>2015-08-14T07:49:18Z</time>
      </trkpt>
      <trkpt lat="42.2464100" lon="1.7219370">
        <ele>1575.3</ele>
        <time>2015-08-14T07:49:20Z</time>
      </trkpt>
      <trkpt lat="42.2464500" lon="1.7219410">
        <ele>1576.3</ele>
        <time>2015-08-14T07:49:22Z</time>
      </trkpt>
      <trkpt lat="42.2464790" lon="1.7219520">
        <ele>1576.8</ele>
        <time>2015-08-14T07:49:25Z</time>
      </trkpt>
      <trkpt lat="42.2464510" lon="1.7219530">
        <ele>1576.0</ele>
        <time>2015-08-14T07:49:31Z</time>
      </trkpt>
      <trkpt lat="42.2464760" lon="1.7219310">
        <ele>1577.3</ele>
        <time>2015-08-14T07:49:36Z</time>
      </trkpt>
      <trkpt lat="42.2464690" lon="1.7219680">
        <ele>1576.0</ele>
        <time>2015-08-14T07:49:44Z</time>
      </trkpt>
      <trkpt lat="42.2465000" lon="1.7220180">
        <ele>1575.5</ele>
        <time>2015-08-14T07:50:45Z</time>
      </trkpt>
      <trkpt lat="42.2465230" lon="1.7220460">
        <ele>1575.3</ele>
        <time>2015-08-14T07:50:46Z</time>
      </trkpt>
      <trkpt lat="42.2465420" lon="1.7220840">
        <ele>1574.7</ele>
        <time>2015-08-14T07:50:47Z</time>
      </trkpt>
      <trkpt lat="42.2465630" lon="1.7221080">
        <ele>1574.6</ele>
        <time>2015-08-14T07:50:48Z</time>
      </trkpt>
      <trkpt lat="42.2466210" lon="1.7221520">
        <ele>1574.9</ele>
        <time>2015-08-14T07:50:50Z</time>
      </trkpt>
      <trkpt lat="42.2466440" lon="1.7221810">
        <ele>1574.8</ele>
        <time>2015-08-14T07:50:51Z</time>
      </trkpt>
      <trkpt lat="42.2466770" lon="1.7222090">
        <ele>1574.9</ele>
        <time>2015-08-14T07:50:53Z</time>
      </trkpt>
      <trkpt lat="42.2467090" lon="1.7222440">
        <ele>1574.8</ele>
        <time>2015-08-14T07:50:56Z</time>
      </trkpt>
      <trkpt lat="42.2467240" lon="1.7222930">
        <ele>1573.9</ele>
        <time>2015-08-14T07:50:58Z</time>
      </trkpt>
      <trkpt lat="42.2467540" lon="1.7223130">
        <ele>1574.1</ele>
        <time>2015-08-14T07:51:00Z</time>
      </trkpt>
      <trkpt lat="42.2467920" lon="1.7223520">
        <ele>1574.1</ele>
        <time>2015-08-14T07:51:02Z</time>
      </trkpt>
      <trkpt lat="42.2468290" lon="1.7223910">
        <ele>1574.1</ele>
        <time>2015-08-14T07:51:04Z</time>
      </trkpt>
      <trkpt lat="42.2468620" lon="1.7224310">
        <ele>1573.9</ele>
        <time>2015-08-14T07:51:06Z</time>
      </trkpt>
      <trkpt lat="42.2468640" lon="1.7224810">
        <ele>1572.6</ele>
        <time>2015-08-14T07:51:08Z</time>
      </trkpt>
      <trkpt lat="42.2468790" lon="1.7225200">
        <ele>1571.9</ele>
        <time>2015-08-14T07:51:11Z</time>
      </trkpt>
      <trkpt lat="42.2469050" lon="1.7225330">
        <ele>1572.3</ele>
        <time>2015-08-14T07:51:12Z</time>
      </trkpt>
      <trkpt lat="42.2469270" lon="1.7225610">
        <ele>1572.2</ele>
        <time>2015-08-14T07:51:13Z</time>
      </trkpt>
      <trkpt lat="42.2469630" lon="1.7225930">
        <ele>1572.3</ele>
        <time>2015-08-14T07:51:16Z</time>
      </trkpt>
      <trkpt lat="42.2469810" lon="1.7226260">
        <ele>1571.9</ele>
        <time>2015-08-14T07:51:18Z</time>
      </trkpt>
      <trkpt lat="42.2469850" lon="1.7226640">
        <ele>1571.0</ele>
        <time>2015-08-14T07:51:20Z</time>
      </trkpt>
      <trkpt lat="42.2469890" lon="1.7227150">
        <ele>1569.7</ele>
        <time>2015-08-14T07:51:24Z</time>
      </trkpt>
      <trkpt lat="42.2469920" lon="1.7227590">
        <ele>1568.7</ele>
        <time>2015-08-14T07:51:27Z</time>
      </trkpt>
      <trkpt lat="42.2470250" lon="1.7227930">
        <ele>1568.7</ele>
        <time>2015-08-14T07:51:30Z</time>
      </trkpt>
      <trkpt lat="42.2470640" lon="1.7228170">
        <ele>1569.1</ele>
        <time>2015-08-14T07:51:31Z</time>
      </trkpt>
      <trkpt lat="42.2471080" lon="1.7228360">
        <ele>1569.1</ele>
        <time>2015-08-14T07:51:33Z</time>
      </trkpt>
      <trkpt lat="42.2471350" lon="1.7228480">
        <ele>1568.8</ele>
        <time>2015-08-14T07:51:34Z</time>
      </trkpt>
      <trkpt lat="42.2471720" lon="1.7228610">
        <ele>1568.4</ele>
        <time>2015-08-14T07:51:36Z</time>
      </trkpt>
      <trkpt lat="42.2472120" lon="1.7228730">
        <ele>1568.1</ele>
        <time>2015-08-14T07:51:38Z</time>
      </trkpt>
      <trkpt lat="42.2472440" lon="1.7228800">
        <ele>1568.0</ele>
        <time>2015-08-14T07:51:40Z</time>
      </trkpt>
      <trkpt lat="42.2472910" lon="1.7228610">
        <ele>1568.4</ele>
        <time>2015-08-14T07:51:45Z</time>
      </trkpt>
      <trkpt lat="42.2473280" lon="1.7228860">
        <ele>1567.9</ele>
        <time>2015-08-14T07:51:47Z</time>
      </trkpt>
      <trkpt lat="42.2473620" lon="1.7228920">
        <ele>1567.8</ele>
        <time>2015-08-14T07:51:48Z</time>
      </trkpt>
      <trkpt lat="42.2474050" lon="1.7229230">
        <ele>1567.2</ele>
        <time>2015-08-14T07:51:50Z</time>
      </trkpt>
      <trkpt lat="42.2474450" lon="1.7229480">
        <ele>1566.6</ele>
        <time>2015-08-14T07:51:52Z</time>
      </trkpt>
      <trkpt lat="42.2474780" lon="1.7229710">
        <ele>1566.1</ele>
        <time>2015-08-14T07:51:54Z</time>
      </trkpt>
      <trkpt lat="42.2475060" lon="1.7229990">
        <ele>1565.4</ele>
        <time>2015-08-14T07:51:56Z</time>
      </trkpt>
      <trkpt lat="42.2475490" lon="1.7230130">
        <ele>1565.1</ele>
        <time>2015-08-14T07:51:58Z</time>
      </trkpt>
      <trkpt lat="42.2475700" lon="1.7230370">
        <ele>1564.6</ele>
        <time>2015-08-14T07:52:33Z</time>
      </trkpt>
      <trkpt lat="42.2475440" lon="1.7230130">
        <ele>1565.1</ele>
        <time>2015-08-14T07:58:18Z</time>
      </trkpt>
      <trkpt lat="42.2475220" lon="1.7229860">
        <ele>1565.8</ele>
        <time>2015-08-14T07:58:20Z</time>
      </trkpt>
      <trkpt lat="42.2475110" lon="1.7229440">
        <ele>1566.8</ele>
        <time>2015-08-14T07:58:22Z</time>
      </trkpt>
      <trkpt lat="42.2474800" lon="1.7229680">
        <ele>1566.1</ele>
        <time>2015-08-14T07:58:24Z</time>
      </trkpt>
      <trkpt lat="42.2474500" lon="1.7229660">
        <ele>1566.1</ele>
        <time>2015-08-14T07:58:41Z</time>
      </trkpt>
      <trkpt lat="42.2474220" lon="1.7229420">
        <ele>1566.7</ele>
        <time>2015-08-14T07:58:43Z</time>
      </trkpt>
      <trkpt lat="42.2473820" lon="1.7229320">
        <ele>1566.9</ele>
        <time>2015-08-14T07:58:45Z</time>
      </trkpt>
      <trkpt lat="42.2473370" lon="1.7229200">
        <ele>1567.2</ele>
        <time>2015-08-14T07:58:47Z</time>
      </trkpt>
      <trkpt lat="42.2473070" lon="1.7229140">
        <ele>1567.3</ele>
        <time>2015-08-14T07:58:49Z</time>
      </trkpt>
      <trkpt lat="42.2472610" lon="1.7229060">
        <ele>1567.4</ele>
        <time>2015-08-14T07:58:52Z</time>
      </trkpt>
      <trkpt lat="42.2472310" lon="1.7228880">
        <ele>1567.8</ele>
        <time>2015-08-14T07:58:53Z</time>
      </trkpt>
      <trkpt lat="42.2471850" lon="1.7228720">
        <ele>1568.2</ele>
        <time>2015-08-14T07:58:55Z</time>
      </trkpt>
      <trkpt lat="42.2471600" lon="1.7228540">
        <ele>1568.6</ele>
        <time>2015-08-14T07:58:56Z</time>
      </trkpt>
      <trkpt lat="42.2471200" lon="1.7228310">
        <ele>1569.2</ele>
        <time>2015-08-14T07:58:58Z</time>
      </trkpt>
      <trkpt lat="42.2470820" lon="1.7228070">
        <ele>1569.9</ele>
        <time>2015-08-14T07:59:00Z</time>
      </trkpt>
      <trkpt lat="42.2470410" lon="1.7227740">
        <ele>1569.6</ele>
        <time>2015-08-14T07:59:02Z</time>
      </trkpt>
      <trkpt lat="42.2470130" lon="1.7227320">
        <ele>1570.0</ele>
        <time>2015-08-14T07:59:04Z</time>
      </trkpt>
      <trkpt lat="42.2470050" lon="1.7226900">
        <ele>1570.8</ele>
        <time>2015-08-14T07:59:06Z</time>
      </trkpt>
      <trkpt lat="42.2470200" lon="1.7226380">
        <ele>1572.6</ele>
        <time>2015-08-14T07:59:08Z</time>
      </trkpt>
      <trkpt lat="42.2470130" lon="1.7225820">
        <ele>1573.9</ele>
        <time>2015-08-14T07:59:10Z</time>
      </trkpt>
      <trkpt lat="42.2470580" lon="1.7226090">
        <ele>1574.4</ele>
        <time>2015-08-14T07:59:12Z</time>
      </trkpt>
      <trkpt lat="42.2470810" lon="1.7226320">
        <ele>1574.5</ele>
        <time>2015-08-14T07:59:15Z</time>
      </trkpt>
      <trkpt lat="42.2471170" lon="1.7226540">
        <ele>1573.7</ele>
        <time>2015-08-14T07:59:18Z</time>
      </trkpt>
      <trkpt lat="42.2471500" lon="1.7226600">
        <ele>1573.3</ele>
        <time>2015-08-14T07:59:20Z</time>
      </trkpt>
      <trkpt lat="42.2471850" lon="1.7226630">
        <ele>1573.0</ele>
        <time>2015-08-14T07:59:22Z</time>
      </trkpt>
      <trkpt lat="42.2472270" lon="1.7226670">
        <ele>1572.6</ele>
        <time>2015-08-14T07:59:24Z</time>
      </trkpt>
      <trkpt lat="42.2472600" lon="1.7226400">
        <ele>1573.0</ele>
        <time>2015-08-14T07:59:26Z</time>
      </trkpt>
      <trkpt lat="42.2472860" lon="1.7225950">
        <ele>1573.7</ele>
        <time>2015-08-14T07:59:30Z</time>
      </trkpt>
      <trkpt lat="42.2473130" lon="1.7225680">
        <ele>1573.9</ele>
        <time>2015-08-14T07:59:32Z</time>
      </trkpt>
      <trkpt lat="42.2473400" lon="1.7225440">
        <ele>1574.1</ele>
        <time>2015-08-14T07:59:34Z</time>
      </trkpt>
      <trkpt lat="42.2473670" lon="1.7225310">
        <ele>1574.1</ele>
        <time>2015-08-14T07:59:36Z</time>
      </trkpt>
      <trkpt lat="42.2473840" lon="1.7224880">
        <ele>1574.6</ele>
        <time>2015-08-14T07:59:38Z</time>
      </trkpt>
      <trkpt lat="42.2473770" lon="1.7224440">
        <ele>1575.4</ele>
        <time>2015-08-14T07:59:40Z</time>
      </trkpt>
      <trkpt lat="42.2473760" lon="1.7223930">
        <ele>1576.3</ele>
        <time>2015-08-14T07:59:43Z</time>
      </trkpt>
      <trkpt lat="42.2473740" lon="1.7223500">
        <ele>1577.1</ele>
        <time>2015-08-14T07:59:45Z</time>
      </trkpt>
      <trkpt lat="42.2473670" lon="1.7222990">
        <ele>1578.1</ele>
        <time>2015-08-14T07:59:47Z</time>
      </trkpt>
      <trkpt lat="42.2473650" lon="1.7222460">
        <ele>1579.1</ele>
        <time>2015-08-14T07:59:49Z</time>
      </trkpt>
      <trkpt lat="42.2473680" lon="1.7221960">
        <ele>1579.9</ele>
        <time>2015-08-14T07:59:51Z</time>
      </trkpt>
      <trkpt lat="42.2473520" lon="1.7221670">
        <ele>1580.7</ele>
        <time>2015-08-14T07:59:55Z</time>
      </trkpt>
      <trkpt lat="42.2473390" lon="1.7221300">
        <ele>1581.7</ele>
        <time>2015-08-14T07:59:58Z</time>
      </trkpt>
      <trkpt lat="42.2473230" lon="1.7220920">
        <ele>1582.8</ele>
        <time>2015-08-14T07:59:59Z</time>
      </trkpt>
      <trkpt lat="42.2473080" lon="1.7220500">
        <ele>1584.3</ele>
        <time>2015-08-14T08:00:01Z</time>
      </trkpt>
      <trkpt lat="42.2472910" lon="1.7220150">
        <ele>1585.7</ele>
        <time>2015-08-14T08:00:03Z</time>
      </trkpt>
      <trkpt lat="42.2472730" lon="1.7219720">
        <ele>1587.4</ele>
        <time>2015-08-14T08:00:05Z</time>
      </trkpt>
      <trkpt lat="42.2472530" lon="1.7219200">
        <ele>1589.5</ele>
        <time>2015-08-14T08:00:07Z</time>
      </trkpt>
      <trkpt lat="42.2472310" lon="1.7218850">
        <ele>1591.2</ele>
        <time>2015-08-14T08:00:09Z</time>
      </trkpt>
      <trkpt lat="42.2472140" lon="1.7218530">
        <ele>1592.7</ele>
        <time>2015-08-14T08:00:10Z</time>
      </trkpt>
      <trkpt lat="42.2471930" lon="1.7218030">
        <ele>1594.9</ele>
        <time>2015-08-14T08:00:12Z</time>
      </trkpt>
      <trkpt lat="42.2471930" lon="1.7217390">
        <ele>1596.8</ele>
        <time>2015-08-14T08:00:14Z</time>
      </trkpt>
      <trkpt lat="42.2471830" lon="1.7217020">
        <ele>1598.3</ele>
        <time>2015-08-14T08:00:15Z</time>
      </trkpt>
      <trkpt lat="42.2471790" lon="1.7216320">
        <ele>1600.6</ele>
        <time>2015-08-14T08:00:17Z</time>
      </trkpt>
      <trkpt lat="42.2471670" lon="1.7215840">
        <ele>1602.6</ele>
        <time>2015-08-14T08:00:19Z</time>
      </trkpt>
      <trkpt lat="42.2471790" lon="1.7215390">
        <ele>1603.5</ele>
        <time>2015-08-14T08:00:20Z</time>
      </trkpt>
      <trkpt lat="42.2471560" lon="1.7214750">
        <ele>1606.5</ele>
        <time>2015-08-14T08:00:22Z</time>
      </trkpt>
      <trkpt lat="42.2471500" lon="1.7214180">
        <ele>1608.5</ele>
        <time>2015-08-14T08:00:24Z</time>
      </trkpt>
      <trkpt lat="42.2471760" lon="1.7213560">
        <ele>1609.4</ele>
        <time>2015-08-14T08:00:26Z</time>
      </trkpt>
      <trkpt lat="42.2471910" lon="1.7212990">
        <ele>1610.5</ele>
        <time>2015-08-14T08:00:28Z</time>
      </trkpt>
      <trkpt lat="42.2472020" lon="1.7212460">
        <ele>1611.5</ele>
        <time>2015-08-14T08:00:30Z</time>
      </trkpt>
      <trkpt lat="42.2472100" lon="1.7211930">
        <ele>1612.3</ele>
        <time>2015-08-14T08:00:32Z</time>
      </trkpt>
      <trkpt lat="42.2472130" lon="1.7211490">
        <ele>1613.0</ele>
        <time>2015-08-14T08:00:34Z</time>
      </trkpt>
      <trkpt lat="42.2472070" lon="1.7210970">
        <ele>1614.4</ele>
        <time>2015-08-14T08:00:36Z</time>
      </trkpt>
      <trkpt lat="42.2471930" lon="1.7210630">
        <ele>1615.7</ele>
        <time>2015-08-14T08:00:37Z</time>
      </trkpt>
      <trkpt lat="42.2471850" lon="1.7210010">
        <ele>1617.4</ele>
        <time>2015-08-14T08:00:39Z</time>
      </trkpt>
      <trkpt lat="42.2471790" lon="1.7209400">
        <ele>1618.9</ele>
        <time>2015-08-14T08:00:41Z</time>
      </trkpt>
      <trkpt lat="42.2471720" lon="1.7209030">
        <ele>1620.0</ele>
        <time>2015-08-14T08:00:42Z</time>
      </trkpt>
      <trkpt lat="42.2471550" lon="1.7208440">
        <ele>1622.0</ele>
        <time>2015-08-14T08:00:44Z</time>
      </trkpt>
      <trkpt lat="42.2471450" lon="1.7207990">
        <ele>1623.4</ele>
        <time>2015-08-14T08:00:46Z</time>
      </trkpt>
      <trkpt lat="42.2471490" lon="1.7207620">
        <ele>1624.0</ele>
        <time>2015-08-14T08:00:47Z</time>
      </trkpt>
      <trkpt lat="42.2471410" lon="1.7207190">
        <ele>1625.2</ele>
        <time>2015-08-14T08:00:49Z</time>
      </trkpt>
      <trkpt lat="42.2471930" lon="1.7206520">
        <ele>1624.3</ele>
        <time>2015-08-14T08:00:51Z</time>
      </trkpt>
      <trkpt lat="42.2472010" lon="1.7206020">
        <ele>1624.9</ele>
        <time>2015-08-14T08:00:53Z</time>
      </trkpt>
      <trkpt lat="42.2472100" lon="1.7205570">
        <ele>1625.5</ele>
        <time>2015-08-14T08:00:55Z</time>
      </trkpt>
      <trkpt lat="42.2472120" lon="1.7205150">
        <ele>1626.2</ele>
        <time>2015-08-14T08:00:57Z</time>
      </trkpt>
      <trkpt lat="42.2472100" lon="1.7204750">
        <ele>1627.2</ele>
        <time>2015-08-14T08:00:59Z</time>
      </trkpt>
      <trkpt lat="42.2472210" lon="1.7204320">
        <ele>1627.6</ele>
        <time>2015-08-14T08:01:01Z</time>
      </trkpt>
      <trkpt lat="42.2472270" lon="1.7203820">
        <ele>1627.1</ele>
        <time>2015-08-14T08:01:04Z</time>
      </trkpt>
      <trkpt lat="42.2472350" lon="1.7203450">
        <ele>1626.2</ele>
        <time>2015-08-14T08:01:06Z</time>
      </trkpt>
      <trkpt lat="42.2472690" lon="1.7203220">
        <ele>1624.4</ele>
        <time>2015-08-14T08:01:08Z</time>
      </trkpt>
      <trkpt lat="42.2472870" lon="1.7202760">
        <ele>1623.0</ele>
        <time>2015-08-14T08:01:10Z</time>
      </trkpt>
      <trkpt lat="42.2473070" lon="1.7202430">
        <ele>1621.6</ele>
        <time>2015-08-14T08:01:12Z</time>
      </trkpt>
      <trkpt lat="42.2473510" lon="1.7202250">
        <ele>1619.5</ele>
        <time>2015-08-14T08:01:13Z</time>
      </trkpt>
      <trkpt lat="42.2473750" lon="1.7202040">
        <ele>1618.2</ele>
        <time>2015-08-14T08:01:15Z</time>
      </trkpt>
      <trkpt lat="42.2474100" lon="1.7201820">
        <ele>1616.4</ele>
        <time>2015-08-14T08:01:17Z</time>
      </trkpt>
      <trkpt lat="42.2474490" lon="1.7201760">
        <ele>1614.6</ele>
        <time>2015-08-14T08:01:19Z</time>
      </trkpt>
      <trkpt lat="42.2474860" lon="1.7201720">
        <ele>1613.0</ele>
        <time>2015-08-14T08:01:21Z</time>
      </trkpt>
      <trkpt lat="42.2475240" lon="1.7201730">
        <ele>1611.4</ele>
        <time>2015-08-14T08:01:23Z</time>
      </trkpt>
      <trkpt lat="42.2475560" lon="1.7201370">
        <ele>1609.6</ele>
        <time>2015-08-14T08:01:25Z</time>
      </trkpt>
      <trkpt lat="42.2476030" lon="1.7201170">
        <ele>1607.4</ele>
        <time>2015-08-14T08:01:27Z</time>
      </trkpt>
      <trkpt lat="42.2476280" lon="1.7200780">
        <ele>1605.9</ele>
        <time>2015-08-14T08:01:28Z</time>
      </trkpt>
      <trkpt lat="42.2476880" lon="1.7200370">
        <ele>1602.9</ele>
        <time>2015-08-14T08:01:29Z</time>
      </trkpt>
      <trkpt lat="42.2477530" lon="1.7200290">
        <ele>1600.1</ele>
        <time>2015-08-14T08:01:31Z</time>
      </trkpt>
      <trkpt lat="42.2477880" lon="1.7200110">
        <ele>1598.4</ele>
        <time>2015-08-14T08:01:32Z</time>
      </trkpt>
      <trkpt lat="42.2477580" lon="1.7199930">
        <ele>1599.5</ele>
        <time>2015-08-14T08:01:33Z</time>
      </trkpt>
      <trkpt lat="42.2477800" lon="1.7199330">
        <ele>1597.9</ele>
        <time>2015-08-14T08:01:36Z</time>
      </trkpt>
      <trkpt lat="42.2478030" lon="1.7198820">
        <ele>1596.5</ele>
        <time>2015-08-14T08:01:40Z</time>
      </trkpt>
      <trkpt lat="42.2478240" lon="1.7198310">
        <ele>1595.1</ele>
        <time>2015-08-14T08:01:43Z</time>
      </trkpt>
      <trkpt lat="42.2477980" lon="1.7197840">
        <ele>1595.7</ele>
        <time>2015-08-14T08:01:46Z</time>
      </trkpt>
      <trkpt lat="42.2477810" lon="1.7197290">
        <ele>1595.8</ele>
        <time>2015-08-14T08:01:48Z</time>
      </trkpt>
      <trkpt lat="42.2477680" lon="1.7196660">
        <ele>1595.6</ele>
        <time>2015-08-14T08:01:51Z</time>
      </trkpt>
      <trkpt lat="42.2477620" lon="1.7196150">
        <ele>1595.3</ele>
        <time>2015-08-14T08:01:53Z</time>
      </trkpt>
      <trkpt lat="42.2477730" lon="1.7195700">
        <ele>1594.0</ele>
        <time>2015-08-14T08:01:56Z</time>
      </trkpt>
      <trkpt lat="42.2477800" lon="1.7195280">
        <ele>1592.3</ele>
        <time>2015-08-14T08:01:58Z</time>
      </trkpt>
      <trkpt lat="42.2478080" lon="1.7194910">
        <ele>1589.9</ele>
        <time>2015-08-14T08:02:00Z</time>
      </trkpt>
      <trkpt lat="42.2478300" lon="1.7194550">
        <ele>1587.8</ele>
        <time>2015-08-14T08:02:02Z</time>
      </trkpt>
      <trkpt lat="42.2478090" lon="1.7194330">
        <ele>1587.8</ele>
        <time>2015-08-14T08:02:03Z</time>
      </trkpt>
      <trkpt lat="42.2477980" lon="1.7193940">
        <ele>1586.8</ele>
        <time>2015-08-14T08:02:05Z</time>
      </trkpt>
      <trkpt lat="42.2477880" lon="1.7193530">
        <ele>1585.8</ele>
        <time>2015-08-14T08:02:08Z</time>
      </trkpt>
      <trkpt lat="42.2477930" lon="1.7193050">
        <ele>1583.9</ele>
        <time>2015-08-14T08:02:10Z</time>
      </trkpt>
      <trkpt lat="42.2478280" lon="1.7192680">
        <ele>1581.2</ele>
        <time>2015-08-14T08:02:12Z</time>
      </trkpt>
      <trkpt lat="42.2478370" lon="1.7192160">
        <ele>1579.0</ele>
        <time>2015-08-14T08:02:15Z</time>
      </trkpt>
      <trkpt lat="42.2478290" lon="1.7191590">
        <ele>1577.3</ele>
        <time>2015-08-14T08:02:17Z</time>
      </trkpt>
      <trkpt lat="42.2478160" lon="1.7191050">
        <ele>1575.9</ele>
        <time>2015-08-14T08:02:20Z</time>
      </trkpt>
      <trkpt lat="42.2477770" lon="1.7190830">
        <ele>1576.7</ele>
        <time>2015-08-14T08:02:22Z</time>
      </trkpt>
      <trkpt lat="42.2477480" lon="1.7190740">
        <ele>1577.5</ele>
        <time>2015-08-14T08:02:24Z</time>
      </trkpt>
      <trkpt lat="42.2477060" lon="1.7190570">
        <ele>1578.6</ele>
        <time>2015-08-14T08:02:26Z</time>
      </trkpt>
      <trkpt lat="42.2476700" lon="1.7190420">
        <ele>1579.6</ele>
        <time>2015-08-14T08:02:28Z</time>
      </trkpt>
      <trkpt lat="42.2476410" lon="1.7190240">
        <ele>1580.1</ele>
        <time>2015-08-14T08:02:30Z</time>
      </trkpt>
      <trkpt lat="42.2476130" lon="1.7190150">
        <ele>1580.9</ele>
        <time>2015-08-14T08:02:32Z</time>
      </trkpt>
      <trkpt lat="42.2475740" lon="1.7189930">
        <ele>1581.8</ele>
        <time>2015-08-14T08:02:34Z</time>
      </trkpt>
      <trkpt lat="42.2475380" lon="1.7190000">
        <ele>1583.5</ele>
        <time>2015-08-14T08:02:36Z</time>
      </trkpt>
      <trkpt lat="42.2474920" lon="1.7189870">
        <ele>1584.9</ele>
        <time>2015-08-14T08:02:38Z</time>
      </trkpt>
      <trkpt lat="42.2474520" lon="1.7190100">
        <ele>1587.4</ele>
        <time>2015-08-14T08:02:41Z</time>
      </trkpt>
      <trkpt lat="42.2474000" lon="1.7189880">
        <ele>1588.7</ele>
        <time>2015-08-14T08:02:43Z</time>
      </trkpt>
      <trkpt lat="42.2473580" lon="1.7189800">
        <ele>1590.2</ele>
        <time>2015-08-14T08:02:45Z</time>
      </trkpt>
      <trkpt lat="42.2473290" lon="1.7189720">
        <ele>1591.1</ele>
        <time>2015-08-14T08:02:46Z</time>
      </trkpt>
      <trkpt lat="42.2472990" lon="1.7189580">
        <ele>1591.9</ele>
        <time>2015-08-14T08:02:47Z</time>
      </trkpt>
      <trkpt lat="42.2472620" lon="1.7189490">
        <ele>1593.1</ele>
        <time>2015-08-14T08:02:48Z</time>
      </trkpt>
      <trkpt lat="42.2472220" lon="1.7189380">
        <ele>1594.4</ele>
        <time>2015-08-14T08:02:50Z</time>
      </trkpt>
      <trkpt lat="42.2471750" lon="1.7189350">
        <ele>1596.2</ele>
        <time>2015-08-14T08:02:52Z</time>
      </trkpt>
      <trkpt lat="42.2471470" lon="1.7189300">
        <ele>1597.2</ele>
        <time>2015-08-14T08:02:53Z</time>
      </trkpt>
      <trkpt lat="42.2470990" lon="1.7189200">
        <ele>1598.9</ele>
        <time>2015-08-14T08:02:55Z</time>
      </trkpt>
      <trkpt lat="42.2470670" lon="1.7189250">
        <ele>1600.4</ele>
        <time>2015-08-14T08:02:56Z</time>
      </trkpt>
      <trkpt lat="42.2470390" lon="1.7189300">
        <ele>1601.8</ele>
        <time>2015-08-14T08:02:57Z</time>
      </trkpt>
      <trkpt lat="42.2470110" lon="1.7189200">
        <ele>1602.7</ele>
        <time>2015-08-14T08:02:58Z</time>
      </trkpt>
      <trkpt lat="42.2469520" lon="1.7189300">
        <ele>1605.6</ele>
        <time>2015-08-14T08:03:00Z</time>
      </trkpt>
      <trkpt lat="42.2468950" lon="1.7189360">
        <ele>1608.3</ele>
        <time>2015-08-14T08:03:02Z</time>
      </trkpt>
      <trkpt lat="42.2468470" lon="1.7189320">
        <ele>1610.3</ele>
        <time>2015-08-14T08:03:04Z</time>
      </trkpt>
      <trkpt lat="42.2468160" lon="1.7189410">
        <ele>1611.8</ele>
        <time>2015-08-14T08:03:05Z</time>
      </trkpt>
      <trkpt lat="42.2467830" lon="1.7189420">
        <ele>1613.3</ele>
        <time>2015-08-14T08:03:06Z</time>
      </trkpt>
      <trkpt lat="42.2467250" lon="1.7189610">
        <ele>1616.0</ele>
        <time>2015-08-14T08:03:08Z</time>
      </trkpt>
      <trkpt lat="42.2466960" lon="1.7189710">
        <ele>1617.4</ele>
        <time>2015-08-14T08:03:09Z</time>
      </trkpt>
      <trkpt lat="42.2466690" lon="1.7189770">
        <ele>1618.6</ele>
        <time>2015-08-14T08:03:10Z</time>
      </trkpt>
      <trkpt lat="42.2466390" lon="1.7189730">
        <ele>1619.8</ele>
        <time>2015-08-14T08:03:11Z</time>
      </trkpt>
      <trkpt lat="42.2465990" lon="1.7189780">
        <ele>1621.5</ele>
        <time>2015-08-14T08:03:13Z</time>
      </trkpt>
      <trkpt lat="42.2465390" lon="1.7189410">
        <ele>1623.9</ele>
        <time>2015-08-14T08:03:15Z</time>
      </trkpt>
      <trkpt lat="42.2465130" lon="1.7189280">
        <ele>1625.0</ele>
        <time>2015-08-14T08:03:16Z</time>
      </trkpt>
      <trkpt lat="42.2464840" lon="1.7188990">
        <ele>1626.3</ele>
        <time>2015-08-14T08:03:19Z</time>
      </trkpt>
      <trkpt lat="42.2464560" lon="1.7188540">
        <ele>1627.7</ele>
        <time>2015-08-14T08:03:21Z</time>
      </trkpt>
      <trkpt lat="42.2464180" lon="1.7188180">
        <ele>1629.7</ele>
        <time>2015-08-14T08:03:23Z</time>
      </trkpt>
      <trkpt lat="42.2463770" lon="1.7187520">
        <ele>1632.1</ele>
        <time>2015-08-14T08:03:25Z</time>
      </trkpt>
      <trkpt lat="42.2463510" lon="1.7187130">
        <ele>1633.8</ele>
        <time>2015-08-14T08:03:26Z</time>
      </trkpt>
      <trkpt lat="42.2463110" lon="1.7186550">
        <ele>1636.4</ele>
        <time>2015-08-14T08:03:28Z</time>
      </trkpt>
      <trkpt lat="42.2462530" lon="1.7186180">
        <ele>1639.9</ele>
        <time>2015-08-14T08:03:30Z</time>
      </trkpt>
      <trkpt lat="42.2462710" lon="1.7185720">
        <ele>1639.3</ele>
        <time>2015-08-14T08:03:31Z</time>
      </trkpt>
      <trkpt lat="42.2462470" lon="1.7185220">
        <ele>1640.9</ele>
        <time>2015-08-14T08:03:34Z</time>
      </trkpt>
      <trkpt lat="42.2462160" lon="1.7184930">
        <ele>1641.2</ele>
        <time>2015-08-14T08:03:36Z</time>
      </trkpt>
      <trkpt lat="42.2462790" lon="1.7184630">
        <ele>1639.7</ele>
        <time>2015-08-14T08:03:39Z</time>
      </trkpt>
      <trkpt lat="42.2462450" lon="1.7184390">
        <ele>1641.6</ele>
        <time>2015-08-14T08:03:40Z</time>
      </trkpt>
      <trkpt lat="42.2462330" lon="1.7183640">
        <ele>1642.3</ele>
        <time>2015-08-14T08:03:42Z</time>
      </trkpt>
      <trkpt lat="42.2462450" lon="1.7182860">
        <ele>1642.9</ele>
        <time>2015-08-14T08:03:44Z</time>
      </trkpt>
      <trkpt lat="42.2462500" lon="1.7182250">
        <ele>1643.4</ele>
        <time>2015-08-14T08:03:46Z</time>
      </trkpt>
      <trkpt lat="42.2462740" lon="1.7181850">
        <ele>1642.1</ele>
        <time>2015-08-14T08:03:48Z</time>
      </trkpt>
      <trkpt lat="42.2462420" lon="1.7181430">
        <ele>1644.2</ele>
        <time>2015-08-14T08:03:50Z</time>
      </trkpt>
      <trkpt lat="42.2462260" lon="1.7181040">
        <ele>1644.7</ele>
        <time>2015-08-14T08:03:52Z</time>
      </trkpt>
      <trkpt lat="42.2462460" lon="1.7180580">
        <ele>1644.9</ele>
        <time>2015-08-14T08:03:54Z</time>
      </trkpt>
      <trkpt lat="42.2462360" lon="1.7180200">
        <ele>1645.3</ele>
        <time>2015-08-14T08:03:55Z</time>
      </trkpt>
      <trkpt lat="42.2462020" lon="1.7179940">
        <ele>1646.0</ele>
        <time>2015-08-14T08:03:58Z</time>
      </trkpt>
      <trkpt lat="42.2461950" lon="1.7179490">
        <ele>1646.6</ele>
        <time>2015-08-14T08:04:01Z</time>
      </trkpt>
      <trkpt lat="42.2461820" lon="1.7178800">
        <ele>1647.7</ele>
        <time>2015-08-14T08:04:03Z</time>
      </trkpt>
      <trkpt lat="42.2461900" lon="1.7178330">
        <ele>1648.3</ele>
        <time>2015-08-14T08:04:06Z</time>
      </trkpt>
      <trkpt lat="42.2462200" lon="1.7178060">
        <ele>1648.2</ele>
        <time>2015-08-14T08:04:07Z</time>
      </trkpt>
      <trkpt lat="42.2462490" lon="1.7177700">
        <ele>1648.3</ele>
        <time>2015-08-14T08:04:09Z</time>
      </trkpt>
      <trkpt lat="42.2462720" lon="1.7177350">
        <ele>1647.2</ele>
        <time>2015-08-14T08:04:12Z</time>
      </trkpt>
      <trkpt lat="42.2462580" lon="1.7177020">
        <ele>1648.8</ele>
        <time>2015-08-14T08:04:14Z</time>
      </trkpt>
      <trkpt lat="42.2462350" lon="1.7176720">
        <ele>1650.1</ele>
        <time>2015-08-14T08:04:18Z</time>
      </trkpt>
      <trkpt lat="42.2462490" lon="1.7176410">
        <ele>1650.3</ele>
        <time>2015-08-14T08:04:19Z</time>
      </trkpt>
      <trkpt lat="42.2462830" lon="1.7175940">
        <ele>1648.6</ele>
        <time>2015-08-14T08:04:21Z</time>
      </trkpt>
      <trkpt lat="42.2462710" lon="1.7175460">
        <ele>1650.2</ele>
        <time>2015-08-14T08:04:23Z</time>
      </trkpt>
      <trkpt lat="42.2462750" lon="1.7174950">
        <ele>1650.7</ele>
        <time>2015-08-14T08:04:26Z</time>
      </trkpt>
      <trkpt lat="42.2462790" lon="1.7174400">
        <ele>1651.3</ele>
        <time>2015-08-14T08:04:30Z</time>
      </trkpt>
      <trkpt lat="42.2462920" lon="1.7174020">
        <ele>1651.0</ele>
        <time>2015-08-14T08:04:32Z</time>
      </trkpt>
      <trkpt lat="42.2462810" lon="1.7173610">
        <ele>1652.4</ele>
        <time>2015-08-14T08:04:37Z</time>
      </trkpt>
      <trkpt lat="42.2462730" lon="1.7173020">
        <ele>1653.9</ele>
        <time>2015-08-14T08:04:40Z</time>
      </trkpt>
      <trkpt lat="42.2462780" lon="1.7172570">
        <ele>1654.2</ele>
        <time>2015-08-14T08:04:42Z</time>
      </trkpt>
      <trkpt lat="42.2462790" lon="1.7172200">
        <ele>1654.7</ele>
        <time>2015-08-14T08:04:44Z</time>
      </trkpt>
      <trkpt lat="42.2462680" lon="1.7171620">
        <ele>1656.5</ele>
        <time>2015-08-14T08:04:46Z</time>
      </trkpt>
      <trkpt lat="42.2462860" lon="1.7171310">
        <ele>1655.6</ele>
        <time>2015-08-14T08:04:48Z</time>
      </trkpt>
      <trkpt lat="42.2462740" lon="1.7170910">
        <ele>1657.1</ele>
        <time>2015-08-14T08:04:51Z</time>
      </trkpt>
      <trkpt lat="42.2462670" lon="1.7170490">
        <ele>1657.4</ele>
        <time>2015-08-14T08:04:53Z</time>
      </trkpt>
      <trkpt lat="42.2462630" lon="1.7170130">
        <ele>1657.2</ele>
        <time>2015-08-14T08:04:55Z</time>
      </trkpt>
      <trkpt lat="42.2462440" lon="1.7169860">
        <ele>1658.0</ele>
        <time>2015-08-14T08:04:59Z</time>
      </trkpt>
      <trkpt lat="42.2462360" lon="1.7169490">
        <ele>1657.7</ele>
        <time>2015-08-14T08:05:02Z</time>
      </trkpt>
      <trkpt lat="42.2462230" lon="1.7169170">
        <ele>1657.6</ele>
        <time>2015-08-14T08:05:05Z</time>
      </trkpt>
      <trkpt lat="42.2461990" lon="1.7168530">
        <ele>1657.5</ele>
        <time>2015-08-14T08:05:08Z</time>
      </trkpt>
      <trkpt lat="42.2462560" lon="1.7168130">
        <ele>1655.3</ele>
        <time>2015-08-14T08:05:11Z</time>
      </trkpt>
      <trkpt lat="42.2462750" lon="1.7167800">
        <ele>1653.7</ele>
        <time>2015-08-14T08:05:12Z</time>
      </trkpt>
      <trkpt lat="42.2463210" lon="1.7167370">
        <ele>1650.1</ele>
        <time>2015-08-14T08:05:13Z</time>
      </trkpt>
      <trkpt lat="42.2463350" lon="1.7166990">
        <ele>1648.8</ele>
        <time>2015-08-14T08:05:14Z</time>
      </trkpt>
      <trkpt lat="42.2463670" lon="1.7166840">
        <ele>1646.5</ele>
        <time>2015-08-14T08:05:17Z</time>
      </trkpt>
      <trkpt lat="42.2463830" lon="1.7166540">
        <ele>1645.2</ele>
        <time>2015-08-14T08:05:19Z</time>
      </trkpt>
      <trkpt lat="42.2463840" lon="1.7166130">
        <ele>1644.7</ele>
        <time>2015-08-14T08:05:22Z</time>
      </trkpt>
      <trkpt lat="42.2464000" lon="1.7165690">
        <ele>1643.3</ele>
        <time>2015-08-14T08:05:25Z</time>
      </trkpt>
      <trkpt lat="42.2464070" lon="1.7165110">
        <ele>1642.3</ele>
        <time>2015-08-14T08:05:28Z</time>
      </trkpt>
      <trkpt lat="42.2464230" lon="1.7164770">
        <ele>1641.0</ele>
        <time>2015-08-14T08:05:31Z</time>
      </trkpt>
      <trkpt lat="42.2464150" lon="1.7164320">
        <ele>1641.1</ele>
        <time>2015-08-14T08:05:35Z</time>
      </trkpt>
      <trkpt lat="42.2463940" lon="1.7163820">
        <ele>1641.9</ele>
        <time>2015-08-14T08:05:37Z</time>
      </trkpt>
      <trkpt lat="42.2464040" lon="1.7163070">
        <ele>1640.6</ele>
        <time>2015-08-14T08:05:40Z</time>
      </trkpt>
      <trkpt lat="42.2464160" lon="1.7162660">
        <ele>1639.6</ele>
        <time>2015-08-14T08:05:44Z</time>
      </trkpt>
      <trkpt lat="42.2464100" lon="1.7162290">
        <ele>1639.2</ele>
        <time>2015-08-14T08:05:46Z</time>
      </trkpt>
      <trkpt lat="42.2464200" lon="1.7161800">
        <ele>1637.1</ele>
        <time>2015-08-14T08:05:49Z</time>
      </trkpt>
      <trkpt lat="42.2464470" lon="1.7161750">
        <ele>1635.4</ele>
        <time>2015-08-14T08:05:50Z</time>
      </trkpt>
      <trkpt lat="42.2464630" lon="1.7161280">
        <ele>1633.1</ele>
        <time>2015-08-14T08:05:52Z</time>
      </trkpt>
      <trkpt lat="42.2464480" lon="1.7160950">
        <ele>1633.0</ele>
        <time>2015-08-14T08:05:53Z</time>
      </trkpt>
      <trkpt lat="42.2464210" lon="1.7160530">
        <ele>1633.3</ele>
        <time>2015-08-14T08:05:55Z</time>
      </trkpt>
      <trkpt lat="42.2463930" lon="1.7160280">
        <ele>1634.1</ele>
        <time>2015-08-14T08:05:58Z</time>
      </trkpt>
      <trkpt lat="42.2463750" lon="1.7159950">
        <ele>1634.1</ele>
        <time>2015-08-14T08:06:02Z</time>
      </trkpt>
      <trkpt lat="42.2463480" lon="1.7159720">
        <ele>1634.9</ele>
        <time>2015-08-14T08:06:04Z</time>
      </trkpt>
      <trkpt lat="42.2463350" lon="1.7159370">
        <ele>1634.6</ele>
        <time>2015-08-14T08:06:09Z</time>
      </trkpt>
      <trkpt lat="42.2463180" lon="1.7158970">
        <ele>1634.3</ele>
        <time>2015-08-14T08:06:12Z</time>
      </trkpt>
      <trkpt lat="42.2462950" lon="1.7158730">
        <ele>1634.8</ele>
        <time>2015-08-14T08:06:15Z</time>
      </trkpt>
      <trkpt lat="42.2462640" lon="1.7158560">
        <ele>1635.9</ele>
        <time>2015-08-14T08:06:17Z</time>
      </trkpt>
      <trkpt lat="42.2462260" lon="1.7158560">
        <ele>1638.0</ele>
        <time>2015-08-14T08:06:20Z</time>
      </trkpt>
      <trkpt lat="42.2462000" lon="1.7158340">
        <ele>1638.7</ele>
        <time>2015-08-14T08:06:25Z</time>
      </trkpt>
      <trkpt lat="42.2461690" lon="1.7158030">
        <ele>1639.5</ele>
        <time>2015-08-14T08:06:29Z</time>
      </trkpt>
      <trkpt lat="42.2461400" lon="1.7157960">
        <ele>1640.9</ele>
        <time>2015-08-14T08:06:32Z</time>
      </trkpt>
      <trkpt lat="42.2461140" lon="1.7157660">
        <ele>1641.6</ele>
        <time>2015-08-14T08:06:34Z</time>
      </trkpt>
      <trkpt lat="42.2460860" lon="1.7157400">
        <ele>1642.6</ele>
        <time>2015-08-14T08:06:36Z</time>
      </trkpt>
      <trkpt lat="42.2460460" lon="1.7157150">
        <ele>1644.3</ele>
        <time>2015-08-14T08:06:39Z</time>
      </trkpt>
      <trkpt lat="42.2460160" lon="1.7157020">
        <ele>1645.8</ele>
        <time>2015-08-14T08:06:41Z</time>
      </trkpt>
      <trkpt lat="42.2459910" lon="1.7156810">
        <ele>1646.8</ele>
        <time>2015-08-14T08:06:43Z</time>
      </trkpt>
      <trkpt lat="42.2459690" lon="1.7156540">
        <ele>1647.6</ele>
        <time>2015-08-14T08:06:45Z</time>
      </trkpt>
      <trkpt lat="42.2459480" lon="1.7156130">
        <ele>1648.1</ele>
        <time>2015-08-14T08:06:47Z</time>
      </trkpt>
      <trkpt lat="42.2459300" lon="1.7155800">
        <ele>1648.6</ele>
        <time>2015-08-14T08:06:49Z</time>
      </trkpt>
      <trkpt lat="42.2459060" lon="1.7155410">
        <ele>1649.5</ele>
        <time>2015-08-14T08:06:53Z</time>
      </trkpt>
      <trkpt lat="42.2458830" lon="1.7154910">
        <ele>1650.2</ele>
        <time>2015-08-14T08:06:57Z</time>
      </trkpt>
      <trkpt lat="42.2458710" lon="1.7154470">
        <ele>1650.3</ele>
        <time>2015-08-14T08:06:59Z</time>
      </trkpt>
      <trkpt lat="42.2458480" lon="1.7154270">
        <ele>1651.6</ele>
        <time>2015-08-14T08:07:01Z</time>
      </trkpt>
      <trkpt lat="42.2458200" lon="1.7154150">
        <ele>1653.4</ele>
        <time>2015-08-14T08:07:03Z</time>
      </trkpt>
      <trkpt lat="42.2457860" lon="1.7154070">
        <ele>1655.8</ele>
        <time>2015-08-14T08:07:06Z</time>
      </trkpt>
      <trkpt lat="42.2457460" lon="1.7153850">
        <ele>1658.6</ele>
        <time>2015-08-14T08:07:08Z</time>
      </trkpt>
      <trkpt lat="42.2457130" lon="1.7153780">
        <ele>1660.9</ele>
        <time>2015-08-14T08:07:10Z</time>
      </trkpt>
      <trkpt lat="42.2456800" lon="1.7153470">
        <ele>1663.2</ele>
        <time>2015-08-14T08:07:13Z</time>
      </trkpt>
      <trkpt lat="42.2456410" lon="1.7153340">
        <ele>1666.0</ele>
        <time>2015-08-14T08:07:15Z</time>
      </trkpt>
      <trkpt lat="42.2456070" lon="1.7153360">
        <ele>1668.4</ele>
        <time>2015-08-14T08:07:16Z</time>
      </trkpt>
      <trkpt lat="42.2455800" lon="1.7153290">
        <ele>1670.3</ele>
        <time>2015-08-14T08:07:17Z</time>
      </trkpt>
      <trkpt lat="42.2455580" lon="1.7152880">
        <ele>1671.8</ele>
        <time>2015-08-14T08:07:20Z</time>
      </trkpt>
      <trkpt lat="42.2455420" lon="1.7152320">
        <ele>1672.8</ele>
        <time>2015-08-14T08:07:23Z</time>
      </trkpt>
      <trkpt lat="42.2455650" lon="1.7151840">
        <ele>1671.1</ele>
        <time>2015-08-14T08:07:27Z</time>
      </trkpt>
      <trkpt lat="42.2455430" lon="1.7151470">
        <ele>1672.6</ele>
        <time>2015-08-14T08:07:29Z</time>
      </trkpt>
      <trkpt lat="42.2455030" lon="1.7151430">
        <ele>1675.5</ele>
        <time>2015-08-14T08:07:32Z</time>
      </trkpt>
      <trkpt lat="42.2455070" lon="1.7150730">
        <ele>1675.1</ele>
        <time>2015-08-14T08:07:34Z</time>
      </trkpt>
      <trkpt lat="42.2454890" lon="1.7150460">
        <ele>1676.4</ele>
        <time>2015-08-14T08:07:42Z</time>
      </trkpt>
      <trkpt lat="42.2455140" lon="1.7150330">
        <ele>1674.5</ele>
        <time>2015-08-14T08:10:36Z</time>
      </trkpt>
      <trkpt lat="42.2455380" lon="1.7150130">
        <ele>1672.8</ele>
        <time>2015-08-14T08:12:41Z</time>
      </trkpt>
      <trkpt lat="42.2455500" lon="1.7149800">
        <ele>1671.9</ele>
        <time>2015-08-14T08:21:05Z</time>
      </trkpt>
      <trkpt lat="42.2455180" lon="1.7149800">
        <ele>1674.2</ele>
        <time>2015-08-14T08:27:58Z</time>
      </trkpt>
      <trkpt lat="42.2454880" lon="1.7149890">
        <ele>1676.3</ele>
        <time>2015-08-14T08:27:59Z</time>
      </trkpt>
      <trkpt lat="42.2454620" lon="1.7149640">
        <ele>1678.2</ele>
        <time>2015-08-14T08:28:01Z</time>
      </trkpt>
      <trkpt lat="42.2454470" lon="1.7149330">
        <ele>1679.2</ele>
        <time>2015-08-14T08:28:04Z</time>
      </trkpt>
      <trkpt lat="42.2454340" lon="1.7148890">
        <ele>1680.1</ele>
        <time>2015-08-14T08:28:07Z</time>
      </trkpt>
      <trkpt lat="42.2454320" lon="1.7148510">
        <ele>1680.2</ele>
        <time>2015-08-14T08:28:09Z</time>
      </trkpt>
      <trkpt lat="42.2454220" lon="1.7148100">
        <ele>1680.9</ele>
        <time>2015-08-14T08:28:12Z</time>
      </trkpt>
      <trkpt lat="42.2454130" lon="1.7147570">
        <ele>1681.5</ele>
        <time>2015-08-14T08:28:15Z</time>
      </trkpt>
      <trkpt lat="42.2454070" lon="1.7147100">
        <ele>1681.8</ele>
        <time>2015-08-14T08:28:17Z</time>
      </trkpt>
      <trkpt lat="42.2454160" lon="1.7146710">
        <ele>1681.2</ele>
        <time>2015-08-14T08:28:20Z</time>
      </trkpt>
      <trkpt lat="42.2454200" lon="1.7146350">
        <ele>1680.8</ele>
        <time>2015-08-14T08:28:24Z</time>
      </trkpt>
      <trkpt lat="42.2454380" lon="1.7145860">
        <ele>1679.4</ele>
        <time>2015-08-14T08:28:26Z</time>
      </trkpt>
      <trkpt lat="42.2454600" lon="1.7145400">
        <ele>1677.8</ele>
        <time>2015-08-14T08:28:28Z</time>
      </trkpt>
      <trkpt lat="42.2454240" lon="1.7144890">
        <ele>1680.5</ele>
        <time>2015-08-14T08:28:30Z</time>
      </trkpt>
      <trkpt lat="42.2454180" lon="1.7144480">
        <ele>1680.9</ele>
        <time>2015-08-14T08:28:31Z</time>
      </trkpt>
      <trkpt lat="42.2453960" lon="1.7144140">
        <ele>1682.5</ele>
        <time>2015-08-14T08:28:32Z</time>
      </trkpt>
      <trkpt lat="42.2453570" lon="1.7143620">
        <ele>1685.2</ele>
        <time>2015-08-14T08:28:34Z</time>
      </trkpt>
      <trkpt lat="42.2453070" lon="1.7143220">
        <ele>1688.7</ele>
        <time>2015-08-14T08:28:36Z</time>
      </trkpt>
      <trkpt lat="42.2453260" lon="1.7142920">
        <ele>1687.3</ele>
        <time>2015-08-14T08:28:38Z</time>
      </trkpt>
      <trkpt lat="42.2453360" lon="1.7142490">
        <ele>1686.6</ele>
        <time>2015-08-14T08:28:42Z</time>
      </trkpt>
      <trkpt lat="42.2453650" lon="1.7142430">
        <ele>1684.6</ele>
        <time>2015-08-14T08:28:44Z</time>
      </trkpt>
      <trkpt lat="42.2453850" lon="1.7142060">
        <ele>1683.2</ele>
        <time>2015-08-14T08:28:46Z</time>
      </trkpt>
      <trkpt lat="42.2453790" lon="1.7141680">
        <ele>1683.6</ele>
        <time>2015-08-14T08:28:47Z</time>
      </trkpt>
      <trkpt lat="42.2454010" lon="1.7141300">
        <ele>1682.1</ele>
        <time>2015-08-14T08:28:49Z</time>
      </trkpt>
      <trkpt lat="42.2453980" lon="1.7141120">
        <ele>1682.3</ele>
        <time>2015-08-14T08:28:51Z</time>
      </trkpt>
      <trkpt lat="42.2453940" lon="1.7140940">
        <ele>1682.6</ele>
        <time>2015-08-14T08:28:54Z</time>
      </trkpt>
      <trkpt lat="42.2453900" lon="1.7140760">
        <ele>1682.8</ele>
        <time>2015-08-14T08:28:55Z</time>
      </trkpt>
      <trkpt lat="42.2453990" lon="1.7140270">
        <ele>1682.2</ele>
        <time>2015-08-14T08:28:57Z</time>
      </trkpt>
      <trkpt lat="42.2454180" lon="1.7139820">
        <ele>1680.9</ele>
        <time>2015-08-14T08:28:59Z</time>
      </trkpt>
      <trkpt lat="42.2454450" lon="1.7139440">
        <ele>1679.0</ele>
        <time>2015-08-14T08:29:01Z</time>
      </trkpt>
      <trkpt lat="42.2454290" lon="1.7138980">
        <ele>1680.1</ele>
        <time>2015-08-14T08:29:04Z</time>
      </trkpt>
      <trkpt lat="42.2454220" lon="1.7138610">
        <ele>1680.6</ele>
        <time>2015-08-14T08:29:06Z</time>
      </trkpt>
      <trkpt lat="42.2454240" lon="1.7138210">
        <ele>1680.5</ele>
        <time>2015-08-14T08:29:08Z</time>
      </trkpt>
      <trkpt lat="42.2454150" lon="1.7137860">
        <ele>1681.1</ele>
        <time>2015-08-14T08:29:10Z</time>
      </trkpt>
      <trkpt lat="42.2453910" lon="1.7137510">
        <ele>1682.8</ele>
        <time>2015-08-14T08:29:13Z</time>
      </trkpt>
      <trkpt lat="42.2453640" lon="1.7137180">
        <ele>1684.1</ele>
        <time>2015-08-14T08:29:16Z</time>
      </trkpt>
      <trkpt lat="42.2453470" lon="1.7136860">
        <ele>1684.7</ele>
        <time>2015-08-14T08:29:18Z</time>
      </trkpt>
      <trkpt lat="42.2453280" lon="1.7136430">
        <ele>1685.4</ele>
        <time>2015-08-14T08:29:21Z</time>
      </trkpt>
      <trkpt lat="42.2453110" lon="1.7136080">
        <ele>1686.0</ele>
        <time>2015-08-14T08:29:24Z</time>
      </trkpt>
      <trkpt lat="42.2453120" lon="1.7135590">
        <ele>1685.2</ele>
        <time>2015-08-14T08:29:26Z</time>
      </trkpt>
      <trkpt lat="42.2452930" lon="1.7135220">
        <ele>1686.0</ele>
        <time>2015-08-14T08:29:29Z</time>
      </trkpt>
      <trkpt lat="42.2452910" lon="1.7134840">
        <ele>1685.5</ele>
        <time>2015-08-14T08:29:31Z</time>
      </trkpt>
      <trkpt lat="42.2452790" lon="1.7134360">
        <ele>1685.6</ele>
        <time>2015-08-14T08:29:33Z</time>
      </trkpt>
      <trkpt lat="42.2452890" lon="1.7133910">
        <ele>1684.2</ele>
        <time>2015-08-14T08:29:35Z</time>
      </trkpt>
      <trkpt lat="42.2453020" lon="1.7133450">
        <ele>1682.6</ele>
        <time>2015-08-14T08:29:37Z</time>
      </trkpt>
      <trkpt lat="42.2453050" lon="1.7133050">
        <ele>1681.7</ele>
        <time>2015-08-14T08:29:39Z</time>
      </trkpt>
      <trkpt lat="42.2453160" lon="1.7132620">
        <ele>1680.3</ele>
        <time>2015-08-14T08:29:42Z</time>
      </trkpt>
      <trkpt lat="42.2453240" lon="1.7132190">
        <ele>1679.0</ele>
        <time>2015-08-14T08:29:44Z</time>
      </trkpt>
      <trkpt lat="42.2453100" lon="1.7131860">
        <ele>1679.5</ele>
        <time>2015-08-14T08:29:46Z</time>
      </trkpt>
      <trkpt lat="42.2453010" lon="1.7131450">
        <ele>1679.6</ele>
        <time>2015-08-14T08:29:49Z</time>
      </trkpt>
      <trkpt lat="42.2452840" lon="1.7131130">
        <ele>1680.3</ele>
        <time>2015-08-14T08:29:52Z</time>
      </trkpt>
      <trkpt lat="42.2452620" lon="1.7130880">
        <ele>1681.6</ele>
        <time>2015-08-14T08:29:56Z</time>
      </trkpt>
      <trkpt lat="42.2452600" lon="1.7130380">
        <ele>1681.0</ele>
        <time>2015-08-14T08:29:59Z</time>
      </trkpt>
      <trkpt lat="42.2452410" lon="1.7129910">
        <ele>1681.8</ele>
        <time>2015-08-14T08:30:02Z</time>
      </trkpt>
      <trkpt lat="42.2452030" lon="1.7129630">
        <ele>1684.3</ele>
        <time>2015-08-14T08:30:04Z</time>
      </trkpt>
      <trkpt lat="42.2451960" lon="1.7129180">
        <ele>1684.2</ele>
        <time>2015-08-14T08:30:06Z</time>
      </trkpt>
      <trkpt lat="42.2451700" lon="1.7128890">
        <ele>1686.1</ele>
        <time>2015-08-14T08:30:11Z</time>
      </trkpt>
      <trkpt lat="42.2451700" lon="1.7128390">
        <ele>1685.7</ele>
        <time>2015-08-14T08:30:13Z</time>
      </trkpt>
      <trkpt lat="42.2451720" lon="1.7127800">
        <ele>1685.2</ele>
        <time>2015-08-14T08:30:15Z</time>
      </trkpt>
      <trkpt lat="42.2451590" lon="1.7127240">
        <ele>1685.8</ele>
        <time>2015-08-14T08:30:17Z</time>
      </trkpt>
      <trkpt lat="42.2451560" lon="1.7126690">
        <ele>1685.7</ele>
        <time>2015-08-14T08:30:19Z</time>
      </trkpt>
      <trkpt lat="42.2451310" lon="1.7126440">
        <ele>1687.4</ele>
        <time>2015-08-14T08:30:21Z</time>
      </trkpt>
      <trkpt lat="42.2451160" lon="1.7126100">
        <ele>1688.3</ele>
        <time>2015-08-14T08:30:24Z</time>
      </trkpt>
      <trkpt lat="42.2450980" lon="1.7125580">
        <ele>1689.3</ele>
        <time>2015-08-14T08:30:27Z</time>
      </trkpt>
      <trkpt lat="42.2450910" lon="1.7125110">
        <ele>1689.5</ele>
        <time>2015-08-14T08:30:29Z</time>
      </trkpt>
      <trkpt lat="42.2450850" lon="1.7124740">
        <ele>1689.7</ele>
        <time>2015-08-14T08:30:31Z</time>
      </trkpt>
      <trkpt lat="42.2450730" lon="1.7124320">
        <ele>1690.3</ele>
        <time>2015-08-14T08:30:33Z</time>
      </trkpt>
      <trkpt lat="42.2450680" lon="1.7123700">
        <ele>1690.2</ele>
        <time>2015-08-14T08:30:35Z</time>
      </trkpt>
      <trkpt lat="42.2450500" lon="1.7123370">
        <ele>1691.3</ele>
        <time>2015-08-14T08:30:37Z</time>
      </trkpt>
      <trkpt lat="42.2450300" lon="1.7122960">
        <ele>1692.5</ele>
        <time>2015-08-14T08:30:39Z</time>
      </trkpt>
      <trkpt lat="42.2450050" lon="1.7122480">
        <ele>1693.9</ele>
        <time>2015-08-14T08:30:41Z</time>
      </trkpt>
      <trkpt lat="42.2449910" lon="1.7122120">
        <ele>1694.7</ele>
        <time>2015-08-14T08:30:42Z</time>
      </trkpt>
      <trkpt lat="42.2449750" lon="1.7121620">
        <ele>1695.4</ele>
        <time>2015-08-14T08:30:44Z</time>
      </trkpt>
      <trkpt lat="42.2449630" lon="1.7121070">
        <ele>1695.9</ele>
        <time>2015-08-14T08:30:47Z</time>
      </trkpt>
      <trkpt lat="42.2449640" lon="1.7120380">
        <ele>1696.3</ele>
        <time>2015-08-14T08:30:49Z</time>
      </trkpt>
      <trkpt lat="42.2449750" lon="1.7120040">
        <ele>1696.1</ele>
        <time>2015-08-14T08:30:50Z</time>
      </trkpt>
      <trkpt lat="42.2449950" lon="1.7119720">
        <ele>1695.2</ele>
        <time>2015-08-14T08:30:51Z</time>
      </trkpt>
      <trkpt lat="42.2449960" lon="1.7119080">
        <ele>1696.1</ele>
        <time>2015-08-14T08:30:54Z</time>
      </trkpt>
      <trkpt lat="42.2450220" lon="1.7118760">
        <ele>1694.8</ele>
        <time>2015-08-14T08:30:56Z</time>
      </trkpt>
      <trkpt lat="42.2450020" lon="1.7118320">
        <ele>1696.9</ele>
        <time>2015-08-14T08:30:59Z</time>
      </trkpt>
      <trkpt lat="42.2450040" lon="1.7117830">
        <ele>1697.6</ele>
        <time>2015-08-14T08:31:01Z</time>
      </trkpt>
      <trkpt lat="42.2449890" lon="1.7117420">
        <ele>1699.3</ele>
        <time>2015-08-14T08:31:03Z</time>
      </trkpt>
      <trkpt lat="42.2449600" lon="1.7116900">
        <ele>1702.2</ele>
        <time>2015-08-14T08:31:05Z</time>
      </trkpt>
      <trkpt lat="42.2449280" lon="1.7116510">
        <ele>1705.1</ele>
        <time>2015-08-14T08:31:07Z</time>
      </trkpt>
      <trkpt lat="42.2449090" lon="1.7116130">
        <ele>1707.0</ele>
        <time>2015-08-14T08:31:09Z</time>
      </trkpt>
      <trkpt lat="42.2448890" lon="1.7115590">
        <ele>1709.2</ele>
        <time>2015-08-14T08:31:13Z</time>
      </trkpt>
      <trkpt lat="42.2448670" lon="1.7115140">
        <ele>1711.5</ele>
        <time>2015-08-14T08:31:16Z</time>
      </trkpt>
      <trkpt lat="42.2448510" lon="1.7114770">
        <ele>1713.2</ele>
        <time>2015-08-14T08:31:19Z</time>
      </trkpt>
      <trkpt lat="42.2448560" lon="1.7114350">
        <ele>1713.5</ele>
        <time>2015-08-14T08:31:21Z</time>
      </trkpt>
      <trkpt lat="42.2448920" lon="1.7114240">
        <ele>1711.1</ele>
        <time>2015-08-14T08:31:23Z</time>
      </trkpt>
      <trkpt lat="42.2449130" lon="1.7113640">
        <ele>1710.6</ele>
        <time>2015-08-14T08:31:25Z</time>
      </trkpt>
      <trkpt lat="42.2449040" lon="1.7112960">
        <ele>1712.3</ele>
        <time>2015-08-14T08:31:27Z</time>
      </trkpt>
      <trkpt lat="42.2449020" lon="1.7112360">
        <ele>1713.4</ele>
        <time>2015-08-14T08:31:29Z</time>
      </trkpt>
      <trkpt lat="42.2449410" lon="1.7112070">
        <ele>1711.1</ele>
        <time>2015-08-14T08:31:31Z</time>
      </trkpt>
      <trkpt lat="42.2449660" lon="1.7111800">
        <ele>1709.7</ele>
        <time>2015-08-14T08:31:32Z</time>
      </trkpt>
      <trkpt lat="42.2449960" lon="1.7111560">
        <ele>1707.9</ele>
        <time>2015-08-14T08:31:34Z</time>
      </trkpt>
      <trkpt lat="42.2450180" lon="1.7111320">
        <ele>1706.7</ele>
        <time>2015-08-14T08:31:36Z</time>
      </trkpt>
      <trkpt lat="42.2450480" lon="1.7110890">
        <ele>1705.1</ele>
        <time>2015-08-14T08:31:39Z</time>
      </trkpt>
      <trkpt lat="42.2450710" lon="1.7110630">
        <ele>1703.8</ele>
        <time>2015-08-14T08:31:41Z</time>
      </trkpt>
      <trkpt lat="42.2450950" lon="1.7110370">
        <ele>1702.4</ele>
        <time>2015-08-14T08:31:43Z</time>
      </trkpt>
      <trkpt lat="42.2451050" lon="1.7109930">
        <ele>1702.2</ele>
        <time>2015-08-14T08:31:45Z</time>
      </trkpt>
      <trkpt lat="42.2451280" lon="1.7109630">
        <ele>1700.9</ele>
        <time>2015-08-14T08:31:47Z</time>
      </trkpt>
      <trkpt lat="42.2451410" lon="1.7109240">
        <ele>1700.4</ele>
        <time>2015-08-14T08:31:49Z</time>
      </trkpt>
      <trkpt lat="42.2451370" lon="1.7108750">
        <ele>1701.2</ele>
        <time>2015-08-14T08:31:51Z</time>
      </trkpt>
      <trkpt lat="42.2451260" lon="1.7108240">
        <ele>1702.5</ele>
        <time>2015-08-14T08:31:53Z</time>
      </trkpt>
      <trkpt lat="42.2451240" lon="1.7107860">
        <ele>1703.1</ele>
        <time>2015-08-14T08:31:55Z</time>
      </trkpt>
      <trkpt lat="42.2451230" lon="1.7107460">
        <ele>1703.6</ele>
        <time>2015-08-14T08:31:57Z</time>
      </trkpt>
      <trkpt lat="42.2451000" lon="1.7106990">
        <ele>1705.8</ele>
        <time>2015-08-14T08:32:00Z</time>
      </trkpt>
      <trkpt lat="42.2450860" lon="1.7106590">
        <ele>1707.3</ele>
        <time>2015-08-14T08:32:02Z</time>
      </trkpt>
      <trkpt lat="42.2450700" lon="1.7106230">
        <ele>1708.9</ele>
        <time>2015-08-14T08:32:04Z</time>
      </trkpt>
      <trkpt lat="42.2450380" lon="1.7106150">
        <ele>1711.3</ele>
        <time>2015-08-14T08:32:06Z</time>
      </trkpt>
      <trkpt lat="42.2450250" lon="1.7105730">
        <ele>1712.8</ele>
        <time>2015-08-14T08:32:09Z</time>
      </trkpt>
      <trkpt lat="42.2450170" lon="1.7105350">
        <ele>1713.8</ele>
        <time>2015-08-14T08:32:11Z</time>
      </trkpt>
      <trkpt lat="42.2450050" lon="1.7105010">
        <ele>1715.1</ele>
        <time>2015-08-14T08:32:14Z</time>
      </trkpt>
      <trkpt lat="42.2450170" lon="1.7104610">
        <ele>1714.7</ele>
        <time>2015-08-14T08:32:16Z</time>
      </trkpt>
      <trkpt lat="42.2449950" lon="1.7104280">
        <ele>1716.7</ele>
        <time>2015-08-14T08:32:18Z</time>
      </trkpt>
      <trkpt lat="42.2449840" lon="1.7103850">
        <ele>1718.0</ele>
        <time>2015-08-14T08:32:21Z</time>
      </trkpt>
      <trkpt lat="42.2449660" lon="1.7103360">
        <ele>1719.9</ele>
        <time>2015-08-14T08:32:23Z</time>
      </trkpt>
      <trkpt lat="42.2449620" lon="1.7102880">
        <ele>1720.7</ele>
        <time>2015-08-14T08:32:26Z</time>
      </trkpt>
      <trkpt lat="42.2449760" lon="1.7102510">
        <ele>1720.1</ele>
        <time>2015-08-14T08:34:27Z</time>
      </trkpt>
      <trkpt lat="42.2449570" lon="1.7102190">
        <ele>1721.8</ele>
        <time>2015-08-14T08:34:28Z</time>
      </trkpt>
      <trkpt lat="42.2449420" lon="1.7101790">
        <ele>1723.3</ele>
        <time>2015-08-14T08:34:30Z</time>
      </trkpt>
      <trkpt lat="42.2449450" lon="1.7101310">
        <ele>1723.6</ele>
        <time>2015-08-14T08:34:32Z</time>
      </trkpt>
      <trkpt lat="42.2449140" lon="1.7101150">
        <ele>1726.0</ele>
        <time>2015-08-14T08:34:34Z</time>
      </trkpt>
      <trkpt lat="42.2449200" lon="1.7100790">
        <ele>1725.9</ele>
        <time>2015-08-14T08:34:36Z</time>
      </trkpt>
      <trkpt lat="42.2449280" lon="1.7100250">
        <ele>1725.8</ele>
        <time>2015-08-14T08:34:38Z</time>
      </trkpt>
      <trkpt lat="42.2449260" lon="1.7099890">
        <ele>1726.3</ele>
        <time>2015-08-14T08:34:40Z</time>
      </trkpt>
      <trkpt lat="42.2449230" lon="1.7099370">
        <ele>1727.1</ele>
        <time>2015-08-14T08:34:43Z</time>
      </trkpt>
      <trkpt lat="42.2449250" lon="1.7098850">
        <ele>1727.5</ele>
        <time>2015-08-14T08:34:45Z</time>
      </trkpt>
      <trkpt lat="42.2449360" lon="1.7098420">
        <ele>1727.1</ele>
        <time>2015-08-14T08:34:47Z</time>
      </trkpt>
      <trkpt lat="42.2449480" lon="1.7097930">
        <ele>1726.8</ele>
        <time>2015-08-14T08:34:48Z</time>
      </trkpt>
      <trkpt lat="42.2449690" lon="1.7097400">
        <ele>1725.9</ele>
        <time>2015-08-14T08:34:50Z</time>
      </trkpt>
      <trkpt lat="42.2449810" lon="1.7096990">
        <ele>1725.5</ele>
        <time>2015-08-14T08:34:52Z</time>
      </trkpt>
      <trkpt lat="42.2450020" lon="1.7096530">
        <ele>1724.6</ele>
        <time>2015-08-14T08:34:54Z</time>
      </trkpt>
      <trkpt lat="42.2450310" lon="1.7096220">
        <ele>1723.0</ele>
        <time>2015-08-14T08:34:56Z</time>
      </trkpt>
      <trkpt lat="42.2450640" lon="1.7095740">
        <ele>1721.5</ele>
        <time>2015-08-14T08:34:58Z</time>
      </trkpt>
      <trkpt lat="42.2451030" lon="1.7095410">
        <ele>1720.0</ele>
        <time>2015-08-14T08:35:00Z</time>
      </trkpt>
      <trkpt lat="42.2450910" lon="1.7094800">
        <ele>1722.6</ele>
        <time>2015-08-14T08:35:02Z</time>
      </trkpt>
      <trkpt lat="42.2450300" lon="1.7094600">
        <ele>1727.0</ele>
        <time>2015-08-14T08:35:04Z</time>
      </trkpt>
      <trkpt lat="42.2450530" lon="1.7094180">
        <ele>1726.8</ele>
        <time>2015-08-14T08:35:07Z</time>
      </trkpt>
      <trkpt lat="42.2450690" lon="1.7093860">
        <ele>1726.7</ele>
        <time>2015-08-14T08:35:09Z</time>
      </trkpt>
      <trkpt lat="42.2451090" lon="1.7093560">
        <ele>1725.2</ele>
        <time>2015-08-14T08:35:12Z</time>
      </trkpt>
      <trkpt lat="42.2451450" lon="1.7093310">
        <ele>1723.7</ele>
        <time>2015-08-14T08:35:14Z</time>
      </trkpt>
      <trkpt lat="42.2451770" lon="1.7093280">
        <ele>1721.9</ele>
        <time>2015-08-14T08:35:16Z</time>
      </trkpt>
      <trkpt lat="42.2451950" lon="1.7092980">
        <ele>1721.8</ele>
        <time>2015-08-14T08:35:24Z</time>
      </trkpt>
      <trkpt lat="42.2452020" lon="1.7092610">
        <ele>1722.6</ele>
        <time>2015-08-14T08:35:28Z</time>
      </trkpt>
      <trkpt lat="42.2452280" lon="1.7092260">
        <ele>1722.2</ele>
        <time>2015-08-14T08:35:30Z</time>
      </trkpt>
      <trkpt lat="42.2452540" lon="1.7091920">
        <ele>1721.8</ele>
        <time>2015-08-14T08:35:31Z</time>
      </trkpt>
      <trkpt lat="42.2452620" lon="1.7091560">
        <ele>1722.6</ele>
        <time>2015-08-14T08:35:32Z</time>
      </trkpt>
      <trkpt lat="42.2452830" lon="1.7090960">
        <ele>1723.4</ele>
        <time>2015-08-14T08:35:34Z</time>
      </trkpt>
      <trkpt lat="42.2453090" lon="1.7090710">
        <ele>1722.9</ele>
        <time>2015-08-14T08:35:35Z</time>
      </trkpt>
      <trkpt lat="42.2453020" lon="1.7090250">
        <ele>1724.9</ele>
        <time>2015-08-14T08:35:37Z</time>
      </trkpt>
      <trkpt lat="42.2453080" lon="1.7089840">
        <ele>1726.0</ele>
        <time>2015-08-14T08:35:41Z</time>
      </trkpt>
      <trkpt lat="42.2453240" lon="1.7089360">
        <ele>1726.8</ele>
        <time>2015-08-14T08:35:44Z</time>
      </trkpt>
      <trkpt lat="42.2453390" lon="1.7088820">
        <ele>1728.0</ele>
        <time>2015-08-14T08:35:48Z</time>
      </trkpt>
      <trkpt lat="42.2453660" lon="1.7088090">
        <ele>1729.2</ele>
        <time>2015-08-14T08:35:50Z</time>
      </trkpt>
      <trkpt lat="42.2453850" lon="1.7087670">
        <ele>1729.9</ele>
        <time>2015-08-14T08:35:51Z</time>
      </trkpt>
      <trkpt lat="42.2454010" lon="1.7087260">
        <ele>1730.8</ele>
        <time>2015-08-14T08:35:52Z</time>
      </trkpt>
      <trkpt lat="42.2454340" lon="1.7086820">
        <ele>1731.4</ele>
        <time>2015-08-14T08:35:54Z</time>
      </trkpt>
      <trkpt lat="42.2454540" lon="1.7086460">
        <ele>1732.4</ele>
        <time>2015-08-14T08:35:56Z</time>
      </trkpt>
      <trkpt lat="42.2454070" lon="1.7086700">
        <ele>1732.9</ele>
        <time>2015-08-14T08:35:57Z</time>
      </trkpt>
      <trkpt lat="42.2454060" lon="1.7086210">
        <ele>1735.1</ele>
        <time>2015-08-14T08:36:01Z</time>
      </trkpt>
      <trkpt lat="42.2454180" lon="1.7085490">
        <ele>1737.6</ele>
        <time>2015-08-14T08:36:03Z</time>
      </trkpt>
      <trkpt lat="42.2454460" lon="1.7085180">
        <ele>1738.2</ele>
        <time>2015-08-14T08:36:05Z</time>
      </trkpt>
      <trkpt lat="42.2454400" lon="1.7084540">
        <ele>1741.2</ele>
        <time>2015-08-14T08:36:08Z</time>
      </trkpt>
      <trkpt lat="42.2454770" lon="1.7084520">
        <ele>1740.4</ele>
        <time>2015-08-14T08:36:10Z</time>
      </trkpt>
      <trkpt lat="42.2455090" lon="1.7084510">
        <ele>1739.6</ele>
        <time>2015-08-14T08:36:13Z</time>
      </trkpt>
      <trkpt lat="42.2455410" lon="1.7084520">
        <ele>1738.7</ele>
        <time>2015-08-14T08:36:15Z</time>
      </trkpt>
      <trkpt lat="42.2455760" lon="1.7084270">
        <ele>1739.0</ele>
        <time>2015-08-14T08:36:17Z</time>
      </trkpt>
      <trkpt lat="42.2456060" lon="1.7084210">
        <ele>1738.6</ele>
        <time>2015-08-14T08:36:18Z</time>
      </trkpt>
      <trkpt lat="42.2456420" lon="1.7084380">
        <ele>1736.9</ele>
        <time>2015-08-14T08:36:20Z</time>
      </trkpt>
      <trkpt lat="42.2456760" lon="1.7084650">
        <ele>1734.7</ele>
        <time>2015-08-14T08:36:22Z</time>
      </trkpt>
      <trkpt lat="42.2457110" lon="1.7084660">
        <ele>1733.8</ele>
        <time>2015-08-14T08:36:24Z</time>
      </trkpt>
      <trkpt lat="42.2457420" lon="1.7084800">
        <ele>1732.3</ele>
        <time>2015-08-14T08:36:27Z</time>
      </trkpt>
      <trkpt lat="42.2457760" lon="1.7084840">
        <ele>1731.2</ele>
        <time>2015-08-14T08:36:30Z</time>
      </trkpt>
      <trkpt lat="42.2458060" lon="1.7084910">
        <ele>1730.1</ele>
        <time>2015-08-14T08:36:33Z</time>
      </trkpt>
      <trkpt lat="42.2458330" lon="1.7084770">
        <ele>1730.1</ele>
        <time>2015-08-14T08:36:35Z</time>
      </trkpt>
      <trkpt lat="42.2458630" lon="1.7084770">
        <ele>1729.3</ele>
        <time>2015-08-14T08:36:37Z</time>
      </trkpt>
      <trkpt lat="42.2458990" lon="1.7084640">
        <ele>1729.1</ele>
        <time>2015-08-14T08:36:41Z</time>
      </trkpt>
      <trkpt lat="42.2459370" lon="1.7084470">
        <ele>1729.0</ele>
        <time>2015-08-14T08:36:45Z</time>
      </trkpt>
      <trkpt lat="42.2459720" lon="1.7084430">
        <ele>1728.4</ele>
        <time>2015-08-14T08:36:47Z</time>
      </trkpt>
      <trkpt lat="42.2459880" lon="1.7084120">
        <ele>1729.7</ele>
        <time>2015-08-14T08:36:51Z</time>
      </trkpt>
      <trkpt lat="42.2460310" lon="1.7083900">
        <ele>1729.8</ele>
        <time>2015-08-14T08:36:59Z</time>
      </trkpt>
      <trkpt lat="42.2460770" lon="1.7084060">
        <ele>1727.8</ele>
        <time>2015-08-14T08:37:01Z</time>
      </trkpt>
      <trkpt lat="42.2461000" lon="1.7084460">
        <ele>1725.0</ele>
        <time>2015-08-14T08:37:03Z</time>
      </trkpt>
      <trkpt lat="42.2461370" lon="1.7084470">
        <ele>1724.0</ele>
        <time>2015-08-14T08:37:07Z</time>
      </trkpt>
      <trkpt lat="42.2461660" lon="1.7084720">
        <ele>1721.8</ele>
        <time>2015-08-14T08:37:09Z</time>
      </trkpt>
      <trkpt lat="42.2461820" lon="1.7084410">
        <ele>1723.2</ele>
        <time>2015-08-14T08:37:10Z</time>
      </trkpt>
      <trkpt lat="42.2462120" lon="1.7084310">
        <ele>1723.1</ele>
        <time>2015-08-14T08:37:12Z</time>
      </trkpt>
      <trkpt lat="42.2462530" lon="1.7084180">
        <ele>1722.9</ele>
        <time>2015-08-14T08:37:14Z</time>
      </trkpt>
      <trkpt lat="42.2462950" lon="1.7084190">
        <ele>1722.8</ele>
        <time>2015-08-14T08:37:17Z</time>
      </trkpt>
      <trkpt lat="42.2463300" lon="1.7084040">
        <ele>1723.6</ele>
        <time>2015-08-14T08:37:20Z</time>
      </trkpt>
      <trkpt lat="42.2463550" lon="1.7083850">
        <ele>1724.6</ele>
        <time>2015-08-14T08:37:23Z</time>
      </trkpt>
      <trkpt lat="42.2463930" lon="1.7083290">
        <ele>1727.9</ele>
        <time>2015-08-14T08:37:26Z</time>
      </trkpt>
      <trkpt lat="42.2464180" lon="1.7083010">
        <ele>1729.5</ele>
        <time>2015-08-14T08:37:28Z</time>
      </trkpt>
      <trkpt lat="42.2464110" lon="1.7082630">
        <ele>1731.8</ele>
        <time>2015-08-14T08:37:32Z</time>
      </trkpt>
      <trkpt lat="42.2464400" lon="1.7083030">
        <ele>1729.4</ele>
        <time>2015-08-14T08:37:33Z</time>
      </trkpt>
      <trkpt lat="42.2464740" lon="1.7083080">
        <ele>1729.0</ele>
        <time>2015-08-14T08:37:34Z</time>
      </trkpt>
      <trkpt lat="42.2465070" lon="1.7082860">
        <ele>1730.2</ele>
        <time>2015-08-14T08:37:36Z</time>
      </trkpt>
      <trkpt lat="42.2465280" lon="1.7083140">
        <ele>1728.5</ele>
        <time>2015-08-14T08:37:39Z</time>
      </trkpt>
      <trkpt lat="42.2465670" lon="1.7083080">
        <ele>1728.8</ele>
        <time>2015-08-14T08:37:41Z</time>
      </trkpt>
      <trkpt lat="42.2466090" lon="1.7083180">
        <ele>1728.1</ele>
        <time>2015-08-14T08:37:44Z</time>
      </trkpt>
      <trkpt lat="42.2466380" lon="1.7083310">
        <ele>1727.2</ele>
        <time>2015-08-14T08:37:47Z</time>
      </trkpt>
      <trkpt lat="42.2466740" lon="1.7083270">
        <ele>1727.4</ele>
        <time>2015-08-14T08:37:51Z</time>
      </trkpt>
      <trkpt lat="42.2467030" lon="1.7083360">
        <ele>1726.8</ele>
        <time>2015-08-14T08:37:54Z</time>
      </trkpt>
      <trkpt lat="42.2467230" lon="1.7083110">
        <ele>1728.2</ele>
        <time>2015-08-14T08:37:56Z</time>
      </trkpt>
      <trkpt lat="42.2467650" lon="1.7083260">
        <ele>1727.2</ele>
        <time>2015-08-14T08:38:00Z</time>
      </trkpt>
      <trkpt lat="42.2467990" lon="1.7083410">
        <ele>1726.2</ele>
        <time>2015-08-14T08:38:04Z</time>
      </trkpt>
      <trkpt lat="42.2468270" lon="1.7083130">
        <ele>1727.8</ele>
        <time>2015-08-14T08:38:05Z</time>
      </trkpt>
      <trkpt lat="42.2468620" lon="1.7082680">
        <ele>1730.5</ele>
        <time>2015-08-14T08:38:07Z</time>
      </trkpt>
      <trkpt lat="42.2468900" lon="1.7082430">
        <ele>1731.9</ele>
        <time>2015-08-14T08:38:11Z</time>
      </trkpt>
      <trkpt lat="42.2469200" lon="1.7082350">
        <ele>1732.3</ele>
        <time>2015-08-14T08:38:13Z</time>
      </trkpt>
      <trkpt lat="42.2469540" lon="1.7082170">
        <ele>1733.3</ele>
        <time>2015-08-14T08:38:16Z</time>
      </trkpt>
      <trkpt lat="42.2469660" lon="1.7081790">
        <ele>1735.5</ele>
        <time>2015-08-14T08:38:19Z</time>
      </trkpt>
      <trkpt lat="42.2469690" lon="1.7081360">
        <ele>1738.1</ele>
        <time>2015-08-14T08:38:21Z</time>
      </trkpt>
      <trkpt lat="42.2469970" lon="1.7081130">
        <ele>1739.4</ele>
        <time>2015-08-14T08:38:25Z</time>
      </trkpt>
      <trkpt lat="42.2469980" lon="1.7080750">
        <ele>1741.7</ele>
        <time>2015-08-14T08:38:27Z</time>
      </trkpt>
      <trkpt lat="42.2470200" lon="1.7080460">
        <ele>1743.4</ele>
        <time>2015-08-14T08:38:30Z</time>
      </trkpt>
      <trkpt lat="42.2470550" lon="1.7080120">
        <ele>1745.3</ele>
        <time>2015-08-14T08:38:33Z</time>
      </trkpt>
      <trkpt lat="42.2470820" lon="1.7079800">
        <ele>1747.2</ele>
        <time>2015-08-14T08:38:35Z</time>
      </trkpt>
      <trkpt lat="42.2471030" lon="1.7079510">
        <ele>1748.4</ele>
        <time>2015-08-14T08:38:36Z</time>
      </trkpt>
      <trkpt lat="42.2470990" lon="1.7079110">
        <ele>1750.9</ele>
        <time>2015-08-14T08:38:38Z</time>
      </trkpt>
      <trkpt lat="42.2471240" lon="1.7078950">
        <ele>1751.2</ele>
        <time>2015-08-14T08:38:40Z</time>
      </trkpt>
      <trkpt lat="42.2471410" lon="1.7078480">
        <ele>1753.5</ele>
        <time>2015-08-14T08:38:43Z</time>
      </trkpt>
      <trkpt lat="42.2471690" lon="1.7078300">
        <ele>1753.8</ele>
        <time>2015-08-14T08:38:45Z</time>
      </trkpt>
      <trkpt lat="42.2471760" lon="1.7077940">
        <ele>1755.8</ele>
        <time>2015-08-14T08:38:46Z</time>
      </trkpt>
      <trkpt lat="42.2471730" lon="1.7077460">
        <ele>1758.7</ele>
        <time>2015-08-14T08:38:49Z</time>
      </trkpt>
      <trkpt lat="42.2472130" lon="1.7077200">
        <ele>1759.3</ele>
        <time>2015-08-14T08:38:53Z</time>
      </trkpt>
      <trkpt lat="42.2472470" lon="1.7077340">
        <ele>1757.6</ele>
        <time>2015-08-14T08:38:56Z</time>
      </trkpt>
      <trkpt lat="42.2472940" lon="1.7077310">
        <ele>1756.7</ele>
        <time>2015-08-14T08:39:00Z</time>
      </trkpt>
      <trkpt lat="42.2473170" lon="1.7077070">
        <ele>1757.6</ele>
        <time>2015-08-14T08:39:03Z</time>
      </trkpt>
      <trkpt lat="42.2473480" lon="1.7077050">
        <ele>1757.0</ele>
        <time>2015-08-14T08:39:05Z</time>
      </trkpt>
      <trkpt lat="42.2473790" lon="1.7076810">
        <ele>1757.8</ele>
        <time>2015-08-14T08:39:07Z</time>
      </trkpt>
      <trkpt lat="42.2474150" lon="1.7076810">
        <ele>1756.9</ele>
        <time>2015-08-14T08:39:10Z</time>
      </trkpt>
      <trkpt lat="42.2474400" lon="1.7076490">
        <ele>1758.4</ele>
        <time>2015-08-14T08:39:13Z</time>
      </trkpt>
      <trkpt lat="42.2474710" lon="1.7076290">
        <ele>1758.9</ele>
        <time>2015-08-14T08:39:16Z</time>
      </trkpt>
      <trkpt lat="42.2474990" lon="1.7076120">
        <ele>1759.4</ele>
        <time>2015-08-14T08:39:19Z</time>
      </trkpt>
      <trkpt lat="42.2475310" lon="1.7075900">
        <ele>1760.1</ele>
        <time>2015-08-14T08:39:21Z</time>
      </trkpt>
      <trkpt lat="42.2475500" lon="1.7075640">
        <ele>1761.4</ele>
        <time>2015-08-14T08:39:23Z</time>
      </trkpt>
      <trkpt lat="42.2475780" lon="1.7075880">
        <ele>1759.2</ele>
        <time>2015-08-14T08:39:28Z</time>
      </trkpt>
      <trkpt lat="42.2475970" lon="1.7075500">
        <ele>1761.3</ele>
        <time>2015-08-14T08:39:31Z</time>
      </trkpt>
      <trkpt lat="42.2476250" lon="1.7075670">
        <ele>1759.6</ele>
        <time>2015-08-14T08:39:33Z</time>
      </trkpt>
      <trkpt lat="42.2476540" lon="1.7075920">
        <ele>1757.3</ele>
        <time>2015-08-14T08:39:35Z</time>
      </trkpt>
      <trkpt lat="42.2476870" lon="1.7075720">
        <ele>1757.9</ele>
        <time>2015-08-14T08:39:37Z</time>
      </trkpt>
      <trkpt lat="42.2477160" lon="1.7075620">
        <ele>1758.0</ele>
        <time>2015-08-14T08:39:38Z</time>
      </trkpt>
      <trkpt lat="42.2477450" lon="1.7075380">
        <ele>1759.0</ele>
        <time>2015-08-14T08:39:42Z</time>
      </trkpt>
      <trkpt lat="42.2477650" lon="1.7075050">
        <ele>1760.8</ele>
        <time>2015-08-14T08:39:44Z</time>
      </trkpt>
      <trkpt lat="42.2477830" lon="1.7074720">
        <ele>1762.6</ele>
        <time>2015-08-14T08:39:46Z</time>
      </trkpt>
      <trkpt lat="42.2478190" lon="1.7074580">
        <ele>1762.9</ele>
        <time>2015-08-14T08:39:48Z</time>
      </trkpt>
      <trkpt lat="42.2478610" lon="1.7074350">
        <ele>1763.6</ele>
        <time>2015-08-14T08:39:50Z</time>
      </trkpt>
      <trkpt lat="42.2478950" lon="1.7074430">
        <ele>1762.4</ele>
        <time>2015-08-14T08:39:53Z</time>
      </trkpt>
      <trkpt lat="42.2479270" lon="1.7074360">
        <ele>1762.1</ele>
        <time>2015-08-14T08:39:55Z</time>
      </trkpt>
      <trkpt lat="42.2479560" lon="1.7074220">
        <ele>1762.0</ele>
        <time>2015-08-14T08:39:59Z</time>
      </trkpt>
      <trkpt lat="42.2479860" lon="1.7074120">
        <ele>1761.7</ele>
        <time>2015-08-14T08:40:02Z</time>
      </trkpt>
      <trkpt lat="42.2480090" lon="1.7074380">
        <ele>1759.1</ele>
        <time>2015-08-14T08:40:05Z</time>
      </trkpt>
      <trkpt lat="42.2480330" lon="1.7074180">
        <ele>1759.6</ele>
        <time>2015-08-14T08:40:06Z</time>
      </trkpt>
      <trkpt lat="42.2480420" lon="1.7073760">
        <ele>1762.0</ele>
        <time>2015-08-14T08:40:07Z</time>
      </trkpt>
      <trkpt lat="42.2480760" lon="1.7073600">
        <ele>1761.8</ele>
        <time>2015-08-14T08:40:10Z</time>
      </trkpt>
      <trkpt lat="42.2481130" lon="1.7073770">
        <ele>1759.4</ele>
        <time>2015-08-14T08:40:12Z</time>
      </trkpt>
      <trkpt lat="42.2481420" lon="1.7073630">
        <ele>1759.2</ele>
        <time>2015-08-14T08:40:14Z</time>
      </trkpt>
      <trkpt lat="42.2481810" lon="1.7073620">
        <ele>1757.8</ele>
        <time>2015-08-14T08:40:17Z</time>
      </trkpt>
      <trkpt lat="42.2482110" lon="1.7073570">
        <ele>1757.0</ele>
        <time>2015-08-14T08:40:25Z</time>
      </trkpt>
      <trkpt lat="42.2482370" lon="1.7073330">
        <ele>1757.4</ele>
        <time>2015-08-14T08:40:27Z</time>
      </trkpt>
      <trkpt lat="42.2482710" lon="1.7073070">
        <ele>1757.6</ele>
        <time>2015-08-14T08:40:29Z</time>
      </trkpt>
      <trkpt lat="42.2483000" lon="1.7072880">
        <ele>1757.5</ele>
        <time>2015-08-14T08:40:31Z</time>
      </trkpt>
      <trkpt lat="42.2483150" lon="1.7072520">
        <ele>1758.9</ele>
        <time>2015-08-14T08:40:34Z</time>
      </trkpt>
      <trkpt lat="42.2483250" lon="1.7072140">
        <ele>1760.6</ele>
        <time>2015-08-14T08:40:38Z</time>
      </trkpt>
      <trkpt lat="42.2483410" lon="1.7071850">
        <ele>1761.6</ele>
        <time>2015-08-14T08:40:40Z</time>
      </trkpt>
      <trkpt lat="42.2483680" lon="1.7071630">
        <ele>1761.6</ele>
        <time>2015-08-14T08:40:43Z</time>
      </trkpt>
      <trkpt lat="42.2483860" lon="1.7071270">
        <ele>1762.7</ele>
        <time>2015-08-14T08:40:45Z</time>
      </trkpt>
      <trkpt lat="42.2484020" lon="1.7070890">
        <ele>1764.0</ele>
        <time>2015-08-14T08:40:48Z</time>
      </trkpt>
      <trkpt lat="42.2484300" lon="1.7070510">
        <ele>1764.5</ele>
        <time>2015-08-14T08:40:51Z</time>
      </trkpt>
      <trkpt lat="42.2484590" lon="1.7070250">
        <ele>1764.3</ele>
        <time>2015-08-14T08:40:54Z</time>
      </trkpt>
      <trkpt lat="42.2484630" lon="1.7069820">
        <ele>1766.0</ele>
        <time>2015-08-14T08:40:57Z</time>
      </trkpt>
      <trkpt lat="42.2484670" lon="1.7069460">
        <ele>1767.5</ele>
        <time>2015-08-14T08:40:59Z</time>
      </trkpt>
      <trkpt lat="42.2484850" lon="1.7069160">
        <ele>1767.9</ele>
        <time>2015-08-14T08:41:02Z</time>
      </trkpt>
      <trkpt lat="42.2484810" lon="1.7068740">
        <ele>1770.0</ele>
        <time>2015-08-14T08:41:05Z</time>
      </trkpt>
      <trkpt lat="42.2484890" lon="1.7068280">
        <ele>1771.7</ele>
        <time>2015-08-14T08:41:09Z</time>
      </trkpt>
      <trkpt lat="42.2485030" lon="1.7067820">
        <ele>1773.0</ele>
        <time>2015-08-14T08:41:13Z</time>
      </trkpt>
      <trkpt lat="42.2485070" lon="1.7067370">
        <ele>1774.7</ele>
        <time>2015-08-14T08:41:17Z</time>
      </trkpt>
      <trkpt lat="42.2485160" lon="1.7066870">
        <ele>1776.4</ele>
        <time>2015-08-14T08:41:20Z</time>
      </trkpt>
      <trkpt lat="42.2485110" lon="1.7066500">
        <ele>1778.4</ele>
        <time>2015-08-14T08:41:22Z</time>
      </trkpt>
      <trkpt lat="42.2485250" lon="1.7066060">
        <ele>1779.5</ele>
        <time>2015-08-14T08:41:25Z</time>
      </trkpt>
      <trkpt lat="42.2485280" lon="1.7065670">
        <ele>1781.0</ele>
        <time>2015-08-14T08:41:27Z</time>
      </trkpt>
      <trkpt lat="42.2485070" lon="1.7065110">
        <ele>1784.8</ele>
        <time>2015-08-14T08:41:29Z</time>
      </trkpt>
      <trkpt lat="42.2485430" lon="1.7064680">
        <ele>1784.4</ele>
        <time>2015-08-14T08:41:31Z</time>
      </trkpt>
      <trkpt lat="42.2485690" lon="1.7064190">
        <ele>1784.9</ele>
        <time>2015-08-14T08:41:34Z</time>
      </trkpt>
      <trkpt lat="42.2485910" lon="1.7063810">
        <ele>1785.1</ele>
        <time>2015-08-14T08:41:36Z</time>
      </trkpt>
      <trkpt lat="42.2486090" lon="1.7063490">
        <ele>1785.3</ele>
        <time>2015-08-14T08:41:39Z</time>
      </trkpt>
      <trkpt lat="42.2486370" lon="1.7063120">
        <ele>1785.0</ele>
        <time>2015-08-14T08:41:42Z</time>
      </trkpt>
      <trkpt lat="42.2486660" lon="1.7062870">
        <ele>1784.1</ele>
        <time>2015-08-14T08:41:44Z</time>
      </trkpt>
      <trkpt lat="42.2486910" lon="1.7062680">
        <ele>1783.2</ele>
        <time>2015-08-14T08:41:47Z</time>
      </trkpt>
      <trkpt lat="42.2487220" lon="1.7062220">
        <ele>1782.9</ele>
        <time>2015-08-14T08:41:50Z</time>
      </trkpt>
      <trkpt lat="42.2487330" lon="1.7061870">
        <ele>1783.4</ele>
        <time>2015-08-14T08:41:52Z</time>
      </trkpt>
      <trkpt lat="42.2487590" lon="1.7061450">
        <ele>1783.0</ele>
        <time>2015-08-14T08:41:54Z</time>
      </trkpt>
      <trkpt lat="42.2487640" lon="1.7061020">
        <ele>1784.2</ele>
        <time>2015-08-14T08:41:56Z</time>
      </trkpt>
      <trkpt lat="42.2487760" lon="1.7060570">
        <ele>1784.9</ele>
        <time>2015-08-14T08:41:58Z</time>
      </trkpt>
      <trkpt lat="42.2487750" lon="1.7060020">
        <ele>1786.9</ele>
        <time>2015-08-14T08:42:00Z</time>
      </trkpt>
      <trkpt lat="42.2487920" lon="1.7059720">
        <ele>1786.8</ele>
        <time>2015-08-14T08:42:02Z</time>
      </trkpt>
      <trkpt lat="42.2488100" lon="1.7059360">
        <ele>1786.9</ele>
        <time>2015-08-14T08:42:04Z</time>
      </trkpt>
      <trkpt lat="42.2488050" lon="1.7058830">
        <ele>1789.1</ele>
        <time>2015-08-14T08:42:06Z</time>
      </trkpt>
      <trkpt lat="42.2488230" lon="1.7058490">
        <ele>1789.2</ele>
        <time>2015-08-14T08:42:08Z</time>
      </trkpt>
      <trkpt lat="42.2488430" lon="1.7057760">
        <ele>1790.5</ele>
        <time>2015-08-14T08:42:10Z</time>
      </trkpt>
      <trkpt lat="42.2488420" lon="1.7057380">
        <ele>1792.0</ele>
        <time>2015-08-14T08:42:12Z</time>
      </trkpt>
      <trkpt lat="42.2488120" lon="1.7056940">
        <ele>1795.5</ele>
        <time>2015-08-14T08:42:14Z</time>
      </trkpt>
      <trkpt lat="42.2487730" lon="1.7056510">
        <ele>1799.4</ele>
        <time>2015-08-14T08:42:15Z</time>
      </trkpt>
      <trkpt lat="42.2488680" lon="1.7056180">
        <ele>1794.8</ele>
        <time>2015-08-14T08:42:17Z</time>
      </trkpt>
      <trkpt lat="42.2488550" lon="1.7055560">
        <ele>1797.8</ele>
        <time>2015-08-14T08:42:19Z</time>
      </trkpt>
      <trkpt lat="42.2488560" lon="1.7055040">
        <ele>1799.7</ele>
        <time>2015-08-14T08:42:21Z</time>
      </trkpt>
      <trkpt lat="42.2488310" lon="1.7054330">
        <ele>1803.7</ele>
        <time>2015-08-14T08:42:28Z</time>
      </trkpt>
      <trkpt lat="42.2488600" lon="1.7054020">
        <ele>1803.3</ele>
        <time>2015-08-14T08:42:31Z</time>
      </trkpt>
      <trkpt lat="42.2488660" lon="1.7053520">
        <ele>1805.2</ele>
        <time>2015-08-14T08:42:33Z</time>
      </trkpt>
      <trkpt lat="42.2489700" lon="1.7052810">
        <ele>1803.0</ele>
        <time>2015-08-14T08:42:54Z</time>
      </trkpt>
      <trkpt lat="42.2489870" lon="1.7052500">
        <ele>1803.6</ele>
        <time>2015-08-14T08:42:55Z</time>
      </trkpt>
      <trkpt lat="42.2490220" lon="1.7052600">
        <ele>1801.4</ele>
        <time>2015-08-14T08:42:58Z</time>
      </trkpt>
      <trkpt lat="42.2490560" lon="1.7052340">
        <ele>1801.0</ele>
        <time>2015-08-14T08:42:59Z</time>
      </trkpt>
      <trkpt lat="42.2490850" lon="1.7051950">
        <ele>1801.7</ele>
        <time>2015-08-14T08:43:00Z</time>
      </trkpt>
      <trkpt lat="42.2491140" lon="1.7051540">
        <ele>1802.7</ele>
        <time>2015-08-14T08:43:01Z</time>
      </trkpt>
      <trkpt lat="42.2491480" lon="1.7051230">
        <ele>1802.9</ele>
        <time>2015-08-14T08:43:03Z</time>
      </trkpt>
      <trkpt lat="42.2491830" lon="1.7051280">
        <ele>1801.1</ele>
        <time>2015-08-14T08:43:05Z</time>
      </trkpt>
      <trkpt lat="42.2492050" lon="1.7051010">
        <ele>1801.7</ele>
        <time>2015-08-14T08:43:07Z</time>
      </trkpt>
      <trkpt lat="42.2492310" lon="1.7050770">
        <ele>1802.1</ele>
        <time>2015-08-14T08:43:10Z</time>
      </trkpt>
      <trkpt lat="42.2492620" lon="1.7050740">
        <ele>1801.0</ele>
        <time>2015-08-14T08:43:13Z</time>
      </trkpt>
      <trkpt lat="42.2492950" lon="1.7050540">
        <ele>1800.9</ele>
        <time>2015-08-14T08:43:16Z</time>
      </trkpt>
      <trkpt lat="42.2493230" lon="1.7050610">
        <ele>1799.3</ele>
        <time>2015-08-14T08:43:18Z</time>
      </trkpt>
      <trkpt lat="42.2493510" lon="1.7050450">
        <ele>1799.3</ele>
        <time>2015-08-14T08:43:19Z</time>
      </trkpt>
      <trkpt lat="42.2493860" lon="1.7050510">
        <ele>1797.5</ele>
        <time>2015-08-14T08:43:20Z</time>
      </trkpt>
      <trkpt lat="42.2494160" lon="1.7050130">
        <ele>1798.9</ele>
        <time>2015-08-14T08:43:23Z</time>
      </trkpt>
      <trkpt lat="42.2494450" lon="1.7050290">
        <ele>1796.7</ele>
        <time>2015-08-14T08:43:25Z</time>
      </trkpt>
      <trkpt lat="42.2494860" lon="1.7050060">
        <ele>1796.7</ele>
        <time>2015-08-14T08:43:28Z</time>
      </trkpt>
      <trkpt lat="42.2495170" lon="1.7049990">
        <ele>1796.1</ele>
        <time>2015-08-14T08:43:31Z</time>
      </trkpt>
      <trkpt lat="42.2495480" lon="1.7049870">
        <ele>1795.8</ele>
        <time>2015-08-14T08:43:32Z</time>
      </trkpt>
      <trkpt lat="42.2495750" lon="1.7049510">
        <ele>1797.6</ele>
        <time>2015-08-14T08:43:34Z</time>
      </trkpt>
      <trkpt lat="42.2496180" lon="1.7049440">
        <ele>1797.2</ele>
        <time>2015-08-14T08:43:36Z</time>
      </trkpt>
      <trkpt lat="42.2496470" lon="1.7049220">
        <ele>1798.4</ele>
        <time>2015-08-14T08:43:38Z</time>
      </trkpt>
      <trkpt lat="42.2496820" lon="1.7049020">
        <ele>1799.3</ele>
        <time>2015-08-14T08:43:40Z</time>
      </trkpt>
      <trkpt lat="42.2497090" lon="1.7049060">
        <ele>1798.5</ele>
        <time>2015-08-14T08:43:46Z</time>
      </trkpt>
      <trkpt lat="42.2497440" lon="1.7048840">
        <ele>1799.5</ele>
        <time>2015-08-14T08:43:48Z</time>
      </trkpt>
      <trkpt lat="42.2497750" lon="1.7048520">
        <ele>1801.4</ele>
        <time>2015-08-14T08:43:50Z</time>
      </trkpt>
      <trkpt lat="42.2497960" lon="1.7047980">
        <ele>1805.3</ele>
        <time>2015-08-14T08:43:53Z</time>
      </trkpt>
      <trkpt lat="42.2498390" lon="1.7047750">
        <ele>1806.3</ele>
        <time>2015-08-14T08:43:56Z</time>
      </trkpt>
      <trkpt lat="42.2498660" lon="1.7047650">
        <ele>1806.6</ele>
        <time>2015-08-14T08:43:57Z</time>
      </trkpt>
      <trkpt lat="42.2499060" lon="1.7047470">
        <ele>1807.3</ele>
        <time>2015-08-14T08:43:59Z</time>
      </trkpt>
      <trkpt lat="42.2499490" lon="1.7047260">
        <ele>1808.1</ele>
        <time>2015-08-14T08:44:01Z</time>
      </trkpt>
      <trkpt lat="42.2499810" lon="1.7047090">
        <ele>1808.9</ele>
        <time>2015-08-14T08:44:03Z</time>
      </trkpt>
      <trkpt lat="42.2499710" lon="1.7046650">
        <ele>1812.6</ele>
        <time>2015-08-14T08:44:05Z</time>
      </trkpt>
      <trkpt lat="42.2499710" lon="1.7045830">
        <ele>1819.0</ele>
        <time>2015-08-14T08:44:09Z</time>
      </trkpt>
      <trkpt lat="42.2499780" lon="1.7046310">
        <ele>1815.1</ele>
        <time>2015-08-14T08:48:26Z</time>
      </trkpt>
      <trkpt lat="42.2500310" lon="1.7046220">
        <ele>1814.9</ele>
        <time>2015-08-14T08:48:29Z</time>
      </trkpt>
      <trkpt lat="42.2500890" lon="1.7045820">
        <ele>1817.0</ele>
        <time>2015-08-14T08:48:31Z</time>
      </trkpt>
      <trkpt lat="42.2501290" lon="1.7045720">
        <ele>1817.0</ele>
        <time>2015-08-14T08:48:33Z</time>
      </trkpt>
      <trkpt lat="42.2501850" lon="1.7045300">
        <ele>1819.2</ele>
        <time>2015-08-14T08:48:35Z</time>
      </trkpt>
      <trkpt lat="42.2502120" lon="1.7045470">
        <ele>1817.5</ele>
        <time>2015-08-14T08:48:37Z</time>
      </trkpt>
      <trkpt lat="42.2502260" lon="1.7045790">
        <ele>1814.8</ele>
        <time>2015-08-14T08:48:38Z</time>
      </trkpt>
      <trkpt lat="42.2502750" lon="1.7045630">
        <ele>1815.1</ele>
        <time>2015-08-14T08:48:39Z</time>
      </trkpt>
      <trkpt lat="42.2503130" lon="1.7045850">
        <ele>1812.7</ele>
        <time>2015-08-14T08:48:41Z</time>
      </trkpt>
      <trkpt lat="42.2503460" lon="1.7045970">
        <ele>1811.2</ele>
        <time>2015-08-14T08:48:43Z</time>
      </trkpt>
      <trkpt lat="42.2503820" lon="1.7046080">
        <ele>1809.6</ele>
        <time>2015-08-14T08:48:45Z</time>
      </trkpt>
      <trkpt lat="42.2504100" lon="1.7046460">
        <ele>1806.1</ele>
        <time>2015-08-14T08:48:48Z</time>
      </trkpt>
      <trkpt lat="42.2504390" lon="1.7046470">
        <ele>1805.3</ele>
        <time>2015-08-14T08:48:49Z</time>
      </trkpt>
      <trkpt lat="42.2504810" lon="1.7046650">
        <ele>1802.8</ele>
        <time>2015-08-14T08:48:52Z</time>
      </trkpt>
      <trkpt lat="42.2505140" lon="1.7046750">
        <ele>1801.2</ele>
        <time>2015-08-14T08:48:54Z</time>
      </trkpt>
      <trkpt lat="42.2505460" lon="1.7046500">
        <ele>1802.4</ele>
        <time>2015-08-14T08:48:55Z</time>
      </trkpt>
      <trkpt lat="42.2505840" lon="1.7046230">
        <ele>1803.5</ele>
        <time>2015-08-14T08:48:57Z</time>
      </trkpt>
      <trkpt lat="42.2506140" lon="1.7046010">
        <ele>1804.4</ele>
        <time>2015-08-14T08:49:01Z</time>
      </trkpt>
      <trkpt lat="42.2506550" lon="1.7045940">
        <ele>1803.9</ele>
        <time>2015-08-14T08:49:03Z</time>
      </trkpt>
      <trkpt lat="42.2506790" lon="1.7045660">
        <ele>1805.3</ele>
        <time>2015-08-14T08:49:05Z</time>
      </trkpt>
      <trkpt lat="42.2506980" lon="1.7045310">
        <ele>1807.2</ele>
        <time>2015-08-14T08:49:07Z</time>
      </trkpt>
      <trkpt lat="42.2507330" lon="1.7045010">
        <ele>1808.3</ele>
        <time>2015-08-14T08:49:09Z</time>
      </trkpt>
      <trkpt lat="42.2507600" lon="1.7044710">
        <ele>1809.6</ele>
        <time>2015-08-14T08:49:11Z</time>
      </trkpt>
      <trkpt lat="42.2507890" lon="1.7044610">
        <ele>1809.4</ele>
        <time>2015-08-14T08:49:15Z</time>
      </trkpt>
      <trkpt lat="42.2508250" lon="1.7044180">
        <ele>1811.3</ele>
        <time>2015-08-14T08:49:17Z</time>
      </trkpt>
      <trkpt lat="42.2508550" lon="1.7043790">
        <ele>1813.0</ele>
        <time>2015-08-14T08:49:19Z</time>
      </trkpt>
      <trkpt lat="42.2508710" lon="1.7043400">
        <ele>1815.0</ele>
        <time>2015-08-14T08:49:21Z</time>
      </trkpt>
      <trkpt lat="42.2509120" lon="1.7043250">
        <ele>1814.7</ele>
        <time>2015-08-14T08:49:24Z</time>
      </trkpt>
      <trkpt lat="42.2509440" lon="1.7043080">
        <ele>1814.8</ele>
        <time>2015-08-14T08:49:26Z</time>
      </trkpt>
      <trkpt lat="42.2509770" lon="1.7043210">
        <ele>1813.0</ele>
        <time>2015-08-14T08:49:29Z</time>
      </trkpt>
      <trkpt lat="42.2510170" lon="1.7043450">
        <ele>1810.2</ele>
        <time>2015-08-14T08:49:31Z</time>
      </trkpt>
      <trkpt lat="42.2510660" lon="1.7043450">
        <ele>1808.7</ele>
        <time>2015-08-14T08:49:33Z</time>
      </trkpt>
      <trkpt lat="42.2510970" lon="1.7043720">
        <ele>1806.1</ele>
        <time>2015-08-14T08:49:36Z</time>
      </trkpt>
      <trkpt lat="42.2511190" lon="1.7043380">
        <ele>1807.5</ele>
        <time>2015-08-14T08:49:37Z</time>
      </trkpt>
      <trkpt lat="42.2511440" lon="1.7043160">
        <ele>1808.0</ele>
        <time>2015-08-14T08:49:39Z</time>
      </trkpt>
      <trkpt lat="42.2511710" lon="1.7042980">
        <ele>1808.3</ele>
        <time>2015-08-14T08:49:40Z</time>
      </trkpt>
      <trkpt lat="42.2512200" lon="1.7042850">
        <ele>1807.5</ele>
        <time>2015-08-14T08:49:43Z</time>
      </trkpt>
      <trkpt lat="42.2512500" lon="1.7042810">
        <ele>1806.8</ele>
        <time>2015-08-14T08:49:45Z</time>
      </trkpt>
      <trkpt lat="42.2512710" lon="1.7042560">
        <ele>1807.8</ele>
        <time>2015-08-14T08:49:46Z</time>
      </trkpt>
      <trkpt lat="42.2513100" lon="1.7042400">
        <ele>1808.0</ele>
        <time>2015-08-14T08:49:48Z</time>
      </trkpt>
      <trkpt lat="42.2513300" lon="1.7042130">
        <ele>1809.3</ele>
        <time>2015-08-14T08:49:51Z</time>
      </trkpt>
      <trkpt lat="42.2513540" lon="1.7042540">
        <ele>1806.3</ele>
        <time>2015-08-14T08:49:54Z</time>
      </trkpt>
      <trkpt lat="42.2513840" lon="1.7042470">
        <ele>1806.2</ele>
        <time>2015-08-14T08:49:56Z</time>
      </trkpt>
      <trkpt lat="42.2514170" lon="1.7042090">
        <ele>1807.8</ele>
        <time>2015-08-14T08:49:59Z</time>
      </trkpt>
      <trkpt lat="42.2514560" lon="1.7041610">
        <ele>1810.0</ele>
        <time>2015-08-14T08:50:01Z</time>
      </trkpt>
      <trkpt lat="42.2514900" lon="1.7041380">
        <ele>1810.8</ele>
        <time>2015-08-14T08:50:03Z</time>
      </trkpt>
      <trkpt lat="42.2515170" lon="1.7041180">
        <ele>1811.5</ele>
        <time>2015-08-14T08:50:05Z</time>
      </trkpt>
      <trkpt lat="42.2515470" lon="1.7041020">
        <ele>1812.0</ele>
        <time>2015-08-14T08:50:07Z</time>
      </trkpt>
      <trkpt lat="42.2515770" lon="1.7040830">
        <ele>1812.6</ele>
        <time>2015-08-14T08:50:09Z</time>
      </trkpt>
      <trkpt lat="42.2516090" lon="1.7040570">
        <ele>1813.7</ele>
        <time>2015-08-14T08:50:11Z</time>
      </trkpt>
      <trkpt lat="42.2516290" lon="1.7040270">
        <ele>1815.2</ele>
        <time>2015-08-14T08:50:13Z</time>
      </trkpt>
      <trkpt lat="42.2516620" lon="1.7040490">
        <ele>1813.2</ele>
        <time>2015-08-14T08:50:16Z</time>
      </trkpt>
      <trkpt lat="42.2516920" lon="1.7040550">
        <ele>1812.3</ele>
        <time>2015-08-14T08:50:19Z</time>
      </trkpt>
      <trkpt lat="42.2517170" lon="1.7040330">
        <ele>1813.3</ele>
        <time>2015-08-14T08:50:21Z</time>
      </trkpt>
      <trkpt lat="42.2517540" lon="1.7040240">
        <ele>1813.2</ele>
        <time>2015-08-14T08:50:23Z</time>
      </trkpt>
      <trkpt lat="42.2517920" lon="1.7040140">
        <ele>1813.2</ele>
        <time>2015-08-14T08:50:25Z</time>
      </trkpt>
      <trkpt lat="42.2518310" lon="1.7039890">
        <ele>1814.2</ele>
        <time>2015-08-14T08:50:27Z</time>
      </trkpt>
      <trkpt lat="42.2518600" lon="1.7040120">
        <ele>1812.2</ele>
        <time>2015-08-14T08:50:29Z</time>
      </trkpt>
      <trkpt lat="42.2518900" lon="1.7040150">
        <ele>1811.5</ele>
        <time>2015-08-14T08:50:31Z</time>
      </trkpt>
      <trkpt lat="42.2519280" lon="1.7040120">
        <ele>1811.0</ele>
        <time>2015-08-14T08:50:33Z</time>
      </trkpt>
      <trkpt lat="42.2519660" lon="1.7040150">
        <ele>1810.2</ele>
        <time>2015-08-14T08:50:35Z</time>
      </trkpt>
      <trkpt lat="42.2519940" lon="1.7039950">
        <ele>1811.0</ele>
        <time>2015-08-14T08:50:37Z</time>
      </trkpt>
      <trkpt lat="42.2520340" lon="1.7039820">
        <ele>1811.2</ele>
        <time>2015-08-14T08:50:39Z</time>
      </trkpt>
      <trkpt lat="42.2520610" lon="1.7039870">
        <ele>1810.4</ele>
        <time>2015-08-14T08:50:41Z</time>
      </trkpt>
      <trkpt lat="42.2520940" lon="1.7039730">
        <ele>1810.7</ele>
        <time>2015-08-14T08:50:43Z</time>
      </trkpt>
      <trkpt lat="42.2521240" lon="1.7039530">
        <ele>1810.9</ele>
        <time>2015-08-14T08:50:45Z</time>
      </trkpt>
      <trkpt lat="42.2521570" lon="1.7039310">
        <ele>1811.2</ele>
        <time>2015-08-14T08:50:47Z</time>
      </trkpt>
      <trkpt lat="42.2521820" lon="1.7039040">
        <ele>1811.9</ele>
        <time>2015-08-14T08:50:48Z</time>
      </trkpt>
      <trkpt lat="42.2522100" lon="1.7039200">
        <ele>1809.9</ele>
        <time>2015-08-14T08:50:50Z</time>
      </trkpt>
      <trkpt lat="42.2522420" lon="1.7039010">
        <ele>1809.8</ele>
        <time>2015-08-14T08:50:52Z</time>
      </trkpt>
      <trkpt lat="42.2522750" lon="1.7038880">
        <ele>1809.3</ele>
        <time>2015-08-14T08:50:54Z</time>
      </trkpt>
      <trkpt lat="42.2523060" lon="1.7038960">
        <ele>1807.7</ele>
        <time>2015-08-14T08:50:56Z</time>
      </trkpt>
      <trkpt lat="42.2523390" lon="1.7038880">
        <ele>1806.8</ele>
        <time>2015-08-14T08:50:58Z</time>
      </trkpt>
      <trkpt lat="42.2523710" lon="1.7038830">
        <ele>1805.9</ele>
        <time>2015-08-14T08:51:00Z</time>
      </trkpt>
      <trkpt lat="42.2524060" lon="1.7038440">
        <ele>1806.4</ele>
        <time>2015-08-14T08:51:02Z</time>
      </trkpt>
      <trkpt lat="42.2524340" lon="1.7038320">
        <ele>1805.8</ele>
        <time>2015-08-14T08:51:03Z</time>
      </trkpt>
      <trkpt lat="42.2524720" lon="1.7037910">
        <ele>1806.0</ele>
        <time>2015-08-14T08:51:05Z</time>
      </trkpt>
      <trkpt lat="42.2524990" lon="1.7037620">
        <ele>1806.0</ele>
        <time>2015-08-14T08:51:07Z</time>
      </trkpt>
      <trkpt lat="42.2525340" lon="1.7037190">
        <ele>1804.7</ele>
        <time>2015-08-14T08:51:10Z</time>
      </trkpt>
      <trkpt lat="42.2525620" lon="1.7036830">
        <ele>1803.0</ele>
        <time>2015-08-14T08:51:12Z</time>
      </trkpt>
      <trkpt lat="42.2525960" lon="1.7036560">
        <ele>1801.2</ele>
        <time>2015-08-14T08:51:15Z</time>
      </trkpt>
      <trkpt lat="42.2526100" lon="1.7035910">
        <ele>1799.9</ele>
        <time>2015-08-14T08:51:18Z</time>
      </trkpt>
      <trkpt lat="42.2526290" lon="1.7035350">
        <ele>1798.4</ele>
        <time>2015-08-14T08:51:20Z</time>
      </trkpt>
      <trkpt lat="42.2526400" lon="1.7034970">
        <ele>1797.5</ele>
        <time>2015-08-14T08:51:22Z</time>
      </trkpt>
      <trkpt lat="42.2526320" lon="1.7034450">
        <ele>1797.4</ele>
        <time>2015-08-14T08:51:24Z</time>
      </trkpt>
      <trkpt lat="42.2526520" lon="1.7033880">
        <ele>1795.8</ele>
        <time>2015-08-14T08:51:26Z</time>
      </trkpt>
      <trkpt lat="42.2526580" lon="1.7033480">
        <ele>1795.1</ele>
        <time>2015-08-14T08:51:27Z</time>
      </trkpt>
      <trkpt lat="42.2526670" lon="1.7032950">
        <ele>1794.1</ele>
        <time>2015-08-14T08:51:28Z</time>
      </trkpt>
      <trkpt lat="42.2526830" lon="1.7032400">
        <ele>1792.7</ele>
        <time>2015-08-14T08:51:29Z</time>
      </trkpt>
      <trkpt lat="42.2526960" lon="1.7031860">
        <ele>1791.4</ele>
        <time>2015-08-14T08:51:30Z</time>
      </trkpt>
      <trkpt lat="42.2526920" lon="1.7031250">
        <ele>1790.9</ele>
        <time>2015-08-14T08:51:31Z</time>
      </trkpt>
      <trkpt lat="42.2527000" lon="1.7030660">
        <ele>1789.9</ele>
        <time>2015-08-14T08:51:32Z</time>
      </trkpt>
      <trkpt lat="42.2527060" lon="1.7030070">
        <ele>1788.9</ele>
        <time>2015-08-14T08:51:33Z</time>
      </trkpt>
      <trkpt lat="42.2527110" lon="1.7029510">
        <ele>1788.0</ele>
        <time>2015-08-14T08:51:34Z</time>
      </trkpt>
      <trkpt lat="42.2527150" lon="1.7028990">
        <ele>1786.8</ele>
        <time>2015-08-14T08:51:35Z</time>
      </trkpt>
      <trkpt lat="42.2526980" lon="1.7028460">
        <ele>1786.4</ele>
        <time>2015-08-14T08:51:36Z</time>
      </trkpt>
      <trkpt lat="42.2526850" lon="1.7027930">
        <ele>1785.7</ele>
        <time>2015-08-14T08:51:37Z</time>
      </trkpt>
      <trkpt lat="42.2526690" lon="1.7027430">
        <ele>1785.4</ele>
        <time>2015-08-14T08:51:38Z</time>
      </trkpt>
      <trkpt lat="42.2526200" lon="1.7027020">
        <ele>1787.4</ele>
        <time>2015-08-14T08:51:39Z</time>
      </trkpt>
      <trkpt lat="42.2525890" lon="1.7026540">
        <ele>1788.1</ele>
        <time>2015-08-14T08:51:40Z</time>
      </trkpt>
      <trkpt lat="42.2525470" lon="1.7025880">
        <ele>1789.1</ele>
        <time>2015-08-14T08:51:41Z</time>
      </trkpt>
      <trkpt lat="42.2525130" lon="1.7025480">
        <ele>1790.3</ele>
        <time>2015-08-14T08:51:42Z</time>
      </trkpt>
      <trkpt lat="42.2524850" lon="1.7025010">
        <ele>1791.0</ele>
        <time>2015-08-14T08:51:43Z</time>
      </trkpt>
      <trkpt lat="42.2524550" lon="1.7024490">
        <ele>1791.8</ele>
        <time>2015-08-14T08:51:44Z</time>
      </trkpt>
      <trkpt lat="42.2524190" lon="1.7023870">
        <ele>1792.7</ele>
        <time>2015-08-14T08:51:45Z</time>
      </trkpt>
      <trkpt lat="42.2523860" lon="1.7023300">
        <ele>1793.7</ele>
        <time>2015-08-14T08:51:46Z</time>
      </trkpt>
      <trkpt lat="42.2523190" lon="1.7022440">
        <ele>1796.4</ele>
        <time>2015-08-14T08:51:47Z</time>
      </trkpt>
      <trkpt lat="42.2522700" lon="1.7021930">
        <ele>1798.7</ele>
        <time>2015-08-14T08:51:48Z</time>
      </trkpt>
      <trkpt lat="42.2522200" lon="1.7021290">
        <ele>1801.0</ele>
        <time>2015-08-14T08:51:49Z</time>
      </trkpt>
      <trkpt lat="42.2521430" lon="1.7020330">
        <ele>1804.4</ele>
        <time>2015-08-14T08:51:50Z</time>
      </trkpt>
      <trkpt lat="42.2520810" lon="1.7019150">
        <ele>1805.7</ele>
        <time>2015-08-14T08:51:51Z</time>
      </trkpt>
      <trkpt lat="42.2520290" lon="1.7018290">
        <ele>1807.3</ele>
        <time>2015-08-14T08:51:52Z</time>
      </trkpt>
      <trkpt lat="42.2520280" lon="1.7016790">
        <ele>1803.4</ele>
        <time>2015-08-14T08:51:53Z</time>
      </trkpt>
      <trkpt lat="42.2519960" lon="1.7015570">
        <ele>1802.7</ele>
        <time>2015-08-14T08:51:54Z</time>
      </trkpt>
      <trkpt lat="42.2520420" lon="1.7014320">
        <ele>1795.9</ele>
        <time>2015-08-14T08:51:55Z</time>
      </trkpt>
      <trkpt lat="42.2520780" lon="1.7013460">
        <ele>1790.9</ele>
        <time>2015-08-14T08:51:56Z</time>
      </trkpt>
      <trkpt lat="42.2520960" lon="1.7012130">
        <ele>1786.3</ele>
        <time>2015-08-14T08:51:57Z</time>
      </trkpt>
      <trkpt lat="42.2521220" lon="1.7011070">
        <ele>1782.0</ele>
        <time>2015-08-14T08:51:58Z</time>
      </trkpt>
      <trkpt lat="42.2521300" lon="1.7009940">
        <ele>1778.6</ele>
        <time>2015-08-14T08:51:59Z</time>
      </trkpt>
      <trkpt lat="42.2521380" lon="1.7008910">
        <ele>1775.4</ele>
        <time>2015-08-14T08:52:00Z</time>
      </trkpt>
      <trkpt lat="42.2521430" lon="1.7007920">
        <ele>1772.4</ele>
        <time>2015-08-14T08:52:01Z</time>
      </trkpt>
      <trkpt lat="42.2521400" lon="1.7007140">
        <ele>1770.6</ele>
        <time>2015-08-14T08:52:02Z</time>
      </trkpt>
      <trkpt lat="42.2520960" lon="1.7006330">
        <ele>1771.6</ele>
        <time>2015-08-14T08:52:03Z</time>
      </trkpt>
      <trkpt lat="42.2520250" lon="1.7005510">
        <ele>1775.3</ele>
        <time>2015-08-14T08:52:04Z</time>
      </trkpt>
      <trkpt lat="42.2519490" lon="1.7004570">
        <ele>1779.6</ele>
        <time>2015-08-14T08:52:05Z</time>
      </trkpt>
      <trkpt lat="42.2518800" lon="1.7003550">
        <ele>1784.0</ele>
        <time>2015-08-14T08:52:06Z</time>
      </trkpt>
      <trkpt lat="42.2518150" lon="1.7002570">
        <ele>1788.7</ele>
        <time>2015-08-14T08:52:07Z</time>
      </trkpt>
      <trkpt lat="42.2517950" lon="1.7001190">
        <ele>1789.2</ele>
        <time>2015-08-14T08:52:08Z</time>
      </trkpt>
      <trkpt lat="42.2517480" lon="1.7000070">
        <ele>1792.1</ele>
        <time>2015-08-14T08:52:09Z</time>
      </trkpt>
      <trkpt lat="42.2516830" lon="1.6999520">
        <ele>1797.1</ele>
        <time>2015-08-14T08:52:10Z</time>
      </trkpt>
      <trkpt lat="42.2516420" lon="1.6998740">
        <ele>1799.9</ele>
        <time>2015-08-14T08:52:11Z</time>
      </trkpt>
      <trkpt lat="42.2515910" lon="1.6998310">
        <ele>1803.8</ele>
        <time>2015-08-14T08:52:12Z</time>
      </trkpt>
      <trkpt lat="42.2515580" lon="1.6997610">
        <ele>1805.9</ele>
        <time>2015-08-14T08:52:13Z</time>
      </trkpt>
      <trkpt lat="42.2515530" lon="1.6996930">
        <ele>1805.6</ele>
        <time>2015-08-14T08:52:14Z</time>
      </trkpt>
      <trkpt lat="42.2515660" lon="1.6996430">
        <ele>1804.0</ele>
        <time>2015-08-14T08:52:15Z</time>
      </trkpt>
      <trkpt lat="42.2516120" lon="1.6995810">
        <ele>1799.6</ele>
        <time>2015-08-14T08:52:16Z</time>
      </trkpt>
      <trkpt lat="42.2516510" lon="1.6994870">
        <ele>1795.8</ele>
        <time>2015-08-14T08:52:17Z</time>
      </trkpt>
      <trkpt lat="42.2516510" lon="1.6994180">
        <ele>1795.4</ele>
        <time>2015-08-14T08:52:18Z</time>
      </trkpt>
      <trkpt lat="42.2516540" lon="1.6993640">
        <ele>1794.8</ele>
        <time>2015-08-14T08:52:19Z</time>
      </trkpt>
      <trkpt lat="42.2516680" lon="1.6993110">
        <ele>1793.4</ele>
        <time>2015-08-14T08:52:20Z</time>
      </trkpt>
      <trkpt lat="42.2516660" lon="1.6992480">
        <ele>1793.2</ele>
        <time>2015-08-14T08:52:21Z</time>
      </trkpt>
      <trkpt lat="42.2516690" lon="1.6991910">
        <ele>1792.7</ele>
        <time>2015-08-14T08:52:22Z</time>
      </trkpt>
      <trkpt lat="42.2516750" lon="1.6991260">
        <ele>1791.9</ele>
        <time>2015-08-14T08:52:23Z</time>
      </trkpt>
      <trkpt lat="42.2516800" lon="1.6990830">
        <ele>1791.4</ele>
        <time>2015-08-14T08:52:24Z</time>
      </trkpt>
      <trkpt lat="42.2516770" lon="1.6990460">
        <ele>1791.4</ele>
        <time>2015-08-14T08:52:25Z</time>
      </trkpt>
      <trkpt lat="42.2516620" lon="1.6989690">
        <ele>1792.0</ele>
        <time>2015-08-14T08:52:27Z</time>
      </trkpt>
      <trkpt lat="42.2516440" lon="1.6989160">
        <ele>1792.9</ele>
        <time>2015-08-14T08:52:29Z</time>
      </trkpt>
      <trkpt lat="42.2516380" lon="1.6988640">
        <ele>1793.0</ele>
        <time>2015-08-14T08:52:31Z</time>
      </trkpt>
      <trkpt lat="42.2516180" lon="1.6988020">
        <ele>1793.8</ele>
        <time>2015-08-14T08:52:33Z</time>
      </trkpt>
      <trkpt lat="42.2515780" lon="1.6987660">
        <ele>1796.1</ele>
        <time>2015-08-14T08:52:35Z</time>
      </trkpt>
      <trkpt lat="42.2515640" lon="1.6987300">
        <ele>1797.4</ele>
        <time>2015-08-14T08:52:36Z</time>
      </trkpt>
      <trkpt lat="42.2515660" lon="1.6986910">
        <ele>1798.6</ele>
        <time>2015-08-14T08:52:37Z</time>
      </trkpt>
      <trkpt lat="42.2515450" lon="1.6986650">
        <ele>1800.7</ele>
        <time>2015-08-14T08:52:38Z</time>
      </trkpt>
      <trkpt lat="42.2515330" lon="1.6985910">
        <ele>1803.9</ele>
        <time>2015-08-14T08:52:41Z</time>
      </trkpt>
      <trkpt lat="42.2514940" lon="1.6985530">
        <ele>1807.3</ele>
        <time>2015-08-14T08:52:43Z</time>
      </trkpt>
      <trkpt lat="42.2514770" lon="1.6985240">
        <ele>1809.1</ele>
        <time>2015-08-14T08:52:44Z</time>
      </trkpt>
      <trkpt lat="42.2514400" lon="1.6984860">
        <ele>1812.3</ele>
        <time>2015-08-14T08:52:46Z</time>
      </trkpt>
      <trkpt lat="42.2514080" lon="1.6984530">
        <ele>1815.0</ele>
        <time>2015-08-14T08:52:48Z</time>
      </trkpt>
      <trkpt lat="42.2514170" lon="1.6984020">
        <ele>1816.1</ele>
        <time>2015-08-14T08:52:50Z</time>
      </trkpt>
      <trkpt lat="42.2514060" lon="1.6983590">
        <ele>1817.9</ele>
        <time>2015-08-14T08:52:52Z</time>
      </trkpt>
      <trkpt lat="42.2514210" lon="1.6983430">
        <ele>1817.6</ele>
        <time>2015-08-14T08:52:55Z</time>
      </trkpt>
      <trkpt lat="42.2514360" lon="1.6983280">
        <ele>1817.3</ele>
        <time>2015-08-14T08:53:01Z</time>
      </trkpt>
      <trkpt lat="42.2514500" lon="1.6983120">
        <ele>1817.1</ele>
        <time>2015-08-14T08:53:04Z</time>
      </trkpt>
      <trkpt lat="42.2514650" lon="1.6982960">
        <ele>1816.8</ele>
        <time>2015-08-14T08:53:19Z</time>
      </trkpt>
      <trkpt lat="42.2514800" lon="1.6982800">
        <ele>1816.6</ele>
        <time>2015-08-14T08:53:20Z</time>
      </trkpt>
      <trkpt lat="42.2515150" lon="1.6982430">
        <ele>1816.0</ele>
        <time>2015-08-14T08:53:21Z</time>
      </trkpt>
      <trkpt lat="42.2515300" lon="1.6982120">
        <ele>1816.3</ele>
        <time>2015-08-14T08:53:22Z</time>
      </trkpt>
      <trkpt lat="42.2515560" lon="1.6981950">
        <ele>1815.7</ele>
        <time>2015-08-14T08:53:23Z</time>
      </trkpt>
      <trkpt lat="42.2516100" lon="1.6981480">
        <ele>1814.8</ele>
        <time>2015-08-14T08:53:24Z</time>
      </trkpt>
      <trkpt lat="42.2516490" lon="1.6981230">
        <ele>1813.9</ele>
        <time>2015-08-14T08:53:26Z</time>
      </trkpt>
      <trkpt lat="42.2516820" lon="1.6980910">
        <ele>1813.5</ele>
        <time>2015-08-14T08:53:27Z</time>
      </trkpt>
      <trkpt lat="42.2517270" lon="1.6980690">
        <ele>1812.4</ele>
        <time>2015-08-14T08:53:29Z</time>
      </trkpt>
      <trkpt lat="42.2517490" lon="1.6980440">
        <ele>1812.4</ele>
        <time>2015-08-14T08:53:30Z</time>
      </trkpt>
      <trkpt lat="42.2517970" lon="1.6980270">
        <ele>1811.0</ele>
        <time>2015-08-14T08:53:33Z</time>
      </trkpt>
      <trkpt lat="42.2518330" lon="1.6979920">
        <ele>1810.9</ele>
        <time>2015-08-14T08:53:35Z</time>
      </trkpt>
      <trkpt lat="42.2518780" lon="1.6979690">
        <ele>1810.0</ele>
        <time>2015-08-14T08:53:37Z</time>
      </trkpt>
      <trkpt lat="42.2519180" lon="1.6979430">
        <ele>1809.4</ele>
        <time>2015-08-14T08:53:41Z</time>
      </trkpt>
      <trkpt lat="42.2519630" lon="1.6979090">
        <ele>1809.3</ele>
        <time>2015-08-14T08:53:43Z</time>
      </trkpt>
      <trkpt lat="42.2520010" lon="1.6978940">
        <ele>1808.9</ele>
        <time>2015-08-14T08:53:45Z</time>
      </trkpt>
      <trkpt lat="42.2520540" lon="1.6978710">
        <ele>1808.5</ele>
        <time>2015-08-14T08:53:48Z</time>
      </trkpt>
      <trkpt lat="42.2520740" lon="1.6978790">
        <ele>1807.1</ele>
        <time>2015-08-14T08:53:52Z</time>
      </trkpt>
      <trkpt lat="42.2520930" lon="1.6978880">
        <ele>1806.1</ele>
        <time>2015-08-14T08:53:53Z</time>
      </trkpt>
      <trkpt lat="42.2521500" lon="1.6978700">
        <ele>1807.4</ele>
        <time>2015-08-14T08:53:57Z</time>
      </trkpt>
      <trkpt lat="42.2521800" lon="1.6978820">
        <ele>1806.6</ele>
        <time>2015-08-14T08:54:00Z</time>
      </trkpt>
      <trkpt lat="42.2522080" lon="1.6979140">
        <ele>1804.3</ele>
        <time>2015-08-14T08:54:02Z</time>
      </trkpt>
      <trkpt lat="42.2522480" lon="1.6979030">
        <ele>1805.1</ele>
        <time>2015-08-14T08:54:05Z</time>
      </trkpt>
      <trkpt lat="42.2523040" lon="1.6978610">
        <ele>1808.1</ele>
        <time>2015-08-14T08:54:07Z</time>
      </trkpt>
      <trkpt lat="42.2523530" lon="1.6978590">
        <ele>1808.3</ele>
        <time>2015-08-14T08:54:11Z</time>
      </trkpt>
      <trkpt lat="42.2523820" lon="1.6978360">
        <ele>1809.8</ele>
        <time>2015-08-14T08:54:12Z</time>
      </trkpt>
      <trkpt lat="42.2524110" lon="1.6978480">
        <ele>1809.0</ele>
        <time>2015-08-14T08:54:14Z</time>
      </trkpt>
      <trkpt lat="42.2524740" lon="1.6978050">
        <ele>1811.9</ele>
        <time>2015-08-14T08:54:18Z</time>
      </trkpt>
      <trkpt lat="42.2525240" lon="1.6978410">
        <ele>1809.5</ele>
        <time>2015-08-14T08:54:24Z</time>
      </trkpt>
      <trkpt lat="42.2525710" lon="1.6978200">
        <ele>1810.9</ele>
        <time>2015-08-14T08:54:26Z</time>
      </trkpt>
      <trkpt lat="42.2526030" lon="1.6978830">
        <ele>1806.8</ele>
        <time>2015-08-14T08:54:29Z</time>
      </trkpt>
      <trkpt lat="42.2526480" lon="1.6978780">
        <ele>1807.1</ele>
        <time>2015-08-14T08:54:31Z</time>
      </trkpt>
      <trkpt lat="42.2526890" lon="1.6978960">
        <ele>1806.0</ele>
        <time>2015-08-14T08:54:33Z</time>
      </trkpt>
      <trkpt lat="42.2527340" lon="1.6978600">
        <ele>1808.3</ele>
        <time>2015-08-14T08:54:34Z</time>
      </trkpt>
      <trkpt lat="42.2527480" lon="1.6978990">
        <ele>1805.9</ele>
        <time>2015-08-14T08:54:36Z</time>
      </trkpt>
      <trkpt lat="42.2527440" lon="1.6979590">
        <ele>1802.4</ele>
        <time>2015-08-14T08:54:39Z</time>
      </trkpt>
      <trkpt lat="42.2527820" lon="1.6979500">
        <ele>1802.9</ele>
        <time>2015-08-14T08:54:40Z</time>
      </trkpt>
      <trkpt lat="42.2528220" lon="1.6979810">
        <ele>1801.1</ele>
        <time>2015-08-14T08:54:43Z</time>
      </trkpt>
      <trkpt lat="42.2528680" lon="1.6980220">
        <ele>1798.7</ele>
        <time>2015-08-14T08:54:45Z</time>
      </trkpt>
      <trkpt lat="42.2528860" lon="1.6980620">
        <ele>1796.3</ele>
        <time>2015-08-14T08:54:47Z</time>
      </trkpt>
      <trkpt lat="42.2529030" lon="1.6980290">
        <ele>1798.3</ele>
        <time>2015-08-14T08:54:50Z</time>
      </trkpt>
      <trkpt lat="42.2529420" lon="1.6980160">
        <ele>1798.5</ele>
        <time>2015-08-14T08:54:53Z</time>
      </trkpt>
      <trkpt lat="42.2529690" lon="1.6980040">
        <ele>1798.6</ele>
        <time>2015-08-14T08:54:55Z</time>
      </trkpt>
      <trkpt lat="42.2529770" lon="1.6979640">
        <ele>1800.9</ele>
        <time>2015-08-14T08:55:00Z</time>
      </trkpt>
      <trkpt lat="42.2530030" lon="1.6979280">
        <ele>1802.5</ele>
        <time>2015-08-14T08:55:02Z</time>
      </trkpt>
      <trkpt lat="42.2530250" lon="1.6978770">
        <ele>1805.0</ele>
        <time>2015-08-14T08:55:04Z</time>
      </trkpt>
      <trkpt lat="42.2530520" lon="1.6978360">
        <ele>1806.7</ele>
        <time>2015-08-14T08:55:06Z</time>
      </trkpt>
      <trkpt lat="42.2530840" lon="1.6978160">
        <ele>1807.1</ele>
        <time>2015-08-14T08:55:08Z</time>
      </trkpt>
      <trkpt lat="42.2531150" lon="1.6977800">
        <ele>1808.4</ele>
        <time>2015-08-14T08:55:10Z</time>
      </trkpt>
      <trkpt lat="42.2531440" lon="1.6977410">
        <ele>1809.9</ele>
        <time>2015-08-14T08:55:12Z</time>
      </trkpt>
      <trkpt lat="42.2531750" lon="1.6977290">
        <ele>1809.8</ele>
        <time>2015-08-14T08:55:15Z</time>
      </trkpt>
      <trkpt lat="42.2532010" lon="1.6977050">
        <ele>1810.4</ele>
        <time>2015-08-14T08:55:17Z</time>
      </trkpt>
      <trkpt lat="42.2532260" lon="1.6976860">
        <ele>1810.8</ele>
        <time>2015-08-14T08:55:19Z</time>
      </trkpt>
      <trkpt lat="42.2532720" lon="1.6976420">
        <ele>1812.0</ele>
        <time>2015-08-14T08:55:21Z</time>
      </trkpt>
      <trkpt lat="42.2533140" lon="1.6976040">
        <ele>1812.9</ele>
        <time>2015-08-14T08:55:23Z</time>
      </trkpt>
      <trkpt lat="42.2533500" lon="1.6975690">
        <ele>1813.7</ele>
        <time>2015-08-14T08:55:25Z</time>
      </trkpt>
      <trkpt lat="42.2533970" lon="1.6975250">
        <ele>1814.6</ele>
        <time>2015-08-14T08:55:27Z</time>
      </trkpt>
      <trkpt lat="42.2533720" lon="1.6974890">
        <ele>1817.2</ele>
        <time>2015-08-14T08:55:28Z</time>
      </trkpt>
      <trkpt lat="42.2533500" lon="1.6974440">
        <ele>1820.2</ele>
        <time>2015-08-14T08:55:30Z</time>
      </trkpt>
      <trkpt lat="42.2532940" lon="1.6974200">
        <ele>1823.1</ele>
        <time>2015-08-14T08:55:32Z</time>
      </trkpt>
      <trkpt lat="42.2533380" lon="1.6973900">
        <ele>1823.3</ele>
        <time>2015-08-14T08:55:33Z</time>
      </trkpt>
      <trkpt lat="42.2533890" lon="1.6974050">
        <ele>1821.0</ele>
        <time>2015-08-14T08:55:34Z</time>
      </trkpt>
      <trkpt lat="42.2533990" lon="1.6973550">
        <ele>1823.2</ele>
        <time>2015-08-14T08:55:36Z</time>
      </trkpt>
      <trkpt lat="42.2534260" lon="1.6973410">
        <ele>1823.0</ele>
        <time>2015-08-14T08:55:38Z</time>
      </trkpt>
      <trkpt lat="42.2534660" lon="1.6973160">
        <ele>1823.0</ele>
        <time>2015-08-14T08:55:40Z</time>
      </trkpt>
      <trkpt lat="42.2534530" lon="1.6972710">
        <ele>1825.7</ele>
        <time>2015-08-14T08:55:42Z</time>
      </trkpt>
      <trkpt lat="42.2534490" lon="1.6972190">
        <ele>1828.4</ele>
        <time>2015-08-14T08:55:44Z</time>
      </trkpt>
      <trkpt lat="42.2534530" lon="1.6971830">
        <ele>1830.1</ele>
        <time>2015-08-14T08:55:46Z</time>
      </trkpt>
      <trkpt lat="42.2534680" lon="1.6971400">
        <ele>1831.7</ele>
        <time>2015-08-14T08:55:48Z</time>
      </trkpt>
      <trkpt lat="42.2534860" lon="1.6971080">
        <ele>1832.6</ele>
        <time>2015-08-14T08:55:49Z</time>
      </trkpt>
      <trkpt lat="42.2535110" lon="1.6970220">
        <ele>1834.4</ele>
        <time>2015-08-14T08:55:51Z</time>
      </trkpt>
      <trkpt lat="42.2535600" lon="1.6969900">
        <ele>1833.3</ele>
        <time>2015-08-14T08:55:53Z</time>
      </trkpt>
      <trkpt lat="42.2535990" lon="1.6969640">
        <ele>1832.4</ele>
        <time>2015-08-14T08:55:54Z</time>
      </trkpt>
      <trkpt lat="42.2536400" lon="1.6969360">
        <ele>1831.4</ele>
        <time>2015-08-14T08:55:55Z</time>
      </trkpt>
      <trkpt lat="42.2537250" lon="1.6968840">
        <ele>1829.1</ele>
        <time>2015-08-14T08:55:57Z</time>
      </trkpt>
      <trkpt lat="42.2537610" lon="1.6968540">
        <ele>1827.9</ele>
        <time>2015-08-14T08:55:58Z</time>
      </trkpt>
      <trkpt lat="42.2538110" lon="1.6968320">
        <ele>1825.0</ele>
        <time>2015-08-14T08:55:59Z</time>
      </trkpt>
      <trkpt lat="42.2538430" lon="1.6967910">
        <ele>1823.6</ele>
        <time>2015-08-14T08:56:00Z</time>
      </trkpt>
      <trkpt lat="42.2538760" lon="1.6967720">
        <ele>1821.7</ele>
        <time>2015-08-14T08:56:01Z</time>
      </trkpt>
      <trkpt lat="42.2539110" lon="1.6967510">
        <ele>1819.7</ele>
        <time>2015-08-14T08:56:02Z</time>
      </trkpt>
      <trkpt lat="42.2539420" lon="1.6967300">
        <ele>1817.9</ele>
        <time>2015-08-14T08:56:03Z</time>
      </trkpt>
      <trkpt lat="42.2539720" lon="1.6967010">
        <ele>1816.4</ele>
        <time>2015-08-14T08:56:04Z</time>
      </trkpt>
      <trkpt lat="42.2539930" lon="1.6966770">
        <ele>1815.4</ele>
        <time>2015-08-14T08:56:05Z</time>
      </trkpt>
      <trkpt lat="42.2539300" lon="1.6966110">
        <ele>1821.0</ele>
        <time>2015-08-14T08:56:06Z</time>
      </trkpt>
      <trkpt lat="42.2539520" lon="1.6965550">
        <ele>1820.5</ele>
        <time>2015-08-14T08:56:08Z</time>
      </trkpt>
      <trkpt lat="42.2539290" lon="1.6965010">
        <ele>1823.2</ele>
        <time>2015-08-14T08:56:09Z</time>
      </trkpt>
      <trkpt lat="42.2539550" lon="1.6964840">
        <ele>1821.6</ele>
        <time>2015-08-14T08:56:10Z</time>
      </trkpt>
      <trkpt lat="42.2539540" lon="1.6964420">
        <ele>1822.5</ele>
        <time>2015-08-14T08:56:11Z</time>
      </trkpt>
      <trkpt lat="42.2539390" lon="1.6963860">
        <ele>1824.6</ele>
        <time>2015-08-14T08:56:13Z</time>
      </trkpt>
      <trkpt lat="42.2539180" lon="1.6963490">
        <ele>1826.8</ele>
        <time>2015-08-14T08:56:14Z</time>
      </trkpt>
      <trkpt lat="42.2539340" lon="1.6963160">
        <ele>1826.3</ele>
        <time>2015-08-14T08:56:16Z</time>
      </trkpt>
      <trkpt lat="42.2539330" lon="1.6962540">
        <ele>1827.5</ele>
        <time>2015-08-14T08:56:18Z</time>
      </trkpt>
      <trkpt lat="42.2539380" lon="1.6961940">
        <ele>1827.8</ele>
        <time>2015-08-14T08:56:21Z</time>
      </trkpt>
      <trkpt lat="42.2539410" lon="1.6961460">
        <ele>1828.0</ele>
        <time>2015-08-14T08:56:23Z</time>
      </trkpt>
      <trkpt lat="42.2539470" lon="1.6960940">
        <ele>1828.1</ele>
        <time>2015-08-14T08:56:25Z</time>
      </trkpt>
      <trkpt lat="42.2539490" lon="1.6960520">
        <ele>1828.4</ele>
        <time>2015-08-14T08:56:26Z</time>
      </trkpt>
      <trkpt lat="42.2539430" lon="1.6960050">
        <ele>1829.3</ele>
        <time>2015-08-14T08:56:27Z</time>
      </trkpt>
      <trkpt lat="42.2539340" lon="1.6959400">
        <ele>1830.5</ele>
        <time>2015-08-14T08:56:29Z</time>
      </trkpt>
      <trkpt lat="42.2539450" lon="1.6959010">
        <ele>1830.1</ele>
        <time>2015-08-14T08:56:30Z</time>
      </trkpt>
      <trkpt lat="42.2539580" lon="1.6958320">
        <ele>1829.9</ele>
        <time>2015-08-14T08:56:32Z</time>
      </trkpt>
      <trkpt lat="42.2539400" lon="1.6957650">
        <ele>1831.8</ele>
        <time>2015-08-14T08:56:34Z</time>
      </trkpt>
      <trkpt lat="42.2539370" lon="1.6956950">
        <ele>1832.7</ele>
        <time>2015-08-14T08:56:36Z</time>
      </trkpt>
      <trkpt lat="42.2539240" lon="1.6956620">
        <ele>1833.9</ele>
        <time>2015-08-14T08:56:37Z</time>
      </trkpt>
      <trkpt lat="42.2539050" lon="1.6956150">
        <ele>1835.7</ele>
        <time>2015-08-14T08:56:38Z</time>
      </trkpt>
      <trkpt lat="42.2538910" lon="1.6955720">
        <ele>1837.1</ele>
        <time>2015-08-14T08:56:39Z</time>
      </trkpt>
      <trkpt lat="42.2538840" lon="1.6955240">
        <ele>1838.0</ele>
        <time>2015-08-14T08:56:40Z</time>
      </trkpt>
      <trkpt lat="42.2538740" lon="1.6954780">
        <ele>1839.1</ele>
        <time>2015-08-14T08:56:41Z</time>
      </trkpt>
      <trkpt lat="42.2538640" lon="1.6954360">
        <ele>1840.2</ele>
        <time>2015-08-14T08:56:42Z</time>
      </trkpt>
      <trkpt lat="42.2538560" lon="1.6953910">
        <ele>1841.8</ele>
        <time>2015-08-14T08:56:43Z</time>
      </trkpt>
      <trkpt lat="42.2538490" lon="1.6953320">
        <ele>1844.2</ele>
        <time>2015-08-14T08:56:44Z</time>
      </trkpt>
      <trkpt lat="42.2538390" lon="1.6952880">
        <ele>1846.4</ele>
        <time>2015-08-14T08:56:45Z</time>
      </trkpt>
      <trkpt lat="42.2538320" lon="1.6952510">
        <ele>1848.1</ele>
        <time>2015-08-14T08:56:46Z</time>
      </trkpt>
      <trkpt lat="42.2538260" lon="1.6951910">
        <ele>1850.5</ele>
        <time>2015-08-14T08:56:47Z</time>
      </trkpt>
      <trkpt lat="42.2538100" lon="1.6951330">
        <ele>1853.4</ele>
        <time>2015-08-14T08:56:48Z</time>
      </trkpt>
      <trkpt lat="42.2538030" lon="1.6950870">
        <ele>1855.4</ele>
        <time>2015-08-14T08:56:49Z</time>
      </trkpt>
      <trkpt lat="42.2537920" lon="1.6950420">
        <ele>1857.6</ele>
        <time>2015-08-14T08:56:50Z</time>
      </trkpt>
      <trkpt lat="42.2537900" lon="1.6950020">
        <ele>1859.0</ele>
        <time>2015-08-14T08:56:51Z</time>
      </trkpt>
      <trkpt lat="42.2538290" lon="1.6949780">
        <ele>1857.5</ele>
        <time>2015-08-14T08:56:52Z</time>
      </trkpt>
      <trkpt lat="42.2538270" lon="1.6949270">
        <ele>1859.3</ele>
        <time>2015-08-14T08:56:53Z</time>
      </trkpt>
      <trkpt lat="42.2538550" lon="1.6948890">
        <ele>1858.9</ele>
        <time>2015-08-14T08:56:54Z</time>
      </trkpt>
      <trkpt lat="42.2538810" lon="1.6948290">
        <ele>1859.5</ele>
        <time>2015-08-14T08:56:56Z</time>
      </trkpt>
      <trkpt lat="42.2539030" lon="1.6947680">
        <ele>1860.3</ele>
        <time>2015-08-14T08:56:58Z</time>
      </trkpt>
      <trkpt lat="42.2539520" lon="1.6947940">
        <ele>1856.6</ele>
        <time>2015-08-14T08:56:59Z</time>
      </trkpt>
      <trkpt lat="42.2540070" lon="1.6947610">
        <ele>1854.6</ele>
        <time>2015-08-14T08:57:01Z</time>
      </trkpt>
      <trkpt lat="42.2540500" lon="1.6947320">
        <ele>1853.3</ele>
        <time>2015-08-14T08:57:03Z</time>
      </trkpt>
      <trkpt lat="42.2540900" lon="1.6947060">
        <ele>1852.0</ele>
        <time>2015-08-14T08:57:05Z</time>
      </trkpt>
      <trkpt lat="42.2541140" lon="1.6946840">
        <ele>1851.5</ele>
        <time>2015-08-14T08:57:07Z</time>
      </trkpt>
      <trkpt lat="42.2541440" lon="1.6946560">
        <ele>1850.9</ele>
        <time>2015-08-14T08:57:09Z</time>
      </trkpt>
      <trkpt lat="42.2541970" lon="1.6946320">
        <ele>1848.9</ele>
        <time>2015-08-14T08:57:11Z</time>
      </trkpt>
      <trkpt lat="42.2542310" lon="1.6946060">
        <ele>1848.1</ele>
        <time>2015-08-14T08:57:13Z</time>
      </trkpt>
      <trkpt lat="42.2542650" lon="1.6945830">
        <ele>1847.2</ele>
        <time>2015-08-14T08:57:14Z</time>
      </trkpt>
      <trkpt lat="42.2543020" lon="1.6945690">
        <ele>1845.8</ele>
        <time>2015-08-14T08:57:16Z</time>
      </trkpt>
      <trkpt lat="42.2543400" lon="1.6945430">
        <ele>1844.9</ele>
        <time>2015-08-14T08:57:18Z</time>
      </trkpt>
      <trkpt lat="42.2543680" lon="1.6945260">
        <ele>1844.1</ele>
        <time>2015-08-14T08:57:19Z</time>
      </trkpt>
      <trkpt lat="42.2544030" lon="1.6945110">
        <ele>1842.8</ele>
        <time>2015-08-14T08:57:20Z</time>
      </trkpt>
      <trkpt lat="42.2544370" lon="1.6944850">
        <ele>1842.1</ele>
        <time>2015-08-14T08:57:21Z</time>
      </trkpt>
      <trkpt lat="42.2544820" lon="1.6945260">
        <ele>1837.9</ele>
        <time>2015-08-14T08:57:23Z</time>
      </trkpt>
      <trkpt lat="42.2545110" lon="1.6944920">
        <ele>1837.8</ele>
        <time>2015-08-14T08:57:25Z</time>
      </trkpt>
      <trkpt lat="42.2545390" lon="1.6944610">
        <ele>1837.6</ele>
        <time>2015-08-14T08:57:27Z</time>
      </trkpt>
      <trkpt lat="42.2545500" lon="1.6943980">
        <ele>1839.6</ele>
        <time>2015-08-14T08:57:29Z</time>
      </trkpt>
      <trkpt lat="42.2545790" lon="1.6943720">
        <ele>1839.1</ele>
        <time>2015-08-14T08:57:30Z</time>
      </trkpt>
      <trkpt lat="42.2545830" lon="1.6943270">
        <ele>1840.8</ele>
        <time>2015-08-14T08:57:31Z</time>
      </trkpt>
      <trkpt lat="42.2546220" lon="1.6942830">
        <ele>1840.2</ele>
        <time>2015-08-14T08:57:33Z</time>
      </trkpt>
      <trkpt lat="42.2546450" lon="1.6942300">
        <ele>1841.0</ele>
        <time>2015-08-14T08:57:35Z</time>
      </trkpt>
      <trkpt lat="42.2546680" lon="1.6941870">
        <ele>1841.4</ele>
        <time>2015-08-14T08:57:37Z</time>
      </trkpt>
      <trkpt lat="42.2546850" lon="1.6941460">
        <ele>1842.0</ele>
        <time>2015-08-14T08:57:39Z</time>
      </trkpt>
      <trkpt lat="42.2547210" lon="1.6940880">
        <ele>1842.1</ele>
        <time>2015-08-14T08:57:41Z</time>
      </trkpt>
      <trkpt lat="42.2547590" lon="1.6940740">
        <ele>1840.3</ele>
        <time>2015-08-14T08:57:43Z</time>
      </trkpt>
      <trkpt lat="42.2547870" lon="1.6940400">
        <ele>1839.9</ele>
        <time>2015-08-14T08:57:45Z</time>
      </trkpt>
      <trkpt lat="42.2548120" lon="1.6939890">
        <ele>1840.3</ele>
        <time>2015-08-14T08:57:47Z</time>
      </trkpt>
      <trkpt lat="42.2548250" lon="1.6939410">
        <ele>1841.4</ele>
        <time>2015-08-14T08:57:49Z</time>
      </trkpt>
      <trkpt lat="42.2548330" lon="1.6939030">
        <ele>1842.4</ele>
        <time>2015-08-14T08:57:51Z</time>
      </trkpt>
      <trkpt lat="42.2548720" lon="1.6938640">
        <ele>1841.4</ele>
        <time>2015-08-14T08:57:52Z</time>
      </trkpt>
      <trkpt lat="42.2548870" lon="1.6937990">
        <ele>1843.0</ele>
        <time>2015-08-14T08:57:54Z</time>
      </trkpt>
      <trkpt lat="42.2548960" lon="1.6937580">
        <ele>1844.0</ele>
        <time>2015-08-14T08:57:56Z</time>
      </trkpt>
      <trkpt lat="42.2548970" lon="1.6936800">
        <ele>1846.7</ele>
        <time>2015-08-14T08:57:58Z</time>
      </trkpt>
      <trkpt lat="42.2549100" lon="1.6936450">
        <ele>1846.9</ele>
        <time>2015-08-14T08:57:59Z</time>
      </trkpt>
      <trkpt lat="42.2549380" lon="1.6936170">
        <ele>1845.9</ele>
        <time>2015-08-14T08:58:00Z</time>
      </trkpt>
      <trkpt lat="42.2549600" lon="1.6935660">
        <ele>1845.9</ele>
        <time>2015-08-14T08:58:02Z</time>
      </trkpt>
      <trkpt lat="42.2549970" lon="1.6935130">
        <ele>1844.8</ele>
        <time>2015-08-14T08:58:04Z</time>
      </trkpt>
      <trkpt lat="42.2550520" lon="1.6934760">
        <ele>1841.8</ele>
        <time>2015-08-14T08:58:06Z</time>
      </trkpt>
      <trkpt lat="42.2550850" lon="1.6934410">
        <ele>1840.2</ele>
        <time>2015-08-14T08:58:08Z</time>
      </trkpt>
      <trkpt lat="42.2551260" lon="1.6933950">
        <ele>1838.2</ele>
        <time>2015-08-14T08:58:10Z</time>
      </trkpt>
      <trkpt lat="42.2551120" lon="1.6933600">
        <ele>1840.2</ele>
        <time>2015-08-14T08:58:11Z</time>
      </trkpt>
      <trkpt lat="42.2550880" lon="1.6933240">
        <ele>1843.1</ele>
        <time>2015-08-14T08:58:12Z</time>
      </trkpt>
      <trkpt lat="42.2551150" lon="1.6932930">
        <ele>1841.7</ele>
        <time>2015-08-14T08:58:14Z</time>
      </trkpt>
      <trkpt lat="42.2551470" lon="1.6932750">
        <ele>1839.4</ele>
        <time>2015-08-14T08:58:16Z</time>
      </trkpt>
      <trkpt lat="42.2551590" lon="1.6932280">
        <ele>1839.6</ele>
        <time>2015-08-14T08:58:18Z</time>
      </trkpt>
      <trkpt lat="42.2551590" lon="1.6931800">
        <ele>1840.7</ele>
        <time>2015-08-14T08:58:21Z</time>
      </trkpt>
      <trkpt lat="42.2551750" lon="1.6931250">
        <ele>1840.6</ele>
        <time>2015-08-14T08:58:22Z</time>
      </trkpt>
      <trkpt lat="42.2552010" lon="1.6930790">
        <ele>1839.3</ele>
        <time>2015-08-14T08:58:24Z</time>
      </trkpt>
      <trkpt lat="42.2552100" lon="1.6930430">
        <ele>1839.3</ele>
        <time>2015-08-14T08:58:25Z</time>
      </trkpt>
      <trkpt lat="42.2552280" lon="1.6929830">
        <ele>1838.9</ele>
        <time>2015-08-14T08:58:27Z</time>
      </trkpt>
      <trkpt lat="42.2551990" lon="1.6929480">
        <ele>1842.5</ele>
        <time>2015-08-14T08:58:28Z</time>
      </trkpt>
      <trkpt lat="42.2552000" lon="1.6928940">
        <ele>1843.2</ele>
        <time>2015-08-14T08:58:29Z</time>
      </trkpt>
      <trkpt lat="42.2552160" lon="1.6928460">
        <ele>1842.0</ele>
        <time>2015-08-14T08:58:31Z</time>
      </trkpt>
      <trkpt lat="42.2552710" lon="1.6928250">
        <ele>1836.8</ele>
        <time>2015-08-14T08:58:32Z</time>
      </trkpt>
      <trkpt lat="42.2552980" lon="1.6928020">
        <ele>1834.4</ele>
        <time>2015-08-14T08:58:33Z</time>
      </trkpt>
      <trkpt lat="42.2553200" lon="1.6927800">
        <ele>1832.4</ele>
        <time>2015-08-14T08:58:34Z</time>
      </trkpt>
      <trkpt lat="42.2552920" lon="1.6927340">
        <ele>1835.4</ele>
        <time>2015-08-14T08:58:35Z</time>
      </trkpt>
      <trkpt lat="42.2553090" lon="1.6927010">
        <ele>1834.0</ele>
        <time>2015-08-14T08:58:36Z</time>
      </trkpt>
      <trkpt lat="42.2553170" lon="1.6926630">
        <ele>1833.5</ele>
        <time>2015-08-14T08:58:38Z</time>
      </trkpt>
      <trkpt lat="42.2552930" lon="1.6926150">
        <ele>1836.2</ele>
        <time>2015-08-14T08:58:40Z</time>
      </trkpt>
      <trkpt lat="42.2552780" lon="1.6925740">
        <ele>1837.9</ele>
        <time>2015-08-14T08:58:42Z</time>
      </trkpt>
      <trkpt lat="42.2552550" lon="1.6925200">
        <ele>1840.6</ele>
        <time>2015-08-14T08:58:44Z</time>
      </trkpt>
      <trkpt lat="42.2552300" lon="1.6924690">
        <ele>1843.4</ele>
        <time>2015-08-14T08:58:46Z</time>
      </trkpt>
      <trkpt lat="42.2552200" lon="1.6924260">
        <ele>1844.6</ele>
        <time>2015-08-14T08:58:48Z</time>
      </trkpt>
      <trkpt lat="42.2552100" lon="1.6923790">
        <ele>1846.0</ele>
        <time>2015-08-14T08:58:49Z</time>
      </trkpt>
      <trkpt lat="42.2552130" lon="1.6923220">
        <ele>1846.1</ele>
        <time>2015-08-14T08:58:51Z</time>
      </trkpt>
      <trkpt lat="42.2552040" lon="1.6922680">
        <ele>1847.3</ele>
        <time>2015-08-14T08:58:53Z</time>
      </trkpt>
      <trkpt lat="42.2552170" lon="1.6922370">
        <ele>1846.3</ele>
        <time>2015-08-14T08:58:54Z</time>
      </trkpt>
      <trkpt lat="42.2552080" lon="1.6921770">
        <ele>1847.6</ele>
        <time>2015-08-14T08:58:57Z</time>
      </trkpt>
      <trkpt lat="42.2552200" lon="1.6921250">
        <ele>1846.8</ele>
        <time>2015-08-14T08:58:59Z</time>
      </trkpt>
      <trkpt lat="42.2552230" lon="1.6920760">
        <ele>1847.0</ele>
        <time>2015-08-14T08:59:01Z</time>
      </trkpt>
      <trkpt lat="42.2552120" lon="1.6920420">
        <ele>1849.0</ele>
        <time>2015-08-14T08:59:02Z</time>
      </trkpt>
      <trkpt lat="42.2552240" lon="1.6919990">
        <ele>1849.1</ele>
        <time>2015-08-14T08:59:04Z</time>
      </trkpt>
      <trkpt lat="42.2552170" lon="1.6919480">
        <ele>1851.2</ele>
        <time>2015-08-14T08:59:06Z</time>
      </trkpt>
      <trkpt lat="42.2552080" lon="1.6918860">
        <ele>1853.7</ele>
        <time>2015-08-14T08:59:08Z</time>
      </trkpt>
      <trkpt lat="42.2551980" lon="1.6918280">
        <ele>1856.2</ele>
        <time>2015-08-14T08:59:10Z</time>
      </trkpt>
      <trkpt lat="42.2551890" lon="1.6917590">
        <ele>1858.9</ele>
        <time>2015-08-14T08:59:12Z</time>
      </trkpt>
      <trkpt lat="42.2551910" lon="1.6916930">
        <ele>1860.5</ele>
        <time>2015-08-14T08:59:14Z</time>
      </trkpt>
      <trkpt lat="42.2551790" lon="1.6916470">
        <ele>1862.8</ele>
        <time>2015-08-14T08:59:16Z</time>
      </trkpt>
      <trkpt lat="42.2551790" lon="1.6915900">
        <ele>1864.3</ele>
        <time>2015-08-14T08:59:18Z</time>
      </trkpt>
      <trkpt lat="42.2552020" lon="1.6915390">
        <ele>1863.8</ele>
        <time>2015-08-14T08:59:20Z</time>
      </trkpt>
      <trkpt lat="42.2552260" lon="1.6914880">
        <ele>1863.3</ele>
        <time>2015-08-14T08:59:22Z</time>
      </trkpt>
      <trkpt lat="42.2552460" lon="1.6914450">
        <ele>1862.9</ele>
        <time>2015-08-14T08:59:24Z</time>
      </trkpt>
      <trkpt lat="42.2552720" lon="1.6914050">
        <ele>1862.0</ele>
        <time>2015-08-14T08:59:26Z</time>
      </trkpt>
      <trkpt lat="42.2553000" lon="1.6913660">
        <ele>1861.0</ele>
        <time>2015-08-14T08:59:28Z</time>
      </trkpt>
      <trkpt lat="42.2553300" lon="1.6913230">
        <ele>1860.1</ele>
        <time>2015-08-14T08:59:30Z</time>
      </trkpt>
      <trkpt lat="42.2553830" lon="1.6912980">
        <ele>1856.9</ele>
        <time>2015-08-14T08:59:32Z</time>
      </trkpt>
      <trkpt lat="42.2554120" lon="1.6912700">
        <ele>1855.7</ele>
        <time>2015-08-14T08:59:34Z</time>
      </trkpt>
      <trkpt lat="42.2554410" lon="1.6912470">
        <ele>1854.8</ele>
        <time>2015-08-14T08:59:36Z</time>
      </trkpt>
      <trkpt lat="42.2554570" lon="1.6912120">
        <ele>1855.2</ele>
        <time>2015-08-14T08:59:37Z</time>
      </trkpt>
      <trkpt lat="42.2554750" lon="1.6911690">
        <ele>1855.7</ele>
        <time>2015-08-14T08:59:39Z</time>
      </trkpt>
      <trkpt lat="42.2554970" lon="1.6911310">
        <ele>1855.8</ele>
        <time>2015-08-14T08:59:40Z</time>
      </trkpt>
      <trkpt lat="42.2555310" lon="1.6910970">
        <ele>1855.3</ele>
        <time>2015-08-14T08:59:42Z</time>
      </trkpt>
      <trkpt lat="42.2555670" lon="1.6910570">
        <ele>1854.8</ele>
        <time>2015-08-14T08:59:44Z</time>
      </trkpt>
      <trkpt lat="42.2555990" lon="1.6910700">
        <ele>1852.8</ele>
        <time>2015-08-14T08:59:45Z</time>
      </trkpt>
      <trkpt lat="42.2556170" lon="1.6910340">
        <ele>1853.2</ele>
        <time>2015-08-14T08:59:46Z</time>
      </trkpt>
      <trkpt lat="42.2556380" lon="1.6910040">
        <ele>1853.2</ele>
        <time>2015-08-14T08:59:47Z</time>
      </trkpt>
      <trkpt lat="42.2556750" lon="1.6909690">
        <ele>1852.6</ele>
        <time>2015-08-14T08:59:49Z</time>
      </trkpt>
      <trkpt lat="42.2557070" lon="1.6909580">
        <ele>1851.5</ele>
        <time>2015-08-14T08:59:50Z</time>
      </trkpt>
      <trkpt lat="42.2557240" lon="1.6909000">
        <ele>1852.7</ele>
        <time>2015-08-14T08:59:52Z</time>
      </trkpt>
      <trkpt lat="42.2557550" lon="1.6908610">
        <ele>1852.7</ele>
        <time>2015-08-14T08:59:54Z</time>
      </trkpt>
      <trkpt lat="42.2557870" lon="1.6908350">
        <ele>1852.1</ele>
        <time>2015-08-14T08:59:55Z</time>
      </trkpt>
      <trkpt lat="42.2558190" lon="1.6908210">
        <ele>1851.1</ele>
        <time>2015-08-14T08:59:56Z</time>
      </trkpt>
      <trkpt lat="42.2558490" lon="1.6908000">
        <ele>1850.5</ele>
        <time>2015-08-14T08:59:57Z</time>
      </trkpt>
      <trkpt lat="42.2558690" lon="1.6907730">
        <ele>1850.6</ele>
        <time>2015-08-14T08:59:58Z</time>
      </trkpt>
      <trkpt lat="42.2559000" lon="1.6907470">
        <ele>1850.2</ele>
        <time>2015-08-14T08:59:59Z</time>
      </trkpt>
      <trkpt lat="42.2559140" lon="1.6906750">
        <ele>1852.3</ele>
        <time>2015-08-14T09:00:01Z</time>
      </trkpt>
      <trkpt lat="42.2559250" lon="1.6906420">
        <ele>1853.0</ele>
        <time>2015-08-14T09:00:02Z</time>
      </trkpt>
      <trkpt lat="42.2559590" lon="1.6906090">
        <ele>1852.8</ele>
        <time>2015-08-14T09:00:04Z</time>
      </trkpt>
      <trkpt lat="42.2559900" lon="1.6905440">
        <ele>1854.0</ele>
        <time>2015-08-14T09:00:06Z</time>
      </trkpt>
      <trkpt lat="42.2560230" lon="1.6904910">
        <ele>1854.6</ele>
        <time>2015-08-14T09:00:08Z</time>
      </trkpt>
      <trkpt lat="42.2560370" lon="1.6904290">
        <ele>1856.5</ele>
        <time>2015-08-14T09:00:10Z</time>
      </trkpt>
      <trkpt lat="42.2560710" lon="1.6903690">
        <ele>1857.3</ele>
        <time>2015-08-14T09:00:12Z</time>
      </trkpt>
      <trkpt lat="42.2561200" lon="1.6903430">
        <ele>1856.2</ele>
        <time>2015-08-14T09:00:13Z</time>
      </trkpt>
      <trkpt lat="42.2561490" lon="1.6903290">
        <ele>1855.5</ele>
        <time>2015-08-14T09:00:14Z</time>
      </trkpt>
      <trkpt lat="42.2561930" lon="1.6903180">
        <ele>1854.1</ele>
        <time>2015-08-14T09:00:16Z</time>
      </trkpt>
      <trkpt lat="42.2562580" lon="1.6902480">
        <ele>1853.9</ele>
        <time>2015-08-14T09:00:17Z</time>
      </trkpt>
      <trkpt lat="42.2563020" lon="1.6902160">
        <ele>1853.1</ele>
        <time>2015-08-14T09:00:18Z</time>
      </trkpt>
      <trkpt lat="42.2563290" lon="1.6901960">
        <ele>1852.6</ele>
        <time>2015-08-14T09:00:19Z</time>
      </trkpt>
      <trkpt lat="42.2564030" lon="1.6901740">
        <ele>1850.1</ele>
        <time>2015-08-14T09:00:20Z</time>
      </trkpt>
      <trkpt lat="42.2564560" lon="1.6901250">
        <ele>1849.5</ele>
        <time>2015-08-14T09:00:21Z</time>
      </trkpt>
      <trkpt lat="42.2564960" lon="1.6901040">
        <ele>1848.4</ele>
        <time>2015-08-14T09:00:22Z</time>
      </trkpt>
      <trkpt lat="42.2565350" lon="1.6900670">
        <ele>1848.0</ele>
        <time>2015-08-14T09:00:23Z</time>
      </trkpt>
      <trkpt lat="42.2565750" lon="1.6900260">
        <ele>1847.7</ele>
        <time>2015-08-14T09:00:25Z</time>
      </trkpt>
      <trkpt lat="42.2566000" lon="1.6900000">
        <ele>1847.5</ele>
        <time>2015-08-14T09:00:26Z</time>
      </trkpt>
      <trkpt lat="42.2566220" lon="1.6899660">
        <ele>1847.8</ele>
        <time>2015-08-14T09:00:27Z</time>
      </trkpt>
      <trkpt lat="42.2566600" lon="1.6899320">
        <ele>1847.3</ele>
        <time>2015-08-14T09:00:29Z</time>
      </trkpt>
      <trkpt lat="42.2566550" lon="1.6898680">
        <ele>1849.9</ele>
        <time>2015-08-14T09:00:30Z</time>
      </trkpt>
      <trkpt lat="42.2566640" lon="1.6898330">
        <ele>1850.8</ele>
        <time>2015-08-14T09:00:31Z</time>
      </trkpt>
      <trkpt lat="42.2566840" lon="1.6897780">
        <ele>1852.0</ele>
        <time>2015-08-14T09:00:33Z</time>
      </trkpt>
      <trkpt lat="42.2567220" lon="1.6897480">
        <ele>1851.4</ele>
        <time>2015-08-14T09:00:34Z</time>
      </trkpt>
      <trkpt lat="42.2567420" lon="1.6897190">
        <ele>1851.5</ele>
        <time>2015-08-14T09:00:35Z</time>
      </trkpt>
      <trkpt lat="42.2567660" lon="1.6896470">
        <ele>1853.1</ele>
        <time>2015-08-14T09:00:37Z</time>
      </trkpt>
      <trkpt lat="42.2567840" lon="1.6896050">
        <ele>1853.8</ele>
        <time>2015-08-14T09:00:38Z</time>
      </trkpt>
      <trkpt lat="42.2568010" lon="1.6895550">
        <ele>1855.2</ele>
        <time>2015-08-14T09:00:39Z</time>
      </trkpt>
      <trkpt lat="42.2568380" lon="1.6894850">
        <ele>1856.7</ele>
        <time>2015-08-14T09:00:41Z</time>
      </trkpt>
      <trkpt lat="42.2568600" lon="1.6894350">
        <ele>1858.1</ele>
        <time>2015-08-14T09:00:42Z</time>
      </trkpt>
      <trkpt lat="42.2568740" lon="1.6893960">
        <ele>1859.3</ele>
        <time>2015-08-14T09:00:43Z</time>
      </trkpt>
      <trkpt lat="42.2568990" lon="1.6893640">
        <ele>1859.6</ele>
        <time>2015-08-14T09:00:44Z</time>
      </trkpt>
      <trkpt lat="42.2569430" lon="1.6893180">
        <ele>1859.9</ele>
        <time>2015-08-14T09:00:46Z</time>
      </trkpt>
      <trkpt lat="42.2569700" lon="1.6892940">
        <ele>1859.8</ele>
        <time>2015-08-14T09:00:47Z</time>
      </trkpt>
      <trkpt lat="42.2569980" lon="1.6892600">
        <ele>1860.2</ele>
        <time>2015-08-14T09:00:48Z</time>
      </trkpt>
      <trkpt lat="42.2570250" lon="1.6892360">
        <ele>1860.2</ele>
        <time>2015-08-14T09:00:49Z</time>
      </trkpt>
      <trkpt lat="42.2570490" lon="1.6892130">
        <ele>1860.3</ele>
        <time>2015-08-14T09:00:50Z</time>
      </trkpt>
      <trkpt lat="42.2570830" lon="1.6891970">
        <ele>1859.6</ele>
        <time>2015-08-14T09:00:51Z</time>
      </trkpt>
      <trkpt lat="42.2571060" lon="1.6891590">
        <ele>1860.0</ele>
        <time>2015-08-14T09:00:52Z</time>
      </trkpt>
      <trkpt lat="42.2571300" lon="1.6891420">
        <ele>1859.4</ele>
        <time>2015-08-14T09:00:53Z</time>
      </trkpt>
      <trkpt lat="42.2571540" lon="1.6891140">
        <ele>1859.3</ele>
        <time>2015-08-14T09:00:54Z</time>
      </trkpt>
      <trkpt lat="42.2571920" lon="1.6890760">
        <ele>1858.7</ele>
        <time>2015-08-14T09:00:56Z</time>
      </trkpt>
      <trkpt lat="42.2572060" lon="1.6890280">
        <ele>1860.1</ele>
        <time>2015-08-14T09:00:58Z</time>
      </trkpt>
      <trkpt lat="42.2572290" lon="1.6889820">
        <ele>1860.7</ele>
        <time>2015-08-14T09:01:00Z</time>
      </trkpt>
      <trkpt lat="42.2572630" lon="1.6889270">
        <ele>1861.0</ele>
        <time>2015-08-14T09:01:02Z</time>
      </trkpt>
      <trkpt lat="42.2572850" lon="1.6888670">
        <ele>1862.3</ele>
        <time>2015-08-14T09:01:04Z</time>
      </trkpt>
      <trkpt lat="42.2572960" lon="1.6888280">
        <ele>1863.3</ele>
        <time>2015-08-14T09:01:05Z</time>
      </trkpt>
      <trkpt lat="42.2573280" lon="1.6887610">
        <ele>1864.1</ele>
        <time>2015-08-14T09:01:07Z</time>
      </trkpt>
      <trkpt lat="42.2573540" lon="1.6887310">
        <ele>1863.7</ele>
        <time>2015-08-14T09:01:08Z</time>
      </trkpt>
      <trkpt lat="42.2573750" lon="1.6886960">
        <ele>1863.9</ele>
        <time>2015-08-14T09:01:10Z</time>
      </trkpt>
      <trkpt lat="42.2574110" lon="1.6886550">
        <ele>1863.4</ele>
        <time>2015-08-14T09:01:12Z</time>
      </trkpt>
      <trkpt lat="42.2574520" lon="1.6886530">
        <ele>1860.7</ele>
        <time>2015-08-14T09:01:13Z</time>
      </trkpt>
      <trkpt lat="42.2575120" lon="1.6886180">
        <ele>1858.3</ele>
        <time>2015-08-14T09:01:15Z</time>
      </trkpt>
      <trkpt lat="42.2575140" lon="1.6885750">
        <ele>1860.1</ele>
        <time>2015-08-14T09:01:17Z</time>
      </trkpt>
      <trkpt lat="42.2575410" lon="1.6885590">
        <ele>1859.1</ele>
        <time>2015-08-14T09:01:18Z</time>
      </trkpt>
      <trkpt lat="42.2575710" lon="1.6885140">
        <ele>1859.2</ele>
        <time>2015-08-14T09:01:20Z</time>
      </trkpt>
      <trkpt lat="42.2575890" lon="1.6884850">
        <ele>1859.3</ele>
        <time>2015-08-14T09:01:21Z</time>
      </trkpt>
      <trkpt lat="42.2576040" lon="1.6884270">
        <ele>1861.0</ele>
        <time>2015-08-14T09:01:23Z</time>
      </trkpt>
      <trkpt lat="42.2576330" lon="1.6883900">
        <ele>1860.8</ele>
        <time>2015-08-14T09:01:25Z</time>
      </trkpt>
      <trkpt lat="42.2576660" lon="1.6883410">
        <ele>1860.8</ele>
        <time>2015-08-14T09:01:27Z</time>
      </trkpt>
      <trkpt lat="42.2576850" lon="1.6882890">
        <ele>1862.0</ele>
        <time>2015-08-14T09:01:29Z</time>
      </trkpt>
      <trkpt lat="42.2576960" lon="1.6882260">
        <ele>1864.2</ele>
        <time>2015-08-14T09:01:31Z</time>
      </trkpt>
      <trkpt lat="42.2577000" lon="1.6881670">
        <ele>1866.7</ele>
        <time>2015-08-14T09:01:33Z</time>
      </trkpt>
      <trkpt lat="42.2577120" lon="1.6881220">
        <ele>1868.0</ele>
        <time>2015-08-14T09:01:35Z</time>
      </trkpt>
      <trkpt lat="42.2577270" lon="1.6880800">
        <ele>1868.9</ele>
        <time>2015-08-14T09:01:37Z</time>
      </trkpt>
      <trkpt lat="42.2577080" lon="1.6880330">
        <ele>1872.4</ele>
        <time>2015-08-14T09:01:39Z</time>
      </trkpt>
      <trkpt lat="42.2576870" lon="1.6879720">
        <ele>1876.6</ele>
        <time>2015-08-14T09:01:41Z</time>
      </trkpt>
      <trkpt lat="42.2576810" lon="1.6879320">
        <ele>1878.8</ele>
        <time>2015-08-14T09:01:42Z</time>
      </trkpt>
      <trkpt lat="42.2576660" lon="1.6878950">
        <ele>1881.4</ele>
        <time>2015-08-14T09:01:43Z</time>
      </trkpt>
      <trkpt lat="42.2576500" lon="1.6878570">
        <ele>1884.1</ele>
        <time>2015-08-14T09:01:44Z</time>
      </trkpt>
      <trkpt lat="42.2576350" lon="1.6878210">
        <ele>1886.6</ele>
        <time>2015-08-14T09:01:45Z</time>
      </trkpt>
      <trkpt lat="42.2576240" lon="1.6877830">
        <ele>1888.9</ele>
        <time>2015-08-14T09:01:46Z</time>
      </trkpt>
      <trkpt lat="42.2576090" lon="1.6877480">
        <ele>1891.3</ele>
        <time>2015-08-14T09:01:47Z</time>
      </trkpt>
      <trkpt lat="42.2575990" lon="1.6877010">
        <ele>1893.9</ele>
        <time>2015-08-14T09:01:48Z</time>
      </trkpt>
      <trkpt lat="42.2575880" lon="1.6876480">
        <ele>1896.8</ele>
        <time>2015-08-14T09:01:49Z</time>
      </trkpt>
      <trkpt lat="42.2575850" lon="1.6875780">
        <ele>1899.9</ele>
        <time>2015-08-14T09:01:50Z</time>
      </trkpt>
      <trkpt lat="42.2575770" lon="1.6875250">
        <ele>1902.6</ele>
        <time>2015-08-14T09:01:51Z</time>
      </trkpt>
      <trkpt lat="42.2575680" lon="1.6874560">
        <ele>1906.0</ele>
        <time>2015-08-14T09:01:52Z</time>
      </trkpt>
      <trkpt lat="42.2575580" lon="1.6873910">
        <ele>1909.3</ele>
        <time>2015-08-14T09:01:53Z</time>
      </trkpt>
      <trkpt lat="42.2575580" lon="1.6873220">
        <ele>1912.1</ele>
        <time>2015-08-14T09:01:54Z</time>
      </trkpt>
      <trkpt lat="42.2575580" lon="1.6872590">
        <ele>1914.7</ele>
        <time>2015-08-14T09:01:55Z</time>
      </trkpt>
      <trkpt lat="42.2575730" lon="1.6871970">
        <ele>1916.3</ele>
        <time>2015-08-14T09:01:56Z</time>
      </trkpt>
      <trkpt lat="42.2577610" lon="1.6871890">
        <ele>1905.1</ele>
        <time>2015-08-14T09:01:58Z</time>
      </trkpt>
      <trkpt lat="42.2578100" lon="1.6871800">
        <ele>1902.4</ele>
        <time>2015-08-14T09:01:59Z</time>
      </trkpt>
      <trkpt lat="42.2578410" lon="1.6871580">
        <ele>1901.4</ele>
        <time>2015-08-14T09:02:00Z</time>
      </trkpt>
      <trkpt lat="42.2578690" lon="1.6871190">
        <ele>1901.4</ele>
        <time>2015-08-14T09:02:03Z</time>
      </trkpt>
      <trkpt lat="42.2579020" lon="1.6871290">
        <ele>1898.9</ele>
        <time>2015-08-14T09:02:06Z</time>
      </trkpt>
      <trkpt lat="42.2579360" lon="1.6871300">
        <ele>1896.5</ele>
        <time>2015-08-14T09:02:08Z</time>
      </trkpt>
      <trkpt lat="42.2579590" lon="1.6871100">
        <ele>1895.7</ele>
        <time>2015-08-14T09:02:09Z</time>
      </trkpt>
      <trkpt lat="42.2580070" lon="1.6870940">
        <ele>1892.7</ele>
        <time>2015-08-14T09:02:10Z</time>
      </trkpt>
      <trkpt lat="42.2580160" lon="1.6871340">
        <ele>1890.3</ele>
        <time>2015-08-14T09:02:13Z</time>
      </trkpt>
      <trkpt lat="42.2580910" lon="1.6871500">
        <ele>1884.0</ele>
        <time>2015-08-14T09:02:16Z</time>
      </trkpt>
      <trkpt lat="42.2580900" lon="1.6871960">
        <ele>1882.2</ele>
        <time>2015-08-14T09:02:17Z</time>
      </trkpt>
      <trkpt lat="42.2581270" lon="1.6871780">
        <ele>1880.2</ele>
        <time>2015-08-14T09:02:18Z</time>
      </trkpt>
      <trkpt lat="42.2581600" lon="1.6871710">
        <ele>1878.0</ele>
        <time>2015-08-14T09:02:22Z</time>
      </trkpt>
      <trkpt lat="42.2581990" lon="1.6871480">
        <ele>1876.0</ele>
        <time>2015-08-14T09:02:24Z</time>
      </trkpt>
      <trkpt lat="42.2582300" lon="1.6871030">
        <ele>1875.5</ele>
        <time>2015-08-14T09:02:26Z</time>
      </trkpt>
      <trkpt lat="42.2582680" lon="1.6870820">
        <ele>1873.5</ele>
        <time>2015-08-14T09:02:29Z</time>
      </trkpt>
      <trkpt lat="42.2583110" lon="1.6870700">
        <ele>1871.1</ele>
        <time>2015-08-14T09:02:31Z</time>
      </trkpt>
      <trkpt lat="42.2583530" lon="1.6870250">
        <ele>1870.8</ele>
        <time>2015-08-14T09:02:34Z</time>
      </trkpt>
      <trkpt lat="42.2583870" lon="1.6870160">
        <ele>1868.8</ele>
        <time>2015-08-14T09:02:35Z</time>
      </trkpt>
      <trkpt lat="42.2584260" lon="1.6869790">
        <ele>1868.3</ele>
        <time>2015-08-14T09:02:37Z</time>
      </trkpt>
      <trkpt lat="42.2584460" lon="1.6869410">
        <ele>1869.3</ele>
        <time>2015-08-14T09:02:39Z</time>
      </trkpt>
      <trkpt lat="42.2584690" lon="1.6868940">
        <ele>1870.7</ele>
        <time>2015-08-14T09:02:41Z</time>
      </trkpt>
      <trkpt lat="42.2584870" lon="1.6868660">
        <ele>1871.2</ele>
        <time>2015-08-14T09:02:43Z</time>
      </trkpt>
      <trkpt lat="42.2585030" lon="1.6868270">
        <ele>1872.5</ele>
        <time>2015-08-14T09:02:47Z</time>
      </trkpt>
      <trkpt lat="42.2585300" lon="1.6867830">
        <ele>1873.4</ele>
        <time>2015-08-14T09:02:49Z</time>
      </trkpt>
      <trkpt lat="42.2585030" lon="1.6867560">
        <ele>1877.2</ele>
        <time>2015-08-14T09:02:50Z</time>
      </trkpt>
      <trkpt lat="42.2585080" lon="1.6867030">
        <ele>1880.3</ele>
        <time>2015-08-14T09:02:52Z</time>
      </trkpt>
      <trkpt lat="42.2585390" lon="1.6866630">
        <ele>1880.7</ele>
        <time>2015-08-14T09:02:54Z</time>
      </trkpt>
      <trkpt lat="42.2585560" lon="1.6866200">
        <ele>1882.3</ele>
        <time>2015-08-14T09:02:56Z</time>
      </trkpt>
      <trkpt lat="42.2585570" lon="1.6865710">
        <ele>1885.5</ele>
        <time>2015-08-14T09:02:58Z</time>
      </trkpt>
      <trkpt lat="42.2585830" lon="1.6865440">
        <ele>1885.3</ele>
        <time>2015-08-14T09:03:00Z</time>
      </trkpt>
      <trkpt lat="42.2586040" lon="1.6864990">
        <ele>1886.8</ele>
        <time>2015-08-14T09:03:02Z</time>
      </trkpt>
      <trkpt lat="42.2586140" lon="1.6864540">
        <ele>1889.1</ele>
        <time>2015-08-14T09:03:04Z</time>
      </trkpt>
      <trkpt lat="42.2586510" lon="1.6864830">
        <ele>1884.5</ele>
        <time>2015-08-14T09:03:06Z</time>
      </trkpt>
      <trkpt lat="42.2586920" lon="1.6864870">
        <ele>1881.3</ele>
        <time>2015-08-14T09:03:09Z</time>
      </trkpt>
      <trkpt lat="42.2587660" lon="1.6865070">
        <ele>1875.1</ele>
        <time>2015-08-14T09:03:12Z</time>
      </trkpt>
      <trkpt lat="42.2587930" lon="1.6865230">
        <ele>1872.9</ele>
        <time>2015-08-14T09:03:13Z</time>
      </trkpt>
      <trkpt lat="42.2588250" lon="1.6865120">
        <ele>1872.2</ele>
        <time>2015-08-14T09:03:15Z</time>
      </trkpt>
      <trkpt lat="42.2588790" lon="1.6864940">
        <ele>1871.1</ele>
        <time>2015-08-14T09:03:17Z</time>
      </trkpt>
      <trkpt lat="42.2589130" lon="1.6865020">
        <ele>1869.1</ele>
        <time>2015-08-14T09:03:19Z</time>
      </trkpt>
      <trkpt lat="42.2589410" lon="1.6865380">
        <ele>1865.8</ele>
        <time>2015-08-14T09:03:21Z</time>
      </trkpt>
      <trkpt lat="42.2589690" lon="1.6865480">
        <ele>1864.0</ele>
        <time>2015-08-14T09:03:22Z</time>
      </trkpt>
      <trkpt lat="42.2590010" lon="1.6865460">
        <ele>1862.9</ele>
        <time>2015-08-14T09:03:23Z</time>
      </trkpt>
      <trkpt lat="42.2590380" lon="1.6865250">
        <ele>1862.5</ele>
        <time>2015-08-14T09:03:25Z</time>
      </trkpt>
      <trkpt lat="42.2590900" lon="1.6865100">
        <ele>1861.1</ele>
        <time>2015-08-14T09:03:27Z</time>
      </trkpt>
      <trkpt lat="42.2591310" lon="1.6864970">
        <ele>1860.1</ele>
        <time>2015-08-14T09:03:29Z</time>
      </trkpt>
      <trkpt lat="42.2591700" lon="1.6864690">
        <ele>1859.8</ele>
        <time>2015-08-14T09:03:31Z</time>
      </trkpt>
      <trkpt lat="42.2592010" lon="1.6864350">
        <ele>1860.1</ele>
        <time>2015-08-14T09:03:32Z</time>
      </trkpt>
      <trkpt lat="42.2592510" lon="1.6864000">
        <ele>1859.5</ele>
        <time>2015-08-14T09:03:33Z</time>
      </trkpt>
      <trkpt lat="42.2592900" lon="1.6863730">
        <ele>1858.9</ele>
        <time>2015-08-14T09:03:35Z</time>
      </trkpt>
      <trkpt lat="42.2593040" lon="1.6863210">
        <ele>1860.6</ele>
        <time>2015-08-14T09:03:37Z</time>
      </trkpt>
      <trkpt lat="42.2593200" lon="1.6862880">
        <ele>1861.2</ele>
        <time>2015-08-14T09:03:39Z</time>
      </trkpt>
      <trkpt lat="42.2593480" lon="1.6862190">
        <ele>1862.7</ele>
        <time>2015-08-14T09:03:41Z</time>
      </trkpt>
      <trkpt lat="42.2593660" lon="1.6861770">
        <ele>1863.4</ele>
        <time>2015-08-14T09:03:42Z</time>
      </trkpt>
      <trkpt lat="42.2593910" lon="1.6861180">
        <ele>1864.4</ele>
        <time>2015-08-14T09:03:44Z</time>
      </trkpt>
      <trkpt lat="42.2594140" lon="1.6860680">
        <ele>1865.2</ele>
        <time>2015-08-14T09:03:45Z</time>
      </trkpt>
      <trkpt lat="42.2594240" lon="1.6860310">
        <ele>1866.1</ele>
        <time>2015-08-14T09:03:46Z</time>
      </trkpt>
      <trkpt lat="42.2594090" lon="1.6859690">
        <ele>1869.4</ele>
        <time>2015-08-14T09:03:47Z</time>
      </trkpt>
      <trkpt lat="42.2594350" lon="1.6859850">
        <ele>1867.4</ele>
        <time>2015-08-14T09:03:48Z</time>
      </trkpt>
      <trkpt lat="42.2594510" lon="1.6859530">
        <ele>1867.8</ele>
        <time>2015-08-14T09:03:49Z</time>
      </trkpt>
      <trkpt lat="42.2594540" lon="1.6858970">
        <ele>1869.9</ele>
        <time>2015-08-14T09:03:51Z</time>
      </trkpt>
      <trkpt lat="42.2594970" lon="1.6858890">
        <ele>1867.9</ele>
        <time>2015-08-14T09:03:54Z</time>
      </trkpt>
      <trkpt lat="42.2594820" lon="1.6859200">
        <ele>1867.5</ele>
        <time>2015-08-14T09:03:56Z</time>
      </trkpt>
      <trkpt lat="42.2595130" lon="1.6859280">
        <ele>1865.5</ele>
        <time>2015-08-14T09:03:57Z</time>
      </trkpt>
      <trkpt lat="42.2595510" lon="1.6859220">
        <ele>1863.7</ele>
        <time>2015-08-14T09:03:59Z</time>
      </trkpt>
      <trkpt lat="42.2595960" lon="1.6859210">
        <ele>1861.7</ele>
        <time>2015-08-14T09:04:01Z</time>
      </trkpt>
      <trkpt lat="42.2596260" lon="1.6859190">
        <ele>1861.0</ele>
        <time>2015-08-14T09:04:03Z</time>
      </trkpt>
      <trkpt lat="42.2596560" lon="1.6858940">
        <ele>1861.2</ele>
        <time>2015-08-14T09:04:05Z</time>
      </trkpt>
      <trkpt lat="42.2596990" lon="1.6858820">
        <ele>1860.5</ele>
        <time>2015-08-14T09:04:07Z</time>
      </trkpt>
      <trkpt lat="42.2597360" lon="1.6858820">
        <ele>1859.5</ele>
        <time>2015-08-14T09:04:09Z</time>
      </trkpt>
      <trkpt lat="42.2597660" lon="1.6858620">
        <ele>1859.4</ele>
        <time>2015-08-14T09:04:11Z</time>
      </trkpt>
      <trkpt lat="42.2597880" lon="1.6858380">
        <ele>1859.7</ele>
        <time>2015-08-14T09:04:13Z</time>
      </trkpt>
      <trkpt lat="42.2598130" lon="1.6858170">
        <ele>1859.7</ele>
        <time>2015-08-14T09:04:15Z</time>
      </trkpt>
      <trkpt lat="42.2598290" lon="1.6857840">
        <ele>1860.4</ele>
        <time>2015-08-14T09:04:17Z</time>
      </trkpt>
      <trkpt lat="42.2598540" lon="1.6857400">
        <ele>1861.2</ele>
        <time>2015-08-14T09:04:19Z</time>
      </trkpt>
      <trkpt lat="42.2598790" lon="1.6857150">
        <ele>1861.3</ele>
        <time>2015-08-14T09:04:21Z</time>
      </trkpt>
      <trkpt lat="42.2599100" lon="1.6856700">
        <ele>1861.9</ele>
        <time>2015-08-14T09:04:23Z</time>
      </trkpt>
      <trkpt lat="42.2599260" lon="1.6856340">
        <ele>1862.6</ele>
        <time>2015-08-14T09:04:25Z</time>
      </trkpt>
      <trkpt lat="42.2599410" lon="1.6856020">
        <ele>1863.1</ele>
        <time>2015-08-14T09:04:27Z</time>
      </trkpt>
      <trkpt lat="42.2599660" lon="1.6855790">
        <ele>1863.0</ele>
        <time>2015-08-14T09:04:29Z</time>
      </trkpt>
      <trkpt lat="42.2599940" lon="1.6855500">
        <ele>1863.0</ele>
        <time>2015-08-14T09:04:31Z</time>
      </trkpt>
      <trkpt lat="42.2600110" lon="1.6855190">
        <ele>1863.4</ele>
        <time>2015-08-14T09:04:33Z</time>
      </trkpt>
      <trkpt lat="42.2600320" lon="1.6854920">
        <ele>1863.5</ele>
        <time>2015-08-14T09:04:35Z</time>
      </trkpt>
      <trkpt lat="42.2600690" lon="1.6854690">
        <ele>1863.0</ele>
        <time>2015-08-14T09:04:37Z</time>
      </trkpt>
      <trkpt lat="42.2600970" lon="1.6854530">
        <ele>1862.4</ele>
        <time>2015-08-14T09:04:39Z</time>
      </trkpt>
      <trkpt lat="42.2601160" lon="1.6854280">
        <ele>1862.5</ele>
        <time>2015-08-14T09:04:41Z</time>
      </trkpt>
      <trkpt lat="42.2601490" lon="1.6854320">
        <ele>1861.2</ele>
        <time>2015-08-14T09:04:44Z</time>
      </trkpt>
      <trkpt lat="42.2601860" lon="1.6854570">
        <ele>1859.2</ele>
        <time>2015-08-14T09:04:47Z</time>
      </trkpt>
      <trkpt lat="42.2602130" lon="1.6854750">
        <ele>1857.8</ele>
        <time>2015-08-14T09:04:49Z</time>
      </trkpt>
      <trkpt lat="42.2602370" lon="1.6855160">
        <ele>1855.8</ele>
        <time>2015-08-14T09:04:51Z</time>
      </trkpt>
      <trkpt lat="42.2602600" lon="1.6855580">
        <ele>1854.0</ele>
        <time>2015-08-14T09:04:53Z</time>
      </trkpt>
      <trkpt lat="42.2602930" lon="1.6855700">
        <ele>1852.6</ele>
        <time>2015-08-14T09:04:56Z</time>
      </trkpt>
      <trkpt lat="42.2603190" lon="1.6855760">
        <ele>1851.6</ele>
        <time>2015-08-14T09:04:58Z</time>
      </trkpt>
      <trkpt lat="42.2603570" lon="1.6855680">
        <ele>1850.5</ele>
        <time>2015-08-14T09:05:00Z</time>
      </trkpt>
      <trkpt lat="42.2603930" lon="1.6855740">
        <ele>1849.2</ele>
        <time>2015-08-14T09:05:02Z</time>
      </trkpt>
      <trkpt lat="42.2604200" lon="1.6855710">
        <ele>1848.4</ele>
        <time>2015-08-14T09:05:04Z</time>
      </trkpt>
      <trkpt lat="42.2604620" lon="1.6855490">
        <ele>1848.3</ele>
        <time>2015-08-14T09:05:07Z</time>
      </trkpt>
      <trkpt lat="42.2604960" lon="1.6855360">
        <ele>1848.1</ele>
        <time>2015-08-14T09:05:10Z</time>
      </trkpt>
      <trkpt lat="42.2605260" lon="1.6855440">
        <ele>1847.5</ele>
        <time>2015-08-14T09:05:12Z</time>
      </trkpt>
      <trkpt lat="42.2605530" lon="1.6855610">
        <ele>1846.8</ele>
        <time>2015-08-14T09:05:14Z</time>
      </trkpt>
      <trkpt lat="42.2605730" lon="1.6855890">
        <ele>1846.0</ele>
        <time>2015-08-14T09:05:16Z</time>
      </trkpt>
      <trkpt lat="42.2606110" lon="1.6856030">
        <ele>1845.4</ele>
        <time>2015-08-14T09:05:18Z</time>
      </trkpt>
      <trkpt lat="42.2606450" lon="1.6856500">
        <ele>1844.3</ele>
        <time>2015-08-14T09:05:20Z</time>
      </trkpt>
      <trkpt lat="42.2606720" lon="1.6856650">
        <ele>1843.9</ele>
        <time>2015-08-14T09:05:21Z</time>
      </trkpt>
      <trkpt lat="42.2607030" lon="1.6856490">
        <ele>1843.7</ele>
        <time>2015-08-14T09:05:22Z</time>
      </trkpt>
      <trkpt lat="42.2606520" lon="1.6856230">
        <ele>1844.6</ele>
        <time>2015-08-14T09:05:23Z</time>
      </trkpt>
      <trkpt lat="42.2606680" lon="1.6856650">
        <ele>1843.9</ele>
        <time>2015-08-14T09:05:27Z</time>
      </trkpt>
      <trkpt lat="42.2609610" lon="1.6856970">
        <ele>1841.1</ele>
        <time>2015-08-14T09:11:21Z</time>
      </trkpt>
      <trkpt lat="42.2608830" lon="1.6857200">
        <ele>1841.7</ele>
        <time>2015-08-14T09:11:23Z</time>
      </trkpt>
      <trkpt lat="42.2607690" lon="1.6856970">
        <ele>1842.7</ele>
        <time>2015-08-14T09:11:24Z</time>
      </trkpt>
      <trkpt lat="42.2607350" lon="1.6857010">
        <ele>1842.9</ele>
        <time>2015-08-14T09:11:25Z</time>
      </trkpt>
      <trkpt lat="42.2607290" lon="1.6856650">
        <ele>1843.3</ele>
        <time>2015-08-14T09:13:27Z</time>
      </trkpt>
      <trkpt lat="42.2607300" lon="1.6857120">
        <ele>1842.9</ele>
        <time>2015-08-14T09:28:49Z</time>
      </trkpt>
      <trkpt lat="42.2607470" lon="1.6857400">
        <ele>1842.5</ele>
        <time>2015-08-14T09:28:52Z</time>
      </trkpt>
      <trkpt lat="42.2607800" lon="1.6857790">
        <ele>1842.0</ele>
        <time>2015-08-14T09:29:07Z</time>
      </trkpt>
      <trkpt lat="42.2607980" lon="1.6858240">
        <ele>1841.6</ele>
        <time>2015-08-14T09:29:10Z</time>
      </trkpt>
      <trkpt lat="42.2608240" lon="1.6858470">
        <ele>1841.5</ele>
        <time>2015-08-14T09:29:12Z</time>
      </trkpt>
      <trkpt lat="42.2608580" lon="1.6858820">
        <ele>1841.3</ele>
        <time>2015-08-14T09:29:14Z</time>
      </trkpt>
      <trkpt lat="42.2608750" lon="1.6859230">
        <ele>1841.1</ele>
        <time>2015-08-14T09:29:17Z</time>
      </trkpt>
      <trkpt lat="42.2609040" lon="1.6859530">
        <ele>1841.1</ele>
        <time>2015-08-14T09:29:19Z</time>
      </trkpt>
      <trkpt lat="42.2609350" lon="1.6859650">
        <ele>1841.2</ele>
        <time>2015-08-14T09:29:21Z</time>
      </trkpt>
      <trkpt lat="42.2609650" lon="1.6859950">
        <ele>1841.3</ele>
        <time>2015-08-14T09:29:23Z</time>
      </trkpt>
      <trkpt lat="42.2609940" lon="1.6860320">
        <ele>1841.5</ele>
        <time>2015-08-14T09:29:25Z</time>
      </trkpt>
      <trkpt lat="42.2610150" lon="1.6860740">
        <ele>1841.8</ele>
        <time>2015-08-14T09:29:27Z</time>
      </trkpt>
      <trkpt lat="42.2610350" lon="1.6861010">
        <ele>1842.1</ele>
        <time>2015-08-14T09:29:28Z</time>
      </trkpt>
      <trkpt lat="42.2610750" lon="1.6861340">
        <ele>1842.6</ele>
        <time>2015-08-14T09:29:30Z</time>
      </trkpt>
      <trkpt lat="42.2611040" lon="1.6861540">
        <ele>1843.1</ele>
        <time>2015-08-14T09:29:32Z</time>
      </trkpt>
      <trkpt lat="42.2611280" lon="1.6861990">
        <ele>1843.7</ele>
        <time>2015-08-14T09:29:34Z</time>
      </trkpt>
      <trkpt lat="42.2611660" lon="1.6862370">
        <ele>1844.6</ele>
        <time>2015-08-14T09:29:36Z</time>
      </trkpt>
      <trkpt lat="42.2611840" lon="1.6862710">
        <ele>1845.1</ele>
        <time>2015-08-14T09:29:37Z</time>
      </trkpt>
      <trkpt lat="42.2612190" lon="1.6863130">
        <ele>1845.9</ele>
        <time>2015-08-14T09:29:39Z</time>
      </trkpt>
      <trkpt lat="42.2612500" lon="1.6863540">
        <ele>1846.7</ele>
        <time>2015-08-14T09:29:41Z</time>
      </trkpt>
      <trkpt lat="42.2612800" lon="1.6863960">
        <ele>1846.7</ele>
        <time>2015-08-14T09:29:43Z</time>
      </trkpt>
      <trkpt lat="42.2613170" lon="1.6864480">
        <ele>1846.7</ele>
        <time>2015-08-14T09:29:45Z</time>
      </trkpt>
      <trkpt lat="42.2613520" lon="1.6864960">
        <ele>1846.7</ele>
        <time>2015-08-14T09:29:47Z</time>
      </trkpt>
      <trkpt lat="42.2613860" lon="1.6865310">
        <ele>1846.7</ele>
        <time>2015-08-14T09:29:49Z</time>
      </trkpt>
      <trkpt lat="42.2614260" lon="1.6865670">
        <ele>1846.6</ele>
        <time>2015-08-14T09:29:51Z</time>
      </trkpt>
      <trkpt lat="42.2614610" lon="1.6866170">
        <ele>1846.8</ele>
        <time>2015-08-14T09:29:53Z</time>
      </trkpt>
      <trkpt lat="42.2614920" lon="1.6866610">
        <ele>1847.0</ele>
        <time>2015-08-14T09:29:55Z</time>
      </trkpt>
      <trkpt lat="42.2615180" lon="1.6867020">
        <ele>1847.3</ele>
        <time>2015-08-14T09:29:57Z</time>
      </trkpt>
      <trkpt lat="42.2615390" lon="1.6867260">
        <ele>1847.4</ele>
        <time>2015-08-14T09:29:58Z</time>
      </trkpt>
      <trkpt lat="42.2615720" lon="1.6867830">
        <ele>1847.9</ele>
        <time>2015-08-14T09:30:00Z</time>
      </trkpt>
      <trkpt lat="42.2615960" lon="1.6868340">
        <ele>1848.4</ele>
        <time>2015-08-14T09:30:02Z</time>
      </trkpt>
      <trkpt lat="42.2616270" lon="1.6868800">
        <ele>1848.9</ele>
        <time>2015-08-14T09:30:04Z</time>
      </trkpt>
      <trkpt lat="42.2616490" lon="1.6869170">
        <ele>1849.3</ele>
        <time>2015-08-14T09:30:06Z</time>
      </trkpt>
      <trkpt lat="42.2616740" lon="1.6869480">
        <ele>1849.6</ele>
        <time>2015-08-14T09:30:08Z</time>
      </trkpt>
      <trkpt lat="42.2617030" lon="1.6869800">
        <ele>1850.0</ele>
        <time>2015-08-14T09:30:10Z</time>
      </trkpt>
      <trkpt lat="42.2617250" lon="1.6870220">
        <ele>1850.5</ele>
        <time>2015-08-14T09:30:12Z</time>
      </trkpt>
      <trkpt lat="42.2617520" lon="1.6870690">
        <ele>1851.2</ele>
        <time>2015-08-14T09:30:14Z</time>
      </trkpt>
      <trkpt lat="42.2617770" lon="1.6871160">
        <ele>1851.8</ele>
        <time>2015-08-14T09:30:16Z</time>
      </trkpt>
      <trkpt lat="42.2617970" lon="1.6871650">
        <ele>1852.4</ele>
        <time>2015-08-14T09:30:18Z</time>
      </trkpt>
      <trkpt lat="42.2618270" lon="1.6872100">
        <ele>1853.1</ele>
        <time>2015-08-14T09:30:20Z</time>
      </trkpt>
      <trkpt lat="42.2618500" lon="1.6872480">
        <ele>1853.7</ele>
        <time>2015-08-14T09:30:22Z</time>
      </trkpt>
      <trkpt lat="42.2618710" lon="1.6872870">
        <ele>1854.3</ele>
        <time>2015-08-14T09:30:24Z</time>
      </trkpt>
      <trkpt lat="42.2619030" lon="1.6873330">
        <ele>1855.2</ele>
        <time>2015-08-14T09:30:26Z</time>
      </trkpt>
      <trkpt lat="42.2619320" lon="1.6873750">
        <ele>1856.1</ele>
        <time>2015-08-14T09:30:28Z</time>
      </trkpt>
      <trkpt lat="42.2619460" lon="1.6874070">
        <ele>1856.8</ele>
        <time>2015-08-14T09:30:29Z</time>
      </trkpt>
      <trkpt lat="42.2619710" lon="1.6874650">
        <ele>1858.1</ele>
        <time>2015-08-14T09:30:31Z</time>
      </trkpt>
      <trkpt lat="42.2619860" lon="1.6875170">
        <ele>1859.2</ele>
        <time>2015-08-14T09:30:33Z</time>
      </trkpt>
      <trkpt lat="42.2620110" lon="1.6875750">
        <ele>1860.6</ele>
        <time>2015-08-14T09:30:35Z</time>
      </trkpt>
      <trkpt lat="42.2620320" lon="1.6876250">
        <ele>1861.9</ele>
        <time>2015-08-14T09:30:37Z</time>
      </trkpt>
      <trkpt lat="42.2620530" lon="1.6876770">
        <ele>1863.3</ele>
        <time>2015-08-14T09:30:39Z</time>
      </trkpt>
      <trkpt lat="42.2620650" lon="1.6877300">
        <ele>1864.6</ele>
        <time>2015-08-14T09:30:41Z</time>
      </trkpt>
      <trkpt lat="42.2620800" lon="1.6877830">
        <ele>1866.0</ele>
        <time>2015-08-14T09:30:43Z</time>
      </trkpt>
      <trkpt lat="42.2621010" lon="1.6878310">
        <ele>1866.6</ele>
        <time>2015-08-14T09:30:45Z</time>
      </trkpt>
      <trkpt lat="42.2621180" lon="1.6878800">
        <ele>1867.0</ele>
        <time>2015-08-14T09:30:47Z</time>
      </trkpt>
      <trkpt lat="42.2621320" lon="1.6879440">
        <ele>1867.7</ele>
        <time>2015-08-14T09:30:49Z</time>
      </trkpt>
      <trkpt lat="42.2621560" lon="1.6880020">
        <ele>1867.5</ele>
        <time>2015-08-14T09:30:51Z</time>
      </trkpt>
      <trkpt lat="42.2621750" lon="1.6880300">
        <ele>1867.2</ele>
        <time>2015-08-14T09:30:52Z</time>
      </trkpt>
      <trkpt lat="42.2622060" lon="1.6880940">
        <ele>1867.0</ele>
        <time>2015-08-14T09:30:54Z</time>
      </trkpt>
      <trkpt lat="42.2622310" lon="1.6881460">
        <ele>1866.8</ele>
        <time>2015-08-14T09:30:56Z</time>
      </trkpt>
      <trkpt lat="42.2622640" lon="1.6882040">
        <ele>1866.6</ele>
        <time>2015-08-14T09:30:58Z</time>
      </trkpt>
      <trkpt lat="42.2622930" lon="1.6882580">
        <ele>1866.5</ele>
        <time>2015-08-14T09:31:00Z</time>
      </trkpt>
      <trkpt lat="42.2623060" lon="1.6882900">
        <ele>1866.5</ele>
        <time>2015-08-14T09:31:01Z</time>
      </trkpt>
      <trkpt lat="42.2623260" lon="1.6883190">
        <ele>1866.4</ele>
        <time>2015-08-14T09:31:02Z</time>
      </trkpt>
      <trkpt lat="42.2623590" lon="1.6883600">
        <ele>1866.1</ele>
        <time>2015-08-14T09:31:04Z</time>
      </trkpt>
      <trkpt lat="42.2623850" lon="1.6884110">
        <ele>1866.2</ele>
        <time>2015-08-14T09:31:06Z</time>
      </trkpt>
      <trkpt lat="42.2624200" lon="1.6884720">
        <ele>1866.2</ele>
        <time>2015-08-14T09:31:08Z</time>
      </trkpt>
      <trkpt lat="42.2624440" lon="1.6885200">
        <ele>1866.4</ele>
        <time>2015-08-14T09:31:10Z</time>
      </trkpt>
      <trkpt lat="42.2624740" lon="1.6885570">
        <ele>1866.3</ele>
        <time>2015-08-14T09:31:12Z</time>
      </trkpt>
      <trkpt lat="42.2624930" lon="1.6886030">
        <ele>1866.7</ele>
        <time>2015-08-14T09:31:14Z</time>
      </trkpt>
      <trkpt lat="42.2625190" lon="1.6886460">
        <ele>1866.9</ele>
        <time>2015-08-14T09:31:16Z</time>
      </trkpt>
      <trkpt lat="42.2625450" lon="1.6886870">
        <ele>1867.0</ele>
        <time>2015-08-14T09:31:18Z</time>
      </trkpt>
      <trkpt lat="42.2625630" lon="1.6887410">
        <ele>1867.6</ele>
        <time>2015-08-14T09:31:20Z</time>
      </trkpt>
      <trkpt lat="42.2625740" lon="1.6887900">
        <ele>1867.9</ele>
        <time>2015-08-14T09:31:22Z</time>
      </trkpt>
      <trkpt lat="42.2625950" lon="1.6888330">
        <ele>1867.9</ele>
        <time>2015-08-14T09:31:24Z</time>
      </trkpt>
      <trkpt lat="42.2626100" lon="1.6888800">
        <ele>1868.1</ele>
        <time>2015-08-14T09:31:26Z</time>
      </trkpt>
      <trkpt lat="42.2626280" lon="1.6889270">
        <ele>1868.3</ele>
        <time>2015-08-14T09:31:28Z</time>
      </trkpt>
      <trkpt lat="42.2626450" lon="1.6889690">
        <ele>1868.4</ele>
        <time>2015-08-14T09:31:30Z</time>
      </trkpt>
      <trkpt lat="42.2626700" lon="1.6890210">
        <ele>1868.6</ele>
        <time>2015-08-14T09:31:32Z</time>
      </trkpt>
      <trkpt lat="42.2626830" lon="1.6890710">
        <ele>1868.9</ele>
        <time>2015-08-14T09:31:34Z</time>
      </trkpt>
      <trkpt lat="42.2627010" lon="1.6891190">
        <ele>1869.2</ele>
        <time>2015-08-14T09:31:36Z</time>
      </trkpt>
      <trkpt lat="42.2627150" lon="1.6891720">
        <ele>1869.6</ele>
        <time>2015-08-14T09:31:38Z</time>
      </trkpt>
      <trkpt lat="42.2627320" lon="1.6892270">
        <ele>1870.0</ele>
        <time>2015-08-14T09:31:40Z</time>
      </trkpt>
      <trkpt lat="42.2627490" lon="1.6892720">
        <ele>1870.3</ele>
        <time>2015-08-14T09:31:42Z</time>
      </trkpt>
      <trkpt lat="42.2627670" lon="1.6893210">
        <ele>1870.7</ele>
        <time>2015-08-14T09:31:44Z</time>
      </trkpt>
      <trkpt lat="42.2627910" lon="1.6893770">
        <ele>1871.2</ele>
        <time>2015-08-14T09:31:46Z</time>
      </trkpt>
      <trkpt lat="42.2628190" lon="1.6894220">
        <ele>1871.5</ele>
        <time>2015-08-14T09:31:48Z</time>
      </trkpt>
      <trkpt lat="42.2628440" lon="1.6894730">
        <ele>1872.0</ele>
        <time>2015-08-14T09:31:50Z</time>
      </trkpt>
      <trkpt lat="42.2628760" lon="1.6895200">
        <ele>1872.4</ele>
        <time>2015-08-14T09:31:52Z</time>
      </trkpt>
      <trkpt lat="42.2629150" lon="1.6895730">
        <ele>1872.9</ele>
        <time>2015-08-14T09:31:54Z</time>
      </trkpt>
      <trkpt lat="42.2629440" lon="1.6896330">
        <ele>1873.5</ele>
        <time>2015-08-14T09:31:56Z</time>
      </trkpt>
      <trkpt lat="42.2629610" lon="1.6896970">
        <ele>1874.3</ele>
        <time>2015-08-14T09:31:58Z</time>
      </trkpt>
      <trkpt lat="42.2629770" lon="1.6897500">
        <ele>1875.0</ele>
        <time>2015-08-14T09:32:00Z</time>
      </trkpt>
      <trkpt lat="42.2629900" lon="1.6897840">
        <ele>1875.4</ele>
        <time>2015-08-14T09:32:01Z</time>
      </trkpt>
      <trkpt lat="42.2629940" lon="1.6898220">
        <ele>1875.9</ele>
        <time>2015-08-14T09:32:02Z</time>
      </trkpt>
      <trkpt lat="42.2630030" lon="1.6898930">
        <ele>1876.8</ele>
        <time>2015-08-14T09:32:04Z</time>
      </trkpt>
      <trkpt lat="42.2630130" lon="1.6899540">
        <ele>1877.6</ele>
        <time>2015-08-14T09:32:06Z</time>
      </trkpt>
      <trkpt lat="42.2630240" lon="1.6900160">
        <ele>1878.3</ele>
        <time>2015-08-14T09:32:08Z</time>
      </trkpt>
      <trkpt lat="42.2630290" lon="1.6900840">
        <ele>1879.2</ele>
        <time>2015-08-14T09:32:10Z</time>
      </trkpt>
      <trkpt lat="42.2630490" lon="1.6901510">
        <ele>1879.9</ele>
        <time>2015-08-14T09:32:12Z</time>
      </trkpt>
      <trkpt lat="42.2630600" lon="1.6902260">
        <ele>1880.9</ele>
        <time>2015-08-14T09:32:14Z</time>
      </trkpt>
      <trkpt lat="42.2630660" lon="1.6902620">
        <ele>1881.3</ele>
        <time>2015-08-14T09:32:15Z</time>
      </trkpt>
      <trkpt lat="42.2630690" lon="1.6903000">
        <ele>1881.8</ele>
        <time>2015-08-14T09:32:16Z</time>
      </trkpt>
      <trkpt lat="42.2630900" lon="1.6903710">
        <ele>1882.5</ele>
        <time>2015-08-14T09:32:18Z</time>
      </trkpt>
      <trkpt lat="42.2631060" lon="1.6904260">
        <ele>1882.9</ele>
        <time>2015-08-14T09:32:20Z</time>
      </trkpt>
      <trkpt lat="42.2631190" lon="1.6904640">
        <ele>1882.6</ele>
        <time>2015-08-14T09:32:21Z</time>
      </trkpt>
      <trkpt lat="42.2631420" lon="1.6905260">
        <ele>1882.2</ele>
        <time>2015-08-14T09:32:23Z</time>
      </trkpt>
      <trkpt lat="42.2631430" lon="1.6905670">
        <ele>1882.0</ele>
        <time>2015-08-14T09:32:24Z</time>
      </trkpt>
      <trkpt lat="42.2631510" lon="1.6906050">
        <ele>1881.8</ele>
        <time>2015-08-14T09:32:25Z</time>
      </trkpt>
      <trkpt lat="42.2631740" lon="1.6906450">
        <ele>1881.5</ele>
        <time>2015-08-14T09:32:26Z</time>
      </trkpt>
      <trkpt lat="42.2632160" lon="1.6906970">
        <ele>1881.1</ele>
        <time>2015-08-14T09:32:28Z</time>
      </trkpt>
      <trkpt lat="42.2632360" lon="1.6907320">
        <ele>1880.8</ele>
        <time>2015-08-14T09:32:29Z</time>
      </trkpt>
      <trkpt lat="42.2632610" lon="1.6907770">
        <ele>1880.5</ele>
        <time>2015-08-14T09:32:30Z</time>
      </trkpt>
      <trkpt lat="42.2632820" lon="1.6908210">
        <ele>1880.3</ele>
        <time>2015-08-14T09:32:31Z</time>
      </trkpt>
      <trkpt lat="42.2633070" lon="1.6908580">
        <ele>1880.1</ele>
        <time>2015-08-14T09:32:32Z</time>
      </trkpt>
      <trkpt lat="42.2633320" lon="1.6908920">
        <ele>1879.9</ele>
        <time>2015-08-14T09:32:33Z</time>
      </trkpt>
      <trkpt lat="42.2633570" lon="1.6909330">
        <ele>1879.8</ele>
        <time>2015-08-14T09:32:34Z</time>
      </trkpt>
      <trkpt lat="42.2633820" lon="1.6909780">
        <ele>1879.6</ele>
        <time>2015-08-14T09:32:35Z</time>
      </trkpt>
      <trkpt lat="42.2634040" lon="1.6910160">
        <ele>1879.5</ele>
        <time>2015-08-14T09:32:36Z</time>
      </trkpt>
      <trkpt lat="42.2634240" lon="1.6910560">
        <ele>1879.4</ele>
        <time>2015-08-14T09:32:37Z</time>
      </trkpt>
      <trkpt lat="42.2634420" lon="1.6910920">
        <ele>1879.4</ele>
        <time>2015-08-14T09:32:38Z</time>
      </trkpt>
      <trkpt lat="42.2634610" lon="1.6911350">
        <ele>1879.3</ele>
        <time>2015-08-14T09:32:39Z</time>
      </trkpt>
      <trkpt lat="42.2634780" lon="1.6911790">
        <ele>1879.3</ele>
        <time>2015-08-14T09:32:40Z</time>
      </trkpt>
      <trkpt lat="42.2635020" lon="1.6912150">
        <ele>1879.3</ele>
        <time>2015-08-14T09:32:41Z</time>
      </trkpt>
      <trkpt lat="42.2635190" lon="1.6912530">
        <ele>1879.2</ele>
        <time>2015-08-14T09:32:42Z</time>
      </trkpt>
      <trkpt lat="42.2635430" lon="1.6912890">
        <ele>1878.7</ele>
        <time>2015-08-14T09:32:43Z</time>
      </trkpt>
      <trkpt lat="42.2635650" lon="1.6913320">
        <ele>1878.2</ele>
        <time>2015-08-14T09:32:44Z</time>
      </trkpt>
      <trkpt lat="42.2635860" lon="1.6913650">
        <ele>1877.7</ele>
        <time>2015-08-14T09:32:45Z</time>
      </trkpt>
      <trkpt lat="42.2636040" lon="1.6914070">
        <ele>1877.2</ele>
        <time>2015-08-14T09:32:46Z</time>
      </trkpt>
      <trkpt lat="42.2636240" lon="1.6914440">
        <ele>1876.7</ele>
        <time>2015-08-14T09:32:47Z</time>
      </trkpt>
      <trkpt lat="42.2636440" lon="1.6914880">
        <ele>1876.1</ele>
        <time>2015-08-14T09:32:48Z</time>
      </trkpt>
      <trkpt lat="42.2636620" lon="1.6915270">
        <ele>1875.6</ele>
        <time>2015-08-14T09:32:49Z</time>
      </trkpt>
      <trkpt lat="42.2636770" lon="1.6915630">
        <ele>1875.2</ele>
        <time>2015-08-14T09:32:50Z</time>
      </trkpt>
      <trkpt lat="42.2636930" lon="1.6916020">
        <ele>1874.7</ele>
        <time>2015-08-14T09:32:51Z</time>
      </trkpt>
      <trkpt lat="42.2637060" lon="1.6916360">
        <ele>1874.3</ele>
        <time>2015-08-14T09:32:52Z</time>
      </trkpt>
      <trkpt lat="42.2637310" lon="1.6916990">
        <ele>1873.6</ele>
        <time>2015-08-14T09:32:54Z</time>
      </trkpt>
      <trkpt lat="42.2637560" lon="1.6917590">
        <ele>1873.1</ele>
        <time>2015-08-14T09:32:56Z</time>
      </trkpt>
      <trkpt lat="42.2637750" lon="1.6917900">
        <ele>1873.2</ele>
        <time>2015-08-14T09:32:57Z</time>
      </trkpt>
      <trkpt lat="42.2637870" lon="1.6918240">
        <ele>1873.1</ele>
        <time>2015-08-14T09:32:58Z</time>
      </trkpt>
      <trkpt lat="42.2638010" lon="1.6918610">
        <ele>1873.1</ele>
        <time>2015-08-14T09:32:59Z</time>
      </trkpt>
      <trkpt lat="42.2638190" lon="1.6919000">
        <ele>1873.1</ele>
        <time>2015-08-14T09:33:00Z</time>
      </trkpt>
      <trkpt lat="42.2638310" lon="1.6919410">
        <ele>1872.9</ele>
        <time>2015-08-14T09:33:01Z</time>
      </trkpt>
      <trkpt lat="42.2638670" lon="1.6919820">
        <ele>1873.4</ele>
        <time>2015-08-14T09:33:03Z</time>
      </trkpt>
      <trkpt lat="42.2638820" lon="1.6920140">
        <ele>1873.5</ele>
        <time>2015-08-14T09:33:04Z</time>
      </trkpt>
      <trkpt lat="42.2639040" lon="1.6920630">
        <ele>1873.5</ele>
        <time>2015-08-14T09:33:06Z</time>
      </trkpt>
      <trkpt lat="42.2639340" lon="1.6921030">
        <ele>1873.9</ele>
        <time>2015-08-14T09:33:08Z</time>
      </trkpt>
      <trkpt lat="42.2639600" lon="1.6921260">
        <ele>1874.3</ele>
        <time>2015-08-14T09:33:10Z</time>
      </trkpt>
      <trkpt lat="42.2639680" lon="1.6921690">
        <ele>1874.0</ele>
        <time>2015-08-14T09:33:13Z</time>
      </trkpt>
      <trkpt lat="42.2639890" lon="1.6922110">
        <ele>1874.1</ele>
        <time>2015-08-14T09:33:16Z</time>
      </trkpt>
      <trkpt lat="42.2639920" lon="1.6922570">
        <ele>1873.6</ele>
        <time>2015-08-14T09:33:17Z</time>
      </trkpt>
      <trkpt lat="42.2640130" lon="1.6922790">
        <ele>1873.8</ele>
        <time>2015-08-14T09:33:18Z</time>
      </trkpt>
      <trkpt lat="42.2640410" lon="1.6922810">
        <ele>1874.4</ele>
        <time>2015-08-14T09:33:19Z</time>
      </trkpt>
      <trkpt lat="42.2640690" lon="1.6923070">
        <ele>1874.8</ele>
        <time>2015-08-14T09:33:20Z</time>
      </trkpt>
      <trkpt lat="42.2641040" lon="1.6923350">
        <ele>1875.2</ele>
        <time>2015-08-14T09:33:21Z</time>
      </trkpt>
      <trkpt lat="42.2641390" lon="1.6923710">
        <ele>1875.4</ele>
        <time>2015-08-14T09:33:23Z</time>
      </trkpt>
      <trkpt lat="42.2641550" lon="1.6924060">
        <ele>1875.2</ele>
        <time>2015-08-14T09:33:24Z</time>
      </trkpt>
      <trkpt lat="42.2641770" lon="1.6924290">
        <ele>1875.3</ele>
        <time>2015-08-14T09:33:25Z</time>
      </trkpt>
      <trkpt lat="42.2642050" lon="1.6924670">
        <ele>1875.3</ele>
        <time>2015-08-14T09:33:26Z</time>
      </trkpt>
      <trkpt lat="42.2642300" lon="1.6925020">
        <ele>1875.2</ele>
        <time>2015-08-14T09:33:27Z</time>
      </trkpt>
      <trkpt lat="42.2642500" lon="1.6925340">
        <ele>1875.0</ele>
        <time>2015-08-14T09:33:28Z</time>
      </trkpt>
      <trkpt lat="42.2642710" lon="1.6925630">
        <ele>1874.9</ele>
        <time>2015-08-14T09:33:29Z</time>
      </trkpt>
      <trkpt lat="42.2642920" lon="1.6925960">
        <ele>1874.7</ele>
        <time>2015-08-14T09:33:30Z</time>
      </trkpt>
      <trkpt lat="42.2643170" lon="1.6926300">
        <ele>1874.5</ele>
        <time>2015-08-14T09:33:31Z</time>
      </trkpt>
      <trkpt lat="42.2643470" lon="1.6926730">
        <ele>1874.1</ele>
        <time>2015-08-14T09:33:32Z</time>
      </trkpt>
      <trkpt lat="42.2643780" lon="1.6927080">
        <ele>1873.9</ele>
        <time>2015-08-14T09:33:33Z</time>
      </trkpt>
      <trkpt lat="42.2644110" lon="1.6927640">
        <ele>1873.3</ele>
        <time>2015-08-14T09:33:34Z</time>
      </trkpt>
      <trkpt lat="42.2644510" lon="1.6927990">
        <ele>1873.1</ele>
        <time>2015-08-14T09:33:35Z</time>
      </trkpt>
      <trkpt lat="42.2644880" lon="1.6928330">
        <ele>1872.8</ele>
        <time>2015-08-14T09:33:36Z</time>
      </trkpt>
      <trkpt lat="42.2645110" lon="1.6928650">
        <ele>1872.4</ele>
        <time>2015-08-14T09:33:37Z</time>
      </trkpt>
      <trkpt lat="42.2645280" lon="1.6928990">
        <ele>1871.8</ele>
        <time>2015-08-14T09:33:38Z</time>
      </trkpt>
      <trkpt lat="42.2645570" lon="1.6929260">
        <ele>1871.6</ele>
        <time>2015-08-14T09:33:39Z</time>
      </trkpt>
      <trkpt lat="42.2645820" lon="1.6929620">
        <ele>1871.6</ele>
        <time>2015-08-14T09:33:40Z</time>
      </trkpt>
      <trkpt lat="42.2646120" lon="1.6929940">
        <ele>1872.1</ele>
        <time>2015-08-14T09:33:41Z</time>
      </trkpt>
      <trkpt lat="42.2646350" lon="1.6930240">
        <ele>1872.4</ele>
        <time>2015-08-14T09:33:42Z</time>
      </trkpt>
      <trkpt lat="42.2646690" lon="1.6930740">
        <ele>1872.8</ele>
        <time>2015-08-14T09:33:43Z</time>
      </trkpt>
      <trkpt lat="42.2646640" lon="1.6931380">
        <ele>1872.0</ele>
        <time>2015-08-14T09:33:44Z</time>
      </trkpt>
      <trkpt lat="42.2646820" lon="1.6931910">
        <ele>1872.0</ele>
        <time>2015-08-14T09:33:45Z</time>
      </trkpt>
      <trkpt lat="42.2646990" lon="1.6932370">
        <ele>1871.9</ele>
        <time>2015-08-14T09:33:46Z</time>
      </trkpt>
      <trkpt lat="42.2647010" lon="1.6932860">
        <ele>1871.5</ele>
        <time>2015-08-14T09:33:47Z</time>
      </trkpt>
      <trkpt lat="42.2647160" lon="1.6933260">
        <ele>1871.4</ele>
        <time>2015-08-14T09:33:48Z</time>
      </trkpt>
      <trkpt lat="42.2647100" lon="1.6933780">
        <ele>1870.7</ele>
        <time>2015-08-14T09:33:49Z</time>
      </trkpt>
      <trkpt lat="42.2647110" lon="1.6934290">
        <ele>1870.2</ele>
        <time>2015-08-14T09:33:50Z</time>
      </trkpt>
      <trkpt lat="42.2647200" lon="1.6934640">
        <ele>1870.0</ele>
        <time>2015-08-14T09:33:51Z</time>
      </trkpt>
      <trkpt lat="42.2647270" lon="1.6935070">
        <ele>1869.7</ele>
        <time>2015-08-14T09:33:52Z</time>
      </trkpt>
      <trkpt lat="42.2647560" lon="1.6935570">
        <ele>1869.9</ele>
        <time>2015-08-14T09:33:53Z</time>
      </trkpt>
      <trkpt lat="42.2648010" lon="1.6935780">
        <ele>1870.7</ele>
        <time>2015-08-14T09:33:54Z</time>
      </trkpt>
      <trkpt lat="42.2648340" lon="1.6936000">
        <ele>1871.2</ele>
        <time>2015-08-14T09:33:55Z</time>
      </trkpt>
      <trkpt lat="42.2648560" lon="1.6936310">
        <ele>1871.3</ele>
        <time>2015-08-14T09:33:56Z</time>
      </trkpt>
      <trkpt lat="42.2648790" lon="1.6936570">
        <ele>1871.5</ele>
        <time>2015-08-14T09:33:57Z</time>
      </trkpt>
      <trkpt lat="42.2649120" lon="1.6936730">
        <ele>1872.1</ele>
        <time>2015-08-14T09:33:58Z</time>
      </trkpt>
      <trkpt lat="42.2649390" lon="1.6936940">
        <ele>1872.4</ele>
        <time>2015-08-14T09:33:59Z</time>
      </trkpt>
      <trkpt lat="42.2649720" lon="1.6937020">
        <ele>1873.0</ele>
        <time>2015-08-14T09:34:00Z</time>
      </trkpt>
      <trkpt lat="42.2650090" lon="1.6937060">
        <ele>1873.8</ele>
        <time>2015-08-14T09:34:01Z</time>
      </trkpt>
      <trkpt lat="42.2650450" lon="1.6937100">
        <ele>1874.5</ele>
        <time>2015-08-14T09:34:02Z</time>
      </trkpt>
      <trkpt lat="42.2650780" lon="1.6937110">
        <ele>1875.2</ele>
        <time>2015-08-14T09:34:03Z</time>
      </trkpt>
      <trkpt lat="42.2651130" lon="1.6937250">
        <ele>1875.8</ele>
        <time>2015-08-14T09:34:04Z</time>
      </trkpt>
      <trkpt lat="42.2651710" lon="1.6937190">
        <ele>1877.1</ele>
        <time>2015-08-14T09:34:06Z</time>
      </trkpt>
      <trkpt lat="42.2652170" lon="1.6937270">
        <ele>1878.0</ele>
        <time>2015-08-14T09:34:08Z</time>
      </trkpt>
      <trkpt lat="42.2652580" lon="1.6937060">
        <ele>1879.3</ele>
        <time>2015-08-14T09:34:10Z</time>
      </trkpt>
      <trkpt lat="42.2652990" lon="1.6936950">
        <ele>1880.3</ele>
        <time>2015-08-14T09:34:12Z</time>
      </trkpt>
      <trkpt lat="42.2653410" lon="1.6936710">
        <ele>1881.6</ele>
        <time>2015-08-14T09:34:14Z</time>
      </trkpt>
      <trkpt lat="42.2653840" lon="1.6936390">
        <ele>1883.1</ele>
        <time>2015-08-14T09:34:16Z</time>
      </trkpt>
      <trkpt lat="42.2654120" lon="1.6936210">
        <ele>1884.1</ele>
        <time>2015-08-14T09:34:17Z</time>
      </trkpt>
      <trkpt lat="42.2654360" lon="1.6936010">
        <ele>1884.5</ele>
        <time>2015-08-14T09:34:18Z</time>
      </trkpt>
      <trkpt lat="42.2654570" lon="1.6935720">
        <ele>1884.9</ele>
        <time>2015-08-14T09:34:19Z</time>
      </trkpt>
      <trkpt lat="42.2654770" lon="1.6935450">
        <ele>1885.3</ele>
        <time>2015-08-14T09:34:20Z</time>
      </trkpt>
      <trkpt lat="42.2654940" lon="1.6935110">
        <ele>1885.9</ele>
        <time>2015-08-14T09:34:21Z</time>
      </trkpt>
      <trkpt lat="42.2655320" lon="1.6934450">
        <ele>1887.0</ele>
        <time>2015-08-14T09:34:23Z</time>
      </trkpt>
      <trkpt lat="42.2655490" lon="1.6934050">
        <ele>1887.6</ele>
        <time>2015-08-14T09:34:24Z</time>
      </trkpt>
      <trkpt lat="42.2655870" lon="1.6933970">
        <ele>1887.8</ele>
        <time>2015-08-14T09:34:25Z</time>
      </trkpt>
      <trkpt lat="42.2656130" lon="1.6933690">
        <ele>1888.2</ele>
        <time>2015-08-14T09:34:26Z</time>
      </trkpt>
      <trkpt lat="42.2656360" lon="1.6933430">
        <ele>1888.7</ele>
        <time>2015-08-14T09:34:27Z</time>
      </trkpt>
      <trkpt lat="42.2656820" lon="1.6933010">
        <ele>1889.4</ele>
        <time>2015-08-14T09:34:28Z</time>
      </trkpt>
      <trkpt lat="42.2657100" lon="1.6932860">
        <ele>1889.7</ele>
        <time>2015-08-14T09:34:29Z</time>
      </trkpt>
      <trkpt lat="42.2657340" lon="1.6932620">
        <ele>1890.2</ele>
        <time>2015-08-14T09:34:30Z</time>
      </trkpt>
      <trkpt lat="42.2657690" lon="1.6932260">
        <ele>1890.9</ele>
        <time>2015-08-14T09:34:31Z</time>
      </trkpt>
      <trkpt lat="42.2657920" lon="1.6931960">
        <ele>1891.5</ele>
        <time>2015-08-14T09:34:32Z</time>
      </trkpt>
      <trkpt lat="42.2658210" lon="1.6931730">
        <ele>1891.9</ele>
        <time>2015-08-14T09:34:33Z</time>
      </trkpt>
      <trkpt lat="42.2658410" lon="1.6931450">
        <ele>1892.5</ele>
        <time>2015-08-14T09:34:34Z</time>
      </trkpt>
      <trkpt lat="42.2658590" lon="1.6931150">
        <ele>1893.1</ele>
        <time>2015-08-14T09:34:35Z</time>
      </trkpt>
      <trkpt lat="42.2658840" lon="1.6930830">
        <ele>1893.8</ele>
        <time>2015-08-14T09:34:36Z</time>
      </trkpt>
      <trkpt lat="42.2659090" lon="1.6930450">
        <ele>1894.6</ele>
        <time>2015-08-14T09:34:37Z</time>
      </trkpt>
      <trkpt lat="42.2659330" lon="1.6930010">
        <ele>1895.5</ele>
        <time>2015-08-14T09:34:38Z</time>
      </trkpt>
      <trkpt lat="42.2659530" lon="1.6929390">
        <ele>1896.8</ele>
        <time>2015-08-14T09:34:39Z</time>
      </trkpt>
      <trkpt lat="42.2659750" lon="1.6928950">
        <ele>1897.6</ele>
        <time>2015-08-14T09:34:40Z</time>
      </trkpt>
      <trkpt lat="42.2659970" lon="1.6928430">
        <ele>1898.4</ele>
        <time>2015-08-14T09:34:41Z</time>
      </trkpt>
      <trkpt lat="42.2660330" lon="1.6928110">
        <ele>1898.9</ele>
        <time>2015-08-14T09:34:42Z</time>
      </trkpt>
      <trkpt lat="42.2660650" lon="1.6928000">
        <ele>1899.1</ele>
        <time>2015-08-14T09:34:43Z</time>
      </trkpt>
      <trkpt lat="42.2660930" lon="1.6928100">
        <ele>1899.0</ele>
        <time>2015-08-14T09:34:44Z</time>
      </trkpt>
      <trkpt lat="42.2661320" lon="1.6928270">
        <ele>1898.8</ele>
        <time>2015-08-14T09:34:45Z</time>
      </trkpt>
      <trkpt lat="42.2661590" lon="1.6928490">
        <ele>1898.6</ele>
        <time>2015-08-14T09:34:46Z</time>
      </trkpt>
      <trkpt lat="42.2661740" lon="1.6928880">
        <ele>1898.2</ele>
        <time>2015-08-14T09:34:47Z</time>
      </trkpt>
      <trkpt lat="42.2661970" lon="1.6929180">
        <ele>1897.8</ele>
        <time>2015-08-14T09:34:48Z</time>
      </trkpt>
      <trkpt lat="42.2662230" lon="1.6929650">
        <ele>1896.8</ele>
        <time>2015-08-14T09:34:49Z</time>
      </trkpt>
      <trkpt lat="42.2662370" lon="1.6930090">
        <ele>1895.9</ele>
        <time>2015-08-14T09:34:50Z</time>
      </trkpt>
      <trkpt lat="42.2662590" lon="1.6930600">
        <ele>1894.8</ele>
        <time>2015-08-14T09:34:51Z</time>
      </trkpt>
      <trkpt lat="42.2662630" lon="1.6931030">
        <ele>1893.8</ele>
        <time>2015-08-14T09:34:52Z</time>
      </trkpt>
      <trkpt lat="42.2662780" lon="1.6931430">
        <ele>1893.1</ele>
        <time>2015-08-14T09:34:53Z</time>
      </trkpt>
      <trkpt lat="42.2662940" lon="1.6931840">
        <ele>1892.3</ele>
        <time>2015-08-14T09:34:54Z</time>
      </trkpt>
      <trkpt lat="42.2663020" lon="1.6932270">
        <ele>1891.4</ele>
        <time>2015-08-14T09:34:55Z</time>
      </trkpt>
      <trkpt lat="42.2663140" lon="1.6932960">
        <ele>1890.0</ele>
        <time>2015-08-14T09:34:57Z</time>
      </trkpt>
      <trkpt lat="42.2663130" lon="1.6933360">
        <ele>1889.1</ele>
        <time>2015-08-14T09:34:58Z</time>
      </trkpt>
      <trkpt lat="42.2663230" lon="1.6933760">
        <ele>1888.3</ele>
        <time>2015-08-14T09:34:59Z</time>
      </trkpt>
      <trkpt lat="42.2663340" lon="1.6934270">
        <ele>1887.3</ele>
        <time>2015-08-14T09:35:00Z</time>
      </trkpt>
      <trkpt lat="42.2663520" lon="1.6934690">
        <ele>1886.6</ele>
        <time>2015-08-14T09:35:01Z</time>
      </trkpt>
      <trkpt lat="42.2663580" lon="1.6935210">
        <ele>1885.6</ele>
        <time>2015-08-14T09:35:02Z</time>
      </trkpt>
      <trkpt lat="42.2663670" lon="1.6935650">
        <ele>1884.8</ele>
        <time>2015-08-14T09:35:03Z</time>
      </trkpt>
      <trkpt lat="42.2663860" lon="1.6936020">
        <ele>1884.2</ele>
        <time>2015-08-14T09:35:04Z</time>
      </trkpt>
      <trkpt lat="42.2664010" lon="1.6936340">
        <ele>1883.8</ele>
        <time>2015-08-14T09:35:05Z</time>
      </trkpt>
      <trkpt lat="42.2664190" lon="1.6936770">
        <ele>1883.1</ele>
        <time>2015-08-14T09:35:06Z</time>
      </trkpt>
      <trkpt lat="42.2664280" lon="1.6937230">
        <ele>1882.3</ele>
        <time>2015-08-14T09:35:07Z</time>
      </trkpt>
      <trkpt lat="42.2664400" lon="1.6937600">
        <ele>1881.8</ele>
        <time>2015-08-14T09:35:08Z</time>
      </trkpt>
      <trkpt lat="42.2664440" lon="1.6938010">
        <ele>1881.2</ele>
        <time>2015-08-14T09:35:09Z</time>
      </trkpt>
      <trkpt lat="42.2664440" lon="1.6938380">
        <ele>1880.6</ele>
        <time>2015-08-14T09:35:10Z</time>
      </trkpt>
      <trkpt lat="42.2664590" lon="1.6938820">
        <ele>1880.2</ele>
        <time>2015-08-14T09:35:11Z</time>
      </trkpt>
      <trkpt lat="42.2664790" lon="1.6939410">
        <ele>1879.6</ele>
        <time>2015-08-14T09:35:13Z</time>
      </trkpt>
      <trkpt lat="42.2664970" lon="1.6939700">
        <ele>1879.5</ele>
        <time>2015-08-14T09:35:14Z</time>
      </trkpt>
      <trkpt lat="42.2665180" lon="1.6940000">
        <ele>1879.5</ele>
        <time>2015-08-14T09:35:15Z</time>
      </trkpt>
      <trkpt lat="42.2665550" lon="1.6940580">
        <ele>1879.3</ele>
        <time>2015-08-14T09:35:17Z</time>
      </trkpt>
      <trkpt lat="42.2665780" lon="1.6941280">
        <ele>1878.7</ele>
        <time>2015-08-14T09:35:19Z</time>
      </trkpt>
      <trkpt lat="42.2665920" lon="1.6941630">
        <ele>1878.5</ele>
        <time>2015-08-14T09:35:20Z</time>
      </trkpt>
      <trkpt lat="42.2666020" lon="1.6942020">
        <ele>1878.2</ele>
        <time>2015-08-14T09:35:21Z</time>
      </trkpt>
      <trkpt lat="42.2666030" lon="1.6942420">
        <ele>1877.7</ele>
        <time>2015-08-14T09:35:22Z</time>
      </trkpt>
      <trkpt lat="42.2666200" lon="1.6942740">
        <ele>1877.6</ele>
        <time>2015-08-14T09:35:23Z</time>
      </trkpt>
      <trkpt lat="42.2666310" lon="1.6943100">
        <ele>1877.3</ele>
        <time>2015-08-14T09:35:24Z</time>
      </trkpt>
      <trkpt lat="42.2666420" lon="1.6943510">
        <ele>1877.0</ele>
        <time>2015-08-14T09:35:25Z</time>
      </trkpt>
      <trkpt lat="42.2666530" lon="1.6943970">
        <ele>1876.6</ele>
        <time>2015-08-14T09:35:26Z</time>
      </trkpt>
      <trkpt lat="42.2666620" lon="1.6944390">
        <ele>1876.3</ele>
        <time>2015-08-14T09:35:27Z</time>
      </trkpt>
      <trkpt lat="42.2666690" lon="1.6944760">
        <ele>1876.0</ele>
        <time>2015-08-14T09:35:28Z</time>
      </trkpt>
      <trkpt lat="42.2666740" lon="1.6945140">
        <ele>1875.6</ele>
        <time>2015-08-14T09:35:29Z</time>
      </trkpt>
      <trkpt lat="42.2666790" lon="1.6945560">
        <ele>1875.2</ele>
        <time>2015-08-14T09:35:30Z</time>
      </trkpt>
      <trkpt lat="42.2666850" lon="1.6945990">
        <ele>1874.9</ele>
        <time>2015-08-14T09:35:31Z</time>
      </trkpt>
      <trkpt lat="42.2666960" lon="1.6946380">
        <ele>1875.0</ele>
        <time>2015-08-14T09:35:32Z</time>
      </trkpt>
      <trkpt lat="42.2667100" lon="1.6946760">
        <ele>1875.2</ele>
        <time>2015-08-14T09:35:33Z</time>
      </trkpt>
      <trkpt lat="42.2667190" lon="1.6947150">
        <ele>1875.2</ele>
        <time>2015-08-14T09:35:34Z</time>
      </trkpt>
      <trkpt lat="42.2667230" lon="1.6947540">
        <ele>1875.2</ele>
        <time>2015-08-14T09:35:35Z</time>
      </trkpt>
      <trkpt lat="42.2667320" lon="1.6948330">
        <ele>1875.0</ele>
        <time>2015-08-14T09:35:37Z</time>
      </trkpt>
      <trkpt lat="42.2667540" lon="1.6948650">
        <ele>1875.4</ele>
        <time>2015-08-14T09:35:38Z</time>
      </trkpt>
      <trkpt lat="42.2667670" lon="1.6949370">
        <ele>1875.4</ele>
        <time>2015-08-14T09:35:40Z</time>
      </trkpt>
      <trkpt lat="42.2667790" lon="1.6950060">
        <ele>1875.4</ele>
        <time>2015-08-14T09:35:42Z</time>
      </trkpt>
      <trkpt lat="42.2667830" lon="1.6950450">
        <ele>1875.3</ele>
        <time>2015-08-14T09:35:43Z</time>
      </trkpt>
      <trkpt lat="42.2667970" lon="1.6950780">
        <ele>1875.4</ele>
        <time>2015-08-14T09:35:44Z</time>
      </trkpt>
      <trkpt lat="42.2668130" lon="1.6951170">
        <ele>1875.6</ele>
        <time>2015-08-14T09:35:45Z</time>
      </trkpt>
      <trkpt lat="42.2668190" lon="1.6951530">
        <ele>1875.6</ele>
        <time>2015-08-14T09:35:46Z</time>
      </trkpt>
      <trkpt lat="42.2668280" lon="1.6951920">
        <ele>1875.6</ele>
        <time>2015-08-14T09:35:47Z</time>
      </trkpt>
      <trkpt lat="42.2668350" lon="1.6952320">
        <ele>1875.5</ele>
        <time>2015-08-14T09:35:48Z</time>
      </trkpt>
      <trkpt lat="42.2668470" lon="1.6952680">
        <ele>1875.6</ele>
        <time>2015-08-14T09:35:49Z</time>
      </trkpt>
      <trkpt lat="42.2668580" lon="1.6953080">
        <ele>1875.7</ele>
        <time>2015-08-14T09:35:50Z</time>
      </trkpt>
      <trkpt lat="42.2668680" lon="1.6953420">
        <ele>1875.7</ele>
        <time>2015-08-14T09:35:51Z</time>
      </trkpt>
      <trkpt lat="42.2668810" lon="1.6954000">
        <ele>1875.7</ele>
        <time>2015-08-14T09:35:52Z</time>
      </trkpt>
      <trkpt lat="42.2668910" lon="1.6954350">
        <ele>1875.7</ele>
        <time>2015-08-14T09:35:53Z</time>
      </trkpt>
      <trkpt lat="42.2668980" lon="1.6954740">
        <ele>1875.6</ele>
        <time>2015-08-14T09:35:54Z</time>
      </trkpt>
      <trkpt lat="42.2669080" lon="1.6955510">
        <ele>1875.3</ele>
        <time>2015-08-14T09:35:56Z</time>
      </trkpt>
      <trkpt lat="42.2669250" lon="1.6955880">
        <ele>1875.4</ele>
        <time>2015-08-14T09:35:57Z</time>
      </trkpt>
      <trkpt lat="42.2669430" lon="1.6956540">
        <ele>1875.3</ele>
        <time>2015-08-14T09:35:59Z</time>
      </trkpt>
      <trkpt lat="42.2669510" lon="1.6956910">
        <ele>1875.2</ele>
        <time>2015-08-14T09:36:00Z</time>
      </trkpt>
      <trkpt lat="42.2669660" lon="1.6957220">
        <ele>1875.2</ele>
        <time>2015-08-14T09:36:01Z</time>
      </trkpt>
      <trkpt lat="42.2669800" lon="1.6957550">
        <ele>1875.2</ele>
        <time>2015-08-14T09:36:02Z</time>
      </trkpt>
      <trkpt lat="42.2669880" lon="1.6957910">
        <ele>1875.1</ele>
        <time>2015-08-14T09:36:03Z</time>
      </trkpt>
      <trkpt lat="42.2670060" lon="1.6958210">
        <ele>1875.2</ele>
        <time>2015-08-14T09:36:04Z</time>
      </trkpt>
      <trkpt lat="42.2670170" lon="1.6958570">
        <ele>1875.1</ele>
        <time>2015-08-14T09:36:05Z</time>
      </trkpt>
      <trkpt lat="42.2670350" lon="1.6958890">
        <ele>1875.2</ele>
        <time>2015-08-14T09:36:06Z</time>
      </trkpt>
      <trkpt lat="42.2670480" lon="1.6959320">
        <ele>1875.1</ele>
        <time>2015-08-14T09:36:07Z</time>
      </trkpt>
      <trkpt lat="42.2670780" lon="1.6959830">
        <ele>1875.2</ele>
        <time>2015-08-14T09:36:09Z</time>
      </trkpt>
      <trkpt lat="42.2671000" lon="1.6960440">
        <ele>1875.5</ele>
        <time>2015-08-14T09:36:11Z</time>
      </trkpt>
      <trkpt lat="42.2671320" lon="1.6961020">
        <ele>1876.4</ele>
        <time>2015-08-14T09:36:13Z</time>
      </trkpt>
      <trkpt lat="42.2671620" lon="1.6961550">
        <ele>1877.3</ele>
        <time>2015-08-14T09:36:15Z</time>
      </trkpt>
      <trkpt lat="42.2671810" lon="1.6961980">
        <ele>1877.7</ele>
        <time>2015-08-14T09:36:16Z</time>
      </trkpt>
      <trkpt lat="42.2672180" lon="1.6962430">
        <ele>1878.9</ele>
        <time>2015-08-14T09:36:18Z</time>
      </trkpt>
      <trkpt lat="42.2672350" lon="1.6962820">
        <ele>1879.3</ele>
        <time>2015-08-14T09:36:19Z</time>
      </trkpt>
      <trkpt lat="42.2672520" lon="1.6963190">
        <ele>1879.7</ele>
        <time>2015-08-14T09:36:20Z</time>
      </trkpt>
      <trkpt lat="42.2672660" lon="1.6963550">
        <ele>1880.0</ele>
        <time>2015-08-14T09:36:21Z</time>
      </trkpt>
      <trkpt lat="42.2672810" lon="1.6963900">
        <ele>1880.3</ele>
        <time>2015-08-14T09:36:22Z</time>
      </trkpt>
      <trkpt lat="42.2673100" lon="1.6964250">
        <ele>1881.1</ele>
        <time>2015-08-14T09:36:23Z</time>
      </trkpt>
      <trkpt lat="42.2673370" lon="1.6964600">
        <ele>1881.8</ele>
        <time>2015-08-14T09:36:24Z</time>
      </trkpt>
      <trkpt lat="42.2673650" lon="1.6964830">
        <ele>1882.6</ele>
        <time>2015-08-14T09:36:25Z</time>
      </trkpt>
      <trkpt lat="42.2673940" lon="1.6965090">
        <ele>1883.4</ele>
        <time>2015-08-14T09:36:26Z</time>
      </trkpt>
      <trkpt lat="42.2674170" lon="1.6965330">
        <ele>1884.0</ele>
        <time>2015-08-14T09:36:27Z</time>
      </trkpt>
      <trkpt lat="42.2674410" lon="1.6965550">
        <ele>1884.6</ele>
        <time>2015-08-14T09:36:28Z</time>
      </trkpt>
      <trkpt lat="42.2674710" lon="1.6965900">
        <ele>1885.3</ele>
        <time>2015-08-14T09:36:29Z</time>
      </trkpt>
      <trkpt lat="42.2675020" lon="1.6966140">
        <ele>1886.0</ele>
        <time>2015-08-14T09:36:30Z</time>
      </trkpt>
      <trkpt lat="42.2675270" lon="1.6966300">
        <ele>1886.7</ele>
        <time>2015-08-14T09:36:31Z</time>
      </trkpt>
      <trkpt lat="42.2675630" lon="1.6966820">
        <ele>1887.2</ele>
        <time>2015-08-14T09:36:33Z</time>
      </trkpt>
      <trkpt lat="42.2675920" lon="1.6967200">
        <ele>1887.6</ele>
        <time>2015-08-14T09:36:34Z</time>
      </trkpt>
      <trkpt lat="42.2676180" lon="1.6967460">
        <ele>1888.0</ele>
        <time>2015-08-14T09:36:35Z</time>
      </trkpt>
      <trkpt lat="42.2676380" lon="1.6967870">
        <ele>1888.0</ele>
        <time>2015-08-14T09:36:36Z</time>
      </trkpt>
      <trkpt lat="42.2676630" lon="1.6968580">
        <ele>1887.5</ele>
        <time>2015-08-14T09:36:38Z</time>
      </trkpt>
      <trkpt lat="42.2676750" lon="1.6968960">
        <ele>1887.2</ele>
        <time>2015-08-14T09:36:39Z</time>
      </trkpt>
      <trkpt lat="42.2676920" lon="1.6969250">
        <ele>1887.2</ele>
        <time>2015-08-14T09:36:40Z</time>
      </trkpt>
      <trkpt lat="42.2677100" lon="1.6969570">
        <ele>1887.1</ele>
        <time>2015-08-14T09:36:41Z</time>
      </trkpt>
      <trkpt lat="42.2677290" lon="1.6969830">
        <ele>1887.2</ele>
        <time>2015-08-14T09:36:42Z</time>
      </trkpt>
      <trkpt lat="42.2677430" lon="1.6970570">
        <ele>1886.1</ele>
        <time>2015-08-14T09:36:44Z</time>
      </trkpt>
      <trkpt lat="42.2677600" lon="1.6970890">
        <ele>1886.0</ele>
        <time>2015-08-14T09:36:45Z</time>
      </trkpt>
      <trkpt lat="42.2677810" lon="1.6971200">
        <ele>1886.3</ele>
        <time>2015-08-14T09:36:46Z</time>
      </trkpt>
      <trkpt lat="42.2678060" lon="1.6971530">
        <ele>1886.6</ele>
        <time>2015-08-14T09:36:47Z</time>
      </trkpt>
      <trkpt lat="42.2678230" lon="1.6971850">
        <ele>1886.7</ele>
        <time>2015-08-14T09:36:48Z</time>
      </trkpt>
      <trkpt lat="42.2678400" lon="1.6972170">
        <ele>1886.7</ele>
        <time>2015-08-14T09:36:49Z</time>
      </trkpt>
      <trkpt lat="42.2678580" lon="1.6972480">
        <ele>1886.8</ele>
        <time>2015-08-14T09:36:50Z</time>
      </trkpt>
      <trkpt lat="42.2678700" lon="1.6972910">
        <ele>1886.6</ele>
        <time>2015-08-14T09:36:51Z</time>
      </trkpt>
      <trkpt lat="42.2678860" lon="1.6973300">
        <ele>1886.5</ele>
        <time>2015-08-14T09:36:52Z</time>
      </trkpt>
      <trkpt lat="42.2678990" lon="1.6973630">
        <ele>1886.3</ele>
        <time>2015-08-14T09:36:53Z</time>
      </trkpt>
      <trkpt lat="42.2679070" lon="1.6973980">
        <ele>1886.1</ele>
        <time>2015-08-14T09:36:54Z</time>
      </trkpt>
      <trkpt lat="42.2679300" lon="1.6974780">
        <ele>1885.9</ele>
        <time>2015-08-14T09:36:56Z</time>
      </trkpt>
      <trkpt lat="42.2679440" lon="1.6975160">
        <ele>1886.1</ele>
        <time>2015-08-14T09:36:57Z</time>
      </trkpt>
      <trkpt lat="42.2679580" lon="1.6975540">
        <ele>1886.3</ele>
        <time>2015-08-14T09:36:58Z</time>
      </trkpt>
      <trkpt lat="42.2679740" lon="1.6975990">
        <ele>1886.5</ele>
        <time>2015-08-14T09:36:59Z</time>
      </trkpt>
      <trkpt lat="42.2679850" lon="1.6976460">
        <ele>1886.4</ele>
        <time>2015-08-14T09:37:00Z</time>
      </trkpt>
      <trkpt lat="42.2679920" lon="1.6976880">
        <ele>1886.2</ele>
        <time>2015-08-14T09:37:01Z</time>
      </trkpt>
      <trkpt lat="42.2679950" lon="1.6977310">
        <ele>1885.8</ele>
        <time>2015-08-14T09:37:02Z</time>
      </trkpt>
      <trkpt lat="42.2680010" lon="1.6977670">
        <ele>1885.7</ele>
        <time>2015-08-14T09:37:03Z</time>
      </trkpt>
      <trkpt lat="42.2680060" lon="1.6978380">
        <ele>1885.0</ele>
        <time>2015-08-14T09:37:05Z</time>
      </trkpt>
      <trkpt lat="42.2680130" lon="1.6978780">
        <ele>1884.9</ele>
        <time>2015-08-14T09:37:06Z</time>
      </trkpt>
      <trkpt lat="42.2680210" lon="1.6979230">
        <ele>1884.8</ele>
        <time>2015-08-14T09:37:07Z</time>
      </trkpt>
      <trkpt lat="42.2680300" lon="1.6979590">
        <ele>1885.2</ele>
        <time>2015-08-14T09:37:08Z</time>
      </trkpt>
      <trkpt lat="42.2680440" lon="1.6979910">
        <ele>1885.8</ele>
        <time>2015-08-14T09:37:09Z</time>
      </trkpt>
      <trkpt lat="42.2680610" lon="1.6980630">
        <ele>1886.6</ele>
        <time>2015-08-14T09:37:11Z</time>
      </trkpt>
      <trkpt lat="42.2680680" lon="1.6981030">
        <ele>1886.9</ele>
        <time>2015-08-14T09:37:12Z</time>
      </trkpt>
      <trkpt lat="42.2680760" lon="1.6981390">
        <ele>1887.2</ele>
        <time>2015-08-14T09:37:13Z</time>
      </trkpt>
      <trkpt lat="42.2680760" lon="1.6982090">
        <ele>1887.2</ele>
        <time>2015-08-14T09:37:15Z</time>
      </trkpt>
      <trkpt lat="42.2680870" lon="1.6982520">
        <ele>1887.7</ele>
        <time>2015-08-14T09:37:16Z</time>
      </trkpt>
      <trkpt lat="42.2680970" lon="1.6982880">
        <ele>1888.1</ele>
        <time>2015-08-14T09:37:17Z</time>
      </trkpt>
      <trkpt lat="42.2681010" lon="1.6983300">
        <ele>1888.2</ele>
        <time>2015-08-14T09:37:18Z</time>
      </trkpt>
      <trkpt lat="42.2681030" lon="1.6983720">
        <ele>1888.3</ele>
        <time>2015-08-14T09:37:19Z</time>
      </trkpt>
      <trkpt lat="42.2681080" lon="1.6984150">
        <ele>1888.5</ele>
        <time>2015-08-14T09:37:20Z</time>
      </trkpt>
      <trkpt lat="42.2681140" lon="1.6984530">
        <ele>1888.7</ele>
        <time>2015-08-14T09:37:21Z</time>
      </trkpt>
      <trkpt lat="42.2681240" lon="1.6984930">
        <ele>1889.1</ele>
        <time>2015-08-14T09:37:22Z</time>
      </trkpt>
      <trkpt lat="42.2681340" lon="1.6985320">
        <ele>1889.5</ele>
        <time>2015-08-14T09:37:23Z</time>
      </trkpt>
      <trkpt lat="42.2681390" lon="1.6985690">
        <ele>1889.7</ele>
        <time>2015-08-14T09:37:24Z</time>
      </trkpt>
      <trkpt lat="42.2681440" lon="1.6986080">
        <ele>1889.8</ele>
        <time>2015-08-14T09:37:25Z</time>
      </trkpt>
      <trkpt lat="42.2681540" lon="1.6986460">
        <ele>1890.2</ele>
        <time>2015-08-14T09:37:26Z</time>
      </trkpt>
      <trkpt lat="42.2681620" lon="1.6986880">
        <ele>1890.5</ele>
        <time>2015-08-14T09:37:27Z</time>
      </trkpt>
      <trkpt lat="42.2681760" lon="1.6987270">
        <ele>1891.0</ele>
        <time>2015-08-14T09:37:28Z</time>
      </trkpt>
      <trkpt lat="42.2681900" lon="1.6987700">
        <ele>1891.6</ele>
        <time>2015-08-14T09:37:29Z</time>
      </trkpt>
      <trkpt lat="42.2682090" lon="1.6988100">
        <ele>1892.5</ele>
        <time>2015-08-14T09:37:30Z</time>
      </trkpt>
      <trkpt lat="42.2682290" lon="1.6988500">
        <ele>1893.4</ele>
        <time>2015-08-14T09:37:31Z</time>
      </trkpt>
      <trkpt lat="42.2682430" lon="1.6988860">
        <ele>1894.0</ele>
        <time>2015-08-14T09:37:32Z</time>
      </trkpt>
      <trkpt lat="42.2682480" lon="1.6989220">
        <ele>1894.3</ele>
        <time>2015-08-14T09:37:33Z</time>
      </trkpt>
      <trkpt lat="42.2682690" lon="1.6989560">
        <ele>1895.1</ele>
        <time>2015-08-14T09:37:34Z</time>
      </trkpt>
      <trkpt lat="42.2682920" lon="1.6989900">
        <ele>1896.0</ele>
        <time>2015-08-14T09:37:35Z</time>
      </trkpt>
      <trkpt lat="42.2683150" lon="1.6990560">
        <ele>1896.8</ele>
        <time>2015-08-14T09:37:37Z</time>
      </trkpt>
      <trkpt lat="42.2683350" lon="1.6990950">
        <ele>1897.5</ele>
        <time>2015-08-14T09:37:38Z</time>
      </trkpt>
      <trkpt lat="42.2683530" lon="1.6991410">
        <ele>1898.0</ele>
        <time>2015-08-14T09:37:39Z</time>
      </trkpt>
      <trkpt lat="42.2683600" lon="1.6991760">
        <ele>1898.2</ele>
        <time>2015-08-14T09:37:40Z</time>
      </trkpt>
      <trkpt lat="42.2683680" lon="1.6992170">
        <ele>1898.5</ele>
        <time>2015-08-14T09:37:41Z</time>
      </trkpt>
      <trkpt lat="42.2683790" lon="1.6992610">
        <ele>1898.8</ele>
        <time>2015-08-14T09:37:42Z</time>
      </trkpt>
      <trkpt lat="42.2683940" lon="1.6993000">
        <ele>1899.1</ele>
        <time>2015-08-14T09:37:43Z</time>
      </trkpt>
      <trkpt lat="42.2684080" lon="1.6993350">
        <ele>1899.4</ele>
        <time>2015-08-14T09:37:44Z</time>
      </trkpt>
      <trkpt lat="42.2684160" lon="1.6993780">
        <ele>1899.6</ele>
        <time>2015-08-14T09:37:45Z</time>
      </trkpt>
      <trkpt lat="42.2684240" lon="1.6994160">
        <ele>1899.7</ele>
        <time>2015-08-14T09:37:46Z</time>
      </trkpt>
      <trkpt lat="42.2684360" lon="1.6994530">
        <ele>1899.9</ele>
        <time>2015-08-14T09:37:47Z</time>
      </trkpt>
      <trkpt lat="42.2684420" lon="1.6994900">
        <ele>1900.0</ele>
        <time>2015-08-14T09:37:48Z</time>
      </trkpt>
      <trkpt lat="42.2684540" lon="1.6995350">
        <ele>1900.1</ele>
        <time>2015-08-14T09:37:49Z</time>
      </trkpt>
      <trkpt lat="42.2684590" lon="1.6995880">
        <ele>1900.1</ele>
        <time>2015-08-14T09:37:50Z</time>
      </trkpt>
      <trkpt lat="42.2684580" lon="1.6996430">
        <ele>1900.3</ele>
        <time>2015-08-14T09:37:51Z</time>
      </trkpt>
      <trkpt lat="42.2684340" lon="1.6996830">
        <ele>1900.0</ele>
        <time>2015-08-14T09:37:52Z</time>
      </trkpt>
      <trkpt lat="42.2684190" lon="1.6997230">
        <ele>1899.9</ele>
        <time>2015-08-14T09:37:53Z</time>
      </trkpt>
      <trkpt lat="42.2684050" lon="1.6997660">
        <ele>1899.9</ele>
        <time>2015-08-14T09:37:54Z</time>
      </trkpt>
      <trkpt lat="42.2683990" lon="1.6998130">
        <ele>1900.0</ele>
        <time>2015-08-14T09:37:55Z</time>
      </trkpt>
      <trkpt lat="42.2683940" lon="1.6998570">
        <ele>1900.1</ele>
        <time>2015-08-14T09:37:56Z</time>
      </trkpt>
      <trkpt lat="42.2683890" lon="1.6998990">
        <ele>1900.2</ele>
        <time>2015-08-14T09:37:57Z</time>
      </trkpt>
      <trkpt lat="42.2683850" lon="1.6999480">
        <ele>1900.3</ele>
        <time>2015-08-14T09:37:58Z</time>
      </trkpt>
      <trkpt lat="42.2683930" lon="1.6999920">
        <ele>1900.6</ele>
        <time>2015-08-14T09:37:59Z</time>
      </trkpt>
      <trkpt lat="42.2684000" lon="1.7000320">
        <ele>1900.8</ele>
        <time>2015-08-14T09:38:00Z</time>
      </trkpt>
      <trkpt lat="42.2684050" lon="1.7000790">
        <ele>1901.1</ele>
        <time>2015-08-14T09:38:01Z</time>
      </trkpt>
      <trkpt lat="42.2684060" lon="1.7001160">
        <ele>1901.2</ele>
        <time>2015-08-14T09:38:02Z</time>
      </trkpt>
      <trkpt lat="42.2684170" lon="1.7001850">
        <ele>1901.6</ele>
        <time>2015-08-14T09:38:04Z</time>
      </trkpt>
      <trkpt lat="42.2684190" lon="1.7002280">
        <ele>1901.7</ele>
        <time>2015-08-14T09:38:05Z</time>
      </trkpt>
      <trkpt lat="42.2684220" lon="1.7002680">
        <ele>1901.9</ele>
        <time>2015-08-14T09:38:06Z</time>
      </trkpt>
      <trkpt lat="42.2684250" lon="1.7003150">
        <ele>1902.1</ele>
        <time>2015-08-14T09:38:07Z</time>
      </trkpt>
      <trkpt lat="42.2684280" lon="1.7003590">
        <ele>1902.3</ele>
        <time>2015-08-14T09:38:08Z</time>
      </trkpt>
      <trkpt lat="42.2684280" lon="1.7003980">
        <ele>1902.4</ele>
        <time>2015-08-14T09:38:09Z</time>
      </trkpt>
      <trkpt lat="42.2684240" lon="1.7004370">
        <ele>1902.5</ele>
        <time>2015-08-14T09:38:10Z</time>
      </trkpt>
      <trkpt lat="42.2684270" lon="1.7004990">
        <ele>1902.8</ele>
        <time>2015-08-14T09:38:12Z</time>
      </trkpt>
      <trkpt lat="42.2684220" lon="1.7005630">
        <ele>1903.1</ele>
        <time>2015-08-14T09:38:14Z</time>
      </trkpt>
      <trkpt lat="42.2684190" lon="1.7006320">
        <ele>1903.3</ele>
        <time>2015-08-14T09:38:16Z</time>
      </trkpt>
      <trkpt lat="42.2684230" lon="1.7006680">
        <ele>1903.5</ele>
        <time>2015-08-14T09:38:17Z</time>
      </trkpt>
      <trkpt lat="42.2684310" lon="1.7007280">
        <ele>1903.8</ele>
        <time>2015-08-14T09:38:19Z</time>
      </trkpt>
      <trkpt lat="42.2684360" lon="1.7007940">
        <ele>1904.1</ele>
        <time>2015-08-14T09:38:21Z</time>
      </trkpt>
      <trkpt lat="42.2684380" lon="1.7008310">
        <ele>1904.2</ele>
        <time>2015-08-14T09:38:22Z</time>
      </trkpt>
      <trkpt lat="42.2684450" lon="1.7008690">
        <ele>1904.4</ele>
        <time>2015-08-14T09:38:23Z</time>
      </trkpt>
      <trkpt lat="42.2684560" lon="1.7009370">
        <ele>1904.7</ele>
        <time>2015-08-14T09:38:25Z</time>
      </trkpt>
      <trkpt lat="42.2684770" lon="1.7010020">
        <ele>1905.0</ele>
        <time>2015-08-14T09:38:27Z</time>
      </trkpt>
      <trkpt lat="42.2684970" lon="1.7010650">
        <ele>1905.3</ele>
        <time>2015-08-14T09:38:29Z</time>
      </trkpt>
      <trkpt lat="42.2685100" lon="1.7011270">
        <ele>1905.5</ele>
        <time>2015-08-14T09:38:31Z</time>
      </trkpt>
      <trkpt lat="42.2685120" lon="1.7011650">
        <ele>1905.7</ele>
        <time>2015-08-14T09:38:32Z</time>
      </trkpt>
      <trkpt lat="42.2685140" lon="1.7012020">
        <ele>1905.8</ele>
        <time>2015-08-14T09:38:33Z</time>
      </trkpt>
      <trkpt lat="42.2685140" lon="1.7012400">
        <ele>1906.0</ele>
        <time>2015-08-14T09:38:34Z</time>
      </trkpt>
      <trkpt lat="42.2685160" lon="1.7012780">
        <ele>1906.2</ele>
        <time>2015-08-14T09:38:35Z</time>
      </trkpt>
      <trkpt lat="42.2685000" lon="1.7013510">
        <ele>1906.6</ele>
        <time>2015-08-14T09:38:37Z</time>
      </trkpt>
      <trkpt lat="42.2684950" lon="1.7013880">
        <ele>1906.9</ele>
        <time>2015-08-14T09:38:38Z</time>
      </trkpt>
      <trkpt lat="42.2684930" lon="1.7014250">
        <ele>1907.1</ele>
        <time>2015-08-14T09:38:39Z</time>
      </trkpt>
      <trkpt lat="42.2684830" lon="1.7014880">
        <ele>1907.5</ele>
        <time>2015-08-14T09:38:41Z</time>
      </trkpt>
      <trkpt lat="42.2684660" lon="1.7015510">
        <ele>1907.9</ele>
        <time>2015-08-14T09:38:43Z</time>
      </trkpt>
      <trkpt lat="42.2684520" lon="1.7016180">
        <ele>1908.4</ele>
        <time>2015-08-14T09:38:45Z</time>
      </trkpt>
      <trkpt lat="42.2684430" lon="1.7016850">
        <ele>1908.9</ele>
        <time>2015-08-14T09:38:47Z</time>
      </trkpt>
      <trkpt lat="42.2684370" lon="1.7017230">
        <ele>1909.1</ele>
        <time>2015-08-14T09:38:48Z</time>
      </trkpt>
      <trkpt lat="42.2684320" lon="1.7017650">
        <ele>1909.4</ele>
        <time>2015-08-14T09:38:49Z</time>
      </trkpt>
      <trkpt lat="42.2684290" lon="1.7018390">
        <ele>1909.9</ele>
        <time>2015-08-14T09:38:51Z</time>
      </trkpt>
      <trkpt lat="42.2684110" lon="1.7018970">
        <ele>1910.4</ele>
        <time>2015-08-14T09:38:53Z</time>
      </trkpt>
      <trkpt lat="42.2683830" lon="1.7019560">
        <ele>1910.9</ele>
        <time>2015-08-14T09:38:55Z</time>
      </trkpt>
      <trkpt lat="42.2683690" lon="1.7019880">
        <ele>1911.2</ele>
        <time>2015-08-14T09:38:56Z</time>
      </trkpt>
      <trkpt lat="42.2683400" lon="1.7020370">
        <ele>1911.6</ele>
        <time>2015-08-14T09:38:58Z</time>
      </trkpt>
      <trkpt lat="42.2683100" lon="1.7020710">
        <ele>1912.0</ele>
        <time>2015-08-14T09:39:00Z</time>
      </trkpt>
      <trkpt lat="42.2682690" lon="1.7021100">
        <ele>1912.7</ele>
        <time>2015-08-14T09:39:02Z</time>
      </trkpt>
      <trkpt lat="42.2682270" lon="1.7021520">
        <ele>1913.4</ele>
        <time>2015-08-14T09:39:04Z</time>
      </trkpt>
      <trkpt lat="42.2681950" lon="1.7022070">
        <ele>1914.2</ele>
        <time>2015-08-14T09:39:06Z</time>
      </trkpt>
      <trkpt lat="42.2681670" lon="1.7022700">
        <ele>1915.2</ele>
        <time>2015-08-14T09:39:08Z</time>
      </trkpt>
      <trkpt lat="42.2681530" lon="1.7023030">
        <ele>1915.6</ele>
        <time>2015-08-14T09:39:09Z</time>
      </trkpt>
      <trkpt lat="42.2681270" lon="1.7023620">
        <ele>1916.4</ele>
        <time>2015-08-14T09:39:11Z</time>
      </trkpt>
      <trkpt lat="42.2681040" lon="1.7024190">
        <ele>1917.2</ele>
        <time>2015-08-14T09:39:13Z</time>
      </trkpt>
      <trkpt lat="42.2680960" lon="1.7024550">
        <ele>1917.6</ele>
        <time>2015-08-14T09:39:14Z</time>
      </trkpt>
      <trkpt lat="42.2680900" lon="1.7024930">
        <ele>1918.1</ele>
        <time>2015-08-14T09:39:15Z</time>
      </trkpt>
      <trkpt lat="42.2680830" lon="1.7025290">
        <ele>1918.5</ele>
        <time>2015-08-14T09:39:16Z</time>
      </trkpt>
      <trkpt lat="42.2680850" lon="1.7026010">
        <ele>1919.4</ele>
        <time>2015-08-14T09:39:18Z</time>
      </trkpt>
      <trkpt lat="42.2681010" lon="1.7026620">
        <ele>1920.1</ele>
        <time>2015-08-14T09:39:20Z</time>
      </trkpt>
      <trkpt lat="42.2681130" lon="1.7027180">
        <ele>1920.8</ele>
        <time>2015-08-14T09:39:22Z</time>
      </trkpt>
      <trkpt lat="42.2681200" lon="1.7027840">
        <ele>1921.6</ele>
        <time>2015-08-14T09:39:24Z</time>
      </trkpt>
      <trkpt lat="42.2681190" lon="1.7028250">
        <ele>1922.1</ele>
        <time>2015-08-14T09:39:25Z</time>
      </trkpt>
      <trkpt lat="42.2681150" lon="1.7028680">
        <ele>1922.6</ele>
        <time>2015-08-14T09:39:26Z</time>
      </trkpt>
      <trkpt lat="42.2681100" lon="1.7029070">
        <ele>1923.1</ele>
        <time>2015-08-14T09:39:27Z</time>
      </trkpt>
      <trkpt lat="42.2681020" lon="1.7029460">
        <ele>1923.2</ele>
        <time>2015-08-14T09:39:28Z</time>
      </trkpt>
      <trkpt lat="42.2680930" lon="1.7029820">
        <ele>1923.1</ele>
        <time>2015-08-14T09:39:29Z</time>
      </trkpt>
      <trkpt lat="42.2680860" lon="1.7030210">
        <ele>1923.1</ele>
        <time>2015-08-14T09:39:30Z</time>
      </trkpt>
      <trkpt lat="42.2680800" lon="1.7030560">
        <ele>1923.0</ele>
        <time>2015-08-14T09:39:31Z</time>
      </trkpt>
      <trkpt lat="42.2680770" lon="1.7030970">
        <ele>1922.9</ele>
        <time>2015-08-14T09:39:32Z</time>
      </trkpt>
      <trkpt lat="42.2680750" lon="1.7031350">
        <ele>1922.9</ele>
        <time>2015-08-14T09:39:33Z</time>
      </trkpt>
      <trkpt lat="42.2680780" lon="1.7032060">
        <ele>1922.8</ele>
        <time>2015-08-14T09:39:35Z</time>
      </trkpt>
      <trkpt lat="42.2680760" lon="1.7032480">
        <ele>1922.7</ele>
        <time>2015-08-14T09:39:36Z</time>
      </trkpt>
      <trkpt lat="42.2680860" lon="1.7032840">
        <ele>1922.7</ele>
        <time>2015-08-14T09:39:37Z</time>
      </trkpt>
      <trkpt lat="42.2680890" lon="1.7033500">
        <ele>1922.6</ele>
        <time>2015-08-14T09:39:39Z</time>
      </trkpt>
      <trkpt lat="42.2680850" lon="1.7033870">
        <ele>1922.5</ele>
        <time>2015-08-14T09:39:40Z</time>
      </trkpt>
      <trkpt lat="42.2680840" lon="1.7034600">
        <ele>1922.4</ele>
        <time>2015-08-14T09:39:42Z</time>
      </trkpt>
      <trkpt lat="42.2680740" lon="1.7035300">
        <ele>1922.3</ele>
        <time>2015-08-14T09:39:44Z</time>
      </trkpt>
      <trkpt lat="42.2680680" lon="1.7035950">
        <ele>1922.2</ele>
        <time>2015-08-14T09:39:46Z</time>
      </trkpt>
      <trkpt lat="42.2680590" lon="1.7036700">
        <ele>1922.1</ele>
        <time>2015-08-14T09:39:48Z</time>
      </trkpt>
      <trkpt lat="42.2680510" lon="1.7037090">
        <ele>1922.1</ele>
        <time>2015-08-14T09:39:49Z</time>
      </trkpt>
      <trkpt lat="42.2680440" lon="1.7037450">
        <ele>1922.0</ele>
        <time>2015-08-14T09:39:50Z</time>
      </trkpt>
      <trkpt lat="42.2680330" lon="1.7038130">
        <ele>1922.3</ele>
        <time>2015-08-14T09:39:52Z</time>
      </trkpt>
      <trkpt lat="42.2680100" lon="1.7038400">
        <ele>1922.4</ele>
        <time>2015-08-14T09:39:53Z</time>
      </trkpt>
      <trkpt lat="42.2680010" lon="1.7038820">
        <ele>1922.6</ele>
        <time>2015-08-14T09:39:54Z</time>
      </trkpt>
      <trkpt lat="42.2679930" lon="1.7039220">
        <ele>1922.8</ele>
        <time>2015-08-14T09:39:55Z</time>
      </trkpt>
      <trkpt lat="42.2679880" lon="1.7039690">
        <ele>1923.0</ele>
        <time>2015-08-14T09:39:56Z</time>
      </trkpt>
      <trkpt lat="42.2679780" lon="1.7040040">
        <ele>1923.2</ele>
        <time>2015-08-14T09:39:57Z</time>
      </trkpt>
      <trkpt lat="42.2679660" lon="1.7040450">
        <ele>1923.4</ele>
        <time>2015-08-14T09:39:58Z</time>
      </trkpt>
      <trkpt lat="42.2679520" lon="1.7041140">
        <ele>1923.7</ele>
        <time>2015-08-14T09:40:00Z</time>
      </trkpt>
      <trkpt lat="42.2679500" lon="1.7041530">
        <ele>1923.9</ele>
        <time>2015-08-14T09:40:01Z</time>
      </trkpt>
      <trkpt lat="42.2679480" lon="1.7042230">
        <ele>1924.2</ele>
        <time>2015-08-14T09:40:03Z</time>
      </trkpt>
      <trkpt lat="42.2679550" lon="1.7042620">
        <ele>1924.4</ele>
        <time>2015-08-14T09:40:05Z</time>
      </trkpt>
      <trkpt lat="42.2679620" lon="1.7043090">
        <ele>1924.6</ele>
        <time>2015-08-14T09:40:07Z</time>
      </trkpt>
      <trkpt lat="42.2679710" lon="1.7043440">
        <ele>1924.8</ele>
        <time>2015-08-14T09:40:34Z</time>
      </trkpt>
      <trkpt lat="42.2679860" lon="1.7043100">
        <ele>1924.6</ele>
        <time>2015-08-14T09:40:36Z</time>
      </trkpt>
      <trkpt lat="42.2679890" lon="1.7043530">
        <ele>1924.8</ele>
        <time>2015-08-14T09:47:42Z</time>
      </trkpt>
      <trkpt lat="42.2679740" lon="1.7043950">
        <ele>1925.0</ele>
        <time>2015-08-14T09:48:12Z</time>
      </trkpt>
      <trkpt lat="42.2679930" lon="1.7044270">
        <ele>1925.1</ele>
        <time>2015-08-14T09:48:13Z</time>
      </trkpt>
      <trkpt lat="42.2680010" lon="1.7044620">
        <ele>1925.2</ele>
        <time>2015-08-14T09:48:14Z</time>
      </trkpt>
      <trkpt lat="42.2680080" lon="1.7045090">
        <ele>1925.4</ele>
        <time>2015-08-14T09:48:15Z</time>
      </trkpt>
      <trkpt lat="42.2680220" lon="1.7045560">
        <ele>1925.6</ele>
        <time>2015-08-14T09:48:16Z</time>
      </trkpt>
      <trkpt lat="42.2680390" lon="1.7045850">
        <ele>1925.7</ele>
        <time>2015-08-14T09:48:17Z</time>
      </trkpt>
      <trkpt lat="42.2680630" lon="1.7046440">
        <ele>1925.4</ele>
        <time>2015-08-14T09:48:18Z</time>
      </trkpt>
      <trkpt lat="42.2680890" lon="1.7046910">
        <ele>1925.2</ele>
        <time>2015-08-14T09:48:19Z</time>
      </trkpt>
      <trkpt lat="42.2681900" lon="1.7047570">
        <ele>1924.6</ele>
        <time>2015-08-14T09:48:20Z</time>
      </trkpt>
      <trkpt lat="42.2682150" lon="1.7048150">
        <ele>1924.2</ele>
        <time>2015-08-14T09:48:21Z</time>
      </trkpt>
      <trkpt lat="42.2682320" lon="1.7048870">
        <ele>1923.8</ele>
        <time>2015-08-14T09:48:22Z</time>
      </trkpt>
      <trkpt lat="42.2682260" lon="1.7049720">
        <ele>1923.5</ele>
        <time>2015-08-14T09:48:23Z</time>
      </trkpt>
      <trkpt lat="42.2682190" lon="1.7050590">
        <ele>1923.1</ele>
        <time>2015-08-14T09:48:24Z</time>
      </trkpt>
      <trkpt lat="42.2682240" lon="1.7051240">
        <ele>1922.8</ele>
        <time>2015-08-14T09:48:25Z</time>
      </trkpt>
      <trkpt lat="42.2682430" lon="1.7051940">
        <ele>1922.3</ele>
        <time>2015-08-14T09:48:26Z</time>
      </trkpt>
      <trkpt lat="42.2682570" lon="1.7052850">
        <ele>1921.8</ele>
        <time>2015-08-14T09:48:27Z</time>
      </trkpt>
      <trkpt lat="42.2682750" lon="1.7053790">
        <ele>1921.2</ele>
        <time>2015-08-14T09:48:28Z</time>
      </trkpt>
      <trkpt lat="42.2682900" lon="1.7054690">
        <ele>1920.4</ele>
        <time>2015-08-14T09:48:29Z</time>
      </trkpt>
      <trkpt lat="42.2683270" lon="1.7055720">
        <ele>1919.2</ele>
        <time>2015-08-14T09:48:30Z</time>
      </trkpt>
      <trkpt lat="42.2683450" lon="1.7056650">
        <ele>1918.3</ele>
        <time>2015-08-14T09:48:31Z</time>
      </trkpt>
      <trkpt lat="42.2683540" lon="1.7057490">
        <ele>1917.6</ele>
        <time>2015-08-14T09:48:32Z</time>
      </trkpt>
      <trkpt lat="42.2683560" lon="1.7058510">
        <ele>1916.7</ele>
        <time>2015-08-14T09:48:33Z</time>
      </trkpt>
      <trkpt lat="42.2683820" lon="1.7059720">
        <ele>1915.5</ele>
        <time>2015-08-14T09:48:34Z</time>
      </trkpt>
      <trkpt lat="42.2683910" lon="1.7060790">
        <ele>1914.6</ele>
        <time>2015-08-14T09:48:35Z</time>
      </trkpt>
      <trkpt lat="42.2684010" lon="1.7061860">
        <ele>1913.6</ele>
        <time>2015-08-14T09:48:36Z</time>
      </trkpt>
      <trkpt lat="42.2684230" lon="1.7062880">
        <ele>1912.4</ele>
        <time>2015-08-14T09:48:37Z</time>
      </trkpt>
      <trkpt lat="42.2684690" lon="1.7063840">
        <ele>1910.7</ele>
        <time>2015-08-14T09:48:38Z</time>
      </trkpt>
      <trkpt lat="42.2685070" lon="1.7064740">
        <ele>1909.0</ele>
        <time>2015-08-14T09:48:39Z</time>
      </trkpt>
      <trkpt lat="42.2685410" lon="1.7065640">
        <ele>1907.4</ele>
        <time>2015-08-14T09:48:40Z</time>
      </trkpt>
      <trkpt lat="42.2685820" lon="1.7066170">
        <ele>1906.2</ele>
        <time>2015-08-14T09:48:41Z</time>
      </trkpt>
      <trkpt lat="42.2686550" lon="1.7065890">
        <ele>1906.1</ele>
        <time>2015-08-14T09:48:42Z</time>
      </trkpt>
      <trkpt lat="42.2687090" lon="1.7066160">
        <ele>1905.2</ele>
        <time>2015-08-14T09:48:43Z</time>
      </trkpt>
      <trkpt lat="42.2687640" lon="1.7066270">
        <ele>1905.0</ele>
        <time>2015-08-14T09:48:44Z</time>
      </trkpt>
      <trkpt lat="42.2688280" lon="1.7066390">
        <ele>1906.4</ele>
        <time>2015-08-14T09:48:45Z</time>
      </trkpt>
      <trkpt lat="42.2689110" lon="1.7066690">
        <ele>1907.8</ele>
        <time>2015-08-14T09:48:46Z</time>
      </trkpt>
      <trkpt lat="42.2689730" lon="1.7066930">
        <ele>1908.8</ele>
        <time>2015-08-14T09:48:47Z</time>
      </trkpt>
      <trkpt lat="42.2690280" lon="1.7067460">
        <ele>1909.0</ele>
        <time>2015-08-14T09:48:48Z</time>
      </trkpt>
      <trkpt lat="42.2690780" lon="1.7068410">
        <ele>1908.0</ele>
        <time>2015-08-14T09:48:49Z</time>
      </trkpt>
      <trkpt lat="42.2690930" lon="1.7068740">
        <ele>1907.5</ele>
        <time>2015-08-14T09:48:50Z</time>
      </trkpt>
      <trkpt lat="42.2691150" lon="1.7069110">
        <ele>1907.1</ele>
        <time>2015-08-14T09:48:51Z</time>
      </trkpt>
      <trkpt lat="42.2690940" lon="1.7068880">
        <ele>1907.2</ele>
        <time>2015-08-14T09:48:54Z</time>
      </trkpt>
      <trkpt lat="42.2691480" lon="1.7068970">
        <ele>1908.1</ele>
        <time>2015-08-14T09:49:23Z</time>
      </trkpt>
      <trkpt lat="42.2691740" lon="1.7069150">
        <ele>1908.2</ele>
        <time>2015-08-14T09:49:24Z</time>
      </trkpt>
      <trkpt lat="42.2691960" lon="1.7069710">
        <ele>1907.2</ele>
        <time>2015-08-14T09:49:25Z</time>
      </trkpt>
      <trkpt lat="42.2692780" lon="1.7069650">
        <ele>1908.9</ele>
        <time>2015-08-14T09:49:26Z</time>
      </trkpt>
      <trkpt lat="42.2693350" lon="1.7069910">
        <ele>1909.3</ele>
        <time>2015-08-14T09:49:27Z</time>
      </trkpt>
      <trkpt lat="42.2693780" lon="1.7070140">
        <ele>1909.5</ele>
        <time>2015-08-14T09:49:28Z</time>
      </trkpt>
      <trkpt lat="42.2694110" lon="1.7070660">
        <ele>1908.6</ele>
        <time>2015-08-14T09:49:29Z</time>
      </trkpt>
      <trkpt lat="42.2694400" lon="1.7071170">
        <ele>1907.8</ele>
        <time>2015-08-14T09:49:30Z</time>
      </trkpt>
      <trkpt lat="42.2694890" lon="1.7071630">
        <ele>1907.5</ele>
        <time>2015-08-14T09:49:31Z</time>
      </trkpt>
      <trkpt lat="42.2695330" lon="1.7071880">
        <ele>1907.6</ele>
        <time>2015-08-14T09:49:32Z</time>
      </trkpt>
      <trkpt lat="42.2695850" lon="1.7071870">
        <ele>1908.5</ele>
        <time>2015-08-14T09:49:33Z</time>
      </trkpt>
      <trkpt lat="42.2696460" lon="1.7071870">
        <ele>1910.9</ele>
        <time>2015-08-14T09:49:34Z</time>
      </trkpt>
      <trkpt lat="42.2697040" lon="1.7072050">
        <ele>1912.8</ele>
        <time>2015-08-14T09:49:35Z</time>
      </trkpt>
      <trkpt lat="42.2697540" lon="1.7072260">
        <ele>1914.3</ele>
        <time>2015-08-14T09:49:36Z</time>
      </trkpt>
      <trkpt lat="42.2697570" lon="1.7072680">
        <ele>1913.3</ele>
        <time>2015-08-14T09:49:37Z</time>
      </trkpt>
      <trkpt lat="42.2697790" lon="1.7073200">
        <ele>1912.8</ele>
        <time>2015-08-14T09:49:38Z</time>
      </trkpt>
      <trkpt lat="42.2697940" lon="1.7073580">
        <ele>1912.4</ele>
        <time>2015-08-14T09:49:39Z</time>
      </trkpt>
      <trkpt lat="42.2698040" lon="1.7074150">
        <ele>1911.3</ele>
        <time>2015-08-14T09:49:40Z</time>
      </trkpt>
      <trkpt lat="42.2698040" lon="1.7074830">
        <ele>1909.6</ele>
        <time>2015-08-14T09:49:41Z</time>
      </trkpt>
      <trkpt lat="42.2697710" lon="1.7075720">
        <ele>1905.9</ele>
        <time>2015-08-14T09:49:42Z</time>
      </trkpt>
      <trkpt lat="42.2697600" lon="1.7076450">
        <ele>1903.6</ele>
        <time>2015-08-14T09:49:43Z</time>
      </trkpt>
      <trkpt lat="42.2697270" lon="1.7077080">
        <ele>1900.7</ele>
        <time>2015-08-14T09:49:44Z</time>
      </trkpt>
      <trkpt lat="42.2696940" lon="1.7077780">
        <ele>1897.7</ele>
        <time>2015-08-14T09:49:45Z</time>
      </trkpt>
      <trkpt lat="42.2696570" lon="1.7078400">
        <ele>1894.7</ele>
        <time>2015-08-14T09:49:46Z</time>
      </trkpt>
      <trkpt lat="42.2696280" lon="1.7079180">
        <ele>1891.7</ele>
        <time>2015-08-14T09:49:47Z</time>
      </trkpt>
      <trkpt lat="42.2696070" lon="1.7079800">
        <ele>1890.6</ele>
        <time>2015-08-14T09:49:48Z</time>
      </trkpt>
      <trkpt lat="42.2695840" lon="1.7080430">
        <ele>1889.6</ele>
        <time>2015-08-14T09:49:49Z</time>
      </trkpt>
      <trkpt lat="42.2695750" lon="1.7081500">
        <ele>1889.1</ele>
        <time>2015-08-14T09:49:50Z</time>
      </trkpt>
      <trkpt lat="42.2695580" lon="1.7082280">
        <ele>1888.6</ele>
        <time>2015-08-14T09:49:51Z</time>
      </trkpt>
      <trkpt lat="42.2695350" lon="1.7083280">
        <ele>1887.9</ele>
        <time>2015-08-14T09:49:52Z</time>
      </trkpt>
      <trkpt lat="42.2695160" lon="1.7084030">
        <ele>1887.2</ele>
        <time>2015-08-14T09:49:53Z</time>
      </trkpt>
      <trkpt lat="42.2694660" lon="1.7085110">
        <ele>1885.8</ele>
        <time>2015-08-14T09:49:54Z</time>
      </trkpt>
      <trkpt lat="42.2694330" lon="1.7086150">
        <ele>1884.5</ele>
        <time>2015-08-14T09:49:55Z</time>
      </trkpt>
      <trkpt lat="42.2694130" lon="1.7087000">
        <ele>1883.5</ele>
        <time>2015-08-14T09:49:56Z</time>
      </trkpt>
      <trkpt lat="42.2693780" lon="1.7088150">
        <ele>1882.0</ele>
        <time>2015-08-14T09:49:57Z</time>
      </trkpt>
      <trkpt lat="42.2693380" lon="1.7089050">
        <ele>1880.4</ele>
        <time>2015-08-14T09:49:58Z</time>
      </trkpt>
      <trkpt lat="42.2693170" lon="1.7090100">
        <ele>1879.2</ele>
        <time>2015-08-14T09:49:59Z</time>
      </trkpt>
      <trkpt lat="42.2693320" lon="1.7090920">
        <ele>1879.1</ele>
        <time>2015-08-14T09:50:00Z</time>
      </trkpt>
      <trkpt lat="42.2693050" lon="1.7091970">
        <ele>1877.6</ele>
        <time>2015-08-14T09:50:01Z</time>
      </trkpt>
      <trkpt lat="42.2693320" lon="1.7093030">
        <ele>1877.7</ele>
        <time>2015-08-14T09:50:02Z</time>
      </trkpt>
      <trkpt lat="42.2693520" lon="1.7094170">
        <ele>1877.7</ele>
        <time>2015-08-14T09:50:03Z</time>
      </trkpt>
      <trkpt lat="42.2693510" lon="1.7095280">
        <ele>1877.0</ele>
        <time>2015-08-14T09:50:04Z</time>
      </trkpt>
      <trkpt lat="42.2693550" lon="1.7096490">
        <ele>1876.2</ele>
        <time>2015-08-14T09:50:05Z</time>
      </trkpt>
      <trkpt lat="42.2693560" lon="1.7097600">
        <ele>1875.2</ele>
        <time>2015-08-14T09:50:06Z</time>
      </trkpt>
      <trkpt lat="42.2693550" lon="1.7098590">
        <ele>1874.3</ele>
        <time>2015-08-14T09:50:07Z</time>
      </trkpt>
      <trkpt lat="42.2693560" lon="1.7099720">
        <ele>1873.3</ele>
        <time>2015-08-14T09:50:08Z</time>
      </trkpt>
      <trkpt lat="42.2693700" lon="1.7100820">
        <ele>1872.8</ele>
        <time>2015-08-14T09:50:09Z</time>
      </trkpt>
      <trkpt lat="42.2693810" lon="1.7101940">
        <ele>1872.2</ele>
        <time>2015-08-14T09:50:10Z</time>
      </trkpt>
      <trkpt lat="42.2693890" lon="1.7103200">
        <ele>1871.3</ele>
        <time>2015-08-14T09:50:11Z</time>
      </trkpt>
      <trkpt lat="42.2694170" lon="1.7104380">
        <ele>1871.1</ele>
        <time>2015-08-14T09:50:12Z</time>
      </trkpt>
      <trkpt lat="42.2694150" lon="1.7105370">
        <ele>1869.4</ele>
        <time>2015-08-14T09:50:13Z</time>
      </trkpt>
      <trkpt lat="42.2694270" lon="1.7106220">
        <ele>1868.4</ele>
        <time>2015-08-14T09:50:14Z</time>
      </trkpt>
      <trkpt lat="42.2694430" lon="1.7107030">
        <ele>1867.5</ele>
        <time>2015-08-14T09:50:15Z</time>
      </trkpt>
      <trkpt lat="42.2694700" lon="1.7107880">
        <ele>1866.9</ele>
        <time>2015-08-14T09:50:16Z</time>
      </trkpt>
      <trkpt lat="42.2695210" lon="1.7108400">
        <ele>1867.6</ele>
        <time>2015-08-14T09:50:17Z</time>
      </trkpt>
      <trkpt lat="42.2695710" lon="1.7108880">
        <ele>1868.2</ele>
        <time>2015-08-14T09:50:18Z</time>
      </trkpt>
      <trkpt lat="42.2696280" lon="1.7109270">
        <ele>1869.9</ele>
        <time>2015-08-14T09:50:19Z</time>
      </trkpt>
      <trkpt lat="42.2696880" lon="1.7109700">
        <ele>1871.8</ele>
        <time>2015-08-14T09:50:20Z</time>
      </trkpt>
      <trkpt lat="42.2697510" lon="1.7110180">
        <ele>1873.8</ele>
        <time>2015-08-14T09:50:21Z</time>
      </trkpt>
      <trkpt lat="42.2698090" lon="1.7110750">
        <ele>1875.3</ele>
        <time>2015-08-14T09:50:22Z</time>
      </trkpt>
      <trkpt lat="42.2698070" lon="1.7111690">
        <ele>1873.5</ele>
        <time>2015-08-14T09:50:23Z</time>
      </trkpt>
      <trkpt lat="42.2698170" lon="1.7112560">
        <ele>1872.3</ele>
        <time>2015-08-14T09:50:24Z</time>
      </trkpt>
      <trkpt lat="42.2698250" lon="1.7113520">
        <ele>1871.9</ele>
        <time>2015-08-14T09:50:25Z</time>
      </trkpt>
      <trkpt lat="42.2698290" lon="1.7114280">
        <ele>1871.4</ele>
        <time>2015-08-14T09:50:26Z</time>
      </trkpt>
      <trkpt lat="42.2698200" lon="1.7115180">
        <ele>1870.2</ele>
        <time>2015-08-14T09:50:27Z</time>
      </trkpt>
      <trkpt lat="42.2698180" lon="1.7116210">
        <ele>1869.2</ele>
        <time>2015-08-14T09:50:28Z</time>
      </trkpt>
      <trkpt lat="42.2698170" lon="1.7117100">
        <ele>1868.4</ele>
        <time>2015-08-14T09:50:29Z</time>
      </trkpt>
      <trkpt lat="42.2698170" lon="1.7118070">
        <ele>1867.6</ele>
        <time>2015-08-14T09:50:30Z</time>
      </trkpt>
      <trkpt lat="42.2698110" lon="1.7118910">
        <ele>1866.7</ele>
        <time>2015-08-14T09:50:31Z</time>
      </trkpt>
      <trkpt lat="42.2697800" lon="1.7119540">
        <ele>1864.9</ele>
        <time>2015-08-14T09:50:32Z</time>
      </trkpt>
      <trkpt lat="42.2697380" lon="1.7119950">
        <ele>1862.8</ele>
        <time>2015-08-14T09:50:33Z</time>
      </trkpt>
      <trkpt lat="42.2696780" lon="1.7120260">
        <ele>1860.2</ele>
        <time>2015-08-14T09:50:34Z</time>
      </trkpt>
      <trkpt lat="42.2696070" lon="1.7120740">
        <ele>1857.0</ele>
        <time>2015-08-14T09:50:35Z</time>
      </trkpt>
      <trkpt lat="42.2695510" lon="1.7120870">
        <ele>1854.9</ele>
        <time>2015-08-14T09:50:36Z</time>
      </trkpt>
      <trkpt lat="42.2695080" lon="1.7121650">
        <ele>1853.5</ele>
        <time>2015-08-14T09:50:37Z</time>
      </trkpt>
      <trkpt lat="42.2694620" lon="1.7122260">
        <ele>1851.9</ele>
        <time>2015-08-14T09:50:38Z</time>
      </trkpt>
      <trkpt lat="42.2694350" lon="1.7123580">
        <ele>1851.0</ele>
        <time>2015-08-14T09:50:39Z</time>
      </trkpt>
      <trkpt lat="42.2694610" lon="1.7124490">
        <ele>1852.0</ele>
        <time>2015-08-14T09:50:40Z</time>
      </trkpt>
      <trkpt lat="42.2694570" lon="1.7125220">
        <ele>1851.9</ele>
        <time>2015-08-14T09:50:41Z</time>
      </trkpt>
      <trkpt lat="42.2694440" lon="1.7126180">
        <ele>1851.5</ele>
        <time>2015-08-14T09:50:42Z</time>
      </trkpt>
      <trkpt lat="42.2694470" lon="1.7127090">
        <ele>1851.7</ele>
        <time>2015-08-14T09:50:43Z</time>
      </trkpt>
      <trkpt lat="42.2694640" lon="1.7127770">
        <ele>1852.4</ele>
        <time>2015-08-14T09:50:44Z</time>
      </trkpt>
      <trkpt lat="42.2694880" lon="1.7128520">
        <ele>1853.6</ele>
        <time>2015-08-14T09:50:45Z</time>
      </trkpt>
      <trkpt lat="42.2695400" lon="1.7129110">
        <ele>1856.0</ele>
        <time>2015-08-14T09:50:46Z</time>
      </trkpt>
      <trkpt lat="42.2695360" lon="1.7129830">
        <ele>1856.3</ele>
        <time>2015-08-14T09:50:47Z</time>
      </trkpt>
      <trkpt lat="42.2695660" lon="1.7130730">
        <ele>1858.3</ele>
        <time>2015-08-14T09:50:48Z</time>
      </trkpt>
      <trkpt lat="42.2695730" lon="1.7131540">
        <ele>1859.2</ele>
        <time>2015-08-14T09:50:49Z</time>
      </trkpt>
      <trkpt lat="42.2695490" lon="1.7132220">
        <ele>1858.6</ele>
        <time>2015-08-14T09:50:50Z</time>
      </trkpt>
      <trkpt lat="42.2694960" lon="1.7132530">
        <ele>1856.4</ele>
        <time>2015-08-14T09:50:51Z</time>
      </trkpt>
      <trkpt lat="42.2693840" lon="1.7131860">
        <ele>1850.8</ele>
        <time>2015-08-14T09:50:52Z</time>
      </trkpt>
      <trkpt lat="42.2693220" lon="1.7132010">
        <ele>1848.1</ele>
        <time>2015-08-14T09:50:53Z</time>
      </trkpt>
      <trkpt lat="42.2692650" lon="1.7132030">
        <ele>1845.5</ele>
        <time>2015-08-14T09:50:54Z</time>
      </trkpt>
      <trkpt lat="42.2692090" lon="1.7132450">
        <ele>1843.3</ele>
        <time>2015-08-14T09:50:55Z</time>
      </trkpt>
      <trkpt lat="42.2692000" lon="1.7133540">
        <ele>1843.7</ele>
        <time>2015-08-14T09:50:56Z</time>
      </trkpt>
      <trkpt lat="42.2691780" lon="1.7134390">
        <ele>1843.3</ele>
        <time>2015-08-14T09:50:57Z</time>
      </trkpt>
      <trkpt lat="42.2691460" lon="1.7135140">
        <ele>1842.4</ele>
        <time>2015-08-14T09:50:58Z</time>
      </trkpt>
      <trkpt lat="42.2691140" lon="1.7135670">
        <ele>1841.3</ele>
        <time>2015-08-14T09:50:59Z</time>
      </trkpt>
      <trkpt lat="42.2690800" lon="1.7136430">
        <ele>1840.3</ele>
        <time>2015-08-14T09:51:00Z</time>
      </trkpt>
      <trkpt lat="42.2690630" lon="1.7136960">
        <ele>1839.9</ele>
        <time>2015-08-14T09:51:01Z</time>
      </trkpt>
      <trkpt lat="42.2690430" lon="1.7137690">
        <ele>1839.5</ele>
        <time>2015-08-14T09:51:02Z</time>
      </trkpt>
      <trkpt lat="42.2690210" lon="1.7138520">
        <ele>1839.3</ele>
        <time>2015-08-14T09:51:03Z</time>
      </trkpt>
      <trkpt lat="42.2690100" lon="1.7139360">
        <ele>1839.6</ele>
        <time>2015-08-14T09:51:04Z</time>
      </trkpt>
      <trkpt lat="42.2689910" lon="1.7140110">
        <ele>1839.4</ele>
        <time>2015-08-14T09:51:05Z</time>
      </trkpt>
      <trkpt lat="42.2689730" lon="1.7140890">
        <ele>1839.2</ele>
        <time>2015-08-14T09:51:06Z</time>
      </trkpt>
      <trkpt lat="42.2689460" lon="1.7141480">
        <ele>1838.3</ele>
        <time>2015-08-14T09:51:07Z</time>
      </trkpt>
      <trkpt lat="42.2689100" lon="1.7142450">
        <ele>1837.3</ele>
        <time>2015-08-14T09:51:08Z</time>
      </trkpt>
      <trkpt lat="42.2688910" lon="1.7143210">
        <ele>1836.9</ele>
        <time>2015-08-14T09:51:09Z</time>
      </trkpt>
      <trkpt lat="42.2688670" lon="1.7143990">
        <ele>1836.2</ele>
        <time>2015-08-14T09:51:10Z</time>
      </trkpt>
      <trkpt lat="42.2688830" lon="1.7145250">
        <ele>1838.1</ele>
        <time>2015-08-14T09:51:11Z</time>
      </trkpt>
      <trkpt lat="42.2688850" lon="1.7146340">
        <ele>1839.3</ele>
        <time>2015-08-14T09:51:12Z</time>
      </trkpt>
      <trkpt lat="42.2688600" lon="1.7147290">
        <ele>1839.2</ele>
        <time>2015-08-14T09:51:13Z</time>
      </trkpt>
      <trkpt lat="42.2688340" lon="1.7148200">
        <ele>1839.0</ele>
        <time>2015-08-14T09:51:14Z</time>
      </trkpt>
      <trkpt lat="42.2687840" lon="1.7149160">
        <ele>1837.6</ele>
        <time>2015-08-14T09:51:15Z</time>
      </trkpt>
      <trkpt lat="42.2687380" lon="1.7150360">
        <ele>1837.1</ele>
        <time>2015-08-14T09:51:16Z</time>
      </trkpt>
      <trkpt lat="42.2686970" lon="1.7151580">
        <ele>1837.6</ele>
        <time>2015-08-14T09:51:17Z</time>
      </trkpt>
      <trkpt lat="42.2686880" lon="1.7152720">
        <ele>1839.0</ele>
        <time>2015-08-14T09:51:18Z</time>
      </trkpt>
      <trkpt lat="42.2686560" lon="1.7153540">
        <ele>1839.3</ele>
        <time>2015-08-14T09:51:19Z</time>
      </trkpt>
      <trkpt lat="42.2686130" lon="1.7154830">
        <ele>1840.3</ele>
        <time>2015-08-14T09:51:20Z</time>
      </trkpt>
      <trkpt lat="42.2686070" lon="1.7155890">
        <ele>1842.3</ele>
        <time>2015-08-14T09:51:21Z</time>
      </trkpt>
      <trkpt lat="42.2686120" lon="1.7157010">
        <ele>1844.5</ele>
        <time>2015-08-14T09:51:22Z</time>
      </trkpt>
      <trkpt lat="42.2685510" lon="1.7158060">
        <ele>1845.9</ele>
        <time>2015-08-14T09:51:23Z</time>
      </trkpt>
      <trkpt lat="42.2685140" lon="1.7159100">
        <ele>1847.9</ele>
        <time>2015-08-14T09:51:24Z</time>
      </trkpt>
      <trkpt lat="42.2685020" lon="1.7160290">
        <ele>1850.7</ele>
        <time>2015-08-14T09:51:25Z</time>
      </trkpt>
      <trkpt lat="42.2685200" lon="1.7161380">
        <ele>1853.3</ele>
        <time>2015-08-14T09:51:26Z</time>
      </trkpt>
      <trkpt lat="42.2685270" lon="1.7162400">
        <ele>1855.6</ele>
        <time>2015-08-14T09:51:27Z</time>
      </trkpt>
      <trkpt lat="42.2685240" lon="1.7163470">
        <ele>1857.3</ele>
        <time>2015-08-14T09:51:28Z</time>
      </trkpt>
      <trkpt lat="42.2685350" lon="1.7164240">
        <ele>1858.3</ele>
        <time>2015-08-14T09:51:29Z</time>
      </trkpt>
      <trkpt lat="42.2685520" lon="1.7164850">
        <ele>1858.9</ele>
        <time>2015-08-14T09:51:30Z</time>
      </trkpt>
      <trkpt lat="42.2685530" lon="1.7165340">
        <ele>1859.6</ele>
        <time>2015-08-14T09:51:31Z</time>
      </trkpt>
      <trkpt lat="42.2685560" lon="1.7165780">
        <ele>1860.1</ele>
        <time>2015-08-14T09:51:32Z</time>
      </trkpt>
      <trkpt lat="42.2685760" lon="1.7166230">
        <ele>1860.4</ele>
        <time>2015-08-14T09:51:34Z</time>
      </trkpt>
      <trkpt lat="42.2685950" lon="1.7166550">
        <ele>1860.4</ele>
        <time>2015-08-14T09:51:53Z</time>
      </trkpt>
      <trkpt lat="42.2686220" lon="1.7166920">
        <ele>1860.3</ele>
        <time>2015-08-14T09:52:02Z</time>
      </trkpt>
      <trkpt lat="42.2686640" lon="1.7167330">
        <ele>1859.9</ele>
        <time>2015-08-14T09:52:04Z</time>
      </trkpt>
      <trkpt lat="42.2686900" lon="1.7167890">
        <ele>1859.9</ele>
        <time>2015-08-14T09:52:05Z</time>
      </trkpt>
      <trkpt lat="42.2687210" lon="1.7168350">
        <ele>1859.6</ele>
        <time>2015-08-14T09:52:06Z</time>
      </trkpt>
      <trkpt lat="42.2687640" lon="1.7168780">
        <ele>1859.4</ele>
        <time>2015-08-14T09:52:07Z</time>
      </trkpt>
      <trkpt lat="42.2688070" lon="1.7169240">
        <ele>1860.2</ele>
        <time>2015-08-14T09:52:08Z</time>
      </trkpt>
      <trkpt lat="42.2688430" lon="1.7169690">
        <ele>1860.7</ele>
        <time>2015-08-14T09:52:09Z</time>
      </trkpt>
      <trkpt lat="42.2688740" lon="1.7170220">
        <ele>1861.2</ele>
        <time>2015-08-14T09:52:10Z</time>
      </trkpt>
      <trkpt lat="42.2689220" lon="1.7170670">
        <ele>1861.6</ele>
        <time>2015-08-14T09:52:11Z</time>
      </trkpt>
      <trkpt lat="42.2689200" lon="1.7171050">
        <ele>1861.3</ele>
        <time>2015-08-14T09:52:12Z</time>
      </trkpt>
      <trkpt lat="42.2689170" lon="1.7171420">
        <ele>1860.8</ele>
        <time>2015-08-14T09:52:13Z</time>
      </trkpt>
      <trkpt lat="42.2689040" lon="1.7171800">
        <ele>1860.2</ele>
        <time>2015-08-14T09:52:14Z</time>
      </trkpt>
      <trkpt lat="42.2688870" lon="1.7172290">
        <ele>1859.4</ele>
        <time>2015-08-14T09:52:15Z</time>
      </trkpt>
      <trkpt lat="42.2688720" lon="1.7172760">
        <ele>1858.7</ele>
        <time>2015-08-14T09:52:16Z</time>
      </trkpt>
      <trkpt lat="42.2688430" lon="1.7173220">
        <ele>1858.0</ele>
        <time>2015-08-14T09:52:17Z</time>
      </trkpt>
      <trkpt lat="42.2688190" lon="1.7173650">
        <ele>1857.4</ele>
        <time>2015-08-14T09:52:18Z</time>
      </trkpt>
      <trkpt lat="42.2687940" lon="1.7174030">
        <ele>1856.8</ele>
        <time>2015-08-14T09:52:19Z</time>
      </trkpt>
      <trkpt lat="42.2687650" lon="1.7174590">
        <ele>1856.1</ele>
        <time>2015-08-14T09:52:20Z</time>
      </trkpt>
      <trkpt lat="42.2687410" lon="1.7175400">
        <ele>1855.3</ele>
        <time>2015-08-14T09:52:21Z</time>
      </trkpt>
      <trkpt lat="42.2687130" lon="1.7176310">
        <ele>1855.2</ele>
        <time>2015-08-14T09:52:22Z</time>
      </trkpt>
      <trkpt lat="42.2686900" lon="1.7177230">
        <ele>1854.9</ele>
        <time>2015-08-14T09:52:23Z</time>
      </trkpt>
      <trkpt lat="42.2686610" lon="1.7178160">
        <ele>1855.0</ele>
        <time>2015-08-14T09:52:24Z</time>
      </trkpt>
      <trkpt lat="42.2686370" lon="1.7179210">
        <ele>1854.7</ele>
        <time>2015-08-14T09:52:25Z</time>
      </trkpt>
      <trkpt lat="42.2686260" lon="1.7180050">
        <ele>1853.9</ele>
        <time>2015-08-14T09:52:26Z</time>
      </trkpt>
      <trkpt lat="42.2686150" lon="1.7180980">
        <ele>1853.0</ele>
        <time>2015-08-14T09:52:27Z</time>
      </trkpt>
      <trkpt lat="42.2685880" lon="1.7181630">
        <ele>1853.2</ele>
        <time>2015-08-14T09:52:28Z</time>
      </trkpt>
      <trkpt lat="42.2685530" lon="1.7182350">
        <ele>1853.8</ele>
        <time>2015-08-14T09:52:29Z</time>
      </trkpt>
      <trkpt lat="42.2685300" lon="1.7182930">
        <ele>1854.0</ele>
        <time>2015-08-14T09:52:30Z</time>
      </trkpt>
      <trkpt lat="42.2685120" lon="1.7183450">
        <ele>1854.0</ele>
        <time>2015-08-14T09:52:31Z</time>
      </trkpt>
      <trkpt lat="42.2684820" lon="1.7183870">
        <ele>1854.8</ele>
        <time>2015-08-14T09:52:32Z</time>
      </trkpt>
      <trkpt lat="42.2684600" lon="1.7184840">
        <ele>1854.5</ele>
        <time>2015-08-14T09:52:33Z</time>
      </trkpt>
      <trkpt lat="42.2684380" lon="1.7185400">
        <ele>1854.8</ele>
        <time>2015-08-14T09:52:34Z</time>
      </trkpt>
      <trkpt lat="42.2684120" lon="1.7185990">
        <ele>1855.2</ele>
        <time>2015-08-14T09:52:35Z</time>
      </trkpt>
      <trkpt lat="42.2684080" lon="1.7186580">
        <ele>1854.6</ele>
        <time>2015-08-14T09:52:36Z</time>
      </trkpt>
      <trkpt lat="42.2683920" lon="1.7187030">
        <ele>1854.8</ele>
        <time>2015-08-14T09:52:37Z</time>
      </trkpt>
      <trkpt lat="42.2683920" lon="1.7187410">
        <ele>1854.3</ele>
        <time>2015-08-14T09:52:39Z</time>
      </trkpt>
      <trkpt lat="42.2684060" lon="1.7187890">
        <ele>1853.1</ele>
        <time>2015-08-14T09:52:41Z</time>
      </trkpt>
      <trkpt lat="42.2684370" lon="1.7188230">
        <ele>1851.3</ele>
        <time>2015-08-14T09:52:43Z</time>
      </trkpt>
      <trkpt lat="42.2684740" lon="1.7188440">
        <ele>1849.2</ele>
        <time>2015-08-14T09:52:44Z</time>
      </trkpt>
      <trkpt lat="42.2685080" lon="1.7188790">
        <ele>1847.2</ele>
        <time>2015-08-14T09:52:46Z</time>
      </trkpt>
      <trkpt lat="42.2685280" lon="1.7189430">
        <ele>1845.5</ele>
        <time>2015-08-14T09:52:47Z</time>
      </trkpt>
      <trkpt lat="42.2685170" lon="1.7189790">
        <ele>1845.6</ele>
        <time>2015-08-14T09:52:48Z</time>
      </trkpt>
      <trkpt lat="42.2684970" lon="1.7190340">
        <ele>1846.0</ele>
        <time>2015-08-14T09:52:49Z</time>
      </trkpt>
      <trkpt lat="42.2684800" lon="1.7190840">
        <ele>1846.3</ele>
        <time>2015-08-14T09:52:50Z</time>
      </trkpt>
      <trkpt lat="42.2684740" lon="1.7191450">
        <ele>1846.0</ele>
        <time>2015-08-14T09:52:51Z</time>
      </trkpt>
      <trkpt lat="42.2684550" lon="1.7192010">
        <ele>1846.4</ele>
        <time>2015-08-14T09:52:52Z</time>
      </trkpt>
      <trkpt lat="42.2684310" lon="1.7192630">
        <ele>1847.0</ele>
        <time>2015-08-14T09:52:53Z</time>
      </trkpt>
      <trkpt lat="42.2684140" lon="1.7193260">
        <ele>1847.2</ele>
        <time>2015-08-14T09:52:54Z</time>
      </trkpt>
      <trkpt lat="42.2683900" lon="1.7193930">
        <ele>1847.8</ele>
        <time>2015-08-14T09:52:55Z</time>
      </trkpt>
      <trkpt lat="42.2683690" lon="1.7194570">
        <ele>1848.3</ele>
        <time>2015-08-14T09:52:56Z</time>
      </trkpt>
      <trkpt lat="42.2683560" lon="1.7195210">
        <ele>1848.4</ele>
        <time>2015-08-14T09:52:57Z</time>
      </trkpt>
      <trkpt lat="42.2683410" lon="1.7195700">
        <ele>1848.7</ele>
        <time>2015-08-14T09:52:58Z</time>
      </trkpt>
      <trkpt lat="42.2683310" lon="1.7196100">
        <ele>1848.8</ele>
        <time>2015-08-14T09:52:59Z</time>
      </trkpt>
      <trkpt lat="42.2683150" lon="1.7196480">
        <ele>1849.2</ele>
        <time>2015-08-14T09:53:00Z</time>
      </trkpt>
      <trkpt lat="42.2683670" lon="1.7195940">
        <ele>1847.0</ele>
        <time>2015-08-14T09:53:03Z</time>
      </trkpt>
      <trkpt lat="42.2683880" lon="1.7195640">
        <ele>1846.2</ele>
        <time>2015-08-14T09:53:04Z</time>
      </trkpt>
      <trkpt lat="42.2684300" lon="1.7195370">
        <ele>1844.1</ele>
        <time>2015-08-14T09:53:05Z</time>
      </trkpt>
      <trkpt lat="42.2684550" lon="1.7195020">
        <ele>1843.2</ele>
        <time>2015-08-14T09:53:06Z</time>
      </trkpt>
      <trkpt lat="42.2684830" lon="1.7194640">
        <ele>1842.0</ele>
        <time>2015-08-14T09:53:07Z</time>
      </trkpt>
      <trkpt lat="42.2685100" lon="1.7194240">
        <ele>1841.0</ele>
        <time>2015-08-14T09:53:08Z</time>
      </trkpt>
      <trkpt lat="42.2685370" lon="1.7193870">
        <ele>1840.0</ele>
        <time>2015-08-14T09:53:09Z</time>
      </trkpt>
      <trkpt lat="42.2685640" lon="1.7193730">
        <ele>1838.7</ele>
        <time>2015-08-14T09:53:10Z</time>
      </trkpt>
      <trkpt lat="42.2686190" lon="1.7193650">
        <ele>1835.9</ele>
        <time>2015-08-14T09:53:12Z</time>
      </trkpt>
      <trkpt lat="42.2686570" lon="1.7193710">
        <ele>1833.8</ele>
        <time>2015-08-14T09:53:13Z</time>
      </trkpt>
      <trkpt lat="42.2686910" lon="1.7194280">
        <ele>1831.2</ele>
        <time>2015-08-14T09:53:15Z</time>
      </trkpt>
      <trkpt lat="42.2687210" lon="1.7194750">
        <ele>1829.0</ele>
        <time>2015-08-14T09:53:16Z</time>
      </trkpt>
      <trkpt lat="42.2687750" lon="1.7196020">
        <ele>1825.7</ele>
        <time>2015-08-14T09:53:17Z</time>
      </trkpt>
      <trkpt lat="42.2687930" lon="1.7196780">
        <ele>1824.8</ele>
        <time>2015-08-14T09:53:18Z</time>
      </trkpt>
      <trkpt lat="42.2688310" lon="1.7197560">
        <ele>1823.7</ele>
        <time>2015-08-14T09:53:19Z</time>
      </trkpt>
      <trkpt lat="42.2688910" lon="1.7198410">
        <ele>1822.4</ele>
        <time>2015-08-14T09:53:20Z</time>
      </trkpt>
      <trkpt lat="42.2689350" lon="1.7199300">
        <ele>1821.2</ele>
        <time>2015-08-14T09:53:21Z</time>
      </trkpt>
      <trkpt lat="42.2689000" lon="1.7200050">
        <ele>1820.5</ele>
        <time>2015-08-14T09:53:22Z</time>
      </trkpt>
      <trkpt lat="42.2688950" lon="1.7200870">
        <ele>1819.7</ele>
        <time>2015-08-14T09:53:23Z</time>
      </trkpt>
      <trkpt lat="42.2688990" lon="1.7201830">
        <ele>1818.6</ele>
        <time>2015-08-14T09:53:24Z</time>
      </trkpt>
      <trkpt lat="42.2688520" lon="1.7202760">
        <ele>1817.8</ele>
        <time>2015-08-14T09:53:25Z</time>
      </trkpt>
      <trkpt lat="42.2688500" lon="1.7203840">
        <ele>1816.6</ele>
        <time>2015-08-14T09:53:26Z</time>
      </trkpt>
      <trkpt lat="42.2688200" lon="1.7204770">
        <ele>1815.4</ele>
        <time>2015-08-14T09:53:27Z</time>
      </trkpt>
      <trkpt lat="42.2687790" lon="1.7205640">
        <ele>1814.0</ele>
        <time>2015-08-14T09:53:28Z</time>
      </trkpt>
      <trkpt lat="42.2687890" lon="1.7206450">
        <ele>1812.4</ele>
        <time>2015-08-14T09:53:29Z</time>
      </trkpt>
      <trkpt lat="42.2687720" lon="1.7207000">
        <ele>1811.4</ele>
        <time>2015-08-14T09:53:30Z</time>
      </trkpt>
      <trkpt lat="42.2687820" lon="1.7207450">
        <ele>1810.5</ele>
        <time>2015-08-14T09:53:31Z</time>
      </trkpt>
      <trkpt lat="42.2687880" lon="1.7207910">
        <ele>1809.6</ele>
        <time>2015-08-14T09:53:32Z</time>
      </trkpt>
      <trkpt lat="42.2688090" lon="1.7208300">
        <ele>1808.8</ele>
        <time>2015-08-14T09:53:33Z</time>
      </trkpt>
      <trkpt lat="42.2688210" lon="1.7208650">
        <ele>1808.1</ele>
        <time>2015-08-14T09:53:34Z</time>
      </trkpt>
      <trkpt lat="42.2688420" lon="1.7209170">
        <ele>1807.1</ele>
        <time>2015-08-14T09:53:35Z</time>
      </trkpt>
      <trkpt lat="42.2688840" lon="1.7209560">
        <ele>1806.2</ele>
        <time>2015-08-14T09:53:36Z</time>
      </trkpt>
      <trkpt lat="42.2689380" lon="1.7209860">
        <ele>1805.5</ele>
        <time>2015-08-14T09:53:37Z</time>
      </trkpt>
      <trkpt lat="42.2689810" lon="1.7210140">
        <ele>1804.9</ele>
        <time>2015-08-14T09:53:38Z</time>
      </trkpt>
      <trkpt lat="42.2690530" lon="1.7210670">
        <ele>1803.8</ele>
        <time>2015-08-14T09:53:39Z</time>
      </trkpt>
      <trkpt lat="42.2691030" lon="1.7211180">
        <ele>1802.8</ele>
        <time>2015-08-14T09:53:40Z</time>
      </trkpt>
      <trkpt lat="42.2691660" lon="1.7211700">
        <ele>1801.8</ele>
        <time>2015-08-14T09:53:41Z</time>
      </trkpt>
      <trkpt lat="42.2692300" lon="1.7212360">
        <ele>1800.6</ele>
        <time>2015-08-14T09:53:42Z</time>
      </trkpt>
      <trkpt lat="42.2692830" lon="1.7212970">
        <ele>1799.1</ele>
        <time>2015-08-14T09:53:43Z</time>
      </trkpt>
      <trkpt lat="42.2693120" lon="1.7213450">
        <ele>1797.9</ele>
        <time>2015-08-14T09:53:44Z</time>
      </trkpt>
      <trkpt lat="42.2693400" lon="1.7213990">
        <ele>1796.5</ele>
        <time>2015-08-14T09:53:45Z</time>
      </trkpt>
      <trkpt lat="42.2694090" lon="1.7214280">
        <ele>1795.8</ele>
        <time>2015-08-14T09:53:46Z</time>
      </trkpt>
      <trkpt lat="42.2694510" lon="1.7214640">
        <ele>1795.0</ele>
        <time>2015-08-14T09:53:47Z</time>
      </trkpt>
      <trkpt lat="42.2695090" lon="1.7215090">
        <ele>1794.0</ele>
        <time>2015-08-14T09:53:48Z</time>
      </trkpt>
      <trkpt lat="42.2695560" lon="1.7215670">
        <ele>1792.7</ele>
        <time>2015-08-14T09:53:49Z</time>
      </trkpt>
      <trkpt lat="42.2695940" lon="1.7216070">
        <ele>1792.3</ele>
        <time>2015-08-14T09:53:50Z</time>
      </trkpt>
      <trkpt lat="42.2696060" lon="1.7217170">
        <ele>1790.3</ele>
        <time>2015-08-14T09:53:51Z</time>
      </trkpt>
      <trkpt lat="42.2696160" lon="1.7218150">
        <ele>1788.5</ele>
        <time>2015-08-14T09:53:52Z</time>
      </trkpt>
      <trkpt lat="42.2696320" lon="1.7219180">
        <ele>1786.9</ele>
        <time>2015-08-14T09:53:53Z</time>
      </trkpt>
      <trkpt lat="42.2696400" lon="1.7220290">
        <ele>1784.9</ele>
        <time>2015-08-14T09:53:54Z</time>
      </trkpt>
      <trkpt lat="42.2696360" lon="1.7221200">
        <ele>1782.8</ele>
        <time>2015-08-14T09:53:55Z</time>
      </trkpt>
      <trkpt lat="42.2696270" lon="1.7222210">
        <ele>1780.7</ele>
        <time>2015-08-14T09:53:56Z</time>
      </trkpt>
      <trkpt lat="42.2696190" lon="1.7223360">
        <ele>1778.3</ele>
        <time>2015-08-14T09:53:57Z</time>
      </trkpt>
      <trkpt lat="42.2696570" lon="1.7223900">
        <ele>1779.4</ele>
        <time>2015-08-14T09:53:58Z</time>
      </trkpt>
      <trkpt lat="42.2696830" lon="1.7224660">
        <ele>1779.5</ele>
        <time>2015-08-14T09:53:59Z</time>
      </trkpt>
      <trkpt lat="42.2696990" lon="1.7225590">
        <ele>1778.9</ele>
        <time>2015-08-14T09:54:00Z</time>
      </trkpt>
      <trkpt lat="42.2696960" lon="1.7226540">
        <ele>1777.2</ele>
        <time>2015-08-14T09:54:01Z</time>
      </trkpt>
      <trkpt lat="42.2696930" lon="1.7227570">
        <ele>1775.4</ele>
        <time>2015-08-14T09:54:02Z</time>
      </trkpt>
      <trkpt lat="42.2696930" lon="1.7228500">
        <ele>1773.9</ele>
        <time>2015-08-14T09:54:03Z</time>
      </trkpt>
      <trkpt lat="42.2696950" lon="1.7229430">
        <ele>1772.6</ele>
        <time>2015-08-14T09:54:04Z</time>
      </trkpt>
      <trkpt lat="42.2697070" lon="1.7230230">
        <ele>1772.1</ele>
        <time>2015-08-14T09:54:05Z</time>
      </trkpt>
      <trkpt lat="42.2697650" lon="1.7230860">
        <ele>1774.7</ele>
        <time>2015-08-14T09:54:06Z</time>
      </trkpt>
      <trkpt lat="42.2697990" lon="1.7231460">
        <ele>1775.9</ele>
        <time>2015-08-14T09:54:07Z</time>
      </trkpt>
      <trkpt lat="42.2698310" lon="1.7232070">
        <ele>1776.9</ele>
        <time>2015-08-14T09:54:08Z</time>
      </trkpt>
      <trkpt lat="42.2698860" lon="1.7232760">
        <ele>1779.3</ele>
        <time>2015-08-14T09:54:09Z</time>
      </trkpt>
      <trkpt lat="42.2699180" lon="1.7233430">
        <ele>1780.2</ele>
        <time>2015-08-14T09:54:10Z</time>
      </trkpt>
      <trkpt lat="42.2699590" lon="1.7234030">
        <ele>1781.9</ele>
        <time>2015-08-14T09:54:11Z</time>
      </trkpt>
      <trkpt lat="42.2699710" lon="1.7234740">
        <ele>1781.5</ele>
        <time>2015-08-14T09:54:12Z</time>
      </trkpt>
      <trkpt lat="42.2699800" lon="1.7235240">
        <ele>1781.3</ele>
        <time>2015-08-14T09:54:13Z</time>
      </trkpt>
      <trkpt lat="42.2699900" lon="1.7236170">
        <ele>1780.5</ele>
        <time>2015-08-14T09:54:14Z</time>
      </trkpt>
      <trkpt lat="42.2699690" lon="1.7236910">
        <ele>1778.0</ele>
        <time>2015-08-14T09:54:15Z</time>
      </trkpt>
      <trkpt lat="42.2699420" lon="1.7237820">
        <ele>1775.2</ele>
        <time>2015-08-14T09:54:16Z</time>
      </trkpt>
      <trkpt lat="42.2699100" lon="1.7238680">
        <ele>1772.8</ele>
        <time>2015-08-14T09:54:17Z</time>
      </trkpt>
      <trkpt lat="42.2698780" lon="1.7239560">
        <ele>1770.3</ele>
        <time>2015-08-14T09:54:18Z</time>
      </trkpt>
      <trkpt lat="42.2698020" lon="1.7240750">
        <ele>1764.7</ele>
        <time>2015-08-14T09:54:19Z</time>
      </trkpt>
      <trkpt lat="42.2697460" lon="1.7241610">
        <ele>1760.6</ele>
        <time>2015-08-14T09:54:20Z</time>
      </trkpt>
      <trkpt lat="42.2696820" lon="1.7242140">
        <ele>1756.1</ele>
        <time>2015-08-14T09:54:21Z</time>
      </trkpt>
      <trkpt lat="42.2696500" lon="1.7242660">
        <ele>1753.6</ele>
        <time>2015-08-14T09:54:22Z</time>
      </trkpt>
      <trkpt lat="42.2695940" lon="1.7243420">
        <ele>1749.4</ele>
        <time>2015-08-14T09:54:23Z</time>
      </trkpt>
      <trkpt lat="42.2695930" lon="1.7244350">
        <ele>1748.7</ele>
        <time>2015-08-14T09:54:24Z</time>
      </trkpt>
      <trkpt lat="42.2695720" lon="1.7245370">
        <ele>1747.0</ele>
        <time>2015-08-14T09:54:25Z</time>
      </trkpt>
      <trkpt lat="42.2695500" lon="1.7246410">
        <ele>1746.4</ele>
        <time>2015-08-14T09:54:26Z</time>
      </trkpt>
      <trkpt lat="42.2695360" lon="1.7247470">
        <ele>1746.6</ele>
        <time>2015-08-14T09:54:27Z</time>
      </trkpt>
      <trkpt lat="42.2695190" lon="1.7248490">
        <ele>1746.6</ele>
        <time>2015-08-14T09:54:28Z</time>
      </trkpt>
      <trkpt lat="42.2694860" lon="1.7249500">
        <ele>1745.9</ele>
        <time>2015-08-14T09:54:29Z</time>
      </trkpt>
      <trkpt lat="42.2694920" lon="1.7250640">
        <ele>1746.7</ele>
        <time>2015-08-14T09:54:30Z</time>
      </trkpt>
      <trkpt lat="42.2694940" lon="1.7251610">
        <ele>1747.2</ele>
        <time>2015-08-14T09:54:31Z</time>
      </trkpt>
      <trkpt lat="42.2694900" lon="1.7252750">
        <ele>1747.6</ele>
        <time>2015-08-14T09:54:32Z</time>
      </trkpt>
      <trkpt lat="42.2694790" lon="1.7253890">
        <ele>1747.6</ele>
        <time>2015-08-14T09:54:33Z</time>
      </trkpt>
      <trkpt lat="42.2694690" lon="1.7255080">
        <ele>1747.7</ele>
        <time>2015-08-14T09:54:34Z</time>
      </trkpt>
      <trkpt lat="42.2694440" lon="1.7256160">
        <ele>1746.9</ele>
        <time>2015-08-14T09:54:35Z</time>
      </trkpt>
      <trkpt lat="42.2694430" lon="1.7257270">
        <ele>1747.4</ele>
        <time>2015-08-14T09:54:36Z</time>
      </trkpt>
      <trkpt lat="42.2694140" lon="1.7258050">
        <ele>1746.1</ele>
        <time>2015-08-14T09:54:37Z</time>
      </trkpt>
      <trkpt lat="42.2693930" lon="1.7259190">
        <ele>1745.5</ele>
        <time>2015-08-14T09:54:38Z</time>
      </trkpt>
      <trkpt lat="42.2693780" lon="1.7260160">
        <ele>1745.0</ele>
        <time>2015-08-14T09:54:39Z</time>
      </trkpt>
      <trkpt lat="42.2693530" lon="1.7261120">
        <ele>1743.9</ele>
        <time>2015-08-14T09:54:40Z</time>
      </trkpt>
      <trkpt lat="42.2692720" lon="1.7261810">
        <ele>1739.5</ele>
        <time>2015-08-14T09:54:41Z</time>
      </trkpt>
      <trkpt lat="42.2692270" lon="1.7262670">
        <ele>1737.2</ele>
        <time>2015-08-14T09:54:42Z</time>
      </trkpt>
      <trkpt lat="42.2691990" lon="1.7263710">
        <ele>1736.7</ele>
        <time>2015-08-14T09:54:43Z</time>
      </trkpt>
      <trkpt lat="42.2691460" lon="1.7264720">
        <ele>1734.7</ele>
        <time>2015-08-14T09:54:44Z</time>
      </trkpt>
      <trkpt lat="42.2691900" lon="1.7265710">
        <ele>1738.3</ele>
        <time>2015-08-14T09:54:45Z</time>
      </trkpt>
      <trkpt lat="42.2691460" lon="1.7266650">
        <ele>1736.8</ele>
        <time>2015-08-14T09:54:46Z</time>
      </trkpt>
      <trkpt lat="42.2691400" lon="1.7267570">
        <ele>1737.4</ele>
        <time>2015-08-14T09:54:47Z</time>
      </trkpt>
      <trkpt lat="42.2690900" lon="1.7268370">
        <ele>1735.5</ele>
        <time>2015-08-14T09:54:48Z</time>
      </trkpt>
      <trkpt lat="42.2690570" lon="1.7269310">
        <ele>1734.6</ele>
        <time>2015-08-14T09:54:49Z</time>
      </trkpt>
      <trkpt lat="42.2689870" lon="1.7270490">
        <ele>1732.0</ele>
        <time>2015-08-14T09:54:50Z</time>
      </trkpt>
      <trkpt lat="42.2689850" lon="1.7271410">
        <ele>1732.4</ele>
        <time>2015-08-14T09:54:51Z</time>
      </trkpt>
      <trkpt lat="42.2689940" lon="1.7272480">
        <ele>1733.2</ele>
        <time>2015-08-14T09:54:52Z</time>
      </trkpt>
      <trkpt lat="42.2690080" lon="1.7273610">
        <ele>1734.2</ele>
        <time>2015-08-14T09:54:53Z</time>
      </trkpt>
      <trkpt lat="42.2690070" lon="1.7274850">
        <ele>1734.5</ele>
        <time>2015-08-14T09:54:54Z</time>
      </trkpt>
      <trkpt lat="42.2690020" lon="1.7275830">
        <ele>1734.4</ele>
        <time>2015-08-14T09:54:55Z</time>
      </trkpt>
      <trkpt lat="42.2689990" lon="1.7277000">
        <ele>1734.5</ele>
        <time>2015-08-14T09:54:56Z</time>
      </trkpt>
      <trkpt lat="42.2689950" lon="1.7278290">
        <ele>1734.6</ele>
        <time>2015-08-14T09:54:57Z</time>
      </trkpt>
      <trkpt lat="42.2689530" lon="1.7279460">
        <ele>1732.7</ele>
        <time>2015-08-14T09:54:58Z</time>
      </trkpt>
      <trkpt lat="42.2688810" lon="1.7280110">
        <ele>1729.3</ele>
        <time>2015-08-14T09:54:59Z</time>
      </trkpt>
      <trkpt lat="42.2688060" lon="1.7281230">
        <ele>1726.1</ele>
        <time>2015-08-14T09:55:00Z</time>
      </trkpt>
      <trkpt lat="42.2687860" lon="1.7282200">
        <ele>1725.9</ele>
        <time>2015-08-14T09:55:01Z</time>
      </trkpt>
      <trkpt lat="42.2687370" lon="1.7283570">
        <ele>1724.6</ele>
        <time>2015-08-14T09:55:02Z</time>
      </trkpt>
      <trkpt lat="42.2686830" lon="1.7284680">
        <ele>1723.3</ele>
        <time>2015-08-14T09:55:03Z</time>
      </trkpt>
      <trkpt lat="42.2686430" lon="1.7285410">
        <ele>1722.3</ele>
        <time>2015-08-14T09:55:04Z</time>
      </trkpt>
      <trkpt lat="42.2686590" lon="1.7285930">
        <ele>1723.5</ele>
        <time>2015-08-14T09:55:05Z</time>
      </trkpt>
      <trkpt lat="42.2686660" lon="1.7286780">
        <ele>1724.7</ele>
        <time>2015-08-14T09:55:06Z</time>
      </trkpt>
      <trkpt lat="42.2686250" lon="1.7287770">
        <ele>1723.8</ele>
        <time>2015-08-14T09:55:07Z</time>
      </trkpt>
      <trkpt lat="42.2685990" lon="1.7288700">
        <ele>1723.5</ele>
        <time>2015-08-14T09:55:08Z</time>
      </trkpt>
      <trkpt lat="42.2685260" lon="1.7289390">
        <ele>1721.1</ele>
        <time>2015-08-14T09:55:09Z</time>
      </trkpt>
      <trkpt lat="42.2684830" lon="1.7290120">
        <ele>1720.1</ele>
        <time>2015-08-14T09:55:10Z</time>
      </trkpt>
      <trkpt lat="42.2684810" lon="1.7291390">
        <ele>1721.2</ele>
        <time>2015-08-14T09:55:11Z</time>
      </trkpt>
      <trkpt lat="42.2684680" lon="1.7292240">
        <ele>1721.6</ele>
        <time>2015-08-14T09:55:12Z</time>
      </trkpt>
      <trkpt lat="42.2684660" lon="1.7293330">
        <ele>1722.6</ele>
        <time>2015-08-14T09:55:13Z</time>
      </trkpt>
      <trkpt lat="42.2684460" lon="1.7294340">
        <ele>1722.9</ele>
        <time>2015-08-14T09:55:14Z</time>
      </trkpt>
      <trkpt lat="42.2683850" lon="1.7295320">
        <ele>1721.7</ele>
        <time>2015-08-14T09:55:15Z</time>
      </trkpt>
      <trkpt lat="42.2683320" lon="1.7296440">
        <ele>1721.1</ele>
        <time>2015-08-14T09:55:16Z</time>
      </trkpt>
      <trkpt lat="42.2682990" lon="1.7297570">
        <ele>1721.2</ele>
        <time>2015-08-14T09:55:17Z</time>
      </trkpt>
      <trkpt lat="42.2682530" lon="1.7298770">
        <ele>1720.9</ele>
        <time>2015-08-14T09:55:18Z</time>
      </trkpt>
      <trkpt lat="42.2682220" lon="1.7299860">
        <ele>1721.1</ele>
        <time>2015-08-14T09:55:19Z</time>
      </trkpt>
      <trkpt lat="42.2681630" lon="1.7300850">
        <ele>1720.2</ele>
        <time>2015-08-14T09:55:20Z</time>
      </trkpt>
      <trkpt lat="42.2681110" lon="1.7301900">
        <ele>1719.7</ele>
        <time>2015-08-14T09:55:21Z</time>
      </trkpt>
      <trkpt lat="42.2680920" lon="1.7302610">
        <ele>1719.9</ele>
        <time>2015-08-14T09:55:22Z</time>
      </trkpt>
      <trkpt lat="42.2681000" lon="1.7303050">
        <ele>1720.7</ele>
        <time>2015-08-14T09:55:24Z</time>
      </trkpt>
      <trkpt lat="42.2680560" lon="1.7303680">
        <ele>1719.9</ele>
        <time>2015-08-14T09:55:31Z</time>
      </trkpt>
      <trkpt lat="42.2680290" lon="1.7303900">
        <ele>1719.3</ele>
        <time>2015-08-14T09:55:32Z</time>
      </trkpt>
      <trkpt lat="42.2680410" lon="1.7303480">
        <ele>1719.2</ele>
        <time>2015-08-14T09:55:33Z</time>
      </trkpt>
      <trkpt lat="42.2680140" lon="1.7303530">
        <ele>1718.4</ele>
        <time>2015-08-14T09:55:34Z</time>
      </trkpt>
      <trkpt lat="42.2680100" lon="1.7303110">
        <ele>1717.8</ele>
        <time>2015-08-14T09:55:35Z</time>
      </trkpt>
      <trkpt lat="42.2680300" lon="1.7303420">
        <ele>1718.8</ele>
        <time>2015-08-14T09:55:37Z</time>
      </trkpt>
      <trkpt lat="42.2680670" lon="1.7303420">
        <ele>1720.0</ele>
        <time>2015-08-14T09:55:41Z</time>
      </trkpt>
      <trkpt lat="42.2681010" lon="1.7303250">
        <ele>1720.9</ele>
        <time>2015-08-14T09:55:43Z</time>
      </trkpt>
      <trkpt lat="42.2681460" lon="1.7303340">
        <ele>1722.5</ele>
        <time>2015-08-14T09:56:00Z</time>
      </trkpt>
      <trkpt lat="42.2681730" lon="1.7303500">
        <ele>1723.6</ele>
        <time>2015-08-14T09:56:16Z</time>
      </trkpt>
      <trkpt lat="42.2681990" lon="1.7303280">
        <ele>1724.2</ele>
        <time>2015-08-14T09:56:28Z</time>
      </trkpt>
      <trkpt lat="42.2682270" lon="1.7303380">
        <ele>1725.2</ele>
        <time>2015-08-14T09:56:31Z</time>
      </trkpt>
      <trkpt lat="42.2682030" lon="1.7303810">
        <ele>1724.9</ele>
        <time>2015-08-14T09:56:51Z</time>
      </trkpt>
      <trkpt lat="42.2681880" lon="1.7304390">
        <ele>1724.8</ele>
        <time>2015-08-14T09:56:53Z</time>
      </trkpt>
      <trkpt lat="42.2681760" lon="1.7305100">
        <ele>1724.4</ele>
        <time>2015-08-14T09:56:55Z</time>
      </trkpt>
      <trkpt lat="42.2681820" lon="1.7306050">
        <ele>1724.5</ele>
        <time>2015-08-14T09:56:57Z</time>
      </trkpt>
      <trkpt lat="42.2681790" lon="1.7306590">
        <ele>1724.4</ele>
        <time>2015-08-14T09:56:58Z</time>
      </trkpt>
      <trkpt lat="42.2681620" lon="1.7307110">
        <ele>1723.8</ele>
        <time>2015-08-14T09:57:00Z</time>
      </trkpt>
      <trkpt lat="42.2681730" lon="1.7307510">
        <ele>1724.2</ele>
        <time>2015-08-14T09:57:01Z</time>
      </trkpt>
      <trkpt lat="42.2681780" lon="1.7307970">
        <ele>1724.3</ele>
        <time>2015-08-14T09:57:02Z</time>
      </trkpt>
      <trkpt lat="42.2681860" lon="1.7308320">
        <ele>1724.6</ele>
        <time>2015-08-14T09:57:03Z</time>
      </trkpt>
      <trkpt lat="42.2681710" lon="1.7308730">
        <ele>1724.0</ele>
        <time>2015-08-14T09:57:04Z</time>
      </trkpt>
      <trkpt lat="42.2681700" lon="1.7309140">
        <ele>1724.0</ele>
        <time>2015-08-14T09:57:05Z</time>
      </trkpt>
      <trkpt lat="42.2681530" lon="1.7309570">
        <ele>1723.4</ele>
        <time>2015-08-14T09:57:07Z</time>
      </trkpt>
      <trkpt lat="42.2681640" lon="1.7310010">
        <ele>1723.7</ele>
        <time>2015-08-14T09:57:08Z</time>
      </trkpt>
      <trkpt lat="42.2681230" lon="1.7311350">
        <ele>1722.3</ele>
        <time>2015-08-14T09:57:10Z</time>
      </trkpt>
      <trkpt lat="42.2681070" lon="1.7312080">
        <ele>1721.7</ele>
        <time>2015-08-14T09:57:11Z</time>
      </trkpt>
      <trkpt lat="42.2681190" lon="1.7313000">
        <ele>1721.5</ele>
        <time>2015-08-14T09:57:12Z</time>
      </trkpt>
      <trkpt lat="42.2681050" lon="1.7313690">
        <ele>1720.3</ele>
        <time>2015-08-14T09:57:13Z</time>
      </trkpt>
      <trkpt lat="42.2681000" lon="1.7314550">
        <ele>1719.2</ele>
        <time>2015-08-14T09:57:14Z</time>
      </trkpt>
      <trkpt lat="42.2680990" lon="1.7315300">
        <ele>1718.3</ele>
        <time>2015-08-14T09:57:15Z</time>
      </trkpt>
      <trkpt lat="42.2681010" lon="1.7316050">
        <ele>1717.6</ele>
        <time>2015-08-14T09:57:16Z</time>
      </trkpt>
      <trkpt lat="42.2680930" lon="1.7316820">
        <ele>1716.5</ele>
        <time>2015-08-14T09:57:17Z</time>
      </trkpt>
      <trkpt lat="42.2681640" lon="1.7317840">
        <ele>1717.8</ele>
        <time>2015-08-14T09:57:18Z</time>
      </trkpt>
      <trkpt lat="42.2681760" lon="1.7318700">
        <ele>1717.3</ele>
        <time>2015-08-14T09:57:19Z</time>
      </trkpt>
      <trkpt lat="42.2681990" lon="1.7319420">
        <ele>1717.4</ele>
        <time>2015-08-14T09:57:20Z</time>
      </trkpt>
      <trkpt lat="42.2682210" lon="1.7319980">
        <ele>1717.5</ele>
        <time>2015-08-14T09:57:21Z</time>
      </trkpt>
      <trkpt lat="42.2682350" lon="1.7320860">
        <ele>1717.0</ele>
        <time>2015-08-14T09:57:22Z</time>
      </trkpt>
      <trkpt lat="42.2682610" lon="1.7321870">
        <ele>1716.5</ele>
        <time>2015-08-14T09:57:23Z</time>
      </trkpt>
      <trkpt lat="42.2682830" lon="1.7322580">
        <ele>1716.2</ele>
        <time>2015-08-14T09:57:24Z</time>
      </trkpt>
      <trkpt lat="42.2683360" lon="1.7323280">
        <ele>1716.9</ele>
        <time>2015-08-14T09:57:25Z</time>
      </trkpt>
      <trkpt lat="42.2683820" lon="1.7323910">
        <ele>1717.5</ele>
        <time>2015-08-14T09:57:26Z</time>
      </trkpt>
      <trkpt lat="42.2684080" lon="1.7324530">
        <ele>1717.4</ele>
        <time>2015-08-14T09:57:27Z</time>
      </trkpt>
      <trkpt lat="42.2684330" lon="1.7325200">
        <ele>1717.2</ele>
        <time>2015-08-14T09:57:28Z</time>
      </trkpt>
      <trkpt lat="42.2684590" lon="1.7326000">
        <ele>1716.8</ele>
        <time>2015-08-14T09:57:29Z</time>
      </trkpt>
      <trkpt lat="42.2684700" lon="1.7326750">
        <ele>1716.0</ele>
        <time>2015-08-14T09:57:30Z</time>
      </trkpt>
      <trkpt lat="42.2684970" lon="1.7327500">
        <ele>1715.7</ele>
        <time>2015-08-14T09:57:31Z</time>
      </trkpt>
      <trkpt lat="42.2685140" lon="1.7328360">
        <ele>1714.9</ele>
        <time>2015-08-14T09:57:32Z</time>
      </trkpt>
      <trkpt lat="42.2685130" lon="1.7329120">
        <ele>1713.7</ele>
        <time>2015-08-14T09:57:33Z</time>
      </trkpt>
      <trkpt lat="42.2685230" lon="1.7329980">
        <ele>1712.3</ele>
        <time>2015-08-14T09:57:34Z</time>
      </trkpt>
      <trkpt lat="42.2685410" lon="1.7330870">
        <ele>1711.2</ele>
        <time>2015-08-14T09:57:35Z</time>
      </trkpt>
      <trkpt lat="42.2685650" lon="1.7331650">
        <ele>1710.5</ele>
        <time>2015-08-14T09:57:36Z</time>
      </trkpt>
      <trkpt lat="42.2685790" lon="1.7332570">
        <ele>1709.3</ele>
        <time>2015-08-14T09:57:37Z</time>
      </trkpt>
      <trkpt lat="42.2685850" lon="1.7333480">
        <ele>1707.8</ele>
        <time>2015-08-14T09:57:38Z</time>
      </trkpt>
      <trkpt lat="42.2685850" lon="1.7334350">
        <ele>1706.2</ele>
        <time>2015-08-14T09:57:39Z</time>
      </trkpt>
      <trkpt lat="42.2685870" lon="1.7335170">
        <ele>1704.7</ele>
        <time>2015-08-14T09:57:40Z</time>
      </trkpt>
      <trkpt lat="42.2685620" lon="1.7335940">
        <ele>1702.3</ele>
        <time>2015-08-14T09:57:41Z</time>
      </trkpt>
      <trkpt lat="42.2685460" lon="1.7336450">
        <ele>1700.7</ele>
        <time>2015-08-14T09:57:42Z</time>
      </trkpt>
      <trkpt lat="42.2685130" lon="1.7337300">
        <ele>1697.7</ele>
        <time>2015-08-14T09:57:43Z</time>
      </trkpt>
      <trkpt lat="42.2684920" lon="1.7337980">
        <ele>1695.9</ele>
        <time>2015-08-14T09:57:44Z</time>
      </trkpt>
      <trkpt lat="42.2684950" lon="1.7339150">
        <ele>1694.7</ele>
        <time>2015-08-14T09:57:45Z</time>
      </trkpt>
      <trkpt lat="42.2684760" lon="1.7340090">
        <ele>1692.8</ele>
        <time>2015-08-14T09:57:46Z</time>
      </trkpt>
      <trkpt lat="42.2684730" lon="1.7340980">
        <ele>1691.7</ele>
        <time>2015-08-14T09:57:47Z</time>
      </trkpt>
      <trkpt lat="42.2684860" lon="1.7341890">
        <ele>1691.2</ele>
        <time>2015-08-14T09:57:48Z</time>
      </trkpt>
      <trkpt lat="42.2684940" lon="1.7342710">
        <ele>1690.7</ele>
        <time>2015-08-14T09:57:49Z</time>
      </trkpt>
      <trkpt lat="42.2685000" lon="1.7343560">
        <ele>1690.0</ele>
        <time>2015-08-14T09:57:50Z</time>
      </trkpt>
      <trkpt lat="42.2685060" lon="1.7344570">
        <ele>1689.2</ele>
        <time>2015-08-14T09:57:51Z</time>
      </trkpt>
      <trkpt lat="42.2685120" lon="1.7345470">
        <ele>1688.5</ele>
        <time>2015-08-14T09:57:52Z</time>
      </trkpt>
      <trkpt lat="42.2685130" lon="1.7346330">
        <ele>1687.9</ele>
        <time>2015-08-14T09:57:53Z</time>
      </trkpt>
      <trkpt lat="42.2685080" lon="1.7347170">
        <ele>1687.2</ele>
        <time>2015-08-14T09:57:54Z</time>
      </trkpt>
      <trkpt lat="42.2684740" lon="1.7347810">
        <ele>1685.0</ele>
        <time>2015-08-14T09:57:55Z</time>
      </trkpt>
      <trkpt lat="42.2684350" lon="1.7348620">
        <ele>1682.4</ele>
        <time>2015-08-14T09:57:56Z</time>
      </trkpt>
      <trkpt lat="42.2684130" lon="1.7349120">
        <ele>1680.9</ele>
        <time>2015-08-14T09:57:57Z</time>
      </trkpt>
      <trkpt lat="42.2683800" lon="1.7350020">
        <ele>1678.6</ele>
        <time>2015-08-14T09:57:58Z</time>
      </trkpt>
      <trkpt lat="42.2683620" lon="1.7350680">
        <ele>1677.2</ele>
        <time>2015-08-14T09:57:59Z</time>
      </trkpt>
      <trkpt lat="42.2683470" lon="1.7351530">
        <ele>1675.8</ele>
        <time>2015-08-14T09:58:00Z</time>
      </trkpt>
      <trkpt lat="42.2683050" lon="1.7352420">
        <ele>1673.0</ele>
        <time>2015-08-14T09:58:01Z</time>
      </trkpt>
      <trkpt lat="42.2683210" lon="1.7353120">
        <ele>1673.4</ele>
        <time>2015-08-14T09:58:02Z</time>
      </trkpt>
      <trkpt lat="42.2683260" lon="1.7354060">
        <ele>1673.2</ele>
        <time>2015-08-14T09:58:03Z</time>
      </trkpt>
      <trkpt lat="42.2683230" lon="1.7355010">
        <ele>1672.2</ele>
        <time>2015-08-14T09:58:04Z</time>
      </trkpt>
      <trkpt lat="42.2683200" lon="1.7356000">
        <ele>1671.2</ele>
        <time>2015-08-14T09:58:05Z</time>
      </trkpt>
      <trkpt lat="42.2682890" lon="1.7356540">
        <ele>1669.0</ele>
        <time>2015-08-14T09:58:06Z</time>
      </trkpt>
      <trkpt lat="42.2682780" lon="1.7357170">
        <ele>1667.9</ele>
        <time>2015-08-14T09:58:07Z</time>
      </trkpt>
      <trkpt lat="42.2682630" lon="1.7357740">
        <ele>1666.5</ele>
        <time>2015-08-14T09:58:08Z</time>
      </trkpt>
      <trkpt lat="42.2682400" lon="1.7358350">
        <ele>1664.7</ele>
        <time>2015-08-14T09:58:09Z</time>
      </trkpt>
      <trkpt lat="42.2683390" lon="1.7358680">
        <ele>1670.0</ele>
        <time>2015-08-14T09:58:10Z</time>
      </trkpt>
      <trkpt lat="42.2684020" lon="1.7359200">
        <ele>1673.1</ele>
        <time>2015-08-14T09:58:11Z</time>
      </trkpt>
      <trkpt lat="42.2684510" lon="1.7359730">
        <ele>1675.5</ele>
        <time>2015-08-14T09:58:12Z</time>
      </trkpt>
      <trkpt lat="42.2684800" lon="1.7360380">
        <ele>1676.6</ele>
        <time>2015-08-14T09:58:13Z</time>
      </trkpt>
      <trkpt lat="42.2685130" lon="1.7360940">
        <ele>1677.9</ele>
        <time>2015-08-14T09:58:14Z</time>
      </trkpt>
      <trkpt lat="42.2685440" lon="1.7361990">
        <ele>1678.8</ele>
        <time>2015-08-14T09:58:15Z</time>
      </trkpt>
      <trkpt lat="42.2685640" lon="1.7362860">
        <ele>1679.0</ele>
        <time>2015-08-14T09:58:16Z</time>
      </trkpt>
      <trkpt lat="42.2685830" lon="1.7363830">
        <ele>1678.8</ele>
        <time>2015-08-14T09:58:17Z</time>
      </trkpt>
      <trkpt lat="42.2685880" lon="1.7364660">
        <ele>1677.9</ele>
        <time>2015-08-14T09:58:18Z</time>
      </trkpt>
      <trkpt lat="42.2685950" lon="1.7365480">
        <ele>1677.2</ele>
        <time>2015-08-14T09:58:19Z</time>
      </trkpt>
      <trkpt lat="42.2686150" lon="1.7366430">
        <ele>1676.8</ele>
        <time>2015-08-14T09:58:20Z</time>
      </trkpt>
      <trkpt lat="42.2686380" lon="1.7367220">
        <ele>1676.6</ele>
        <time>2015-08-14T09:58:21Z</time>
      </trkpt>
      <trkpt lat="42.2686600" lon="1.7368090">
        <ele>1676.2</ele>
        <time>2015-08-14T09:58:22Z</time>
      </trkpt>
      <trkpt lat="42.2686900" lon="1.7368880">
        <ele>1676.2</ele>
        <time>2015-08-14T09:58:23Z</time>
      </trkpt>
      <trkpt lat="42.2687160" lon="1.7369810">
        <ele>1675.6</ele>
        <time>2015-08-14T09:58:24Z</time>
      </trkpt>
      <trkpt lat="42.2687340" lon="1.7370680">
        <ele>1674.7</ele>
        <time>2015-08-14T09:58:25Z</time>
      </trkpt>
      <trkpt lat="42.2687400" lon="1.7371620">
        <ele>1675.2</ele>
        <time>2015-08-14T09:58:26Z</time>
      </trkpt>
      <trkpt lat="42.2687480" lon="1.7372380">
        <ele>1675.9</ele>
        <time>2015-08-14T09:58:27Z</time>
      </trkpt>
      <trkpt lat="42.2687530" lon="1.7373200">
        <ele>1676.6</ele>
        <time>2015-08-14T09:58:28Z</time>
      </trkpt>
      <trkpt lat="42.2688470" lon="1.7373300">
        <ele>1681.3</ele>
        <time>2015-08-14T09:58:29Z</time>
      </trkpt>
      <trkpt lat="42.2688340" lon="1.7374040">
        <ele>1680.9</ele>
        <time>2015-08-14T09:58:30Z</time>
      </trkpt>
      <trkpt lat="42.2688230" lon="1.7374770">
        <ele>1680.6</ele>
        <time>2015-08-14T09:58:31Z</time>
      </trkpt>
      <trkpt lat="42.2687700" lon="1.7375310">
        <ele>1678.5</ele>
        <time>2015-08-14T09:58:32Z</time>
      </trkpt>
      <trkpt lat="42.2687200" lon="1.7375680">
        <ele>1677.4</ele>
        <time>2015-08-14T09:58:33Z</time>
      </trkpt>
      <trkpt lat="42.2686730" lon="1.7376030">
        <ele>1677.0</ele>
        <time>2015-08-14T09:58:34Z</time>
      </trkpt>
      <trkpt lat="42.2686180" lon="1.7376260">
        <ele>1676.5</ele>
        <time>2015-08-14T09:58:35Z</time>
      </trkpt>
      <trkpt lat="42.2685660" lon="1.7376230">
        <ele>1675.8</ele>
        <time>2015-08-14T09:58:36Z</time>
      </trkpt>
      <trkpt lat="42.2685000" lon="1.7376070">
        <ele>1674.6</ele>
        <time>2015-08-14T09:58:37Z</time>
      </trkpt>
      <trkpt lat="42.2684300" lon="1.7375660">
        <ele>1672.9</ele>
        <time>2015-08-14T09:58:38Z</time>
      </trkpt>
      <trkpt lat="42.2683570" lon="1.7375300">
        <ele>1671.0</ele>
        <time>2015-08-14T09:58:39Z</time>
      </trkpt>
      <trkpt lat="42.2682350" lon="1.7374890">
        <ele>1668.0</ele>
        <time>2015-08-14T09:58:40Z</time>
      </trkpt>
      <trkpt lat="42.2681590" lon="1.7374470">
        <ele>1665.4</ele>
        <time>2015-08-14T09:58:41Z</time>
      </trkpt>
      <trkpt lat="42.2680950" lon="1.7374180">
        <ele>1663.2</ele>
        <time>2015-08-14T09:58:42Z</time>
      </trkpt>
      <trkpt lat="42.2680110" lon="1.7373920">
        <ele>1660.6</ele>
        <time>2015-08-14T09:58:43Z</time>
      </trkpt>
      <trkpt lat="42.2679320" lon="1.7374010">
        <ele>1659.2</ele>
        <time>2015-08-14T09:58:44Z</time>
      </trkpt>
      <trkpt lat="42.2678460" lon="1.7374130">
        <ele>1657.9</ele>
        <time>2015-08-14T09:58:45Z</time>
      </trkpt>
      <trkpt lat="42.2677610" lon="1.7374100">
        <ele>1656.2</ele>
        <time>2015-08-14T09:58:46Z</time>
      </trkpt>
      <trkpt lat="42.2676850" lon="1.7374070">
        <ele>1654.6</ele>
        <time>2015-08-14T09:58:47Z</time>
      </trkpt>
      <trkpt lat="42.2675790" lon="1.7373980">
        <ele>1652.2</ele>
        <time>2015-08-14T09:58:48Z</time>
      </trkpt>
      <trkpt lat="42.2674980" lon="1.7373950">
        <ele>1650.6</ele>
        <time>2015-08-14T09:58:49Z</time>
      </trkpt>
      <trkpt lat="42.2674230" lon="1.7373610">
        <ele>1647.9</ele>
        <time>2015-08-14T09:58:50Z</time>
      </trkpt>
      <trkpt lat="42.2673400" lon="1.7373390">
        <ele>1645.4</ele>
        <time>2015-08-14T09:58:51Z</time>
      </trkpt>
      <trkpt lat="42.2672590" lon="1.7373300">
        <ele>1643.5</ele>
        <time>2015-08-14T09:58:52Z</time>
      </trkpt>
      <trkpt lat="42.2671850" lon="1.7373060">
        <ele>1641.2</ele>
        <time>2015-08-14T09:58:53Z</time>
      </trkpt>
      <trkpt lat="42.2670830" lon="1.7372280">
        <ele>1636.4</ele>
        <time>2015-08-14T09:58:54Z</time>
      </trkpt>
      <trkpt lat="42.2670080" lon="1.7372130">
        <ele>1631.7</ele>
        <time>2015-08-14T09:58:55Z</time>
      </trkpt>
      <trkpt lat="42.2669280" lon="1.7371710">
        <ele>1625.9</ele>
        <time>2015-08-14T09:58:56Z</time>
      </trkpt>
      <trkpt lat="42.2668550" lon="1.7371590">
        <ele>1621.6</ele>
        <time>2015-08-14T09:58:57Z</time>
      </trkpt>
      <trkpt lat="42.2667840" lon="1.7371610">
        <ele>1617.8</ele>
        <time>2015-08-14T09:58:58Z</time>
      </trkpt>
      <trkpt lat="42.2667210" lon="1.7371610">
        <ele>1614.4</ele>
        <time>2015-08-14T09:58:59Z</time>
      </trkpt>
      <trkpt lat="42.2666610" lon="1.7371820">
        <ele>1611.9</ele>
        <time>2015-08-14T09:59:00Z</time>
      </trkpt>
      <trkpt lat="42.2666180" lon="1.7372670">
        <ele>1612.3</ele>
        <time>2015-08-14T09:59:01Z</time>
      </trkpt>
      <trkpt lat="42.2665710" lon="1.7373330">
        <ele>1611.8</ele>
        <time>2015-08-14T09:59:02Z</time>
      </trkpt>
      <trkpt lat="42.2665260" lon="1.7374110">
        <ele>1611.7</ele>
        <time>2015-08-14T09:59:03Z</time>
      </trkpt>
      <trkpt lat="42.2665070" lon="1.7375150">
        <ele>1613.8</ele>
        <time>2015-08-14T09:59:04Z</time>
      </trkpt>
      <trkpt lat="42.2664750" lon="1.7376040">
        <ele>1614.6</ele>
        <time>2015-08-14T09:59:05Z</time>
      </trkpt>
      <trkpt lat="42.2664450" lon="1.7377010">
        <ele>1615.7</ele>
        <time>2015-08-14T09:59:06Z</time>
      </trkpt>
      <trkpt lat="42.2664210" lon="1.7378100">
        <ele>1617.5</ele>
        <time>2015-08-14T09:59:07Z</time>
      </trkpt>
      <trkpt lat="42.2664010" lon="1.7378980">
        <ele>1618.9</ele>
        <time>2015-08-14T09:59:08Z</time>
      </trkpt>
      <trkpt lat="42.2663710" lon="1.7380190">
        <ele>1619.0</ele>
        <time>2015-08-14T09:59:09Z</time>
      </trkpt>
      <trkpt lat="42.2663840" lon="1.7381320">
        <ele>1621.3</ele>
        <time>2015-08-14T09:59:10Z</time>
      </trkpt>
      <trkpt lat="42.2663710" lon="1.7382360">
        <ele>1621.9</ele>
        <time>2015-08-14T09:59:11Z</time>
      </trkpt>
      <trkpt lat="42.2663680" lon="1.7383230">
        <ele>1622.9</ele>
        <time>2015-08-14T09:59:12Z</time>
      </trkpt>
      <trkpt lat="42.2663530" lon="1.7384150">
        <ele>1623.3</ele>
        <time>2015-08-14T09:59:13Z</time>
      </trkpt>
      <trkpt lat="42.2663410" lon="1.7384740">
        <ele>1623.4</ele>
        <time>2015-08-14T09:59:14Z</time>
      </trkpt>
      <trkpt lat="42.2663080" lon="1.7385060">
        <ele>1621.9</ele>
        <time>2015-08-14T09:59:15Z</time>
      </trkpt>
      <trkpt lat="42.2663230" lon="1.7385760">
        <ele>1623.8</ele>
        <time>2015-08-14T09:59:17Z</time>
      </trkpt>
      <trkpt lat="42.2663010" lon="1.7386160">
        <ele>1623.0</ele>
        <time>2015-08-14T09:59:18Z</time>
      </trkpt>
      <trkpt lat="42.2662800" lon="1.7386570">
        <ele>1622.4</ele>
        <time>2015-08-14T09:59:19Z</time>
      </trkpt>
      <trkpt lat="42.2663020" lon="1.7387170">
        <ele>1624.5</ele>
        <time>2015-08-14T09:59:20Z</time>
      </trkpt>
      <trkpt lat="42.2663010" lon="1.7387650">
        <ele>1625.1</ele>
        <time>2015-08-14T09:59:21Z</time>
      </trkpt>
      <trkpt lat="42.2663060" lon="1.7388220">
        <ele>1625.9</ele>
        <time>2015-08-14T09:59:22Z</time>
      </trkpt>
      <trkpt lat="42.2662990" lon="1.7388700">
        <ele>1625.9</ele>
        <time>2015-08-14T09:59:23Z</time>
      </trkpt>
      <trkpt lat="42.2662940" lon="1.7389190">
        <ele>1626.1</ele>
        <time>2015-08-14T09:59:24Z</time>
      </trkpt>
      <trkpt lat="42.2662890" lon="1.7389710">
        <ele>1626.3</ele>
        <time>2015-08-14T09:59:25Z</time>
      </trkpt>
      <trkpt lat="42.2663080" lon="1.7390300">
        <ele>1627.8</ele>
        <time>2015-08-14T09:59:26Z</time>
      </trkpt>
      <trkpt lat="42.2663110" lon="1.7390830">
        <ele>1628.5</ele>
        <time>2015-08-14T09:59:27Z</time>
      </trkpt>
      <trkpt lat="42.2662920" lon="1.7391330">
        <ele>1627.9</ele>
        <time>2015-08-14T09:59:28Z</time>
      </trkpt>
      <trkpt lat="42.2662870" lon="1.7391860">
        <ele>1628.1</ele>
        <time>2015-08-14T09:59:29Z</time>
      </trkpt>
      <trkpt lat="42.2662810" lon="1.7392490">
        <ele>1628.4</ele>
        <time>2015-08-14T09:59:30Z</time>
      </trkpt>
      <trkpt lat="42.2662710" lon="1.7393280">
        <ele>1628.6</ele>
        <time>2015-08-14T09:59:31Z</time>
      </trkpt>
      <trkpt lat="42.2662600" lon="1.7394170">
        <ele>1628.9</ele>
        <time>2015-08-14T09:59:32Z</time>
      </trkpt>
      <trkpt lat="42.2662430" lon="1.7394970">
        <ele>1628.7</ele>
        <time>2015-08-14T09:59:33Z</time>
      </trkpt>
      <trkpt lat="42.2662210" lon="1.7395610">
        <ele>1627.9</ele>
        <time>2015-08-14T09:59:34Z</time>
      </trkpt>
      <trkpt lat="42.2661980" lon="1.7396240">
        <ele>1626.8</ele>
        <time>2015-08-14T09:59:35Z</time>
      </trkpt>
      <trkpt lat="42.2661490" lon="1.7396910">
        <ele>1624.0</ele>
        <time>2015-08-14T09:59:36Z</time>
      </trkpt>
      <trkpt lat="42.2661090" lon="1.7397580">
        <ele>1621.8</ele>
        <time>2015-08-14T09:59:37Z</time>
      </trkpt>
      <trkpt lat="42.2660890" lon="1.7397930">
        <ele>1620.7</ele>
        <time>2015-08-14T09:59:38Z</time>
      </trkpt>
      <trkpt lat="42.2660510" lon="1.7398540">
        <ele>1618.7</ele>
        <time>2015-08-14T09:59:39Z</time>
      </trkpt>
      <trkpt lat="42.2659760" lon="1.7399680">
        <ele>1614.9</ele>
        <time>2015-08-14T09:59:40Z</time>
      </trkpt>
      <trkpt lat="42.2660640" lon="1.7400780">
        <ele>1620.6</ele>
        <time>2015-08-14T09:59:41Z</time>
      </trkpt>
      <trkpt lat="42.2660870" lon="1.7401490">
        <ele>1622.2</ele>
        <time>2015-08-14T09:59:42Z</time>
      </trkpt>
      <trkpt lat="42.2661090" lon="1.7402300">
        <ele>1623.8</ele>
        <time>2015-08-14T09:59:43Z</time>
      </trkpt>
      <trkpt lat="42.2661320" lon="1.7403130">
        <ele>1625.4</ele>
        <time>2015-08-14T09:59:44Z</time>
      </trkpt>
      <trkpt lat="42.2661830" lon="1.7403680">
        <ele>1628.3</ele>
        <time>2015-08-14T09:59:45Z</time>
      </trkpt>
      <trkpt lat="42.2661820" lon="1.7404580">
        <ele>1628.1</ele>
        <time>2015-08-14T09:59:46Z</time>
      </trkpt>
      <trkpt lat="42.2662180" lon="1.7405470">
        <ele>1629.1</ele>
        <time>2015-08-14T09:59:47Z</time>
      </trkpt>
      <trkpt lat="42.2662730" lon="1.7406160">
        <ele>1630.9</ele>
        <time>2015-08-14T09:59:48Z</time>
      </trkpt>
      <trkpt lat="42.2663070" lon="1.7406910">
        <ele>1631.4</ele>
        <time>2015-08-14T09:59:49Z</time>
      </trkpt>
      <trkpt lat="42.2663390" lon="1.7407710">
        <ele>1631.6</ele>
        <time>2015-08-14T09:59:50Z</time>
      </trkpt>
      <trkpt lat="42.2663720" lon="1.7408460">
        <ele>1632.0</ele>
        <time>2015-08-14T09:59:51Z</time>
      </trkpt>
      <trkpt lat="42.2664050" lon="1.7409210">
        <ele>1632.2</ele>
        <time>2015-08-14T09:59:52Z</time>
      </trkpt>
      <trkpt lat="42.2664370" lon="1.7409860">
        <ele>1632.6</ele>
        <time>2015-08-14T09:59:53Z</time>
      </trkpt>
      <trkpt lat="42.2664670" lon="1.7410580">
        <ele>1632.7</ele>
        <time>2015-08-14T09:59:54Z</time>
      </trkpt>
      <trkpt lat="42.2665080" lon="1.7411330">
        <ele>1633.1</ele>
        <time>2015-08-14T09:59:55Z</time>
      </trkpt>
      <trkpt lat="42.2665420" lon="1.7412040">
        <ele>1633.3</ele>
        <time>2015-08-14T09:59:56Z</time>
      </trkpt>
      <trkpt lat="42.2665680" lon="1.7412680">
        <ele>1633.2</ele>
        <time>2015-08-14T09:59:57Z</time>
      </trkpt>
      <trkpt lat="42.2666170" lon="1.7413590">
        <ele>1632.9</ele>
        <time>2015-08-14T09:59:58Z</time>
      </trkpt>
      <trkpt lat="42.2666550" lon="1.7414380">
        <ele>1632.5</ele>
        <time>2015-08-14T09:59:59Z</time>
      </trkpt>
      <trkpt lat="42.2667080" lon="1.7415050">
        <ele>1632.9</ele>
        <time>2015-08-14T10:00:00Z</time>
      </trkpt>
      <trkpt lat="42.2667460" lon="1.7415990">
        <ele>1632.3</ele>
        <time>2015-08-14T10:00:01Z</time>
      </trkpt>
      <trkpt lat="42.2667930" lon="1.7416730">
        <ele>1632.3</ele>
        <time>2015-08-14T10:00:02Z</time>
      </trkpt>
      <trkpt lat="42.2668080" lon="1.7417790">
        <ele>1630.8</ele>
        <time>2015-08-14T10:00:03Z</time>
      </trkpt>
      <trkpt lat="42.2668270" lon="1.7418800">
        <ele>1629.5</ele>
        <time>2015-08-14T10:00:04Z</time>
      </trkpt>
      <trkpt lat="42.2668430" lon="1.7419820">
        <ele>1628.1</ele>
        <time>2015-08-14T10:00:05Z</time>
      </trkpt>
      <trkpt lat="42.2668840" lon="1.7420980">
        <ele>1627.3</ele>
        <time>2015-08-14T10:00:06Z</time>
      </trkpt>
      <trkpt lat="42.2669170" lon="1.7422170">
        <ele>1626.3</ele>
        <time>2015-08-14T10:00:07Z</time>
      </trkpt>
      <trkpt lat="42.2669370" lon="1.7423370">
        <ele>1625.0</ele>
        <time>2015-08-14T10:00:08Z</time>
      </trkpt>
      <trkpt lat="42.2669330" lon="1.7424350">
        <ele>1623.2</ele>
        <time>2015-08-14T10:00:09Z</time>
      </trkpt>
      <trkpt lat="42.2669530" lon="1.7425020">
        <ele>1622.8</ele>
        <time>2015-08-14T10:00:10Z</time>
      </trkpt>
      <trkpt lat="42.2670140" lon="1.7426230">
        <ele>1623.0</ele>
        <time>2015-08-14T10:00:11Z</time>
      </trkpt>
      <trkpt lat="42.2670570" lon="1.7426950">
        <ele>1623.5</ele>
        <time>2015-08-14T10:00:12Z</time>
      </trkpt>
      <trkpt lat="42.2671040" lon="1.7427670">
        <ele>1623.9</ele>
        <time>2015-08-14T10:00:13Z</time>
      </trkpt>
      <trkpt lat="42.2671560" lon="1.7428360">
        <ele>1624.3</ele>
        <time>2015-08-14T10:00:14Z</time>
      </trkpt>
      <trkpt lat="42.2672030" lon="1.7429070">
        <ele>1624.5</ele>
        <time>2015-08-14T10:00:15Z</time>
      </trkpt>
      <trkpt lat="42.2672310" lon="1.7429470">
        <ele>1624.5</ele>
        <time>2015-08-14T10:00:16Z</time>
      </trkpt>
      <trkpt lat="42.2672290" lon="1.7430070">
        <ele>1623.3</ele>
        <time>2015-08-14T10:00:17Z</time>
      </trkpt>
      <trkpt lat="42.2672630" lon="1.7430610">
        <ele>1623.2</ele>
        <time>2015-08-14T10:00:18Z</time>
      </trkpt>
      <trkpt lat="42.2673160" lon="1.7430950">
        <ele>1624.0</ele>
        <time>2015-08-14T10:00:19Z</time>
      </trkpt>
      <trkpt lat="42.2673450" lon="1.7431510">
        <ele>1623.7</ele>
        <time>2015-08-14T10:00:21Z</time>
      </trkpt>
      <trkpt lat="42.2673600" lon="1.7432080">
        <ele>1623.0</ele>
        <time>2015-08-14T10:00:22Z</time>
      </trkpt>
      <trkpt lat="42.2673410" lon="1.7432760">
        <ele>1621.2</ele>
        <time>2015-08-14T10:00:23Z</time>
      </trkpt>
      <trkpt lat="42.2673880" lon="1.7433660">
        <ele>1620.8</ele>
        <time>2015-08-14T10:00:24Z</time>
      </trkpt>
      <trkpt lat="42.2674050" lon="1.7434410">
        <ele>1619.8</ele>
        <time>2015-08-14T10:00:25Z</time>
      </trkpt>
      <trkpt lat="42.2674200" lon="1.7435120">
        <ele>1618.9</ele>
        <time>2015-08-14T10:00:26Z</time>
      </trkpt>
      <trkpt lat="42.2674600" lon="1.7435800">
        <ele>1618.7</ele>
        <time>2015-08-14T10:00:27Z</time>
      </trkpt>
      <trkpt lat="42.2675190" lon="1.7436370">
        <ele>1619.2</ele>
        <time>2015-08-14T10:00:28Z</time>
      </trkpt>
      <trkpt lat="42.2675530" lon="1.7436980">
        <ele>1619.0</ele>
        <time>2015-08-14T10:00:29Z</time>
      </trkpt>
      <trkpt lat="42.2676070" lon="1.7437730">
        <ele>1619.0</ele>
        <time>2015-08-14T10:00:30Z</time>
      </trkpt>
      <trkpt lat="42.2676290" lon="1.7438010">
        <ele>1619.0</ele>
        <time>2015-08-14T10:00:31Z</time>
      </trkpt>
      <trkpt lat="42.2676560" lon="1.7438510">
        <ele>1618.8</ele>
        <time>2015-08-14T10:00:32Z</time>
      </trkpt>
      <trkpt lat="42.2676860" lon="1.7438880">
        <ele>1618.8</ele>
        <time>2015-08-14T10:00:33Z</time>
      </trkpt>
      <trkpt lat="42.2677660" lon="1.7438870">
        <ele>1621.1</ele>
        <time>2015-08-14T10:00:34Z</time>
      </trkpt>
      <trkpt lat="42.2677540" lon="1.7439440">
        <ele>1619.6</ele>
        <time>2015-08-14T10:00:36Z</time>
      </trkpt>
      <trkpt lat="42.2677650" lon="1.7439930">
        <ele>1619.0</ele>
        <time>2015-08-14T10:00:38Z</time>
      </trkpt>
      <trkpt lat="42.2677720" lon="1.7440360">
        <ele>1618.3</ele>
        <time>2015-08-14T10:00:40Z</time>
      </trkpt>
      <trkpt lat="42.2677790" lon="1.7440730">
        <ele>1617.8</ele>
        <time>2015-08-14T10:00:42Z</time>
      </trkpt>
      <trkpt lat="42.2677500" lon="1.7440960">
        <ele>1616.5</ele>
        <time>2015-08-14T10:00:44Z</time>
      </trkpt>
      <trkpt lat="42.2677270" lon="1.7441230">
        <ele>1615.3</ele>
        <time>2015-08-14T10:00:46Z</time>
      </trkpt>
      <trkpt lat="42.2676820" lon="1.7441370">
        <ele>1613.7</ele>
        <time>2015-08-14T10:00:48Z</time>
      </trkpt>
      <trkpt lat="42.2676420" lon="1.7441180">
        <ele>1612.9</ele>
        <time>2015-08-14T10:00:50Z</time>
      </trkpt>
      <trkpt lat="42.2676190" lon="1.7440960">
        <ele>1612.7</ele>
        <time>2015-08-14T10:00:52Z</time>
      </trkpt>
      <trkpt lat="42.2675910" lon="1.7440880">
        <ele>1612.0</ele>
        <time>2015-08-14T10:00:54Z</time>
      </trkpt>
      <trkpt lat="42.2675530" lon="1.7440660">
        <ele>1611.4</ele>
        <time>2015-08-14T10:00:56Z</time>
      </trkpt>
      <trkpt lat="42.2675250" lon="1.7440610">
        <ele>1610.7</ele>
        <time>2015-08-14T10:00:57Z</time>
      </trkpt>
      <trkpt lat="42.2674750" lon="1.7440330">
        <ele>1609.8</ele>
        <time>2015-08-14T10:00:59Z</time>
      </trkpt>
      <trkpt lat="42.2674530" lon="1.7439920">
        <ele>1610.1</ele>
        <time>2015-08-14T10:01:01Z</time>
      </trkpt>
      <trkpt lat="42.2674180" lon="1.7439630">
        <ele>1609.7</ele>
        <time>2015-08-14T10:01:02Z</time>
      </trkpt>
      <trkpt lat="42.2673880" lon="1.7439490">
        <ele>1609.1</ele>
        <time>2015-08-14T10:01:03Z</time>
      </trkpt>
      <trkpt lat="42.2673340" lon="1.7439370">
        <ele>1607.9</ele>
        <time>2015-08-14T10:01:05Z</time>
      </trkpt>
      <trkpt lat="42.2673050" lon="1.7439190">
        <ele>1607.4</ele>
        <time>2015-08-14T10:01:06Z</time>
      </trkpt>
      <trkpt lat="42.2672520" lon="1.7439110">
        <ele>1606.1</ele>
        <time>2015-08-14T10:01:07Z</time>
      </trkpt>
      <trkpt lat="42.2672050" lon="1.7438890">
        <ele>1605.3</ele>
        <time>2015-08-14T10:01:08Z</time>
      </trkpt>
      <trkpt lat="42.2672170" lon="1.7438390">
        <ele>1606.7</ele>
        <time>2015-08-14T10:01:09Z</time>
      </trkpt>
      <trkpt lat="42.2672020" lon="1.7438020">
        <ele>1607.1</ele>
        <time>2015-08-14T10:01:10Z</time>
      </trkpt>
      <trkpt lat="42.2671810" lon="1.7437720">
        <ele>1607.2</ele>
        <time>2015-08-14T10:01:11Z</time>
      </trkpt>
      <trkpt lat="42.2671610" lon="1.7437330">
        <ele>1607.5</ele>
        <time>2015-08-14T10:01:12Z</time>
      </trkpt>
      <trkpt lat="42.2671230" lon="1.7436930">
        <ele>1607.2</ele>
        <time>2015-08-14T10:01:13Z</time>
      </trkpt>
      <trkpt lat="42.2670990" lon="1.7436580">
        <ele>1607.2</ele>
        <time>2015-08-14T10:01:14Z</time>
      </trkpt>
      <trkpt lat="42.2670290" lon="1.7435850">
        <ele>1605.9</ele>
        <time>2015-08-14T10:01:15Z</time>
      </trkpt>
      <trkpt lat="42.2669840" lon="1.7435490">
        <ele>1604.7</ele>
        <time>2015-08-14T10:01:16Z</time>
      </trkpt>
      <trkpt lat="42.2669480" lon="1.7435480">
        <ele>1603.3</ele>
        <time>2015-08-14T10:01:17Z</time>
      </trkpt>
      <trkpt lat="42.2668850" lon="1.7435000">
        <ele>1601.6</ele>
        <time>2015-08-14T10:01:19Z</time>
      </trkpt>
      <trkpt lat="42.2668370" lon="1.7434730">
        <ele>1600.2</ele>
        <time>2015-08-14T10:01:20Z</time>
      </trkpt>
      <trkpt lat="42.2667970" lon="1.7434570">
        <ele>1598.8</ele>
        <time>2015-08-14T10:01:21Z</time>
      </trkpt>
      <trkpt lat="42.2667460" lon="1.7434420">
        <ele>1597.0</ele>
        <time>2015-08-14T10:01:22Z</time>
      </trkpt>
      <trkpt lat="42.2666900" lon="1.7433990">
        <ele>1595.6</ele>
        <time>2015-08-14T10:01:23Z</time>
      </trkpt>
      <trkpt lat="42.2666400" lon="1.7433760">
        <ele>1594.0</ele>
        <time>2015-08-14T10:01:24Z</time>
      </trkpt>
      <trkpt lat="42.2666000" lon="1.7433280">
        <ele>1593.4</ele>
        <time>2015-08-14T10:01:25Z</time>
      </trkpt>
      <trkpt lat="42.2665600" lon="1.7432680">
        <ele>1593.0</ele>
        <time>2015-08-14T10:01:26Z</time>
      </trkpt>
      <trkpt lat="42.2665140" lon="1.7432070">
        <ele>1592.4</ele>
        <time>2015-08-14T10:01:27Z</time>
      </trkpt>
      <trkpt lat="42.2664760" lon="1.7431660">
        <ele>1591.7</ele>
        <time>2015-08-14T10:01:28Z</time>
      </trkpt>
      <trkpt lat="42.2664420" lon="1.7431340">
        <ele>1591.0</ele>
        <time>2015-08-14T10:01:29Z</time>
      </trkpt>
      <trkpt lat="42.2664090" lon="1.7430930">
        <ele>1590.6</ele>
        <time>2015-08-14T10:01:30Z</time>
      </trkpt>
      <trkpt lat="42.2663790" lon="1.7430580">
        <ele>1590.1</ele>
        <time>2015-08-14T10:01:31Z</time>
      </trkpt>
      <trkpt lat="42.2663580" lon="1.7429790">
        <ele>1590.9</ele>
        <time>2015-08-14T10:01:32Z</time>
      </trkpt>
      <trkpt lat="42.2663300" lon="1.7429190">
        <ele>1591.1</ele>
        <time>2015-08-14T10:01:33Z</time>
      </trkpt>
      <trkpt lat="42.2662990" lon="1.7428680">
        <ele>1591.0</ele>
        <time>2015-08-14T10:01:34Z</time>
      </trkpt>
      <trkpt lat="42.2662570" lon="1.7428110">
        <ele>1590.7</ele>
        <time>2015-08-14T10:01:35Z</time>
      </trkpt>
      <trkpt lat="42.2662070" lon="1.7427330">
        <ele>1591.1</ele>
        <time>2015-08-14T10:01:36Z</time>
      </trkpt>
      <trkpt lat="42.2661770" lon="1.7426830">
        <ele>1591.4</ele>
        <time>2015-08-14T10:01:37Z</time>
      </trkpt>
      <trkpt lat="42.2661290" lon="1.7426250">
        <ele>1591.4</ele>
        <time>2015-08-14T10:01:38Z</time>
      </trkpt>
      <trkpt lat="42.2660940" lon="1.7426010">
        <ele>1591.1</ele>
        <time>2015-08-14T10:01:39Z</time>
      </trkpt>
      <trkpt lat="42.2660570" lon="1.7425540">
        <ele>1591.1</ele>
        <time>2015-08-14T10:01:40Z</time>
      </trkpt>
      <trkpt lat="42.2660010" lon="1.7425110">
        <ele>1590.5</ele>
        <time>2015-08-14T10:01:41Z</time>
      </trkpt>
      <trkpt lat="42.2659480" lon="1.7424850">
        <ele>1589.7</ele>
        <time>2015-08-14T10:01:42Z</time>
      </trkpt>
      <trkpt lat="42.2658980" lon="1.7424510">
        <ele>1589.0</ele>
        <time>2015-08-14T10:01:43Z</time>
      </trkpt>
      <trkpt lat="42.2658530" lon="1.7424240">
        <ele>1588.4</ele>
        <time>2015-08-14T10:01:44Z</time>
      </trkpt>
      <trkpt lat="42.2658000" lon="1.7423920">
        <ele>1587.6</ele>
        <time>2015-08-14T10:01:45Z</time>
      </trkpt>
      <trkpt lat="42.2657550" lon="1.7423450">
        <ele>1587.3</ele>
        <time>2015-08-14T10:01:46Z</time>
      </trkpt>
      <trkpt lat="42.2657070" lon="1.7422960">
        <ele>1587.0</ele>
        <time>2015-08-14T10:01:47Z</time>
      </trkpt>
      <trkpt lat="42.2656640" lon="1.7422500">
        <ele>1586.7</ele>
        <time>2015-08-14T10:01:48Z</time>
      </trkpt>
      <trkpt lat="42.2656210" lon="1.7422130">
        <ele>1586.3</ele>
        <time>2015-08-14T10:01:49Z</time>
      </trkpt>
      <trkpt lat="42.2655750" lon="1.7421590">
        <ele>1586.1</ele>
        <time>2015-08-14T10:01:50Z</time>
      </trkpt>
      <trkpt lat="42.2655230" lon="1.7421110">
        <ele>1585.5</ele>
        <time>2015-08-14T10:01:51Z</time>
      </trkpt>
      <trkpt lat="42.2654850" lon="1.7420490">
        <ele>1585.4</ele>
        <time>2015-08-14T10:01:52Z</time>
      </trkpt>
      <trkpt lat="42.2654470" lon="1.7420100">
        <ele>1584.7</ele>
        <time>2015-08-14T10:01:53Z</time>
      </trkpt>
      <trkpt lat="42.2654090" lon="1.7419710">
        <ele>1584.2</ele>
        <time>2015-08-14T10:01:54Z</time>
      </trkpt>
      <trkpt lat="42.2653630" lon="1.7419290">
        <ele>1584.8</ele>
        <time>2015-08-14T10:01:55Z</time>
      </trkpt>
      <trkpt lat="42.2653270" lon="1.7418870">
        <ele>1585.3</ele>
        <time>2015-08-14T10:01:56Z</time>
      </trkpt>
      <trkpt lat="42.2652980" lon="1.7418450">
        <ele>1585.7</ele>
        <time>2015-08-14T10:01:57Z</time>
      </trkpt>
      <trkpt lat="42.2652580" lon="1.7417940">
        <ele>1586.2</ele>
        <time>2015-08-14T10:01:58Z</time>
      </trkpt>
      <trkpt lat="42.2652280" lon="1.7417430">
        <ele>1586.7</ele>
        <time>2015-08-14T10:01:59Z</time>
      </trkpt>
      <trkpt lat="42.2652000" lon="1.7417040">
        <ele>1587.0</ele>
        <time>2015-08-14T10:02:00Z</time>
      </trkpt>
      <trkpt lat="42.2651730" lon="1.7416520">
        <ele>1587.3</ele>
        <time>2015-08-14T10:02:01Z</time>
      </trkpt>
      <trkpt lat="42.2651340" lon="1.7416150">
        <ele>1587.5</ele>
        <time>2015-08-14T10:02:02Z</time>
      </trkpt>
      <trkpt lat="42.2650970" lon="1.7415790">
        <ele>1587.7</ele>
        <time>2015-08-14T10:02:03Z</time>
      </trkpt>
      <trkpt lat="42.2650600" lon="1.7415510">
        <ele>1587.7</ele>
        <time>2015-08-14T10:02:04Z</time>
      </trkpt>
      <trkpt lat="42.2650210" lon="1.7415160">
        <ele>1587.8</ele>
        <time>2015-08-14T10:02:05Z</time>
      </trkpt>
      <trkpt lat="42.2649920" lon="1.7414900">
        <ele>1587.8</ele>
        <time>2015-08-14T10:02:06Z</time>
      </trkpt>
      <trkpt lat="42.2649660" lon="1.7414640">
        <ele>1587.8</ele>
        <time>2015-08-14T10:02:07Z</time>
      </trkpt>
      <trkpt lat="42.2649290" lon="1.7414400">
        <ele>1587.8</ele>
        <time>2015-08-14T10:02:08Z</time>
      </trkpt>
      <trkpt lat="42.2649020" lon="1.7414150">
        <ele>1587.7</ele>
        <time>2015-08-14T10:02:09Z</time>
      </trkpt>
      <trkpt lat="42.2648770" lon="1.7413870">
        <ele>1587.7</ele>
        <time>2015-08-14T10:02:10Z</time>
      </trkpt>
      <trkpt lat="42.2648440" lon="1.7413750">
        <ele>1587.6</ele>
        <time>2015-08-14T10:02:11Z</time>
      </trkpt>
      <trkpt lat="42.2648140" lon="1.7413690">
        <ele>1587.4</ele>
        <time>2015-08-14T10:02:12Z</time>
      </trkpt>
      <trkpt lat="42.2647800" lon="1.7413730">
        <ele>1587.2</ele>
        <time>2015-08-14T10:02:13Z</time>
      </trkpt>
      <trkpt lat="42.2647450" lon="1.7413690">
        <ele>1587.0</ele>
        <time>2015-08-14T10:02:14Z</time>
      </trkpt>
      <trkpt lat="42.2647120" lon="1.7413610">
        <ele>1586.9</ele>
        <time>2015-08-14T10:02:15Z</time>
      </trkpt>
      <trkpt lat="42.2646630" lon="1.7413460">
        <ele>1586.6</ele>
        <time>2015-08-14T10:02:17Z</time>
      </trkpt>
      <trkpt lat="42.2646320" lon="1.7413680">
        <ele>1586.4</ele>
        <time>2015-08-14T10:02:18Z</time>
      </trkpt>
      <trkpt lat="42.2646080" lon="1.7413920">
        <ele>1586.3</ele>
        <time>2015-08-14T10:02:19Z</time>
      </trkpt>
      <trkpt lat="42.2645950" lon="1.7414430">
        <ele>1586.3</ele>
        <time>2015-08-14T10:02:21Z</time>
      </trkpt>
      <trkpt lat="42.2645840" lon="1.7414950">
        <ele>1586.3</ele>
        <time>2015-08-14T10:02:23Z</time>
      </trkpt>
      <trkpt lat="42.2646050" lon="1.7415430">
        <ele>1586.4</ele>
        <time>2015-08-14T10:02:25Z</time>
      </trkpt>
      <trkpt lat="42.2646180" lon="1.7415890">
        <ele>1586.5</ele>
        <time>2015-08-14T10:02:26Z</time>
      </trkpt>
      <trkpt lat="42.2646390" lon="1.7416690">
        <ele>1586.6</ele>
        <time>2015-08-14T10:02:27Z</time>
      </trkpt>
      <trkpt lat="42.2646450" lon="1.7417200">
        <ele>1586.6</ele>
        <time>2015-08-14T10:02:28Z</time>
      </trkpt>
      <trkpt lat="42.2646000" lon="1.7417850">
        <ele>1586.6</ele>
        <time>2015-08-14T10:02:29Z</time>
      </trkpt>
      <trkpt lat="42.2646010" lon="1.7418260">
        <ele>1586.7</ele>
        <time>2015-08-14T10:02:30Z</time>
      </trkpt>
      <trkpt lat="42.2645890" lon="1.7418720">
        <ele>1586.7</ele>
        <time>2015-08-14T10:02:33Z</time>
      </trkpt>
      <trkpt lat="42.2645890" lon="1.7419160">
        <ele>1586.8</ele>
        <time>2015-08-14T10:02:36Z</time>
      </trkpt>
      <trkpt lat="42.2646420" lon="1.7419430">
        <ele>1586.7</ele>
        <time>2015-08-14T10:02:38Z</time>
      </trkpt>
      <trkpt lat="42.2646630" lon="1.7419850">
        <ele>1586.6</ele>
        <time>2015-08-14T10:02:42Z</time>
      </trkpt>
      <trkpt lat="42.2646740" lon="1.7420270">
        <ele>1586.6</ele>
        <time>2015-08-14T10:02:45Z</time>
      </trkpt>
      <trkpt lat="42.2647090" lon="1.7419730">
        <ele>1586.5</ele>
        <time>2015-08-14T10:02:48Z</time>
      </trkpt>
      <trkpt lat="42.2647330" lon="1.7419480">
        <ele>1586.4</ele>
        <time>2015-08-14T10:02:51Z</time>
      </trkpt>
      <trkpt lat="42.2647500" lon="1.7419770">
        <ele>1586.3</ele>
        <time>2015-08-14T10:02:55Z</time>
      </trkpt>
      <trkpt lat="42.2647680" lon="1.7420190">
        <ele>1586.2</ele>
        <time>2015-08-14T10:03:00Z</time>
      </trkpt>
      <trkpt lat="42.2648360" lon="1.7420780">
        <ele>1585.8</ele>
        <time>2015-08-14T10:03:07Z</time>
      </trkpt>
      <trkpt lat="42.2648180" lon="1.7421190">
        <ele>1585.4</ele>
        <time>2015-08-14T10:03:08Z</time>
      </trkpt>
      <trkpt lat="42.2648360" lon="1.7421380">
        <ele>1585.1</ele>
        <time>2015-08-14T10:03:15Z</time>
      </trkpt>
      <trkpt lat="42.2648270" lon="1.7421480">
        <ele>1585.0</ele>
        <time>2015-08-14T10:04:27Z</time>
      </trkpt>
      <trkpt lat="42.2648180" lon="1.7421570">
        <ele>1584.9</ele>
        <time>2015-08-14T10:05:21Z</time>
      </trkpt>
      <trkpt lat="42.2648090" lon="1.7421660">
        <ele>1584.8</ele>
        <time>2015-08-14T10:05:22Z</time>
      </trkpt>
      <trkpt lat="42.2647760" lon="1.7422170">
        <ele>1584.4</ele>
        <time>2015-08-14T10:05:23Z</time>
      </trkpt>
      <trkpt lat="42.2647770" lon="1.7422840">
        <ele>1583.5</ele>
        <time>2015-08-14T10:05:24Z</time>
      </trkpt>
      <trkpt lat="42.2647580" lon="1.7423320">
        <ele>1583.0</ele>
        <time>2015-08-14T10:05:25Z</time>
      </trkpt>
      <trkpt lat="42.2647860" lon="1.7424330">
        <ele>1581.5</ele>
        <time>2015-08-14T10:05:26Z</time>
      </trkpt>
      <trkpt lat="42.2648040" lon="1.7424600">
        <ele>1581.0</ele>
        <time>2015-08-14T10:05:27Z</time>
      </trkpt>
      <trkpt lat="42.2648100" lon="1.7425310">
        <ele>1580.1</ele>
        <time>2015-08-14T10:05:28Z</time>
      </trkpt>
      <trkpt lat="42.2648380" lon="1.7426000">
        <ele>1578.9</ele>
        <time>2015-08-14T10:05:29Z</time>
      </trkpt>
      <trkpt lat="42.2648540" lon="1.7426550">
        <ele>1578.0</ele>
        <time>2015-08-14T10:05:30Z</time>
      </trkpt>
      <trkpt lat="42.2648840" lon="1.7426610">
        <ele>1577.6</ele>
        <time>2015-08-14T10:05:31Z</time>
      </trkpt>
      <trkpt lat="42.2649380" lon="1.7426860">
        <ele>1576.6</ele>
        <time>2015-08-14T10:05:32Z</time>
      </trkpt>
      <trkpt lat="42.2649380" lon="1.7427710">
        <ele>1575.4</ele>
        <time>2015-08-14T10:05:33Z</time>
      </trkpt>
      <trkpt lat="42.2649460" lon="1.7428450">
        <ele>1574.2</ele>
        <time>2015-08-14T10:05:34Z</time>
      </trkpt>
      <trkpt lat="42.2649580" lon="1.7428980">
        <ele>1573.3</ele>
        <time>2015-08-14T10:05:35Z</time>
      </trkpt>
      <trkpt lat="42.2649480" lon="1.7429520">
        <ele>1573.0</ele>
        <time>2015-08-14T10:05:36Z</time>
      </trkpt>
      <trkpt lat="42.2649570" lon="1.7429920">
        <ele>1572.6</ele>
        <time>2015-08-14T10:05:37Z</time>
      </trkpt>
      <trkpt lat="42.2649570" lon="1.7430480">
        <ele>1572.2</ele>
        <time>2015-08-14T10:05:38Z</time>
      </trkpt>
      <trkpt lat="42.2649510" lon="1.7431030">
        <ele>1571.9</ele>
        <time>2015-08-14T10:05:39Z</time>
      </trkpt>
      <trkpt lat="42.2649470" lon="1.7431620">
        <ele>1571.6</ele>
        <time>2015-08-14T10:05:40Z</time>
      </trkpt>
      <trkpt lat="42.2649530" lon="1.7432200">
        <ele>1571.1</ele>
        <time>2015-08-14T10:05:41Z</time>
      </trkpt>
      <trkpt lat="42.2650140" lon="1.7432260">
        <ele>1570.0</ele>
        <time>2015-08-14T10:05:42Z</time>
      </trkpt>
      <trkpt lat="42.2650440" lon="1.7432400">
        <ele>1569.4</ele>
        <time>2015-08-14T10:05:44Z</time>
      </trkpt>
      <trkpt lat="42.2650770" lon="1.7432600">
        <ele>1568.6</ele>
        <time>2015-08-14T10:05:46Z</time>
      </trkpt>
      <trkpt lat="42.2651420" lon="1.7433000">
        <ele>1567.1</ele>
        <time>2015-08-14T10:05:47Z</time>
      </trkpt>
      <trkpt lat="42.2651770" lon="1.7433460">
        <ele>1566.0</ele>
        <time>2015-08-14T10:05:48Z</time>
      </trkpt>
      <trkpt lat="42.2651830" lon="1.7433910">
        <ele>1565.4</ele>
        <time>2015-08-14T10:05:49Z</time>
      </trkpt>
      <trkpt lat="42.2651880" lon="1.7434380">
        <ele>1564.9</ele>
        <time>2015-08-14T10:05:50Z</time>
      </trkpt>
      <trkpt lat="42.2651910" lon="1.7434830">
        <ele>1564.3</ele>
        <time>2015-08-14T10:05:51Z</time>
      </trkpt>
      <trkpt lat="42.2652130" lon="1.7435280">
        <ele>1563.4</ele>
        <time>2015-08-14T10:05:52Z</time>
      </trkpt>
      <trkpt lat="42.2652170" lon="1.7435760">
        <ele>1562.8</ele>
        <time>2015-08-14T10:05:53Z</time>
      </trkpt>
      <trkpt lat="42.2652310" lon="1.7436310">
        <ele>1561.9</ele>
        <time>2015-08-14T10:05:54Z</time>
      </trkpt>
      <trkpt lat="42.2652430" lon="1.7436820">
        <ele>1561.1</ele>
        <time>2015-08-14T10:05:55Z</time>
      </trkpt>
      <trkpt lat="42.2652590" lon="1.7437430">
        <ele>1560.0</ele>
        <time>2015-08-14T10:05:56Z</time>
      </trkpt>
      <trkpt lat="42.2652740" lon="1.7437920">
        <ele>1559.4</ele>
        <time>2015-08-14T10:05:57Z</time>
      </trkpt>
      <trkpt lat="42.2652870" lon="1.7438520">
        <ele>1558.8</ele>
        <time>2015-08-14T10:05:58Z</time>
      </trkpt>
      <trkpt lat="42.2652960" lon="1.7439060">
        <ele>1558.3</ele>
        <time>2015-08-14T10:05:59Z</time>
      </trkpt>
      <trkpt lat="42.2653000" lon="1.7439910">
        <ele>1557.8</ele>
        <time>2015-08-14T10:06:00Z</time>
      </trkpt>
      <trkpt lat="42.2653070" lon="1.7440640">
        <ele>1557.2</ele>
        <time>2015-08-14T10:06:01Z</time>
      </trkpt>
      <trkpt lat="42.2653050" lon="1.7441340">
        <ele>1556.9</ele>
        <time>2015-08-14T10:06:02Z</time>
      </trkpt>
      <trkpt lat="42.2653330" lon="1.7442030">
        <ele>1555.6</ele>
        <time>2015-08-14T10:06:03Z</time>
      </trkpt>
      <trkpt lat="42.2653440" lon="1.7442460">
        <ele>1555.0</ele>
        <time>2015-08-14T10:06:04Z</time>
      </trkpt>
      <trkpt lat="42.2653620" lon="1.7443120">
        <ele>1554.0</ele>
        <time>2015-08-14T10:06:05Z</time>
      </trkpt>
      <trkpt lat="42.2653920" lon="1.7443620">
        <ele>1552.5</ele>
        <time>2015-08-14T10:06:06Z</time>
      </trkpt>
      <trkpt lat="42.2654300" lon="1.7443860">
        <ele>1551.6</ele>
        <time>2015-08-14T10:06:07Z</time>
      </trkpt>
      <trkpt lat="42.2653890" lon="1.7443410">
        <ele>1552.8</ele>
        <time>2015-08-14T10:06:08Z</time>
      </trkpt>
      <trkpt lat="42.2653880" lon="1.7443840">
        <ele>1552.5</ele>
        <time>2015-08-14T10:06:10Z</time>
      </trkpt>
      <trkpt lat="42.2653930" lon="1.7444270">
        <ele>1552.0</ele>
        <time>2015-08-14T10:06:11Z</time>
      </trkpt>
      <trkpt lat="42.2654440" lon="1.7444760">
        <ele>1551.0</ele>
        <time>2015-08-14T10:06:14Z</time>
      </trkpt>
      <trkpt lat="42.2654600" lon="1.7445120">
        <ele>1550.9</ele>
        <time>2015-08-14T10:06:18Z</time>
      </trkpt>
      <trkpt lat="42.2654770" lon="1.7445490">
        <ele>1550.8</ele>
        <time>2015-08-14T10:06:23Z</time>
      </trkpt>
      <trkpt lat="42.2654930" lon="1.7445860">
        <ele>1550.7</ele>
        <time>2015-08-14T10:06:27Z</time>
      </trkpt>
      <trkpt lat="42.2655090" lon="1.7446220">
        <ele>1551.1</ele>
        <time>2015-08-14T10:08:11Z</time>
      </trkpt>
      <trkpt lat="42.2655250" lon="1.7446590">
        <ele>1551.5</ele>
        <time>2015-08-14T10:08:12Z</time>
      </trkpt>
      <trkpt lat="42.2655440" lon="1.7447090">
        <ele>1552.0</ele>
        <time>2015-08-14T10:08:15Z</time>
      </trkpt>
      <trkpt lat="42.2655660" lon="1.7447190">
        <ele>1552.2</ele>
        <time>2015-08-14T10:08:29Z</time>
      </trkpt>
      <trkpt lat="42.2655870" lon="1.7447280">
        <ele>1552.4</ele>
        <time>2015-08-14T10:08:30Z</time>
      </trkpt>
      <trkpt lat="42.2655950" lon="1.7448750">
        <ele>1553.3</ele>
        <time>2015-08-14T10:08:32Z</time>
      </trkpt>
      <trkpt lat="42.2655710" lon="1.7449500">
        <ele>1553.8</ele>
        <time>2015-08-14T10:08:34Z</time>
      </trkpt>
      <trkpt lat="42.2655720" lon="1.7450220">
        <ele>1554.3</ele>
        <time>2015-08-14T10:08:35Z</time>
      </trkpt>
      <trkpt lat="42.2656410" lon="1.7451420">
        <ele>1554.7</ele>
        <time>2015-08-14T10:08:36Z</time>
      </trkpt>
      <trkpt lat="42.2656640" lon="1.7452040">
        <ele>1554.8</ele>
        <time>2015-08-14T10:08:37Z</time>
      </trkpt>
      <trkpt lat="42.2656750" lon="1.7452630">
        <ele>1555.0</ele>
        <time>2015-08-14T10:08:38Z</time>
      </trkpt>
      <trkpt lat="42.2656770" lon="1.7453470">
        <ele>1555.3</ele>
        <time>2015-08-14T10:08:39Z</time>
      </trkpt>
      <trkpt lat="42.2656880" lon="1.7454150">
        <ele>1555.4</ele>
        <time>2015-08-14T10:08:41Z</time>
      </trkpt>
      <trkpt lat="42.2656810" lon="1.7454620">
        <ele>1555.6</ele>
        <time>2015-08-14T10:08:42Z</time>
      </trkpt>
      <trkpt lat="42.2657080" lon="1.7455000">
        <ele>1555.2</ele>
        <time>2015-08-14T10:08:44Z</time>
      </trkpt>
      <trkpt lat="42.2657220" lon="1.7455520">
        <ele>1555.0</ele>
        <time>2015-08-14T10:08:45Z</time>
      </trkpt>
      <trkpt lat="42.2657120" lon="1.7455880">
        <ele>1555.2</ele>
        <time>2015-08-14T10:08:46Z</time>
      </trkpt>
      <trkpt lat="42.2657490" lon="1.7456250">
        <ele>1554.6</ele>
        <time>2015-08-14T10:08:47Z</time>
      </trkpt>
      <trkpt lat="42.2657420" lon="1.7456640">
        <ele>1554.7</ele>
        <time>2015-08-14T10:08:48Z</time>
      </trkpt>
      <trkpt lat="42.2657450" lon="1.7457010">
        <ele>1554.6</ele>
        <time>2015-08-14T10:08:49Z</time>
      </trkpt>
      <trkpt lat="42.2657310" lon="1.7457570">
        <ele>1554.9</ele>
        <time>2015-08-14T10:08:50Z</time>
      </trkpt>
      <trkpt lat="42.2657280" lon="1.7458160">
        <ele>1555.0</ele>
        <time>2015-08-14T10:08:51Z</time>
      </trkpt>
      <trkpt lat="42.2657720" lon="1.7458630">
        <ele>1554.0</ele>
        <time>2015-08-14T10:08:52Z</time>
      </trkpt>
      <trkpt lat="42.2657870" lon="1.7459100">
        <ele>1553.7</ele>
        <time>2015-08-14T10:08:53Z</time>
      </trkpt>
      <trkpt lat="42.2657910" lon="1.7459490">
        <ele>1553.5</ele>
        <time>2015-08-14T10:08:54Z</time>
      </trkpt>
      <trkpt lat="42.2658540" lon="1.7460000">
        <ele>1552.0</ele>
        <time>2015-08-14T10:08:56Z</time>
      </trkpt>
      <trkpt lat="42.2658660" lon="1.7460610">
        <ele>1551.5</ele>
        <time>2015-08-14T10:08:58Z</time>
      </trkpt>
      <trkpt lat="42.2658950" lon="1.7460860">
        <ele>1550.7</ele>
        <time>2015-08-14T10:08:59Z</time>
      </trkpt>
      <trkpt lat="42.2659280" lon="1.7460890">
        <ele>1549.8</ele>
        <time>2015-08-14T10:09:00Z</time>
      </trkpt>
      <trkpt lat="42.2659190" lon="1.7461790">
        <ele>1549.8</ele>
        <time>2015-08-14T10:09:02Z</time>
      </trkpt>
      <trkpt lat="42.2659420" lon="1.7462130">
        <ele>1549.0</ele>
        <time>2015-08-14T10:09:04Z</time>
      </trkpt>
      <trkpt lat="42.2659740" lon="1.7462530">
        <ele>1547.9</ele>
        <time>2015-08-14T10:09:05Z</time>
      </trkpt>
      <trkpt lat="42.2659950" lon="1.7463090">
        <ele>1547.0</ele>
        <time>2015-08-14T10:09:06Z</time>
      </trkpt>
      <trkpt lat="42.2660040" lon="1.7463620">
        <ele>1546.5</ele>
        <time>2015-08-14T10:09:07Z</time>
      </trkpt>
      <trkpt lat="42.2660420" lon="1.7463730">
        <ele>1545.2</ele>
        <time>2015-08-14T10:09:08Z</time>
      </trkpt>
      <trkpt lat="42.2660290" lon="1.7464510">
        <ele>1545.2</ele>
        <time>2015-08-14T10:09:10Z</time>
      </trkpt>
      <trkpt lat="42.2660170" lon="1.7465050">
        <ele>1545.2</ele>
        <time>2015-08-14T10:09:11Z</time>
      </trkpt>
      <trkpt lat="42.2660330" lon="1.7465710">
        <ele>1544.3</ele>
        <time>2015-08-14T10:09:12Z</time>
      </trkpt>
      <trkpt lat="42.2660540" lon="1.7466020">
        <ele>1543.3</ele>
        <time>2015-08-14T10:09:14Z</time>
      </trkpt>
      <trkpt lat="42.2660660" lon="1.7466690">
        <ele>1542.4</ele>
        <time>2015-08-14T10:09:15Z</time>
      </trkpt>
      <trkpt lat="42.2660750" lon="1.7467450">
        <ele>1541.6</ele>
        <time>2015-08-14T10:09:17Z</time>
      </trkpt>
      <trkpt lat="42.2661000" lon="1.7467750">
        <ele>1540.4</ele>
        <time>2015-08-14T10:09:18Z</time>
      </trkpt>
      <trkpt lat="42.2661070" lon="1.7468490">
        <ele>1539.5</ele>
        <time>2015-08-14T10:09:19Z</time>
      </trkpt>
      <trkpt lat="42.2661340" lon="1.7468730">
        <ele>1538.2</ele>
        <time>2015-08-14T10:09:20Z</time>
      </trkpt>
      <trkpt lat="42.2661690" lon="1.7469250">
        <ele>1536.2</ele>
        <time>2015-08-14T10:09:22Z</time>
      </trkpt>
      <trkpt lat="42.2661940" lon="1.7469730">
        <ele>1534.7</ele>
        <time>2015-08-14T10:09:24Z</time>
      </trkpt>
      <trkpt lat="42.2661740" lon="1.7470040">
        <ele>1535.3</ele>
        <time>2015-08-14T10:09:26Z</time>
      </trkpt>
      <trkpt lat="42.2662150" lon="1.7470300">
        <ele>1533.2</ele>
        <time>2015-08-14T10:09:27Z</time>
      </trkpt>
      <trkpt lat="42.2661840" lon="1.7471080">
        <ele>1534.0</ele>
        <time>2015-08-14T10:09:52Z</time>
      </trkpt>
      <trkpt lat="42.2661990" lon="1.7471560">
        <ele>1533.1</ele>
        <time>2015-08-14T10:09:54Z</time>
      </trkpt>
      <trkpt lat="42.2662240" lon="1.7471780">
        <ele>1531.8</ele>
        <time>2015-08-14T10:09:55Z</time>
      </trkpt>
      <trkpt lat="42.2662480" lon="1.7472370">
        <ele>1530.4</ele>
        <time>2015-08-14T10:09:57Z</time>
      </trkpt>
      <trkpt lat="42.2662160" lon="1.7472700">
        <ele>1531.8</ele>
        <time>2015-08-14T10:10:02Z</time>
      </trkpt>
      <trkpt lat="42.2662520" lon="1.7472930">
        <ele>1530.0</ele>
        <time>2015-08-14T10:10:04Z</time>
      </trkpt>
      <trkpt lat="42.2663040" lon="1.7473310">
        <ele>1530.1</ele>
        <time>2015-08-14T10:10:06Z</time>
      </trkpt>
      <trkpt lat="42.2662840" lon="1.7473590">
        <ele>1529.8</ele>
        <time>2015-08-14T10:11:29Z</time>
      </trkpt>
      <trkpt lat="42.2662940" lon="1.7473960">
        <ele>1529.7</ele>
        <time>2015-08-14T10:11:30Z</time>
      </trkpt>
      <trkpt lat="42.2663190" lon="1.7474140">
        <ele>1529.7</ele>
        <time>2015-08-14T10:11:31Z</time>
      </trkpt>
      <trkpt lat="42.2663400" lon="1.7474890">
        <ele>1529.4</ele>
        <time>2015-08-14T10:11:33Z</time>
      </trkpt>
      <trkpt lat="42.2663520" lon="1.7475340">
        <ele>1529.3</ele>
        <time>2015-08-14T10:11:34Z</time>
      </trkpt>
      <trkpt lat="42.2663540" lon="1.7475830">
        <ele>1529.0</ele>
        <time>2015-08-14T10:11:35Z</time>
      </trkpt>
      <trkpt lat="42.2663530" lon="1.7476380">
        <ele>1528.7</ele>
        <time>2015-08-14T10:11:36Z</time>
      </trkpt>
      <trkpt lat="42.2663710" lon="1.7476910">
        <ele>1528.6</ele>
        <time>2015-08-14T10:11:37Z</time>
      </trkpt>
      <trkpt lat="42.2663740" lon="1.7477340">
        <ele>1528.4</ele>
        <time>2015-08-14T10:11:38Z</time>
      </trkpt>
      <trkpt lat="42.2663820" lon="1.7478160">
        <ele>1528.0</ele>
        <time>2015-08-14T10:11:39Z</time>
      </trkpt>
      <trkpt lat="42.2663800" lon="1.7478540">
        <ele>1527.8</ele>
        <time>2015-08-14T10:11:40Z</time>
      </trkpt>
      <trkpt lat="42.2663750" lon="1.7479120">
        <ele>1527.5</ele>
        <time>2015-08-14T10:11:41Z</time>
      </trkpt>
      <trkpt lat="42.2663670" lon="1.7479680">
        <ele>1527.2</ele>
        <time>2015-08-14T10:11:42Z</time>
      </trkpt>
      <trkpt lat="42.2663700" lon="1.7480130">
        <ele>1527.1</ele>
        <time>2015-08-14T10:11:43Z</time>
      </trkpt>
      <trkpt lat="42.2663720" lon="1.7481440">
        <ele>1526.6</ele>
        <time>2015-08-14T10:11:44Z</time>
      </trkpt>
      <trkpt lat="42.2663710" lon="1.7482070">
        <ele>1526.4</ele>
        <time>2015-08-14T10:11:45Z</time>
      </trkpt>
      <trkpt lat="42.2663690" lon="1.7482770">
        <ele>1526.1</ele>
        <time>2015-08-14T10:11:46Z</time>
      </trkpt>
      <trkpt lat="42.2663730" lon="1.7483240">
        <ele>1526.0</ele>
        <time>2015-08-14T10:11:47Z</time>
      </trkpt>
      <trkpt lat="42.2663860" lon="1.7483800">
        <ele>1525.8</ele>
        <time>2015-08-14T10:11:48Z</time>
      </trkpt>
      <trkpt lat="42.2664170" lon="1.7483880">
        <ele>1525.9</ele>
        <time>2015-08-14T10:11:49Z</time>
      </trkpt>
      <trkpt lat="42.2664100" lon="1.7484680">
        <ele>1525.6</ele>
        <time>2015-08-14T10:11:50Z</time>
      </trkpt>
      <trkpt lat="42.2664110" lon="1.7485070">
        <ele>1525.5</ele>
        <time>2015-08-14T10:11:51Z</time>
      </trkpt>
      <trkpt lat="42.2664240" lon="1.7485600">
        <ele>1525.3</ele>
        <time>2015-08-14T10:11:52Z</time>
      </trkpt>
      <trkpt lat="42.2664060" lon="1.7486000">
        <ele>1525.1</ele>
        <time>2015-08-14T10:11:53Z</time>
      </trkpt>
      <trkpt lat="42.2664130" lon="1.7487050">
        <ele>1524.7</ele>
        <time>2015-08-14T10:11:54Z</time>
      </trkpt>
      <trkpt lat="42.2664290" lon="1.7488020">
        <ele>1524.5</ele>
        <time>2015-08-14T10:11:55Z</time>
      </trkpt>
      <trkpt lat="42.2664390" lon="1.7488770">
        <ele>1524.3</ele>
        <time>2015-08-14T10:11:57Z</time>
      </trkpt>
      <trkpt lat="42.2664080" lon="1.7488930">
        <ele>1524.3</ele>
        <time>2015-08-14T10:11:58Z</time>
      </trkpt>
      <trkpt lat="42.2663830" lon="1.7489170">
        <ele>1524.2</ele>
        <time>2015-08-14T10:11:59Z</time>
      </trkpt>
      <trkpt lat="42.2664250" lon="1.7488880">
        <ele>1524.3</ele>
        <time>2015-08-14T10:12:00Z</time>
      </trkpt>
      <trkpt lat="42.2664230" lon="1.7489260">
        <ele>1524.2</ele>
        <time>2015-08-14T10:12:02Z</time>
      </trkpt>
      <trkpt lat="42.2664800" lon="1.7489710">
        <ele>1524.1</ele>
        <time>2015-08-14T10:12:04Z</time>
      </trkpt>
      <trkpt lat="42.2664720" lon="1.7490100">
        <ele>1523.9</ele>
        <time>2015-08-14T10:12:05Z</time>
      </trkpt>
      <trkpt lat="42.2664960" lon="1.7490420">
        <ele>1523.8</ele>
        <time>2015-08-14T10:12:06Z</time>
      </trkpt>
      <trkpt lat="42.2664890" lon="1.7490820">
        <ele>1523.7</ele>
        <time>2015-08-14T10:12:07Z</time>
      </trkpt>
      <trkpt lat="42.2664870" lon="1.7491320">
        <ele>1523.5</ele>
        <time>2015-08-14T10:12:09Z</time>
      </trkpt>
      <trkpt lat="42.2664850" lon="1.7491910">
        <ele>1523.3</ele>
        <time>2015-08-14T10:12:10Z</time>
      </trkpt>
      <trkpt lat="42.2664750" lon="1.7492600">
        <ele>1523.1</ele>
        <time>2015-08-14T10:12:11Z</time>
      </trkpt>
      <trkpt lat="42.2664720" lon="1.7493000">
        <ele>1523.0</ele>
        <time>2015-08-14T10:12:12Z</time>
      </trkpt>
      <trkpt lat="42.2664750" lon="1.7493470">
        <ele>1522.8</ele>
        <time>2015-08-14T10:12:13Z</time>
      </trkpt>
      <trkpt lat="42.2664740" lon="1.7494110">
        <ele>1522.6</ele>
        <time>2015-08-14T10:12:14Z</time>
      </trkpt>
      <trkpt lat="42.2664880" lon="1.7494870">
        <ele>1522.2</ele>
        <time>2015-08-14T10:12:15Z</time>
      </trkpt>
      <trkpt lat="42.2664900" lon="1.7495350">
        <ele>1522.0</ele>
        <time>2015-08-14T10:12:16Z</time>
      </trkpt>
      <trkpt lat="42.2664800" lon="1.7496090">
        <ele>1521.9</ele>
        <time>2015-08-14T10:12:17Z</time>
      </trkpt>
      <trkpt lat="42.2664880" lon="1.7496490">
        <ele>1521.7</ele>
        <time>2015-08-14T10:12:18Z</time>
      </trkpt>
      <trkpt lat="42.2664990" lon="1.7497140">
        <ele>1521.4</ele>
        <time>2015-08-14T10:12:20Z</time>
      </trkpt>
      <trkpt lat="42.2664800" lon="1.7498390">
        <ele>1521.4</ele>
        <time>2015-08-14T10:12:21Z</time>
      </trkpt>
      <trkpt lat="42.2664720" lon="1.7498890">
        <ele>1521.4</ele>
        <time>2015-08-14T10:12:22Z</time>
      </trkpt>
      <trkpt lat="42.2665140" lon="1.7499570">
        <ele>1520.4</ele>
        <time>2015-08-14T10:12:23Z</time>
      </trkpt>
      <trkpt lat="42.2665290" lon="1.7500000">
        <ele>1520.0</ele>
        <time>2015-08-14T10:12:24Z</time>
      </trkpt>
      <trkpt lat="42.2665280" lon="1.7500440">
        <ele>1519.9</ele>
        <time>2015-08-14T10:12:25Z</time>
      </trkpt>
      <trkpt lat="42.2665220" lon="1.7501360">
        <ele>1519.7</ele>
        <time>2015-08-14T10:12:26Z</time>
      </trkpt>
      <trkpt lat="42.2665240" lon="1.7502140">
        <ele>1519.4</ele>
        <time>2015-08-14T10:12:28Z</time>
      </trkpt>
      <trkpt lat="42.2665280" lon="1.7502930">
        <ele>1519.1</ele>
        <time>2015-08-14T10:12:30Z</time>
      </trkpt>
      <trkpt lat="42.2665490" lon="1.7504400">
        <ele>1518.1</ele>
        <time>2015-08-14T10:12:32Z</time>
      </trkpt>
      <trkpt lat="42.2665660" lon="1.7504690">
        <ele>1517.6</ele>
        <time>2015-08-14T10:12:33Z</time>
      </trkpt>
      <trkpt lat="42.2665970" lon="1.7505090">
        <ele>1516.7</ele>
        <time>2015-08-14T10:12:34Z</time>
      </trkpt>
      <trkpt lat="42.2666250" lon="1.7505610">
        <ele>1515.8</ele>
        <time>2015-08-14T10:12:36Z</time>
      </trkpt>
      <trkpt lat="42.2666060" lon="1.7506110">
        <ele>1516.5</ele>
        <time>2015-08-14T10:12:38Z</time>
      </trkpt>
      <trkpt lat="42.2666390" lon="1.7506420">
        <ele>1515.3</ele>
        <time>2015-08-14T10:12:39Z</time>
      </trkpt>
      <trkpt lat="42.2666570" lon="1.7507000">
        <ele>1514.7</ele>
        <time>2015-08-14T10:12:40Z</time>
      </trkpt>
      <trkpt lat="42.2666960" lon="1.7507670">
        <ele>1513.2</ele>
        <time>2015-08-14T10:12:41Z</time>
      </trkpt>
      <trkpt lat="42.2666680" lon="1.7508080">
        <ele>1514.2</ele>
        <time>2015-08-14T10:12:42Z</time>
      </trkpt>
      <trkpt lat="42.2666460" lon="1.7508500">
        <ele>1515.1</ele>
        <time>2015-08-14T10:12:43Z</time>
      </trkpt>
      <trkpt lat="42.2666510" lon="1.7509140">
        <ele>1514.9</ele>
        <time>2015-08-14T10:12:45Z</time>
      </trkpt>
      <trkpt lat="42.2667000" lon="1.7509600">
        <ele>1512.7</ele>
        <time>2015-08-14T10:12:47Z</time>
      </trkpt>
      <trkpt lat="42.2667300" lon="1.7510030">
        <ele>1511.3</ele>
        <time>2015-08-14T10:12:49Z</time>
      </trkpt>
      <trkpt lat="42.2667560" lon="1.7510430">
        <ele>1510.1</ele>
        <time>2015-08-14T10:12:50Z</time>
      </trkpt>
      <trkpt lat="42.2667900" lon="1.7510950">
        <ele>1508.3</ele>
        <time>2015-08-14T10:12:51Z</time>
      </trkpt>
      <trkpt lat="42.2667700" lon="1.7511340">
        <ele>1509.2</ele>
        <time>2015-08-14T10:12:52Z</time>
      </trkpt>
      <trkpt lat="42.2667900" lon="1.7511810">
        <ele>1508.0</ele>
        <time>2015-08-14T10:12:53Z</time>
      </trkpt>
      <trkpt lat="42.2668450" lon="1.7512230">
        <ele>1505.1</ele>
        <time>2015-08-14T10:12:54Z</time>
      </trkpt>
      <trkpt lat="42.2668540" lon="1.7512950">
        <ele>1504.7</ele>
        <time>2015-08-14T10:12:56Z</time>
      </trkpt>
      <trkpt lat="42.2669070" lon="1.7513530">
        <ele>1502.1</ele>
        <time>2015-08-14T10:12:57Z</time>
      </trkpt>
      <trkpt lat="42.2669360" lon="1.7514130">
        <ele>1500.7</ele>
        <time>2015-08-14T10:12:58Z</time>
      </trkpt>
      <trkpt lat="42.2669500" lon="1.7514660">
        <ele>1500.1</ele>
        <time>2015-08-14T10:12:59Z</time>
      </trkpt>
      <trkpt lat="42.2669620" lon="1.7515310">
        <ele>1499.6</ele>
        <time>2015-08-14T10:13:00Z</time>
      </trkpt>
      <trkpt lat="42.2670130" lon="1.7516150">
        <ele>1496.9</ele>
        <time>2015-08-14T10:13:01Z</time>
      </trkpt>
      <trkpt lat="42.2670760" lon="1.7517100">
        <ele>1493.4</ele>
        <time>2015-08-14T10:13:02Z</time>
      </trkpt>
      <trkpt lat="42.2671550" lon="1.7518240">
        <ele>1492.8</ele>
        <time>2015-08-14T10:13:03Z</time>
      </trkpt>
      <trkpt lat="42.2671370" lon="1.7518860">
        <ele>1492.8</ele>
        <time>2015-08-14T10:13:04Z</time>
      </trkpt>
      <trkpt lat="42.2671850" lon="1.7519140">
        <ele>1492.5</ele>
        <time>2015-08-14T10:13:05Z</time>
      </trkpt>
      <trkpt lat="42.2672160" lon="1.7519540">
        <ele>1492.3</ele>
        <time>2015-08-14T10:13:06Z</time>
      </trkpt>
      <trkpt lat="42.2672820" lon="1.7520090">
        <ele>1491.7</ele>
        <time>2015-08-14T10:13:07Z</time>
      </trkpt>
      <trkpt lat="42.2671760" lon="1.7520100">
        <ele>1492.4</ele>
        <time>2015-08-14T10:13:08Z</time>
      </trkpt>
      <trkpt lat="42.2671850" lon="1.7520590">
        <ele>1492.2</ele>
        <time>2015-08-14T10:13:09Z</time>
      </trkpt>
      <trkpt lat="42.2672210" lon="1.7520880">
        <ele>1491.8</ele>
        <time>2015-08-14T10:13:10Z</time>
      </trkpt>
      <trkpt lat="42.2672390" lon="1.7521480">
        <ele>1491.7</ele>
        <time>2015-08-14T10:13:12Z</time>
      </trkpt>
      <trkpt lat="42.2672780" lon="1.7521980">
        <ele>1491.3</ele>
        <time>2015-08-14T10:13:14Z</time>
      </trkpt>
      <trkpt lat="42.2672570" lon="1.7522380">
        <ele>1491.5</ele>
        <time>2015-08-14T10:13:16Z</time>
      </trkpt>
      <trkpt lat="42.2672720" lon="1.7522840">
        <ele>1491.3</ele>
        <time>2015-08-14T10:13:18Z</time>
      </trkpt>
      <trkpt lat="42.2672700" lon="1.7523210">
        <ele>1491.3</ele>
        <time>2015-08-14T10:13:20Z</time>
      </trkpt>
      <trkpt lat="42.2672550" lon="1.7523530">
        <ele>1491.6</ele>
        <time>2015-08-14T10:13:22Z</time>
      </trkpt>
      <trkpt lat="42.2672560" lon="1.7523920">
        <ele>1491.6</ele>
        <time>2015-08-14T10:13:25Z</time>
      </trkpt>
      <trkpt lat="42.2672730" lon="1.7524330">
        <ele>1491.2</ele>
        <time>2015-08-14T10:13:26Z</time>
      </trkpt>
      <trkpt lat="42.2672700" lon="1.7524790">
        <ele>1491.3</ele>
        <time>2015-08-14T10:13:27Z</time>
      </trkpt>
      <trkpt lat="42.2673270" lon="1.7525740">
        <ele>1489.8</ele>
        <time>2015-08-14T10:13:30Z</time>
      </trkpt>
      <trkpt lat="42.2673800" lon="1.7526180">
        <ele>1488.2</ele>
        <time>2015-08-14T10:13:33Z</time>
      </trkpt>
      <trkpt lat="42.2674320" lon="1.7526620">
        <ele>1486.6</ele>
        <time>2015-08-14T10:13:36Z</time>
      </trkpt>
      <trkpt lat="42.2674850" lon="1.7527060">
        <ele>1484.7</ele>
        <time>2015-08-14T10:13:40Z</time>
      </trkpt>
      <trkpt lat="42.2675370" lon="1.7527500">
        <ele>1482.7</ele>
        <time>2015-08-14T10:13:42Z</time>
      </trkpt>
      <trkpt lat="42.2674990" lon="1.7527770">
        <ele>1483.7</ele>
        <time>2015-08-14T10:13:43Z</time>
      </trkpt>
      <trkpt lat="42.2674600" lon="1.7527920">
        <ele>1484.9</ele>
        <time>2015-08-14T10:13:44Z</time>
      </trkpt>
      <trkpt lat="42.2674880" lon="1.7528160">
        <ele>1483.8</ele>
        <time>2015-08-14T10:13:47Z</time>
      </trkpt>
      <trkpt lat="42.2674640" lon="1.7528510">
        <ele>1484.3</ele>
        <time>2015-08-14T10:13:49Z</time>
      </trkpt>
      <trkpt lat="42.2674410" lon="1.7528740">
        <ele>1485.0</ele>
        <time>2015-08-14T10:13:50Z</time>
      </trkpt>
      <trkpt lat="42.2674160" lon="1.7528950">
        <ele>1485.7</ele>
        <time>2015-08-14T10:13:52Z</time>
      </trkpt>
      <trkpt lat="42.2673870" lon="1.7529030">
        <ele>1486.8</ele>
        <time>2015-08-14T10:13:55Z</time>
      </trkpt>
      <trkpt lat="42.2673550" lon="1.7529110">
        <ele>1487.9</ele>
        <time>2015-08-14T10:14:00Z</time>
      </trkpt>
      <trkpt lat="42.2673270" lon="1.7529130">
        <ele>1488.9</ele>
        <time>2015-08-14T10:14:03Z</time>
      </trkpt>
      <trkpt lat="42.2672990" lon="1.7529510">
        <ele>1489.8</ele>
        <time>2015-08-14T10:15:09Z</time>
      </trkpt>
      <trkpt lat="42.2672720" lon="1.7529510">
        <ele>1490.8</ele>
        <time>2015-08-14T10:15:10Z</time>
      </trkpt>
      <trkpt lat="42.2672590" lon="1.7530180">
        <ele>1490.9</ele>
        <time>2015-08-14T10:15:12Z</time>
      </trkpt>
      <trkpt lat="42.2672240" lon="1.7530580">
        <ele>1492.0</ele>
        <time>2015-08-14T10:15:13Z</time>
      </trkpt>
      <trkpt lat="42.2671970" lon="1.7530940">
        <ele>1492.9</ele>
        <time>2015-08-14T10:15:14Z</time>
      </trkpt>
      <trkpt lat="42.2671740" lon="1.7531400">
        <ele>1493.6</ele>
        <time>2015-08-14T10:15:15Z</time>
      </trkpt>
      <trkpt lat="42.2669540" lon="1.7531570">
        <ele>1504.7</ele>
        <time>2015-08-14T10:15:17Z</time>
      </trkpt>
      <trkpt lat="42.2668750" lon="1.7531750">
        <ele>1509.2</ele>
        <time>2015-08-14T10:15:18Z</time>
      </trkpt>
      <trkpt lat="42.2667880" lon="1.7532020">
        <ele>1514.2</ele>
        <time>2015-08-14T10:15:19Z</time>
      </trkpt>
      <trkpt lat="42.2667140" lon="1.7532130">
        <ele>1518.5</ele>
        <time>2015-08-14T10:15:20Z</time>
      </trkpt>
      <trkpt lat="42.2666270" lon="1.7532450">
        <ele>1523.5</ele>
        <time>2015-08-14T10:15:21Z</time>
      </trkpt>
      <trkpt lat="42.2665470" lon="1.7532860">
        <ele>1528.1</ele>
        <time>2015-08-14T10:15:22Z</time>
      </trkpt>
      <trkpt lat="42.2664840" lon="1.7533420">
        <ele>1531.7</ele>
        <time>2015-08-14T10:15:23Z</time>
      </trkpt>
      <trkpt lat="42.2666230" lon="1.7534740">
        <ele>1523.2</ele>
        <time>2015-08-14T10:15:24Z</time>
      </trkpt>
      <trkpt lat="42.2666100" lon="1.7535450">
        <ele>1523.9</ele>
        <time>2015-08-14T10:15:25Z</time>
      </trkpt>
      <trkpt lat="42.2665770" lon="1.7536170">
        <ele>1525.7</ele>
        <time>2015-08-14T10:15:26Z</time>
      </trkpt>
      <trkpt lat="42.2665690" lon="1.7537100">
        <ele>1525.9</ele>
        <time>2015-08-14T10:15:27Z</time>
      </trkpt>
      <trkpt lat="42.2665670" lon="1.7538010">
        <ele>1525.4</ele>
        <time>2015-08-14T10:15:28Z</time>
      </trkpt>
      <trkpt lat="42.2665790" lon="1.7538760">
        <ele>1523.9</ele>
        <time>2015-08-14T10:15:29Z</time>
      </trkpt>
      <trkpt lat="42.2665920" lon="1.7539600">
        <ele>1522.3</ele>
        <time>2015-08-14T10:15:30Z</time>
      </trkpt>
      <trkpt lat="42.2666780" lon="1.7540550">
        <ele>1516.2</ele>
        <time>2015-08-14T10:15:31Z</time>
      </trkpt>
      <trkpt lat="42.2667180" lon="1.7541050">
        <ele>1513.4</ele>
        <time>2015-08-14T10:15:32Z</time>
      </trkpt>
      <trkpt lat="42.2667520" lon="1.7541930">
        <ele>1510.5</ele>
        <time>2015-08-14T10:15:33Z</time>
      </trkpt>
      <trkpt lat="42.2668300" lon="1.7542910">
        <ele>1505.1</ele>
        <time>2015-08-14T10:15:34Z</time>
      </trkpt>
      <trkpt lat="42.2669200" lon="1.7543800">
        <ele>1499.1</ele>
        <time>2015-08-14T10:15:35Z</time>
      </trkpt>
      <trkpt lat="42.2669970" lon="1.7544530">
        <ele>1494.0</ele>
        <time>2015-08-14T10:15:36Z</time>
      </trkpt>
      <trkpt lat="42.2670400" lon="1.7545260">
        <ele>1490.9</ele>
        <time>2015-08-14T10:15:37Z</time>
      </trkpt>
      <trkpt lat="42.2671040" lon="1.7545700">
        <ele>1487.0</ele>
        <time>2015-08-14T10:15:38Z</time>
      </trkpt>
      <trkpt lat="42.2671470" lon="1.7546120">
        <ele>1484.6</ele>
        <time>2015-08-14T10:15:39Z</time>
      </trkpt>
      <trkpt lat="42.2671790" lon="1.7546380">
        <ele>1483.0</ele>
        <time>2015-08-14T10:15:40Z</time>
      </trkpt>
      <trkpt lat="42.2672710" lon="1.7547270">
        <ele>1478.2</ele>
        <time>2015-08-14T10:15:41Z</time>
      </trkpt>
      <trkpt lat="42.2673130" lon="1.7548060">
        <ele>1476.2</ele>
        <time>2015-08-14T10:15:42Z</time>
      </trkpt>
      <trkpt lat="42.2673190" lon="1.7548740">
        <ele>1476.1</ele>
        <time>2015-08-14T10:15:43Z</time>
      </trkpt>
      <trkpt lat="42.2673810" lon="1.7549610">
        <ele>1472.9</ele>
        <time>2015-08-14T10:15:44Z</time>
      </trkpt>
      <trkpt lat="42.2674210" lon="1.7550780">
        <ele>1471.0</ele>
        <time>2015-08-14T10:15:45Z</time>
      </trkpt>
      <trkpt lat="42.2674500" lon="1.7551590">
        <ele>1469.6</ele>
        <time>2015-08-14T10:15:46Z</time>
      </trkpt>
      <trkpt lat="42.2674740" lon="1.7552070">
        <ele>1468.4</ele>
        <time>2015-08-14T10:15:47Z</time>
      </trkpt>
      <trkpt lat="42.2675080" lon="1.7552660">
        <ele>1466.6</ele>
        <time>2015-08-14T10:15:48Z</time>
      </trkpt>
      <trkpt lat="42.2674780" lon="1.7553030">
        <ele>1468.4</ele>
        <time>2015-08-14T10:15:49Z</time>
      </trkpt>
      <trkpt lat="42.2674710" lon="1.7553390">
        <ele>1469.0</ele>
        <time>2015-08-14T10:15:50Z</time>
      </trkpt>
      <trkpt lat="42.2674910" lon="1.7554250">
        <ele>1468.0</ele>
        <time>2015-08-14T10:15:51Z</time>
      </trkpt>
      <trkpt lat="42.2675110" lon="1.7555000">
        <ele>1466.6</ele>
        <time>2015-08-14T10:15:52Z</time>
      </trkpt>
      <trkpt lat="42.2675270" lon="1.7555570">
        <ele>1465.5</ele>
        <time>2015-08-14T10:15:53Z</time>
      </trkpt>
      <trkpt lat="42.2675830" lon="1.7556160">
        <ele>1462.1</ele>
        <time>2015-08-14T10:15:54Z</time>
      </trkpt>
      <trkpt lat="42.2676420" lon="1.7556650">
        <ele>1458.8</ele>
        <time>2015-08-14T10:15:55Z</time>
      </trkpt>
      <trkpt lat="42.2676570" lon="1.7557460">
        <ele>1457.8</ele>
        <time>2015-08-14T10:15:56Z</time>
      </trkpt>
      <trkpt lat="42.2676550" lon="1.7558450">
        <ele>1457.8</ele>
        <time>2015-08-14T10:15:57Z</time>
      </trkpt>
      <trkpt lat="42.2676310" lon="1.7559220">
        <ele>1458.9</ele>
        <time>2015-08-14T10:15:58Z</time>
      </trkpt>
      <trkpt lat="42.2675150" lon="1.7559740">
        <ele>1464.7</ele>
        <time>2015-08-14T10:15:59Z</time>
      </trkpt>
      <trkpt lat="42.2674740" lon="1.7560510">
        <ele>1466.5</ele>
        <time>2015-08-14T10:16:00Z</time>
      </trkpt>
      <trkpt lat="42.2674180" lon="1.7561350">
        <ele>1468.9</ele>
        <time>2015-08-14T10:16:01Z</time>
      </trkpt>
      <trkpt lat="42.2673910" lon="1.7562140">
        <ele>1469.8</ele>
        <time>2015-08-14T10:16:02Z</time>
      </trkpt>
      <trkpt lat="42.2673580" lon="1.7563150">
        <ele>1469.6</ele>
        <time>2015-08-14T10:16:03Z</time>
      </trkpt>
      <trkpt lat="42.2673240" lon="1.7564170">
        <ele>1468.8</ele>
        <time>2015-08-14T10:16:04Z</time>
      </trkpt>
      <trkpt lat="42.2672890" lon="1.7565040">
        <ele>1468.4</ele>
        <time>2015-08-14T10:16:05Z</time>
      </trkpt>
      <trkpt lat="42.2672650" lon="1.7565630">
        <ele>1468.0</ele>
        <time>2015-08-14T10:16:06Z</time>
      </trkpt>
      <trkpt lat="42.2672440" lon="1.7566320">
        <ele>1467.3</ele>
        <time>2015-08-14T10:16:07Z</time>
      </trkpt>
      <trkpt lat="42.2672300" lon="1.7567090">
        <ele>1466.1</ele>
        <time>2015-08-14T10:16:08Z</time>
      </trkpt>
      <trkpt lat="42.2672120" lon="1.7567720">
        <ele>1465.3</ele>
        <time>2015-08-14T10:16:09Z</time>
      </trkpt>
      <trkpt lat="42.2672350" lon="1.7568250">
        <ele>1463.0</ele>
        <time>2015-08-14T10:16:11Z</time>
      </trkpt>
      <trkpt lat="42.2672520" lon="1.7568590">
        <ele>1461.5</ele>
        <time>2015-08-14T10:16:12Z</time>
      </trkpt>
      <trkpt lat="42.2672450" lon="1.7568980">
        <ele>1460.9</ele>
        <time>2015-08-14T10:16:13Z</time>
      </trkpt>
      <trkpt lat="42.2672550" lon="1.7570210">
        <ele>1457.5</ele>
        <time>2015-08-14T10:16:14Z</time>
      </trkpt>
      <trkpt lat="42.2672500" lon="1.7570750">
        <ele>1456.4</ele>
        <time>2015-08-14T10:16:15Z</time>
      </trkpt>
      <trkpt lat="42.2672140" lon="1.7571370">
        <ele>1455.5</ele>
        <time>2015-08-14T10:16:16Z</time>
      </trkpt>
      <trkpt lat="42.2671680" lon="1.7572170">
        <ele>1454.2</ele>
        <time>2015-08-14T10:16:17Z</time>
      </trkpt>
      <trkpt lat="42.2671560" lon="1.7572800">
        <ele>1452.1</ele>
        <time>2015-08-14T10:16:18Z</time>
      </trkpt>
      <trkpt lat="42.2671530" lon="1.7573400">
        <ele>1449.8</ele>
        <time>2015-08-14T10:16:19Z</time>
      </trkpt>
      <trkpt lat="42.2671380" lon="1.7573950">
        <ele>1448.2</ele>
        <time>2015-08-14T10:16:20Z</time>
      </trkpt>
      <trkpt lat="42.2671100" lon="1.7574360">
        <ele>1447.6</ele>
        <time>2015-08-14T10:16:21Z</time>
      </trkpt>
      <trkpt lat="42.2670650" lon="1.7574870">
        <ele>1446.8</ele>
        <time>2015-08-14T10:16:22Z</time>
      </trkpt>
      <trkpt lat="42.2669860" lon="1.7575450">
        <ele>1445.7</ele>
        <time>2015-08-14T10:16:23Z</time>
      </trkpt>
      <trkpt lat="42.2669430" lon="1.7575690">
        <ele>1445.5</ele>
        <time>2015-08-14T10:16:24Z</time>
      </trkpt>
      <trkpt lat="42.2669470" lon="1.7576130">
        <ele>1443.8</ele>
        <time>2015-08-14T10:16:25Z</time>
      </trkpt>
      <trkpt lat="42.2668730" lon="1.7576120">
        <ele>1445.1</ele>
        <time>2015-08-14T10:16:26Z</time>
      </trkpt>
      <trkpt lat="42.2667950" lon="1.7576120">
        <ele>1446.5</ele>
        <time>2015-08-14T10:16:27Z</time>
      </trkpt>
      <trkpt lat="42.2667450" lon="1.7575910">
        <ele>1448.0</ele>
        <time>2015-08-14T10:16:28Z</time>
      </trkpt>
      <trkpt lat="42.2666810" lon="1.7575630">
        <ele>1450.0</ele>
        <time>2015-08-14T10:16:29Z</time>
      </trkpt>
      <trkpt lat="42.2666270" lon="1.7575590">
        <ele>1450.9</ele>
        <time>2015-08-14T10:16:30Z</time>
      </trkpt>
      <trkpt lat="42.2665760" lon="1.7575460">
        <ele>1452.1</ele>
        <time>2015-08-14T10:16:31Z</time>
      </trkpt>
      <trkpt lat="42.2665340" lon="1.7575310">
        <ele>1453.1</ele>
        <time>2015-08-14T10:16:32Z</time>
      </trkpt>
      <trkpt lat="42.2665020" lon="1.7574980">
        <ele>1454.4</ele>
        <time>2015-08-14T10:16:33Z</time>
      </trkpt>
      <trkpt lat="42.2664760" lon="1.7574720">
        <ele>1455.4</ele>
        <time>2015-08-14T10:16:34Z</time>
      </trkpt>
      <trkpt lat="42.2664490" lon="1.7574370">
        <ele>1456.6</ele>
        <time>2015-08-14T10:16:35Z</time>
      </trkpt>
      <trkpt lat="42.2664220" lon="1.7573980">
        <ele>1457.7</ele>
        <time>2015-08-14T10:16:36Z</time>
      </trkpt>
      <trkpt lat="42.2663640" lon="1.7574560">
        <ele>1457.2</ele>
        <time>2015-08-14T10:16:38Z</time>
      </trkpt>
      <trkpt lat="42.2663370" lon="1.7574690">
        <ele>1457.3</ele>
        <time>2015-08-14T10:16:39Z</time>
      </trkpt>
      <trkpt lat="42.2663070" lon="1.7574880">
        <ele>1457.4</ele>
        <time>2015-08-14T10:16:40Z</time>
      </trkpt>
      <trkpt lat="42.2662540" lon="1.7575270">
        <ele>1457.5</ele>
        <time>2015-08-14T10:16:42Z</time>
      </trkpt>
      <trkpt lat="42.2662250" lon="1.7575500">
        <ele>1458.6</ele>
        <time>2015-08-14T10:16:43Z</time>
      </trkpt>
      <trkpt lat="42.2661840" lon="1.7575760">
        <ele>1460.5</ele>
        <time>2015-08-14T10:16:45Z</time>
      </trkpt>
      <trkpt lat="42.2661620" lon="1.7576340">
        <ele>1460.8</ele>
        <time>2015-08-14T10:16:46Z</time>
      </trkpt>
      <trkpt lat="42.2661240" lon="1.7576790">
        <ele>1462.3</ele>
        <time>2015-08-14T10:16:48Z</time>
      </trkpt>
      <trkpt lat="42.2661190" lon="1.7577160">
        <ele>1462.0</ele>
        <time>2015-08-14T10:16:49Z</time>
      </trkpt>
      <trkpt lat="42.2660890" lon="1.7577310">
        <ele>1463.5</ele>
        <time>2015-08-14T10:16:50Z</time>
      </trkpt>
      <trkpt lat="42.2661480" lon="1.7578000">
        <ele>1459.0</ele>
        <time>2015-08-14T10:16:52Z</time>
      </trkpt>
      <trkpt lat="42.2662460" lon="1.7578670">
        <ele>1452.1</ele>
        <time>2015-08-14T10:16:53Z</time>
      </trkpt>
      <trkpt lat="42.2662080" lon="1.7579130">
        <ele>1453.6</ele>
        <time>2015-08-14T10:16:55Z</time>
      </trkpt>
      <trkpt lat="42.2662170" lon="1.7579530">
        <ele>1453.1</ele>
        <time>2015-08-14T10:16:56Z</time>
      </trkpt>
      <trkpt lat="42.2662430" lon="1.7579750">
        <ele>1451.6</ele>
        <time>2015-08-14T10:16:57Z</time>
      </trkpt>
      <trkpt lat="42.2662720" lon="1.7580190">
        <ele>1450.6</ele>
        <time>2015-08-14T10:16:58Z</time>
      </trkpt>
      <trkpt lat="42.2663060" lon="1.7580680">
        <ele>1449.6</ele>
        <time>2015-08-14T10:16:59Z</time>
      </trkpt>
      <trkpt lat="42.2663190" lon="1.7581020">
        <ele>1449.1</ele>
        <time>2015-08-14T10:17:00Z</time>
      </trkpt>
      <trkpt lat="42.2663310" lon="1.7581510">
        <ele>1448.7</ele>
        <time>2015-08-14T10:17:01Z</time>
      </trkpt>
      <trkpt lat="42.2663470" lon="1.7582150">
        <ele>1448.0</ele>
        <time>2015-08-14T10:17:03Z</time>
      </trkpt>
      <trkpt lat="42.2663670" lon="1.7582520">
        <ele>1447.2</ele>
        <time>2015-08-14T10:17:04Z</time>
      </trkpt>
      <trkpt lat="42.2663730" lon="1.7583000">
        <ele>1446.8</ele>
        <time>2015-08-14T10:17:05Z</time>
      </trkpt>
      <trkpt lat="42.2664000" lon="1.7583690">
        <ele>1445.5</ele>
        <time>2015-08-14T10:17:07Z</time>
      </trkpt>
      <trkpt lat="42.2663640" lon="1.7583960">
        <ele>1447.0</ele>
        <time>2015-08-14T10:17:08Z</time>
      </trkpt>
      <trkpt lat="42.2663480" lon="1.7584310">
        <ele>1447.7</ele>
        <time>2015-08-14T10:17:09Z</time>
      </trkpt>
      <trkpt lat="42.2663390" lon="1.7584690">
        <ele>1448.1</ele>
        <time>2015-08-14T10:17:10Z</time>
      </trkpt>
      <trkpt lat="42.2663100" lon="1.7585230">
        <ele>1449.5</ele>
        <time>2015-08-14T10:17:12Z</time>
      </trkpt>
      <trkpt lat="42.2662830" lon="1.7585580">
        <ele>1450.8</ele>
        <time>2015-08-14T10:17:14Z</time>
      </trkpt>
      <trkpt lat="42.2662590" lon="1.7585840">
        <ele>1452.1</ele>
        <time>2015-08-14T10:17:15Z</time>
      </trkpt>
      <trkpt lat="42.2662320" lon="1.7586250">
        <ele>1453.7</ele>
        <time>2015-08-14T10:17:17Z</time>
      </trkpt>
      <trkpt lat="42.2662100" lon="1.7586640">
        <ele>1454.9</ele>
        <time>2015-08-14T10:17:18Z</time>
      </trkpt>
      <trkpt lat="42.2661940" lon="1.7587340">
        <ele>1455.9</ele>
        <time>2015-08-14T10:17:19Z</time>
      </trkpt>
      <trkpt lat="42.2661700" lon="1.7588250">
        <ele>1456.6</ele>
        <time>2015-08-14T10:17:21Z</time>
      </trkpt>
      <trkpt lat="42.2661510" lon="1.7589060">
        <ele>1457.0</ele>
        <time>2015-08-14T10:17:23Z</time>
      </trkpt>
      <trkpt lat="42.2661350" lon="1.7589450">
        <ele>1457.5</ele>
        <time>2015-08-14T10:17:24Z</time>
      </trkpt>
      <trkpt lat="42.2661490" lon="1.7590110">
        <ele>1456.2</ele>
        <time>2015-08-14T10:17:25Z</time>
      </trkpt>
      <trkpt lat="42.2661980" lon="1.7590470">
        <ele>1453.5</ele>
        <time>2015-08-14T10:17:26Z</time>
      </trkpt>
      <trkpt lat="42.2662140" lon="1.7590860">
        <ele>1452.4</ele>
        <time>2015-08-14T10:17:27Z</time>
      </trkpt>
      <trkpt lat="42.2662280" lon="1.7591190">
        <ele>1451.4</ele>
        <time>2015-08-14T10:17:28Z</time>
      </trkpt>
      <trkpt lat="42.2662430" lon="1.7591880">
        <ele>1450.2</ele>
        <time>2015-08-14T10:17:30Z</time>
      </trkpt>
      <trkpt lat="42.2662600" lon="1.7592220">
        <ele>1448.9</ele>
        <time>2015-08-14T10:17:31Z</time>
      </trkpt>
      <trkpt lat="42.2662940" lon="1.7592750">
        <ele>1446.3</ele>
        <time>2015-08-14T10:17:32Z</time>
      </trkpt>
      <trkpt lat="42.2662460" lon="1.7593130">
        <ele>1449.1</ele>
        <time>2015-08-14T10:17:34Z</time>
      </trkpt>
      <trkpt lat="42.2661960" lon="1.7593610">
        <ele>1451.2</ele>
        <time>2015-08-14T10:17:35Z</time>
      </trkpt>
      <trkpt lat="42.2661650" lon="1.7594340">
        <ele>1452.1</ele>
        <time>2015-08-14T10:17:37Z</time>
      </trkpt>
      <trkpt lat="42.2661620" lon="1.7594800">
        <ele>1451.8</ele>
        <time>2015-08-14T10:17:38Z</time>
      </trkpt>
      <trkpt lat="42.2661360" lon="1.7595150">
        <ele>1452.8</ele>
        <time>2015-08-14T10:17:39Z</time>
      </trkpt>
      <trkpt lat="42.2661000" lon="1.7595400">
        <ele>1454.2</ele>
        <time>2015-08-14T10:17:40Z</time>
      </trkpt>
      <trkpt lat="42.2660900" lon="1.7595770">
        <ele>1454.4</ele>
        <time>2015-08-14T10:17:41Z</time>
      </trkpt>
      <trkpt lat="42.2660830" lon="1.7596150">
        <ele>1453.7</ele>
        <time>2015-08-14T10:17:42Z</time>
      </trkpt>
      <trkpt lat="42.2660610" lon="1.7596380">
        <ele>1454.1</ele>
        <time>2015-08-14T10:17:43Z</time>
      </trkpt>
      <trkpt lat="42.2660380" lon="1.7596640">
        <ele>1454.4</ele>
        <time>2015-08-14T10:17:44Z</time>
      </trkpt>
      <trkpt lat="42.2659940" lon="1.7597260">
        <ele>1454.6</ele>
        <time>2015-08-14T10:17:46Z</time>
      </trkpt>
      <trkpt lat="42.2659730" lon="1.7597530">
        <ele>1454.7</ele>
        <time>2015-08-14T10:17:47Z</time>
      </trkpt>
      <trkpt lat="42.2659510" lon="1.7597880">
        <ele>1454.7</ele>
        <time>2015-08-14T10:17:48Z</time>
      </trkpt>
      <trkpt lat="42.2659170" lon="1.7598100">
        <ele>1455.6</ele>
        <time>2015-08-14T10:17:49Z</time>
      </trkpt>
      <trkpt lat="42.2658860" lon="1.7598550">
        <ele>1455.7</ele>
        <time>2015-08-14T10:17:50Z</time>
      </trkpt>
      <trkpt lat="42.2658550" lon="1.7598850">
        <ele>1456.2</ele>
        <time>2015-08-14T10:17:51Z</time>
      </trkpt>
      <trkpt lat="42.2658220" lon="1.7599150">
        <ele>1456.7</ele>
        <time>2015-08-14T10:17:52Z</time>
      </trkpt>
      <trkpt lat="42.2658150" lon="1.7599500">
        <ele>1456.0</ele>
        <time>2015-08-14T10:17:53Z</time>
      </trkpt>
      <trkpt lat="42.2657940" lon="1.7599910">
        <ele>1455.7</ele>
        <time>2015-08-14T10:17:54Z</time>
      </trkpt>
      <trkpt lat="42.2657680" lon="1.7600270">
        <ele>1455.8</ele>
        <time>2015-08-14T10:17:55Z</time>
      </trkpt>
      <trkpt lat="42.2657280" lon="1.7601000">
        <ele>1455.4</ele>
        <time>2015-08-14T10:17:56Z</time>
      </trkpt>
      <trkpt lat="42.2656990" lon="1.7601510">
        <ele>1455.1</ele>
        <time>2015-08-14T10:17:57Z</time>
      </trkpt>
      <trkpt lat="42.2656700" lon="1.7602120">
        <ele>1454.5</ele>
        <time>2015-08-14T10:17:58Z</time>
      </trkpt>
      <trkpt lat="42.2656380" lon="1.7602770">
        <ele>1453.9</ele>
        <time>2015-08-14T10:17:59Z</time>
      </trkpt>
      <trkpt lat="42.2656090" lon="1.7603380">
        <ele>1453.3</ele>
        <time>2015-08-14T10:18:00Z</time>
      </trkpt>
      <trkpt lat="42.2655820" lon="1.7603950">
        <ele>1452.7</ele>
        <time>2015-08-14T10:18:01Z</time>
      </trkpt>
      <trkpt lat="42.2655540" lon="1.7604290">
        <ele>1452.9</ele>
        <time>2015-08-14T10:18:02Z</time>
      </trkpt>
      <trkpt lat="42.2655270" lon="1.7604640">
        <ele>1453.0</ele>
        <time>2015-08-14T10:18:03Z</time>
      </trkpt>
      <trkpt lat="42.2655000" lon="1.7605340">
        <ele>1452.0</ele>
        <time>2015-08-14T10:18:04Z</time>
      </trkpt>
      <trkpt lat="42.2654750" lon="1.7605820">
        <ele>1451.5</ele>
        <time>2015-08-14T10:18:05Z</time>
      </trkpt>
      <trkpt lat="42.2654630" lon="1.7606290">
        <ele>1450.6</ele>
        <time>2015-08-14T10:18:06Z</time>
      </trkpt>
      <trkpt lat="42.2654350" lon="1.7606830">
        <ele>1450.0</ele>
        <time>2015-08-14T10:18:07Z</time>
      </trkpt>
      <trkpt lat="42.2654110" lon="1.7607180">
        <ele>1449.8</ele>
        <time>2015-08-14T10:18:08Z</time>
      </trkpt>
      <trkpt lat="42.2653890" lon="1.7607640">
        <ele>1448.9</ele>
        <time>2015-08-14T10:18:09Z</time>
      </trkpt>
      <trkpt lat="42.2653620" lon="1.7608200">
        <ele>1447.9</ele>
        <time>2015-08-14T10:18:10Z</time>
      </trkpt>
      <trkpt lat="42.2653430" lon="1.7608880">
        <ele>1446.3</ele>
        <time>2015-08-14T10:18:11Z</time>
      </trkpt>
      <trkpt lat="42.2653300" lon="1.7609570">
        <ele>1444.5</ele>
        <time>2015-08-14T10:18:12Z</time>
      </trkpt>
      <trkpt lat="42.2652880" lon="1.7610170">
        <ele>1443.8</ele>
        <time>2015-08-14T10:18:13Z</time>
      </trkpt>
      <trkpt lat="42.2652520" lon="1.7610880">
        <ele>1442.6</ele>
        <time>2015-08-14T10:18:14Z</time>
      </trkpt>
      <trkpt lat="42.2652320" lon="1.7611460">
        <ele>1441.3</ele>
        <time>2015-08-14T10:18:15Z</time>
      </trkpt>
      <trkpt lat="42.2651760" lon="1.7611610">
        <ele>1442.4</ele>
        <time>2015-08-14T10:18:16Z</time>
      </trkpt>
      <trkpt lat="42.2651180" lon="1.7611980">
        <ele>1442.9</ele>
        <time>2015-08-14T10:18:17Z</time>
      </trkpt>
      <trkpt lat="42.2650850" lon="1.7612430">
        <ele>1442.4</ele>
        <time>2015-08-14T10:18:18Z</time>
      </trkpt>
      <trkpt lat="42.2650430" lon="1.7612860">
        <ele>1442.1</ele>
        <time>2015-08-14T10:18:19Z</time>
      </trkpt>
      <trkpt lat="42.2650010" lon="1.7613350">
        <ele>1441.5</ele>
        <time>2015-08-14T10:18:20Z</time>
      </trkpt>
      <trkpt lat="42.2649580" lon="1.7613770">
        <ele>1441.2</ele>
        <time>2015-08-14T10:18:21Z</time>
      </trkpt>
      <trkpt lat="42.2649220" lon="1.7614150">
        <ele>1440.9</ele>
        <time>2015-08-14T10:18:22Z</time>
      </trkpt>
      <trkpt lat="42.2649020" lon="1.7614410">
        <ele>1440.5</ele>
        <time>2015-08-14T10:18:23Z</time>
      </trkpt>
      <trkpt lat="42.2648730" lon="1.7614640">
        <ele>1440.5</ele>
        <time>2015-08-14T10:18:24Z</time>
      </trkpt>
      <trkpt lat="42.2648480" lon="1.7614900">
        <ele>1440.2</ele>
        <time>2015-08-14T10:18:25Z</time>
      </trkpt>
      <trkpt lat="42.2648050" lon="1.7615160">
        <ele>1440.5</ele>
        <time>2015-08-14T10:18:26Z</time>
      </trkpt>
      <trkpt lat="42.2647760" lon="1.7615180">
        <ele>1441.2</ele>
        <time>2015-08-14T10:18:27Z</time>
      </trkpt>
      <trkpt lat="42.2647160" lon="1.7615570">
        <ele>1441.4</ele>
        <time>2015-08-14T10:18:28Z</time>
      </trkpt>
      <trkpt lat="42.2646780" lon="1.7615880">
        <ele>1441.3</ele>
        <time>2015-08-14T10:18:29Z</time>
      </trkpt>
      <trkpt lat="42.2646350" lon="1.7616150">
        <ele>1441.5</ele>
        <time>2015-08-14T10:18:30Z</time>
      </trkpt>
      <trkpt lat="42.2645870" lon="1.7616340">
        <ele>1442.1</ele>
        <time>2015-08-14T10:18:31Z</time>
      </trkpt>
      <trkpt lat="42.2645490" lon="1.7616570">
        <ele>1442.5</ele>
        <time>2015-08-14T10:18:32Z</time>
      </trkpt>
      <trkpt lat="42.2645130" lon="1.7616790">
        <ele>1443.0</ele>
        <time>2015-08-14T10:18:33Z</time>
      </trkpt>
      <trkpt lat="42.2644650" lon="1.7617060">
        <ele>1443.6</ele>
        <time>2015-08-14T10:18:34Z</time>
      </trkpt>
      <trkpt lat="42.2644280" lon="1.7617380">
        <ele>1443.7</ele>
        <time>2015-08-14T10:18:35Z</time>
      </trkpt>
      <trkpt lat="42.2644150" lon="1.7617940">
        <ele>1442.1</ele>
        <time>2015-08-14T10:18:36Z</time>
      </trkpt>
      <trkpt lat="42.2644040" lon="1.7618320">
        <ele>1441.1</ele>
        <time>2015-08-14T10:18:37Z</time>
      </trkpt>
      <trkpt lat="42.2644010" lon="1.7618910">
        <ele>1439.0</ele>
        <time>2015-08-14T10:18:38Z</time>
      </trkpt>
      <trkpt lat="42.2643840" lon="1.7619550">
        <ele>1437.2</ele>
        <time>2015-08-14T10:18:39Z</time>
      </trkpt>
      <trkpt lat="42.2643750" lon="1.7620060">
        <ele>1435.6</ele>
        <time>2015-08-14T10:18:40Z</time>
      </trkpt>
      <trkpt lat="42.2643250" lon="1.7620340">
        <ele>1436.2</ele>
        <time>2015-08-14T10:18:41Z</time>
      </trkpt>
      <trkpt lat="42.2643040" lon="1.7620670">
        <ele>1435.7</ele>
        <time>2015-08-14T10:18:42Z</time>
      </trkpt>
      <trkpt lat="42.2642510" lon="1.7620620">
        <ele>1437.6</ele>
        <time>2015-08-14T10:18:43Z</time>
      </trkpt>
      <trkpt lat="42.2641570" lon="1.7621020">
        <ele>1439.2</ele>
        <time>2015-08-14T10:18:44Z</time>
      </trkpt>
      <trkpt lat="42.2641080" lon="1.7621070">
        <ele>1440.6</ele>
        <time>2015-08-14T10:18:45Z</time>
      </trkpt>
      <trkpt lat="42.2640420" lon="1.7620570">
        <ele>1444.5</ele>
        <time>2015-08-14T10:18:46Z</time>
      </trkpt>
      <trkpt lat="42.2639950" lon="1.7620530">
        <ele>1446.2</ele>
        <time>2015-08-14T10:18:47Z</time>
      </trkpt>
      <trkpt lat="42.2639500" lon="1.7620200">
        <ele>1449.0</ele>
        <time>2015-08-14T10:18:48Z</time>
      </trkpt>
      <trkpt lat="42.2639040" lon="1.7619980">
        <ele>1451.3</ele>
        <time>2015-08-14T10:18:49Z</time>
      </trkpt>
      <trkpt lat="42.2638740" lon="1.7620190">
        <ele>1451.5</ele>
        <time>2015-08-14T10:18:50Z</time>
      </trkpt>
      <trkpt lat="42.2638330" lon="1.7620330">
        <ele>1452.3</ele>
        <time>2015-08-14T10:18:51Z</time>
      </trkpt>
      <trkpt lat="42.2637980" lon="1.7620320">
        <ele>1453.5</ele>
        <time>2015-08-14T10:18:52Z</time>
      </trkpt>
      <trkpt lat="42.2637630" lon="1.7620800">
        <ele>1452.7</ele>
        <time>2015-08-14T10:18:53Z</time>
      </trkpt>
      <trkpt lat="42.2637140" lon="1.7621160">
        <ele>1453.4</ele>
        <time>2015-08-14T10:18:55Z</time>
      </trkpt>
      <trkpt lat="42.2636670" lon="1.7621240">
        <ele>1455.2</ele>
        <time>2015-08-14T10:18:57Z</time>
      </trkpt>
      <trkpt lat="42.2636130" lon="1.7621240">
        <ele>1457.6</ele>
        <time>2015-08-14T10:18:59Z</time>
      </trkpt>
      <trkpt lat="42.2635810" lon="1.7621200">
        <ele>1459.2</ele>
        <time>2015-08-14T10:19:00Z</time>
      </trkpt>
      <trkpt lat="42.2635360" lon="1.7621390">
        <ele>1460.5</ele>
        <time>2015-08-14T10:19:02Z</time>
      </trkpt>
      <trkpt lat="42.2634960" lon="1.7621720">
        <ele>1460.9</ele>
        <time>2015-08-14T10:19:04Z</time>
      </trkpt>
      <trkpt lat="42.2634550" lon="1.7622150">
        <ele>1460.9</ele>
        <time>2015-08-14T10:19:06Z</time>
      </trkpt>
      <trkpt lat="42.2634160" lon="1.7622310">
        <ele>1462.0</ele>
        <time>2015-08-14T10:19:09Z</time>
      </trkpt>
      <trkpt lat="42.2633980" lon="1.7622750">
        <ele>1460.9</ele>
        <time>2015-08-14T10:19:11Z</time>
      </trkpt>
      <trkpt lat="42.2633740" lon="1.7622930">
        <ele>1461.1</ele>
        <time>2015-08-14T10:19:12Z</time>
      </trkpt>
      <trkpt lat="42.2633350" lon="1.7623430">
        <ele>1460.6</ele>
        <time>2015-08-14T10:19:14Z</time>
      </trkpt>
      <trkpt lat="42.2633060" lon="1.7623740">
        <ele>1460.4</ele>
        <time>2015-08-14T10:19:16Z</time>
      </trkpt>
      <trkpt lat="42.2632640" lon="1.7624290">
        <ele>1459.6</ele>
        <time>2015-08-14T10:19:18Z</time>
      </trkpt>
      <trkpt lat="42.2632420" lon="1.7624570">
        <ele>1459.3</ele>
        <time>2015-08-14T10:19:19Z</time>
      </trkpt>
      <trkpt lat="42.2632100" lon="1.7624530">
        <ele>1460.7</ele>
        <time>2015-08-14T10:19:20Z</time>
      </trkpt>
      <trkpt lat="42.2631640" lon="1.7624660">
        <ele>1461.9</ele>
        <time>2015-08-14T10:19:22Z</time>
      </trkpt>
      <trkpt lat="42.2631270" lon="1.7624980">
        <ele>1461.9</ele>
        <time>2015-08-14T10:19:24Z</time>
      </trkpt>
      <trkpt lat="42.2631020" lon="1.7625140">
        <ele>1462.1</ele>
        <time>2015-08-14T10:19:27Z</time>
      </trkpt>
      <trkpt lat="42.2630800" lon="1.7625500">
        <ele>1461.2</ele>
        <time>2015-08-14T10:19:29Z</time>
      </trkpt>
      <trkpt lat="42.2630630" lon="1.7625970">
        <ele>1459.6</ele>
        <time>2015-08-14T10:19:31Z</time>
      </trkpt>
      <trkpt lat="42.2630340" lon="1.7625700">
        <ele>1462.0</ele>
        <time>2015-08-14T10:19:32Z</time>
      </trkpt>
      <trkpt lat="42.2630010" lon="1.7625750">
        <ele>1463.0</ele>
        <time>2015-08-14T10:19:34Z</time>
      </trkpt>
      <trkpt lat="42.2629710" lon="1.7625730">
        <ele>1464.3</ele>
        <time>2015-08-14T10:19:36Z</time>
      </trkpt>
      <trkpt lat="42.2629390" lon="1.7625860">
        <ele>1464.8</ele>
        <time>2015-08-14T10:19:38Z</time>
      </trkpt>
      <trkpt lat="42.2629060" lon="1.7626150">
        <ele>1464.8</ele>
        <time>2015-08-14T10:19:40Z</time>
      </trkpt>
      <trkpt lat="42.2628820" lon="1.7626420">
        <ele>1464.9</ele>
        <time>2015-08-14T10:19:44Z</time>
      </trkpt>
      <trkpt lat="42.2628580" lon="1.7626750">
        <ele>1464.6</ele>
        <time>2015-08-14T10:19:46Z</time>
      </trkpt>
      <trkpt lat="42.2628270" lon="1.7627070">
        <ele>1464.9</ele>
        <time>2015-08-14T10:19:49Z</time>
      </trkpt>
      <trkpt lat="42.2627900" lon="1.7627310">
        <ele>1466.0</ele>
        <time>2015-08-14T10:19:51Z</time>
      </trkpt>
      <trkpt lat="42.2627570" lon="1.7627510">
        <ele>1467.0</ele>
        <time>2015-08-14T10:19:53Z</time>
      </trkpt>
      <trkpt lat="42.2627330" lon="1.7627710">
        <ele>1467.6</ele>
        <time>2015-08-14T10:19:54Z</time>
      </trkpt>
      <trkpt lat="42.2627080" lon="1.7627890">
        <ele>1468.3</ele>
        <time>2015-08-14T10:19:57Z</time>
      </trkpt>
      <trkpt lat="42.2626770" lon="1.7627890">
        <ele>1470.2</ele>
        <time>2015-08-14T10:19:59Z</time>
      </trkpt>
      <trkpt lat="42.2626510" lon="1.7628330">
        <ele>1469.9</ele>
        <time>2015-08-14T10:20:01Z</time>
      </trkpt>
      <trkpt lat="42.2626330" lon="1.7628690">
        <ele>1469.5</ele>
        <time>2015-08-14T10:20:03Z</time>
      </trkpt>
      <trkpt lat="42.2626040" lon="1.7629100">
        <ele>1469.5</ele>
        <time>2015-08-14T10:20:06Z</time>
      </trkpt>
      <trkpt lat="42.2625740" lon="1.7629320">
        <ele>1470.7</ele>
        <time>2015-08-14T10:20:08Z</time>
      </trkpt>
      <trkpt lat="42.2625390" lon="1.7629620">
        <ele>1472.1</ele>
        <time>2015-08-14T10:20:10Z</time>
      </trkpt>
      <trkpt lat="42.2625120" lon="1.7629910">
        <ele>1473.0</ele>
        <time>2015-08-14T10:20:12Z</time>
      </trkpt>
      <trkpt lat="42.2625010" lon="1.7630290">
        <ele>1472.5</ele>
        <time>2015-08-14T10:20:14Z</time>
      </trkpt>
      <trkpt lat="42.2624730" lon="1.7630720">
        <ele>1473.0</ele>
        <time>2015-08-14T10:20:16Z</time>
      </trkpt>
      <trkpt lat="42.2624060" lon="1.7630550">
        <ele>1477.8</ele>
        <time>2015-08-14T10:20:18Z</time>
      </trkpt>
      <trkpt lat="42.2623780" lon="1.7630970">
        <ele>1478.2</ele>
        <time>2015-08-14T10:20:20Z</time>
      </trkpt>
      <trkpt lat="42.2623530" lon="1.7631150">
        <ele>1479.2</ele>
        <time>2015-08-14T10:20:21Z</time>
      </trkpt>
      <trkpt lat="42.2623410" lon="1.7631480">
        <ele>1479.0</ele>
        <time>2015-08-14T10:20:22Z</time>
      </trkpt>
      <trkpt lat="42.2623260" lon="1.7631960">
        <ele>1478.4</ele>
        <time>2015-08-14T10:20:24Z</time>
      </trkpt>
      <trkpt lat="42.2623170" lon="1.7632310">
        <ele>1477.8</ele>
        <time>2015-08-14T10:20:25Z</time>
      </trkpt>
      <trkpt lat="42.2622910" lon="1.7632630">
        <ele>1478.4</ele>
        <time>2015-08-14T10:20:27Z</time>
      </trkpt>
      <trkpt lat="42.2622470" lon="1.7632810">
        <ele>1480.6</ele>
        <time>2015-08-14T10:20:29Z</time>
      </trkpt>
      <trkpt lat="42.2622210" lon="1.7633480">
        <ele>1480.0</ele>
        <time>2015-08-14T10:20:31Z</time>
      </trkpt>
      <trkpt lat="42.2622020" lon="1.7633870">
        <ele>1479.9</ele>
        <time>2015-08-14T10:20:33Z</time>
      </trkpt>
      <trkpt lat="42.2621920" lon="1.7634330">
        <ele>1479.0</ele>
        <time>2015-08-14T10:20:35Z</time>
      </trkpt>
      <trkpt lat="42.2621940" lon="1.7634710">
        <ele>1477.6</ele>
        <time>2015-08-14T10:20:36Z</time>
      </trkpt>
      <trkpt lat="42.2621640" lon="1.7635120">
        <ele>1478.1</ele>
        <time>2015-08-14T10:20:39Z</time>
      </trkpt>
      <trkpt lat="42.2621470" lon="1.7635570">
        <ele>1477.7</ele>
        <time>2015-08-14T10:20:41Z</time>
      </trkpt>
      <trkpt lat="42.2621280" lon="1.7635870">
        <ele>1477.8</ele>
        <time>2015-08-14T10:20:43Z</time>
      </trkpt>
      <trkpt lat="42.2620980" lon="1.7636160">
        <ele>1478.6</ele>
        <time>2015-08-14T10:20:45Z</time>
      </trkpt>
      <trkpt lat="42.2620730" lon="1.7636400">
        <ele>1479.2</ele>
        <time>2015-08-14T10:20:47Z</time>
      </trkpt>
      <trkpt lat="42.2620430" lon="1.7636750">
        <ele>1479.6</ele>
        <time>2015-08-14T10:20:49Z</time>
      </trkpt>
      <trkpt lat="42.2620150" lon="1.7637090">
        <ele>1479.8</ele>
        <time>2015-08-14T10:20:52Z</time>
      </trkpt>
      <trkpt lat="42.2619980" lon="1.7637420">
        <ele>1479.6</ele>
        <time>2015-08-14T10:20:54Z</time>
      </trkpt>
      <trkpt lat="42.2619760" lon="1.7637770">
        <ele>1479.6</ele>
        <time>2015-08-14T10:20:56Z</time>
      </trkpt>
      <trkpt lat="42.2619490" lon="1.7638110">
        <ele>1479.9</ele>
        <time>2015-08-14T10:20:58Z</time>
      </trkpt>
      <trkpt lat="42.2619120" lon="1.7638140">
        <ele>1481.6</ele>
        <time>2015-08-14T10:21:00Z</time>
      </trkpt>
      <trkpt lat="42.2618790" lon="1.7638300">
        <ele>1482.8</ele>
        <time>2015-08-14T10:21:02Z</time>
      </trkpt>
      <trkpt lat="42.2618800" lon="1.7638740">
        <ele>1481.3</ele>
        <time>2015-08-14T10:21:03Z</time>
      </trkpt>
      <trkpt lat="42.2618450" lon="1.7638940">
        <ele>1482.4</ele>
        <time>2015-08-14T10:21:05Z</time>
      </trkpt>
      <trkpt lat="42.2618060" lon="1.7639110">
        <ele>1483.8</ele>
        <time>2015-08-14T10:21:08Z</time>
      </trkpt>
      <trkpt lat="42.2617630" lon="1.7639010">
        <ele>1486.2</ele>
        <time>2015-08-14T10:21:10Z</time>
      </trkpt>
      <trkpt lat="42.2617140" lon="1.7639190">
        <ele>1488.0</ele>
        <time>2015-08-14T10:21:12Z</time>
      </trkpt>
      <trkpt lat="42.2616930" lon="1.7639550">
        <ele>1487.8</ele>
        <time>2015-08-14T10:21:15Z</time>
      </trkpt>
      <trkpt lat="42.2616800" lon="1.7639890">
        <ele>1487.3</ele>
        <time>2015-08-14T10:21:17Z</time>
      </trkpt>
      <trkpt lat="42.2616750" lon="1.7640470">
        <ele>1485.6</ele>
        <time>2015-08-14T10:21:21Z</time>
      </trkpt>
      <trkpt lat="42.2616490" lon="1.7640800">
        <ele>1485.8</ele>
        <time>2015-08-14T10:21:23Z</time>
      </trkpt>
      <trkpt lat="42.2616170" lon="1.7641260">
        <ele>1485.7</ele>
        <time>2015-08-14T10:21:25Z</time>
      </trkpt>
      <trkpt lat="42.2616010" lon="1.7641650">
        <ele>1485.1</ele>
        <time>2015-08-14T10:21:27Z</time>
      </trkpt>
      <trkpt lat="42.2615780" lon="1.7642000">
        <ele>1485.0</ele>
        <time>2015-08-14T10:21:29Z</time>
      </trkpt>
      <trkpt lat="42.2615540" lon="1.7642350">
        <ele>1484.9</ele>
        <time>2015-08-14T10:21:31Z</time>
      </trkpt>
      <trkpt lat="42.2615280" lon="1.7642570">
        <ele>1485.3</ele>
        <time>2015-08-14T10:21:33Z</time>
      </trkpt>
      <trkpt lat="42.2615000" lon="1.7643120">
        <ele>1484.7</ele>
        <time>2015-08-14T10:21:36Z</time>
      </trkpt>
      <trkpt lat="42.2614790" lon="1.7643600">
        <ele>1484.0</ele>
        <time>2015-08-14T10:21:38Z</time>
      </trkpt>
      <trkpt lat="42.2614530" lon="1.7644140">
        <ele>1483.2</ele>
        <time>2015-08-14T10:21:40Z</time>
      </trkpt>
      <trkpt lat="42.2614250" lon="1.7644090">
        <ele>1484.7</ele>
        <time>2015-08-14T10:21:42Z</time>
      </trkpt>
      <trkpt lat="42.2614160" lon="1.7644820">
        <ele>1482.5</ele>
        <time>2015-08-14T10:21:44Z</time>
      </trkpt>
      <trkpt lat="42.2614510" lon="1.7645160">
        <ele>1479.7</ele>
        <time>2015-08-14T10:21:45Z</time>
      </trkpt>
      <trkpt lat="42.2614760" lon="1.7645480">
        <ele>1477.5</ele>
        <time>2015-08-14T10:21:47Z</time>
      </trkpt>
      <trkpt lat="42.2614770" lon="1.7646180">
        <ele>1474.7</ele>
        <time>2015-08-14T10:21:49Z</time>
      </trkpt>
      <trkpt lat="42.2614640" lon="1.7646510">
        <ele>1473.8</ele>
        <time>2015-08-14T10:21:50Z</time>
      </trkpt>
      <trkpt lat="42.2614490" lon="1.7646940">
        <ele>1472.5</ele>
        <time>2015-08-14T10:21:52Z</time>
      </trkpt>
      <trkpt lat="42.2614340" lon="1.7647260">
        <ele>1471.7</ele>
        <time>2015-08-14T10:21:54Z</time>
      </trkpt>
      <trkpt lat="42.2613930" lon="1.7647940">
        <ele>1470.2</ele>
        <time>2015-08-14T10:21:56Z</time>
      </trkpt>
      <trkpt lat="42.2613690" lon="1.7648290">
        <ele>1469.6</ele>
        <time>2015-08-14T10:21:57Z</time>
      </trkpt>
      <trkpt lat="42.2613360" lon="1.7648700">
        <ele>1469.0</ele>
        <time>2015-08-14T10:21:59Z</time>
      </trkpt>
      <trkpt lat="42.2612870" lon="1.7648650">
        <ele>1471.1</ele>
        <time>2015-08-14T10:22:03Z</time>
      </trkpt>
      <trkpt lat="42.2612590" lon="1.7648910">
        <ele>1470.9</ele>
        <time>2015-08-14T10:22:05Z</time>
      </trkpt>
      <trkpt lat="42.2612290" lon="1.7649230">
        <ele>1470.0</ele>
        <time>2015-08-14T10:22:07Z</time>
      </trkpt>
      <trkpt lat="42.2612050" lon="1.7649510">
        <ele>1469.0</ele>
        <time>2015-08-14T10:22:08Z</time>
      </trkpt>
      <trkpt lat="42.2611770" lon="1.7649700">
        <ele>1468.5</ele>
        <time>2015-08-14T10:22:09Z</time>
      </trkpt>
      <trkpt lat="42.2611410" lon="1.7649940">
        <ele>1467.9</ele>
        <time>2015-08-14T10:22:10Z</time>
      </trkpt>
      <trkpt lat="42.2611270" lon="1.7650350">
        <ele>1466.2</ele>
        <time>2015-08-14T10:22:11Z</time>
      </trkpt>
      <trkpt lat="42.2611030" lon="1.7650840">
        <ele>1464.2</ele>
        <time>2015-08-14T10:22:13Z</time>
      </trkpt>
      <trkpt lat="42.2610810" lon="1.7651250">
        <ele>1462.6</ele>
        <time>2015-08-14T10:22:15Z</time>
      </trkpt>
      <trkpt lat="42.2610510" lon="1.7651700">
        <ele>1461.0</ele>
        <time>2015-08-14T10:22:17Z</time>
      </trkpt>
      <trkpt lat="42.2610280" lon="1.7651990">
        <ele>1460.0</ele>
        <time>2015-08-14T10:22:18Z</time>
      </trkpt>
      <trkpt lat="42.2610110" lon="1.7652280">
        <ele>1458.9</ele>
        <time>2015-08-14T10:22:19Z</time>
      </trkpt>
      <trkpt lat="42.2609640" lon="1.7652740">
        <ele>1457.5</ele>
        <time>2015-08-14T10:22:21Z</time>
      </trkpt>
      <trkpt lat="42.2609150" lon="1.7653230">
        <ele>1456.0</ele>
        <time>2015-08-14T10:22:23Z</time>
      </trkpt>
      <trkpt lat="42.2608840" lon="1.7653500">
        <ele>1455.2</ele>
        <time>2015-08-14T10:22:24Z</time>
      </trkpt>
      <trkpt lat="42.2608570" lon="1.7653750">
        <ele>1454.5</ele>
        <time>2015-08-14T10:22:25Z</time>
      </trkpt>
      <trkpt lat="42.2608330" lon="1.7654000">
        <ele>1453.8</ele>
        <time>2015-08-14T10:22:26Z</time>
      </trkpt>
      <trkpt lat="42.2607900" lon="1.7654460">
        <ele>1453.2</ele>
        <time>2015-08-14T10:22:28Z</time>
      </trkpt>
      <trkpt lat="42.2607630" lon="1.7654700">
        <ele>1453.2</ele>
        <time>2015-08-14T10:22:29Z</time>
      </trkpt>
      <trkpt lat="42.2607370" lon="1.7654890">
        <ele>1453.3</ele>
        <time>2015-08-14T10:22:30Z</time>
      </trkpt>
      <trkpt lat="42.2606910" lon="1.7655320">
        <ele>1453.3</ele>
        <time>2015-08-14T10:22:32Z</time>
      </trkpt>
      <trkpt lat="42.2606660" lon="1.7655490">
        <ele>1453.4</ele>
        <time>2015-08-14T10:22:33Z</time>
      </trkpt>
      <trkpt lat="42.2606440" lon="1.7655770">
        <ele>1453.3</ele>
        <time>2015-08-14T10:22:34Z</time>
      </trkpt>
      <trkpt lat="42.2606190" lon="1.7656040">
        <ele>1453.2</ele>
        <time>2015-08-14T10:22:35Z</time>
      </trkpt>
      <trkpt lat="42.2605950" lon="1.7656300">
        <ele>1453.1</ele>
        <time>2015-08-14T10:22:36Z</time>
      </trkpt>
      <trkpt lat="42.2605720" lon="1.7656790">
        <ele>1452.5</ele>
        <time>2015-08-14T10:22:38Z</time>
      </trkpt>
      <trkpt lat="42.2605310" lon="1.7656980">
        <ele>1452.8</ele>
        <time>2015-08-14T10:22:40Z</time>
      </trkpt>
      <trkpt lat="42.2604930" lon="1.7657310">
        <ele>1452.8</ele>
        <time>2015-08-14T10:22:42Z</time>
      </trkpt>
      <trkpt lat="42.2604730" lon="1.7657620">
        <ele>1452.5</ele>
        <time>2015-08-14T10:22:50Z</time>
      </trkpt>
      <trkpt lat="42.2604540" lon="1.7657970">
        <ele>1452.1</ele>
        <time>2015-08-14T10:23:01Z</time>
      </trkpt>
      <trkpt lat="42.2604450" lon="1.7658440">
        <ele>1451.4</ele>
        <time>2015-08-14T10:23:03Z</time>
      </trkpt>
      <trkpt lat="42.2604160" lon="1.7658810">
        <ele>1451.1</ele>
        <time>2015-08-14T10:23:05Z</time>
      </trkpt>
      <trkpt lat="42.2603910" lon="1.7659120">
        <ele>1450.4</ele>
        <time>2015-08-14T10:23:07Z</time>
      </trkpt>
      <trkpt lat="42.2603530" lon="1.7659340">
        <ele>1449.9</ele>
        <time>2015-08-14T10:23:09Z</time>
      </trkpt>
      <trkpt lat="42.2603140" lon="1.7659410">
        <ele>1449.7</ele>
        <time>2015-08-14T10:23:11Z</time>
      </trkpt>
      <trkpt lat="42.2602840" lon="1.7659410">
        <ele>1449.7</ele>
        <time>2015-08-14T10:23:13Z</time>
      </trkpt>
      <trkpt lat="42.2602550" lon="1.7659210">
        <ele>1450.0</ele>
        <time>2015-08-14T10:23:15Z</time>
      </trkpt>
      <trkpt lat="42.2602200" lon="1.7659260">
        <ele>1449.8</ele>
        <time>2015-08-14T10:23:18Z</time>
      </trkpt>
      <trkpt lat="42.2601910" lon="1.7659490">
        <ele>1449.3</ele>
        <time>2015-08-14T10:23:20Z</time>
      </trkpt>
      <trkpt lat="42.2601510" lon="1.7659640">
        <ele>1448.9</ele>
        <time>2015-08-14T10:23:22Z</time>
      </trkpt>
      <trkpt lat="42.2601150" lon="1.7659590">
        <ele>1448.9</ele>
        <time>2015-08-14T10:23:24Z</time>
      </trkpt>
      <trkpt lat="42.2600830" lon="1.7659680">
        <ele>1448.6</ele>
        <time>2015-08-14T10:23:26Z</time>
      </trkpt>
      <trkpt lat="42.2600490" lon="1.7659920">
        <ele>1448.0</ele>
        <time>2015-08-14T10:23:28Z</time>
      </trkpt>
      <trkpt lat="42.2600160" lon="1.7660070">
        <ele>1447.6</ele>
        <time>2015-08-14T10:23:30Z</time>
      </trkpt>
      <trkpt lat="42.2599820" lon="1.7660360">
        <ele>1446.8</ele>
        <time>2015-08-14T10:23:32Z</time>
      </trkpt>
      <trkpt lat="42.2599450" lon="1.7660570">
        <ele>1446.2</ele>
        <time>2015-08-14T10:23:34Z</time>
      </trkpt>
      <trkpt lat="42.2599110" lon="1.7660810">
        <ele>1445.6</ele>
        <time>2015-08-14T10:23:36Z</time>
      </trkpt>
      <trkpt lat="42.2598810" lon="1.7661040">
        <ele>1444.9</ele>
        <time>2015-08-14T10:23:38Z</time>
      </trkpt>
      <trkpt lat="42.2598490" lon="1.7661190">
        <ele>1444.4</ele>
        <time>2015-08-14T10:23:40Z</time>
      </trkpt>
      <trkpt lat="42.2598170" lon="1.7661320">
        <ele>1444.0</ele>
        <time>2015-08-14T10:23:42Z</time>
      </trkpt>
      <trkpt lat="42.2597890" lon="1.7661390">
        <ele>1443.7</ele>
        <time>2015-08-14T10:23:46Z</time>
      </trkpt>
      <trkpt lat="42.2597520" lon="1.7661650">
        <ele>1442.9</ele>
        <time>2015-08-14T10:25:38Z</time>
      </trkpt>
      <trkpt lat="42.2596880" lon="1.7661770">
        <ele>1442.4</ele>
        <time>2015-08-14T10:25:40Z</time>
      </trkpt>
      <trkpt lat="42.2596600" lon="1.7661800">
        <ele>1442.2</ele>
        <time>2015-08-14T10:25:41Z</time>
      </trkpt>
      <trkpt lat="42.2596200" lon="1.7662070">
        <ele>1441.3</ele>
        <time>2015-08-14T10:25:42Z</time>
      </trkpt>
      <trkpt lat="42.2595940" lon="1.7662240">
        <ele>1440.7</ele>
        <time>2015-08-14T10:25:43Z</time>
      </trkpt>
      <trkpt lat="42.2595550" lon="1.7662210">
        <ele>1440.6</ele>
        <time>2015-08-14T10:25:44Z</time>
      </trkpt>
      <trkpt lat="42.2595190" lon="1.7662320">
        <ele>1440.1</ele>
        <time>2015-08-14T10:25:45Z</time>
      </trkpt>
      <trkpt lat="42.2594810" lon="1.7662400">
        <ele>1439.6</ele>
        <time>2015-08-14T10:25:46Z</time>
      </trkpt>
      <trkpt lat="42.2594440" lon="1.7662520">
        <ele>1439.2</ele>
        <time>2015-08-14T10:25:47Z</time>
      </trkpt>
      <trkpt lat="42.2594060" lon="1.7662590">
        <ele>1438.9</ele>
        <time>2015-08-14T10:25:48Z</time>
      </trkpt>
      <trkpt lat="42.2593780" lon="1.7662690">
        <ele>1438.8</ele>
        <time>2015-08-14T10:25:49Z</time>
      </trkpt>
      <trkpt lat="42.2593410" lon="1.7662690">
        <ele>1438.5</ele>
        <time>2015-08-14T10:25:50Z</time>
      </trkpt>
      <trkpt lat="42.2593120" lon="1.7662850">
        <ele>1438.4</ele>
        <time>2015-08-14T10:25:51Z</time>
      </trkpt>
      <trkpt lat="42.2592720" lon="1.7663010">
        <ele>1438.1</ele>
        <time>2015-08-14T10:25:53Z</time>
      </trkpt>
      <trkpt lat="42.2592470" lon="1.7663150">
        <ele>1437.9</ele>
        <time>2015-08-14T10:25:54Z</time>
      </trkpt>
      <trkpt lat="42.2592450" lon="1.7663640">
        <ele>1437.9</ele>
        <time>2015-08-14T10:26:06Z</time>
      </trkpt>
      <trkpt lat="42.2591410" lon="1.7663870">
        <ele>1437.1</ele>
        <time>2015-08-14T10:26:17Z</time>
      </trkpt>
      <trkpt lat="42.2591120" lon="1.7664020">
        <ele>1436.8</ele>
        <time>2015-08-14T10:26:18Z</time>
      </trkpt>
      <trkpt lat="42.2590810" lon="1.7664190">
        <ele>1436.5</ele>
        <time>2015-08-14T10:26:19Z</time>
      </trkpt>
      <trkpt lat="42.2590030" lon="1.7664530">
        <ele>1435.8</ele>
        <time>2015-08-14T10:26:20Z</time>
      </trkpt>
      <trkpt lat="42.2589550" lon="1.7664720">
        <ele>1435.4</ele>
        <time>2015-08-14T10:26:21Z</time>
      </trkpt>
      <trkpt lat="42.2589060" lon="1.7665000">
        <ele>1434.8</ele>
        <time>2015-08-14T10:26:22Z</time>
      </trkpt>
      <trkpt lat="42.2588610" lon="1.7665230">
        <ele>1434.3</ele>
        <time>2015-08-14T10:26:23Z</time>
      </trkpt>
      <trkpt lat="42.2588210" lon="1.7665610">
        <ele>1433.8</ele>
        <time>2015-08-14T10:26:24Z</time>
      </trkpt>
      <trkpt lat="42.2587860" lon="1.7665870">
        <ele>1433.3</ele>
        <time>2015-08-14T10:26:25Z</time>
      </trkpt>
      <trkpt lat="42.2587560" lon="1.7666200">
        <ele>1432.8</ele>
        <time>2015-08-14T10:26:26Z</time>
      </trkpt>
      <trkpt lat="42.2587200" lon="1.7666550">
        <ele>1432.1</ele>
        <time>2015-08-14T10:26:27Z</time>
      </trkpt>
      <trkpt lat="42.2586950" lon="1.7666970">
        <ele>1431.4</ele>
        <time>2015-08-14T10:26:28Z</time>
      </trkpt>
      <trkpt lat="42.2586700" lon="1.7667510">
        <ele>1430.7</ele>
        <time>2015-08-14T10:26:29Z</time>
      </trkpt>
      <trkpt lat="42.2586640" lon="1.7667990">
        <ele>1430.3</ele>
        <time>2015-08-14T10:26:30Z</time>
      </trkpt>
      <trkpt lat="42.2586310" lon="1.7668540">
        <ele>1429.4</ele>
        <time>2015-08-14T10:26:31Z</time>
      </trkpt>
      <trkpt lat="42.2585750" lon="1.7668950">
        <ele>1428.1</ele>
        <time>2015-08-14T10:26:32Z</time>
      </trkpt>
      <trkpt lat="42.2585470" lon="1.7669400">
        <ele>1427.3</ele>
        <time>2015-08-14T10:26:33Z</time>
      </trkpt>
      <trkpt lat="42.2584730" lon="1.7669680">
        <ele>1425.8</ele>
        <time>2015-08-14T10:26:34Z</time>
      </trkpt>
      <trkpt lat="42.2584300" lon="1.7670260">
        <ele>1424.7</ele>
        <time>2015-08-14T10:26:35Z</time>
      </trkpt>
      <trkpt lat="42.2583660" lon="1.7670790">
        <ele>1423.1</ele>
        <time>2015-08-14T10:26:36Z</time>
      </trkpt>
      <trkpt lat="42.2583270" lon="1.7671150">
        <ele>1422.8</ele>
        <time>2015-08-14T10:26:37Z</time>
      </trkpt>
      <trkpt lat="42.2582860" lon="1.7671470">
        <ele>1422.5</ele>
        <time>2015-08-14T10:26:38Z</time>
      </trkpt>
      <trkpt lat="42.2582550" lon="1.7671840">
        <ele>1422.4</ele>
        <time>2015-08-14T10:26:39Z</time>
      </trkpt>
      <trkpt lat="42.2582290" lon="1.7672050">
        <ele>1422.2</ele>
        <time>2015-08-14T10:26:40Z</time>
      </trkpt>
      <trkpt lat="42.2581760" lon="1.7672340">
        <ele>1421.6</ele>
        <time>2015-08-14T10:26:41Z</time>
      </trkpt>
      <trkpt lat="42.2581400" lon="1.7672710">
        <ele>1421.5</ele>
        <time>2015-08-14T10:26:42Z</time>
      </trkpt>
      <trkpt lat="42.2581040" lon="1.7673030">
        <ele>1421.2</ele>
        <time>2015-08-14T10:26:43Z</time>
      </trkpt>
      <trkpt lat="42.2580440" lon="1.7673380">
        <ele>1420.5</ele>
        <time>2015-08-14T10:26:44Z</time>
      </trkpt>
      <trkpt lat="42.2580080" lon="1.7673870">
        <ele>1420.4</ele>
        <time>2015-08-14T10:26:45Z</time>
      </trkpt>
      <trkpt lat="42.2579710" lon="1.7674160">
        <ele>1420.0</ele>
        <time>2015-08-14T10:26:46Z</time>
      </trkpt>
      <trkpt lat="42.2579270" lon="1.7674540">
        <ele>1419.7</ele>
        <time>2015-08-14T10:26:47Z</time>
      </trkpt>
      <trkpt lat="42.2578840" lon="1.7674880">
        <ele>1419.2</ele>
        <time>2015-08-14T10:26:48Z</time>
      </trkpt>
      <trkpt lat="42.2578410" lon="1.7675230">
        <ele>1418.8</ele>
        <time>2015-08-14T10:26:49Z</time>
      </trkpt>
      <trkpt lat="42.2577980" lon="1.7675670">
        <ele>1418.4</ele>
        <time>2015-08-14T10:26:50Z</time>
      </trkpt>
      <trkpt lat="42.2577560" lon="1.7675960">
        <ele>1417.9</ele>
        <time>2015-08-14T10:26:51Z</time>
      </trkpt>
      <trkpt lat="42.2577250" lon="1.7676250">
        <ele>1417.5</ele>
        <time>2015-08-14T10:26:52Z</time>
      </trkpt>
      <trkpt lat="42.2576740" lon="1.7676350">
        <ele>1416.6</ele>
        <time>2015-08-14T10:26:53Z</time>
      </trkpt>
      <trkpt lat="42.2576090" lon="1.7676840">
        <ele>1415.6</ele>
        <time>2015-08-14T10:26:54Z</time>
      </trkpt>
      <trkpt lat="42.2575610" lon="1.7677120">
        <ele>1414.8</ele>
        <time>2015-08-14T10:26:55Z</time>
      </trkpt>
      <trkpt lat="42.2575160" lon="1.7677490">
        <ele>1414.1</ele>
        <time>2015-08-14T10:26:56Z</time>
      </trkpt>
      <trkpt lat="42.2574740" lon="1.7677820">
        <ele>1413.4</ele>
        <time>2015-08-14T10:26:57Z</time>
      </trkpt>
      <trkpt lat="42.2574340" lon="1.7677920">
        <ele>1412.6</ele>
        <time>2015-08-14T10:26:58Z</time>
      </trkpt>
      <trkpt lat="42.2573770" lon="1.7678310">
        <ele>1411.6</ele>
        <time>2015-08-14T10:27:00Z</time>
      </trkpt>
      <trkpt lat="42.2573260" lon="1.7678800">
        <ele>1410.6</ele>
        <time>2015-08-14T10:27:01Z</time>
      </trkpt>
      <trkpt lat="42.2572920" lon="1.7679030">
        <ele>1409.9</ele>
        <time>2015-08-14T10:27:02Z</time>
      </trkpt>
      <trkpt lat="42.2572660" lon="1.7679440">
        <ele>1409.7</ele>
        <time>2015-08-14T10:27:03Z</time>
      </trkpt>
      <trkpt lat="42.2572380" lon="1.7680100">
        <ele>1409.7</ele>
        <time>2015-08-14T10:27:04Z</time>
      </trkpt>
      <trkpt lat="42.2572260" lon="1.7680570">
        <ele>1409.9</ele>
        <time>2015-08-14T10:27:05Z</time>
      </trkpt>
      <trkpt lat="42.2572000" lon="1.7680820">
        <ele>1409.6</ele>
        <time>2015-08-14T10:27:06Z</time>
      </trkpt>
      <trkpt lat="42.2571710" lon="1.7681060">
        <ele>1409.1</ele>
        <time>2015-08-14T10:27:07Z</time>
      </trkpt>
      <trkpt lat="42.2571420" lon="1.7681720">
        <ele>1409.0</ele>
        <time>2015-08-14T10:27:09Z</time>
      </trkpt>
      <trkpt lat="42.2571080" lon="1.7682280">
        <ele>1408.6</ele>
        <time>2015-08-14T10:27:10Z</time>
      </trkpt>
      <trkpt lat="42.2570890" lon="1.7682750">
        <ele>1408.6</ele>
        <time>2015-08-14T10:27:11Z</time>
      </trkpt>
      <trkpt lat="42.2570720" lon="1.7683520">
        <ele>1408.9</ele>
        <time>2015-08-14T10:27:12Z</time>
      </trkpt>
      <trkpt lat="42.2570470" lon="1.7684090">
        <ele>1408.9</ele>
        <time>2015-08-14T10:27:13Z</time>
      </trkpt>
      <trkpt lat="42.2570220" lon="1.7684540">
        <ele>1408.7</ele>
        <time>2015-08-14T10:27:14Z</time>
      </trkpt>
      <trkpt lat="42.2570000" lon="1.7685260">
        <ele>1408.8</ele>
        <time>2015-08-14T10:27:15Z</time>
      </trkpt>
      <trkpt lat="42.2569770" lon="1.7685800">
        <ele>1408.7</ele>
        <time>2015-08-14T10:27:16Z</time>
      </trkpt>
      <trkpt lat="42.2569580" lon="1.7686820">
        <ele>1409.1</ele>
        <time>2015-08-14T10:27:17Z</time>
      </trkpt>
      <trkpt lat="42.2569430" lon="1.7687370">
        <ele>1409.2</ele>
        <time>2015-08-14T10:27:18Z</time>
      </trkpt>
      <trkpt lat="42.2569160" lon="1.7688110">
        <ele>1409.3</ele>
        <time>2015-08-14T10:27:19Z</time>
      </trkpt>
      <trkpt lat="42.2568940" lon="1.7688850">
        <ele>1409.5</ele>
        <time>2015-08-14T10:27:20Z</time>
      </trkpt>
      <trkpt lat="42.2568830" lon="1.7689600">
        <ele>1410.0</ele>
        <time>2015-08-14T10:27:21Z</time>
      </trkpt>
      <trkpt lat="42.2568470" lon="1.7690430">
        <ele>1410.0</ele>
        <time>2015-08-14T10:27:22Z</time>
      </trkpt>
      <trkpt lat="42.2568410" lon="1.7690990">
        <ele>1410.4</ele>
        <time>2015-08-14T10:27:23Z</time>
      </trkpt>
      <trkpt lat="42.2568260" lon="1.7691720">
        <ele>1410.8</ele>
        <time>2015-08-14T10:27:24Z</time>
      </trkpt>
      <trkpt lat="42.2568110" lon="1.7692450">
        <ele>1411.2</ele>
        <time>2015-08-14T10:27:25Z</time>
      </trkpt>
      <trkpt lat="42.2567850" lon="1.7693110">
        <ele>1411.1</ele>
        <time>2015-08-14T10:27:26Z</time>
      </trkpt>
      <trkpt lat="42.2567680" lon="1.7693750">
        <ele>1411.3</ele>
        <time>2015-08-14T10:27:27Z</time>
      </trkpt>
      <trkpt lat="42.2567580" lon="1.7694560">
        <ele>1411.9</ele>
        <time>2015-08-14T10:27:28Z</time>
      </trkpt>
      <trkpt lat="42.2567420" lon="1.7695270">
        <ele>1412.2</ele>
        <time>2015-08-14T10:27:29Z</time>
      </trkpt>
      <trkpt lat="42.2567160" lon="1.7695900">
        <ele>1412.0</ele>
        <time>2015-08-14T10:27:30Z</time>
      </trkpt>
      <trkpt lat="42.2566990" lon="1.7696580">
        <ele>1411.9</ele>
        <time>2015-08-14T10:27:31Z</time>
      </trkpt>
      <trkpt lat="42.2566850" lon="1.7697240">
        <ele>1411.9</ele>
        <time>2015-08-14T10:27:32Z</time>
      </trkpt>
      <trkpt lat="42.2566590" lon="1.7698030">
        <ele>1411.6</ele>
        <time>2015-08-14T10:27:33Z</time>
      </trkpt>
      <trkpt lat="42.2566530" lon="1.7698700">
        <ele>1411.8</ele>
        <time>2015-08-14T10:27:34Z</time>
      </trkpt>
      <trkpt lat="42.2566210" lon="1.7699320">
        <ele>1411.3</ele>
        <time>2015-08-14T10:27:35Z</time>
      </trkpt>
      <trkpt lat="42.2566030" lon="1.7699940">
        <ele>1411.1</ele>
        <time>2015-08-14T10:27:36Z</time>
      </trkpt>
      <trkpt lat="42.2565810" lon="1.7700610">
        <ele>1410.9</ele>
        <time>2015-08-14T10:27:37Z</time>
      </trkpt>
      <trkpt lat="42.2565620" lon="1.7701310">
        <ele>1410.8</ele>
        <time>2015-08-14T10:27:38Z</time>
      </trkpt>
      <trkpt lat="42.2565180" lon="1.7702150">
        <ele>1410.1</ele>
        <time>2015-08-14T10:27:39Z</time>
      </trkpt>
      <trkpt lat="42.2564940" lon="1.7702770">
        <ele>1409.8</ele>
        <time>2015-08-14T10:27:40Z</time>
      </trkpt>
      <trkpt lat="42.2564520" lon="1.7703170">
        <ele>1408.9</ele>
        <time>2015-08-14T10:27:41Z</time>
      </trkpt>
      <trkpt lat="42.2564310" lon="1.7703530">
        <ele>1408.6</ele>
        <time>2015-08-14T10:27:42Z</time>
      </trkpt>
      <trkpt lat="42.2563840" lon="1.7704040">
        <ele>1407.6</ele>
        <time>2015-08-14T10:27:43Z</time>
      </trkpt>
      <trkpt lat="42.2563580" lon="1.7704250">
        <ele>1407.0</ele>
        <time>2015-08-14T10:27:44Z</time>
      </trkpt>
      <trkpt lat="42.2563160" lon="1.7704670">
        <ele>1406.2</ele>
        <time>2015-08-14T10:27:45Z</time>
      </trkpt>
      <trkpt lat="42.2562840" lon="1.7705050">
        <ele>1405.6</ele>
        <time>2015-08-14T10:27:46Z</time>
      </trkpt>
      <trkpt lat="42.2562250" lon="1.7705210">
        <ele>1404.2</ele>
        <time>2015-08-14T10:27:48Z</time>
      </trkpt>
      <trkpt lat="42.2562000" lon="1.7705410">
        <ele>1403.7</ele>
        <time>2015-08-14T10:27:49Z</time>
      </trkpt>
      <trkpt lat="42.2561580" lon="1.7706100">
        <ele>1403.2</ele>
        <time>2015-08-14T10:27:51Z</time>
      </trkpt>
      <trkpt lat="42.2561390" lon="1.7706360">
        <ele>1403.0</ele>
        <time>2015-08-14T10:27:52Z</time>
      </trkpt>
      <trkpt lat="42.2561080" lon="1.7707110">
        <ele>1402.8</ele>
        <time>2015-08-14T10:27:53Z</time>
      </trkpt>
      <trkpt lat="42.2561080" lon="1.7707960">
        <ele>1403.4</ele>
        <time>2015-08-14T10:27:54Z</time>
      </trkpt>
      <trkpt lat="42.2560660" lon="1.7708440">
        <ele>1402.8</ele>
        <time>2015-08-14T10:27:55Z</time>
      </trkpt>
      <trkpt lat="42.2560130" lon="1.7708650">
        <ele>1401.7</ele>
        <time>2015-08-14T10:27:56Z</time>
      </trkpt>
      <trkpt lat="42.2559890" lon="1.7709010">
        <ele>1401.4</ele>
        <time>2015-08-14T10:27:57Z</time>
      </trkpt>
      <trkpt lat="42.2559350" lon="1.7709610">
        <ele>1400.6</ele>
        <time>2015-08-14T10:27:59Z</time>
      </trkpt>
      <trkpt lat="42.2558950" lon="1.7709960">
        <ele>1399.9</ele>
        <time>2015-08-14T10:28:00Z</time>
      </trkpt>
      <trkpt lat="42.2558500" lon="1.7710630">
        <ele>1399.4</ele>
        <time>2015-08-14T10:28:01Z</time>
      </trkpt>
      <trkpt lat="42.2558000" lon="1.7710950">
        <ele>1398.5</ele>
        <time>2015-08-14T10:28:02Z</time>
      </trkpt>
      <trkpt lat="42.2557810" lon="1.7711250">
        <ele>1398.3</ele>
        <time>2015-08-14T10:28:03Z</time>
      </trkpt>
      <trkpt lat="42.2557520" lon="1.7711590">
        <ele>1397.9</ele>
        <time>2015-08-14T10:28:04Z</time>
      </trkpt>
      <trkpt lat="42.2556900" lon="1.7712210">
        <ele>1397.0</ele>
        <time>2015-08-14T10:28:05Z</time>
      </trkpt>
      <trkpt lat="42.2556220" lon="1.7712730">
        <ele>1396.0</ele>
        <time>2015-08-14T10:28:06Z</time>
      </trkpt>
      <trkpt lat="42.2555960" lon="1.7713340">
        <ele>1396.4</ele>
        <time>2015-08-14T10:28:07Z</time>
      </trkpt>
      <trkpt lat="42.2555660" lon="1.7714070">
        <ele>1396.8</ele>
        <time>2015-08-14T10:28:08Z</time>
      </trkpt>
      <trkpt lat="42.2555070" lon="1.7714580">
        <ele>1396.2</ele>
        <time>2015-08-14T10:28:09Z</time>
      </trkpt>
      <trkpt lat="42.2554580" lon="1.7715150">
        <ele>1395.8</ele>
        <time>2015-08-14T10:28:10Z</time>
      </trkpt>
      <trkpt lat="42.2554380" lon="1.7715920">
        <ele>1396.5</ele>
        <time>2015-08-14T10:28:11Z</time>
      </trkpt>
      <trkpt lat="42.2553930" lon="1.7716330">
        <ele>1395.9</ele>
        <time>2015-08-14T10:28:12Z</time>
      </trkpt>
      <trkpt lat="42.2553270" lon="1.7716560">
        <ele>1394.6</ele>
        <time>2015-08-14T10:28:13Z</time>
      </trkpt>
      <trkpt lat="42.2552990" lon="1.7716970">
        <ele>1394.5</ele>
        <time>2015-08-14T10:28:14Z</time>
      </trkpt>
      <trkpt lat="42.2552680" lon="1.7717600">
        <ele>1394.6</ele>
        <time>2015-08-14T10:28:15Z</time>
      </trkpt>
      <trkpt lat="42.2552380" lon="1.7717880">
        <ele>1394.2</ele>
        <time>2015-08-14T10:28:18Z</time>
      </trkpt>
      <trkpt lat="42.2552010" lon="1.7717770">
        <ele>1393.1</ele>
        <time>2015-08-14T10:28:19Z</time>
      </trkpt>
      <trkpt lat="42.2551620" lon="1.7717900">
        <ele>1392.3</ele>
        <time>2015-08-14T10:28:20Z</time>
      </trkpt>
      <trkpt lat="42.2551870" lon="1.7718120">
        <ele>1393.2</ele>
        <time>2015-08-14T10:28:26Z</time>
      </trkpt>
      <trkpt lat="42.2551570" lon="1.7718290">
        <ele>1392.6</ele>
        <time>2015-08-14T10:28:44Z</time>
      </trkpt>
      <trkpt lat="42.2551350" lon="1.7718480">
        <ele>1392.3</ele>
        <time>2015-08-14T10:28:50Z</time>
      </trkpt>
      <trkpt lat="42.2551110" lon="1.7719110">
        <ele>1392.5</ele>
        <time>2015-08-14T10:29:18Z</time>
      </trkpt>
      <trkpt lat="42.2550790" lon="1.7719310">
        <ele>1391.9</ele>
        <time>2015-08-14T10:29:19Z</time>
      </trkpt>
      <trkpt lat="42.2550660" lon="1.7719780">
        <ele>1392.1</ele>
        <time>2015-08-14T10:29:21Z</time>
      </trkpt>
      <trkpt lat="42.2550410" lon="1.7720130">
        <ele>1391.8</ele>
        <time>2015-08-14T10:29:22Z</time>
      </trkpt>
      <trkpt lat="42.2549990" lon="1.7720960">
        <ele>1391.6</ele>
        <time>2015-08-14T10:29:23Z</time>
      </trkpt>
      <trkpt lat="42.2549670" lon="1.7721400">
        <ele>1391.3</ele>
        <time>2015-08-14T10:29:24Z</time>
      </trkpt>
      <trkpt lat="42.2549050" lon="1.7721490">
        <ele>1389.8</ele>
        <time>2015-08-14T10:29:25Z</time>
      </trkpt>
      <trkpt lat="42.2548820" lon="1.7721760">
        <ele>1389.5</ele>
        <time>2015-08-14T10:29:26Z</time>
      </trkpt>
      <trkpt lat="42.2548260" lon="1.7722880">
        <ele>1389.5</ele>
        <time>2015-08-14T10:29:27Z</time>
      </trkpt>
      <trkpt lat="42.2547980" lon="1.7723290">
        <ele>1389.3</ele>
        <time>2015-08-14T10:29:28Z</time>
      </trkpt>
      <trkpt lat="42.2547320" lon="1.7723610">
        <ele>1388.0</ele>
        <time>2015-08-14T10:29:29Z</time>
      </trkpt>
      <trkpt lat="42.2547000" lon="1.7723960">
        <ele>1387.6</ele>
        <time>2015-08-14T10:29:30Z</time>
      </trkpt>
      <trkpt lat="42.2546740" lon="1.7724270">
        <ele>1387.4</ele>
        <time>2015-08-14T10:29:31Z</time>
      </trkpt>
      <trkpt lat="42.2546250" lon="1.7724850">
        <ele>1386.9</ele>
        <time>2015-08-14T10:29:32Z</time>
      </trkpt>
      <trkpt lat="42.2546060" lon="1.7725120">
        <ele>1386.8</ele>
        <time>2015-08-14T10:29:33Z</time>
      </trkpt>
      <trkpt lat="42.2545850" lon="1.7725500">
        <ele>1386.8</ele>
        <time>2015-08-14T10:29:34Z</time>
      </trkpt>
      <trkpt lat="42.2545460" lon="1.7725780">
        <ele>1386.3</ele>
        <time>2015-08-14T10:29:35Z</time>
      </trkpt>
      <trkpt lat="42.2545140" lon="1.7726060">
        <ele>1386.0</ele>
        <time>2015-08-14T10:29:36Z</time>
      </trkpt>
      <trkpt lat="42.2544890" lon="1.7726340">
        <ele>1385.8</ele>
        <time>2015-08-14T10:29:37Z</time>
      </trkpt>
      <trkpt lat="42.2544670" lon="1.7726980">
        <ele>1386.2</ele>
        <time>2015-08-14T10:29:38Z</time>
      </trkpt>
      <trkpt lat="42.2544300" lon="1.7727160">
        <ele>1385.6</ele>
        <time>2015-08-14T10:29:39Z</time>
      </trkpt>
      <trkpt lat="42.2543460" lon="1.7727570">
        <ele>1384.1</ele>
        <time>2015-08-14T10:29:40Z</time>
      </trkpt>
      <trkpt lat="42.2543250" lon="1.7727800">
        <ele>1383.9</ele>
        <time>2015-08-14T10:29:41Z</time>
      </trkpt>
      <trkpt lat="42.2542960" lon="1.7728070">
        <ele>1383.5</ele>
        <time>2015-08-14T10:29:42Z</time>
      </trkpt>
      <trkpt lat="42.2542640" lon="1.7728400">
        <ele>1383.1</ele>
        <time>2015-08-14T10:29:43Z</time>
      </trkpt>
      <trkpt lat="42.2542280" lon="1.7728710">
        <ele>1382.6</ele>
        <time>2015-08-14T10:29:44Z</time>
      </trkpt>
      <trkpt lat="42.2541860" lon="1.7729190">
        <ele>1382.0</ele>
        <time>2015-08-14T10:29:45Z</time>
      </trkpt>
      <trkpt lat="42.2541480" lon="1.7729840">
        <ele>1382.2</ele>
        <time>2015-08-14T10:29:46Z</time>
      </trkpt>
      <trkpt lat="42.2541020" lon="1.7730250">
        <ele>1381.7</ele>
        <time>2015-08-14T10:29:47Z</time>
      </trkpt>
      <trkpt lat="42.2540710" lon="1.7730620">
        <ele>1381.5</ele>
        <time>2015-08-14T10:29:48Z</time>
      </trkpt>
      <trkpt lat="42.2540290" lon="1.7731480">
        <ele>1381.7</ele>
        <time>2015-08-14T10:29:49Z</time>
      </trkpt>
      <trkpt lat="42.2539850" lon="1.7732270">
        <ele>1381.8</ele>
        <time>2015-08-14T10:29:50Z</time>
      </trkpt>
      <trkpt lat="42.2539460" lon="1.7732740">
        <ele>1381.5</ele>
        <time>2015-08-14T10:29:51Z</time>
      </trkpt>
      <trkpt lat="42.2539250" lon="1.7733440">
        <ele>1382.0</ele>
        <time>2015-08-14T10:29:52Z</time>
      </trkpt>
      <trkpt lat="42.2538940" lon="1.7733840">
        <ele>1381.7</ele>
        <time>2015-08-14T10:29:53Z</time>
      </trkpt>
      <trkpt lat="42.2538540" lon="1.7734010">
        <ele>1380.9</ele>
        <time>2015-08-14T10:29:54Z</time>
      </trkpt>
      <trkpt lat="42.2538220" lon="1.7734380">
        <ele>1380.5</ele>
        <time>2015-08-14T10:29:55Z</time>
      </trkpt>
      <trkpt lat="42.2537660" lon="1.7735200">
        <ele>1380.1</ele>
        <time>2015-08-14T10:29:56Z</time>
      </trkpt>
      <trkpt lat="42.2536950" lon="1.7736090">
        <ele>1379.7</ele>
        <time>2015-08-14T10:29:57Z</time>
      </trkpt>
      <trkpt lat="42.2536240" lon="1.7737130">
        <ele>1379.2</ele>
        <time>2015-08-14T10:29:58Z</time>
      </trkpt>
      <trkpt lat="42.2535550" lon="1.7737750">
        <ele>1378.1</ele>
        <time>2015-08-14T10:29:59Z</time>
      </trkpt>
      <trkpt lat="42.2535170" lon="1.7738410">
        <ele>1377.9</ele>
        <time>2015-08-14T10:30:00Z</time>
      </trkpt>
      <trkpt lat="42.2534600" lon="1.7739460">
        <ele>1377.4</ele>
        <time>2015-08-14T10:30:01Z</time>
      </trkpt>
      <trkpt lat="42.2534020" lon="1.7740140">
        <ele>1376.5</ele>
        <time>2015-08-14T10:30:02Z</time>
      </trkpt>
      <trkpt lat="42.2533550" lon="1.7740810">
        <ele>1375.8</ele>
        <time>2015-08-14T10:30:03Z</time>
      </trkpt>
      <trkpt lat="42.2533060" lon="1.7741930">
        <ele>1375.4</ele>
        <time>2015-08-14T10:30:04Z</time>
      </trkpt>
      <trkpt lat="42.2532550" lon="1.7742620">
        <ele>1374.5</ele>
        <time>2015-08-14T10:30:05Z</time>
      </trkpt>
      <trkpt lat="42.2532120" lon="1.7743330">
        <ele>1373.8</ele>
        <time>2015-08-14T10:30:06Z</time>
      </trkpt>
      <trkpt lat="42.2531710" lon="1.7743990">
        <ele>1373.0</ele>
        <time>2015-08-14T10:30:07Z</time>
      </trkpt>
      <trkpt lat="42.2531390" lon="1.7744580">
        <ele>1372.5</ele>
        <time>2015-08-14T10:30:08Z</time>
      </trkpt>
      <trkpt lat="42.2530960" lon="1.7745380">
        <ele>1371.7</ele>
        <time>2015-08-14T10:30:09Z</time>
      </trkpt>
      <trkpt lat="42.2530740" lon="1.7746340">
        <ele>1371.8</ele>
        <time>2015-08-14T10:30:10Z</time>
      </trkpt>
      <trkpt lat="42.2530280" lon="1.7747010">
        <ele>1370.9</ele>
        <time>2015-08-14T10:30:11Z</time>
      </trkpt>
      <trkpt lat="42.2529870" lon="1.7747640">
        <ele>1370.0</ele>
        <time>2015-08-14T10:30:12Z</time>
      </trkpt>
      <trkpt lat="42.2529630" lon="1.7748370">
        <ele>1369.8</ele>
        <time>2015-08-14T10:30:13Z</time>
      </trkpt>
      <trkpt lat="42.2529220" lon="1.7749200">
        <ele>1369.0</ele>
        <time>2015-08-14T10:30:14Z</time>
      </trkpt>
      <trkpt lat="42.2528550" lon="1.7750010">
        <ele>1367.9</ele>
        <time>2015-08-14T10:30:15Z</time>
      </trkpt>
      <trkpt lat="42.2528100" lon="1.7750760">
        <ele>1367.2</ele>
        <time>2015-08-14T10:30:16Z</time>
      </trkpt>
      <trkpt lat="42.2527650" lon="1.7751720">
        <ele>1366.6</ele>
        <time>2015-08-14T10:30:17Z</time>
      </trkpt>
      <trkpt lat="42.2526880" lon="1.7752430">
        <ele>1364.9</ele>
        <time>2015-08-14T10:30:18Z</time>
      </trkpt>
      <trkpt lat="42.2526270" lon="1.7753120">
        <ele>1363.4</ele>
        <time>2015-08-14T10:30:19Z</time>
      </trkpt>
      <trkpt lat="42.2526020" lon="1.7754330">
        <ele>1363.4</ele>
        <time>2015-08-14T10:30:20Z</time>
      </trkpt>
      <trkpt lat="42.2525640" lon="1.7755130">
        <ele>1363.3</ele>
        <time>2015-08-14T10:30:21Z</time>
      </trkpt>
      <trkpt lat="42.2525200" lon="1.7755930">
        <ele>1362.9</ele>
        <time>2015-08-14T10:30:22Z</time>
      </trkpt>
      <trkpt lat="42.2524410" lon="1.7756700">
        <ele>1361.2</ele>
        <time>2015-08-14T10:30:23Z</time>
      </trkpt>
      <trkpt lat="42.2523480" lon="1.7757260">
        <ele>1358.7</ele>
        <time>2015-08-14T10:30:24Z</time>
      </trkpt>
      <trkpt lat="42.2522870" lon="1.7757930">
        <ele>1357.3</ele>
        <time>2015-08-14T10:30:25Z</time>
      </trkpt>
      <trkpt lat="42.2522260" lon="1.7758590">
        <ele>1355.8</ele>
        <time>2015-08-14T10:30:26Z</time>
      </trkpt>
      <trkpt lat="42.2522270" lon="1.7759840">
        <ele>1357.1</ele>
        <time>2015-08-14T10:30:27Z</time>
      </trkpt>
      <trkpt lat="42.2522390" lon="1.7760910">
        <ele>1358.6</ele>
        <time>2015-08-14T10:30:28Z</time>
      </trkpt>
      <trkpt lat="42.2522000" lon="1.7761860">
        <ele>1358.0</ele>
        <time>2015-08-14T10:30:29Z</time>
      </trkpt>
      <trkpt lat="42.2521480" lon="1.7763210">
        <ele>1357.3</ele>
        <time>2015-08-14T10:30:30Z</time>
      </trkpt>
      <trkpt lat="42.2520680" lon="1.7763750">
        <ele>1355.1</ele>
        <time>2015-08-14T10:30:31Z</time>
      </trkpt>
      <trkpt lat="42.2520320" lon="1.7764830">
        <ele>1355.7</ele>
        <time>2015-08-14T10:30:32Z</time>
      </trkpt>
      <trkpt lat="42.2519930" lon="1.7766000">
        <ele>1356.1</ele>
        <time>2015-08-14T10:30:33Z</time>
      </trkpt>
      <trkpt lat="42.2519300" lon="1.7767030">
        <ele>1355.9</ele>
        <time>2015-08-14T10:30:34Z</time>
      </trkpt>
      <trkpt lat="42.2518510" lon="1.7768120">
        <ele>1355.0</ele>
        <time>2015-08-14T10:30:35Z</time>
      </trkpt>
      <trkpt lat="42.2518090" lon="1.7769350">
        <ele>1354.9</ele>
        <time>2015-08-14T10:30:36Z</time>
      </trkpt>
      <trkpt lat="42.2517460" lon="1.7770420">
        <ele>1353.9</ele>
        <time>2015-08-14T10:30:37Z</time>
      </trkpt>
      <trkpt lat="42.2517330" lon="1.7772110">
        <ele>1354.3</ele>
        <time>2015-08-14T10:30:38Z</time>
      </trkpt>
      <trkpt lat="42.2516790" lon="1.7773500">
        <ele>1353.5</ele>
        <time>2015-08-14T10:30:39Z</time>
      </trkpt>
      <trkpt lat="42.2516150" lon="1.7774780">
        <ele>1352.1</ele>
        <time>2015-08-14T10:30:40Z</time>
      </trkpt>
      <trkpt lat="42.2515500" lon="1.7776030">
        <ele>1350.7</ele>
        <time>2015-08-14T10:30:41Z</time>
      </trkpt>
      <trkpt lat="42.2514790" lon="1.7777490">
        <ele>1348.9</ele>
        <time>2015-08-14T10:30:42Z</time>
      </trkpt>
      <trkpt lat="42.2513990" lon="1.7778610">
        <ele>1346.7</ele>
        <time>2015-08-14T10:30:43Z</time>
      </trkpt>
      <trkpt lat="42.2513500" lon="1.7779970">
        <ele>1345.5</ele>
        <time>2015-08-14T10:30:44Z</time>
      </trkpt>
      <trkpt lat="42.2512880" lon="1.7781100">
        <ele>1343.9</ele>
        <time>2015-08-14T10:30:45Z</time>
      </trkpt>
      <trkpt lat="42.2512210" lon="1.7782420">
        <ele>1343.0</ele>
        <time>2015-08-14T10:30:46Z</time>
      </trkpt>
      <trkpt lat="42.2511650" lon="1.7783780">
        <ele>1342.9</ele>
        <time>2015-08-14T10:30:47Z</time>
      </trkpt>
      <trkpt lat="42.2511140" lon="1.7785320">
        <ele>1342.6</ele>
        <time>2015-08-14T10:30:48Z</time>
      </trkpt>
      <trkpt lat="42.2510580" lon="1.7786800">
        <ele>1341.8</ele>
        <time>2015-08-14T10:30:49Z</time>
      </trkpt>
      <trkpt lat="42.2510130" lon="1.7788380">
        <ele>1341.0</ele>
        <time>2015-08-14T10:30:50Z</time>
      </trkpt>
      <trkpt lat="42.2509520" lon="1.7789910">
        <ele>1339.8</ele>
        <time>2015-08-14T10:30:51Z</time>
      </trkpt>
      <trkpt lat="42.2508940" lon="1.7791570">
        <ele>1338.4</ele>
        <time>2015-08-14T10:30:52Z</time>
      </trkpt>
      <trkpt lat="42.2508380" lon="1.7793080">
        <ele>1336.8</ele>
        <time>2015-08-14T10:30:53Z</time>
      </trkpt>
      <trkpt lat="42.2507780" lon="1.7794620">
        <ele>1334.8</ele>
        <time>2015-08-14T10:30:54Z</time>
      </trkpt>
      <trkpt lat="42.2507240" lon="1.7796210">
        <ele>1332.8</ele>
        <time>2015-08-14T10:30:55Z</time>
      </trkpt>
      <trkpt lat="42.2506710" lon="1.7798070">
        <ele>1331.1</ele>
        <time>2015-08-14T10:30:56Z</time>
      </trkpt>
      <trkpt lat="42.2506850" lon="1.7800190">
        <ele>1331.4</ele>
        <time>2015-08-14T10:30:57Z</time>
      </trkpt>
      <trkpt lat="42.2506390" lon="1.7801880">
        <ele>1329.7</ele>
        <time>2015-08-14T10:30:58Z</time>
      </trkpt>
      <trkpt lat="42.2505940" lon="1.7803530">
        <ele>1328.0</ele>
        <time>2015-08-14T10:30:59Z</time>
      </trkpt>
      <trkpt lat="42.2505490" lon="1.7805260">
        <ele>1326.5</ele>
        <time>2015-08-14T10:31:00Z</time>
      </trkpt>
      <trkpt lat="42.2505120" lon="1.7806970">
        <ele>1325.4</ele>
        <time>2015-08-14T10:31:01Z</time>
      </trkpt>
      <trkpt lat="42.2504890" lon="1.7808590">
        <ele>1324.8</ele>
        <time>2015-08-14T10:31:02Z</time>
      </trkpt>
      <trkpt lat="42.2504350" lon="1.7810250">
        <ele>1323.3</ele>
        <time>2015-08-14T10:31:03Z</time>
      </trkpt>
      <trkpt lat="42.2504150" lon="1.7811960">
        <ele>1322.9</ele>
        <time>2015-08-14T10:31:04Z</time>
      </trkpt>
      <trkpt lat="42.2504210" lon="1.7813720">
        <ele>1322.5</ele>
        <time>2015-08-14T10:31:05Z</time>
      </trkpt>
      <trkpt lat="42.2503820" lon="1.7815150">
        <ele>1321.5</ele>
        <time>2015-08-14T10:31:06Z</time>
      </trkpt>
      <trkpt lat="42.2503660" lon="1.7816550">
        <ele>1320.7</ele>
        <time>2015-08-14T10:31:07Z</time>
      </trkpt>
      <trkpt lat="42.2503570" lon="1.7818140">
        <ele>1319.9</ele>
        <time>2015-08-14T10:31:08Z</time>
      </trkpt>
      <trkpt lat="42.2504000" lon="1.7818830">
        <ele>1319.9</ele>
        <time>2015-08-14T10:31:09Z</time>
      </trkpt>
      <trkpt lat="42.2503860" lon="1.7820130">
        <ele>1319.1</ele>
        <time>2015-08-14T10:31:10Z</time>
      </trkpt>
      <trkpt lat="42.2503880" lon="1.7821280">
        <ele>1318.4</ele>
        <time>2015-08-14T10:31:11Z</time>
      </trkpt>
      <trkpt lat="42.2504050" lon="1.7821960">
        <ele>1317.9</ele>
        <time>2015-08-14T10:31:12Z</time>
      </trkpt>
      <trkpt lat="42.2504170" lon="1.7822800">
        <ele>1317.1</ele>
        <time>2015-08-14T10:31:13Z</time>
      </trkpt>
      <trkpt lat="42.2504230" lon="1.7823470">
        <ele>1316.6</ele>
        <time>2015-08-14T10:31:14Z</time>
      </trkpt>
      <trkpt lat="42.2504420" lon="1.7824170">
        <ele>1316.5</ele>
        <time>2015-08-14T10:31:15Z</time>
      </trkpt>
      <trkpt lat="42.2504470" lon="1.7824810">
        <ele>1316.0</ele>
        <time>2015-08-14T10:31:16Z</time>
      </trkpt>
      <trkpt lat="42.2504790" lon="1.7825800">
        <ele>1315.9</ele>
        <time>2015-08-14T10:31:17Z</time>
      </trkpt>
      <trkpt lat="42.2504870" lon="1.7826710">
        <ele>1315.3</ele>
        <time>2015-08-14T10:31:18Z</time>
      </trkpt>
      <trkpt lat="42.2505230" lon="1.7827600">
        <ele>1315.4</ele>
        <time>2015-08-14T10:31:19Z</time>
      </trkpt>
      <trkpt lat="42.2505630" lon="1.7828450">
        <ele>1315.6</ele>
        <time>2015-08-14T10:31:20Z</time>
      </trkpt>
      <trkpt lat="42.2506150" lon="1.7829300">
        <ele>1316.1</ele>
        <time>2015-08-14T10:31:21Z</time>
      </trkpt>
      <trkpt lat="42.2506720" lon="1.7830170">
        <ele>1316.6</ele>
        <time>2015-08-14T10:31:22Z</time>
      </trkpt>
      <trkpt lat="42.2507280" lon="1.7831140">
        <ele>1316.9</ele>
        <time>2015-08-14T10:31:23Z</time>
      </trkpt>
      <trkpt lat="42.2507760" lon="1.7832040">
        <ele>1317.0</ele>
        <time>2015-08-14T10:31:24Z</time>
      </trkpt>
      <trkpt lat="42.2508310" lon="1.7833040">
        <ele>1317.1</ele>
        <time>2015-08-14T10:31:25Z</time>
      </trkpt>
      <trkpt lat="42.2508790" lon="1.7834020">
        <ele>1316.9</ele>
        <time>2015-08-14T10:31:26Z</time>
      </trkpt>
      <trkpt lat="42.2509330" lon="1.7835180">
        <ele>1316.5</ele>
        <time>2015-08-14T10:31:27Z</time>
      </trkpt>
      <trkpt lat="42.2509890" lon="1.7836300">
        <ele>1316.0</ele>
        <time>2015-08-14T10:31:28Z</time>
      </trkpt>
      <trkpt lat="42.2510400" lon="1.7837490">
        <ele>1315.2</ele>
        <time>2015-08-14T10:31:29Z</time>
      </trkpt>
      <trkpt lat="42.2510940" lon="1.7838730">
        <ele>1314.5</ele>
        <time>2015-08-14T10:31:30Z</time>
      </trkpt>
      <trkpt lat="42.2511510" lon="1.7839950">
        <ele>1313.3</ele>
        <time>2015-08-14T10:31:31Z</time>
      </trkpt>
      <trkpt lat="42.2512090" lon="1.7841120">
        <ele>1311.8</ele>
        <time>2015-08-14T10:31:32Z</time>
      </trkpt>
      <trkpt lat="42.2512550" lon="1.7842410">
        <ele>1309.7</ele>
        <time>2015-08-14T10:31:33Z</time>
      </trkpt>
      <trkpt lat="42.2513150" lon="1.7843940">
        <ele>1308.6</ele>
        <time>2015-08-14T10:31:34Z</time>
      </trkpt>
      <trkpt lat="42.2513810" lon="1.7845310">
        <ele>1307.8</ele>
        <time>2015-08-14T10:31:35Z</time>
      </trkpt>
      <trkpt lat="42.2514530" lon="1.7846590">
        <ele>1308.0</ele>
        <time>2015-08-14T10:31:36Z</time>
      </trkpt>
      <trkpt lat="42.2515230" lon="1.7847900">
        <ele>1308.3</ele>
        <time>2015-08-14T10:31:37Z</time>
      </trkpt>
      <trkpt lat="42.2515690" lon="1.7849470">
        <ele>1307.3</ele>
        <time>2015-08-14T10:31:38Z</time>
      </trkpt>
      <trkpt lat="42.2516270" lon="1.7850970">
        <ele>1306.3</ele>
        <time>2015-08-14T10:31:39Z</time>
      </trkpt>
      <trkpt lat="42.2516860" lon="1.7852540">
        <ele>1304.8</ele>
        <time>2015-08-14T10:31:40Z</time>
      </trkpt>
      <trkpt lat="42.2517480" lon="1.7854140">
        <ele>1302.8</ele>
        <time>2015-08-14T10:31:41Z</time>
      </trkpt>
      <trkpt lat="42.2517940" lon="1.7855550">
        <ele>1301.9</ele>
        <time>2015-08-14T10:31:42Z</time>
      </trkpt>
      <trkpt lat="42.2518780" lon="1.7856930">
        <ele>1300.5</ele>
        <time>2015-08-14T10:31:43Z</time>
      </trkpt>
      <trkpt lat="42.2519610" lon="1.7858260">
        <ele>1298.4</ele>
        <time>2015-08-14T10:31:44Z</time>
      </trkpt>
      <trkpt lat="42.2520450" lon="1.7859600">
        <ele>1295.3</ele>
        <time>2015-08-14T10:31:45Z</time>
      </trkpt>
      <trkpt lat="42.2521320" lon="1.7860910">
        <ele>1293.8</ele>
        <time>2015-08-14T10:31:46Z</time>
      </trkpt>
      <trkpt lat="42.2522130" lon="1.7862340">
        <ele>1293.1</ele>
        <time>2015-08-14T10:31:47Z</time>
      </trkpt>
      <trkpt lat="42.2522750" lon="1.7863800">
        <ele>1292.4</ele>
        <time>2015-08-14T10:31:48Z</time>
      </trkpt>
      <trkpt lat="42.2523340" lon="1.7865230">
        <ele>1291.6</ele>
        <time>2015-08-14T10:31:49Z</time>
      </trkpt>
      <trkpt lat="42.2523570" lon="1.7866530">
        <ele>1290.0</ele>
        <time>2015-08-14T10:31:50Z</time>
      </trkpt>
      <trkpt lat="42.2523980" lon="1.7867930">
        <ele>1288.4</ele>
        <time>2015-08-14T10:31:51Z</time>
      </trkpt>
      <trkpt lat="42.2524360" lon="1.7869270">
        <ele>1286.8</ele>
        <time>2015-08-14T10:31:52Z</time>
      </trkpt>
      <trkpt lat="42.2524830" lon="1.7870680">
        <ele>1285.0</ele>
        <time>2015-08-14T10:31:53Z</time>
      </trkpt>
      <trkpt lat="42.2525260" lon="1.7871760">
        <ele>1284.2</ele>
        <time>2015-08-14T10:31:54Z</time>
      </trkpt>
      <trkpt lat="42.2525650" lon="1.7872690">
        <ele>1283.6</ele>
        <time>2015-08-14T10:31:55Z</time>
      </trkpt>
      <trkpt lat="42.2526020" lon="1.7873700">
        <ele>1282.8</ele>
        <time>2015-08-14T10:31:56Z</time>
      </trkpt>
      <trkpt lat="42.2526620" lon="1.7874490">
        <ele>1282.7</ele>
        <time>2015-08-14T10:31:57Z</time>
      </trkpt>
      <trkpt lat="42.2527030" lon="1.7875390">
        <ele>1282.1</ele>
        <time>2015-08-14T10:31:58Z</time>
      </trkpt>
      <trkpt lat="42.2527310" lon="1.7876020">
        <ele>1281.7</ele>
        <time>2015-08-14T10:31:59Z</time>
      </trkpt>
      <trkpt lat="42.2527560" lon="1.7876950">
        <ele>1280.8</ele>
        <time>2015-08-14T10:32:00Z</time>
      </trkpt>
      <trkpt lat="42.2527820" lon="1.7877900">
        <ele>1279.8</ele>
        <time>2015-08-14T10:32:01Z</time>
      </trkpt>
      <trkpt lat="42.2528040" lon="1.7878990">
        <ele>1278.6</ele>
        <time>2015-08-14T10:32:02Z</time>
      </trkpt>
      <trkpt lat="42.2527920" lon="1.7879740">
        <ele>1277.7</ele>
        <time>2015-08-14T10:32:03Z</time>
      </trkpt>
      <trkpt lat="42.2527760" lon="1.7880550">
        <ele>1276.7</ele>
        <time>2015-08-14T10:32:04Z</time>
      </trkpt>
      <trkpt lat="42.2527640" lon="1.7881330">
        <ele>1275.7</ele>
        <time>2015-08-14T10:32:05Z</time>
      </trkpt>
      <trkpt lat="42.2527590" lon="1.7882010">
        <ele>1275.0</ele>
        <time>2015-08-14T10:32:06Z</time>
      </trkpt>
      <trkpt lat="42.2527620" lon="1.7882750">
        <ele>1274.3</ele>
        <time>2015-08-14T10:32:07Z</time>
      </trkpt>
      <trkpt lat="42.2527550" lon="1.7883480">
        <ele>1273.5</ele>
        <time>2015-08-14T10:32:08Z</time>
      </trkpt>
      <trkpt lat="42.2527450" lon="1.7884230">
        <ele>1272.5</ele>
        <time>2015-08-14T10:32:09Z</time>
      </trkpt>
      <trkpt lat="42.2527430" lon="1.7885120">
        <ele>1271.6</ele>
        <time>2015-08-14T10:32:10Z</time>
      </trkpt>
      <trkpt lat="42.2527560" lon="1.7885810">
        <ele>1271.2</ele>
        <time>2015-08-14T10:32:11Z</time>
      </trkpt>
      <trkpt lat="42.2527620" lon="1.7886500">
        <ele>1270.7</ele>
        <time>2015-08-14T10:32:12Z</time>
      </trkpt>
      <trkpt lat="42.2527910" lon="1.7887210">
        <ele>1270.8</ele>
        <time>2015-08-14T10:32:13Z</time>
      </trkpt>
      <trkpt lat="42.2528080" lon="1.7887920">
        <ele>1270.9</ele>
        <time>2015-08-14T10:32:14Z</time>
      </trkpt>
      <trkpt lat="42.2528310" lon="1.7888460">
        <ele>1271.4</ele>
        <time>2015-08-14T10:32:15Z</time>
      </trkpt>
      <trkpt lat="42.2528400" lon="1.7888870">
        <ele>1271.5</ele>
        <time>2015-08-14T10:32:16Z</time>
      </trkpt>
      <trkpt lat="42.2528570" lon="1.7889590">
        <ele>1271.8</ele>
        <time>2015-08-14T10:32:17Z</time>
      </trkpt>
      <trkpt lat="42.2528590" lon="1.7890100">
        <ele>1271.7</ele>
        <time>2015-08-14T10:32:18Z</time>
      </trkpt>
      <trkpt lat="42.2528750" lon="1.7890790">
        <ele>1272.0</ele>
        <time>2015-08-14T10:32:19Z</time>
      </trkpt>
      <trkpt lat="42.2528880" lon="1.7891240">
        <ele>1272.2</ele>
        <time>2015-08-14T10:32:20Z</time>
      </trkpt>
      <trkpt lat="42.2528900" lon="1.7892040">
        <ele>1272.1</ele>
        <time>2015-08-14T10:32:21Z</time>
      </trkpt>
      <trkpt lat="42.2528670" lon="1.7892730">
        <ele>1271.2</ele>
        <time>2015-08-14T10:32:22Z</time>
      </trkpt>
      <trkpt lat="42.2528630" lon="1.7893390">
        <ele>1270.9</ele>
        <time>2015-08-14T10:32:23Z</time>
      </trkpt>
      <trkpt lat="42.2528770" lon="1.7893860">
        <ele>1271.2</ele>
        <time>2015-08-14T10:32:24Z</time>
      </trkpt>
      <trkpt lat="42.2528670" lon="1.7894440">
        <ele>1270.8</ele>
        <time>2015-08-14T10:32:25Z</time>
      </trkpt>
      <trkpt lat="42.2528670" lon="1.7895340">
        <ele>1270.5</ele>
        <time>2015-08-14T10:32:27Z</time>
      </trkpt>
      <trkpt lat="42.2528680" lon="1.7895790">
        <ele>1270.4</ele>
        <time>2015-08-14T10:32:28Z</time>
      </trkpt>
      <trkpt lat="42.2528900" lon="1.7896230">
        <ele>1270.8</ele>
        <time>2015-08-14T10:32:29Z</time>
      </trkpt>
      <trkpt lat="42.2528980" lon="1.7896760">
        <ele>1270.5</ele>
        <time>2015-08-14T10:32:30Z</time>
      </trkpt>
      <trkpt lat="42.2529300" lon="1.7897240">
        <ele>1271.3</ele>
        <time>2015-08-14T10:32:31Z</time>
      </trkpt>
      <trkpt lat="42.2529620" lon="1.7897520">
        <ele>1272.6</ele>
        <time>2015-08-14T10:32:32Z</time>
      </trkpt>
      <trkpt lat="42.2529860" lon="1.7898050">
        <ele>1273.3</ele>
        <time>2015-08-14T10:32:34Z</time>
      </trkpt>
      <trkpt lat="42.2530020" lon="1.7898580">
        <ele>1273.7</ele>
        <time>2015-08-14T10:32:35Z</time>
      </trkpt>
      <trkpt lat="42.2529990" lon="1.7899460">
        <ele>1272.7</ele>
        <time>2015-08-14T10:32:37Z</time>
      </trkpt>
      <trkpt lat="42.2530200" lon="1.7900320">
        <ele>1273.0</ele>
        <time>2015-08-14T10:32:39Z</time>
      </trkpt>
      <trkpt lat="42.2530300" lon="1.7900690">
        <ele>1273.2</ele>
        <time>2015-08-14T10:32:40Z</time>
      </trkpt>
      <trkpt lat="42.2530480" lon="1.7901200">
        <ele>1273.6</ele>
        <time>2015-08-14T10:32:41Z</time>
      </trkpt>
      <trkpt lat="42.2530740" lon="1.7901610">
        <ele>1274.6</ele>
        <time>2015-08-14T10:32:42Z</time>
      </trkpt>
      <trkpt lat="42.2530960" lon="1.7901890">
        <ele>1275.5</ele>
        <time>2015-08-14T10:32:43Z</time>
      </trkpt>
      <trkpt lat="42.2531150" lon="1.7902150">
        <ele>1276.2</ele>
        <time>2015-08-14T10:32:44Z</time>
      </trkpt>
      <trkpt lat="42.2531310" lon="1.7902540">
        <ele>1276.7</ele>
        <time>2015-08-14T10:32:45Z</time>
      </trkpt>
      <trkpt lat="42.2531500" lon="1.7903040">
        <ele>1277.3</ele>
        <time>2015-08-14T10:32:47Z</time>
      </trkpt>
      <trkpt lat="42.2531540" lon="1.7903710">
        <ele>1276.9</ele>
        <time>2015-08-14T10:32:50Z</time>
      </trkpt>
      <trkpt lat="42.2531570" lon="1.7904380">
        <ele>1276.5</ele>
        <time>2015-08-14T10:32:52Z</time>
      </trkpt>
      <trkpt lat="42.2531380" lon="1.7905130">
        <ele>1274.9</ele>
        <time>2015-08-14T10:32:53Z</time>
      </trkpt>
      <trkpt lat="42.2531180" lon="1.7905390">
        <ele>1273.6</ele>
        <time>2015-08-14T10:32:54Z</time>
      </trkpt>
      <trkpt lat="42.2531300" lon="1.7906190">
        <ele>1273.5</ele>
        <time>2015-08-14T10:32:56Z</time>
      </trkpt>
      <trkpt lat="42.2531340" lon="1.7906570">
        <ele>1273.4</ele>
        <time>2015-08-14T10:32:57Z</time>
      </trkpt>
      <trkpt lat="42.2531300" lon="1.7907280">
        <ele>1272.6</ele>
        <time>2015-08-14T10:32:59Z</time>
      </trkpt>
      <trkpt lat="42.2531720" lon="1.7908060">
        <ele>1274.2</ele>
        <time>2015-08-14T10:33:00Z</time>
      </trkpt>
      <trkpt lat="42.2531960" lon="1.7908470">
        <ele>1275.1</ele>
        <time>2015-08-14T10:33:01Z</time>
      </trkpt>
      <trkpt lat="42.2532160" lon="1.7908830">
        <ele>1275.9</ele>
        <time>2015-08-14T10:33:02Z</time>
      </trkpt>
      <trkpt lat="42.2532060" lon="1.7909540">
        <ele>1274.8</ele>
        <time>2015-08-14T10:33:04Z</time>
      </trkpt>
      <trkpt lat="42.2531990" lon="1.7910000">
        <ele>1274.0</ele>
        <time>2015-08-14T10:33:05Z</time>
      </trkpt>
      <trkpt lat="42.2531890" lon="1.7910360">
        <ele>1273.2</ele>
        <time>2015-08-14T10:33:06Z</time>
      </trkpt>
      <trkpt lat="42.2531900" lon="1.7911010">
        <ele>1272.7</ele>
        <time>2015-08-14T10:33:08Z</time>
      </trkpt>
      <trkpt lat="42.2531680" lon="1.7911710">
        <ele>1270.8</ele>
        <time>2015-08-14T10:33:10Z</time>
      </trkpt>
      <trkpt lat="42.2531580" lon="1.7912250">
        <ele>1269.8</ele>
        <time>2015-08-14T10:33:12Z</time>
      </trkpt>
      <trkpt lat="42.2531410" lon="1.7912780">
        <ele>1268.9</ele>
        <time>2015-08-14T10:33:14Z</time>
      </trkpt>
      <trkpt lat="42.2531020" lon="1.7913510">
        <ele>1267.2</ele>
        <time>2015-08-14T10:33:16Z</time>
      </trkpt>
      <trkpt lat="42.2530970" lon="1.7913910">
        <ele>1267.3</ele>
        <time>2015-08-14T10:33:17Z</time>
      </trkpt>
      <trkpt lat="42.2530790" lon="1.7914230">
        <ele>1266.5</ele>
        <time>2015-08-14T10:33:18Z</time>
      </trkpt>
      <trkpt lat="42.2530400" lon="1.7914670">
        <ele>1264.6</ele>
        <time>2015-08-14T10:33:19Z</time>
      </trkpt>
      <trkpt lat="42.2530180" lon="1.7914980">
        <ele>1263.6</ele>
        <time>2015-08-14T10:33:20Z</time>
      </trkpt>
      <trkpt lat="42.2529900" lon="1.7915670">
        <ele>1262.5</ele>
        <time>2015-08-14T10:33:22Z</time>
      </trkpt>
      <trkpt lat="42.2529560" lon="1.7916080">
        <ele>1260.8</ele>
        <time>2015-08-14T10:33:24Z</time>
      </trkpt>
      <trkpt lat="42.2529240" lon="1.7916530">
        <ele>1259.3</ele>
        <time>2015-08-14T10:33:26Z</time>
      </trkpt>
      <trkpt lat="42.2528980" lon="1.7916860">
        <ele>1258.3</ele>
        <time>2015-08-14T10:33:28Z</time>
      </trkpt>
      <trkpt lat="42.2528770" lon="1.7917140">
        <ele>1257.5</ele>
        <time>2015-08-14T10:33:29Z</time>
      </trkpt>
      <trkpt lat="42.2528750" lon="1.7917640">
        <ele>1257.8</ele>
        <time>2015-08-14T10:33:31Z</time>
      </trkpt>
      <trkpt lat="42.2528490" lon="1.7917960">
        <ele>1256.8</ele>
        <time>2015-08-14T10:33:33Z</time>
      </trkpt>
      <trkpt lat="42.2528190" lon="1.7918300">
        <ele>1255.6</ele>
        <time>2015-08-14T10:33:35Z</time>
      </trkpt>
      <trkpt lat="42.2528030" lon="1.7918590">
        <ele>1255.0</ele>
        <time>2015-08-14T10:33:36Z</time>
      </trkpt>
      <trkpt lat="42.2528250" lon="1.7919150">
        <ele>1256.4</ele>
        <time>2015-08-14T10:33:37Z</time>
      </trkpt>
      <trkpt lat="42.2528140" lon="1.7919520">
        <ele>1256.1</ele>
        <time>2015-08-14T10:33:39Z</time>
      </trkpt>
      <trkpt lat="42.2527900" lon="1.7919870">
        <ele>1255.1</ele>
        <time>2015-08-14T10:33:41Z</time>
      </trkpt>
      <trkpt lat="42.2527760" lon="1.7920600">
        <ele>1254.8</ele>
        <time>2015-08-14T10:33:43Z</time>
      </trkpt>
      <trkpt lat="42.2527690" lon="1.7921020">
        <ele>1254.6</ele>
        <time>2015-08-14T10:33:44Z</time>
      </trkpt>
      <trkpt lat="42.2527760" lon="1.7921610">
        <ele>1255.1</ele>
        <time>2015-08-14T10:33:46Z</time>
      </trkpt>
      <trkpt lat="42.2527620" lon="1.7921960">
        <ele>1254.5</ele>
        <time>2015-08-14T10:33:47Z</time>
      </trkpt>
      <trkpt lat="42.2527640" lon="1.7922330">
        <ele>1254.7</ele>
        <time>2015-08-14T10:33:48Z</time>
      </trkpt>
      <trkpt lat="42.2527670" lon="1.7922710">
        <ele>1255.0</ele>
        <time>2015-08-14T10:33:49Z</time>
      </trkpt>
      <trkpt lat="42.2527720" lon="1.7923090">
        <ele>1255.4</ele>
        <time>2015-08-14T10:33:50Z</time>
      </trkpt>
      <trkpt lat="42.2527700" lon="1.7923870">
        <ele>1255.5</ele>
        <time>2015-08-14T10:33:52Z</time>
      </trkpt>
      <trkpt lat="42.2527810" lon="1.7924380">
        <ele>1256.2</ele>
        <time>2015-08-14T10:33:54Z</time>
      </trkpt>
      <trkpt lat="42.2527970" lon="1.7924680">
        <ele>1257.2</ele>
        <time>2015-08-14T10:33:55Z</time>
      </trkpt>
      <trkpt lat="42.2528130" lon="1.7925290">
        <ele>1258.2</ele>
        <time>2015-08-14T10:33:57Z</time>
      </trkpt>
      <trkpt lat="42.2528690" lon="1.7927260">
        <ele>1261.8</ele>
        <time>2015-08-14T10:34:02Z</time>
      </trkpt>
      <trkpt lat="42.2529120" lon="1.7928260">
        <ele>1264.4</ele>
        <time>2015-08-14T10:34:05Z</time>
      </trkpt>
      <trkpt lat="42.2529260" lon="1.7928590">
        <ele>1265.4</ele>
        <time>2015-08-14T10:34:06Z</time>
      </trkpt>
      <trkpt lat="42.2529400" lon="1.7928930">
        <ele>1266.6</ele>
        <time>2015-08-14T10:34:07Z</time>
      </trkpt>
      <trkpt lat="42.2529550" lon="1.7929260">
        <ele>1267.7</ele>
        <time>2015-08-14T10:34:08Z</time>
      </trkpt>
      <trkpt lat="42.2529690" lon="1.7929600">
        <ele>1268.7</ele>
        <time>2015-08-14T10:34:09Z</time>
      </trkpt>
      <trkpt lat="42.2529840" lon="1.7929930">
        <ele>1269.8</ele>
        <time>2015-08-14T10:34:10Z</time>
      </trkpt>
      <trkpt lat="42.2529980" lon="1.7930270">
        <ele>1270.8</ele>
        <time>2015-08-14T10:34:11Z</time>
      </trkpt>
      <trkpt lat="42.2530120" lon="1.7930600">
        <ele>1271.7</ele>
        <time>2015-08-14T10:34:12Z</time>
      </trkpt>
      <trkpt lat="42.2530270" lon="1.7930940">
        <ele>1272.8</ele>
        <time>2015-08-14T10:34:13Z</time>
      </trkpt>
      <trkpt lat="42.2530410" lon="1.7931270">
        <ele>1273.7</ele>
        <time>2015-08-14T10:34:14Z</time>
      </trkpt>
      <trkpt lat="42.2530550" lon="1.7931610">
        <ele>1274.6</ele>
        <time>2015-08-14T10:34:15Z</time>
      </trkpt>
      <trkpt lat="42.2530860" lon="1.7930690">
        <ele>1276.8</ele>
        <time>2015-08-14T10:34:16Z</time>
      </trkpt>
      <trkpt lat="42.2530990" lon="1.7931630">
        <ele>1277.6</ele>
        <time>2015-08-14T10:34:17Z</time>
      </trkpt>
      <trkpt lat="42.2530990" lon="1.7932450">
        <ele>1277.5</ele>
        <time>2015-08-14T10:34:19Z</time>
      </trkpt>
      <trkpt lat="42.2531080" lon="1.7932920">
        <ele>1278.1</ele>
        <time>2015-08-14T10:34:21Z</time>
      </trkpt>
      <trkpt lat="42.2530900" lon="1.7933300">
        <ele>1276.8</ele>
        <time>2015-08-14T10:34:22Z</time>
      </trkpt>
      <trkpt lat="42.2530890" lon="1.7933900">
        <ele>1276.7</ele>
        <time>2015-08-14T10:34:24Z</time>
      </trkpt>
      <trkpt lat="42.2531080" lon="1.7934430">
        <ele>1277.9</ele>
        <time>2015-08-14T10:34:26Z</time>
      </trkpt>
      <trkpt lat="42.2531190" lon="1.7934930">
        <ele>1278.5</ele>
        <time>2015-08-14T10:34:29Z</time>
      </trkpt>
      <trkpt lat="42.2531220" lon="1.7935360">
        <ele>1278.6</ele>
        <time>2015-08-14T10:34:31Z</time>
      </trkpt>
      <trkpt lat="42.2531420" lon="1.7936230">
        <ele>1279.7</ele>
        <time>2015-08-14T10:34:33Z</time>
      </trkpt>
      <trkpt lat="42.2531060" lon="1.7936780">
        <ele>1277.5</ele>
        <time>2015-08-14T10:34:35Z</time>
      </trkpt>
      <trkpt lat="42.2530530" lon="1.7937230">
        <ele>1274.2</ele>
        <time>2015-08-14T10:34:36Z</time>
      </trkpt>
      <trkpt lat="42.2530400" lon="1.7937700">
        <ele>1273.6</ele>
        <time>2015-08-14T10:34:37Z</time>
      </trkpt>
      <trkpt lat="42.2529990" lon="1.7938050">
        <ele>1271.5</ele>
        <time>2015-08-14T10:34:38Z</time>
      </trkpt>
      <trkpt lat="42.2529760" lon="1.7938550">
        <ele>1270.6</ele>
        <time>2015-08-14T10:34:39Z</time>
      </trkpt>
      <trkpt lat="42.2529570" lon="1.7938950">
        <ele>1269.8</ele>
        <time>2015-08-14T10:34:40Z</time>
      </trkpt>
      <trkpt lat="42.2529420" lon="1.7939350">
        <ele>1269.3</ele>
        <time>2015-08-14T10:34:42Z</time>
      </trkpt>
      <trkpt lat="42.2529210" lon="1.7939610">
        <ele>1268.3</ele>
        <time>2015-08-14T10:34:43Z</time>
      </trkpt>
      <trkpt lat="42.2528920" lon="1.7939910">
        <ele>1266.8</ele>
        <time>2015-08-14T10:34:44Z</time>
      </trkpt>
      <trkpt lat="42.2528500" lon="1.7940110">
        <ele>1264.4</ele>
        <time>2015-08-14T10:34:46Z</time>
      </trkpt>
      <trkpt lat="42.2528270" lon="1.7940340">
        <ele>1263.2</ele>
        <time>2015-08-14T10:34:47Z</time>
      </trkpt>
      <trkpt lat="42.2527940" lon="1.7940380">
        <ele>1261.2</ele>
        <time>2015-08-14T10:34:48Z</time>
      </trkpt>
      <trkpt lat="42.2527590" lon="1.7940720">
        <ele>1259.3</ele>
        <time>2015-08-14T10:35:00Z</time>
      </trkpt>
      <trkpt lat="42.2527420" lon="1.7941030">
        <ele>1258.6</ele>
        <time>2015-08-14T10:35:01Z</time>
      </trkpt>
      <trkpt lat="42.2527220" lon="1.7941440">
        <ele>1257.7</ele>
        <time>2015-08-14T10:35:02Z</time>
      </trkpt>
      <trkpt lat="42.2527050" lon="1.7941870">
        <ele>1257.0</ele>
        <time>2015-08-14T10:35:03Z</time>
      </trkpt>
      <trkpt lat="42.2526830" lon="1.7942280">
        <ele>1255.9</ele>
        <time>2015-08-14T10:35:04Z</time>
      </trkpt>
      <trkpt lat="42.2526690" lon="1.7942740">
        <ele>1255.4</ele>
        <time>2015-08-14T10:35:05Z</time>
      </trkpt>
      <trkpt lat="42.2526610" lon="1.7943650">
        <ele>1255.7</ele>
        <time>2015-08-14T10:35:06Z</time>
      </trkpt>
      <trkpt lat="42.2526480" lon="1.7944360">
        <ele>1255.4</ele>
        <time>2015-08-14T10:35:07Z</time>
      </trkpt>
      <trkpt lat="42.2526470" lon="1.7945070">
        <ele>1255.9</ele>
        <time>2015-08-14T10:35:08Z</time>
      </trkpt>
      <trkpt lat="42.2526400" lon="1.7945750">
        <ele>1256.0</ele>
        <time>2015-08-14T10:35:09Z</time>
      </trkpt>
      <trkpt lat="42.2526520" lon="1.7946800">
        <ele>1257.6</ele>
        <time>2015-08-14T10:35:10Z</time>
      </trkpt>
      <trkpt lat="42.2526510" lon="1.7947610">
        <ele>1258.1</ele>
        <time>2015-08-14T10:35:11Z</time>
      </trkpt>
      <trkpt lat="42.2525960" lon="1.7948420">
        <ele>1255.2</ele>
        <time>2015-08-14T10:35:12Z</time>
      </trkpt>
      <trkpt lat="42.2526120" lon="1.7949370">
        <ele>1256.9</ele>
        <time>2015-08-14T10:35:13Z</time>
      </trkpt>
      <trkpt lat="42.2526070" lon="1.7950390">
        <ele>1257.4</ele>
        <time>2015-08-14T10:35:14Z</time>
      </trkpt>
      <trkpt lat="42.2526120" lon="1.7951380">
        <ele>1258.4</ele>
        <time>2015-08-14T10:35:15Z</time>
      </trkpt>
      <trkpt lat="42.2526010" lon="1.7952590">
        <ele>1258.6</ele>
        <time>2015-08-14T10:35:16Z</time>
      </trkpt>
      <trkpt lat="42.2525930" lon="1.7953650">
        <ele>1258.9</ele>
        <time>2015-08-14T10:35:17Z</time>
      </trkpt>
      <trkpt lat="42.2525590" lon="1.7954910">
        <ele>1257.8</ele>
        <time>2015-08-14T10:35:18Z</time>
      </trkpt>
      <trkpt lat="42.2525090" lon="1.7955860">
        <ele>1255.4</ele>
        <time>2015-08-14T10:35:19Z</time>
      </trkpt>
      <trkpt lat="42.2524520" lon="1.7956790">
        <ele>1252.6</ele>
        <time>2015-08-14T10:35:20Z</time>
      </trkpt>
      <trkpt lat="42.2524090" lon="1.7957840">
        <ele>1250.9</ele>
        <time>2015-08-14T10:35:21Z</time>
      </trkpt>
      <trkpt lat="42.2523640" lon="1.7958930">
        <ele>1249.2</ele>
        <time>2015-08-14T10:35:22Z</time>
      </trkpt>
      <trkpt lat="42.2523450" lon="1.7959740">
        <ele>1248.9</ele>
        <time>2015-08-14T10:35:23Z</time>
      </trkpt>
      <trkpt lat="42.2523050" lon="1.7960250">
        <ele>1246.8</ele>
        <time>2015-08-14T10:35:24Z</time>
      </trkpt>
      <trkpt lat="42.2522870" lon="1.7961030">
        <ele>1246.5</ele>
        <time>2015-08-14T10:35:25Z</time>
      </trkpt>
      <trkpt lat="42.2522580" lon="1.7961490">
        <ele>1245.2</ele>
        <time>2015-08-14T10:35:26Z</time>
      </trkpt>
      <trkpt lat="42.2522710" lon="1.7962070">
        <ele>1246.7</ele>
        <time>2015-08-14T10:35:27Z</time>
      </trkpt>
      <trkpt lat="42.2523110" lon="1.7961770">
        <ele>1248.9</ele>
        <time>2015-08-14T10:35:28Z</time>
      </trkpt>
      <trkpt lat="42.2523140" lon="1.7961320">
        <ele>1248.6</ele>
        <time>2015-08-14T10:35:36Z</time>
      </trkpt>
      <trkpt lat="42.2523420" lon="1.7961310">
        <ele>1250.4</ele>
        <time>2015-08-14T10:35:39Z</time>
      </trkpt>
      <trkpt lat="42.2523400" lon="1.7960840">
        <ele>1249.8</ele>
        <time>2015-08-14T10:35:41Z</time>
      </trkpt>
      <trkpt lat="42.2523090" lon="1.7960630">
        <ele>1247.5</ele>
        <time>2015-08-14T10:35:46Z</time>
      </trkpt>
      <trkpt lat="42.2523330" lon="1.7960940">
        <ele>1249.4</ele>
        <time>2015-08-14T10:35:55Z</time>
      </trkpt>
      <trkpt lat="42.2523520" lon="1.7961270">
        <ele>1251.0</ele>
        <time>2015-08-14T10:36:03Z</time>
      </trkpt>
      <trkpt lat="42.2523430" lon="1.7961730">
        <ele>1251.0</ele>
        <time>2015-08-14T10:36:22Z</time>
      </trkpt>
      <trkpt lat="42.2523280" lon="1.7962040">
        <ele>1250.3</ele>
        <time>2015-08-14T10:36:23Z</time>
      </trkpt>
      <trkpt lat="42.2522980" lon="1.7962370">
        <ele>1248.8</ele>
        <time>2015-08-14T10:36:25Z</time>
      </trkpt>
      <trkpt lat="42.2522910" lon="1.7962750">
        <ele>1248.6</ele>
        <time>2015-08-14T10:36:26Z</time>
      </trkpt>
      <trkpt lat="42.2522960" lon="1.7963190">
        <ele>1249.2</ele>
        <time>2015-08-14T10:36:27Z</time>
      </trkpt>
      <trkpt lat="42.2522890" lon="1.7963580">
        <ele>1248.9</ele>
        <time>2015-08-14T10:36:28Z</time>
      </trkpt>
      <trkpt lat="42.2523010" lon="1.7963900">
        <ele>1249.9</ele>
        <time>2015-08-14T10:36:29Z</time>
      </trkpt>
      <trkpt lat="42.2522960" lon="1.7964410">
        <ele>1249.9</ele>
        <time>2015-08-14T10:36:30Z</time>
      </trkpt>
      <trkpt lat="42.2522970" lon="1.7964860">
        <ele>1250.2</ele>
        <time>2015-08-14T10:36:31Z</time>
      </trkpt>
      <trkpt lat="42.2522930" lon="1.7965240">
        <ele>1250.1</ele>
        <time>2015-08-14T10:36:32Z</time>
      </trkpt>
      <trkpt lat="42.2522820" lon="1.7966130">
        <ele>1249.9</ele>
        <time>2015-08-14T10:36:34Z</time>
      </trkpt>
      <trkpt lat="42.2522610" lon="1.7966940">
        <ele>1249.1</ele>
        <time>2015-08-14T10:36:36Z</time>
      </trkpt>
      <trkpt lat="42.2522510" lon="1.7967380">
        <ele>1248.7</ele>
        <time>2015-08-14T10:36:37Z</time>
      </trkpt>
      <trkpt lat="42.2522620" lon="1.7968030">
        <ele>1249.8</ele>
        <time>2015-08-14T10:36:38Z</time>
      </trkpt>
      <trkpt lat="42.2522560" lon="1.7968570">
        <ele>1249.7</ele>
        <time>2015-08-14T10:36:39Z</time>
      </trkpt>
      <trkpt lat="42.2522500" lon="1.7969060">
        <ele>1249.6</ele>
        <time>2015-08-14T10:36:40Z</time>
      </trkpt>
      <trkpt lat="42.2522420" lon="1.7969460">
        <ele>1249.3</ele>
        <time>2015-08-14T10:36:41Z</time>
      </trkpt>
      <trkpt lat="42.2522470" lon="1.7969930">
        <ele>1249.9</ele>
        <time>2015-08-14T10:36:42Z</time>
      </trkpt>
      <trkpt lat="42.2522680" lon="1.7970240">
        <ele>1251.4</ele>
        <time>2015-08-14T10:36:43Z</time>
      </trkpt>
      <trkpt lat="42.2522770" lon="1.7970820">
        <ele>1252.3</ele>
        <time>2015-08-14T10:36:44Z</time>
      </trkpt>
      <trkpt lat="42.2522970" lon="1.7971480">
        <ele>1253.1</ele>
        <time>2015-08-14T10:36:45Z</time>
      </trkpt>
      <trkpt lat="42.2522970" lon="1.7972070">
        <ele>1252.6</ele>
        <time>2015-08-14T10:36:46Z</time>
      </trkpt>
      <trkpt lat="42.2523180" lon="1.7972760">
        <ele>1253.4</ele>
        <time>2015-08-14T10:36:47Z</time>
      </trkpt>
      <trkpt lat="42.2523290" lon="1.7973310">
        <ele>1253.7</ele>
        <time>2015-08-14T10:36:48Z</time>
      </trkpt>
      <trkpt lat="42.2523580" lon="1.7973840">
        <ele>1255.1</ele>
        <time>2015-08-14T10:36:49Z</time>
      </trkpt>
      <trkpt lat="42.2523980" lon="1.7974300">
        <ele>1257.2</ele>
        <time>2015-08-14T10:36:50Z</time>
      </trkpt>
      <trkpt lat="42.2524090" lon="1.7974850">
        <ele>1257.4</ele>
        <time>2015-08-14T10:36:51Z</time>
      </trkpt>
      <trkpt lat="42.2524270" lon="1.7975370">
        <ele>1258.1</ele>
        <time>2015-08-14T10:36:52Z</time>
      </trkpt>
      <trkpt lat="42.2524910" lon="1.7976360">
        <ele>1261.3</ele>
        <time>2015-08-14T10:36:53Z</time>
      </trkpt>
      <trkpt lat="42.2525280" lon="1.7976830">
        <ele>1263.2</ele>
        <time>2015-08-14T10:36:54Z</time>
      </trkpt>
      <trkpt lat="42.2525410" lon="1.7977290">
        <ele>1263.6</ele>
        <time>2015-08-14T10:36:55Z</time>
      </trkpt>
      <trkpt lat="42.2525510" lon="1.7978060">
        <ele>1263.6</ele>
        <time>2015-08-14T10:36:56Z</time>
      </trkpt>
      <trkpt lat="42.2525890" lon="1.7978770">
        <ele>1265.3</ele>
        <time>2015-08-14T10:36:57Z</time>
      </trkpt>
      <trkpt lat="42.2526160" lon="1.7979360">
        <ele>1266.4</ele>
        <time>2015-08-14T10:36:58Z</time>
      </trkpt>
      <trkpt lat="42.2526350" lon="1.7979930">
        <ele>1267.1</ele>
        <time>2015-08-14T10:36:59Z</time>
      </trkpt>
      <trkpt lat="42.2526560" lon="1.7980570">
        <ele>1267.7</ele>
        <time>2015-08-14T10:37:00Z</time>
      </trkpt>
      <trkpt lat="42.2526630" lon="1.7981240">
        <ele>1267.5</ele>
        <time>2015-08-14T10:37:01Z</time>
      </trkpt>
      <trkpt lat="42.2526900" lon="1.7982140">
        <ele>1268.3</ele>
        <time>2015-08-14T10:37:02Z</time>
      </trkpt>
      <trkpt lat="42.2526990" lon="1.7982890">
        <ele>1268.1</ele>
        <time>2015-08-14T10:37:03Z</time>
      </trkpt>
      <trkpt lat="42.2526770" lon="1.7983600">
        <ele>1266.2</ele>
        <time>2015-08-14T10:37:04Z</time>
      </trkpt>
      <trkpt lat="42.2526660" lon="1.7984210">
        <ele>1264.9</ele>
        <time>2015-08-14T10:37:05Z</time>
      </trkpt>
      <trkpt lat="42.2526150" lon="1.7984830">
        <ele>1261.4</ele>
        <time>2015-08-14T10:37:06Z</time>
      </trkpt>
      <trkpt lat="42.2525050" lon="1.7984940">
        <ele>1254.9</ele>
        <time>2015-08-14T10:37:07Z</time>
      </trkpt>
      <trkpt lat="42.2524640" lon="1.7985710">
        <ele>1251.9</ele>
        <time>2015-08-14T10:37:08Z</time>
      </trkpt>
      <trkpt lat="42.2524120" lon="1.7985970">
        <ele>1248.7</ele>
        <time>2015-08-14T10:37:09Z</time>
      </trkpt>
      <trkpt lat="42.2523610" lon="1.7986370">
        <ele>1245.5</ele>
        <time>2015-08-14T10:37:10Z</time>
      </trkpt>
      <trkpt lat="42.2523320" lon="1.7986960">
        <ele>1243.4</ele>
        <time>2015-08-14T10:37:11Z</time>
      </trkpt>
      <trkpt lat="42.2523000" lon="1.7987540">
        <ele>1241.3</ele>
        <time>2015-08-14T10:37:12Z</time>
      </trkpt>
      <trkpt lat="42.2522710" lon="1.7988200">
        <ele>1240.9</ele>
        <time>2015-08-14T10:37:13Z</time>
      </trkpt>
      <trkpt lat="42.2522380" lon="1.7989010">
        <ele>1240.7</ele>
        <time>2015-08-14T10:37:14Z</time>
      </trkpt>
      <trkpt lat="42.2522210" lon="1.7989940">
        <ele>1241.5</ele>
        <time>2015-08-14T10:37:15Z</time>
      </trkpt>
      <trkpt lat="42.2521960" lon="1.7990780">
        <ele>1241.7</ele>
        <time>2015-08-14T10:37:16Z</time>
      </trkpt>
      <trkpt lat="42.2521600" lon="1.7991440">
        <ele>1240.9</ele>
        <time>2015-08-14T10:37:17Z</time>
      </trkpt>
      <trkpt lat="42.2521270" lon="1.7992290">
        <ele>1240.7</ele>
        <time>2015-08-14T10:37:18Z</time>
      </trkpt>
      <trkpt lat="42.2520620" lon="1.7993070">
        <ele>1238.7</ele>
        <time>2015-08-14T10:37:19Z</time>
      </trkpt>
      <trkpt lat="42.2520120" lon="1.7993790">
        <ele>1237.6</ele>
        <time>2015-08-14T10:37:20Z</time>
      </trkpt>
      <trkpt lat="42.2519600" lon="1.7994350">
        <ele>1236.1</ele>
        <time>2015-08-14T10:37:21Z</time>
      </trkpt>
      <trkpt lat="42.2519610" lon="1.7995150">
        <ele>1237.7</ele>
        <time>2015-08-14T10:37:22Z</time>
      </trkpt>
      <trkpt lat="42.2519460" lon="1.7995900">
        <ele>1238.3</ele>
        <time>2015-08-14T10:37:23Z</time>
      </trkpt>
      <trkpt lat="42.2519260" lon="1.7996470">
        <ele>1238.1</ele>
        <time>2015-08-14T10:37:24Z</time>
      </trkpt>
      <trkpt lat="42.2519360" lon="1.7997260">
        <ele>1239.5</ele>
        <time>2015-08-14T10:37:25Z</time>
      </trkpt>
      <trkpt lat="42.2519320" lon="1.7998150">
        <ele>1240.5</ele>
        <time>2015-08-14T10:37:26Z</time>
      </trkpt>
      <trkpt lat="42.2519100" lon="1.7999040">
        <ele>1240.5</ele>
        <time>2015-08-14T10:37:27Z</time>
      </trkpt>
      <trkpt lat="42.2518920" lon="1.7999820">
        <ele>1240.5</ele>
        <time>2015-08-14T10:37:28Z</time>
      </trkpt>
      <trkpt lat="42.2518850" lon="1.8000640">
        <ele>1241.2</ele>
        <time>2015-08-14T10:37:29Z</time>
      </trkpt>
      <trkpt lat="42.2518730" lon="1.8001620">
        <ele>1241.8</ele>
        <time>2015-08-14T10:37:30Z</time>
      </trkpt>
      <trkpt lat="42.2518560" lon="1.8002420">
        <ele>1241.9</ele>
        <time>2015-08-14T10:37:31Z</time>
      </trkpt>
      <trkpt lat="42.2518450" lon="1.8003070">
        <ele>1242.1</ele>
        <time>2015-08-14T10:37:32Z</time>
      </trkpt>
      <trkpt lat="42.2518300" lon="1.8003790">
        <ele>1242.2</ele>
        <time>2015-08-14T10:37:33Z</time>
      </trkpt>
      <trkpt lat="42.2518140" lon="1.8004750">
        <ele>1242.0</ele>
        <time>2015-08-14T10:37:34Z</time>
      </trkpt>
      <trkpt lat="42.2517990" lon="1.8005600">
        <ele>1241.5</ele>
        <time>2015-08-14T10:37:35Z</time>
      </trkpt>
      <trkpt lat="42.2518050" lon="1.8006550">
        <ele>1242.2</ele>
        <time>2015-08-14T10:37:36Z</time>
      </trkpt>
      <trkpt lat="42.2517780" lon="1.8007620">
        <ele>1241.1</ele>
        <time>2015-08-14T10:37:37Z</time>
      </trkpt>
      <trkpt lat="42.2517830" lon="1.8008660">
        <ele>1241.7</ele>
        <time>2015-08-14T10:37:38Z</time>
      </trkpt>
      <trkpt lat="42.2517940" lon="1.8009870">
        <ele>1242.7</ele>
        <time>2015-08-14T10:37:39Z</time>
      </trkpt>
      <trkpt lat="42.2517920" lon="1.8010900">
        <ele>1243.0</ele>
        <time>2015-08-14T10:37:40Z</time>
      </trkpt>
      <trkpt lat="42.2517820" lon="1.8011770">
        <ele>1242.7</ele>
        <time>2015-08-14T10:37:41Z</time>
      </trkpt>
      <trkpt lat="42.2517840" lon="1.8012640">
        <ele>1243.1</ele>
        <time>2015-08-14T10:37:42Z</time>
      </trkpt>
      <trkpt lat="42.2518280" lon="1.8013510">
        <ele>1245.7</ele>
        <time>2015-08-14T10:37:43Z</time>
      </trkpt>
      <trkpt lat="42.2518600" lon="1.8014610">
        <ele>1247.6</ele>
        <time>2015-08-14T10:37:44Z</time>
      </trkpt>
      <trkpt lat="42.2518530" lon="1.8015430">
        <ele>1247.2</ele>
        <time>2015-08-14T10:37:45Z</time>
      </trkpt>
      <trkpt lat="42.2518520" lon="1.8016110">
        <ele>1247.2</ele>
        <time>2015-08-14T10:37:46Z</time>
      </trkpt>
      <trkpt lat="42.2518720" lon="1.8016590">
        <ele>1248.4</ele>
        <time>2015-08-14T10:37:47Z</time>
      </trkpt>
      <trkpt lat="42.2518680" lon="1.8017450">
        <ele>1248.3</ele>
        <time>2015-08-14T10:37:49Z</time>
      </trkpt>
      <trkpt lat="42.2519010" lon="1.8017640">
        <ele>1250.3</ele>
        <time>2015-08-14T10:37:50Z</time>
      </trkpt>
      <trkpt lat="42.2518670" lon="1.8017820">
        <ele>1248.2</ele>
        <time>2015-08-14T10:37:51Z</time>
      </trkpt>
      <trkpt lat="42.2519000" lon="1.8018530">
        <ele>1250.3</ele>
        <time>2015-08-14T10:37:53Z</time>
      </trkpt>
      <trkpt lat="42.2518780" lon="1.8019100">
        <ele>1249.0</ele>
        <time>2015-08-14T10:37:54Z</time>
      </trkpt>
      <trkpt lat="42.2518790" lon="1.8019730">
        <ele>1249.1</ele>
        <time>2015-08-14T10:37:56Z</time>
      </trkpt>
      <trkpt lat="42.2518990" lon="1.8020120">
        <ele>1250.4</ele>
        <time>2015-08-14T10:37:57Z</time>
      </trkpt>
      <trkpt lat="42.2519050" lon="1.8020720">
        <ele>1250.9</ele>
        <time>2015-08-14T10:37:59Z</time>
      </trkpt>
      <trkpt lat="42.2519200" lon="1.8021220">
        <ele>1252.2</ele>
        <time>2015-08-14T10:38:00Z</time>
      </trkpt>
      <trkpt lat="42.2519310" lon="1.8021840">
        <ele>1253.4</ele>
        <time>2015-08-14T10:38:02Z</time>
      </trkpt>
      <trkpt lat="42.2519140" lon="1.8022220">
        <ele>1252.8</ele>
        <time>2015-08-14T10:38:03Z</time>
      </trkpt>
      <trkpt lat="42.2519290" lon="1.8022650">
        <ele>1254.1</ele>
        <time>2015-08-14T10:38:05Z</time>
      </trkpt>
      <trkpt lat="42.2519410" lon="1.8023160">
        <ele>1255.2</ele>
        <time>2015-08-14T10:38:07Z</time>
      </trkpt>
      <trkpt lat="42.2519420" lon="1.8023630">
        <ele>1255.7</ele>
        <time>2015-08-14T10:38:08Z</time>
      </trkpt>
      <trkpt lat="42.2518950" lon="1.8024150">
        <ele>1253.8</ele>
        <time>2015-08-14T10:38:10Z</time>
      </trkpt>
      <trkpt lat="42.2518680" lon="1.8024880">
        <ele>1253.3</ele>
        <time>2015-08-14T10:38:12Z</time>
      </trkpt>
      <trkpt lat="42.2518880" lon="1.8025420">
        <ele>1254.8</ele>
        <time>2015-08-14T10:38:14Z</time>
      </trkpt>
      <trkpt lat="42.2519090" lon="1.8025790">
        <ele>1256.1</ele>
        <time>2015-08-14T10:38:15Z</time>
      </trkpt>
      <trkpt lat="42.2519210" lon="1.8026620">
        <ele>1257.5</ele>
        <time>2015-08-14T10:38:17Z</time>
      </trkpt>
      <trkpt lat="42.2519270" lon="1.8027030">
        <ele>1258.1</ele>
        <time>2015-08-14T10:38:18Z</time>
      </trkpt>
      <trkpt lat="42.2519020" lon="1.8027590">
        <ele>1257.7</ele>
        <time>2015-08-14T10:38:20Z</time>
      </trkpt>
      <trkpt lat="42.2518750" lon="1.8028020">
        <ele>1257.2</ele>
        <time>2015-08-14T10:38:22Z</time>
      </trkpt>
      <trkpt lat="42.2518670" lon="1.8028610">
        <ele>1257.6</ele>
        <time>2015-08-14T10:38:24Z</time>
      </trkpt>
      <trkpt lat="42.2518220" lon="1.8029010">
        <ele>1256.6</ele>
        <time>2015-08-14T10:38:26Z</time>
      </trkpt>
      <trkpt lat="42.2517980" lon="1.8029560">
        <ele>1257.1</ele>
        <time>2015-08-14T10:38:28Z</time>
      </trkpt>
      <trkpt lat="42.2517780" lon="1.8029950">
        <ele>1257.6</ele>
        <time>2015-08-14T10:38:30Z</time>
      </trkpt>
      <trkpt lat="42.2517670" lon="1.8030610">
        <ele>1259.0</ele>
        <time>2015-08-14T10:38:32Z</time>
      </trkpt>
      <trkpt lat="42.2517690" lon="1.8031190">
        <ele>1260.6</ele>
        <time>2015-08-14T10:38:34Z</time>
      </trkpt>
      <trkpt lat="42.2517410" lon="1.8031730">
        <ele>1261.4</ele>
        <time>2015-08-14T10:38:36Z</time>
      </trkpt>
      <trkpt lat="42.2517440" lon="1.8032130">
        <ele>1262.6</ele>
        <time>2015-08-14T10:38:38Z</time>
      </trkpt>
      <trkpt lat="42.2517370" lon="1.8032570">
        <ele>1263.6</ele>
        <time>2015-08-14T10:38:40Z</time>
      </trkpt>
      <trkpt lat="42.2517220" lon="1.8032970">
        <ele>1264.4</ele>
        <time>2015-08-14T10:38:42Z</time>
      </trkpt>
      <trkpt lat="42.2517070" lon="1.8033530">
        <ele>1265.7</ele>
        <time>2015-08-14T10:38:44Z</time>
      </trkpt>
      <trkpt lat="42.2516910" lon="1.8034140">
        <ele>1267.1</ele>
        <time>2015-08-14T10:38:46Z</time>
      </trkpt>
      <trkpt lat="42.2516790" lon="1.8034500">
        <ele>1267.9</ele>
        <time>2015-08-14T10:38:47Z</time>
      </trkpt>
      <trkpt lat="42.2516640" lon="1.8035150">
        <ele>1269.5</ele>
        <time>2015-08-14T10:38:49Z</time>
      </trkpt>
      <trkpt lat="42.2516530" lon="1.8035790">
        <ele>1271.3</ele>
        <time>2015-08-14T10:38:51Z</time>
      </trkpt>
      <trkpt lat="42.2516510" lon="1.8036180">
        <ele>1272.4</ele>
        <time>2015-08-14T10:38:53Z</time>
      </trkpt>
      <trkpt lat="42.2516500" lon="1.8036640">
        <ele>1273.8</ele>
        <time>2015-08-14T10:38:55Z</time>
      </trkpt>
      <trkpt lat="42.2516350" lon="1.8036980">
        <ele>1274.6</ele>
        <time>2015-08-14T10:38:57Z</time>
      </trkpt>
      <trkpt lat="42.2516160" lon="1.8037330">
        <ele>1275.4</ele>
        <time>2015-08-14T10:38:59Z</time>
      </trkpt>
      <trkpt lat="42.2515800" lon="1.8037740">
        <ele>1276.5</ele>
        <time>2015-08-14T10:39:01Z</time>
      </trkpt>
      <trkpt lat="42.2515240" lon="1.8037990">
        <ele>1276.9</ele>
        <time>2015-08-14T10:39:03Z</time>
      </trkpt>
      <trkpt lat="42.2514700" lon="1.8038110">
        <ele>1276.8</ele>
        <time>2015-08-14T10:39:05Z</time>
      </trkpt>
      <trkpt lat="42.2514280" lon="1.8038210">
        <ele>1276.8</ele>
        <time>2015-08-14T10:39:07Z</time>
      </trkpt>
      <trkpt lat="42.2513820" lon="1.8038360">
        <ele>1276.9</ele>
        <time>2015-08-14T10:39:09Z</time>
      </trkpt>
      <trkpt lat="42.2513390" lon="1.8038440">
        <ele>1276.8</ele>
        <time>2015-08-14T10:39:11Z</time>
      </trkpt>
      <trkpt lat="42.2512960" lon="1.8038080">
        <ele>1274.9</ele>
        <time>2015-08-14T10:39:13Z</time>
      </trkpt>
      <trkpt lat="42.2512470" lon="1.8037830">
        <ele>1273.3</ele>
        <time>2015-08-14T10:39:15Z</time>
      </trkpt>
      <trkpt lat="42.2512130" lon="1.8037860">
        <ele>1272.8</ele>
        <time>2015-08-14T10:39:17Z</time>
      </trkpt>
      <trkpt lat="42.2511650" lon="1.8037860">
        <ele>1271.9</ele>
        <time>2015-08-14T10:39:19Z</time>
      </trkpt>
      <trkpt lat="42.2511380" lon="1.8037630">
        <ele>1270.5</ele>
        <time>2015-08-14T10:39:21Z</time>
      </trkpt>
      <trkpt lat="42.2511090" lon="1.8037190">
        <ele>1268.2</ele>
        <time>2015-08-14T10:39:23Z</time>
      </trkpt>
      <trkpt lat="42.2510810" lon="1.8036760">
        <ele>1265.9</ele>
        <time>2015-08-14T10:39:26Z</time>
      </trkpt>
      <trkpt lat="42.2510340" lon="1.8036910">
        <ele>1265.7</ele>
        <time>2015-08-14T10:39:29Z</time>
      </trkpt>
      <trkpt lat="42.2509740" lon="1.8036730">
        <ele>1263.8</ele>
        <time>2015-08-14T10:39:31Z</time>
      </trkpt>
      <trkpt lat="42.2509460" lon="1.8036740">
        <ele>1263.3</ele>
        <time>2015-08-14T10:39:32Z</time>
      </trkpt>
      <trkpt lat="42.2509160" lon="1.8036490">
        <ele>1261.7</ele>
        <time>2015-08-14T10:39:34Z</time>
      </trkpt>
      <trkpt lat="42.2508890" lon="1.8036390">
        <ele>1260.8</ele>
        <time>2015-08-14T10:39:35Z</time>
      </trkpt>
      <trkpt lat="42.2508540" lon="1.8036350">
        <ele>1259.9</ele>
        <time>2015-08-14T10:39:38Z</time>
      </trkpt>
      <trkpt lat="42.2508260" lon="1.8036290">
        <ele>1259.1</ele>
        <time>2015-08-14T10:39:40Z</time>
      </trkpt>
      <trkpt lat="42.2507970" lon="1.8036230">
        <ele>1258.3</ele>
        <time>2015-08-14T10:39:42Z</time>
      </trkpt>
      <trkpt lat="42.2507610" lon="1.8036150">
        <ele>1257.3</ele>
        <time>2015-08-14T10:39:44Z</time>
      </trkpt>
      <trkpt lat="42.2507350" lon="1.8035850">
        <ele>1255.5</ele>
        <time>2015-08-14T10:39:46Z</time>
      </trkpt>
      <trkpt lat="42.2507060" lon="1.8035700">
        <ele>1254.2</ele>
        <time>2015-08-14T10:39:48Z</time>
      </trkpt>
      <trkpt lat="42.2506710" lon="1.8035500">
        <ele>1252.7</ele>
        <time>2015-08-14T10:39:50Z</time>
      </trkpt>
      <trkpt lat="42.2506290" lon="1.8035410">
        <ele>1251.4</ele>
        <time>2015-08-14T10:39:52Z</time>
      </trkpt>
      <trkpt lat="42.2505970" lon="1.8035220">
        <ele>1249.9</ele>
        <time>2015-08-14T10:39:54Z</time>
      </trkpt>
      <trkpt lat="42.2505600" lon="1.8035360">
        <ele>1249.8</ele>
        <time>2015-08-14T10:39:56Z</time>
      </trkpt>
      <trkpt lat="42.2505200" lon="1.8035370">
        <ele>1249.1</ele>
        <time>2015-08-14T10:39:58Z</time>
      </trkpt>
      <trkpt lat="42.2504920" lon="1.8035400">
        <ele>1248.7</ele>
        <time>2015-08-14T10:40:00Z</time>
      </trkpt>
      <trkpt lat="42.2504560" lon="1.8035260">
        <ele>1247.3</ele>
        <time>2015-08-14T10:40:02Z</time>
      </trkpt>
      <trkpt lat="42.2504040" lon="1.8035420">
        <ele>1246.4</ele>
        <time>2015-08-14T10:40:04Z</time>
      </trkpt>
      <trkpt lat="42.2503650" lon="1.8035460">
        <ele>1243.9</ele>
        <time>2015-08-14T10:40:06Z</time>
      </trkpt>
      <trkpt lat="42.2503290" lon="1.8035470">
        <ele>1241.5</ele>
        <time>2015-08-14T10:40:08Z</time>
      </trkpt>
      <trkpt lat="42.2502960" lon="1.8035640">
        <ele>1240.1</ele>
        <time>2015-08-14T10:40:10Z</time>
      </trkpt>
      <trkpt lat="42.2502700" lon="1.8035810">
        <ele>1239.0</ele>
        <time>2015-08-14T10:40:12Z</time>
      </trkpt>
      <trkpt lat="42.2502480" lon="1.8036060">
        <ele>1238.6</ele>
        <time>2015-08-14T10:40:14Z</time>
      </trkpt>
      <trkpt lat="42.2502220" lon="1.8036330">
        <ele>1238.0</ele>
        <time>2015-08-14T10:40:16Z</time>
      </trkpt>
      <trkpt lat="42.2502160" lon="1.8036860">
        <ele>1239.8</ele>
        <time>2015-08-14T10:40:18Z</time>
      </trkpt>
      <trkpt lat="42.2501890" lon="1.8037240">
        <ele>1239.5</ele>
        <time>2015-08-14T10:40:20Z</time>
      </trkpt>
      <trkpt lat="42.2501600" lon="1.8037760">
        <ele>1239.2</ele>
        <time>2015-08-14T10:40:22Z</time>
      </trkpt>
      <trkpt lat="42.2501510" lon="1.8038120">
        <ele>1239.4</ele>
        <time>2015-08-14T10:40:23Z</time>
      </trkpt>
      <trkpt lat="42.2501250" lon="1.8038620">
        <ele>1238.7</ele>
        <time>2015-08-14T10:40:25Z</time>
      </trkpt>
      <trkpt lat="42.2501170" lon="1.8038980">
        <ele>1239.0</ele>
        <time>2015-08-14T10:40:26Z</time>
      </trkpt>
      <trkpt lat="42.2500930" lon="1.8039210">
        <ele>1237.9</ele>
        <time>2015-08-14T10:40:28Z</time>
      </trkpt>
      <trkpt lat="42.2500730" lon="1.8039740">
        <ele>1237.7</ele>
        <time>2015-08-14T10:40:30Z</time>
      </trkpt>
      <trkpt lat="42.2500480" lon="1.8040280">
        <ele>1237.3</ele>
        <time>2015-08-14T10:40:32Z</time>
      </trkpt>
      <trkpt lat="42.2500410" lon="1.8040650">
        <ele>1237.7</ele>
        <time>2015-08-14T10:40:34Z</time>
      </trkpt>
      <trkpt lat="42.2500220" lon="1.8041190">
        <ele>1237.6</ele>
        <time>2015-08-14T10:40:36Z</time>
      </trkpt>
      <trkpt lat="42.2500070" lon="1.8041750">
        <ele>1238.0</ele>
        <time>2015-08-14T10:40:38Z</time>
      </trkpt>
      <trkpt lat="42.2499860" lon="1.8042300">
        <ele>1237.8</ele>
        <time>2015-08-14T10:40:40Z</time>
      </trkpt>
      <trkpt lat="42.2499870" lon="1.8042900">
        <ele>1239.4</ele>
        <time>2015-08-14T10:40:42Z</time>
      </trkpt>
      <trkpt lat="42.2499740" lon="1.8043410">
        <ele>1239.7</ele>
        <time>2015-08-14T10:40:44Z</time>
      </trkpt>
      <trkpt lat="42.2499680" lon="1.8043940">
        <ele>1240.6</ele>
        <time>2015-08-14T10:40:46Z</time>
      </trkpt>
      <trkpt lat="42.2499730" lon="1.8044440">
        <ele>1242.2</ele>
        <time>2015-08-14T10:40:48Z</time>
      </trkpt>
      <trkpt lat="42.2500040" lon="1.8045130">
        <ele>1246.1</ele>
        <time>2015-08-14T10:40:52Z</time>
      </trkpt>
      <trkpt lat="42.2500200" lon="1.8045490">
        <ele>1248.1</ele>
        <time>2015-08-14T10:40:54Z</time>
      </trkpt>
      <trkpt lat="42.2500440" lon="1.8045960">
        <ele>1250.9</ele>
        <time>2015-08-14T10:40:56Z</time>
      </trkpt>
      <trkpt lat="42.2500720" lon="1.8046340">
        <ele>1253.5</ele>
        <time>2015-08-14T10:40:58Z</time>
      </trkpt>
      <trkpt lat="42.2500870" lon="1.8046790">
        <ele>1255.3</ele>
        <time>2015-08-14T10:41:01Z</time>
      </trkpt>
      <trkpt lat="42.2501150" lon="1.8046990">
        <ele>1257.6</ele>
        <time>2015-08-14T10:41:03Z</time>
      </trkpt>
      <trkpt lat="42.2501010" lon="1.8047330">
        <ele>1257.2</ele>
        <time>2015-08-14T10:41:04Z</time>
      </trkpt>
      <trkpt lat="42.2501150" lon="1.8047790">
        <ele>1258.9</ele>
        <time>2015-08-14T10:41:06Z</time>
      </trkpt>
      <trkpt lat="42.2501260" lon="1.8048360">
        <ele>1260.6</ele>
        <time>2015-08-14T10:41:08Z</time>
      </trkpt>
      <trkpt lat="42.2501090" lon="1.8048690">
        <ele>1260.0</ele>
        <time>2015-08-14T10:41:10Z</time>
      </trkpt>
      <trkpt lat="42.2501090" lon="1.8049110">
        <ele>1260.7</ele>
        <time>2015-08-14T10:41:11Z</time>
      </trkpt>
      <trkpt lat="42.2501270" lon="1.8049510">
        <ele>1262.5</ele>
        <time>2015-08-14T10:41:12Z</time>
      </trkpt>
      <trkpt lat="42.2501410" lon="1.8050030">
        <ele>1264.2</ele>
        <time>2015-08-14T10:41:14Z</time>
      </trkpt>
      <trkpt lat="42.2501500" lon="1.8050380">
        <ele>1265.3</ele>
        <time>2015-08-14T10:41:15Z</time>
      </trkpt>
      <trkpt lat="42.2501770" lon="1.8050960">
        <ele>1267.7</ele>
        <time>2015-08-14T10:41:17Z</time>
      </trkpt>
      <trkpt lat="42.2501690" lon="1.8051470">
        <ele>1268.0</ele>
        <time>2015-08-14T10:41:21Z</time>
      </trkpt>
      <trkpt lat="42.2501880" lon="1.8051770">
        <ele>1269.5</ele>
        <time>2015-08-14T10:41:22Z</time>
      </trkpt>
      <trkpt lat="42.2502040" lon="1.8052330">
        <ele>1271.2</ele>
        <time>2015-08-14T10:41:24Z</time>
      </trkpt>
      <trkpt lat="42.2502120" lon="1.8052720">
        <ele>1272.2</ele>
        <time>2015-08-14T10:41:25Z</time>
      </trkpt>
      <trkpt lat="42.2502220" lon="1.8053070">
        <ele>1273.2</ele>
        <time>2015-08-14T10:41:26Z</time>
      </trkpt>
      <trkpt lat="42.2502400" lon="1.8053830">
        <ele>1275.1</ele>
        <time>2015-08-14T10:41:28Z</time>
      </trkpt>
      <trkpt lat="42.2502340" lon="1.8054240">
        <ele>1275.3</ele>
        <time>2015-08-14T10:41:29Z</time>
      </trkpt>
      <trkpt lat="42.2502440" lon="1.8054610">
        <ele>1276.3</ele>
        <time>2015-08-14T10:41:30Z</time>
      </trkpt>
      <trkpt lat="42.2502480" lon="1.8055290">
        <ele>1277.5</ele>
        <time>2015-08-14T10:41:32Z</time>
      </trkpt>
      <trkpt lat="42.2502610" lon="1.8055680">
        <ele>1278.6</ele>
        <time>2015-08-14T10:41:33Z</time>
      </trkpt>
      <trkpt lat="42.2502770" lon="1.8056340">
        <ele>1280.0</ele>
        <time>2015-08-14T10:41:35Z</time>
      </trkpt>
      <trkpt lat="42.2502920" lon="1.8056900">
        <ele>1281.3</ele>
        <time>2015-08-14T10:41:37Z</time>
      </trkpt>
      <trkpt lat="42.2503250" lon="1.8057360">
        <ele>1282.9</ele>
        <time>2015-08-14T10:41:39Z</time>
      </trkpt>
      <trkpt lat="42.2503450" lon="1.8057640">
        <ele>1283.8</ele>
        <time>2015-08-14T10:41:40Z</time>
      </trkpt>
      <trkpt lat="42.2503690" lon="1.8058130">
        <ele>1285.0</ele>
        <time>2015-08-14T10:41:42Z</time>
      </trkpt>
      <trkpt lat="42.2503730" lon="1.8058720">
        <ele>1285.6</ele>
        <time>2015-08-14T10:41:44Z</time>
      </trkpt>
      <trkpt lat="42.2503910" lon="1.8059200">
        <ele>1286.4</ele>
        <time>2015-08-14T10:41:46Z</time>
      </trkpt>
      <trkpt lat="42.2504150" lon="1.8059540">
        <ele>1287.2</ele>
        <time>2015-08-14T10:41:48Z</time>
      </trkpt>
      <trkpt lat="42.2504440" lon="1.8059730">
        <ele>1288.5</ele>
        <time>2015-08-14T10:41:50Z</time>
      </trkpt>
      <trkpt lat="42.2504640" lon="1.8060120">
        <ele>1289.6</ele>
        <time>2015-08-14T10:41:52Z</time>
      </trkpt>
      <trkpt lat="42.2504960" lon="1.8060410">
        <ele>1291.1</ele>
        <time>2015-08-14T10:41:54Z</time>
      </trkpt>
      <trkpt lat="42.2505130" lon="1.8060790">
        <ele>1292.0</ele>
        <time>2015-08-14T10:41:55Z</time>
      </trkpt>
      <trkpt lat="42.2505350" lon="1.8061150">
        <ele>1293.1</ele>
        <time>2015-08-14T10:41:57Z</time>
      </trkpt>
      <trkpt lat="42.2505600" lon="1.8061320">
        <ele>1294.2</ele>
        <time>2015-08-14T10:41:58Z</time>
      </trkpt>
      <trkpt lat="42.2505850" lon="1.8061550">
        <ele>1295.3</ele>
        <time>2015-08-14T10:42:00Z</time>
      </trkpt>
      <trkpt lat="42.2506530" lon="1.8061810">
        <ele>1298.2</ele>
        <time>2015-08-14T10:42:03Z</time>
      </trkpt>
      <trkpt lat="42.2506480" lon="1.8063000">
        <ele>1298.9</ele>
        <time>2015-08-14T10:42:05Z</time>
      </trkpt>
      <trkpt lat="42.2506780" lon="1.8062990">
        <ele>1300.0</ele>
        <time>2015-08-14T10:42:08Z</time>
      </trkpt>
      <trkpt lat="42.2506470" lon="1.8063150">
        <ele>1299.1</ele>
        <time>2015-08-14T10:42:09Z</time>
      </trkpt>
      <trkpt lat="42.2506250" lon="1.8063370">
        <ele>1298.6</ele>
        <time>2015-08-14T10:42:11Z</time>
      </trkpt>
      <trkpt lat="42.2505610" lon="1.8063760">
        <ele>1296.8</ele>
        <time>2015-08-14T10:42:13Z</time>
      </trkpt>
      <trkpt lat="42.2505170" lon="1.8063850">
        <ele>1295.3</ele>
        <time>2015-08-14T10:42:15Z</time>
      </trkpt>
      <trkpt lat="42.2504690" lon="1.8063930">
        <ele>1293.7</ele>
        <time>2015-08-14T10:42:17Z</time>
      </trkpt>
      <trkpt lat="42.2504370" lon="1.8064120">
        <ele>1292.9</ele>
        <time>2015-08-14T10:42:18Z</time>
      </trkpt>
      <trkpt lat="42.2504070" lon="1.8064290">
        <ele>1292.4</ele>
        <time>2015-08-14T10:42:19Z</time>
      </trkpt>
      <trkpt lat="42.2504190" lon="1.8064790">
        <ele>1293.5</ele>
        <time>2015-08-14T10:42:20Z</time>
      </trkpt>
      <trkpt lat="42.2503910" lon="1.8065050">
        <ele>1293.8</ele>
        <time>2015-08-14T10:42:22Z</time>
      </trkpt>
      <trkpt lat="42.2503650" lon="1.8065420">
        <ele>1294.5</ele>
        <time>2015-08-14T10:42:24Z</time>
      </trkpt>
      <trkpt lat="42.2503340" lon="1.8065530">
        <ele>1294.7</ele>
        <time>2015-08-14T10:42:25Z</time>
      </trkpt>
      <trkpt lat="42.2503090" lon="1.8065710">
        <ele>1295.1</ele>
        <time>2015-08-14T10:42:26Z</time>
      </trkpt>
      <trkpt lat="42.2502700" lon="1.8065860">
        <ele>1295.4</ele>
        <time>2015-08-14T10:42:28Z</time>
      </trkpt>
      <trkpt lat="42.2502410" lon="1.8066130">
        <ele>1296.1</ele>
        <time>2015-08-14T10:42:30Z</time>
      </trkpt>
      <trkpt lat="42.2502050" lon="1.8066430">
        <ele>1296.8</ele>
        <time>2015-08-14T10:42:33Z</time>
      </trkpt>
      <trkpt lat="42.2501780" lon="1.8066570">
        <ele>1297.2</ele>
        <time>2015-08-14T10:42:34Z</time>
      </trkpt>
      <trkpt lat="42.2501490" lon="1.8066920">
        <ele>1298.1</ele>
        <time>2015-08-14T10:42:36Z</time>
      </trkpt>
      <trkpt lat="42.2501310" lon="1.8067260">
        <ele>1299.1</ele>
        <time>2015-08-14T10:42:37Z</time>
      </trkpt>
      <trkpt lat="42.2500860" lon="1.8067520">
        <ele>1299.9</ele>
        <time>2015-08-14T10:42:39Z</time>
      </trkpt>
      <trkpt lat="42.2500500" lon="1.8067880">
        <ele>1301.1</ele>
        <time>2015-08-14T10:42:41Z</time>
      </trkpt>
      <trkpt lat="42.2500100" lon="1.8068260">
        <ele>1302.4</ele>
        <time>2015-08-14T10:42:43Z</time>
      </trkpt>
      <trkpt lat="42.2499740" lon="1.8068340">
        <ele>1302.8</ele>
        <time>2015-08-14T10:42:45Z</time>
      </trkpt>
      <trkpt lat="42.2499380" lon="1.8068580">
        <ele>1303.8</ele>
        <time>2015-08-14T10:42:47Z</time>
      </trkpt>
      <trkpt lat="42.2498940" lon="1.8068640">
        <ele>1304.3</ele>
        <time>2015-08-14T10:42:49Z</time>
      </trkpt>
      <trkpt lat="42.2498650" lon="1.8068780">
        <ele>1304.9</ele>
        <time>2015-08-14T10:42:51Z</time>
      </trkpt>
      <trkpt lat="42.2498160" lon="1.8069000">
        <ele>1306.0</ele>
        <time>2015-08-14T10:42:54Z</time>
      </trkpt>
      <trkpt lat="42.2497630" lon="1.8069180">
        <ele>1307.0</ele>
        <time>2015-08-14T10:42:56Z</time>
      </trkpt>
      <trkpt lat="42.2497160" lon="1.8069170">
        <ele>1307.4</ele>
        <time>2015-08-14T10:42:58Z</time>
      </trkpt>
      <trkpt lat="42.2496750" lon="1.8069080">
        <ele>1307.4</ele>
        <time>2015-08-14T10:43:00Z</time>
      </trkpt>
      <trkpt lat="42.2496490" lon="1.8068920">
        <ele>1306.9</ele>
        <time>2015-08-14T10:43:01Z</time>
      </trkpt>
      <trkpt lat="42.2496120" lon="1.8068870">
        <ele>1307.0</ele>
        <time>2015-08-14T10:43:03Z</time>
      </trkpt>
      <trkpt lat="42.2495750" lon="1.8068840">
        <ele>1306.9</ele>
        <time>2015-08-14T10:43:05Z</time>
      </trkpt>
      <trkpt lat="42.2495480" lon="1.8068800">
        <ele>1306.2</ele>
        <time>2015-08-14T10:43:06Z</time>
      </trkpt>
      <trkpt lat="42.2495170" lon="1.8068780">
        <ele>1305.5</ele>
        <time>2015-08-14T10:43:07Z</time>
      </trkpt>
      <trkpt lat="42.2494900" lon="1.8068760">
        <ele>1304.9</ele>
        <time>2015-08-14T10:43:08Z</time>
      </trkpt>
      <trkpt lat="42.2494690" lon="1.8068470">
        <ele>1303.3</ele>
        <time>2015-08-14T10:43:09Z</time>
      </trkpt>
      <trkpt lat="42.2494230" lon="1.8068540">
        <ele>1302.7</ele>
        <time>2015-08-14T10:43:11Z</time>
      </trkpt>
      <trkpt lat="42.2493850" lon="1.8068440">
        <ele>1301.5</ele>
        <time>2015-08-14T10:43:13Z</time>
      </trkpt>
      <trkpt lat="42.2493490" lon="1.8068340">
        <ele>1300.4</ele>
        <time>2015-08-14T10:43:15Z</time>
      </trkpt>
      <trkpt lat="42.2493150" lon="1.8068240">
        <ele>1299.3</ele>
        <time>2015-08-14T10:43:17Z</time>
      </trkpt>
      <trkpt lat="42.2492780" lon="1.8068200">
        <ele>1298.4</ele>
        <time>2015-08-14T10:43:22Z</time>
      </trkpt>
      <trkpt lat="42.2492460" lon="1.8068030">
        <ele>1297.0</ele>
        <time>2015-08-14T10:43:25Z</time>
      </trkpt>
      <trkpt lat="42.2492190" lon="1.8067900">
        <ele>1295.9</ele>
        <time>2015-08-14T10:43:28Z</time>
      </trkpt>
      <trkpt lat="42.2491850" lon="1.8067870">
        <ele>1295.1</ele>
        <time>2015-08-14T10:43:32Z</time>
      </trkpt>
      <trkpt lat="42.2491560" lon="1.8067580">
        <ele>1293.3</ele>
        <time>2015-08-14T10:43:34Z</time>
      </trkpt>
      <trkpt lat="42.2491040" lon="1.8067400">
        <ele>1291.5</ele>
        <time>2015-08-14T10:43:36Z</time>
      </trkpt>
      <trkpt lat="42.2490610" lon="1.8067290">
        <ele>1290.1</ele>
        <time>2015-08-14T10:43:38Z</time>
      </trkpt>
      <trkpt lat="42.2490270" lon="1.8067240">
        <ele>1289.2</ele>
        <time>2015-08-14T10:43:40Z</time>
      </trkpt>
      <trkpt lat="42.2489910" lon="1.8066830">
        <ele>1286.7</ele>
        <time>2015-08-14T10:43:42Z</time>
      </trkpt>
      <trkpt lat="42.2489550" lon="1.8066790">
        <ele>1285.8</ele>
        <time>2015-08-14T10:43:44Z</time>
      </trkpt>
      <trkpt lat="42.2489270" lon="1.8066450">
        <ele>1283.8</ele>
        <time>2015-08-14T10:43:46Z</time>
      </trkpt>
      <trkpt lat="42.2488840" lon="1.8066230">
        <ele>1282.0</ele>
        <time>2015-08-14T10:43:48Z</time>
      </trkpt>
      <trkpt lat="42.2488500" lon="1.8066120">
        <ele>1280.8</ele>
        <time>2015-08-14T10:43:50Z</time>
      </trkpt>
      <trkpt lat="42.2488120" lon="1.8066030">
        <ele>1279.6</ele>
        <time>2015-08-14T10:43:52Z</time>
      </trkpt>
      <trkpt lat="42.2487710" lon="1.8066100">
        <ele>1279.0</ele>
        <time>2015-08-14T10:43:54Z</time>
      </trkpt>
      <trkpt lat="42.2487300" lon="1.8066230">
        <ele>1278.5</ele>
        <time>2015-08-14T10:43:56Z</time>
      </trkpt>
      <trkpt lat="42.2486930" lon="1.8066240">
        <ele>1277.4</ele>
        <time>2015-08-14T10:43:58Z</time>
      </trkpt>
      <trkpt lat="42.2486630" lon="1.8066440">
        <ele>1277.3</ele>
        <time>2015-08-14T10:44:00Z</time>
      </trkpt>
      <trkpt lat="42.2486380" lon="1.8066730">
        <ele>1277.7</ele>
        <time>2015-08-14T10:44:02Z</time>
      </trkpt>
      <trkpt lat="42.2486130" lon="1.8067020">
        <ele>1278.1</ele>
        <time>2015-08-14T10:44:04Z</time>
      </trkpt>
      <trkpt lat="42.2485690" lon="1.8067440">
        <ele>1278.2</ele>
        <time>2015-08-14T10:44:06Z</time>
      </trkpt>
      <trkpt lat="42.2485500" lon="1.8067840">
        <ele>1279.1</ele>
        <time>2015-08-14T10:44:08Z</time>
      </trkpt>
      <trkpt lat="42.2485280" lon="1.8068290">
        <ele>1280.1</ele>
        <time>2015-08-14T10:44:10Z</time>
      </trkpt>
      <trkpt lat="42.2484830" lon="1.8068520">
        <ele>1279.3</ele>
        <time>2015-08-14T10:44:12Z</time>
      </trkpt>
      <trkpt lat="42.2484460" lon="1.8068710">
        <ele>1278.6</ele>
        <time>2015-08-14T10:44:14Z</time>
      </trkpt>
      <trkpt lat="42.2484120" lon="1.8069030">
        <ele>1278.5</ele>
        <time>2015-08-14T10:44:16Z</time>
      </trkpt>
      <trkpt lat="42.2483870" lon="1.8069260">
        <ele>1278.4</ele>
        <time>2015-08-14T10:44:18Z</time>
      </trkpt>
      <trkpt lat="42.2483510" lon="1.8069430">
        <ele>1277.6</ele>
        <time>2015-08-14T10:44:20Z</time>
      </trkpt>
      <trkpt lat="42.2483120" lon="1.8069770">
        <ele>1277.2</ele>
        <time>2015-08-14T10:44:22Z</time>
      </trkpt>
      <trkpt lat="42.2482870" lon="1.8070290">
        <ele>1277.8</ele>
        <time>2015-08-14T10:44:24Z</time>
      </trkpt>
      <trkpt lat="42.2482550" lon="1.8070880">
        <ele>1278.3</ele>
        <time>2015-08-14T10:44:26Z</time>
      </trkpt>
      <trkpt lat="42.2482430" lon="1.8071320">
        <ele>1278.4</ele>
        <time>2015-08-14T10:44:27Z</time>
      </trkpt>
      <trkpt lat="42.2482260" lon="1.8071740">
        <ele>1278.2</ele>
        <time>2015-08-14T10:44:28Z</time>
      </trkpt>
      <trkpt lat="42.2482310" lon="1.8072200">
        <ele>1279.1</ele>
        <time>2015-08-14T10:44:31Z</time>
      </trkpt>
      <trkpt lat="42.2482260" lon="1.8072770">
        <ele>1279.6</ele>
        <time>2015-08-14T10:44:32Z</time>
      </trkpt>
      <trkpt lat="42.2482240" lon="1.8073650">
        <ele>1280.7</ele>
        <time>2015-08-14T10:44:34Z</time>
      </trkpt>
      <trkpt lat="42.2482050" lon="1.8073980">
        <ele>1280.2</ele>
        <time>2015-08-14T10:44:35Z</time>
      </trkpt>
      <trkpt lat="42.2482090" lon="1.8074390">
        <ele>1280.9</ele>
        <time>2015-08-14T10:44:36Z</time>
      </trkpt>
      <trkpt lat="42.2481760" lon="1.8074590">
        <ele>1279.6</ele>
        <time>2015-08-14T10:44:37Z</time>
      </trkpt>
      <trkpt lat="42.2481700" lon="1.8075010">
        <ele>1279.8</ele>
        <time>2015-08-14T10:44:38Z</time>
      </trkpt>
      <trkpt lat="42.2481740" lon="1.8075520">
        <ele>1280.6</ele>
        <time>2015-08-14T10:44:39Z</time>
      </trkpt>
      <trkpt lat="42.2481740" lon="1.8075890">
        <ele>1281.1</ele>
        <time>2015-08-14T10:44:40Z</time>
      </trkpt>
      <trkpt lat="42.2481880" lon="1.8076200">
        <ele>1282.2</ele>
        <time>2015-08-14T10:44:41Z</time>
      </trkpt>
      <trkpt lat="42.2481910" lon="1.8076760">
        <ele>1283.1</ele>
        <time>2015-08-14T10:44:43Z</time>
      </trkpt>
      <trkpt lat="42.2481900" lon="1.8077300">
        <ele>1283.7</ele>
        <time>2015-08-14T10:44:45Z</time>
      </trkpt>
      <trkpt lat="42.2481750" lon="1.8077710">
        <ele>1283.4</ele>
        <time>2015-08-14T10:44:47Z</time>
      </trkpt>
      <trkpt lat="42.2481790" lon="1.8078210">
        <ele>1284.2</ele>
        <time>2015-08-14T10:44:50Z</time>
      </trkpt>
      <trkpt lat="42.2481880" lon="1.8078630">
        <ele>1285.3</ele>
        <time>2015-08-14T10:44:52Z</time>
      </trkpt>
      <trkpt lat="42.2481910" lon="1.8079030">
        <ele>1286.0</ele>
        <time>2015-08-14T10:44:54Z</time>
      </trkpt>
      <trkpt lat="42.2482050" lon="1.8079340">
        <ele>1287.1</ele>
        <time>2015-08-14T10:44:55Z</time>
      </trkpt>
      <trkpt lat="42.2482260" lon="1.8079980">
        <ele>1288.7</ele>
        <time>2015-08-14T10:44:57Z</time>
      </trkpt>
      <trkpt lat="42.2482340" lon="1.8080480">
        <ele>1289.5</ele>
        <time>2015-08-14T10:44:59Z</time>
      </trkpt>
      <trkpt lat="42.2482360" lon="1.8080850">
        <ele>1289.8</ele>
        <time>2015-08-14T10:45:01Z</time>
      </trkpt>
      <trkpt lat="42.2482340" lon="1.8081350">
        <ele>1290.0</ele>
        <time>2015-08-14T10:45:03Z</time>
      </trkpt>
      <trkpt lat="42.2482370" lon="1.8081940">
        <ele>1290.6</ele>
        <time>2015-08-14T10:45:05Z</time>
      </trkpt>
      <trkpt lat="42.2482440" lon="1.8082660">
        <ele>1291.4</ele>
        <time>2015-08-14T10:45:07Z</time>
      </trkpt>
      <trkpt lat="42.2482580" lon="1.8083070">
        <ele>1292.5</ele>
        <time>2015-08-14T10:45:08Z</time>
      </trkpt>
      <trkpt lat="42.2482630" lon="1.8083720">
        <ele>1293.2</ele>
        <time>2015-08-14T10:45:10Z</time>
      </trkpt>
      <trkpt lat="42.2482760" lon="1.8084370">
        <ele>1294.4</ele>
        <time>2015-08-14T10:45:12Z</time>
      </trkpt>
      <trkpt lat="42.2482880" lon="1.8084740">
        <ele>1295.4</ele>
        <time>2015-08-14T10:45:13Z</time>
      </trkpt>
      <trkpt lat="42.2482870" lon="1.8085370">
        <ele>1295.7</ele>
        <time>2015-08-14T10:45:15Z</time>
      </trkpt>
      <trkpt lat="42.2482950" lon="1.8085970">
        <ele>1296.6</ele>
        <time>2015-08-14T10:45:17Z</time>
      </trkpt>
      <trkpt lat="42.2483060" lon="1.8086610">
        <ele>1297.7</ele>
        <time>2015-08-14T10:45:19Z</time>
      </trkpt>
      <trkpt lat="42.2483190" lon="1.8087080">
        <ele>1298.8</ele>
        <time>2015-08-14T10:45:21Z</time>
      </trkpt>
      <trkpt lat="42.2483530" lon="1.8087660">
        <ele>1301.1</ele>
        <time>2015-08-14T10:45:23Z</time>
      </trkpt>
      <trkpt lat="42.2483740" lon="1.8088210">
        <ele>1302.1</ele>
        <time>2015-08-14T10:45:25Z</time>
      </trkpt>
      <trkpt lat="42.2484050" lon="1.8088730">
        <ele>1303.7</ele>
        <time>2015-08-14T10:45:27Z</time>
      </trkpt>
      <trkpt lat="42.2484340" lon="1.8089020">
        <ele>1305.2</ele>
        <time>2015-08-14T10:45:30Z</time>
      </trkpt>
      <trkpt lat="42.2484480" lon="1.8089370">
        <ele>1305.8</ele>
        <time>2015-08-14T10:45:32Z</time>
      </trkpt>
      <trkpt lat="42.2484820" lon="1.8089520">
        <ele>1307.8</ele>
        <time>2015-08-14T10:45:34Z</time>
      </trkpt>
      <trkpt lat="42.2485190" lon="1.8089770">
        <ele>1309.9</ele>
        <time>2015-08-14T10:45:36Z</time>
      </trkpt>
      <trkpt lat="42.2485460" lon="1.8090070">
        <ele>1311.3</ele>
        <time>2015-08-14T10:45:38Z</time>
      </trkpt>
      <trkpt lat="42.2485820" lon="1.8090340">
        <ele>1313.2</ele>
        <time>2015-08-14T10:45:40Z</time>
      </trkpt>
      <trkpt lat="42.2486160" lon="1.8090570">
        <ele>1315.0</ele>
        <time>2015-08-14T10:45:42Z</time>
      </trkpt>
      <trkpt lat="42.2486490" lon="1.8090730">
        <ele>1316.9</ele>
        <time>2015-08-14T10:45:44Z</time>
      </trkpt>
      <trkpt lat="42.2486800" lon="1.8090920">
        <ele>1318.6</ele>
        <time>2015-08-14T10:45:46Z</time>
      </trkpt>
      <trkpt lat="42.2487120" lon="1.8091260">
        <ele>1320.1</ele>
        <time>2015-08-14T10:45:48Z</time>
      </trkpt>
      <trkpt lat="42.2487370" lon="1.8091410">
        <ele>1321.5</ele>
        <time>2015-08-14T10:45:50Z</time>
      </trkpt>
      <trkpt lat="42.2487640" lon="1.8091580">
        <ele>1322.6</ele>
        <time>2015-08-14T10:45:51Z</time>
      </trkpt>
      <trkpt lat="42.2487850" lon="1.8091980">
        <ele>1323.0</ele>
        <time>2015-08-14T10:45:53Z</time>
      </trkpt>
      <trkpt lat="42.2488170" lon="1.8092280">
        <ele>1323.8</ele>
        <time>2015-08-14T10:45:56Z</time>
      </trkpt>
      <trkpt lat="42.2488510" lon="1.8092500">
        <ele>1324.8</ele>
        <time>2015-08-14T10:45:58Z</time>
      </trkpt>
      <trkpt lat="42.2488760" lon="1.8092710">
        <ele>1325.5</ele>
        <time>2015-08-14T10:46:00Z</time>
      </trkpt>
      <trkpt lat="42.2489020" lon="1.8092840">
        <ele>1326.3</ele>
        <time>2015-08-14T10:46:02Z</time>
      </trkpt>
      <trkpt lat="42.2489300" lon="1.8093190">
        <ele>1326.9</ele>
        <time>2015-08-14T10:46:04Z</time>
      </trkpt>
      <trkpt lat="42.2489560" lon="1.8093340">
        <ele>1327.7</ele>
        <time>2015-08-14T10:46:06Z</time>
      </trkpt>
      <trkpt lat="42.2489970" lon="1.8093590">
        <ele>1328.9</ele>
        <time>2015-08-14T10:46:08Z</time>
      </trkpt>
      <trkpt lat="42.2490410" lon="1.8093850">
        <ele>1330.1</ele>
        <time>2015-08-14T10:46:10Z</time>
      </trkpt>
      <trkpt lat="42.2490820" lon="1.8093860">
        <ele>1331.5</ele>
        <time>2015-08-14T10:46:12Z</time>
      </trkpt>
      <trkpt lat="42.2491140" lon="1.8094010">
        <ele>1332.5</ele>
        <time>2015-08-14T10:46:14Z</time>
      </trkpt>
      <trkpt lat="42.2491500" lon="1.8094020">
        <ele>1333.7</ele>
        <time>2015-08-14T10:46:16Z</time>
      </trkpt>
      <trkpt lat="42.2491850" lon="1.8094120">
        <ele>1334.8</ele>
        <time>2015-08-14T10:46:18Z</time>
      </trkpt>
      <trkpt lat="42.2492280" lon="1.8094440">
        <ele>1335.9</ele>
        <time>2015-08-14T10:46:20Z</time>
      </trkpt>
      <trkpt lat="42.2492560" lon="1.8094640">
        <ele>1336.6</ele>
        <time>2015-08-14T10:46:22Z</time>
      </trkpt>
      <trkpt lat="42.2492930" lon="1.8094870">
        <ele>1337.5</ele>
        <time>2015-08-14T10:46:24Z</time>
      </trkpt>
      <trkpt lat="42.2493310" lon="1.8095200">
        <ele>1338.4</ele>
        <time>2015-08-14T10:46:26Z</time>
      </trkpt>
      <trkpt lat="42.2493700" lon="1.8095550">
        <ele>1339.2</ele>
        <time>2015-08-14T10:46:28Z</time>
      </trkpt>
      <trkpt lat="42.2493940" lon="1.8095730">
        <ele>1339.8</ele>
        <time>2015-08-14T10:46:29Z</time>
      </trkpt>
      <trkpt lat="42.2494210" lon="1.8096050">
        <ele>1340.0</ele>
        <time>2015-08-14T10:46:31Z</time>
      </trkpt>
      <trkpt lat="42.2494460" lon="1.8096370">
        <ele>1340.1</ele>
        <time>2015-08-14T10:46:33Z</time>
      </trkpt>
      <trkpt lat="42.2494750" lon="1.8096840">
        <ele>1340.1</ele>
        <time>2015-08-14T10:46:35Z</time>
      </trkpt>
      <trkpt lat="42.2494910" lon="1.8097250">
        <ele>1339.7</ele>
        <time>2015-08-14T10:46:37Z</time>
      </trkpt>
      <trkpt lat="42.2495050" lon="1.8097570">
        <ele>1339.5</ele>
        <time>2015-08-14T10:46:38Z</time>
      </trkpt>
      <trkpt lat="42.2495230" lon="1.8098150">
        <ele>1338.8</ele>
        <time>2015-08-14T10:46:40Z</time>
      </trkpt>
      <trkpt lat="42.2495330" lon="1.8098670">
        <ele>1338.0</ele>
        <time>2015-08-14T10:46:42Z</time>
      </trkpt>
      <trkpt lat="42.2495460" lon="1.8099220">
        <ele>1337.3</ele>
        <time>2015-08-14T10:46:44Z</time>
      </trkpt>
      <trkpt lat="42.2495530" lon="1.8099640">
        <ele>1336.6</ele>
        <time>2015-08-14T10:46:45Z</time>
      </trkpt>
      <trkpt lat="42.2495520" lon="1.8100360">
        <ele>1335.0</ele>
        <time>2015-08-14T10:46:47Z</time>
      </trkpt>
      <trkpt lat="42.2495580" lon="1.8100870">
        <ele>1334.1</ele>
        <time>2015-08-14T10:46:49Z</time>
      </trkpt>
      <trkpt lat="42.2495610" lon="1.8101480">
        <ele>1332.9</ele>
        <time>2015-08-14T10:46:51Z</time>
      </trkpt>
      <trkpt lat="42.2495560" lon="1.8102090">
        <ele>1331.4</ele>
        <time>2015-08-14T10:46:53Z</time>
      </trkpt>
      <trkpt lat="42.2495470" lon="1.8102510">
        <ele>1330.1</ele>
        <time>2015-08-14T10:46:55Z</time>
      </trkpt>
      <trkpt lat="42.2495320" lon="1.8102960">
        <ele>1328.5</ele>
        <time>2015-08-14T10:46:57Z</time>
      </trkpt>
      <trkpt lat="42.2495240" lon="1.8103360">
        <ele>1327.2</ele>
        <time>2015-08-14T10:46:58Z</time>
      </trkpt>
      <trkpt lat="42.2495270" lon="1.8104040">
        <ele>1325.8</ele>
        <time>2015-08-14T10:47:00Z</time>
      </trkpt>
      <trkpt lat="42.2495270" lon="1.8104580">
        <ele>1325.3</ele>
        <time>2015-08-14T10:47:02Z</time>
      </trkpt>
      <trkpt lat="42.2495280" lon="1.8105240">
        <ele>1324.9</ele>
        <time>2015-08-14T10:47:04Z</time>
      </trkpt>
      <trkpt lat="42.2495290" lon="1.8105670">
        <ele>1324.7</ele>
        <time>2015-08-14T10:47:05Z</time>
      </trkpt>
      <trkpt lat="42.2495140" lon="1.8105990">
        <ele>1323.8</ele>
        <time>2015-08-14T10:47:06Z</time>
      </trkpt>
      <trkpt lat="42.2495230" lon="1.8106640">
        <ele>1323.8</ele>
        <time>2015-08-14T10:47:08Z</time>
      </trkpt>
      <trkpt lat="42.2495150" lon="1.8107260">
        <ele>1323.0</ele>
        <time>2015-08-14T10:47:10Z</time>
      </trkpt>
      <trkpt lat="42.2495020" lon="1.8107870">
        <ele>1322.0</ele>
        <time>2015-08-14T10:47:12Z</time>
      </trkpt>
      <trkpt lat="42.2494900" lon="1.8108500">
        <ele>1321.0</ele>
        <time>2015-08-14T10:47:14Z</time>
      </trkpt>
      <trkpt lat="42.2494880" lon="1.8109070">
        <ele>1320.5</ele>
        <time>2015-08-14T10:47:16Z</time>
      </trkpt>
      <trkpt lat="42.2494720" lon="1.8109520">
        <ele>1319.4</ele>
        <time>2015-08-14T10:47:18Z</time>
      </trkpt>
      <trkpt lat="42.2494640" lon="1.8109940">
        <ele>1318.7</ele>
        <time>2015-08-14T10:47:20Z</time>
      </trkpt>
      <trkpt lat="42.2494630" lon="1.8110390">
        <ele>1318.3</ele>
        <time>2015-08-14T10:47:22Z</time>
      </trkpt>
      <trkpt lat="42.2494650" lon="1.8110820">
        <ele>1318.1</ele>
        <time>2015-08-14T10:47:24Z</time>
      </trkpt>
      <trkpt lat="42.2494560" lon="1.8111250">
        <ele>1317.3</ele>
        <time>2015-08-14T10:47:26Z</time>
      </trkpt>
      <trkpt lat="42.2494530" lon="1.8111790">
        <ele>1316.8</ele>
        <time>2015-08-14T10:47:28Z</time>
      </trkpt>
      <trkpt lat="42.2494410" lon="1.8112130">
        <ele>1315.9</ele>
        <time>2015-08-14T10:47:29Z</time>
      </trkpt>
      <trkpt lat="42.2494190" lon="1.8112500">
        <ele>1314.5</ele>
        <time>2015-08-14T10:47:30Z</time>
      </trkpt>
      <trkpt lat="42.2494240" lon="1.8112940">
        <ele>1315.3</ele>
        <time>2015-08-14T10:47:32Z</time>
      </trkpt>
      <trkpt lat="42.2494280" lon="1.8113390">
        <ele>1316.0</ele>
        <time>2015-08-14T10:47:34Z</time>
      </trkpt>
      <trkpt lat="42.2494170" lon="1.8113770">
        <ele>1315.8</ele>
        <time>2015-08-14T10:47:36Z</time>
      </trkpt>
      <trkpt lat="42.2494190" lon="1.8114290">
        <ele>1316.5</ele>
        <time>2015-08-14T10:47:38Z</time>
      </trkpt>
      <trkpt lat="42.2494310" lon="1.8114760">
        <ele>1317.7</ele>
        <time>2015-08-14T10:47:40Z</time>
      </trkpt>
      <trkpt lat="42.2494340" lon="1.8115240">
        <ele>1318.3</ele>
        <time>2015-08-14T10:47:42Z</time>
      </trkpt>
      <trkpt lat="42.2494400" lon="1.8115680">
        <ele>1319.2</ele>
        <time>2015-08-14T10:47:45Z</time>
      </trkpt>
      <trkpt lat="42.2494430" lon="1.8116160">
        <ele>1319.9</ele>
        <time>2015-08-14T10:47:47Z</time>
      </trkpt>
      <trkpt lat="42.2494360" lon="1.8116740">
        <ele>1320.1</ele>
        <time>2015-08-14T10:47:49Z</time>
      </trkpt>
      <trkpt lat="42.2494560" lon="1.8117120">
        <ele>1321.6</ele>
        <time>2015-08-14T10:47:51Z</time>
      </trkpt>
      <trkpt lat="42.2494770" lon="1.8117610">
        <ele>1323.3</ele>
        <time>2015-08-14T10:47:53Z</time>
      </trkpt>
      <trkpt lat="42.2495080" lon="1.8118100">
        <ele>1325.6</ele>
        <time>2015-08-14T10:47:55Z</time>
      </trkpt>
      <trkpt lat="42.2495190" lon="1.8118530">
        <ele>1326.7</ele>
        <time>2015-08-14T10:47:57Z</time>
      </trkpt>
      <trkpt lat="42.2495230" lon="1.8118980">
        <ele>1327.4</ele>
        <time>2015-08-14T10:47:59Z</time>
      </trkpt>
      <trkpt lat="42.2495330" lon="1.8119420">
        <ele>1328.5</ele>
        <time>2015-08-14T10:48:01Z</time>
      </trkpt>
      <trkpt lat="42.2495490" lon="1.8119820">
        <ele>1329.9</ele>
        <time>2015-08-14T10:48:03Z</time>
      </trkpt>
      <trkpt lat="42.2495630" lon="1.8120300">
        <ele>1331.2</ele>
        <time>2015-08-14T10:48:05Z</time>
      </trkpt>
      <trkpt lat="42.2495670" lon="1.8120670">
        <ele>1331.9</ele>
        <time>2015-08-14T10:48:07Z</time>
      </trkpt>
      <trkpt lat="42.2495850" lon="1.8121070">
        <ele>1333.0</ele>
        <time>2015-08-14T10:48:09Z</time>
      </trkpt>
      <trkpt lat="42.2495960" lon="1.8121670">
        <ele>1333.5</ele>
        <time>2015-08-14T10:48:11Z</time>
      </trkpt>
      <trkpt lat="42.2495970" lon="1.8122210">
        <ele>1333.4</ele>
        <time>2015-08-14T10:48:13Z</time>
      </trkpt>
      <trkpt lat="42.2496300" lon="1.8122800">
        <ele>1335.1</ele>
        <time>2015-08-14T10:48:15Z</time>
      </trkpt>
      <trkpt lat="42.2496320" lon="1.8123230">
        <ele>1335.1</ele>
        <time>2015-08-14T10:48:16Z</time>
      </trkpt>
      <trkpt lat="42.2496480" lon="1.8123750">
        <ele>1335.8</ele>
        <time>2015-08-14T10:48:18Z</time>
      </trkpt>
      <trkpt lat="42.2496710" lon="1.8124010">
        <ele>1337.0</ele>
        <time>2015-08-14T10:48:20Z</time>
      </trkpt>
      <trkpt lat="42.2496850" lon="1.8124520">
        <ele>1337.7</ele>
        <time>2015-08-14T10:48:22Z</time>
      </trkpt>
      <trkpt lat="42.2497020" lon="1.8124910">
        <ele>1338.5</ele>
        <time>2015-08-14T10:48:24Z</time>
      </trkpt>
      <trkpt lat="42.2497150" lon="1.8125320">
        <ele>1339.1</ele>
        <time>2015-08-14T10:48:26Z</time>
      </trkpt>
      <trkpt lat="42.2497360" lon="1.8125960">
        <ele>1340.1</ele>
        <time>2015-08-14T10:48:28Z</time>
      </trkpt>
      <trkpt lat="42.2497340" lon="1.8126450">
        <ele>1339.8</ele>
        <time>2015-08-14T10:48:30Z</time>
      </trkpt>
      <trkpt lat="42.2497250" lon="1.8126980">
        <ele>1339.2</ele>
        <time>2015-08-14T10:48:32Z</time>
      </trkpt>
      <trkpt lat="42.2497120" lon="1.8127460">
        <ele>1338.4</ele>
        <time>2015-08-14T10:48:34Z</time>
      </trkpt>
      <trkpt lat="42.2497000" lon="1.8128040">
        <ele>1337.6</ele>
        <time>2015-08-14T10:48:36Z</time>
      </trkpt>
      <trkpt lat="42.2496860" lon="1.8128550">
        <ele>1336.7</ele>
        <time>2015-08-14T10:48:38Z</time>
      </trkpt>
      <trkpt lat="42.2496600" lon="1.8128970">
        <ele>1335.2</ele>
        <time>2015-08-14T10:48:40Z</time>
      </trkpt>
      <trkpt lat="42.2496450" lon="1.8129380">
        <ele>1334.5</ele>
        <time>2015-08-14T10:48:42Z</time>
      </trkpt>
      <trkpt lat="42.2496240" lon="1.8129780">
        <ele>1333.8</ele>
        <time>2015-08-14T10:48:44Z</time>
      </trkpt>
      <trkpt lat="42.2495970" lon="1.8130030">
        <ele>1332.6</ele>
        <time>2015-08-14T10:48:46Z</time>
      </trkpt>
      <trkpt lat="42.2495700" lon="1.8130270">
        <ele>1331.4</ele>
        <time>2015-08-14T10:48:48Z</time>
      </trkpt>
      <trkpt lat="42.2495600" lon="1.8130890">
        <ele>1331.5</ele>
        <time>2015-08-14T10:48:50Z</time>
      </trkpt>
      <trkpt lat="42.2495330" lon="1.8131200">
        <ele>1330.5</ele>
        <time>2015-08-14T10:48:52Z</time>
      </trkpt>
      <trkpt lat="42.2495140" lon="1.8131660">
        <ele>1330.1</ele>
        <time>2015-08-14T10:48:54Z</time>
      </trkpt>
      <trkpt lat="42.2494890" lon="1.8132140">
        <ele>1329.3</ele>
        <time>2015-08-14T10:48:56Z</time>
      </trkpt>
      <trkpt lat="42.2494670" lon="1.8132490">
        <ele>1328.6</ele>
        <time>2015-08-14T10:48:58Z</time>
      </trkpt>
      <trkpt lat="42.2494490" lon="1.8132830">
        <ele>1328.1</ele>
        <time>2015-08-14T10:49:00Z</time>
      </trkpt>
      <trkpt lat="42.2494310" lon="1.8133320">
        <ele>1327.8</ele>
        <time>2015-08-14T10:49:02Z</time>
      </trkpt>
      <trkpt lat="42.2494070" lon="1.8133700">
        <ele>1327.0</ele>
        <time>2015-08-14T10:49:04Z</time>
      </trkpt>
      <trkpt lat="42.2493810" lon="1.8134220">
        <ele>1326.3</ele>
        <time>2015-08-14T10:49:06Z</time>
      </trkpt>
      <trkpt lat="42.2493750" lon="1.8134720">
        <ele>1326.6</ele>
        <time>2015-08-14T10:49:08Z</time>
      </trkpt>
      <trkpt lat="42.2493640" lon="1.8135430">
        <ele>1326.8</ele>
        <time>2015-08-14T10:49:10Z</time>
      </trkpt>
      <trkpt lat="42.2493520" lon="1.8136140">
        <ele>1327.0</ele>
        <time>2015-08-14T10:49:12Z</time>
      </trkpt>
      <trkpt lat="42.2493460" lon="1.8136590">
        <ele>1327.2</ele>
        <time>2015-08-14T10:49:14Z</time>
      </trkpt>
      <trkpt lat="42.2493670" lon="1.8137250">
        <ele>1328.9</ele>
        <time>2015-08-14T10:49:16Z</time>
      </trkpt>
      <trkpt lat="42.2493960" lon="1.8137730">
        <ele>1330.3</ele>
        <time>2015-08-14T10:49:18Z</time>
      </trkpt>
      <trkpt lat="42.2494160" lon="1.8138240">
        <ele>1330.9</ele>
        <time>2015-08-14T10:49:21Z</time>
      </trkpt>
      <trkpt lat="42.2494380" lon="1.8138830">
        <ele>1331.6</ele>
        <time>2015-08-14T10:49:23Z</time>
      </trkpt>
      <trkpt lat="42.2494530" lon="1.8139250">
        <ele>1332.1</ele>
        <time>2015-08-14T10:49:25Z</time>
      </trkpt>
      <trkpt lat="42.2494600" lon="1.8139730">
        <ele>1332.2</ele>
        <time>2015-08-14T10:49:27Z</time>
      </trkpt>
      <trkpt lat="42.2494930" lon="1.8140150">
        <ele>1333.6</ele>
        <time>2015-08-14T10:49:29Z</time>
      </trkpt>
      <trkpt lat="42.2495170" lon="1.8140670">
        <ele>1334.5</ele>
        <time>2015-08-14T10:49:31Z</time>
      </trkpt>
      <trkpt lat="42.2495340" lon="1.8141150">
        <ele>1335.2</ele>
        <time>2015-08-14T10:49:33Z</time>
      </trkpt>
      <trkpt lat="42.2495600" lon="1.8141570">
        <ele>1336.3</ele>
        <time>2015-08-14T10:49:35Z</time>
      </trkpt>
      <trkpt lat="42.2495830" lon="1.8141940">
        <ele>1337.4</ele>
        <time>2015-08-14T10:49:37Z</time>
      </trkpt>
      <trkpt lat="42.2496060" lon="1.8142320">
        <ele>1338.6</ele>
        <time>2015-08-14T10:49:39Z</time>
      </trkpt>
      <trkpt lat="42.2496290" lon="1.8142720">
        <ele>1339.8</ele>
        <time>2015-08-14T10:49:41Z</time>
      </trkpt>
      <trkpt lat="42.2496580" lon="1.8143100">
        <ele>1341.4</ele>
        <time>2015-08-14T10:49:43Z</time>
      </trkpt>
      <trkpt lat="42.2496840" lon="1.8143580">
        <ele>1342.8</ele>
        <time>2015-08-14T10:49:45Z</time>
      </trkpt>
      <trkpt lat="42.2497190" lon="1.8143970">
        <ele>1344.8</ele>
        <time>2015-08-14T10:49:47Z</time>
      </trkpt>
      <trkpt lat="42.2497590" lon="1.8144320">
        <ele>1347.1</ele>
        <time>2015-08-14T10:49:49Z</time>
      </trkpt>
      <trkpt lat="42.2497860" lon="1.8144600">
        <ele>1348.7</ele>
        <time>2015-08-14T10:49:51Z</time>
      </trkpt>
      <trkpt lat="42.2498080" lon="1.8144950">
        <ele>1349.9</ele>
        <time>2015-08-14T10:49:53Z</time>
      </trkpt>
      <trkpt lat="42.2498380" lon="1.8145380">
        <ele>1351.7</ele>
        <time>2015-08-14T10:49:55Z</time>
      </trkpt>
      <trkpt lat="42.2498590" lon="1.8145820">
        <ele>1352.9</ele>
        <time>2015-08-14T10:49:57Z</time>
      </trkpt>
      <trkpt lat="42.2498900" lon="1.8146240">
        <ele>1354.0</ele>
        <time>2015-08-14T10:49:59Z</time>
      </trkpt>
      <trkpt lat="42.2499190" lon="1.8146670">
        <ele>1355.0</ele>
        <time>2015-08-14T10:50:01Z</time>
      </trkpt>
      <trkpt lat="42.2499470" lon="1.8147100">
        <ele>1355.9</ele>
        <time>2015-08-14T10:50:03Z</time>
      </trkpt>
      <trkpt lat="42.2499680" lon="1.8147370">
        <ele>1356.6</ele>
        <time>2015-08-14T10:50:04Z</time>
      </trkpt>
      <trkpt lat="42.2499980" lon="1.8147730">
        <ele>1357.7</ele>
        <time>2015-08-14T10:50:06Z</time>
      </trkpt>
      <trkpt lat="42.2500290" lon="1.8148130">
        <ele>1358.8</ele>
        <time>2015-08-14T10:50:08Z</time>
      </trkpt>
      <trkpt lat="42.2500650" lon="1.8148520">
        <ele>1360.1</ele>
        <time>2015-08-14T10:50:10Z</time>
      </trkpt>
      <trkpt lat="42.2500950" lon="1.8148810">
        <ele>1361.3</ele>
        <time>2015-08-14T10:50:12Z</time>
      </trkpt>
      <trkpt lat="42.2501280" lon="1.8149200">
        <ele>1362.4</ele>
        <time>2015-08-14T10:50:14Z</time>
      </trkpt>
      <trkpt lat="42.2501640" lon="1.8149580">
        <ele>1363.6</ele>
        <time>2015-08-14T10:50:16Z</time>
      </trkpt>
      <trkpt lat="42.2501790" lon="1.8149880">
        <ele>1363.9</ele>
        <time>2015-08-14T10:50:17Z</time>
      </trkpt>
      <trkpt lat="42.2502170" lon="1.8150240">
        <ele>1365.2</ele>
        <time>2015-08-14T10:50:19Z</time>
      </trkpt>
      <trkpt lat="42.2502390" lon="1.8150510">
        <ele>1365.9</ele>
        <time>2015-08-14T10:50:21Z</time>
      </trkpt>
      <trkpt lat="42.2502470" lon="1.8150930">
        <ele>1365.4</ele>
        <time>2015-08-14T10:50:23Z</time>
      </trkpt>
      <trkpt lat="42.2502660" lon="1.8151190">
        <ele>1365.9</ele>
        <time>2015-08-14T10:50:24Z</time>
      </trkpt>
      <trkpt lat="42.2503020" lon="1.8151420">
        <ele>1367.3</ele>
        <time>2015-08-14T10:50:27Z</time>
      </trkpt>
      <trkpt lat="42.2503320" lon="1.8151780">
        <ele>1368.1</ele>
        <time>2015-08-14T10:50:29Z</time>
      </trkpt>
      <trkpt lat="42.2503560" lon="1.8152170">
        <ele>1368.5</ele>
        <time>2015-08-14T10:50:31Z</time>
      </trkpt>
      <trkpt lat="42.2503880" lon="1.8152160">
        <ele>1370.3</ele>
        <time>2015-08-14T10:50:33Z</time>
      </trkpt>
      <trkpt lat="42.2504280" lon="1.8152300">
        <ele>1371.9</ele>
        <time>2015-08-14T10:50:35Z</time>
      </trkpt>
      <trkpt lat="42.2504620" lon="1.8152640">
        <ele>1372.5</ele>
        <time>2015-08-14T10:50:37Z</time>
      </trkpt>
      <trkpt lat="42.2504870" lon="1.8152790">
        <ele>1373.2</ele>
        <time>2015-08-14T10:50:38Z</time>
      </trkpt>
      <trkpt lat="42.2505070" lon="1.8153160">
        <ele>1373.1</ele>
        <time>2015-08-14T10:50:40Z</time>
      </trkpt>
      <trkpt lat="42.2505330" lon="1.8153650">
        <ele>1372.9</ele>
        <time>2015-08-14T10:50:42Z</time>
      </trkpt>
      <trkpt lat="42.2505650" lon="1.8153920">
        <ele>1373.5</ele>
        <time>2015-08-14T10:50:44Z</time>
      </trkpt>
      <trkpt lat="42.2506110" lon="1.8154250">
        <ele>1374.5</ele>
        <time>2015-08-14T10:50:46Z</time>
      </trkpt>
      <trkpt lat="42.2506430" lon="1.8154370">
        <ele>1375.5</ele>
        <time>2015-08-14T10:50:48Z</time>
      </trkpt>
      <trkpt lat="42.2506700" lon="1.8154610">
        <ele>1376.0</ele>
        <time>2015-08-14T10:50:50Z</time>
      </trkpt>
      <trkpt lat="42.2506910" lon="1.8154970">
        <ele>1376.1</ele>
        <time>2015-08-14T10:50:52Z</time>
      </trkpt>
      <trkpt lat="42.2507170" lon="1.8155400">
        <ele>1376.2</ele>
        <time>2015-08-14T10:50:54Z</time>
      </trkpt>
      <trkpt lat="42.2507370" lon="1.8155930">
        <ele>1375.9</ele>
        <time>2015-08-14T10:50:56Z</time>
      </trkpt>
      <trkpt lat="42.2507410" lon="1.8156320">
        <ele>1375.2</ele>
        <time>2015-08-14T10:50:57Z</time>
      </trkpt>
      <trkpt lat="42.2507230" lon="1.8156650">
        <ele>1373.7</ele>
        <time>2015-08-14T10:50:58Z</time>
      </trkpt>
      <trkpt lat="42.2507160" lon="1.8157060">
        <ele>1372.5</ele>
        <time>2015-08-14T10:50:59Z</time>
      </trkpt>
      <trkpt lat="42.2507060" lon="1.8157600">
        <ele>1370.9</ele>
        <time>2015-08-14T10:51:01Z</time>
      </trkpt>
      <trkpt lat="42.2506990" lon="1.8158200">
        <ele>1369.3</ele>
        <time>2015-08-14T10:51:03Z</time>
      </trkpt>
      <trkpt lat="42.2506880" lon="1.8158640">
        <ele>1367.9</ele>
        <time>2015-08-14T10:51:05Z</time>
      </trkpt>
      <trkpt lat="42.2506610" lon="1.8159210">
        <ele>1365.5</ele>
        <time>2015-08-14T10:51:07Z</time>
      </trkpt>
      <trkpt lat="42.2506320" lon="1.8159740">
        <ele>1363.0</ele>
        <time>2015-08-14T10:51:09Z</time>
      </trkpt>
      <trkpt lat="42.2506170" lon="1.8160360">
        <ele>1361.0</ele>
        <time>2015-08-14T10:51:11Z</time>
      </trkpt>
      <trkpt lat="42.2505980" lon="1.8160800">
        <ele>1359.1</ele>
        <time>2015-08-14T10:51:13Z</time>
      </trkpt>
      <trkpt lat="42.2505850" lon="1.8161360">
        <ele>1357.3</ele>
        <time>2015-08-14T10:51:15Z</time>
      </trkpt>
      <trkpt lat="42.2505860" lon="1.8161870">
        <ele>1356.2</ele>
        <time>2015-08-14T10:51:17Z</time>
      </trkpt>
      <trkpt lat="42.2506010" lon="1.8162360">
        <ele>1355.7</ele>
        <time>2015-08-14T10:51:19Z</time>
      </trkpt>
      <trkpt lat="42.2506090" lon="1.8162720">
        <ele>1355.9</ele>
        <time>2015-08-14T10:51:21Z</time>
      </trkpt>
      <trkpt lat="42.2506170" lon="1.8163180">
        <ele>1356.5</ele>
        <time>2015-08-14T10:51:23Z</time>
      </trkpt>
      <trkpt lat="42.2506240" lon="1.8163620">
        <ele>1357.0</ele>
        <time>2015-08-14T10:51:25Z</time>
      </trkpt>
      <trkpt lat="42.2506400" lon="1.8164020">
        <ele>1358.0</ele>
        <time>2015-08-14T10:51:27Z</time>
      </trkpt>
      <trkpt lat="42.2506570" lon="1.8164450">
        <ele>1359.0</ele>
        <time>2015-08-14T10:51:29Z</time>
      </trkpt>
      <trkpt lat="42.2506830" lon="1.8164840">
        <ele>1360.4</ele>
        <time>2015-08-14T10:51:31Z</time>
      </trkpt>
      <trkpt lat="42.2507000" lon="1.8165250">
        <ele>1361.4</ele>
        <time>2015-08-14T10:51:33Z</time>
      </trkpt>
      <trkpt lat="42.2507010" lon="1.8165620">
        <ele>1361.6</ele>
        <time>2015-08-14T10:51:34Z</time>
      </trkpt>
      <trkpt lat="42.2507160" lon="1.8165930">
        <ele>1362.4</ele>
        <time>2015-08-14T10:51:35Z</time>
      </trkpt>
      <trkpt lat="42.2507200" lon="1.8166370">
        <ele>1362.9</ele>
        <time>2015-08-14T10:51:37Z</time>
      </trkpt>
      <trkpt lat="42.2507340" lon="1.8166700">
        <ele>1363.7</ele>
        <time>2015-08-14T10:51:39Z</time>
      </trkpt>
      <trkpt lat="42.2507530" lon="1.8166970">
        <ele>1364.7</ele>
        <time>2015-08-14T10:51:41Z</time>
      </trkpt>
      <trkpt lat="42.2507690" lon="1.8167460">
        <ele>1365.7</ele>
        <time>2015-08-14T10:51:43Z</time>
      </trkpt>
      <trkpt lat="42.2507820" lon="1.8167990">
        <ele>1366.6</ele>
        <time>2015-08-14T10:51:45Z</time>
      </trkpt>
      <trkpt lat="42.2507830" lon="1.8168430">
        <ele>1366.9</ele>
        <time>2015-08-14T10:51:47Z</time>
      </trkpt>
      <trkpt lat="42.2507820" lon="1.8168910">
        <ele>1367.1</ele>
        <time>2015-08-14T10:51:49Z</time>
      </trkpt>
      <trkpt lat="42.2507880" lon="1.8169310">
        <ele>1367.6</ele>
        <time>2015-08-14T10:51:51Z</time>
      </trkpt>
      <trkpt lat="42.2507990" lon="1.8169680">
        <ele>1368.3</ele>
        <time>2015-08-14T10:51:53Z</time>
      </trkpt>
      <trkpt lat="42.2508270" lon="1.8170160">
        <ele>1369.8</ele>
        <time>2015-08-14T10:51:55Z</time>
      </trkpt>
      <trkpt lat="42.2508420" lon="1.8170640">
        <ele>1370.8</ele>
        <time>2015-08-14T10:51:57Z</time>
      </trkpt>
      <trkpt lat="42.2508670" lon="1.8171140">
        <ele>1371.5</ele>
        <time>2015-08-14T10:51:59Z</time>
      </trkpt>
      <trkpt lat="42.2509050" lon="1.8171530">
        <ele>1372.6</ele>
        <time>2015-08-14T10:52:01Z</time>
      </trkpt>
      <trkpt lat="42.2509250" lon="1.8172050">
        <ele>1372.6</ele>
        <time>2015-08-14T10:52:03Z</time>
      </trkpt>
      <trkpt lat="42.2509470" lon="1.8172540">
        <ele>1372.7</ele>
        <time>2015-08-14T10:52:05Z</time>
      </trkpt>
      <trkpt lat="42.2509780" lon="1.8172620">
        <ele>1374.0</ele>
        <time>2015-08-14T10:52:07Z</time>
      </trkpt>
      <trkpt lat="42.2509720" lon="1.8173090">
        <ele>1372.8</ele>
        <time>2015-08-14T10:52:31Z</time>
      </trkpt>
      <trkpt lat="42.2509820" lon="1.8173450">
        <ele>1372.6</ele>
        <time>2015-08-14T10:55:00Z</time>
      </trkpt>
      <trkpt lat="42.2509950" lon="1.8173860">
        <ele>1372.4</ele>
        <time>2015-08-14T10:55:07Z</time>
      </trkpt>
      <trkpt lat="42.2510260" lon="1.8174040">
        <ele>1373.5</ele>
        <time>2015-08-14T10:55:09Z</time>
      </trkpt>
      <trkpt lat="42.2510560" lon="1.8173880">
        <ele>1375.1</ele>
        <time>2015-08-14T10:55:12Z</time>
      </trkpt>
      <trkpt lat="42.2510610" lon="1.8174310">
        <ele>1374.5</ele>
        <time>2015-08-14T10:55:14Z</time>
      </trkpt>
      <trkpt lat="42.2510880" lon="1.8174450">
        <ele>1375.5</ele>
        <time>2015-08-14T10:55:17Z</time>
      </trkpt>
      <trkpt lat="42.2511170" lon="1.8174740">
        <ele>1376.2</ele>
        <time>2015-08-14T10:55:21Z</time>
      </trkpt>
      <trkpt lat="42.2511470" lon="1.8174810">
        <ele>1377.4</ele>
        <time>2015-08-14T10:55:24Z</time>
      </trkpt>
      <trkpt lat="42.2511670" lon="1.8175210">
        <ele>1377.4</ele>
        <time>2015-08-14T10:55:29Z</time>
      </trkpt>
      <trkpt lat="42.2511920" lon="1.8175610">
        <ele>1377.7</ele>
        <time>2015-08-14T10:55:31Z</time>
      </trkpt>
      <trkpt lat="42.2512170" lon="1.8176030">
        <ele>1378.0</ele>
        <time>2015-08-14T10:55:34Z</time>
      </trkpt>
      <trkpt lat="42.2512470" lon="1.8176340">
        <ele>1378.6</ele>
        <time>2015-08-14T10:55:36Z</time>
      </trkpt>
      <trkpt lat="42.2512750" lon="1.8176150">
        <ele>1380.2</ele>
        <time>2015-08-14T10:55:42Z</time>
      </trkpt>
      <trkpt lat="42.2513250" lon="1.8176260">
        <ele>1382.1</ele>
        <time>2015-08-14T10:55:45Z</time>
      </trkpt>
      <trkpt lat="42.2513550" lon="1.8176450">
        <ele>1382.9</ele>
        <time>2015-08-14T10:55:48Z</time>
      </trkpt>
      <trkpt lat="42.2513740" lon="1.8176740">
        <ele>1383.1</ele>
        <time>2015-08-14T10:55:51Z</time>
      </trkpt>
      <trkpt lat="42.2514050" lon="1.8176710">
        <ele>1384.4</ele>
        <time>2015-08-14T10:55:54Z</time>
      </trkpt>
      <trkpt lat="42.2514350" lon="1.8176720">
        <ele>1385.6</ele>
        <time>2015-08-14T10:55:57Z</time>
      </trkpt>
      <trkpt lat="42.2514690" lon="1.8176560">
        <ele>1387.4</ele>
        <time>2015-08-14T10:56:01Z</time>
      </trkpt>
      <trkpt lat="42.2515100" lon="1.8176210">
        <ele>1389.9</ele>
        <time>2015-08-14T10:56:03Z</time>
      </trkpt>
      <trkpt lat="42.2515390" lon="1.8176340">
        <ele>1390.8</ele>
        <time>2015-08-14T10:56:05Z</time>
      </trkpt>
      <trkpt lat="42.2516120" lon="1.8176790">
        <ele>1392.8</ele>
        <time>2015-08-14T10:56:07Z</time>
      </trkpt>
      <trkpt lat="42.2516320" lon="1.8177200">
        <ele>1392.7</ele>
        <time>2015-08-14T10:56:10Z</time>
      </trkpt>
      <trkpt lat="42.2516390" lon="1.8177570">
        <ele>1392.1</ele>
        <time>2015-08-14T10:56:13Z</time>
      </trkpt>
      <trkpt lat="42.2516420" lon="1.8177980">
        <ele>1391.3</ele>
        <time>2015-08-14T10:56:16Z</time>
      </trkpt>
      <trkpt lat="42.2516540" lon="1.8178420">
        <ele>1390.7</ele>
        <time>2015-08-14T10:56:18Z</time>
      </trkpt>
      <trkpt lat="42.2516440" lon="1.8178850">
        <ele>1389.3</ele>
        <time>2015-08-14T10:56:20Z</time>
      </trkpt>
      <trkpt lat="42.2516670" lon="1.8179110">
        <ele>1389.6</ele>
        <time>2015-08-14T10:56:21Z</time>
      </trkpt>
      <trkpt lat="42.2516920" lon="1.8179520">
        <ele>1390.2</ele>
        <time>2015-08-14T10:56:23Z</time>
      </trkpt>
      <trkpt lat="42.2517240" lon="1.8179920">
        <ele>1391.1</ele>
        <time>2015-08-14T10:56:25Z</time>
      </trkpt>
      <trkpt lat="42.2517460" lon="1.8180230">
        <ele>1391.7</ele>
        <time>2015-08-14T10:56:27Z</time>
      </trkpt>
      <trkpt lat="42.2517950" lon="1.8180560">
        <ele>1393.2</ele>
        <time>2015-08-14T10:56:30Z</time>
      </trkpt>
      <trkpt lat="42.2518250" lon="1.8180800">
        <ele>1394.1</ele>
        <time>2015-08-14T10:56:32Z</time>
      </trkpt>
      <trkpt lat="42.2518650" lon="1.8181010">
        <ele>1395.3</ele>
        <time>2015-08-14T10:56:34Z</time>
      </trkpt>
      <trkpt lat="42.2518880" lon="1.8181310">
        <ele>1395.8</ele>
        <time>2015-08-14T10:56:36Z</time>
      </trkpt>
      <trkpt lat="42.2519130" lon="1.8181550">
        <ele>1396.5</ele>
        <time>2015-08-14T10:56:38Z</time>
      </trkpt>
      <trkpt lat="42.2519290" lon="1.8181870">
        <ele>1396.7</ele>
        <time>2015-08-14T10:56:43Z</time>
      </trkpt>
      <trkpt lat="42.2519650" lon="1.8182220">
        <ele>1397.5</ele>
        <time>2015-08-14T10:56:45Z</time>
      </trkpt>
      <trkpt lat="42.2519730" lon="1.8182610">
        <ele>1397.3</ele>
        <time>2015-08-14T10:56:48Z</time>
      </trkpt>
      <trkpt lat="42.2519870" lon="1.8183070">
        <ele>1397.2</ele>
        <time>2015-08-14T10:56:50Z</time>
      </trkpt>
      <trkpt lat="42.2520030" lon="1.8183390">
        <ele>1397.3</ele>
        <time>2015-08-14T10:56:52Z</time>
      </trkpt>
      <trkpt lat="42.2520270" lon="1.8183790">
        <ele>1397.5</ele>
        <time>2015-08-14T10:56:54Z</time>
      </trkpt>
      <trkpt lat="42.2520450" lon="1.8184220">
        <ele>1397.5</ele>
        <time>2015-08-14T10:56:56Z</time>
      </trkpt>
      <trkpt lat="42.2520590" lon="1.8184720">
        <ele>1397.3</ele>
        <time>2015-08-14T10:56:58Z</time>
      </trkpt>
      <trkpt lat="42.2520760" lon="1.8185280">
        <ele>1397.0</ele>
        <time>2015-08-14T10:57:00Z</time>
      </trkpt>
      <trkpt lat="42.2520870" lon="1.8185810">
        <ele>1396.6</ele>
        <time>2015-08-14T10:57:02Z</time>
      </trkpt>
      <trkpt lat="42.2520980" lon="1.8186520">
        <ele>1396.1</ele>
        <time>2015-08-14T10:57:04Z</time>
      </trkpt>
      <trkpt lat="42.2520540" lon="1.8187000">
        <ele>1393.9</ele>
        <time>2015-08-14T10:57:06Z</time>
      </trkpt>
      <trkpt lat="42.2520250" lon="1.8187640">
        <ele>1392.8</ele>
        <time>2015-08-14T10:57:08Z</time>
      </trkpt>
      <trkpt lat="42.2520100" lon="1.8187990">
        <ele>1393.4</ele>
        <time>2015-08-14T10:57:09Z</time>
      </trkpt>
      <trkpt lat="42.2519660" lon="1.8188060">
        <ele>1392.5</ele>
        <time>2015-08-14T10:57:11Z</time>
      </trkpt>
      <trkpt lat="42.2519340" lon="1.8188280">
        <ele>1392.3</ele>
        <time>2015-08-14T10:57:12Z</time>
      </trkpt>
      <trkpt lat="42.2519020" lon="1.8187480">
        <ele>1389.2</ele>
        <time>2015-08-14T10:57:13Z</time>
      </trkpt>
      <trkpt lat="42.2518540" lon="1.8187300">
        <ele>1388.2</ele>
        <time>2015-08-14T10:57:15Z</time>
      </trkpt>
      <trkpt lat="42.2518170" lon="1.8187670">
        <ele>1387.5</ele>
        <time>2015-08-14T10:57:17Z</time>
      </trkpt>
      <trkpt lat="42.2517750" lon="1.8187830">
        <ele>1386.9</ele>
        <time>2015-08-14T10:57:19Z</time>
      </trkpt>
      <trkpt lat="42.2517460" lon="1.8187790">
        <ele>1386.0</ele>
        <time>2015-08-14T10:57:20Z</time>
      </trkpt>
      <trkpt lat="42.2516980" lon="1.8187790">
        <ele>1384.8</ele>
        <time>2015-08-14T10:57:22Z</time>
      </trkpt>
      <trkpt lat="42.2516620" lon="1.8187670">
        <ele>1383.4</ele>
        <time>2015-08-14T10:57:24Z</time>
      </trkpt>
      <trkpt lat="42.2516280" lon="1.8187860">
        <ele>1383.2</ele>
        <time>2015-08-14T10:57:25Z</time>
      </trkpt>
      <trkpt lat="42.2515780" lon="1.8187960">
        <ele>1382.2</ele>
        <time>2015-08-14T10:57:27Z</time>
      </trkpt>
      <trkpt lat="42.2515440" lon="1.8187910">
        <ele>1381.2</ele>
        <time>2015-08-14T10:57:29Z</time>
      </trkpt>
      <trkpt lat="42.2515180" lon="1.8188050">
        <ele>1381.0</ele>
        <time>2015-08-14T10:57:30Z</time>
      </trkpt>
      <trkpt lat="42.2514740" lon="1.8188290">
        <ele>1380.7</ele>
        <time>2015-08-14T10:57:32Z</time>
      </trkpt>
      <trkpt lat="42.2514290" lon="1.8188420">
        <ele>1380.0</ele>
        <time>2015-08-14T10:57:34Z</time>
      </trkpt>
      <trkpt lat="42.2514050" lon="1.8188800">
        <ele>1380.8</ele>
        <time>2015-08-14T10:57:36Z</time>
      </trkpt>
      <trkpt lat="42.2513670" lon="1.8189050">
        <ele>1380.8</ele>
        <time>2015-08-14T10:57:38Z</time>
      </trkpt>
      <trkpt lat="42.2513290" lon="1.8189190">
        <ele>1380.4</ele>
        <time>2015-08-14T10:57:40Z</time>
      </trkpt>
      <trkpt lat="42.2512910" lon="1.8189530">
        <ele>1380.8</ele>
        <time>2015-08-14T10:57:42Z</time>
      </trkpt>
      <trkpt lat="42.2512640" lon="1.8189650">
        <ele>1380.6</ele>
        <time>2015-08-14T10:57:44Z</time>
      </trkpt>
      <trkpt lat="42.2512290" lon="1.8189820">
        <ele>1380.6</ele>
        <time>2015-08-14T10:57:46Z</time>
      </trkpt>
      <trkpt lat="42.2511870" lon="1.8190160">
        <ele>1381.3</ele>
        <time>2015-08-14T10:57:48Z</time>
      </trkpt>
      <trkpt lat="42.2511340" lon="1.8190420">
        <ele>1381.6</ele>
        <time>2015-08-14T10:57:50Z</time>
      </trkpt>
      <trkpt lat="42.2510930" lon="1.8190750">
        <ele>1382.3</ele>
        <time>2015-08-14T10:57:52Z</time>
      </trkpt>
      <trkpt lat="42.2510430" lon="1.8190910">
        <ele>1382.2</ele>
        <time>2015-08-14T10:57:54Z</time>
      </trkpt>
      <trkpt lat="42.2510040" lon="1.8191180">
        <ele>1382.7</ele>
        <time>2015-08-14T10:57:56Z</time>
      </trkpt>
      <trkpt lat="42.2509690" lon="1.8191400">
        <ele>1383.1</ele>
        <time>2015-08-14T10:57:58Z</time>
      </trkpt>
      <trkpt lat="42.2509330" lon="1.8191570">
        <ele>1383.2</ele>
        <time>2015-08-14T10:58:00Z</time>
      </trkpt>
      <trkpt lat="42.2509070" lon="1.8191840">
        <ele>1383.9</ele>
        <time>2015-08-14T10:58:03Z</time>
      </trkpt>
      <trkpt lat="42.2508750" lon="1.8192130">
        <ele>1384.6</ele>
        <time>2015-08-14T10:58:05Z</time>
      </trkpt>
      <trkpt lat="42.2508320" lon="1.8192440">
        <ele>1385.2</ele>
        <time>2015-08-14T10:58:07Z</time>
      </trkpt>
      <trkpt lat="42.2507980" lon="1.8192560">
        <ele>1385.3</ele>
        <time>2015-08-14T10:58:09Z</time>
      </trkpt>
      <trkpt lat="42.2507640" lon="1.8192720">
        <ele>1385.4</ele>
        <time>2015-08-14T10:58:11Z</time>
      </trkpt>
      <trkpt lat="42.2507340" lon="1.8192590">
        <ele>1384.5</ele>
        <time>2015-08-14T10:58:13Z</time>
      </trkpt>
      <trkpt lat="42.2506910" lon="1.8192700">
        <ele>1384.3</ele>
        <time>2015-08-14T10:58:15Z</time>
      </trkpt>
      <trkpt lat="42.2506450" lon="1.8192840">
        <ele>1384.3</ele>
        <time>2015-08-14T10:58:17Z</time>
      </trkpt>
      <trkpt lat="42.2506150" lon="1.8193090">
        <ele>1384.8</ele>
        <time>2015-08-14T10:58:18Z</time>
      </trkpt>
      <trkpt lat="42.2505650" lon="1.8193290">
        <ele>1384.9</ele>
        <time>2015-08-14T10:58:20Z</time>
      </trkpt>
      <trkpt lat="42.2504950" lon="1.8193260">
        <ele>1383.9</ele>
        <time>2015-08-14T10:58:23Z</time>
      </trkpt>
      <trkpt lat="42.2504690" lon="1.8193620">
        <ele>1384.9</ele>
        <time>2015-08-14T10:58:24Z</time>
      </trkpt>
      <trkpt lat="42.2504370" lon="1.8193660">
        <ele>1384.7</ele>
        <time>2015-08-14T10:58:25Z</time>
      </trkpt>
      <trkpt lat="42.2503990" lon="1.8193870">
        <ele>1384.8</ele>
        <time>2015-08-14T10:58:27Z</time>
      </trkpt>
      <trkpt lat="42.2503480" lon="1.8194100">
        <ele>1384.5</ele>
        <time>2015-08-14T10:58:29Z</time>
      </trkpt>
      <trkpt lat="42.2503200" lon="1.8194200">
        <ele>1384.2</ele>
        <time>2015-08-14T10:58:31Z</time>
      </trkpt>
      <trkpt lat="42.2502830" lon="1.8194320">
        <ele>1383.8</ele>
        <time>2015-08-14T10:58:34Z</time>
      </trkpt>
      <trkpt lat="42.2502560" lon="1.8194420">
        <ele>1383.6</ele>
        <time>2015-08-14T10:58:35Z</time>
      </trkpt>
      <trkpt lat="42.2502090" lon="1.8194550">
        <ele>1383.0</ele>
        <time>2015-08-14T10:58:37Z</time>
      </trkpt>
      <trkpt lat="42.2501720" lon="1.8194700">
        <ele>1382.7</ele>
        <time>2015-08-14T10:58:39Z</time>
      </trkpt>
      <trkpt lat="42.2501470" lon="1.8194860">
        <ele>1382.7</ele>
        <time>2015-08-14T10:58:41Z</time>
      </trkpt>
      <trkpt lat="42.2501010" lon="1.8194870">
        <ele>1381.7</ele>
        <time>2015-08-14T10:58:43Z</time>
      </trkpt>
      <trkpt lat="42.2500570" lon="1.8195010">
        <ele>1381.2</ele>
        <time>2015-08-14T10:58:45Z</time>
      </trkpt>
      <trkpt lat="42.2500180" lon="1.8195070">
        <ele>1380.5</ele>
        <time>2015-08-14T10:58:47Z</time>
      </trkpt>
      <trkpt lat="42.2499920" lon="1.8194940">
        <ele>1379.3</ele>
        <time>2015-08-14T10:58:48Z</time>
      </trkpt>
      <trkpt lat="42.2499910" lon="1.8195450">
        <ele>1381.3</ele>
        <time>2015-08-14T10:58:50Z</time>
      </trkpt>
      <trkpt lat="42.2499480" lon="1.8195590">
        <ele>1380.8</ele>
        <time>2015-08-14T10:58:52Z</time>
      </trkpt>
      <trkpt lat="42.2499260" lon="1.8195880">
        <ele>1381.4</ele>
        <time>2015-08-14T10:58:53Z</time>
      </trkpt>
      <trkpt lat="42.2499000" lon="1.8196020">
        <ele>1381.2</ele>
        <time>2015-08-14T10:58:54Z</time>
      </trkpt>
      <trkpt lat="42.2498730" lon="1.8196110">
        <ele>1380.8</ele>
        <time>2015-08-14T10:58:56Z</time>
      </trkpt>
      <trkpt lat="42.2498430" lon="1.8196340">
        <ele>1380.8</ele>
        <time>2015-08-14T10:58:58Z</time>
      </trkpt>
      <trkpt lat="42.2498070" lon="1.8196760">
        <ele>1381.2</ele>
        <time>2015-08-14T10:59:00Z</time>
      </trkpt>
      <trkpt lat="42.2497840" lon="1.8197070">
        <ele>1381.6</ele>
        <time>2015-08-14T10:59:02Z</time>
      </trkpt>
      <trkpt lat="42.2497560" lon="1.8197310">
        <ele>1381.7</ele>
        <time>2015-08-14T10:59:04Z</time>
      </trkpt>
      <trkpt lat="42.2497360" lon="1.8197710">
        <ele>1382.4</ele>
        <time>2015-08-14T10:59:06Z</time>
      </trkpt>
      <trkpt lat="42.2497000" lon="1.8198110">
        <ele>1382.6</ele>
        <time>2015-08-14T10:59:08Z</time>
      </trkpt>
      <trkpt lat="42.2496760" lon="1.8198470">
        <ele>1383.1</ele>
        <time>2015-08-14T10:59:10Z</time>
      </trkpt>
      <trkpt lat="42.2496330" lon="1.8198910">
        <ele>1383.2</ele>
        <time>2015-08-14T10:59:12Z</time>
      </trkpt>
      <trkpt lat="42.2495880" lon="1.8199220">
        <ele>1382.9</ele>
        <time>2015-08-14T10:59:14Z</time>
      </trkpt>
      <trkpt lat="42.2495430" lon="1.8199470">
        <ele>1381.6</ele>
        <time>2015-08-14T10:59:16Z</time>
      </trkpt>
      <trkpt lat="42.2495160" lon="1.8199950">
        <ele>1381.7</ele>
        <time>2015-08-14T10:59:18Z</time>
      </trkpt>
      <trkpt lat="42.2494980" lon="1.8200370">
        <ele>1382.1</ele>
        <time>2015-08-14T10:59:19Z</time>
      </trkpt>
      <trkpt lat="42.2494760" lon="1.8200600">
        <ele>1381.7</ele>
        <time>2015-08-14T10:59:20Z</time>
      </trkpt>
      <trkpt lat="42.2494460" lon="1.8200930">
        <ele>1381.3</ele>
        <time>2015-08-14T10:59:22Z</time>
      </trkpt>
      <trkpt lat="42.2494200" lon="1.8201320">
        <ele>1381.2</ele>
        <time>2015-08-14T10:59:24Z</time>
      </trkpt>
      <trkpt lat="42.2493650" lon="1.8201910">
        <ele>1380.3</ele>
        <time>2015-08-14T10:59:26Z</time>
      </trkpt>
      <trkpt lat="42.2493360" lon="1.8202110">
        <ele>1379.5</ele>
        <time>2015-08-14T10:59:27Z</time>
      </trkpt>
      <trkpt lat="42.2493190" lon="1.8202400">
        <ele>1379.5</ele>
        <time>2015-08-14T10:59:28Z</time>
      </trkpt>
      <trkpt lat="42.2493030" lon="1.8202790">
        <ele>1379.9</ele>
        <time>2015-08-14T10:59:30Z</time>
      </trkpt>
      <trkpt lat="42.2492750" lon="1.8202920">
        <ele>1379.0</ele>
        <time>2015-08-14T10:59:31Z</time>
      </trkpt>
      <trkpt lat="42.2492970" lon="1.8203610">
        <ele>1382.0</ele>
        <time>2015-08-14T10:59:32Z</time>
      </trkpt>
      <trkpt lat="42.2492900" lon="1.8204240">
        <ele>1383.4</ele>
        <time>2015-08-14T10:59:33Z</time>
      </trkpt>
      <trkpt lat="42.2492910" lon="1.8204800">
        <ele>1384.3</ele>
        <time>2015-08-14T10:59:35Z</time>
      </trkpt>
      <trkpt lat="42.2492730" lon="1.8205220">
        <ele>1384.1</ele>
        <time>2015-08-14T10:59:36Z</time>
      </trkpt>
      <trkpt lat="42.2492560" lon="1.8205590">
        <ele>1383.9</ele>
        <time>2015-08-14T10:59:37Z</time>
      </trkpt>
      <trkpt lat="42.2492210" lon="1.8205910">
        <ele>1382.8</ele>
        <time>2015-08-14T10:59:38Z</time>
      </trkpt>
      <trkpt lat="42.2492120" lon="1.8206490">
        <ele>1383.2</ele>
        <time>2015-08-14T10:59:40Z</time>
      </trkpt>
      <trkpt lat="42.2492130" lon="1.8206980">
        <ele>1384.1</ele>
        <time>2015-08-14T10:59:42Z</time>
      </trkpt>
      <trkpt lat="42.2492240" lon="1.8207470">
        <ele>1385.3</ele>
        <time>2015-08-14T10:59:44Z</time>
      </trkpt>
      <trkpt lat="42.2492190" lon="1.8207940">
        <ele>1385.8</ele>
        <time>2015-08-14T10:59:46Z</time>
      </trkpt>
      <trkpt lat="42.2492170" lon="1.8208470">
        <ele>1386.6</ele>
        <time>2015-08-14T10:59:48Z</time>
      </trkpt>
      <trkpt lat="42.2492500" lon="1.8208730">
        <ele>1388.5</ele>
        <time>2015-08-14T10:59:50Z</time>
      </trkpt>
      <trkpt lat="42.2492620" lon="1.8209100">
        <ele>1389.7</ele>
        <time>2015-08-14T10:59:52Z</time>
      </trkpt>
      <trkpt lat="42.2492590" lon="1.8209470">
        <ele>1390.1</ele>
        <time>2015-08-14T10:59:56Z</time>
      </trkpt>
      <trkpt lat="42.2492700" lon="1.8209820">
        <ele>1391.2</ele>
        <time>2015-08-14T10:59:58Z</time>
      </trkpt>
      <trkpt lat="42.2492970" lon="1.8210270">
        <ele>1393.1</ele>
        <time>2015-08-14T11:00:00Z</time>
      </trkpt>
      <trkpt lat="42.2493150" lon="1.8210680">
        <ele>1394.6</ele>
        <time>2015-08-14T11:00:02Z</time>
      </trkpt>
      <trkpt lat="42.2493310" lon="1.8211110">
        <ele>1396.0</ele>
        <time>2015-08-14T11:00:04Z</time>
      </trkpt>
      <trkpt lat="42.2493420" lon="1.8211550">
        <ele>1397.2</ele>
        <time>2015-08-14T11:00:06Z</time>
      </trkpt>
      <trkpt lat="42.2493540" lon="1.8211980">
        <ele>1398.5</ele>
        <time>2015-08-14T11:00:08Z</time>
      </trkpt>
      <trkpt lat="42.2493820" lon="1.8212070">
        <ele>1399.9</ele>
        <time>2015-08-14T11:00:10Z</time>
      </trkpt>
      <trkpt lat="42.2494160" lon="1.8212220">
        <ele>1401.7</ele>
        <time>2015-08-14T11:00:12Z</time>
      </trkpt>
      <trkpt lat="42.2494150" lon="1.8212610">
        <ele>1402.1</ele>
        <time>2015-08-14T11:00:13Z</time>
      </trkpt>
      <trkpt lat="42.2494320" lon="1.8212960">
        <ele>1402.8</ele>
        <time>2015-08-14T11:00:15Z</time>
      </trkpt>
      <trkpt lat="42.2494640" lon="1.8213210">
        <ele>1404.2</ele>
        <time>2015-08-14T11:00:17Z</time>
      </trkpt>
      <trkpt lat="42.2494880" lon="1.8213590">
        <ele>1405.2</ele>
        <time>2015-08-14T11:00:19Z</time>
      </trkpt>
      <trkpt lat="42.2494960" lon="1.8214080">
        <ele>1405.4</ele>
        <time>2015-08-14T11:00:21Z</time>
      </trkpt>
      <trkpt lat="42.2495220" lon="1.8214600">
        <ele>1406.5</ele>
        <time>2015-08-14T11:00:23Z</time>
      </trkpt>
      <trkpt lat="42.2495370" lon="1.8214950">
        <ele>1407.0</ele>
        <time>2015-08-14T11:00:25Z</time>
      </trkpt>
      <trkpt lat="42.2495600" lon="1.8215450">
        <ele>1407.9</ele>
        <time>2015-08-14T11:00:27Z</time>
      </trkpt>
      <trkpt lat="42.2495780" lon="1.8215990">
        <ele>1408.5</ele>
        <time>2015-08-14T11:00:29Z</time>
      </trkpt>
      <trkpt lat="42.2495920" lon="1.8216500">
        <ele>1408.9</ele>
        <time>2015-08-14T11:00:31Z</time>
      </trkpt>
      <trkpt lat="42.2495990" lon="1.8216950">
        <ele>1409.1</ele>
        <time>2015-08-14T11:00:34Z</time>
      </trkpt>
      <trkpt lat="42.2496050" lon="1.8217440">
        <ele>1409.2</ele>
        <time>2015-08-14T11:00:36Z</time>
      </trkpt>
      <trkpt lat="42.2496190" lon="1.8217920">
        <ele>1409.6</ele>
        <time>2015-08-14T11:00:39Z</time>
      </trkpt>
      <trkpt lat="42.2496280" lon="1.8218280">
        <ele>1409.9</ele>
        <time>2015-08-14T11:00:41Z</time>
      </trkpt>
      <trkpt lat="42.2496150" lon="1.8218880">
        <ele>1409.1</ele>
        <time>2015-08-14T11:00:43Z</time>
      </trkpt>
      <trkpt lat="42.2496040" lon="1.8219370">
        <ele>1408.5</ele>
        <time>2015-08-14T11:00:45Z</time>
      </trkpt>
      <trkpt lat="42.2495890" lon="1.8219870">
        <ele>1407.6</ele>
        <time>2015-08-14T11:00:47Z</time>
      </trkpt>
      <trkpt lat="42.2495880" lon="1.8220250">
        <ele>1407.4</ele>
        <time>2015-08-14T11:00:48Z</time>
      </trkpt>
      <trkpt lat="42.2495900" lon="1.8220750">
        <ele>1407.3</ele>
        <time>2015-08-14T11:00:50Z</time>
      </trkpt>
      <trkpt lat="42.2495940" lon="1.8221160">
        <ele>1407.8</ele>
        <time>2015-08-14T11:00:52Z</time>
      </trkpt>
      <trkpt lat="42.2495870" lon="1.8221760">
        <ele>1408.0</ele>
        <time>2015-08-14T11:00:54Z</time>
      </trkpt>
      <trkpt lat="42.2495620" lon="1.8222300">
        <ele>1407.4</ele>
        <time>2015-08-14T11:00:56Z</time>
      </trkpt>
      <trkpt lat="42.2495540" lon="1.8222790">
        <ele>1407.5</ele>
        <time>2015-08-14T11:00:59Z</time>
      </trkpt>
      <trkpt lat="42.2495430" lon="1.8223140">
        <ele>1407.4</ele>
        <time>2015-08-14T11:01:01Z</time>
      </trkpt>
      <trkpt lat="42.2495310" lon="1.8223540">
        <ele>1407.3</ele>
        <time>2015-08-14T11:01:03Z</time>
      </trkpt>
      <trkpt lat="42.2495090" lon="1.8224020">
        <ele>1407.0</ele>
        <time>2015-08-14T11:01:05Z</time>
      </trkpt>
      <trkpt lat="42.2494960" lon="1.8224580">
        <ele>1407.1</ele>
        <time>2015-08-14T11:01:07Z</time>
      </trkpt>
      <trkpt lat="42.2494850" lon="1.8225020">
        <ele>1407.1</ele>
        <time>2015-08-14T11:01:09Z</time>
      </trkpt>
      <trkpt lat="42.2494860" lon="1.8225460">
        <ele>1407.6</ele>
        <time>2015-08-14T11:01:11Z</time>
      </trkpt>
      <trkpt lat="42.2494850" lon="1.8226050">
        <ele>1408.1</ele>
        <time>2015-08-14T11:01:13Z</time>
      </trkpt>
      <trkpt lat="42.2494650" lon="1.8226560">
        <ele>1408.0</ele>
        <time>2015-08-14T11:01:15Z</time>
      </trkpt>
      <trkpt lat="42.2494450" lon="1.8227160">
        <ele>1407.9</ele>
        <time>2015-08-14T11:01:17Z</time>
      </trkpt>
      <trkpt lat="42.2494290" lon="1.8227610">
        <ele>1407.9</ele>
        <time>2015-08-14T11:01:19Z</time>
      </trkpt>
      <trkpt lat="42.2494270" lon="1.8228050">
        <ele>1408.3</ele>
        <time>2015-08-14T11:01:20Z</time>
      </trkpt>
      <trkpt lat="42.2494100" lon="1.8228670">
        <ele>1408.5</ele>
        <time>2015-08-14T11:01:22Z</time>
      </trkpt>
      <trkpt lat="42.2493910" lon="1.8229130">
        <ele>1408.4</ele>
        <time>2015-08-14T11:01:24Z</time>
      </trkpt>
      <trkpt lat="42.2493820" lon="1.8229500">
        <ele>1409.1</ele>
        <time>2015-08-14T11:01:26Z</time>
      </trkpt>
      <trkpt lat="42.2493720" lon="1.8230030">
        <ele>1410.2</ele>
        <time>2015-08-14T11:01:28Z</time>
      </trkpt>
      <trkpt lat="42.2493620" lon="1.8230470">
        <ele>1411.1</ele>
        <time>2015-08-14T11:01:30Z</time>
      </trkpt>
      <trkpt lat="42.2493490" lon="1.8230860">
        <ele>1411.8</ele>
        <time>2015-08-14T11:01:32Z</time>
      </trkpt>
      <trkpt lat="42.2493350" lon="1.8231280">
        <ele>1412.5</ele>
        <time>2015-08-14T11:01:34Z</time>
      </trkpt>
      <trkpt lat="42.2493180" lon="1.8231770">
        <ele>1413.3</ele>
        <time>2015-08-14T11:01:36Z</time>
      </trkpt>
      <trkpt lat="42.2493370" lon="1.8232190">
        <ele>1415.0</ele>
        <time>2015-08-14T11:01:38Z</time>
      </trkpt>
      <trkpt lat="42.2493040" lon="1.8232540">
        <ele>1415.0</ele>
        <time>2015-08-14T11:01:41Z</time>
      </trkpt>
      <trkpt lat="42.2492730" lon="1.8232760">
        <ele>1414.7</ele>
        <time>2015-08-14T11:01:43Z</time>
      </trkpt>
      <trkpt lat="42.2492370" lon="1.8232880">
        <ele>1414.0</ele>
        <time>2015-08-14T11:01:45Z</time>
      </trkpt>
      <trkpt lat="42.2491840" lon="1.8233070">
        <ele>1413.0</ele>
        <time>2015-08-14T11:01:47Z</time>
      </trkpt>
      <trkpt lat="42.2491660" lon="1.8233490">
        <ele>1413.7</ele>
        <time>2015-08-14T11:01:48Z</time>
      </trkpt>
      <trkpt lat="42.2491350" lon="1.8233830">
        <ele>1413.7</ele>
        <time>2015-08-14T11:01:50Z</time>
      </trkpt>
      <trkpt lat="42.2490910" lon="1.8234030">
        <ele>1413.0</ele>
        <time>2015-08-14T11:01:52Z</time>
      </trkpt>
      <trkpt lat="42.2490460" lon="1.8234190">
        <ele>1412.2</ele>
        <time>2015-08-14T11:01:54Z</time>
      </trkpt>
      <trkpt lat="42.2490050" lon="1.8234200">
        <ele>1411.1</ele>
        <time>2015-08-14T11:01:56Z</time>
      </trkpt>
      <trkpt lat="42.2489760" lon="1.8234230">
        <ele>1410.3</ele>
        <time>2015-08-14T11:01:58Z</time>
      </trkpt>
      <trkpt lat="42.2489370" lon="1.8234270">
        <ele>1409.3</ele>
        <time>2015-08-14T11:02:00Z</time>
      </trkpt>
      <trkpt lat="42.2489020" lon="1.8234210">
        <ele>1408.2</ele>
        <time>2015-08-14T11:02:02Z</time>
      </trkpt>
      <trkpt lat="42.2488620" lon="1.8234170">
        <ele>1407.0</ele>
        <time>2015-08-14T11:02:03Z</time>
      </trkpt>
      <trkpt lat="42.2488190" lon="1.8234210">
        <ele>1405.9</ele>
        <time>2015-08-14T11:02:04Z</time>
      </trkpt>
      <trkpt lat="42.2487880" lon="1.8234180">
        <ele>1404.9</ele>
        <time>2015-08-14T11:02:06Z</time>
      </trkpt>
      <trkpt lat="42.2487600" lon="1.8234300">
        <ele>1404.4</ele>
        <time>2015-08-14T11:02:07Z</time>
      </trkpt>
      <trkpt lat="42.2487360" lon="1.8234540">
        <ele>1404.5</ele>
        <time>2015-08-14T11:02:09Z</time>
      </trkpt>
      <trkpt lat="42.2487050" lon="1.8235130">
        <ele>1405.4</ele>
        <time>2015-08-14T11:02:12Z</time>
      </trkpt>
      <trkpt lat="42.2486880" lon="1.8235430">
        <ele>1405.8</ele>
        <time>2015-08-14T11:02:13Z</time>
      </trkpt>
      <trkpt lat="42.2486660" lon="1.8235720">
        <ele>1406.0</ele>
        <time>2015-08-14T11:02:14Z</time>
      </trkpt>
      <trkpt lat="42.2486500" lon="1.8236140">
        <ele>1406.7</ele>
        <time>2015-08-14T11:02:17Z</time>
      </trkpt>
      <trkpt lat="42.2486210" lon="1.8236700">
        <ele>1407.4</ele>
        <time>2015-08-14T11:02:20Z</time>
      </trkpt>
      <trkpt lat="42.2486290" lon="1.8237090">
        <ele>1408.6</ele>
        <time>2015-08-14T11:02:21Z</time>
      </trkpt>
      <trkpt lat="42.2486160" lon="1.8237580">
        <ele>1409.6</ele>
        <time>2015-08-14T11:02:23Z</time>
      </trkpt>
      <trkpt lat="42.2485920" lon="1.8238040">
        <ele>1410.4</ele>
        <time>2015-08-14T11:02:25Z</time>
      </trkpt>
      <trkpt lat="42.2485950" lon="1.8238650">
        <ele>1412.4</ele>
        <time>2015-08-14T11:02:27Z</time>
      </trkpt>
      <trkpt lat="42.2485660" lon="1.8239010">
        <ele>1412.8</ele>
        <time>2015-08-14T11:02:29Z</time>
      </trkpt>
      <trkpt lat="42.2485360" lon="1.8239340">
        <ele>1413.0</ele>
        <time>2015-08-14T11:02:31Z</time>
      </trkpt>
      <trkpt lat="42.2485060" lon="1.8239740">
        <ele>1413.4</ele>
        <time>2015-08-14T11:02:33Z</time>
      </trkpt>
      <trkpt lat="42.2484870" lon="1.8240160">
        <ele>1414.3</ele>
        <time>2015-08-14T11:02:35Z</time>
      </trkpt>
      <trkpt lat="42.2484560" lon="1.8240590">
        <ele>1414.8</ele>
        <time>2015-08-14T11:02:37Z</time>
      </trkpt>
      <trkpt lat="42.2484310" lon="1.8241090">
        <ele>1415.7</ele>
        <time>2015-08-14T11:02:39Z</time>
      </trkpt>
      <trkpt lat="42.2484110" lon="1.8241390">
        <ele>1416.1</ele>
        <time>2015-08-14T11:02:41Z</time>
      </trkpt>
      <trkpt lat="42.2483840" lon="1.8241820">
        <ele>1416.7</ele>
        <time>2015-08-14T11:02:44Z</time>
      </trkpt>
      <trkpt lat="42.2483590" lon="1.8242230">
        <ele>1417.3</ele>
        <time>2015-08-14T11:02:46Z</time>
      </trkpt>
      <trkpt lat="42.2483280" lon="1.8242280">
        <ele>1416.5</ele>
        <time>2015-08-14T11:02:47Z</time>
      </trkpt>
      <trkpt lat="42.2482970" lon="1.8242600">
        <ele>1416.7</ele>
        <time>2015-08-14T11:02:49Z</time>
      </trkpt>
      <trkpt lat="42.2482850" lon="1.8243130">
        <ele>1418.0</ele>
        <time>2015-08-14T11:02:52Z</time>
      </trkpt>
      <trkpt lat="42.2482540" lon="1.8243450">
        <ele>1418.2</ele>
        <time>2015-08-14T11:02:54Z</time>
      </trkpt>
      <trkpt lat="42.2482330" lon="1.8243820">
        <ele>1418.7</ele>
        <time>2015-08-14T11:02:56Z</time>
      </trkpt>
      <trkpt lat="42.2481990" lon="1.8244170">
        <ele>1418.9</ele>
        <time>2015-08-14T11:02:58Z</time>
      </trkpt>
      <trkpt lat="42.2481840" lon="1.8244480">
        <ele>1419.4</ele>
        <time>2015-08-14T11:03:00Z</time>
      </trkpt>
      <trkpt lat="42.2481540" lon="1.8244780">
        <ele>1419.5</ele>
        <time>2015-08-14T11:03:02Z</time>
      </trkpt>
      <trkpt lat="42.2481210" lon="1.8245190">
        <ele>1419.9</ele>
        <time>2015-08-14T11:03:04Z</time>
      </trkpt>
      <trkpt lat="42.2480950" lon="1.8245570">
        <ele>1420.3</ele>
        <time>2015-08-14T11:03:06Z</time>
      </trkpt>
      <trkpt lat="42.2480700" lon="1.8245970">
        <ele>1420.9</ele>
        <time>2015-08-14T11:03:08Z</time>
      </trkpt>
      <trkpt lat="42.2480650" lon="1.8246340">
        <ele>1422.0</ele>
        <time>2015-08-14T11:03:10Z</time>
      </trkpt>
      <trkpt lat="42.2480580" lon="1.8246770">
        <ele>1423.2</ele>
        <time>2015-08-14T11:03:12Z</time>
      </trkpt>
      <trkpt lat="42.2480260" lon="1.8247110">
        <ele>1423.4</ele>
        <time>2015-08-14T11:03:14Z</time>
      </trkpt>
      <trkpt lat="42.2479960" lon="1.8247450">
        <ele>1423.7</ele>
        <time>2015-08-14T11:03:16Z</time>
      </trkpt>
      <trkpt lat="42.2479680" lon="1.8247860">
        <ele>1424.3</ele>
        <time>2015-08-14T11:03:18Z</time>
      </trkpt>
      <trkpt lat="42.2479200" lon="1.8248130">
        <ele>1423.8</ele>
        <time>2015-08-14T11:03:20Z</time>
      </trkpt>
      <trkpt lat="42.2478820" lon="1.8248420">
        <ele>1425.2</ele>
        <time>2015-08-14T11:03:22Z</time>
      </trkpt>
      <trkpt lat="42.2478550" lon="1.8248720">
        <ele>1426.6</ele>
        <time>2015-08-14T11:03:24Z</time>
      </trkpt>
      <trkpt lat="42.2478300" lon="1.8249010">
        <ele>1427.9</ele>
        <time>2015-08-14T11:03:26Z</time>
      </trkpt>
      <trkpt lat="42.2478010" lon="1.8249300">
        <ele>1429.2</ele>
        <time>2015-08-14T11:03:28Z</time>
      </trkpt>
      <trkpt lat="42.2477880" lon="1.8249690">
        <ele>1430.6</ele>
        <time>2015-08-14T11:03:30Z</time>
      </trkpt>
      <trkpt lat="42.2477690" lon="1.8249980">
        <ele>1431.7</ele>
        <time>2015-08-14T11:03:32Z</time>
      </trkpt>
      <trkpt lat="42.2477310" lon="1.8250290">
        <ele>1433.1</ele>
        <time>2015-08-14T11:03:35Z</time>
      </trkpt>
      <trkpt lat="42.2477050" lon="1.8250600">
        <ele>1434.3</ele>
        <time>2015-08-14T11:03:37Z</time>
      </trkpt>
      <trkpt lat="42.2476760" lon="1.8250990">
        <ele>1435.7</ele>
        <time>2015-08-14T11:03:40Z</time>
      </trkpt>
      <trkpt lat="42.2476360" lon="1.8251220">
        <ele>1436.7</ele>
        <time>2015-08-14T11:03:42Z</time>
      </trkpt>
      <trkpt lat="42.2476070" lon="1.8251460">
        <ele>1437.6</ele>
        <time>2015-08-14T11:03:44Z</time>
      </trkpt>
      <trkpt lat="42.2475690" lon="1.8251620">
        <ele>1438.3</ele>
        <time>2015-08-14T11:03:46Z</time>
      </trkpt>
      <trkpt lat="42.2475320" lon="1.8251870">
        <ele>1439.2</ele>
        <time>2015-08-14T11:03:48Z</time>
      </trkpt>
      <trkpt lat="42.2474890" lon="1.8252010">
        <ele>1439.9</ele>
        <time>2015-08-14T11:03:50Z</time>
      </trkpt>
      <trkpt lat="42.2474630" lon="1.8252100">
        <ele>1440.3</ele>
        <time>2015-08-14T11:03:51Z</time>
      </trkpt>
      <trkpt lat="42.2474220" lon="1.8252200">
        <ele>1440.8</ele>
        <time>2015-08-14T11:03:53Z</time>
      </trkpt>
      <trkpt lat="42.2473790" lon="1.8252540">
        <ele>1441.8</ele>
        <time>2015-08-14T11:03:55Z</time>
      </trkpt>
      <trkpt lat="42.2473510" lon="1.8252710">
        <ele>1442.4</ele>
        <time>2015-08-14T11:03:57Z</time>
      </trkpt>
      <trkpt lat="42.2473250" lon="1.8252990">
        <ele>1443.1</ele>
        <time>2015-08-14T11:03:58Z</time>
      </trkpt>
      <trkpt lat="42.2472900" lon="1.8253070">
        <ele>1443.4</ele>
        <time>2015-08-14T11:04:00Z</time>
      </trkpt>
      <trkpt lat="42.2472440" lon="1.8253460">
        <ele>1444.3</ele>
        <time>2015-08-14T11:04:02Z</time>
      </trkpt>
      <trkpt lat="42.2472080" lon="1.8253600">
        <ele>1444.7</ele>
        <time>2015-08-14T11:04:04Z</time>
      </trkpt>
      <trkpt lat="42.2471780" lon="1.8253780">
        <ele>1445.1</ele>
        <time>2015-08-14T11:04:06Z</time>
      </trkpt>
      <trkpt lat="42.2471590" lon="1.8254240">
        <ele>1446.0</ele>
        <time>2015-08-14T11:04:08Z</time>
      </trkpt>
      <trkpt lat="42.2471070" lon="1.8254470">
        <ele>1446.5</ele>
        <time>2015-08-14T11:04:11Z</time>
      </trkpt>
      <trkpt lat="42.2470680" lon="1.8254590">
        <ele>1447.3</ele>
        <time>2015-08-14T11:04:13Z</time>
      </trkpt>
      <trkpt lat="42.2470390" lon="1.8254720">
        <ele>1448.7</ele>
        <time>2015-08-14T11:04:15Z</time>
      </trkpt>
      <trkpt lat="42.2470080" lon="1.8254860">
        <ele>1450.1</ele>
        <time>2015-08-14T11:04:17Z</time>
      </trkpt>
      <trkpt lat="42.2469790" lon="1.8255030">
        <ele>1451.5</ele>
        <time>2015-08-14T11:04:19Z</time>
      </trkpt>
      <trkpt lat="42.2469510" lon="1.8255160">
        <ele>1452.7</ele>
        <time>2015-08-14T11:04:21Z</time>
      </trkpt>
      <trkpt lat="42.2469250" lon="1.8255270">
        <ele>1453.9</ele>
        <time>2015-08-14T11:04:23Z</time>
      </trkpt>
      <trkpt lat="42.2468980" lon="1.8255410">
        <ele>1455.1</ele>
        <time>2015-08-14T11:04:24Z</time>
      </trkpt>
      <trkpt lat="42.2468600" lon="1.8255760">
        <ele>1456.9</ele>
        <time>2015-08-14T11:04:26Z</time>
      </trkpt>
      <trkpt lat="42.2468240" lon="1.8256080">
        <ele>1458.5</ele>
        <time>2015-08-14T11:04:28Z</time>
      </trkpt>
      <trkpt lat="42.2467890" lon="1.8256140">
        <ele>1459.8</ele>
        <time>2015-08-14T11:04:30Z</time>
      </trkpt>
      <trkpt lat="42.2467430" lon="1.8256350">
        <ele>1461.6</ele>
        <time>2015-08-14T11:04:32Z</time>
      </trkpt>
      <trkpt lat="42.2467150" lon="1.8256540">
        <ele>1462.7</ele>
        <time>2015-08-14T11:04:34Z</time>
      </trkpt>
      <trkpt lat="42.2466880" lon="1.8256790">
        <ele>1463.8</ele>
        <time>2015-08-14T11:04:36Z</time>
      </trkpt>
      <trkpt lat="42.2466640" lon="1.8257010">
        <ele>1464.8</ele>
        <time>2015-08-14T11:04:38Z</time>
      </trkpt>
      <trkpt lat="42.2466280" lon="1.8256800">
        <ele>1465.9</ele>
        <time>2015-08-14T11:04:41Z</time>
      </trkpt>
      <trkpt lat="42.2466010" lon="1.8257200">
        <ele>1467.0</ele>
        <time>2015-08-14T11:04:43Z</time>
      </trkpt>
      <trkpt lat="42.2465740" lon="1.8257440">
        <ele>1468.0</ele>
        <time>2015-08-14T11:04:45Z</time>
      </trkpt>
      <trkpt lat="42.2465450" lon="1.8257870">
        <ele>1469.0</ele>
        <time>2015-08-14T11:04:48Z</time>
      </trkpt>
      <trkpt lat="42.2465170" lon="1.8257770">
        <ele>1469.9</ele>
        <time>2015-08-14T11:04:51Z</time>
      </trkpt>
      <trkpt lat="42.2464860" lon="1.8257590">
        <ele>1470.8</ele>
        <time>2015-08-14T11:05:09Z</time>
      </trkpt>
      <trkpt lat="42.2464850" lon="1.8257220">
        <ele>1470.8</ele>
        <time>2015-08-14T11:05:12Z</time>
      </trkpt>
      <trkpt lat="42.2465080" lon="1.8257010">
        <ele>1470.0</ele>
        <time>2015-08-14T11:05:23Z</time>
      </trkpt>
      <trkpt lat="42.2465240" lon="1.8257290">
        <ele>1469.5</ele>
        <time>2015-08-14T11:11:12Z</time>
      </trkpt>
      <trkpt lat="42.2465250" lon="1.8256900">
        <ele>1469.4</ele>
        <time>2015-08-14T11:17:13Z</time>
      </trkpt>
      <trkpt lat="42.2465600" lon="1.8256930">
        <ele>1468.2</ele>
        <time>2015-08-14T11:18:04Z</time>
      </trkpt>
      <trkpt lat="42.2465690" lon="1.8257310">
        <ele>1468.1</ele>
        <time>2015-08-14T11:18:26Z</time>
      </trkpt>
      <trkpt lat="42.2465430" lon="1.8257410">
        <ele>1469.0</ele>
        <time>2015-08-14T11:18:43Z</time>
      </trkpt>
      <trkpt lat="42.2465160" lon="1.8257340">
        <ele>1469.8</ele>
        <time>2015-08-14T11:19:24Z</time>
      </trkpt>
      <trkpt lat="42.2465430" lon="1.8257350">
        <ele>1468.9</ele>
        <time>2015-08-14T11:20:00Z</time>
      </trkpt>
      <trkpt lat="42.2465200" lon="1.8257140">
        <ele>1469.6</ele>
        <time>2015-08-14T11:26:12Z</time>
      </trkpt>
      <trkpt lat="42.2464950" lon="1.8257280">
        <ele>1470.5</ele>
        <time>2015-08-14T11:28:49Z</time>
      </trkpt>
      <trkpt lat="42.2464740" lon="1.8256860">
        <ele>1471.1</ele>
        <time>2015-08-14T11:30:44Z</time>
      </trkpt>
      <trkpt lat="42.2464410" lon="1.8256140">
        <ele>1472.2</ele>
        <time>2015-08-14T11:30:46Z</time>
      </trkpt>
      <trkpt lat="42.2464240" lon="1.8255670">
        <ele>1472.9</ele>
        <time>2015-08-14T11:30:48Z</time>
      </trkpt>
      <trkpt lat="42.2463830" lon="1.8255170">
        <ele>1474.4</ele>
        <time>2015-08-14T11:30:50Z</time>
      </trkpt>
      <trkpt lat="42.2463570" lon="1.8255010">
        <ele>1475.5</ele>
        <time>2015-08-14T11:30:51Z</time>
      </trkpt>
      <trkpt lat="42.2463650" lon="1.8254290">
        <ele>1475.3</ele>
        <time>2015-08-14T11:30:52Z</time>
      </trkpt>
      <trkpt lat="42.2463390" lon="1.8253910">
        <ele>1476.3</ele>
        <time>2015-08-14T11:30:53Z</time>
      </trkpt>
      <trkpt lat="42.2463270" lon="1.8253520">
        <ele>1476.7</ele>
        <time>2015-08-14T11:30:54Z</time>
      </trkpt>
      <trkpt lat="42.2463100" lon="1.8252970">
        <ele>1477.3</ele>
        <time>2015-08-14T11:30:55Z</time>
      </trkpt>
      <trkpt lat="42.2462990" lon="1.8252560">
        <ele>1477.7</ele>
        <time>2015-08-14T11:30:56Z</time>
      </trkpt>
      <trkpt lat="42.2462810" lon="1.8252220">
        <ele>1478.4</ele>
        <time>2015-08-14T11:30:57Z</time>
      </trkpt>
      <trkpt lat="42.2462430" lon="1.8251750">
        <ele>1479.9</ele>
        <time>2015-08-14T11:30:58Z</time>
      </trkpt>
      <trkpt lat="42.2462340" lon="1.8251280">
        <ele>1480.1</ele>
        <time>2015-08-14T11:30:59Z</time>
      </trkpt>
      <trkpt lat="42.2462180" lon="1.8250930">
        <ele>1480.4</ele>
        <time>2015-08-14T11:31:00Z</time>
      </trkpt>
      <trkpt lat="42.2462060" lon="1.8250480">
        <ele>1480.6</ele>
        <time>2015-08-14T11:31:01Z</time>
      </trkpt>
      <trkpt lat="42.2461930" lon="1.8250150">
        <ele>1480.9</ele>
        <time>2015-08-14T11:31:02Z</time>
      </trkpt>
      <trkpt lat="42.2461810" lon="1.8249570">
        <ele>1481.0</ele>
        <time>2015-08-14T11:31:03Z</time>
      </trkpt>
      <trkpt lat="42.2461650" lon="1.8249190">
        <ele>1481.3</ele>
        <time>2015-08-14T11:31:04Z</time>
      </trkpt>
      <trkpt lat="42.2461510" lon="1.8248850">
        <ele>1481.5</ele>
        <time>2015-08-14T11:31:05Z</time>
      </trkpt>
      <trkpt lat="42.2461200" lon="1.8248060">
        <ele>1482.0</ele>
        <time>2015-08-14T11:31:06Z</time>
      </trkpt>
      <trkpt lat="42.2460990" lon="1.8247540">
        <ele>1482.3</ele>
        <time>2015-08-14T11:31:08Z</time>
      </trkpt>
      <trkpt lat="42.2460790" lon="1.8247250">
        <ele>1482.6</ele>
        <time>2015-08-14T11:31:09Z</time>
      </trkpt>
      <trkpt lat="42.2460560" lon="1.8246830">
        <ele>1482.9</ele>
        <time>2015-08-14T11:31:11Z</time>
      </trkpt>
      <trkpt lat="42.2460340" lon="1.8246400">
        <ele>1483.1</ele>
        <time>2015-08-14T11:31:12Z</time>
      </trkpt>
      <trkpt lat="42.2460070" lon="1.8246080">
        <ele>1483.5</ele>
        <time>2015-08-14T11:31:13Z</time>
      </trkpt>
      <trkpt lat="42.2459780" lon="1.8245870">
        <ele>1483.9</ele>
        <time>2015-08-14T11:31:15Z</time>
      </trkpt>
      <trkpt lat="42.2460200" lon="1.8245530">
        <ele>1482.3</ele>
        <time>2015-08-14T11:31:16Z</time>
      </trkpt>
      <trkpt lat="42.2459980" lon="1.8244980">
        <ele>1481.1</ele>
        <time>2015-08-14T11:31:18Z</time>
      </trkpt>
      <trkpt lat="42.2460260" lon="1.8244390">
        <ele>1479.1</ele>
        <time>2015-08-14T11:31:19Z</time>
      </trkpt>
      <trkpt lat="42.2459980" lon="1.8244160">
        <ele>1478.9</ele>
        <time>2015-08-14T11:31:22Z</time>
      </trkpt>
      <trkpt lat="42.2459770" lon="1.8243870">
        <ele>1478.4</ele>
        <time>2015-08-14T11:31:24Z</time>
      </trkpt>
      <trkpt lat="42.2459670" lon="1.8243500">
        <ele>1477.4</ele>
        <time>2015-08-14T11:31:26Z</time>
      </trkpt>
      <trkpt lat="42.2459530" lon="1.8243050">
        <ele>1476.4</ele>
        <time>2015-08-14T11:31:29Z</time>
      </trkpt>
      <trkpt lat="42.2459470" lon="1.8242690">
        <ele>1475.4</ele>
        <time>2015-08-14T11:31:33Z</time>
      </trkpt>
      <trkpt lat="42.2459480" lon="1.8242220">
        <ele>1474.0</ele>
        <time>2015-08-14T11:31:35Z</time>
      </trkpt>
      <trkpt lat="42.2459360" lon="1.8241490">
        <ele>1472.1</ele>
        <time>2015-08-14T11:31:40Z</time>
      </trkpt>
      <trkpt lat="42.2459150" lon="1.8241130">
        <ele>1471.2</ele>
        <time>2015-08-14T11:31:42Z</time>
      </trkpt>
      <trkpt lat="42.2459030" lon="1.8240470">
        <ele>1469.4</ele>
        <time>2015-08-14T11:31:45Z</time>
      </trkpt>
      <trkpt lat="42.2458840" lon="1.8240190">
        <ele>1468.8</ele>
        <time>2015-08-14T11:31:50Z</time>
      </trkpt>
      <trkpt lat="42.2459070" lon="1.8239930">
        <ele>1467.8</ele>
        <time>2015-08-14T11:31:52Z</time>
      </trkpt>
      <trkpt lat="42.2458950" lon="1.8239580">
        <ele>1466.9</ele>
        <time>2015-08-14T11:31:55Z</time>
      </trkpt>
      <trkpt lat="42.2458650" lon="1.8239390">
        <ele>1466.5</ele>
        <time>2015-08-14T11:31:58Z</time>
      </trkpt>
      <trkpt lat="42.2458280" lon="1.8238770">
        <ele>1464.9</ele>
        <time>2015-08-14T11:32:01Z</time>
      </trkpt>
      <trkpt lat="42.2458240" lon="1.8238260">
        <ele>1463.4</ele>
        <time>2015-08-14T11:32:03Z</time>
      </trkpt>
      <trkpt lat="42.2458150" lon="1.8237760">
        <ele>1461.9</ele>
        <time>2015-08-14T11:32:05Z</time>
      </trkpt>
      <trkpt lat="42.2458100" lon="1.8237250">
        <ele>1460.4</ele>
        <time>2015-08-14T11:32:07Z</time>
      </trkpt>
      <trkpt lat="42.2457850" lon="1.8236690">
        <ele>1458.9</ele>
        <time>2015-08-14T11:32:10Z</time>
      </trkpt>
      <trkpt lat="42.2457740" lon="1.8236200">
        <ele>1457.5</ele>
        <time>2015-08-14T11:32:12Z</time>
      </trkpt>
      <trkpt lat="42.2457670" lon="1.8235760">
        <ele>1456.3</ele>
        <time>2015-08-14T11:32:15Z</time>
      </trkpt>
      <trkpt lat="42.2457550" lon="1.8235100">
        <ele>1454.3</ele>
        <time>2015-08-14T11:32:17Z</time>
      </trkpt>
      <trkpt lat="42.2457500" lon="1.8234580">
        <ele>1452.8</ele>
        <time>2015-08-14T11:32:19Z</time>
      </trkpt>
      <trkpt lat="42.2457470" lon="1.8234200">
        <ele>1451.6</ele>
        <time>2015-08-14T11:32:22Z</time>
      </trkpt>
      <trkpt lat="42.2457150" lon="1.8233900">
        <ele>1450.6</ele>
        <time>2015-08-14T11:32:24Z</time>
      </trkpt>
      <trkpt lat="42.2456940" lon="1.8233600">
        <ele>1449.5</ele>
        <time>2015-08-14T11:32:27Z</time>
      </trkpt>
      <trkpt lat="42.2456680" lon="1.8233390">
        <ele>1448.6</ele>
        <time>2015-08-14T11:32:31Z</time>
      </trkpt>
      <trkpt lat="42.2456480" lon="1.8233100">
        <ele>1447.5</ele>
        <time>2015-08-14T11:32:34Z</time>
      </trkpt>
      <trkpt lat="42.2456260" lon="1.8232880">
        <ele>1446.6</ele>
        <time>2015-08-14T11:32:36Z</time>
      </trkpt>
      <trkpt lat="42.2456000" lon="1.8232760">
        <ele>1446.0</ele>
        <time>2015-08-14T11:32:37Z</time>
      </trkpt>
      <trkpt lat="42.2455840" lon="1.8232330">
        <ele>1444.3</ele>
        <time>2015-08-14T11:32:39Z</time>
      </trkpt>
      <trkpt lat="42.2455610" lon="1.8232120">
        <ele>1443.4</ele>
        <time>2015-08-14T11:32:41Z</time>
      </trkpt>
      <trkpt lat="42.2455510" lon="1.8231630">
        <ele>1441.5</ele>
        <time>2015-08-14T11:32:43Z</time>
      </trkpt>
      <trkpt lat="42.2455330" lon="1.8231340">
        <ele>1440.2</ele>
        <time>2015-08-14T11:32:45Z</time>
      </trkpt>
      <trkpt lat="42.2455020" lon="1.8231070">
        <ele>1438.8</ele>
        <time>2015-08-14T11:32:47Z</time>
      </trkpt>
      <trkpt lat="42.2454760" lon="1.8230810">
        <ele>1437.4</ele>
        <time>2015-08-14T11:32:49Z</time>
      </trkpt>
      <trkpt lat="42.2454440" lon="1.8230820">
        <ele>1437.0</ele>
        <time>2015-08-14T11:32:53Z</time>
      </trkpt>
      <trkpt lat="42.2454100" lon="1.8231310">
        <ele>1438.3</ele>
        <time>2015-08-14T11:32:56Z</time>
      </trkpt>
      <trkpt lat="42.2453750" lon="1.8231550">
        <ele>1438.0</ele>
        <time>2015-08-14T11:32:58Z</time>
      </trkpt>
      <trkpt lat="42.2453400" lon="1.8231800">
        <ele>1437.8</ele>
        <time>2015-08-14T11:33:00Z</time>
      </trkpt>
      <trkpt lat="42.2453130" lon="1.8231720">
        <ele>1436.5</ele>
        <time>2015-08-14T11:33:02Z</time>
      </trkpt>
      <trkpt lat="42.2452740" lon="1.8231790">
        <ele>1435.4</ele>
        <time>2015-08-14T11:33:03Z</time>
      </trkpt>
      <trkpt lat="42.2453110" lon="1.8231760">
        <ele>1436.6</ele>
        <time>2015-08-14T11:33:08Z</time>
      </trkpt>
      <trkpt lat="42.2452750" lon="1.8231840">
        <ele>1435.7</ele>
        <time>2015-08-14T11:33:14Z</time>
      </trkpt>
      <trkpt lat="42.2452570" lon="1.8232190">
        <ele>1436.4</ele>
        <time>2015-08-14T11:33:17Z</time>
      </trkpt>
      <trkpt lat="42.2452310" lon="1.8232000">
        <ele>1434.7</ele>
        <time>2015-08-14T11:33:29Z</time>
      </trkpt>
      <trkpt lat="42.2451860" lon="1.8232140">
        <ele>1433.7</ele>
        <time>2015-08-14T11:34:18Z</time>
      </trkpt>
      <trkpt lat="42.2451520" lon="1.8232160">
        <ele>1432.6</ele>
        <time>2015-08-14T11:34:20Z</time>
      </trkpt>
      <trkpt lat="42.2451250" lon="1.8232120">
        <ele>1431.5</ele>
        <time>2015-08-14T11:34:22Z</time>
      </trkpt>
      <trkpt lat="42.2450960" lon="1.8232290">
        <ele>1431.1</ele>
        <time>2015-08-14T11:34:24Z</time>
      </trkpt>
      <trkpt lat="42.2450650" lon="1.8232600">
        <ele>1431.2</ele>
        <time>2015-08-14T11:34:27Z</time>
      </trkpt>
      <trkpt lat="42.2449980" lon="1.8232650">
        <ele>1429.0</ele>
        <time>2015-08-14T11:34:30Z</time>
      </trkpt>
      <trkpt lat="42.2449490" lon="1.8233210">
        <ele>1429.2</ele>
        <time>2015-08-14T11:34:31Z</time>
      </trkpt>
      <trkpt lat="42.2448520" lon="1.8233300">
        <ele>1426.1</ele>
        <time>2015-08-14T11:34:33Z</time>
      </trkpt>
      <trkpt lat="42.2448800" lon="1.8233240">
        <ele>1426.9</ele>
        <time>2015-08-14T11:34:36Z</time>
      </trkpt>
      <trkpt lat="42.2448440" lon="1.8233160">
        <ele>1425.3</ele>
        <time>2015-08-14T11:34:38Z</time>
      </trkpt>
      <trkpt lat="42.2448190" lon="1.8232970">
        <ele>1423.7</ele>
        <time>2015-08-14T11:34:53Z</time>
      </trkpt>
      <trkpt lat="42.2447850" lon="1.8233010">
        <ele>1422.7</ele>
        <time>2015-08-14T11:34:54Z</time>
      </trkpt>
      <trkpt lat="42.2448250" lon="1.8233100">
        <ele>1424.4</ele>
        <time>2015-08-14T11:34:56Z</time>
      </trkpt>
      <trkpt lat="42.2448610" lon="1.8232960">
        <ele>1425.2</ele>
        <time>2015-08-14T11:34:59Z</time>
      </trkpt>
      <trkpt lat="42.2449040" lon="1.8232710">
        <ele>1425.9</ele>
        <time>2015-08-14T11:35:02Z</time>
      </trkpt>
      <trkpt lat="42.2449650" lon="1.8232690">
        <ele>1427.9</ele>
        <time>2015-08-14T11:35:04Z</time>
      </trkpt>
      <trkpt lat="42.2449880" lon="1.8232470">
        <ele>1428.0</ele>
        <time>2015-08-14T11:35:06Z</time>
      </trkpt>
      <trkpt lat="42.2450280" lon="1.8232250">
        <ele>1428.6</ele>
        <time>2015-08-14T11:35:08Z</time>
      </trkpt>
      <trkpt lat="42.2450530" lon="1.8232440">
        <ele>1430.2</ele>
        <time>2015-08-14T11:35:10Z</time>
      </trkpt>
      <trkpt lat="42.2450290" lon="1.8232060">
        <ele>1427.9</ele>
        <time>2015-08-14T11:35:11Z</time>
      </trkpt>
      <trkpt lat="42.2450120" lon="1.8231680">
        <ele>1426.0</ele>
        <time>2015-08-14T11:35:17Z</time>
      </trkpt>
      <trkpt lat="42.2449900" lon="1.8232010">
        <ele>1426.4</ele>
        <time>2015-08-14T11:35:24Z</time>
      </trkpt>
      <trkpt lat="42.2449530" lon="1.8232170">
        <ele>1425.7</ele>
        <time>2015-08-14T11:35:26Z</time>
      </trkpt>
      <trkpt lat="42.2449030" lon="1.8232130">
        <ele>1423.8</ele>
        <time>2015-08-14T11:35:27Z</time>
      </trkpt>
      <trkpt lat="42.2448170" lon="1.8232220">
        <ele>1421.1</ele>
        <time>2015-08-14T11:35:29Z</time>
      </trkpt>
      <trkpt lat="42.2447810" lon="1.8232330">
        <ele>1420.2</ele>
        <time>2015-08-14T11:35:30Z</time>
      </trkpt>
      <trkpt lat="42.2447410" lon="1.8232510">
        <ele>1419.4</ele>
        <time>2015-08-14T11:35:31Z</time>
      </trkpt>
      <trkpt lat="42.2447040" lon="1.8232840">
        <ele>1419.2</ele>
        <time>2015-08-14T11:35:33Z</time>
      </trkpt>
      <trkpt lat="42.2446710" lon="1.8233410">
        <ele>1419.9</ele>
        <time>2015-08-14T11:35:35Z</time>
      </trkpt>
      <trkpt lat="42.2447320" lon="1.8234250">
        <ele>1424.9</ele>
        <time>2015-08-14T11:35:36Z</time>
      </trkpt>
      <trkpt lat="42.2447390" lon="1.8234660">
        <ele>1426.6</ele>
        <time>2015-08-14T11:35:37Z</time>
      </trkpt>
      <trkpt lat="42.2447210" lon="1.8235080">
        <ele>1427.3</ele>
        <time>2015-08-14T11:35:38Z</time>
      </trkpt>
      <trkpt lat="42.2446840" lon="1.8235270">
        <ele>1426.6</ele>
        <time>2015-08-14T11:35:40Z</time>
      </trkpt>
      <trkpt lat="42.2446580" lon="1.8235430">
        <ele>1426.1</ele>
        <time>2015-08-14T11:35:41Z</time>
      </trkpt>
      <trkpt lat="42.2446200" lon="1.8235640">
        <ele>1425.4</ele>
        <time>2015-08-14T11:35:43Z</time>
      </trkpt>
      <trkpt lat="42.2445880" lon="1.8235600">
        <ele>1424.0</ele>
        <time>2015-08-14T11:35:47Z</time>
      </trkpt>
      <trkpt lat="42.2445670" lon="1.8235940">
        <ele>1424.4</ele>
        <time>2015-08-14T11:36:10Z</time>
      </trkpt>
      <trkpt lat="42.2445400" lon="1.8235770">
        <ele>1423.0</ele>
        <time>2015-08-14T11:36:15Z</time>
      </trkpt>
      <trkpt lat="42.2445110" lon="1.8235870">
        <ele>1422.4</ele>
        <time>2015-08-14T11:36:17Z</time>
      </trkpt>
      <trkpt lat="42.2444690" lon="1.8235920">
        <ele>1421.2</ele>
        <time>2015-08-14T11:36:20Z</time>
      </trkpt>
      <trkpt lat="42.2444450" lon="1.8236110">
        <ele>1421.0</ele>
        <time>2015-08-14T11:36:24Z</time>
      </trkpt>
      <trkpt lat="42.2444000" lon="1.8235930">
        <ele>1418.9</ele>
        <time>2015-08-14T11:36:26Z</time>
      </trkpt>
      <trkpt lat="42.2443740" lon="1.8236020">
        <ele>1418.4</ele>
        <time>2015-08-14T11:36:29Z</time>
      </trkpt>
      <trkpt lat="42.2443960" lon="1.8236480">
        <ele>1420.6</ele>
        <time>2015-08-14T11:36:32Z</time>
      </trkpt>
      <trkpt lat="42.2444040" lon="1.8236840">
        <ele>1422.0</ele>
        <time>2015-08-14T11:36:40Z</time>
      </trkpt>
      <trkpt lat="42.2443470" lon="1.8237980">
        <ele>1423.5</ele>
        <time>2015-08-14T11:37:28Z</time>
      </trkpt>
      <trkpt lat="42.2443160" lon="1.8238160">
        <ele>1422.9</ele>
        <time>2015-08-14T11:37:29Z</time>
      </trkpt>
      <trkpt lat="42.2442460" lon="1.8238540">
        <ele>1421.4</ele>
        <time>2015-08-14T11:37:30Z</time>
      </trkpt>
      <trkpt lat="42.2441830" lon="1.8238630">
        <ele>1419.3</ele>
        <time>2015-08-14T11:37:31Z</time>
      </trkpt>
      <trkpt lat="42.2441420" lon="1.8239070">
        <ele>1418.7</ele>
        <time>2015-08-14T11:37:32Z</time>
      </trkpt>
      <trkpt lat="42.2441210" lon="1.8239540">
        <ele>1418.8</ele>
        <time>2015-08-14T11:37:33Z</time>
      </trkpt>
      <trkpt lat="42.2440870" lon="1.8239950">
        <ele>1418.2</ele>
        <time>2015-08-14T11:37:34Z</time>
      </trkpt>
      <trkpt lat="42.2440570" lon="1.8240320">
        <ele>1417.7</ele>
        <time>2015-08-14T11:37:35Z</time>
      </trkpt>
      <trkpt lat="42.2440270" lon="1.8240670">
        <ele>1417.0</ele>
        <time>2015-08-14T11:37:36Z</time>
      </trkpt>
      <trkpt lat="42.2439770" lon="1.8240910">
        <ele>1415.3</ele>
        <time>2015-08-14T11:37:38Z</time>
      </trkpt>
      <trkpt lat="42.2439390" lon="1.8241180">
        <ele>1414.1</ele>
        <time>2015-08-14T11:37:39Z</time>
      </trkpt>
      <trkpt lat="42.2438890" lon="1.8241450">
        <ele>1412.3</ele>
        <time>2015-08-14T11:37:40Z</time>
      </trkpt>
      <trkpt lat="42.2438580" lon="1.8241690">
        <ele>1411.3</ele>
        <time>2015-08-14T11:37:41Z</time>
      </trkpt>
      <trkpt lat="42.2438040" lon="1.8241850">
        <ele>1409.0</ele>
        <time>2015-08-14T11:37:42Z</time>
      </trkpt>
      <trkpt lat="42.2437890" lon="1.8242170">
        <ele>1408.7</ele>
        <time>2015-08-14T11:37:43Z</time>
      </trkpt>
      <trkpt lat="42.2437880" lon="1.8242770">
        <ele>1409.2</ele>
        <time>2015-08-14T11:37:44Z</time>
      </trkpt>
      <trkpt lat="42.2437660" lon="1.8243020">
        <ele>1408.4</ele>
        <time>2015-08-14T11:37:45Z</time>
      </trkpt>
      <trkpt lat="42.2437410" lon="1.8243820">
        <ele>1407.8</ele>
        <time>2015-08-14T11:37:47Z</time>
      </trkpt>
      <trkpt lat="42.2437210" lon="1.8244350">
        <ele>1407.1</ele>
        <time>2015-08-14T11:37:48Z</time>
      </trkpt>
      <trkpt lat="42.2436890" lon="1.8244920">
        <ele>1405.8</ele>
        <time>2015-08-14T11:37:49Z</time>
      </trkpt>
      <trkpt lat="42.2436710" lon="1.8245420">
        <ele>1405.2</ele>
        <time>2015-08-14T11:37:50Z</time>
      </trkpt>
      <trkpt lat="42.2436590" lon="1.8245880">
        <ele>1405.0</ele>
        <time>2015-08-14T11:37:51Z</time>
      </trkpt>
      <trkpt lat="42.2436450" lon="1.8246360">
        <ele>1405.0</ele>
        <time>2015-08-14T11:37:52Z</time>
      </trkpt>
      <trkpt lat="42.2436330" lon="1.8246830">
        <ele>1405.2</ele>
        <time>2015-08-14T11:37:53Z</time>
      </trkpt>
      <trkpt lat="42.2436230" lon="1.8247240">
        <ele>1405.3</ele>
        <time>2015-08-14T11:37:54Z</time>
      </trkpt>
      <trkpt lat="42.2436170" lon="1.8247690">
        <ele>1405.8</ele>
        <time>2015-08-14T11:37:55Z</time>
      </trkpt>
      <trkpt lat="42.2436030" lon="1.8248170">
        <ele>1405.9</ele>
        <time>2015-08-14T11:37:56Z</time>
      </trkpt>
      <trkpt lat="42.2435890" lon="1.8248520">
        <ele>1405.7</ele>
        <time>2015-08-14T11:37:57Z</time>
      </trkpt>
      <trkpt lat="42.2435650" lon="1.8248940">
        <ele>1405.1</ele>
        <time>2015-08-14T11:37:58Z</time>
      </trkpt>
      <trkpt lat="42.2435500" lon="1.8249350">
        <ele>1404.9</ele>
        <time>2015-08-14T11:37:59Z</time>
      </trkpt>
      <trkpt lat="42.2435340" lon="1.8249670">
        <ele>1404.6</ele>
        <time>2015-08-14T11:38:00Z</time>
      </trkpt>
      <trkpt lat="42.2435220" lon="1.8250060">
        <ele>1404.6</ele>
        <time>2015-08-14T11:38:01Z</time>
      </trkpt>
      <trkpt lat="42.2435130" lon="1.8250460">
        <ele>1404.8</ele>
        <time>2015-08-14T11:38:02Z</time>
      </trkpt>
      <trkpt lat="42.2434790" lon="1.8251220">
        <ele>1404.2</ele>
        <time>2015-08-14T11:38:04Z</time>
      </trkpt>
      <trkpt lat="42.2434640" lon="1.8251600">
        <ele>1404.0</ele>
        <time>2015-08-14T11:38:05Z</time>
      </trkpt>
      <trkpt lat="42.2434460" lon="1.8252020">
        <ele>1403.7</ele>
        <time>2015-08-14T11:38:06Z</time>
      </trkpt>
      <trkpt lat="42.2434450" lon="1.8252670">
        <ele>1404.8</ele>
        <time>2015-08-14T11:38:07Z</time>
      </trkpt>
      <trkpt lat="42.2434360" lon="1.8253290">
        <ele>1405.4</ele>
        <time>2015-08-14T11:38:08Z</time>
      </trkpt>
      <trkpt lat="42.2434150" lon="1.8253650">
        <ele>1404.8</ele>
        <time>2015-08-14T11:38:09Z</time>
      </trkpt>
      <trkpt lat="42.2434070" lon="1.8254070">
        <ele>1405.1</ele>
        <time>2015-08-14T11:38:10Z</time>
      </trkpt>
      <trkpt lat="42.2433880" lon="1.8254510">
        <ele>1405.1</ele>
        <time>2015-08-14T11:38:11Z</time>
      </trkpt>
      <trkpt lat="42.2433610" lon="1.8254770">
        <ele>1404.4</ele>
        <time>2015-08-14T11:38:12Z</time>
      </trkpt>
      <trkpt lat="42.2433250" lon="1.8255030">
        <ele>1403.1</ele>
        <time>2015-08-14T11:38:13Z</time>
      </trkpt>
      <trkpt lat="42.2432990" lon="1.8255340">
        <ele>1402.5</ele>
        <time>2015-08-14T11:38:14Z</time>
      </trkpt>
      <trkpt lat="42.2432770" lon="1.8255680">
        <ele>1402.3</ele>
        <time>2015-08-14T11:38:15Z</time>
      </trkpt>
      <trkpt lat="42.2432560" lon="1.8256040">
        <ele>1402.2</ele>
        <time>2015-08-14T11:38:16Z</time>
      </trkpt>
      <trkpt lat="42.2432360" lon="1.8256290">
        <ele>1401.8</ele>
        <time>2015-08-14T11:38:17Z</time>
      </trkpt>
      <trkpt lat="42.2432200" lon="1.8256630">
        <ele>1401.9</ele>
        <time>2015-08-14T11:38:18Z</time>
      </trkpt>
      <trkpt lat="42.2432080" lon="1.8257030">
        <ele>1402.5</ele>
        <time>2015-08-14T11:38:19Z</time>
      </trkpt>
      <trkpt lat="42.2431940" lon="1.8257380">
        <ele>1402.7</ele>
        <time>2015-08-14T11:38:20Z</time>
      </trkpt>
      <trkpt lat="42.2431680" lon="1.8257620">
        <ele>1402.0</ele>
        <time>2015-08-14T11:38:21Z</time>
      </trkpt>
      <trkpt lat="42.2431530" lon="1.8258180">
        <ele>1402.9</ele>
        <time>2015-08-14T11:38:22Z</time>
      </trkpt>
      <trkpt lat="42.2431440" lon="1.8258600">
        <ele>1403.7</ele>
        <time>2015-08-14T11:38:23Z</time>
      </trkpt>
      <trkpt lat="42.2431310" lon="1.8259070">
        <ele>1404.5</ele>
        <time>2015-08-14T11:38:24Z</time>
      </trkpt>
      <trkpt lat="42.2431160" lon="1.8259550">
        <ele>1405.2</ele>
        <time>2015-08-14T11:38:25Z</time>
      </trkpt>
      <trkpt lat="42.2431330" lon="1.8259870">
        <ele>1407.1</ele>
        <time>2015-08-14T11:38:26Z</time>
      </trkpt>
      <trkpt lat="42.2431420" lon="1.8260330">
        <ele>1408.9</ele>
        <time>2015-08-14T11:38:27Z</time>
      </trkpt>
      <trkpt lat="42.2431340" lon="1.8261000">
        <ele>1410.6</ele>
        <time>2015-08-14T11:38:29Z</time>
      </trkpt>
      <trkpt lat="42.2431170" lon="1.8261430">
        <ele>1411.0</ele>
        <time>2015-08-14T11:38:30Z</time>
      </trkpt>
      <trkpt lat="42.2431060" lon="1.8261910">
        <ele>1411.9</ele>
        <time>2015-08-14T11:38:31Z</time>
      </trkpt>
      <trkpt lat="42.2430730" lon="1.8262290">
        <ele>1411.4</ele>
        <time>2015-08-14T11:38:32Z</time>
      </trkpt>
      <trkpt lat="42.2430480" lon="1.8262850">
        <ele>1411.6</ele>
        <time>2015-08-14T11:38:33Z</time>
      </trkpt>
      <trkpt lat="42.2430240" lon="1.8263370">
        <ele>1411.6</ele>
        <time>2015-08-14T11:38:34Z</time>
      </trkpt>
      <trkpt lat="42.2429970" lon="1.8263860">
        <ele>1411.5</ele>
        <time>2015-08-14T11:38:35Z</time>
      </trkpt>
      <trkpt lat="42.2429810" lon="1.8264260">
        <ele>1411.7</ele>
        <time>2015-08-14T11:38:36Z</time>
      </trkpt>
      <trkpt lat="42.2429640" lon="1.8264640">
        <ele>1411.8</ele>
        <time>2015-08-14T11:38:37Z</time>
      </trkpt>
      <trkpt lat="42.2429160" lon="1.8264990">
        <ele>1410.5</ele>
        <time>2015-08-14T11:38:39Z</time>
      </trkpt>
      <trkpt lat="42.2428950" lon="1.8265270">
        <ele>1410.3</ele>
        <time>2015-08-14T11:38:40Z</time>
      </trkpt>
      <trkpt lat="42.2428610" lon="1.8265800">
        <ele>1410.1</ele>
        <time>2015-08-14T11:38:41Z</time>
      </trkpt>
      <trkpt lat="42.2428290" lon="1.8266070">
        <ele>1409.4</ele>
        <time>2015-08-14T11:38:43Z</time>
      </trkpt>
      <trkpt lat="42.2428010" lon="1.8266470">
        <ele>1409.2</ele>
        <time>2015-08-14T11:38:46Z</time>
      </trkpt>
      <trkpt lat="42.2427880" lon="1.8266790">
        <ele>1409.5</ele>
        <time>2015-08-14T11:38:48Z</time>
      </trkpt>
      <trkpt lat="42.2427920" lon="1.8267360">
        <ele>1411.2</ele>
        <time>2015-08-14T11:38:51Z</time>
      </trkpt>
      <trkpt lat="42.2427940" lon="1.8267860">
        <ele>1412.6</ele>
        <time>2015-08-14T11:38:53Z</time>
      </trkpt>
      <trkpt lat="42.2428170" lon="1.8268280">
        <ele>1414.8</ele>
        <time>2015-08-14T11:38:55Z</time>
      </trkpt>
      <trkpt lat="42.2428460" lon="1.8268480">
        <ele>1416.6</ele>
        <time>2015-08-14T11:38:56Z</time>
      </trkpt>
      <trkpt lat="42.2428730" lon="1.8268680">
        <ele>1418.4</ele>
        <time>2015-08-14T11:38:57Z</time>
      </trkpt>
      <trkpt lat="42.2429040" lon="1.8269140">
        <ele>1421.0</ele>
        <time>2015-08-14T11:38:58Z</time>
      </trkpt>
      <trkpt lat="42.2429300" lon="1.8269520">
        <ele>1423.0</ele>
        <time>2015-08-14T11:38:59Z</time>
      </trkpt>
      <trkpt lat="42.2429630" lon="1.8269800">
        <ele>1424.8</ele>
        <time>2015-08-14T11:39:00Z</time>
      </trkpt>
      <trkpt lat="42.2429930" lon="1.8270480">
        <ele>1427.5</ele>
        <time>2015-08-14T11:39:02Z</time>
      </trkpt>
      <trkpt lat="42.2430290" lon="1.8271240">
        <ele>1429.3</ele>
        <time>2015-08-14T11:39:03Z</time>
      </trkpt>
      <trkpt lat="42.2430420" lon="1.8271970">
        <ele>1429.4</ele>
        <time>2015-08-14T11:39:05Z</time>
      </trkpt>
      <trkpt lat="42.2430520" lon="1.8272360">
        <ele>1429.5</ele>
        <time>2015-08-14T11:39:06Z</time>
      </trkpt>
      <trkpt lat="42.2430820" lon="1.8272980">
        <ele>1430.0</ele>
        <time>2015-08-14T11:39:08Z</time>
      </trkpt>
      <trkpt lat="42.2431040" lon="1.8273440">
        <ele>1430.4</ele>
        <time>2015-08-14T11:39:09Z</time>
      </trkpt>
      <trkpt lat="42.2431240" lon="1.8273910">
        <ele>1430.7</ele>
        <time>2015-08-14T11:39:10Z</time>
      </trkpt>
      <trkpt lat="42.2431390" lon="1.8274290">
        <ele>1430.9</ele>
        <time>2015-08-14T11:39:11Z</time>
      </trkpt>
      <trkpt lat="42.2431660" lon="1.8274780">
        <ele>1431.4</ele>
        <time>2015-08-14T11:39:12Z</time>
      </trkpt>
      <trkpt lat="42.2431760" lon="1.8275200">
        <ele>1431.4</ele>
        <time>2015-08-14T11:39:13Z</time>
      </trkpt>
      <trkpt lat="42.2431990" lon="1.8275670">
        <ele>1431.7</ele>
        <time>2015-08-14T11:39:14Z</time>
      </trkpt>
      <trkpt lat="42.2432100" lon="1.8276200">
        <ele>1431.6</ele>
        <time>2015-08-14T11:39:15Z</time>
      </trkpt>
      <trkpt lat="42.2432280" lon="1.8276760">
        <ele>1431.7</ele>
        <time>2015-08-14T11:39:16Z</time>
      </trkpt>
      <trkpt lat="42.2432610" lon="1.8277200">
        <ele>1432.2</ele>
        <time>2015-08-14T11:39:17Z</time>
      </trkpt>
      <trkpt lat="42.2432870" lon="1.8277530">
        <ele>1432.6</ele>
        <time>2015-08-14T11:39:18Z</time>
      </trkpt>
      <trkpt lat="42.2432950" lon="1.8278060">
        <ele>1432.4</ele>
        <time>2015-08-14T11:39:19Z</time>
      </trkpt>
      <trkpt lat="42.2433120" lon="1.8278640">
        <ele>1432.4</ele>
        <time>2015-08-14T11:39:20Z</time>
      </trkpt>
      <trkpt lat="42.2433140" lon="1.8279010">
        <ele>1432.2</ele>
        <time>2015-08-14T11:39:21Z</time>
      </trkpt>
      <trkpt lat="42.2433400" lon="1.8278800">
        <ele>1432.9</ele>
        <time>2015-08-14T11:39:24Z</time>
      </trkpt>
      <trkpt lat="42.2433660" lon="1.8278960">
        <ele>1433.4</ele>
        <time>2015-08-14T11:39:27Z</time>
      </trkpt>
      <trkpt lat="42.2434010" lon="1.8279210">
        <ele>1434.0</ele>
        <time>2015-08-14T11:39:29Z</time>
      </trkpt>
      <trkpt lat="42.2434160" lon="1.8279860">
        <ele>1433.2</ele>
        <time>2015-08-14T11:39:31Z</time>
      </trkpt>
      <trkpt lat="42.2434250" lon="1.8280660">
        <ele>1432.1</ele>
        <time>2015-08-14T11:39:33Z</time>
      </trkpt>
      <trkpt lat="42.2434300" lon="1.8281140">
        <ele>1431.4</ele>
        <time>2015-08-14T11:39:34Z</time>
      </trkpt>
      <trkpt lat="42.2433900" lon="1.8281850">
        <ele>1429.0</ele>
        <time>2015-08-14T11:39:35Z</time>
      </trkpt>
      <trkpt lat="42.2433680" lon="1.8282270">
        <ele>1427.6</ele>
        <time>2015-08-14T11:39:36Z</time>
      </trkpt>
      <trkpt lat="42.2433580" lon="1.8282640">
        <ele>1426.6</ele>
        <time>2015-08-14T11:39:37Z</time>
      </trkpt>
      <trkpt lat="42.2433480" lon="1.8283070">
        <ele>1425.5</ele>
        <time>2015-08-14T11:39:38Z</time>
      </trkpt>
      <trkpt lat="42.2433370" lon="1.8283590">
        <ele>1424.1</ele>
        <time>2015-08-14T11:39:39Z</time>
      </trkpt>
      <trkpt lat="42.2433210" lon="1.8284130">
        <ele>1422.5</ele>
        <time>2015-08-14T11:39:40Z</time>
      </trkpt>
      <trkpt lat="42.2433120" lon="1.8284750">
        <ele>1421.0</ele>
        <time>2015-08-14T11:39:41Z</time>
      </trkpt>
      <trkpt lat="42.2433180" lon="1.8285670">
        <ele>1419.4</ele>
        <time>2015-08-14T11:39:42Z</time>
      </trkpt>
      <trkpt lat="42.2433200" lon="1.8286290">
        <ele>1418.3</ele>
        <time>2015-08-14T11:39:43Z</time>
      </trkpt>
      <trkpt lat="42.2433180" lon="1.8286980">
        <ele>1416.8</ele>
        <time>2015-08-14T11:39:44Z</time>
      </trkpt>
      <trkpt lat="42.2433110" lon="1.8287840">
        <ele>1415.0</ele>
        <time>2015-08-14T11:39:45Z</time>
      </trkpt>
      <trkpt lat="42.2433050" lon="1.8288420">
        <ele>1414.0</ele>
        <time>2015-08-14T11:39:46Z</time>
      </trkpt>
      <trkpt lat="42.2432790" lon="1.8288960">
        <ele>1412.0</ele>
        <time>2015-08-14T11:39:47Z</time>
      </trkpt>
      <trkpt lat="42.2432670" lon="1.8289470">
        <ele>1410.7</ele>
        <time>2015-08-14T11:39:48Z</time>
      </trkpt>
      <trkpt lat="42.2432420" lon="1.8289980">
        <ele>1408.8</ele>
        <time>2015-08-14T11:39:50Z</time>
      </trkpt>
      <trkpt lat="42.2432140" lon="1.8290360">
        <ele>1406.8</ele>
        <time>2015-08-14T11:40:07Z</time>
      </trkpt>
      <trkpt lat="42.2431840" lon="1.8291090">
        <ele>1404.2</ele>
        <time>2015-08-14T11:40:09Z</time>
      </trkpt>
      <trkpt lat="42.2431680" lon="1.8291400">
        <ele>1402.9</ele>
        <time>2015-08-14T11:40:10Z</time>
      </trkpt>
      <trkpt lat="42.2431310" lon="1.8292050">
        <ele>1399.9</ele>
        <time>2015-08-14T11:40:12Z</time>
      </trkpt>
      <trkpt lat="42.2431160" lon="1.8292470">
        <ele>1398.4</ele>
        <time>2015-08-14T11:40:13Z</time>
      </trkpt>
      <trkpt lat="42.2431060" lon="1.8292860">
        <ele>1397.2</ele>
        <time>2015-08-14T11:40:14Z</time>
      </trkpt>
      <trkpt lat="42.2431120" lon="1.8293330">
        <ele>1396.7</ele>
        <time>2015-08-14T11:40:15Z</time>
      </trkpt>
      <trkpt lat="42.2431180" lon="1.8293770">
        <ele>1396.3</ele>
        <time>2015-08-14T11:40:16Z</time>
      </trkpt>
      <trkpt lat="42.2431150" lon="1.8294220">
        <ele>1395.4</ele>
        <time>2015-08-14T11:40:17Z</time>
      </trkpt>
      <trkpt lat="42.2431240" lon="1.8294900">
        <ele>1394.8</ele>
        <time>2015-08-14T11:40:19Z</time>
      </trkpt>
      <trkpt lat="42.2430880" lon="1.8294680">
        <ele>1393.1</ele>
        <time>2015-08-14T11:40:20Z</time>
      </trkpt>
      <trkpt lat="42.2430710" lon="1.8294970">
        <ele>1391.6</ele>
        <time>2015-08-14T11:40:21Z</time>
      </trkpt>
      <trkpt lat="42.2430330" lon="1.8295020">
        <ele>1389.3</ele>
        <time>2015-08-14T11:40:23Z</time>
      </trkpt>
      <trkpt lat="42.2430060" lon="1.8295160">
        <ele>1387.5</ele>
        <time>2015-08-14T11:40:24Z</time>
      </trkpt>
      <trkpt lat="42.2429710" lon="1.8295360">
        <ele>1385.1</ele>
        <time>2015-08-14T11:40:26Z</time>
      </trkpt>
      <trkpt lat="42.2429780" lon="1.8295890">
        <ele>1384.6</ele>
        <time>2015-08-14T11:40:27Z</time>
      </trkpt>
      <trkpt lat="42.2429720" lon="1.8296380">
        <ele>1383.7</ele>
        <time>2015-08-14T11:40:28Z</time>
      </trkpt>
      <trkpt lat="42.2429530" lon="1.8296980">
        <ele>1382.0</ele>
        <time>2015-08-14T11:40:30Z</time>
      </trkpt>
      <trkpt lat="42.2429280" lon="1.8297350">
        <ele>1380.1</ele>
        <time>2015-08-14T11:40:31Z</time>
      </trkpt>
      <trkpt lat="42.2429290" lon="1.8297770">
        <ele>1379.7</ele>
        <time>2015-08-14T11:40:32Z</time>
      </trkpt>
      <trkpt lat="42.2429190" lon="1.8298170">
        <ele>1378.6</ele>
        <time>2015-08-14T11:40:34Z</time>
      </trkpt>
      <trkpt lat="42.2429040" lon="1.8298720">
        <ele>1377.2</ele>
        <time>2015-08-14T11:40:36Z</time>
      </trkpt>
      <trkpt lat="42.2428780" lon="1.8298910">
        <ele>1375.5</ele>
        <time>2015-08-14T11:40:38Z</time>
      </trkpt>
      <trkpt lat="42.2429040" lon="1.8299340">
        <ele>1376.5</ele>
        <time>2015-08-14T11:40:42Z</time>
      </trkpt>
      <trkpt lat="42.2429050" lon="1.8299980">
        <ele>1375.8</ele>
        <time>2015-08-14T11:40:44Z</time>
      </trkpt>
      <trkpt lat="42.2429060" lon="1.8300400">
        <ele>1375.4</ele>
        <time>2015-08-14T11:40:45Z</time>
      </trkpt>
      <trkpt lat="42.2429040" lon="1.8300840">
        <ele>1374.8</ele>
        <time>2015-08-14T11:40:46Z</time>
      </trkpt>
      <trkpt lat="42.2429110" lon="1.8301270">
        <ele>1374.8</ele>
        <time>2015-08-14T11:40:47Z</time>
      </trkpt>
      <trkpt lat="42.2428860" lon="1.8301510">
        <ele>1373.0</ele>
        <time>2015-08-14T11:40:48Z</time>
      </trkpt>
      <trkpt lat="42.2428640" lon="1.8301880">
        <ele>1371.2</ele>
        <time>2015-08-14T11:40:49Z</time>
      </trkpt>
      <trkpt lat="42.2428470" lon="1.8302720">
        <ele>1369.1</ele>
        <time>2015-08-14T11:40:51Z</time>
      </trkpt>
      <trkpt lat="42.2428280" lon="1.8303460">
        <ele>1366.9</ele>
        <time>2015-08-14T11:40:52Z</time>
      </trkpt>
      <trkpt lat="42.2428140" lon="1.8304080">
        <ele>1365.2</ele>
        <time>2015-08-14T11:40:53Z</time>
      </trkpt>
      <trkpt lat="42.2427740" lon="1.8304730">
        <ele>1362.6</ele>
        <time>2015-08-14T11:40:54Z</time>
      </trkpt>
      <trkpt lat="42.2427390" lon="1.8305260">
        <ele>1360.4</ele>
        <time>2015-08-14T11:40:55Z</time>
      </trkpt>
      <trkpt lat="42.2427170" lon="1.8305820">
        <ele>1359.1</ele>
        <time>2015-08-14T11:40:56Z</time>
      </trkpt>
      <trkpt lat="42.2426920" lon="1.8306390">
        <ele>1357.6</ele>
        <time>2015-08-14T11:40:57Z</time>
      </trkpt>
      <trkpt lat="42.2426670" lon="1.8306960">
        <ele>1356.1</ele>
        <time>2015-08-14T11:40:58Z</time>
      </trkpt>
      <trkpt lat="42.2427160" lon="1.8307450">
        <ele>1359.5</ele>
        <time>2015-08-14T11:40:59Z</time>
      </trkpt>
      <trkpt lat="42.2426860" lon="1.8308360">
        <ele>1357.8</ele>
        <time>2015-08-14T11:41:00Z</time>
      </trkpt>
      <trkpt lat="42.2426780" lon="1.8309160">
        <ele>1357.5</ele>
        <time>2015-08-14T11:41:01Z</time>
      </trkpt>
      <trkpt lat="42.2426780" lon="1.8309710">
        <ele>1357.7</ele>
        <time>2015-08-14T11:41:02Z</time>
      </trkpt>
      <trkpt lat="42.2426750" lon="1.8310200">
        <ele>1357.6</ele>
        <time>2015-08-14T11:41:03Z</time>
      </trkpt>
      <trkpt lat="42.2426630" lon="1.8310580">
        <ele>1357.0</ele>
        <time>2015-08-14T11:41:04Z</time>
      </trkpt>
      <trkpt lat="42.2426990" lon="1.8311410">
        <ele>1359.6</ele>
        <time>2015-08-14T11:41:06Z</time>
      </trkpt>
      <trkpt lat="42.2426890" lon="1.8311990">
        <ele>1359.1</ele>
        <time>2015-08-14T11:41:07Z</time>
      </trkpt>
      <trkpt lat="42.2426790" lon="1.8312640">
        <ele>1358.7</ele>
        <time>2015-08-14T11:41:08Z</time>
      </trkpt>
      <trkpt lat="42.2426880" lon="1.8313210">
        <ele>1359.5</ele>
        <time>2015-08-14T11:41:09Z</time>
      </trkpt>
      <trkpt lat="42.2426840" lon="1.8313760">
        <ele>1359.5</ele>
        <time>2015-08-14T11:41:10Z</time>
      </trkpt>
      <trkpt lat="42.2426860" lon="1.8314420">
        <ele>1359.9</ele>
        <time>2015-08-14T11:41:11Z</time>
      </trkpt>
      <trkpt lat="42.2426450" lon="1.8315180">
        <ele>1357.7</ele>
        <time>2015-08-14T11:41:13Z</time>
      </trkpt>
      <trkpt lat="42.2426320" lon="1.8315670">
        <ele>1357.1</ele>
        <time>2015-08-14T11:41:14Z</time>
      </trkpt>
      <trkpt lat="42.2426090" lon="1.8315960">
        <ele>1355.8</ele>
        <time>2015-08-14T11:41:15Z</time>
      </trkpt>
      <trkpt lat="42.2426110" lon="1.8316510">
        <ele>1356.2</ele>
        <time>2015-08-14T11:41:16Z</time>
      </trkpt>
      <trkpt lat="42.2426030" lon="1.8316910">
        <ele>1355.9</ele>
        <time>2015-08-14T11:41:17Z</time>
      </trkpt>
      <trkpt lat="42.2425770" lon="1.8317680">
        <ele>1354.8</ele>
        <time>2015-08-14T11:41:18Z</time>
      </trkpt>
      <trkpt lat="42.2425520" lon="1.8318120">
        <ele>1353.5</ele>
        <time>2015-08-14T11:41:21Z</time>
      </trkpt>
      <trkpt lat="42.2425310" lon="1.8318450">
        <ele>1352.4</ele>
        <time>2015-08-14T11:41:22Z</time>
      </trkpt>
      <trkpt lat="42.2425080" lon="1.8318920">
        <ele>1351.3</ele>
        <time>2015-08-14T11:41:23Z</time>
      </trkpt>
      <trkpt lat="42.2424880" lon="1.8319790">
        <ele>1350.7</ele>
        <time>2015-08-14T11:41:25Z</time>
      </trkpt>
      <trkpt lat="42.2424700" lon="1.8320110">
        <ele>1349.8</ele>
        <time>2015-08-14T11:41:26Z</time>
      </trkpt>
      <trkpt lat="42.2424540" lon="1.8320720">
        <ele>1349.3</ele>
        <time>2015-08-14T11:41:28Z</time>
      </trkpt>
      <trkpt lat="42.2424250" lon="1.8321060">
        <ele>1348.1</ele>
        <time>2015-08-14T11:41:29Z</time>
      </trkpt>
      <trkpt lat="42.2424070" lon="1.8321360">
        <ele>1347.6</ele>
        <time>2015-08-14T11:41:30Z</time>
      </trkpt>
      <trkpt lat="42.2424130" lon="1.8321940">
        <ele>1348.9</ele>
        <time>2015-08-14T11:41:32Z</time>
      </trkpt>
      <trkpt lat="42.2424110" lon="1.8322610">
        <ele>1349.9</ele>
        <time>2015-08-14T11:41:34Z</time>
      </trkpt>
      <trkpt lat="42.2424170" lon="1.8323310">
        <ele>1351.5</ele>
        <time>2015-08-14T11:41:36Z</time>
      </trkpt>
      <trkpt lat="42.2424100" lon="1.8323740">
        <ele>1351.8</ele>
        <time>2015-08-14T11:41:38Z</time>
      </trkpt>
      <trkpt lat="42.2423970" lon="1.8324120">
        <ele>1351.8</ele>
        <time>2015-08-14T11:41:40Z</time>
      </trkpt>
      <trkpt lat="42.2423730" lon="1.8324360">
        <ele>1350.9</ele>
        <time>2015-08-14T11:41:41Z</time>
      </trkpt>
      <trkpt lat="42.2423530" lon="1.8324730">
        <ele>1350.4</ele>
        <time>2015-08-14T11:41:43Z</time>
      </trkpt>
      <trkpt lat="42.2423370" lon="1.8325050">
        <ele>1350.1</ele>
        <time>2015-08-14T11:41:44Z</time>
      </trkpt>
      <trkpt lat="42.2423140" lon="1.8325270">
        <ele>1349.2</ele>
        <time>2015-08-14T11:41:45Z</time>
      </trkpt>
      <trkpt lat="42.2422910" lon="1.8325740">
        <ele>1348.8</ele>
        <time>2015-08-14T11:41:47Z</time>
      </trkpt>
      <trkpt lat="42.2422730" lon="1.8326090">
        <ele>1348.4</ele>
        <time>2015-08-14T11:41:49Z</time>
      </trkpt>
      <trkpt lat="42.2422460" lon="1.8326350">
        <ele>1347.4</ele>
        <time>2015-08-14T11:41:50Z</time>
      </trkpt>
      <trkpt lat="42.2422310" lon="1.8326690">
        <ele>1347.3</ele>
        <time>2015-08-14T11:41:51Z</time>
      </trkpt>
      <trkpt lat="42.2422350" lon="1.8327200">
        <ele>1348.4</ele>
        <time>2015-08-14T11:41:52Z</time>
      </trkpt>
      <trkpt lat="42.2422300" lon="1.8327570">
        <ele>1348.8</ele>
        <time>2015-08-14T11:41:53Z</time>
      </trkpt>
      <trkpt lat="42.2422080" lon="1.8327830">
        <ele>1348.1</ele>
        <time>2015-08-14T11:41:55Z</time>
      </trkpt>
      <trkpt lat="42.2421740" lon="1.8328080">
        <ele>1346.8</ele>
        <time>2015-08-14T11:41:56Z</time>
      </trkpt>
      <trkpt lat="42.2421610" lon="1.8328450">
        <ele>1346.8</ele>
        <time>2015-08-14T11:41:58Z</time>
      </trkpt>
      <trkpt lat="42.2421350" lon="1.8328790">
        <ele>1346.0</ele>
        <time>2015-08-14T11:41:59Z</time>
      </trkpt>
      <trkpt lat="42.2420980" lon="1.8329280">
        <ele>1345.3</ele>
        <time>2015-08-14T11:42:00Z</time>
      </trkpt>
      <trkpt lat="42.2421180" lon="1.8328970">
        <ele>1345.5</ele>
        <time>2015-08-14T11:42:02Z</time>
      </trkpt>
      <trkpt lat="42.2421110" lon="1.8329370">
        <ele>1346.4</ele>
        <time>2015-08-14T11:42:08Z</time>
      </trkpt>
      <trkpt lat="42.2420800" lon="1.8329550">
        <ele>1345.8</ele>
        <time>2015-08-14T11:42:16Z</time>
      </trkpt>
      <trkpt lat="42.2420510" lon="1.8329650">
        <ele>1345.7</ele>
        <time>2015-08-14T11:42:20Z</time>
      </trkpt>
      <trkpt lat="42.2420290" lon="1.8329420">
        <ele>1344.1</ele>
        <time>2015-08-14T11:42:23Z</time>
      </trkpt>
      <trkpt lat="42.2420100" lon="1.8329040">
        <ele>1342.2</ele>
        <time>2015-08-14T11:42:26Z</time>
      </trkpt>
      <trkpt lat="42.2419990" lon="1.8329490">
        <ele>1343.8</ele>
        <time>2015-08-14T11:42:27Z</time>
      </trkpt>
      <trkpt lat="42.2419530" lon="1.8329350">
        <ele>1342.2</ele>
        <time>2015-08-14T11:42:33Z</time>
      </trkpt>
      <trkpt lat="42.2419350" lon="1.8329210">
        <ele>1341.2</ele>
        <time>2015-08-14T11:42:34Z</time>
      </trkpt>
      <trkpt lat="42.2419030" lon="1.8328960">
        <ele>1339.8</ele>
        <time>2015-08-14T11:42:36Z</time>
      </trkpt>
      <trkpt lat="42.2418650" lon="1.8328960">
        <ele>1339.0</ele>
        <time>2015-08-14T11:42:38Z</time>
      </trkpt>
      <trkpt lat="42.2418550" lon="1.8329380">
        <ele>1340.3</ele>
        <time>2015-08-14T11:42:41Z</time>
      </trkpt>
      <trkpt lat="42.2418710" lon="1.8329720">
        <ele>1342.2</ele>
        <time>2015-08-14T11:42:45Z</time>
      </trkpt>
      <trkpt lat="42.2418900" lon="1.8329210">
        <ele>1340.3</ele>
        <time>2015-08-14T11:42:48Z</time>
      </trkpt>
      <trkpt lat="42.2418840" lon="1.8329600">
        <ele>1341.9</ele>
        <time>2015-08-14T11:42:50Z</time>
      </trkpt>
      <trkpt lat="42.2418310" lon="1.8329670">
        <ele>1341.1</ele>
        <time>2015-08-14T11:42:53Z</time>
      </trkpt>
      <trkpt lat="42.2417730" lon="1.8330290">
        <ele>1342.6</ele>
        <time>2015-08-14T11:42:56Z</time>
      </trkpt>
      <trkpt lat="42.2417360" lon="1.8330340">
        <ele>1342.0</ele>
        <time>2015-08-14T11:42:58Z</time>
      </trkpt>
      <trkpt lat="42.2417090" lon="1.8330670">
        <ele>1342.9</ele>
        <time>2015-08-14T11:42:59Z</time>
      </trkpt>
      <trkpt lat="42.2417350" lon="1.8330900">
        <ele>1344.5</ele>
        <time>2015-08-14T11:43:00Z</time>
      </trkpt>
      <trkpt lat="42.2416980" lon="1.8331530">
        <ele>1346.3</ele>
        <time>2015-08-14T11:43:03Z</time>
      </trkpt>
      <trkpt lat="42.2416690" lon="1.8331960">
        <ele>1347.5</ele>
        <time>2015-08-14T11:43:05Z</time>
      </trkpt>
      <trkpt lat="42.2416510" lon="1.8332360">
        <ele>1348.7</ele>
        <time>2015-08-14T11:43:10Z</time>
      </trkpt>
      <trkpt lat="42.2416490" lon="1.8332860">
        <ele>1350.8</ele>
        <time>2015-08-14T11:43:12Z</time>
      </trkpt>
      <trkpt lat="42.2416270" lon="1.8332560">
        <ele>1348.9</ele>
        <time>2015-08-14T11:43:16Z</time>
      </trkpt>
      <trkpt lat="42.2416160" lon="1.8333000">
        <ele>1350.5</ele>
        <time>2015-08-14T11:43:19Z</time>
      </trkpt>
      <trkpt lat="42.2415970" lon="1.8333380">
        <ele>1351.6</ele>
        <time>2015-08-14T11:43:21Z</time>
      </trkpt>
      <trkpt lat="42.2415720" lon="1.8333650">
        <ele>1352.0</ele>
        <time>2015-08-14T11:43:23Z</time>
      </trkpt>
      <trkpt lat="42.2415620" lon="1.8334030">
        <ele>1353.3</ele>
        <time>2015-08-14T11:43:25Z</time>
      </trkpt>
      <trkpt lat="42.2415520" lon="1.8334420">
        <ele>1354.6</ele>
        <time>2015-08-14T11:43:28Z</time>
      </trkpt>
      <trkpt lat="42.2415300" lon="1.8334950">
        <ele>1356.1</ele>
        <time>2015-08-14T11:43:30Z</time>
      </trkpt>
      <trkpt lat="42.2415210" lon="1.8335470">
        <ele>1357.9</ele>
        <time>2015-08-14T11:43:32Z</time>
      </trkpt>
      <trkpt lat="42.2415550" lon="1.8335890">
        <ele>1360.7</ele>
        <time>2015-08-14T11:43:34Z</time>
      </trkpt>
      <trkpt lat="42.2415320" lon="1.8334970">
        <ele>1356.2</ele>
        <time>2015-08-14T11:43:36Z</time>
      </trkpt>
      <trkpt lat="42.2415150" lon="1.8335280">
        <ele>1357.0</ele>
        <time>2015-08-14T11:43:38Z</time>
      </trkpt>
      <trkpt lat="42.2414820" lon="1.8335250">
        <ele>1355.9</ele>
        <time>2015-08-14T11:43:41Z</time>
      </trkpt>
      <trkpt lat="42.2414780" lon="1.8334690">
        <ele>1353.5</ele>
        <time>2015-08-14T11:43:46Z</time>
      </trkpt>
      <trkpt lat="42.2414500" lon="1.8334720">
        <ele>1352.8</ele>
        <time>2015-08-14T11:43:49Z</time>
      </trkpt>
      <trkpt lat="42.2414190" lon="1.8334870">
        <ele>1352.5</ele>
        <time>2015-08-14T11:43:59Z</time>
      </trkpt>
      <trkpt lat="42.2413970" lon="1.8335110">
        <ele>1352.8</ele>
        <time>2015-08-14T11:44:04Z</time>
      </trkpt>
      <trkpt lat="42.2413680" lon="1.8335300">
        <ele>1352.6</ele>
        <time>2015-08-14T11:44:08Z</time>
      </trkpt>
      <trkpt lat="42.2413380" lon="1.8335400">
        <ele>1352.1</ele>
        <time>2015-08-14T11:44:12Z</time>
      </trkpt>
      <trkpt lat="42.2413090" lon="1.8335800">
        <ele>1352.7</ele>
        <time>2015-08-14T11:44:14Z</time>
      </trkpt>
      <trkpt lat="42.2412990" lon="1.8336210">
        <ele>1353.9</ele>
        <time>2015-08-14T11:44:28Z</time>
      </trkpt>
      <trkpt lat="42.2412830" lon="1.8336650">
        <ele>1355.0</ele>
        <time>2015-08-14T11:44:29Z</time>
      </trkpt>
      <trkpt lat="42.2413050" lon="1.8337120">
        <ele>1357.4</ele>
        <time>2015-08-14T11:44:31Z</time>
      </trkpt>
      <trkpt lat="42.2413220" lon="1.8337660">
        <ele>1359.7</ele>
        <time>2015-08-14T11:44:34Z</time>
      </trkpt>
      <trkpt lat="42.2413260" lon="1.8338090">
        <ele>1360.6</ele>
        <time>2015-08-14T11:44:37Z</time>
      </trkpt>
      <trkpt lat="42.2413190" lon="1.8338580">
        <ele>1361.1</ele>
        <time>2015-08-14T11:44:58Z</time>
      </trkpt>
      <trkpt lat="42.2413100" lon="1.8339120">
        <ele>1361.7</ele>
        <time>2015-08-14T11:45:00Z</time>
      </trkpt>
      <trkpt lat="42.2412840" lon="1.8339640">
        <ele>1361.6</ele>
        <time>2015-08-14T11:45:01Z</time>
      </trkpt>
      <trkpt lat="42.2412720" lon="1.8340010">
        <ele>1361.8</ele>
        <time>2015-08-14T11:45:02Z</time>
      </trkpt>
      <trkpt lat="42.2412700" lon="1.8340600">
        <ele>1362.6</ele>
        <time>2015-08-14T11:45:03Z</time>
      </trkpt>
      <trkpt lat="42.2412240" lon="1.8341060">
        <ele>1361.4</ele>
        <time>2015-08-14T11:45:06Z</time>
      </trkpt>
      <trkpt lat="42.2412040" lon="1.8341340">
        <ele>1360.9</ele>
        <time>2015-08-14T11:45:08Z</time>
      </trkpt>
      <trkpt lat="42.2411890" lon="1.8341740">
        <ele>1360.9</ele>
        <time>2015-08-14T11:45:10Z</time>
      </trkpt>
      <trkpt lat="42.2411700" lon="1.8342230">
        <ele>1360.9</ele>
        <time>2015-08-14T11:45:11Z</time>
      </trkpt>
      <trkpt lat="42.2411900" lon="1.8342930">
        <ele>1363.0</ele>
        <time>2015-08-14T11:45:12Z</time>
      </trkpt>
      <trkpt lat="42.2411890" lon="1.8343300">
        <ele>1363.6</ele>
        <time>2015-08-14T11:45:13Z</time>
      </trkpt>
      <trkpt lat="42.2412090" lon="1.8343620">
        <ele>1364.9</ele>
        <time>2015-08-14T11:45:14Z</time>
      </trkpt>
      <trkpt lat="42.2411710" lon="1.8343970">
        <ele>1364.0</ele>
        <time>2015-08-14T11:45:16Z</time>
      </trkpt>
      <trkpt lat="42.2411380" lon="1.8344290">
        <ele>1363.3</ele>
        <time>2015-08-14T11:45:17Z</time>
      </trkpt>
      <trkpt lat="42.2411120" lon="1.8344690">
        <ele>1363.1</ele>
        <time>2015-08-14T11:45:19Z</time>
      </trkpt>
      <trkpt lat="42.2411100" lon="1.8345160">
        <ele>1363.9</ele>
        <time>2015-08-14T11:45:21Z</time>
      </trkpt>
      <trkpt lat="42.2411000" lon="1.8345510">
        <ele>1364.2</ele>
        <time>2015-08-14T11:45:22Z</time>
      </trkpt>
      <trkpt lat="42.2410810" lon="1.8345850">
        <ele>1364.2</ele>
        <time>2015-08-14T11:45:23Z</time>
      </trkpt>
      <trkpt lat="42.2410700" lon="1.8346320">
        <ele>1365.2</ele>
        <time>2015-08-14T11:45:25Z</time>
      </trkpt>
      <trkpt lat="42.2410710" lon="1.8346760">
        <ele>1366.5</ele>
        <time>2015-08-14T11:45:27Z</time>
      </trkpt>
      <trkpt lat="42.2410780" lon="1.8347140">
        <ele>1367.9</ele>
        <time>2015-08-14T11:45:28Z</time>
      </trkpt>
      <trkpt lat="42.2410760" lon="1.8347730">
        <ele>1369.6</ele>
        <time>2015-08-14T11:45:30Z</time>
      </trkpt>
      <trkpt lat="42.2410350" lon="1.8348170">
        <ele>1369.5</ele>
        <time>2015-08-14T11:45:31Z</time>
      </trkpt>
      <trkpt lat="42.2410280" lon="1.8348760">
        <ele>1371.1</ele>
        <time>2015-08-14T11:45:32Z</time>
      </trkpt>
      <trkpt lat="42.2410210" lon="1.8349130">
        <ele>1372.0</ele>
        <time>2015-08-14T11:45:33Z</time>
      </trkpt>
      <trkpt lat="42.2409870" lon="1.8349330">
        <ele>1371.6</ele>
        <time>2015-08-14T11:45:34Z</time>
      </trkpt>
      <trkpt lat="42.2409560" lon="1.8349520">
        <ele>1371.2</ele>
        <time>2015-08-14T11:45:35Z</time>
      </trkpt>
      <trkpt lat="42.2409150" lon="1.8349790">
        <ele>1370.8</ele>
        <time>2015-08-14T11:45:36Z</time>
      </trkpt>
      <trkpt lat="42.2408790" lon="1.8350160">
        <ele>1370.9</ele>
        <time>2015-08-14T11:45:39Z</time>
      </trkpt>
      <trkpt lat="42.2408480" lon="1.8350360">
        <ele>1370.6</ele>
        <time>2015-08-14T11:45:40Z</time>
      </trkpt>
      <trkpt lat="42.2408140" lon="1.8350580">
        <ele>1370.3</ele>
        <time>2015-08-14T11:45:42Z</time>
      </trkpt>
      <trkpt lat="42.2407510" lon="1.8351010">
        <ele>1369.9</ele>
        <time>2015-08-14T11:45:44Z</time>
      </trkpt>
      <trkpt lat="42.2407240" lon="1.8351130">
        <ele>1369.5</ele>
        <time>2015-08-14T11:45:46Z</time>
      </trkpt>
      <trkpt lat="42.2406880" lon="1.8350980">
        <ele>1368.0</ele>
        <time>2015-08-14T11:45:48Z</time>
      </trkpt>
      <trkpt lat="42.2406490" lon="1.8351250">
        <ele>1367.8</ele>
        <time>2015-08-14T11:45:49Z</time>
      </trkpt>
      <trkpt lat="42.2405990" lon="1.8351330">
        <ele>1366.6</ele>
        <time>2015-08-14T11:45:51Z</time>
      </trkpt>
      <trkpt lat="42.2405680" lon="1.8351520">
        <ele>1366.4</ele>
        <time>2015-08-14T11:45:53Z</time>
      </trkpt>
      <trkpt lat="42.2405380" lon="1.8351940">
        <ele>1367.1</ele>
        <time>2015-08-14T11:45:55Z</time>
      </trkpt>
      <trkpt lat="42.2405060" lon="1.8352240">
        <ele>1367.3</ele>
        <time>2015-08-14T11:45:57Z</time>
      </trkpt>
      <trkpt lat="42.2404780" lon="1.8352660">
        <ele>1368.0</ele>
        <time>2015-08-14T11:45:59Z</time>
      </trkpt>
      <trkpt lat="42.2404450" lon="1.8352870">
        <ele>1367.9</ele>
        <time>2015-08-14T11:46:01Z</time>
      </trkpt>
      <trkpt lat="42.2404050" lon="1.8353030">
        <ele>1367.5</ele>
        <time>2015-08-14T11:46:03Z</time>
      </trkpt>
      <trkpt lat="42.2403540" lon="1.8353250">
        <ele>1367.2</ele>
        <time>2015-08-14T11:46:06Z</time>
      </trkpt>
      <trkpt lat="42.2403290" lon="1.8353480">
        <ele>1367.6</ele>
        <time>2015-08-14T11:46:07Z</time>
      </trkpt>
      <trkpt lat="42.2402890" lon="1.8353560">
        <ele>1367.0</ele>
        <time>2015-08-14T11:46:08Z</time>
      </trkpt>
      <trkpt lat="42.2402540" lon="1.8353700">
        <ele>1366.8</ele>
        <time>2015-08-14T11:46:10Z</time>
      </trkpt>
      <trkpt lat="42.2402300" lon="1.8353980">
        <ele>1367.3</ele>
        <time>2015-08-14T11:46:11Z</time>
      </trkpt>
      <trkpt lat="42.2402290" lon="1.8354080">
        <ele>1367.6</ele>
        <time>2015-08-14T11:46:14Z</time>
      </trkpt>
      <trkpt lat="42.2402020" lon="1.8354120">
        <ele>1367.2</ele>
        <time>2015-08-14T11:46:17Z</time>
      </trkpt>
      <trkpt lat="42.2401740" lon="1.8354160">
        <ele>1366.7</ele>
        <time>2015-08-14T11:46:19Z</time>
      </trkpt>
      <trkpt lat="42.2401460" lon="1.8354190">
        <ele>1366.2</ele>
        <time>2015-08-14T11:46:21Z</time>
      </trkpt>
      <trkpt lat="42.2401180" lon="1.8354230">
        <ele>1365.8</ele>
        <time>2015-08-14T11:46:23Z</time>
      </trkpt>
      <trkpt lat="42.2400910" lon="1.8354270">
        <ele>1365.3</ele>
        <time>2015-08-14T11:46:26Z</time>
      </trkpt>
      <trkpt lat="42.2400630" lon="1.8354310">
        <ele>1364.8</ele>
        <time>2015-08-14T11:46:27Z</time>
      </trkpt>
      <trkpt lat="42.2400100" lon="1.8354710">
        <ele>1364.9</ele>
        <time>2015-08-14T11:46:28Z</time>
      </trkpt>
      <trkpt lat="42.2399640" lon="1.8354900">
        <ele>1364.5</ele>
        <time>2015-08-14T11:46:30Z</time>
      </trkpt>
      <trkpt lat="42.2399260" lon="1.8355250">
        <ele>1364.6</ele>
        <time>2015-08-14T11:46:31Z</time>
      </trkpt>
      <trkpt lat="42.2398760" lon="1.8355640">
        <ele>1364.6</ele>
        <time>2015-08-14T11:46:33Z</time>
      </trkpt>
      <trkpt lat="42.2398470" lon="1.8355710">
        <ele>1364.0</ele>
        <time>2015-08-14T11:46:34Z</time>
      </trkpt>
      <trkpt lat="42.2398220" lon="1.8356270">
        <ele>1365.0</ele>
        <time>2015-08-14T11:46:35Z</time>
      </trkpt>
      <trkpt lat="42.2397620" lon="1.8356780">
        <ele>1364.8</ele>
        <time>2015-08-14T11:46:37Z</time>
      </trkpt>
      <trkpt lat="42.2397260" lon="1.8357000">
        <ele>1364.4</ele>
        <time>2015-08-14T11:46:38Z</time>
      </trkpt>
      <trkpt lat="42.2396970" lon="1.8357050">
        <ele>1363.7</ele>
        <time>2015-08-14T11:46:40Z</time>
      </trkpt>
      <trkpt lat="42.2396510" lon="1.8356850">
        <ele>1361.9</ele>
        <time>2015-08-14T11:46:41Z</time>
      </trkpt>
      <trkpt lat="42.2396230" lon="1.8356740">
        <ele>1360.9</ele>
        <time>2015-08-14T11:46:42Z</time>
      </trkpt>
      <trkpt lat="42.2395870" lon="1.8356860">
        <ele>1360.2</ele>
        <time>2015-08-14T11:46:43Z</time>
      </trkpt>
      <trkpt lat="42.2395410" lon="1.8356780">
        <ele>1357.9</ele>
        <time>2015-08-14T11:46:44Z</time>
      </trkpt>
      <trkpt lat="42.2395090" lon="1.8356990">
        <ele>1356.7</ele>
        <time>2015-08-14T11:46:45Z</time>
      </trkpt>
      <trkpt lat="42.2394780" lon="1.8357270">
        <ele>1355.7</ele>
        <time>2015-08-14T11:46:46Z</time>
      </trkpt>
      <trkpt lat="42.2394390" lon="1.8357560">
        <ele>1354.3</ele>
        <time>2015-08-14T11:46:47Z</time>
      </trkpt>
      <trkpt lat="42.2394310" lon="1.8357930">
        <ele>1354.5</ele>
        <time>2015-08-14T11:46:50Z</time>
      </trkpt>
      <trkpt lat="42.2394280" lon="1.8358470">
        <ele>1355.4</ele>
        <time>2015-08-14T11:46:53Z</time>
      </trkpt>
      <trkpt lat="42.2394430" lon="1.8358850">
        <ele>1356.9</ele>
        <time>2015-08-14T11:46:55Z</time>
      </trkpt>
      <trkpt lat="42.2394490" lon="1.8359240">
        <ele>1357.9</ele>
        <time>2015-08-14T11:46:57Z</time>
      </trkpt>
      <trkpt lat="42.2394610" lon="1.8359710">
        <ele>1359.5</ele>
        <time>2015-08-14T11:46:59Z</time>
      </trkpt>
      <trkpt lat="42.2394840" lon="1.8360350">
        <ele>1362.1</ele>
        <time>2015-08-14T11:47:01Z</time>
      </trkpt>
      <trkpt lat="42.2394580" lon="1.8360750">
        <ele>1361.3</ele>
        <time>2015-08-14T11:47:02Z</time>
      </trkpt>
      <trkpt lat="42.2394450" lon="1.8361300">
        <ele>1361.5</ele>
        <time>2015-08-14T11:47:04Z</time>
      </trkpt>
      <trkpt lat="42.2394240" lon="1.8361710">
        <ele>1360.9</ele>
        <time>2015-08-14T11:47:06Z</time>
      </trkpt>
      <trkpt lat="42.2393930" lon="1.8362260">
        <ele>1359.8</ele>
        <time>2015-08-14T11:47:08Z</time>
      </trkpt>
      <trkpt lat="42.2393870" lon="1.8362670">
        <ele>1360.0</ele>
        <time>2015-08-14T11:47:09Z</time>
      </trkpt>
      <trkpt lat="42.2393790" lon="1.8363090">
        <ele>1359.9</ele>
        <time>2015-08-14T11:47:10Z</time>
      </trkpt>
      <trkpt lat="42.2393470" lon="1.8363900">
        <ele>1358.6</ele>
        <time>2015-08-14T11:47:19Z</time>
      </trkpt>
      <trkpt lat="42.2393280" lon="1.8364270">
        <ele>1357.8</ele>
        <time>2015-08-14T11:47:24Z</time>
      </trkpt>
      <trkpt lat="42.2393080" lon="1.8364630">
        <ele>1356.8</ele>
        <time>2015-08-14T11:48:01Z</time>
      </trkpt>
      <trkpt lat="42.2392880" lon="1.8364990">
        <ele>1355.8</ele>
        <time>2015-08-14T11:48:02Z</time>
      </trkpt>
      <trkpt lat="42.2392600" lon="1.8365410">
        <ele>1354.4</ele>
        <time>2015-08-14T11:48:04Z</time>
      </trkpt>
      <trkpt lat="42.2392570" lon="1.8365980">
        <ele>1354.8</ele>
        <time>2015-08-14T11:48:05Z</time>
      </trkpt>
      <trkpt lat="42.2392560" lon="1.8366440">
        <ele>1355.3</ele>
        <time>2015-08-14T11:48:06Z</time>
      </trkpt>
      <trkpt lat="42.2392640" lon="1.8366990">
        <ele>1356.4</ele>
        <time>2015-08-14T11:48:07Z</time>
      </trkpt>
      <trkpt lat="42.2392630" lon="1.8367540">
        <ele>1356.9</ele>
        <time>2015-08-14T11:48:08Z</time>
      </trkpt>
      <trkpt lat="42.2392450" lon="1.8368030">
        <ele>1356.2</ele>
        <time>2015-08-14T11:48:09Z</time>
      </trkpt>
      <trkpt lat="42.2392170" lon="1.8368680">
        <ele>1355.1</ele>
        <time>2015-08-14T11:48:10Z</time>
      </trkpt>
      <trkpt lat="42.2391850" lon="1.8369430">
        <ele>1353.7</ele>
        <time>2015-08-14T11:48:11Z</time>
      </trkpt>
      <trkpt lat="42.2391750" lon="1.8369810">
        <ele>1353.5</ele>
        <time>2015-08-14T11:48:12Z</time>
      </trkpt>
      <trkpt lat="42.2391530" lon="1.8370720">
        <ele>1353.0</ele>
        <time>2015-08-14T11:48:13Z</time>
      </trkpt>
      <trkpt lat="42.2391410" lon="1.8371090">
        <ele>1353.2</ele>
        <time>2015-08-14T11:48:14Z</time>
      </trkpt>
      <trkpt lat="42.2391130" lon="1.8371570">
        <ele>1353.0</ele>
        <time>2015-08-14T11:48:15Z</time>
      </trkpt>
      <trkpt lat="42.2391000" lon="1.8371960">
        <ele>1353.5</ele>
        <time>2015-08-14T11:48:16Z</time>
      </trkpt>
      <trkpt lat="42.2390880" lon="1.8372570">
        <ele>1354.9</ele>
        <time>2015-08-14T11:48:18Z</time>
      </trkpt>
      <trkpt lat="42.2390520" lon="1.8372800">
        <ele>1353.4</ele>
        <time>2015-08-14T11:48:20Z</time>
      </trkpt>
      <trkpt lat="42.2390320" lon="1.8373490">
        <ele>1354.5</ele>
        <time>2015-08-14T11:48:22Z</time>
      </trkpt>
      <trkpt lat="42.2389830" lon="1.8373800">
        <ele>1352.4</ele>
        <time>2015-08-14T11:48:23Z</time>
      </trkpt>
      <trkpt lat="42.2389670" lon="1.8374160">
        <ele>1352.6</ele>
        <time>2015-08-14T11:48:24Z</time>
      </trkpt>
      <trkpt lat="42.2389420" lon="1.8374540">
        <ele>1352.4</ele>
        <time>2015-08-14T11:48:26Z</time>
      </trkpt>
      <trkpt lat="42.2388930" lon="1.8374500">
        <ele>1349.0</ele>
        <time>2015-08-14T11:48:27Z</time>
      </trkpt>
      <trkpt lat="42.2388890" lon="1.8375280">
        <ele>1351.6</ele>
        <time>2015-08-14T11:48:28Z</time>
      </trkpt>
      <trkpt lat="42.2388630" lon="1.8375480">
        <ele>1350.7</ele>
        <time>2015-08-14T11:48:29Z</time>
      </trkpt>
      <trkpt lat="42.2388480" lon="1.8375880">
        <ele>1351.1</ele>
        <time>2015-08-14T11:48:30Z</time>
      </trkpt>
      <trkpt lat="42.2388320" lon="1.8376260">
        <ele>1351.5</ele>
        <time>2015-08-14T11:48:32Z</time>
      </trkpt>
      <trkpt lat="42.2388060" lon="1.8376890">
        <ele>1352.1</ele>
        <time>2015-08-14T11:48:35Z</time>
      </trkpt>
      <trkpt lat="42.2387590" lon="1.8377150">
        <ele>1350.1</ele>
        <time>2015-08-14T11:48:38Z</time>
      </trkpt>
      <trkpt lat="42.2387230" lon="1.8377370">
        <ele>1348.3</ele>
        <time>2015-08-14T11:48:39Z</time>
      </trkpt>
      <trkpt lat="42.2386720" lon="1.8377770">
        <ele>1345.9</ele>
        <time>2015-08-14T11:48:41Z</time>
      </trkpt>
      <trkpt lat="42.2386460" lon="1.8378160">
        <ele>1345.4</ele>
        <time>2015-08-14T11:48:44Z</time>
      </trkpt>
      <trkpt lat="42.2386030" lon="1.8378410">
        <ele>1343.0</ele>
        <time>2015-08-14T11:48:45Z</time>
      </trkpt>
      <trkpt lat="42.2385620" lon="1.8378750">
        <ele>1341.2</ele>
        <time>2015-08-14T11:48:47Z</time>
      </trkpt>
      <trkpt lat="42.2385000" lon="1.8379100">
        <ele>1337.8</ele>
        <time>2015-08-14T11:48:50Z</time>
      </trkpt>
      <trkpt lat="42.2384800" lon="1.8379450">
        <ele>1337.3</ele>
        <time>2015-08-14T11:48:52Z</time>
      </trkpt>
      <trkpt lat="42.2384530" lon="1.8379750">
        <ele>1336.1</ele>
        <time>2015-08-14T11:48:55Z</time>
      </trkpt>
      <trkpt lat="42.2384410" lon="1.8380280">
        <ele>1336.6</ele>
        <time>2015-08-14T11:48:57Z</time>
      </trkpt>
      <trkpt lat="42.2384680" lon="1.8380890">
        <ele>1340.3</ele>
        <time>2015-08-14T11:49:00Z</time>
      </trkpt>
      <trkpt lat="42.2384860" lon="1.8381220">
        <ele>1342.6</ele>
        <time>2015-08-14T11:49:02Z</time>
      </trkpt>
      <trkpt lat="42.2385200" lon="1.8381530">
        <ele>1346.0</ele>
        <time>2015-08-14T11:49:05Z</time>
      </trkpt>
      <trkpt lat="42.2385410" lon="1.8381820">
        <ele>1348.4</ele>
        <time>2015-08-14T11:49:06Z</time>
      </trkpt>
      <trkpt lat="42.2385640" lon="1.8382120">
        <ele>1351.0</ele>
        <time>2015-08-14T11:49:08Z</time>
      </trkpt>
      <trkpt lat="42.2386020" lon="1.8382060">
        <ele>1353.8</ele>
        <time>2015-08-14T11:49:09Z</time>
      </trkpt>
      <trkpt lat="42.2386000" lon="1.8382590">
        <ele>1355.1</ele>
        <time>2015-08-14T11:49:11Z</time>
      </trkpt>
      <trkpt lat="42.2386040" lon="1.8383110">
        <ele>1356.9</ele>
        <time>2015-08-14T11:49:13Z</time>
      </trkpt>
      <trkpt lat="42.2386250" lon="1.8383390">
        <ele>1359.3</ele>
        <time>2015-08-14T11:49:15Z</time>
      </trkpt>
      <trkpt lat="42.2386350" lon="1.8384060">
        <ele>1362.0</ele>
        <time>2015-08-14T11:49:17Z</time>
      </trkpt>
      <trkpt lat="42.2386310" lon="1.8384540">
        <ele>1363.0</ele>
        <time>2015-08-14T11:49:18Z</time>
      </trkpt>
      <trkpt lat="42.2386510" lon="1.8384880">
        <ele>1365.6</ele>
        <time>2015-08-14T11:49:19Z</time>
      </trkpt>
      <trkpt lat="42.2386620" lon="1.8385370">
        <ele>1367.8</ele>
        <time>2015-08-14T11:49:20Z</time>
      </trkpt>
      <trkpt lat="42.2386700" lon="1.8385750">
        <ele>1369.5</ele>
        <time>2015-08-14T11:49:21Z</time>
      </trkpt>
      <trkpt lat="42.2386900" lon="1.8386130">
        <ele>1372.2</ele>
        <time>2015-08-14T11:49:22Z</time>
      </trkpt>
      <trkpt lat="42.2387330" lon="1.8386580">
        <ele>1377.0</ele>
        <time>2015-08-14T11:49:24Z</time>
      </trkpt>
      <trkpt lat="42.2387550" lon="1.8387000">
        <ele>1379.9</ele>
        <time>2015-08-14T11:49:25Z</time>
      </trkpt>
      <trkpt lat="42.2387970" lon="1.8387550">
        <ele>1383.7</ele>
        <time>2015-08-14T11:49:27Z</time>
      </trkpt>
      <trkpt lat="42.2387770" lon="1.8388000">
        <ele>1381.6</ele>
        <time>2015-08-14T11:49:28Z</time>
      </trkpt>
      <trkpt lat="42.2387310" lon="1.8388280">
        <ele>1377.9</ele>
        <time>2015-08-14T11:49:29Z</time>
      </trkpt>
      <trkpt lat="42.2387560" lon="1.8388510">
        <ele>1379.3</ele>
        <time>2015-08-14T11:49:30Z</time>
      </trkpt>
      <trkpt lat="42.2387690" lon="1.8388970">
        <ele>1379.1</ele>
        <time>2015-08-14T11:49:32Z</time>
      </trkpt>
      <trkpt lat="42.2387940" lon="1.8389490">
        <ele>1379.6</ele>
        <time>2015-08-14T11:49:34Z</time>
      </trkpt>
      <trkpt lat="42.2388330" lon="1.8389760">
        <ele>1381.3</ele>
        <time>2015-08-14T11:49:37Z</time>
      </trkpt>
      <trkpt lat="42.2388560" lon="1.8390360">
        <ele>1381.5</ele>
        <time>2015-08-14T11:49:38Z</time>
      </trkpt>
      <trkpt lat="42.2388200" lon="1.8390600">
        <ele>1378.9</ele>
        <time>2015-08-14T11:49:39Z</time>
      </trkpt>
      <trkpt lat="42.2388370" lon="1.8391010">
        <ele>1379.0</ele>
        <time>2015-08-14T11:49:40Z</time>
      </trkpt>
      <trkpt lat="42.2388620" lon="1.8391560">
        <ele>1379.4</ele>
        <time>2015-08-14T11:49:42Z</time>
      </trkpt>
      <trkpt lat="42.2388340" lon="1.8392100">
        <ele>1376.7</ele>
        <time>2015-08-14T11:49:43Z</time>
      </trkpt>
      <trkpt lat="42.2388280" lon="1.8392850">
        <ele>1374.8</ele>
        <time>2015-08-14T11:49:45Z</time>
      </trkpt>
      <trkpt lat="42.2388230" lon="1.8393290">
        <ele>1373.6</ele>
        <time>2015-08-14T11:49:46Z</time>
      </trkpt>
      <trkpt lat="42.2388580" lon="1.8393750">
        <ele>1374.8</ele>
        <time>2015-08-14T11:49:47Z</time>
      </trkpt>
      <trkpt lat="42.2388640" lon="1.8394210">
        <ele>1374.2</ele>
        <time>2015-08-14T11:49:48Z</time>
      </trkpt>
      <trkpt lat="42.2388840" lon="1.8394610">
        <ele>1374.6</ele>
        <time>2015-08-14T11:49:49Z</time>
      </trkpt>
      <trkpt lat="42.2388860" lon="1.8395030">
        <ele>1373.9</ele>
        <time>2015-08-14T11:49:50Z</time>
      </trkpt>
      <trkpt lat="42.2389080" lon="1.8395980">
        <ele>1373.3</ele>
        <time>2015-08-14T11:49:52Z</time>
      </trkpt>
      <trkpt lat="42.2389260" lon="1.8396500">
        <ele>1372.9</ele>
        <time>2015-08-14T11:49:53Z</time>
      </trkpt>
      <trkpt lat="42.2389030" lon="1.8397200">
        <ele>1369.5</ele>
        <time>2015-08-14T11:49:54Z</time>
      </trkpt>
      <trkpt lat="42.2388980" lon="1.8397920">
        <ele>1367.2</ele>
        <time>2015-08-14T11:49:55Z</time>
      </trkpt>
      <trkpt lat="42.2389110" lon="1.8398300">
        <ele>1367.0</ele>
        <time>2015-08-14T11:49:56Z</time>
      </trkpt>
      <trkpt lat="42.2389170" lon="1.8398920">
        <ele>1365.6</ele>
        <time>2015-08-14T11:49:57Z</time>
      </trkpt>
      <trkpt lat="42.2389050" lon="1.8399600">
        <ele>1363.0</ele>
        <time>2015-08-14T11:49:58Z</time>
      </trkpt>
      <trkpt lat="42.2389180" lon="1.8400410">
        <ele>1361.5</ele>
        <time>2015-08-14T11:49:59Z</time>
      </trkpt>
      <trkpt lat="42.2389170" lon="1.8400880">
        <ele>1360.2</ele>
        <time>2015-08-14T11:50:00Z</time>
      </trkpt>
      <trkpt lat="42.2389050" lon="1.8401360">
        <ele>1358.1</ele>
        <time>2015-08-14T11:50:01Z</time>
      </trkpt>
      <trkpt lat="42.2389020" lon="1.8401810">
        <ele>1356.6</ele>
        <time>2015-08-14T11:50:02Z</time>
      </trkpt>
      <trkpt lat="42.2388990" lon="1.8402260">
        <ele>1355.2</ele>
        <time>2015-08-14T11:50:03Z</time>
      </trkpt>
      <trkpt lat="42.2389020" lon="1.8402800">
        <ele>1353.8</ele>
        <time>2015-08-14T11:50:04Z</time>
      </trkpt>
      <trkpt lat="42.2388980" lon="1.8403550">
        <ele>1351.5</ele>
        <time>2015-08-14T11:50:06Z</time>
      </trkpt>
      <trkpt lat="42.2388690" lon="1.8404360">
        <ele>1347.7</ele>
        <time>2015-08-14T11:50:08Z</time>
      </trkpt>
      <trkpt lat="42.2388500" lon="1.8404740">
        <ele>1346.0</ele>
        <time>2015-08-14T11:50:09Z</time>
      </trkpt>
      <trkpt lat="42.2388440" lon="1.8405220">
        <ele>1345.2</ele>
        <time>2015-08-14T11:50:10Z</time>
      </trkpt>
      <trkpt lat="42.2388560" lon="1.8405760">
        <ele>1345.4</ele>
        <time>2015-08-14T11:50:11Z</time>
      </trkpt>
      <trkpt lat="42.2388640" lon="1.8406200">
        <ele>1345.5</ele>
        <time>2015-08-14T11:50:12Z</time>
      </trkpt>
      <trkpt lat="42.2388460" lon="1.8406710">
        <ele>1343.8</ele>
        <time>2015-08-14T11:50:13Z</time>
      </trkpt>
      <trkpt lat="42.2388320" lon="1.8407220">
        <ele>1342.4</ele>
        <time>2015-08-14T11:50:14Z</time>
      </trkpt>
      <trkpt lat="42.2388170" lon="1.8407750">
        <ele>1340.9</ele>
        <time>2015-08-14T11:50:15Z</time>
      </trkpt>
      <trkpt lat="42.2388100" lon="1.8408300">
        <ele>1339.9</ele>
        <time>2015-08-14T11:50:16Z</time>
      </trkpt>
      <trkpt lat="42.2388020" lon="1.8408790">
        <ele>1338.9</ele>
        <time>2015-08-14T11:50:17Z</time>
      </trkpt>
      <trkpt lat="42.2387920" lon="1.8409370">
        <ele>1337.7</ele>
        <time>2015-08-14T11:50:18Z</time>
      </trkpt>
      <trkpt lat="42.2387820" lon="1.8409950">
        <ele>1336.5</ele>
        <time>2015-08-14T11:50:19Z</time>
      </trkpt>
      <trkpt lat="42.2387720" lon="1.8410450">
        <ele>1335.4</ele>
        <time>2015-08-14T11:50:20Z</time>
      </trkpt>
      <trkpt lat="42.2387620" lon="1.8411070">
        <ele>1334.1</ele>
        <time>2015-08-14T11:50:21Z</time>
      </trkpt>
      <trkpt lat="42.2387520" lon="1.8411580">
        <ele>1333.0</ele>
        <time>2015-08-14T11:50:22Z</time>
      </trkpt>
      <trkpt lat="42.2387290" lon="1.8412290">
        <ele>1330.7</ele>
        <time>2015-08-14T11:50:24Z</time>
      </trkpt>
      <trkpt lat="42.2387080" lon="1.8412840">
        <ele>1329.0</ele>
        <time>2015-08-14T11:50:26Z</time>
      </trkpt>
      <trkpt lat="42.2386930" lon="1.8413390">
        <ele>1328.0</ele>
        <time>2015-08-14T11:50:27Z</time>
      </trkpt>
      <trkpt lat="42.2386810" lon="1.8413810">
        <ele>1327.3</ele>
        <time>2015-08-14T11:50:28Z</time>
      </trkpt>
      <trkpt lat="42.2386720" lon="1.8414200">
        <ele>1326.7</ele>
        <time>2015-08-14T11:50:29Z</time>
      </trkpt>
      <trkpt lat="42.2386790" lon="1.8414800">
        <ele>1327.3</ele>
        <time>2015-08-14T11:50:30Z</time>
      </trkpt>
      <trkpt lat="42.2386770" lon="1.8415470">
        <ele>1327.3</ele>
        <time>2015-08-14T11:50:31Z</time>
      </trkpt>
      <trkpt lat="42.2386700" lon="1.8415940">
        <ele>1326.9</ele>
        <time>2015-08-14T11:50:32Z</time>
      </trkpt>
      <trkpt lat="42.2386540" lon="1.8416480">
        <ele>1325.8</ele>
        <time>2015-08-14T11:50:33Z</time>
      </trkpt>
      <trkpt lat="42.2386410" lon="1.8417010">
        <ele>1325.0</ele>
        <time>2015-08-14T11:50:34Z</time>
      </trkpt>
      <trkpt lat="42.2386080" lon="1.8417450">
        <ele>1322.9</ele>
        <time>2015-08-14T11:50:35Z</time>
      </trkpt>
      <trkpt lat="42.2385760" lon="1.8417860">
        <ele>1320.8</ele>
        <time>2015-08-14T11:50:36Z</time>
      </trkpt>
      <trkpt lat="42.2385600" lon="1.8418250">
        <ele>1319.8</ele>
        <time>2015-08-14T11:50:37Z</time>
      </trkpt>
      <trkpt lat="42.2385520" lon="1.8418860">
        <ele>1319.4</ele>
        <time>2015-08-14T11:50:39Z</time>
      </trkpt>
      <trkpt lat="42.2385370" lon="1.8419740">
        <ele>1318.6</ele>
        <time>2015-08-14T11:50:41Z</time>
      </trkpt>
      <trkpt lat="42.2385140" lon="1.8420000">
        <ele>1317.2</ele>
        <time>2015-08-14T11:50:42Z</time>
      </trkpt>
      <trkpt lat="42.2384810" lon="1.8420120">
        <ele>1315.0</ele>
        <time>2015-08-14T11:50:43Z</time>
      </trkpt>
      <trkpt lat="42.2384340" lon="1.8420510">
        <ele>1312.0</ele>
        <time>2015-08-14T11:50:44Z</time>
      </trkpt>
      <trkpt lat="42.2384140" lon="1.8421160">
        <ele>1311.4</ele>
        <time>2015-08-14T11:50:46Z</time>
      </trkpt>
      <trkpt lat="42.2383890" lon="1.8421470">
        <ele>1310.3</ele>
        <time>2015-08-14T11:50:47Z</time>
      </trkpt>
      <trkpt lat="42.2383790" lon="1.8421850">
        <ele>1310.3</ele>
        <time>2015-08-14T11:50:48Z</time>
      </trkpt>
      <trkpt lat="42.2383570" lon="1.8422300">
        <ele>1309.7</ele>
        <time>2015-08-14T11:50:49Z</time>
      </trkpt>
      <trkpt lat="42.2383290" lon="1.8422850">
        <ele>1308.8</ele>
        <time>2015-08-14T11:50:50Z</time>
      </trkpt>
      <trkpt lat="42.2382950" lon="1.8423620">
        <ele>1308.0</ele>
        <time>2015-08-14T11:50:52Z</time>
      </trkpt>
      <trkpt lat="42.2382740" lon="1.8424280">
        <ele>1307.8</ele>
        <time>2015-08-14T11:50:53Z</time>
      </trkpt>
      <trkpt lat="42.2382610" lon="1.8424790">
        <ele>1307.9</ele>
        <time>2015-08-14T11:50:55Z</time>
      </trkpt>
      <trkpt lat="42.2382640" lon="1.8425340">
        <ele>1309.1</ele>
        <time>2015-08-14T11:50:57Z</time>
      </trkpt>
      <trkpt lat="42.2382360" lon="1.8425920">
        <ele>1308.4</ele>
        <time>2015-08-14T11:50:59Z</time>
      </trkpt>
      <trkpt lat="42.2382300" lon="1.8426640">
        <ele>1309.3</ele>
        <time>2015-08-14T11:51:01Z</time>
      </trkpt>
      <trkpt lat="42.2382190" lon="1.8426990">
        <ele>1309.2</ele>
        <time>2015-08-14T11:51:03Z</time>
      </trkpt>
      <trkpt lat="42.2381950" lon="1.8427300">
        <ele>1308.3</ele>
        <time>2015-08-14T11:51:05Z</time>
      </trkpt>
      <trkpt lat="42.2381820" lon="1.8427750">
        <ele>1308.3</ele>
        <time>2015-08-14T11:51:07Z</time>
      </trkpt>
      <trkpt lat="42.2381670" lon="1.8428240">
        <ele>1308.2</ele>
        <time>2015-08-14T11:51:09Z</time>
      </trkpt>
      <trkpt lat="42.2381410" lon="1.8428350">
        <ele>1306.8</ele>
        <time>2015-08-14T11:51:11Z</time>
      </trkpt>
      <trkpt lat="42.2381240" lon="1.8428670">
        <ele>1306.3</ele>
        <time>2015-08-14T11:51:13Z</time>
      </trkpt>
      <trkpt lat="42.2381060" lon="1.8429120">
        <ele>1306.0</ele>
        <time>2015-08-14T11:51:15Z</time>
      </trkpt>
      <trkpt lat="42.2380930" lon="1.8429460">
        <ele>1305.9</ele>
        <time>2015-08-14T11:51:17Z</time>
      </trkpt>
      <trkpt lat="42.2381350" lon="1.8430200">
        <ele>1310.2</ele>
        <time>2015-08-14T11:51:47Z</time>
      </trkpt>
      <trkpt lat="42.2381200" lon="1.8430560">
        <ele>1310.2</ele>
        <time>2015-08-14T11:51:49Z</time>
      </trkpt>
      <trkpt lat="42.2381110" lon="1.8431040">
        <ele>1310.8</ele>
        <time>2015-08-14T11:51:55Z</time>
      </trkpt>
      <trkpt lat="42.2381130" lon="1.8431550">
        <ele>1312.1</ele>
        <time>2015-08-14T11:51:56Z</time>
      </trkpt>
      <trkpt lat="42.2380980" lon="1.8432250">
        <ele>1313.0</ele>
        <time>2015-08-14T11:51:59Z</time>
      </trkpt>
      <trkpt lat="42.2380550" lon="1.8432390">
        <ele>1311.1</ele>
        <time>2015-08-14T11:52:05Z</time>
      </trkpt>
      <trkpt lat="42.2380280" lon="1.8432410">
        <ele>1309.8</ele>
        <time>2015-08-14T11:52:07Z</time>
      </trkpt>
      <trkpt lat="42.2380560" lon="1.8432700">
        <ele>1312.0</ele>
        <time>2015-08-14T11:52:09Z</time>
      </trkpt>
      <trkpt lat="42.2380660" lon="1.8433050">
        <ele>1313.4</ele>
        <time>2015-08-14T11:53:09Z</time>
      </trkpt>
      <trkpt lat="42.2380370" lon="1.8433550">
        <ele>1313.3</ele>
        <time>2015-08-14T11:53:11Z</time>
      </trkpt>
      <trkpt lat="42.2380100" lon="1.8434280">
        <ele>1314.0</ele>
        <time>2015-08-14T11:53:13Z</time>
      </trkpt>
      <trkpt lat="42.2379810" lon="1.8435000">
        <ele>1314.8</ele>
        <time>2015-08-14T11:53:15Z</time>
      </trkpt>
      <trkpt lat="42.2379660" lon="1.8435460">
        <ele>1315.6</ele>
        <time>2015-08-14T11:53:16Z</time>
      </trkpt>
      <trkpt lat="42.2379330" lon="1.8435750">
        <ele>1315.2</ele>
        <time>2015-08-14T11:53:17Z</time>
      </trkpt>
      <trkpt lat="42.2379300" lon="1.8436520">
        <ele>1317.4</ele>
        <time>2015-08-14T11:53:19Z</time>
      </trkpt>
      <trkpt lat="42.2379290" lon="1.8437010">
        <ele>1318.9</ele>
        <time>2015-08-14T11:53:21Z</time>
      </trkpt>
      <trkpt lat="42.2379180" lon="1.8437430">
        <ele>1319.8</ele>
        <time>2015-08-14T11:53:22Z</time>
      </trkpt>
      <trkpt lat="42.2379040" lon="1.8437920">
        <ele>1320.8</ele>
        <time>2015-08-14T11:53:23Z</time>
      </trkpt>
      <trkpt lat="42.2378990" lon="1.8438430">
        <ele>1322.2</ele>
        <time>2015-08-14T11:53:25Z</time>
      </trkpt>
      <trkpt lat="42.2378860" lon="1.8438950">
        <ele>1323.3</ele>
        <time>2015-08-14T11:53:27Z</time>
      </trkpt>
      <trkpt lat="42.2378520" lon="1.8439340">
        <ele>1323.2</ele>
        <time>2015-08-14T11:53:29Z</time>
      </trkpt>
      <trkpt lat="42.2378250" lon="1.8439700">
        <ele>1323.3</ele>
        <time>2015-08-14T11:53:31Z</time>
      </trkpt>
      <trkpt lat="42.2377780" lon="1.8440180">
        <ele>1323.1</ele>
        <time>2015-08-14T11:53:33Z</time>
      </trkpt>
      <trkpt lat="42.2377630" lon="1.8440550">
        <ele>1323.8</ele>
        <time>2015-08-14T11:53:34Z</time>
      </trkpt>
      <trkpt lat="42.2377940" lon="1.8440750">
        <ele>1325.6</ele>
        <time>2015-08-14T11:53:35Z</time>
      </trkpt>
      <trkpt lat="42.2377690" lon="1.8441070">
        <ele>1325.8</ele>
        <time>2015-08-14T11:53:37Z</time>
      </trkpt>
      <trkpt lat="42.2377500" lon="1.8441500">
        <ele>1326.6</ele>
        <time>2015-08-14T11:53:38Z</time>
      </trkpt>
      <trkpt lat="42.2377180" lon="1.8441910">
        <ele>1326.9</ele>
        <time>2015-08-14T11:53:39Z</time>
      </trkpt>
      <trkpt lat="42.2376980" lon="1.8442240">
        <ele>1327.4</ele>
        <time>2015-08-14T11:53:40Z</time>
      </trkpt>
      <trkpt lat="42.2376710" lon="1.8442490">
        <ele>1327.4</ele>
        <time>2015-08-14T11:53:41Z</time>
      </trkpt>
      <trkpt lat="42.2376430" lon="1.8442670">
        <ele>1327.2</ele>
        <time>2015-08-14T11:53:42Z</time>
      </trkpt>
      <trkpt lat="42.2376190" lon="1.8443050">
        <ele>1327.8</ele>
        <time>2015-08-14T11:53:44Z</time>
      </trkpt>
      <trkpt lat="42.2375930" lon="1.8443590">
        <ele>1329.0</ele>
        <time>2015-08-14T11:53:46Z</time>
      </trkpt>
      <trkpt lat="42.2375560" lon="1.8443760">
        <ele>1328.5</ele>
        <time>2015-08-14T11:53:49Z</time>
      </trkpt>
      <trkpt lat="42.2375250" lon="1.8444220">
        <ele>1329.4</ele>
        <time>2015-08-14T11:53:51Z</time>
      </trkpt>
      <trkpt lat="42.2375030" lon="1.8444730">
        <ele>1330.7</ele>
        <time>2015-08-14T11:53:55Z</time>
      </trkpt>
      <trkpt lat="42.2374880" lon="1.8445170">
        <ele>1332.0</ele>
        <time>2015-08-14T11:53:57Z</time>
      </trkpt>
      <trkpt lat="42.2374710" lon="1.8445470">
        <ele>1332.8</ele>
        <time>2015-08-14T11:53:58Z</time>
      </trkpt>
      <trkpt lat="42.2374380" lon="1.8445790">
        <ele>1333.2</ele>
        <time>2015-08-14T11:53:59Z</time>
      </trkpt>
      <trkpt lat="42.2374150" lon="1.8446220">
        <ele>1333.6</ele>
        <time>2015-08-14T11:54:01Z</time>
      </trkpt>
      <trkpt lat="42.2373740" lon="1.8446600">
        <ele>1333.5</ele>
        <time>2015-08-14T11:54:03Z</time>
      </trkpt>
      <trkpt lat="42.2373590" lon="1.8447010">
        <ele>1334.2</ele>
        <time>2015-08-14T11:54:05Z</time>
      </trkpt>
      <trkpt lat="42.2373420" lon="1.8447460">
        <ele>1334.9</ele>
        <time>2015-08-14T11:54:07Z</time>
      </trkpt>
      <trkpt lat="42.2373330" lon="1.8448120">
        <ele>1336.5</ele>
        <time>2015-08-14T11:54:09Z</time>
      </trkpt>
      <trkpt lat="42.2373360" lon="1.8448640">
        <ele>1337.8</ele>
        <time>2015-08-14T11:54:11Z</time>
      </trkpt>
      <trkpt lat="42.2373290" lon="1.8449050">
        <ele>1338.8</ele>
        <time>2015-08-14T11:54:14Z</time>
      </trkpt>
      <trkpt lat="42.2373130" lon="1.8449450">
        <ele>1339.7</ele>
        <time>2015-08-14T11:54:16Z</time>
      </trkpt>
      <trkpt lat="42.2373020" lon="1.8449990">
        <ele>1341.0</ele>
        <time>2015-08-14T11:54:18Z</time>
      </trkpt>
      <trkpt lat="42.2373200" lon="1.8450360">
        <ele>1342.2</ele>
        <time>2015-08-14T11:54:19Z</time>
      </trkpt>
      <trkpt lat="42.2373010" lon="1.8450640">
        <ele>1342.8</ele>
        <time>2015-08-14T11:54:20Z</time>
      </trkpt>
      <trkpt lat="42.2373050" lon="1.8451320">
        <ele>1344.7</ele>
        <time>2015-08-14T11:54:33Z</time>
      </trkpt>
      <trkpt lat="42.2373060" lon="1.8451620">
        <ele>1345.5</ele>
        <time>2015-08-14T11:55:10Z</time>
      </trkpt>
      <trkpt lat="42.2373070" lon="1.8451920">
        <ele>1346.3</ele>
        <time>2015-08-14T11:57:50Z</time>
      </trkpt>
      <trkpt lat="42.2373080" lon="1.8452220">
        <ele>1347.1</ele>
        <time>2015-08-14T11:57:51Z</time>
      </trkpt>
      <trkpt lat="42.2373240" lon="1.8452810">
        <ele>1348.6</ele>
        <time>2015-08-14T11:57:52Z</time>
      </trkpt>
      <trkpt lat="42.2373300" lon="1.8453320">
        <ele>1349.9</ele>
        <time>2015-08-14T11:57:53Z</time>
      </trkpt>
      <trkpt lat="42.2372980" lon="1.8453900">
        <ele>1351.7</ele>
        <time>2015-08-14T11:57:55Z</time>
      </trkpt>
      <trkpt lat="42.2372690" lon="1.8454390">
        <ele>1352.9</ele>
        <time>2015-08-14T11:57:56Z</time>
      </trkpt>
      <trkpt lat="42.2372590" lon="1.8455590">
        <ele>1353.7</ele>
        <time>2015-08-14T11:57:58Z</time>
      </trkpt>
      <trkpt lat="42.2372440" lon="1.8455930">
        <ele>1354.2</ele>
        <time>2015-08-14T11:57:59Z</time>
      </trkpt>
      <trkpt lat="42.2372360" lon="1.8456430">
        <ele>1354.7</ele>
        <time>2015-08-14T11:58:00Z</time>
      </trkpt>
      <trkpt lat="42.2372320" lon="1.8457480">
        <ele>1355.4</ele>
        <time>2015-08-14T11:58:01Z</time>
      </trkpt>
      <trkpt lat="42.2372110" lon="1.8458400">
        <ele>1356.6</ele>
        <time>2015-08-14T11:58:02Z</time>
      </trkpt>
      <trkpt lat="42.2372020" lon="1.8458950">
        <ele>1357.2</ele>
        <time>2015-08-14T11:58:03Z</time>
      </trkpt>
      <trkpt lat="42.2372580" lon="1.8459480">
        <ele>1356.1</ele>
        <time>2015-08-14T11:58:04Z</time>
      </trkpt>
      <trkpt lat="42.2372590" lon="1.8459950">
        <ele>1356.4</ele>
        <time>2015-08-14T11:58:05Z</time>
      </trkpt>
      <trkpt lat="42.2372750" lon="1.8460560">
        <ele>1356.3</ele>
        <time>2015-08-14T11:58:06Z</time>
      </trkpt>
      <trkpt lat="42.2373050" lon="1.8460860">
        <ele>1355.5</ele>
        <time>2015-08-14T11:58:07Z</time>
      </trkpt>
      <trkpt lat="42.2372660" lon="1.8461200">
        <ele>1356.9</ele>
        <time>2015-08-14T11:58:08Z</time>
      </trkpt>
      <trkpt lat="42.2372380" lon="1.8461940">
        <ele>1358.2</ele>
        <time>2015-08-14T11:58:10Z</time>
      </trkpt>
      <trkpt lat="42.2372270" lon="1.8462410">
        <ele>1358.9</ele>
        <time>2015-08-14T11:58:11Z</time>
      </trkpt>
      <trkpt lat="42.2372050" lon="1.8462720">
        <ele>1359.4</ele>
        <time>2015-08-14T11:58:12Z</time>
      </trkpt>
      <trkpt lat="42.2372230" lon="1.8463250">
        <ele>1358.0</ele>
        <time>2015-08-14T11:58:13Z</time>
      </trkpt>
      <trkpt lat="42.2372160" lon="1.8463600">
        <ele>1357.7</ele>
        <time>2015-08-14T11:58:14Z</time>
      </trkpt>
      <trkpt lat="42.2372160" lon="1.8464020">
        <ele>1357.0</ele>
        <time>2015-08-14T11:58:15Z</time>
      </trkpt>
      <trkpt lat="42.2371730" lon="1.8464310">
        <ele>1358.1</ele>
        <time>2015-08-14T11:58:16Z</time>
      </trkpt>
      <trkpt lat="42.2371730" lon="1.8464790">
        <ele>1357.4</ele>
        <time>2015-08-14T11:58:17Z</time>
      </trkpt>
      <trkpt lat="42.2371620" lon="1.8465310">
        <ele>1357.0</ele>
        <time>2015-08-14T11:58:19Z</time>
      </trkpt>
      <trkpt lat="42.2371610" lon="1.8465680">
        <ele>1356.5</ele>
        <time>2015-08-14T11:58:20Z</time>
      </trkpt>
      <trkpt lat="42.2371510" lon="1.8466240">
        <ele>1356.0</ele>
        <time>2015-08-14T11:58:22Z</time>
      </trkpt>
      <trkpt lat="42.2371650" lon="1.8466580">
        <ele>1354.9</ele>
        <time>2015-08-14T11:58:23Z</time>
      </trkpt>
      <trkpt lat="42.2371740" lon="1.8467210">
        <ele>1353.6</ele>
        <time>2015-08-14T11:58:25Z</time>
      </trkpt>
      <trkpt lat="42.2371060" lon="1.8467500">
        <ele>1355.9</ele>
        <time>2015-08-14T11:58:35Z</time>
      </trkpt>
      <trkpt lat="42.2370650" lon="1.8467540">
        <ele>1356.2</ele>
        <time>2015-08-14T11:58:36Z</time>
      </trkpt>
      <trkpt lat="42.2370650" lon="1.8467940">
        <ele>1355.7</ele>
        <time>2015-08-14T11:58:38Z</time>
      </trkpt>
      <trkpt lat="42.2370490" lon="1.8468250">
        <ele>1354.9</ele>
        <time>2015-08-14T11:58:48Z</time>
      </trkpt>
      <trkpt lat="42.2370610" lon="1.8468600">
        <ele>1354.7</ele>
        <time>2015-08-14T11:59:10Z</time>
      </trkpt>
      <trkpt lat="42.2370550" lon="1.8468970">
        <ele>1354.1</ele>
        <time>2015-08-14T11:59:26Z</time>
      </trkpt>
      <trkpt lat="42.2370190" lon="1.8469430">
        <ele>1352.7</ele>
        <time>2015-08-14T11:59:28Z</time>
      </trkpt>
      <trkpt lat="42.2369950" lon="1.8470400">
        <ele>1351.2</ele>
        <time>2015-08-14T11:59:31Z</time>
      </trkpt>
      <trkpt lat="42.2369650" lon="1.8470810">
        <ele>1350.3</ele>
        <time>2015-08-14T11:59:33Z</time>
      </trkpt>
      <trkpt lat="42.2369310" lon="1.8470990">
        <ele>1349.5</ele>
        <time>2015-08-14T11:59:34Z</time>
      </trkpt>
      <trkpt lat="42.2369240" lon="1.8471390">
        <ele>1348.5</ele>
        <time>2015-08-14T11:59:35Z</time>
      </trkpt>
      <trkpt lat="42.2369120" lon="1.8472030">
        <ele>1347.1</ele>
        <time>2015-08-14T11:59:37Z</time>
      </trkpt>
      <trkpt lat="42.2369090" lon="1.8472500">
        <ele>1346.2</ele>
        <time>2015-08-14T11:59:38Z</time>
      </trkpt>
      <trkpt lat="42.2368940" lon="1.8473260">
        <ele>1344.6</ele>
        <time>2015-08-14T11:59:40Z</time>
      </trkpt>
      <trkpt lat="42.2368840" lon="1.8474050">
        <ele>1343.1</ele>
        <time>2015-08-14T11:59:42Z</time>
      </trkpt>
      <trkpt lat="42.2368750" lon="1.8475170">
        <ele>1341.1</ele>
        <time>2015-08-14T11:59:44Z</time>
      </trkpt>
      <trkpt lat="42.2368620" lon="1.8475720">
        <ele>1340.2</ele>
        <time>2015-08-14T11:59:45Z</time>
      </trkpt>
      <trkpt lat="42.2368470" lon="1.8476720">
        <ele>1338.7</ele>
        <time>2015-08-14T11:59:47Z</time>
      </trkpt>
      <trkpt lat="42.2368440" lon="1.8477540">
        <ele>1337.3</ele>
        <time>2015-08-14T11:59:48Z</time>
      </trkpt>
      <trkpt lat="42.2368510" lon="1.8478300">
        <ele>1335.9</ele>
        <time>2015-08-14T11:59:49Z</time>
      </trkpt>
      <trkpt lat="42.2368230" lon="1.8479390">
        <ele>1334.9</ele>
        <time>2015-08-14T11:59:50Z</time>
      </trkpt>
      <trkpt lat="42.2368150" lon="1.8479900">
        <ele>1334.5</ele>
        <time>2015-08-14T11:59:51Z</time>
      </trkpt>
      <trkpt lat="42.2367670" lon="1.8480370">
        <ele>1335.4</ele>
        <time>2015-08-14T11:59:52Z</time>
      </trkpt>
      <trkpt lat="42.2367550" lon="1.8480990">
        <ele>1335.1</ele>
        <time>2015-08-14T11:59:53Z</time>
      </trkpt>
      <trkpt lat="42.2367500" lon="1.8481550">
        <ele>1334.6</ele>
        <time>2015-08-14T11:59:55Z</time>
      </trkpt>
      <trkpt lat="42.2367150" lon="1.8482170">
        <ele>1335.2</ele>
        <time>2015-08-14T11:59:56Z</time>
      </trkpt>
      <trkpt lat="42.2366900" lon="1.8482990">
        <ele>1335.4</ele>
        <time>2015-08-14T11:59:57Z</time>
      </trkpt>
      <trkpt lat="42.2367860" lon="1.8483230">
        <ele>1331.4</ele>
        <time>2015-08-14T11:59:58Z</time>
      </trkpt>
      <trkpt lat="42.2368190" lon="1.8483780">
        <ele>1329.4</ele>
        <time>2015-08-14T12:00:00Z</time>
      </trkpt>
      <trkpt lat="42.2368380" lon="1.8484190">
        <ele>1328.1</ele>
        <time>2015-08-14T12:00:01Z</time>
      </trkpt>
      <trkpt lat="42.2368480" lon="1.8484660">
        <ele>1327.0</ele>
        <time>2015-08-14T12:00:02Z</time>
      </trkpt>
      <trkpt lat="42.2368350" lon="1.8485100">
        <ele>1327.0</ele>
        <time>2015-08-14T12:00:04Z</time>
      </trkpt>
      <trkpt lat="42.2368070" lon="1.8485220">
        <ele>1328.1</ele>
        <time>2015-08-14T12:00:05Z</time>
      </trkpt>
      <trkpt lat="42.2368280" lon="1.8485550">
        <ele>1326.7</ele>
        <time>2015-08-14T12:00:10Z</time>
      </trkpt>
      <trkpt lat="42.2368450" lon="1.8485860">
        <ele>1325.5</ele>
        <time>2015-08-14T12:00:20Z</time>
      </trkpt>
      <trkpt lat="42.2368330" lon="1.8486340">
        <ele>1325.4</ele>
        <time>2015-08-14T12:00:24Z</time>
      </trkpt>
      <trkpt lat="42.2367960" lon="1.8486280">
        <ele>1327.3</ele>
        <time>2015-08-14T12:00:27Z</time>
      </trkpt>
      <trkpt lat="42.2367840" lon="1.8486620">
        <ele>1327.5</ele>
        <time>2015-08-14T12:00:30Z</time>
      </trkpt>
      <trkpt lat="42.2367840" lon="1.8487010">
        <ele>1327.0</ele>
        <time>2015-08-14T12:00:31Z</time>
      </trkpt>
      <trkpt lat="42.2368190" lon="1.8487150">
        <ele>1325.1</ele>
        <time>2015-08-14T12:00:32Z</time>
      </trkpt>
      <trkpt lat="42.2368480" lon="1.8487470">
        <ele>1323.2</ele>
        <time>2015-08-14T12:00:33Z</time>
      </trkpt>
      <trkpt lat="42.2368830" lon="1.8487600">
        <ele>1321.2</ele>
        <time>2015-08-14T12:00:34Z</time>
      </trkpt>
      <trkpt lat="42.2369630" lon="1.8488290">
        <ele>1315.7</ele>
        <time>2015-08-14T12:00:36Z</time>
      </trkpt>
      <trkpt lat="42.2369880" lon="1.8488650">
        <ele>1313.7</ele>
        <time>2015-08-14T12:00:37Z</time>
      </trkpt>
      <trkpt lat="42.2370050" lon="1.8489300">
        <ele>1311.5</ele>
        <time>2015-08-14T12:00:39Z</time>
      </trkpt>
      <trkpt lat="42.2369930" lon="1.8489910">
        <ele>1311.0</ele>
        <time>2015-08-14T12:00:40Z</time>
      </trkpt>
      <trkpt lat="42.2370090" lon="1.8490330">
        <ele>1309.3</ele>
        <time>2015-08-14T12:00:41Z</time>
      </trkpt>
      <trkpt lat="42.2370370" lon="1.8490850">
        <ele>1306.7</ele>
        <time>2015-08-14T12:00:43Z</time>
      </trkpt>
      <trkpt lat="42.2370250" lon="1.8491670">
        <ele>1305.8</ele>
        <time>2015-08-14T12:00:45Z</time>
      </trkpt>
      <trkpt lat="42.2370350" lon="1.8492100">
        <ele>1304.4</ele>
        <time>2015-08-14T12:00:46Z</time>
      </trkpt>
      <trkpt lat="42.2370370" lon="1.8492800">
        <ele>1302.9</ele>
        <time>2015-08-14T12:00:48Z</time>
      </trkpt>
      <trkpt lat="42.2370030" lon="1.8493120">
        <ele>1304.2</ele>
        <time>2015-08-14T12:00:49Z</time>
      </trkpt>
      <trkpt lat="42.2369800" lon="1.8493670">
        <ele>1304.5</ele>
        <time>2015-08-14T12:00:50Z</time>
      </trkpt>
      <trkpt lat="42.2369630" lon="1.8494300">
        <ele>1304.3</ele>
        <time>2015-08-14T12:00:51Z</time>
      </trkpt>
      <trkpt lat="42.2370690" lon="1.8494680">
        <ele>1297.2</ele>
        <time>2015-08-14T12:00:52Z</time>
      </trkpt>
      <trkpt lat="42.2370980" lon="1.8494970">
        <ele>1295.2</ele>
        <time>2015-08-14T12:00:53Z</time>
      </trkpt>
      <trkpt lat="42.2371210" lon="1.8495880">
        <ele>1292.6</ele>
        <time>2015-08-14T12:00:54Z</time>
      </trkpt>
      <trkpt lat="42.2371480" lon="1.8496210">
        <ele>1291.2</ele>
        <time>2015-08-14T12:00:55Z</time>
      </trkpt>
      <trkpt lat="42.2371640" lon="1.8496820">
        <ele>1289.9</ele>
        <time>2015-08-14T12:00:56Z</time>
      </trkpt>
      <trkpt lat="42.2371890" lon="1.8498010">
        <ele>1287.6</ele>
        <time>2015-08-14T12:00:58Z</time>
      </trkpt>
      <trkpt lat="42.2371750" lon="1.8498510">
        <ele>1287.5</ele>
        <time>2015-08-14T12:00:59Z</time>
      </trkpt>
      <trkpt lat="42.2371930" lon="1.8498830">
        <ele>1286.4</ele>
        <time>2015-08-14T12:01:00Z</time>
      </trkpt>
      <trkpt lat="42.2371850" lon="1.8499320">
        <ele>1286.1</ele>
        <time>2015-08-14T12:01:01Z</time>
      </trkpt>
      <trkpt lat="42.2371500" lon="1.8501170">
        <ele>1285.1</ele>
        <time>2015-08-14T12:01:03Z</time>
      </trkpt>
      <trkpt lat="42.2371300" lon="1.8501980">
        <ele>1284.9</ele>
        <time>2015-08-14T12:01:04Z</time>
      </trkpt>
      <trkpt lat="42.2371300" lon="1.8502460">
        <ele>1284.3</ele>
        <time>2015-08-14T12:01:05Z</time>
      </trkpt>
      <trkpt lat="42.2371190" lon="1.8503010">
        <ele>1284.1</ele>
        <time>2015-08-14T12:01:06Z</time>
      </trkpt>
      <trkpt lat="42.2371470" lon="1.8503450">
        <ele>1282.5</ele>
        <time>2015-08-14T12:01:07Z</time>
      </trkpt>
      <trkpt lat="42.2371600" lon="1.8503980">
        <ele>1281.4</ele>
        <time>2015-08-14T12:01:08Z</time>
      </trkpt>
      <trkpt lat="42.2371490" lon="1.8504850">
        <ele>1281.2</ele>
        <time>2015-08-14T12:01:09Z</time>
      </trkpt>
      <trkpt lat="42.2371480" lon="1.8505270">
        <ele>1281.0</ele>
        <time>2015-08-14T12:01:10Z</time>
      </trkpt>
      <trkpt lat="42.2371770" lon="1.8506630">
        <ele>1279.1</ele>
        <time>2015-08-14T12:01:11Z</time>
      </trkpt>
      <trkpt lat="42.2371720" lon="1.8507160">
        <ele>1279.0</ele>
        <time>2015-08-14T12:01:12Z</time>
      </trkpt>
      <trkpt lat="42.2372000" lon="1.8508200">
        <ele>1277.2</ele>
        <time>2015-08-14T12:01:13Z</time>
      </trkpt>
      <trkpt lat="42.2371970" lon="1.8508740">
        <ele>1277.1</ele>
        <time>2015-08-14T12:01:14Z</time>
      </trkpt>
      <trkpt lat="42.2372510" lon="1.8510000">
        <ele>1274.0</ele>
        <time>2015-08-14T12:01:15Z</time>
      </trkpt>
      <trkpt lat="42.2372320" lon="1.8510500">
        <ele>1274.5</ele>
        <time>2015-08-14T12:01:16Z</time>
      </trkpt>
      <trkpt lat="42.2372040" lon="1.8511160">
        <ele>1275.3</ele>
        <time>2015-08-14T12:01:17Z</time>
      </trkpt>
      <trkpt lat="42.2371980" lon="1.8511650">
        <ele>1275.3</ele>
        <time>2015-08-14T12:01:18Z</time>
      </trkpt>
      <trkpt lat="42.2372280" lon="1.8512060">
        <ele>1273.7</ele>
        <time>2015-08-14T12:01:19Z</time>
      </trkpt>
      <trkpt lat="42.2372580" lon="1.8512380">
        <ele>1272.1</ele>
        <time>2015-08-14T12:01:20Z</time>
      </trkpt>
      <trkpt lat="42.2372560" lon="1.8512800">
        <ele>1271.5</ele>
        <time>2015-08-14T12:01:22Z</time>
      </trkpt>
      <trkpt lat="42.2372320" lon="1.8513000">
        <ele>1272.2</ele>
        <time>2015-08-14T12:01:24Z</time>
      </trkpt>
      <trkpt lat="42.2372180" lon="1.8513430">
        <ele>1271.9</ele>
        <time>2015-08-14T12:01:26Z</time>
      </trkpt>
      <trkpt lat="42.2371950" lon="1.8513750">
        <ele>1272.3</ele>
        <time>2015-08-14T12:01:28Z</time>
      </trkpt>
      <trkpt lat="42.2371900" lon="1.8514290">
        <ele>1271.4</ele>
        <time>2015-08-14T12:01:30Z</time>
      </trkpt>
      <trkpt lat="42.2371840" lon="1.8514830">
        <ele>1270.5</ele>
        <time>2015-08-14T12:01:31Z</time>
      </trkpt>
      <trkpt lat="42.2371790" lon="1.8515250">
        <ele>1269.8</ele>
        <time>2015-08-14T12:01:32Z</time>
      </trkpt>
      <trkpt lat="42.2371580" lon="1.8515770">
        <ele>1269.5</ele>
        <time>2015-08-14T12:01:33Z</time>
      </trkpt>
      <trkpt lat="42.2372290" lon="1.8516180">
        <ele>1265.8</ele>
        <time>2015-08-14T12:01:34Z</time>
      </trkpt>
      <trkpt lat="42.2372580" lon="1.8516950">
        <ele>1263.1</ele>
        <time>2015-08-14T12:01:36Z</time>
      </trkpt>
      <trkpt lat="42.2372690" lon="1.8517580">
        <ele>1261.4</ele>
        <time>2015-08-14T12:01:38Z</time>
      </trkpt>
      <trkpt lat="42.2372750" lon="1.8518230">
        <ele>1259.9</ele>
        <time>2015-08-14T12:01:40Z</time>
      </trkpt>
      <trkpt lat="42.2372790" lon="1.8518630">
        <ele>1259.0</ele>
        <time>2015-08-14T12:01:43Z</time>
      </trkpt>
      <trkpt lat="42.2372910" lon="1.8519030">
        <ele>1257.8</ele>
        <time>2015-08-14T12:01:44Z</time>
      </trkpt>
      <trkpt lat="42.2373520" lon="1.8519190">
        <ele>1255.3</ele>
        <time>2015-08-14T12:01:46Z</time>
      </trkpt>
      <trkpt lat="42.2373990" lon="1.8519750">
        <ele>1252.7</ele>
        <time>2015-08-14T12:01:48Z</time>
      </trkpt>
      <trkpt lat="42.2374320" lon="1.8520150">
        <ele>1250.9</ele>
        <time>2015-08-14T12:01:49Z</time>
      </trkpt>
      <trkpt lat="42.2375120" lon="1.8520880">
        <ele>1247.0</ele>
        <time>2015-08-14T12:01:51Z</time>
      </trkpt>
      <trkpt lat="42.2375370" lon="1.8521140">
        <ele>1245.4</ele>
        <time>2015-08-14T12:01:52Z</time>
      </trkpt>
      <trkpt lat="42.2376210" lon="1.8521620">
        <ele>1241.4</ele>
        <time>2015-08-14T12:01:53Z</time>
      </trkpt>
      <trkpt lat="42.2376540" lon="1.8521850">
        <ele>1239.8</ele>
        <time>2015-08-14T12:01:54Z</time>
      </trkpt>
      <trkpt lat="42.2377200" lon="1.8522050">
        <ele>1237.2</ele>
        <time>2015-08-14T12:01:55Z</time>
      </trkpt>
      <trkpt lat="42.2377450" lon="1.8522230">
        <ele>1235.9</ele>
        <time>2015-08-14T12:01:56Z</time>
      </trkpt>
      <trkpt lat="42.2377770" lon="1.8522460">
        <ele>1234.4</ele>
        <time>2015-08-14T12:01:57Z</time>
      </trkpt>
      <trkpt lat="42.2378120" lon="1.8522660">
        <ele>1232.8</ele>
        <time>2015-08-14T12:01:58Z</time>
      </trkpt>
      <trkpt lat="42.2378540" lon="1.8523280">
        <ele>1230.0</ele>
        <time>2015-08-14T12:01:59Z</time>
      </trkpt>
      <trkpt lat="42.2379000" lon="1.8523660">
        <ele>1227.7</ele>
        <time>2015-08-14T12:02:00Z</time>
      </trkpt>
      <trkpt lat="42.2378600" lon="1.8523400">
        <ele>1229.5</ele>
        <time>2015-08-14T12:02:01Z</time>
      </trkpt>
      <trkpt lat="42.2379060" lon="1.8523980">
        <ele>1226.8</ele>
        <time>2015-08-14T12:02:03Z</time>
      </trkpt>
      <trkpt lat="42.2379410" lon="1.8524380">
        <ele>1224.6</ele>
        <time>2015-08-14T12:02:05Z</time>
      </trkpt>
      <trkpt lat="42.2379650" lon="1.8524670">
        <ele>1223.1</ele>
        <time>2015-08-14T12:02:06Z</time>
      </trkpt>
      <trkpt lat="42.2379970" lon="1.8524910">
        <ele>1221.4</ele>
        <time>2015-08-14T12:02:07Z</time>
      </trkpt>
      <trkpt lat="42.2380330" lon="1.8525570">
        <ele>1218.8</ele>
        <time>2015-08-14T12:02:08Z</time>
      </trkpt>
      <trkpt lat="42.2380930" lon="1.8526050">
        <ele>1215.9</ele>
        <time>2015-08-14T12:02:09Z</time>
      </trkpt>
      <trkpt lat="42.2380920" lon="1.8526640">
        <ele>1214.8</ele>
        <time>2015-08-14T12:02:10Z</time>
      </trkpt>
      <trkpt lat="42.2381450" lon="1.8527080">
        <ele>1212.4</ele>
        <time>2015-08-14T12:02:11Z</time>
      </trkpt>
      <trkpt lat="42.2381980" lon="1.8527830">
        <ele>1209.7</ele>
        <time>2015-08-14T12:02:12Z</time>
      </trkpt>
      <trkpt lat="42.2382340" lon="1.8528510">
        <ele>1207.7</ele>
        <time>2015-08-14T12:02:13Z</time>
      </trkpt>
      <trkpt lat="42.2383240" lon="1.8528860">
        <ele>1205.1</ele>
        <time>2015-08-14T12:02:14Z</time>
      </trkpt>
      <trkpt lat="42.2384690" lon="1.8529010">
        <ele>1201.5</ele>
        <time>2015-08-14T12:02:15Z</time>
      </trkpt>
      <trkpt lat="42.2384940" lon="1.8529390">
        <ele>1200.3</ele>
        <time>2015-08-14T12:02:16Z</time>
      </trkpt>
      <trkpt lat="42.2385720" lon="1.8529510">
        <ele>1198.3</ele>
        <time>2015-08-14T12:02:17Z</time>
      </trkpt>
      <trkpt lat="42.2386840" lon="1.8530360">
        <ele>1194.1</ele>
        <time>2015-08-14T12:02:18Z</time>
      </trkpt>
      <trkpt lat="42.2387250" lon="1.8531110">
        <ele>1191.7</ele>
        <time>2015-08-14T12:02:19Z</time>
      </trkpt>
      <trkpt lat="42.2387870" lon="1.8531490">
        <ele>1189.3</ele>
        <time>2015-08-14T12:02:20Z</time>
      </trkpt>
      <trkpt lat="42.2388620" lon="1.8531970">
        <ele>1186.1</ele>
        <time>2015-08-14T12:02:21Z</time>
      </trkpt>
      <trkpt lat="42.2388890" lon="1.8532290">
        <ele>1184.9</ele>
        <time>2015-08-14T12:02:22Z</time>
      </trkpt>
      <trkpt lat="42.2389380" lon="1.8532390">
        <ele>1183.3</ele>
        <time>2015-08-14T12:02:23Z</time>
      </trkpt>
      <trkpt lat="42.2389750" lon="1.8532520">
        <ele>1182.1</ele>
        <time>2015-08-14T12:02:24Z</time>
      </trkpt>
      <trkpt lat="42.2390200" lon="1.8532700">
        <ele>1180.7</ele>
        <time>2015-08-14T12:02:25Z</time>
      </trkpt>
      <trkpt lat="42.2390560" lon="1.8533170">
        <ele>1179.4</ele>
        <time>2015-08-14T12:02:26Z</time>
      </trkpt>
      <trkpt lat="42.2390840" lon="1.8534040">
        <ele>1178.2</ele>
        <time>2015-08-14T12:02:27Z</time>
      </trkpt>
      <trkpt lat="42.2391110" lon="1.8534430">
        <ele>1177.5</ele>
        <time>2015-08-14T12:02:28Z</time>
      </trkpt>
      <trkpt lat="42.2391240" lon="1.8535290">
        <ele>1177.0</ele>
        <time>2015-08-14T12:02:29Z</time>
      </trkpt>
      <trkpt lat="42.2391500" lon="1.8536000">
        <ele>1176.4</ele>
        <time>2015-08-14T12:02:30Z</time>
      </trkpt>
      <trkpt lat="42.2391640" lon="1.8536490">
        <ele>1176.2</ele>
        <time>2015-08-14T12:02:31Z</time>
      </trkpt>
      <trkpt lat="42.2392290" lon="1.8536780">
        <ele>1175.4</ele>
        <time>2015-08-14T12:02:32Z</time>
      </trkpt>
      <trkpt lat="42.2392640" lon="1.8537290">
        <ele>1175.2</ele>
        <time>2015-08-14T12:02:33Z</time>
      </trkpt>
      <trkpt lat="42.2393070" lon="1.8537850">
        <ele>1174.2</ele>
        <time>2015-08-14T12:02:34Z</time>
      </trkpt>
      <trkpt lat="42.2393480" lon="1.8538280">
        <ele>1173.1</ele>
        <time>2015-08-14T12:02:35Z</time>
      </trkpt>
      <trkpt lat="42.2394330" lon="1.8539550">
        <ele>1170.3</ele>
        <time>2015-08-14T12:02:36Z</time>
      </trkpt>
      <trkpt lat="42.2394350" lon="1.8540410">
        <ele>1168.8</ele>
        <time>2015-08-14T12:02:37Z</time>
      </trkpt>
      <trkpt lat="42.2394690" lon="1.8541130">
        <ele>1167.5</ele>
        <time>2015-08-14T12:02:38Z</time>
      </trkpt>
      <trkpt lat="42.2394780" lon="1.8542140">
        <ele>1165.8</ele>
        <time>2015-08-14T12:02:39Z</time>
      </trkpt>
      <trkpt lat="42.2394870" lon="1.8543050">
        <ele>1164.3</ele>
        <time>2015-08-14T12:02:40Z</time>
      </trkpt>
      <trkpt lat="42.2394830" lon="1.8544140">
        <ele>1162.4</ele>
        <time>2015-08-14T12:02:41Z</time>
      </trkpt>
      <trkpt lat="42.2394920" lon="1.8544700">
        <ele>1161.6</ele>
        <time>2015-08-14T12:02:42Z</time>
      </trkpt>
      <trkpt lat="42.2395290" lon="1.8545360">
        <ele>1161.0</ele>
        <time>2015-08-14T12:02:43Z</time>
      </trkpt>
      <trkpt lat="42.2395760" lon="1.8546020">
        <ele>1160.4</ele>
        <time>2015-08-14T12:02:44Z</time>
      </trkpt>
      <trkpt lat="42.2395880" lon="1.8546540">
        <ele>1159.0</ele>
        <time>2015-08-14T12:02:45Z</time>
      </trkpt>
      <trkpt lat="42.2396080" lon="1.8547620">
        <ele>1155.8</ele>
        <time>2015-08-14T12:02:46Z</time>
      </trkpt>
      <trkpt lat="42.2396150" lon="1.8548300">
        <ele>1153.8</ele>
        <time>2015-08-14T12:02:47Z</time>
      </trkpt>
      <trkpt lat="42.2396500" lon="1.8548810">
        <ele>1152.1</ele>
        <time>2015-08-14T12:02:48Z</time>
      </trkpt>
      <trkpt lat="42.2396610" lon="1.8549410">
        <ele>1150.5</ele>
        <time>2015-08-14T12:02:49Z</time>
      </trkpt>
      <trkpt lat="42.2396920" lon="1.8550380">
        <ele>1147.8</ele>
        <time>2015-08-14T12:02:50Z</time>
      </trkpt>
      <trkpt lat="42.2397350" lon="1.8551210">
        <ele>1145.5</ele>
        <time>2015-08-14T12:02:51Z</time>
      </trkpt>
      <trkpt lat="42.2397400" lon="1.8552260">
        <ele>1143.0</ele>
        <time>2015-08-14T12:02:52Z</time>
      </trkpt>
      <trkpt lat="42.2397480" lon="1.8552970">
        <ele>1141.2</ele>
        <time>2015-08-14T12:02:53Z</time>
      </trkpt>
      <trkpt lat="42.2397740" lon="1.8553890">
        <ele>1139.1</ele>
        <time>2015-08-14T12:02:54Z</time>
      </trkpt>
      <trkpt lat="42.2397960" lon="1.8554550">
        <ele>1137.5</ele>
        <time>2015-08-14T12:02:55Z</time>
      </trkpt>
      <trkpt lat="42.2398000" lon="1.8555350">
        <ele>1135.4</ele>
        <time>2015-08-14T12:02:56Z</time>
      </trkpt>
      <trkpt lat="42.2398280" lon="1.8555860">
        <ele>1134.2</ele>
        <time>2015-08-14T12:02:57Z</time>
      </trkpt>
      <trkpt lat="42.2398440" lon="1.8556650">
        <ele>1132.3</ele>
        <time>2015-08-14T12:02:58Z</time>
      </trkpt>
      <trkpt lat="42.2398600" lon="1.8557220">
        <ele>1131.0</ele>
        <time>2015-08-14T12:02:59Z</time>
      </trkpt>
      <trkpt lat="42.2398490" lon="1.8557810">
        <ele>1129.4</ele>
        <time>2015-08-14T12:03:00Z</time>
      </trkpt>
      <trkpt lat="42.2398490" lon="1.8558650">
        <ele>1127.2</ele>
        <time>2015-08-14T12:03:01Z</time>
      </trkpt>
      <trkpt lat="42.2398530" lon="1.8559440">
        <ele>1125.3</ele>
        <time>2015-08-14T12:03:02Z</time>
      </trkpt>
      <trkpt lat="42.2399310" lon="1.8559160">
        <ele>1127.0</ele>
        <time>2015-08-14T12:03:03Z</time>
      </trkpt>
      <trkpt lat="42.2399650" lon="1.8559490">
        <ele>1126.7</ele>
        <time>2015-08-14T12:03:04Z</time>
      </trkpt>
      <trkpt lat="42.2400630" lon="1.8560330">
        <ele>1126.3</ele>
        <time>2015-08-14T12:03:05Z</time>
      </trkpt>
      <trkpt lat="42.2400870" lon="1.8560990">
        <ele>1125.3</ele>
        <time>2015-08-14T12:03:06Z</time>
      </trkpt>
      <trkpt lat="42.2400390" lon="1.8561340">
        <ele>1123.8</ele>
        <time>2015-08-14T12:03:07Z</time>
      </trkpt>
      <trkpt lat="42.2400380" lon="1.8561820">
        <ele>1122.7</ele>
        <time>2015-08-14T12:03:08Z</time>
      </trkpt>
      <trkpt lat="42.2400350" lon="1.8562270">
        <ele>1121.7</ele>
        <time>2015-08-14T12:03:09Z</time>
      </trkpt>
      <trkpt lat="42.2400760" lon="1.8562690">
        <ele>1121.5</ele>
        <time>2015-08-14T12:03:12Z</time>
      </trkpt>
      <trkpt lat="42.2400990" lon="1.8562760">
        <ele>1121.7</ele>
        <time>2015-08-14T12:03:13Z</time>
      </trkpt>
      <trkpt lat="42.2401380" lon="1.8562680">
        <ele>1122.8</ele>
        <time>2015-08-14T12:03:14Z</time>
      </trkpt>
      <trkpt lat="42.2401600" lon="1.8563200">
        <ele>1121.7</ele>
        <time>2015-08-14T12:03:15Z</time>
      </trkpt>
      <trkpt lat="42.2401770" lon="1.8563510">
        <ele>1121.2</ele>
        <time>2015-08-14T12:03:16Z</time>
      </trkpt>
      <trkpt lat="42.2402070" lon="1.8563650">
        <ele>1121.4</ele>
        <time>2015-08-14T12:03:17Z</time>
      </trkpt>
      <trkpt lat="42.2402340" lon="1.8564080">
        <ele>1120.8</ele>
        <time>2015-08-14T12:03:18Z</time>
      </trkpt>
      <trkpt lat="42.2402520" lon="1.8564520">
        <ele>1119.9</ele>
        <time>2015-08-14T12:03:19Z</time>
      </trkpt>
      <trkpt lat="42.2402630" lon="1.8564970">
        <ele>1118.9</ele>
        <time>2015-08-14T12:03:20Z</time>
      </trkpt>
      <trkpt lat="42.2402460" lon="1.8565320">
        <ele>1117.5</ele>
        <time>2015-08-14T12:03:21Z</time>
      </trkpt>
      <trkpt lat="42.2402460" lon="1.8566170">
        <ele>1115.1</ele>
        <time>2015-08-14T12:03:23Z</time>
      </trkpt>
      <trkpt lat="42.2403360" lon="1.8566180">
        <ele>1117.3</ele>
        <time>2015-08-14T12:03:24Z</time>
      </trkpt>
      <trkpt lat="42.2403700" lon="1.8566430">
        <ele>1117.5</ele>
        <time>2015-08-14T12:03:25Z</time>
      </trkpt>
      <trkpt lat="42.2403960" lon="1.8566570">
        <ele>1117.7</ele>
        <time>2015-08-14T12:03:26Z</time>
      </trkpt>
      <trkpt lat="42.2404380" lon="1.8566560">
        <ele>1117.9</ele>
        <time>2015-08-14T12:03:27Z</time>
      </trkpt>
      <trkpt lat="42.2404670" lon="1.8566430">
        <ele>1117.7</ele>
        <time>2015-08-14T12:03:29Z</time>
      </trkpt>
      <trkpt lat="42.2404890" lon="1.8566110">
        <ele>1118.0</ele>
        <time>2015-08-14T12:03:35Z</time>
      </trkpt>
      <trkpt lat="42.2404710" lon="1.8565830">
        <ele>1119.0</ele>
        <time>2015-08-14T12:03:57Z</time>
      </trkpt>
      <trkpt lat="42.2404970" lon="1.8565960">
        <ele>1118.2</ele>
        <time>2015-08-14T12:04:17Z</time>
      </trkpt>
      <trkpt lat="42.2405250" lon="1.8566350">
        <ele>1116.7</ele>
        <time>2015-08-14T12:04:43Z</time>
      </trkpt>
      <trkpt lat="42.2405540" lon="1.8566190">
        <ele>1116.5</ele>
        <time>2015-08-14T12:04:48Z</time>
      </trkpt>
      <trkpt lat="42.2405800" lon="1.8566300">
        <ele>1115.8</ele>
        <time>2015-08-14T12:04:58Z</time>
      </trkpt>
      <trkpt lat="42.2406090" lon="1.8566230">
        <ele>1115.3</ele>
        <time>2015-08-14T12:05:03Z</time>
      </trkpt>
      <trkpt lat="42.2406330" lon="1.8566490">
        <ele>1114.4</ele>
        <time>2015-08-14T12:06:08Z</time>
      </trkpt>
      <trkpt lat="42.2406610" lon="1.8566880">
        <ele>1113.3</ele>
        <time>2015-08-14T12:06:18Z</time>
      </trkpt>
      <trkpt lat="42.2406260" lon="1.8567850">
        <ele>1112.2</ele>
        <time>2015-08-14T12:06:20Z</time>
      </trkpt>
      <trkpt lat="42.2405900" lon="1.8568330">
        <ele>1111.8</ele>
        <time>2015-08-14T12:06:21Z</time>
      </trkpt>
      <trkpt lat="42.2405560" lon="1.8568900">
        <ele>1111.0</ele>
        <time>2015-08-14T12:06:22Z</time>
      </trkpt>
      <trkpt lat="42.2405270" lon="1.8569360">
        <ele>1110.3</ele>
        <time>2015-08-14T12:06:23Z</time>
      </trkpt>
      <trkpt lat="42.2405100" lon="1.8570270">
        <ele>1108.4</ele>
        <time>2015-08-14T12:06:24Z</time>
      </trkpt>
      <trkpt lat="42.2404870" lon="1.8571180">
        <ele>1106.4</ele>
        <time>2015-08-14T12:06:25Z</time>
      </trkpt>
      <trkpt lat="42.2404620" lon="1.8571970">
        <ele>1104.8</ele>
        <time>2015-08-14T12:06:26Z</time>
      </trkpt>
      <trkpt lat="42.2404520" lon="1.8572510">
        <ele>1103.7</ele>
        <time>2015-08-14T12:06:27Z</time>
      </trkpt>
      <trkpt lat="42.2404220" lon="1.8573260">
        <ele>1101.8</ele>
        <time>2015-08-14T12:06:28Z</time>
      </trkpt>
      <trkpt lat="42.2404270" lon="1.8574220">
        <ele>1099.9</ele>
        <time>2015-08-14T12:06:29Z</time>
      </trkpt>
      <trkpt lat="42.2404000" lon="1.8575160">
        <ele>1097.1</ele>
        <time>2015-08-14T12:06:30Z</time>
      </trkpt>
      <trkpt lat="42.2403780" lon="1.8575950">
        <ele>1094.6</ele>
        <time>2015-08-14T12:06:31Z</time>
      </trkpt>
      <trkpt lat="42.2403740" lon="1.8576850">
        <ele>1092.5</ele>
        <time>2015-08-14T12:06:32Z</time>
      </trkpt>
      <trkpt lat="42.2403590" lon="1.8577570">
        <ele>1090.4</ele>
        <time>2015-08-14T12:06:33Z</time>
      </trkpt>
      <trkpt lat="42.2403330" lon="1.8578330">
        <ele>1087.8</ele>
        <time>2015-08-14T12:06:34Z</time>
      </trkpt>
      <trkpt lat="42.2403190" lon="1.8578870">
        <ele>1086.0</ele>
        <time>2015-08-14T12:06:35Z</time>
      </trkpt>
      <trkpt lat="42.2403140" lon="1.8579390">
        <ele>1084.9</ele>
        <time>2015-08-14T12:06:36Z</time>
      </trkpt>
      <trkpt lat="42.2403070" lon="1.8580360">
        <ele>1083.6</ele>
        <time>2015-08-14T12:06:37Z</time>
      </trkpt>
      <trkpt lat="42.2402990" lon="1.8581660">
        <ele>1081.9</ele>
        <time>2015-08-14T12:06:38Z</time>
      </trkpt>
      <trkpt lat="42.2403110" lon="1.8582880">
        <ele>1081.1</ele>
        <time>2015-08-14T12:06:39Z</time>
      </trkpt>
      <trkpt lat="42.2403260" lon="1.8583960">
        <ele>1080.6</ele>
        <time>2015-08-14T12:06:40Z</time>
      </trkpt>
      <trkpt lat="42.2403280" lon="1.8584750">
        <ele>1079.8</ele>
        <time>2015-08-14T12:06:41Z</time>
      </trkpt>
      <trkpt lat="42.2403080" lon="1.8586070">
        <ele>1077.6</ele>
        <time>2015-08-14T12:06:42Z</time>
      </trkpt>
      <trkpt lat="42.2403170" lon="1.8587000">
        <ele>1077.0</ele>
        <time>2015-08-14T12:06:43Z</time>
      </trkpt>
      <trkpt lat="42.2403350" lon="1.8588090">
        <ele>1076.6</ele>
        <time>2015-08-14T12:06:44Z</time>
      </trkpt>
      <trkpt lat="42.2403510" lon="1.8589010">
        <ele>1076.2</ele>
        <time>2015-08-14T12:06:45Z</time>
      </trkpt>
      <trkpt lat="42.2403830" lon="1.8590230">
        <ele>1076.2</ele>
        <time>2015-08-14T12:06:46Z</time>
      </trkpt>
      <trkpt lat="42.2404180" lon="1.8591040">
        <ele>1076.8</ele>
        <time>2015-08-14T12:06:47Z</time>
      </trkpt>
      <trkpt lat="42.2404960" lon="1.8591740">
        <ele>1079.0</ele>
        <time>2015-08-14T12:06:48Z</time>
      </trkpt>
      <trkpt lat="42.2405190" lon="1.8592740">
        <ele>1078.5</ele>
        <time>2015-08-14T12:06:49Z</time>
      </trkpt>
      <trkpt lat="42.2405340" lon="1.8593690">
        <ele>1077.9</ele>
        <time>2015-08-14T12:06:50Z</time>
      </trkpt>
      <trkpt lat="42.2405670" lon="1.8594450">
        <ele>1078.1</ele>
        <time>2015-08-14T12:06:51Z</time>
      </trkpt>
      <trkpt lat="42.2406160" lon="1.8595210">
        <ele>1078.8</ele>
        <time>2015-08-14T12:06:52Z</time>
      </trkpt>
      <trkpt lat="42.2406440" lon="1.8595840">
        <ele>1078.9</ele>
        <time>2015-08-14T12:06:53Z</time>
      </trkpt>
      <trkpt lat="42.2406790" lon="1.8596270">
        <ele>1079.5</ele>
        <time>2015-08-14T12:06:54Z</time>
      </trkpt>
      <trkpt lat="42.2407200" lon="1.8596890">
        <ele>1080.0</ele>
        <time>2015-08-14T12:06:55Z</time>
      </trkpt>
      <trkpt lat="42.2407340" lon="1.8597630">
        <ele>1079.3</ele>
        <time>2015-08-14T12:06:56Z</time>
      </trkpt>
      <trkpt lat="42.2407640" lon="1.8598460">
        <ele>1078.9</ele>
        <time>2015-08-14T12:06:57Z</time>
      </trkpt>
      <trkpt lat="42.2407800" lon="1.8599240">
        <ele>1078.1</ele>
        <time>2015-08-14T12:06:58Z</time>
      </trkpt>
      <trkpt lat="42.2407420" lon="1.8599890">
        <ele>1076.1</ele>
        <time>2015-08-14T12:06:59Z</time>
      </trkpt>
      <trkpt lat="42.2406830" lon="1.8600640">
        <ele>1073.5</ele>
        <time>2015-08-14T12:07:00Z</time>
      </trkpt>
      <trkpt lat="42.2406320" lon="1.8601320">
        <ele>1071.3</ele>
        <time>2015-08-14T12:07:01Z</time>
      </trkpt>
      <trkpt lat="42.2405440" lon="1.8601860">
        <ele>1068.7</ele>
        <time>2015-08-14T12:07:02Z</time>
      </trkpt>
      <trkpt lat="42.2404870" lon="1.8602340">
        <ele>1067.0</ele>
        <time>2015-08-14T12:07:03Z</time>
      </trkpt>
      <trkpt lat="42.2404470" lon="1.8602600">
        <ele>1065.9</ele>
        <time>2015-08-14T12:07:04Z</time>
      </trkpt>
      <trkpt lat="42.2403910" lon="1.8602780">
        <ele>1063.9</ele>
        <time>2015-08-14T12:07:05Z</time>
      </trkpt>
      <trkpt lat="42.2403450" lon="1.8602860">
        <ele>1061.5</ele>
        <time>2015-08-14T12:07:06Z</time>
      </trkpt>
      <trkpt lat="42.2403170" lon="1.8602350">
        <ele>1060.6</ele>
        <time>2015-08-14T12:07:07Z</time>
      </trkpt>
      <trkpt lat="42.2402760" lon="1.8601970">
        <ele>1058.8</ele>
        <time>2015-08-14T12:07:08Z</time>
      </trkpt>
      <trkpt lat="42.2402480" lon="1.8601490">
        <ele>1057.9</ele>
        <time>2015-08-14T12:07:09Z</time>
      </trkpt>
      <trkpt lat="42.2402320" lon="1.8600600">
        <ele>1057.9</ele>
        <time>2015-08-14T12:07:10Z</time>
      </trkpt>
      <trkpt lat="42.2401980" lon="1.8599870">
        <ele>1056.9</ele>
        <time>2015-08-14T12:07:11Z</time>
      </trkpt>
      <trkpt lat="42.2401650" lon="1.8599400">
        <ele>1055.7</ele>
        <time>2015-08-14T12:07:12Z</time>
      </trkpt>
      <trkpt lat="42.2401440" lon="1.8598890">
        <ele>1055.1</ele>
        <time>2015-08-14T12:07:13Z</time>
      </trkpt>
      <trkpt lat="42.2401060" lon="1.8598230">
        <ele>1053.9</ele>
        <time>2015-08-14T12:07:14Z</time>
      </trkpt>
      <trkpt lat="42.2400730" lon="1.8597680">
        <ele>1052.8</ele>
        <time>2015-08-14T12:07:15Z</time>
      </trkpt>
      <trkpt lat="42.2400590" lon="1.8597040">
        <ele>1052.7</ele>
        <time>2015-08-14T12:07:16Z</time>
      </trkpt>
      <trkpt lat="42.2400360" lon="1.8596220">
        <ele>1052.4</ele>
        <time>2015-08-14T12:07:17Z</time>
      </trkpt>
      <trkpt lat="42.2399970" lon="1.8595280">
        <ele>1051.6</ele>
        <time>2015-08-14T12:07:18Z</time>
      </trkpt>
      <trkpt lat="42.2399690" lon="1.8594200">
        <ele>1051.7</ele>
        <time>2015-08-14T12:07:19Z</time>
      </trkpt>
      <trkpt lat="42.2399710" lon="1.8593460">
        <ele>1052.8</ele>
        <time>2015-08-14T12:07:20Z</time>
      </trkpt>
      <trkpt lat="42.2399410" lon="1.8592920">
        <ele>1052.1</ele>
        <time>2015-08-14T12:07:21Z</time>
      </trkpt>
      <trkpt lat="42.2398900" lon="1.8592110">
        <ele>1050.8</ele>
        <time>2015-08-14T12:07:22Z</time>
      </trkpt>
      <trkpt lat="42.2398550" lon="1.8591290">
        <ele>1050.2</ele>
        <time>2015-08-14T12:07:23Z</time>
      </trkpt>
      <trkpt lat="42.2398070" lon="1.8590700">
        <ele>1048.8</ele>
        <time>2015-08-14T12:07:24Z</time>
      </trkpt>
      <trkpt lat="42.2397750" lon="1.8589930">
        <ele>1048.4</ele>
        <time>2015-08-14T12:07:25Z</time>
      </trkpt>
      <trkpt lat="42.2397250" lon="1.8589370">
        <ele>1046.8</ele>
        <time>2015-08-14T12:07:26Z</time>
      </trkpt>
      <trkpt lat="42.2396710" lon="1.8588860">
        <ele>1045.1</ele>
        <time>2015-08-14T12:07:27Z</time>
      </trkpt>
      <trkpt lat="42.2396240" lon="1.8588330">
        <ele>1043.7</ele>
        <time>2015-08-14T12:07:28Z</time>
      </trkpt>
      <trkpt lat="42.2395730" lon="1.8587800">
        <ele>1042.5</ele>
        <time>2015-08-14T12:07:29Z</time>
      </trkpt>
      <trkpt lat="42.2395120" lon="1.8587170">
        <ele>1043.2</ele>
        <time>2015-08-14T12:07:30Z</time>
      </trkpt>
      <trkpt lat="42.2394770" lon="1.8586340">
        <ele>1044.5</ele>
        <time>2015-08-14T12:07:31Z</time>
      </trkpt>
      <trkpt lat="42.2394730" lon="1.8585370">
        <ele>1046.2</ele>
        <time>2015-08-14T12:07:32Z</time>
      </trkpt>
      <trkpt lat="42.2394720" lon="1.8583940">
        <ele>1048.8</ele>
        <time>2015-08-14T12:07:33Z</time>
      </trkpt>
      <trkpt lat="42.2394680" lon="1.8582730">
        <ele>1051.0</ele>
        <time>2015-08-14T12:07:34Z</time>
      </trkpt>
      <trkpt lat="42.2394740" lon="1.8581760">
        <ele>1052.8</ele>
        <time>2015-08-14T12:07:35Z</time>
      </trkpt>
      <trkpt lat="42.2394870" lon="1.8580900">
        <ele>1054.4</ele>
        <time>2015-08-14T12:07:36Z</time>
      </trkpt>
      <trkpt lat="42.2395230" lon="1.8580130">
        <ele>1056.0</ele>
        <time>2015-08-14T12:07:37Z</time>
      </trkpt>
      <trkpt lat="42.2395120" lon="1.8579510">
        <ele>1057.0</ele>
        <time>2015-08-14T12:07:38Z</time>
      </trkpt>
      <trkpt lat="42.2395160" lon="1.8578840">
        <ele>1058.6</ele>
        <time>2015-08-14T12:07:39Z</time>
      </trkpt>
      <trkpt lat="42.2395070" lon="1.8578300">
        <ele>1060.1</ele>
        <time>2015-08-14T12:07:40Z</time>
      </trkpt>
      <trkpt lat="42.2394720" lon="1.8577660">
        <ele>1061.7</ele>
        <time>2015-08-14T12:07:41Z</time>
      </trkpt>
      <trkpt lat="42.2394310" lon="1.8577180">
        <ele>1062.8</ele>
        <time>2015-08-14T12:07:42Z</time>
      </trkpt>
      <trkpt lat="42.2393840" lon="1.8576830">
        <ele>1063.4</ele>
        <time>2015-08-14T12:07:43Z</time>
      </trkpt>
      <trkpt lat="42.2393390" lon="1.8576400">
        <ele>1064.3</ele>
        <time>2015-08-14T12:07:44Z</time>
      </trkpt>
      <trkpt lat="42.2392990" lon="1.8576000">
        <ele>1065.1</ele>
        <time>2015-08-14T12:07:45Z</time>
      </trkpt>
      <trkpt lat="42.2392330" lon="1.8575860">
        <ele>1065.0</ele>
        <time>2015-08-14T12:07:46Z</time>
      </trkpt>
      <trkpt lat="42.2392010" lon="1.8576360">
        <ele>1063.5</ele>
        <time>2015-08-14T12:07:47Z</time>
      </trkpt>
      <trkpt lat="42.2391580" lon="1.8576600">
        <ele>1062.6</ele>
        <time>2015-08-14T12:07:48Z</time>
      </trkpt>
      <trkpt lat="42.2390990" lon="1.8576640">
        <ele>1062.1</ele>
        <time>2015-08-14T12:07:49Z</time>
      </trkpt>
      <trkpt lat="42.2390460" lon="1.8576030">
        <ele>1063.2</ele>
        <time>2015-08-14T12:07:50Z</time>
      </trkpt>
      <trkpt lat="42.2389870" lon="1.8575970">
        <ele>1063.0</ele>
        <time>2015-08-14T12:07:51Z</time>
      </trkpt>
      <trkpt lat="42.2389220" lon="1.8575420">
        <ele>1063.8</ele>
        <time>2015-08-14T12:07:52Z</time>
      </trkpt>
      <trkpt lat="42.2388510" lon="1.8575230">
        <ele>1063.7</ele>
        <time>2015-08-14T12:07:53Z</time>
      </trkpt>
      <trkpt lat="42.2387870" lon="1.8574710">
        <ele>1064.5</ele>
        <time>2015-08-14T12:07:54Z</time>
      </trkpt>
      <trkpt lat="42.2387370" lon="1.8574210">
        <ele>1065.8</ele>
        <time>2015-08-14T12:07:55Z</time>
      </trkpt>
      <trkpt lat="42.2386830" lon="1.8573640">
        <ele>1069.3</ele>
        <time>2015-08-14T12:07:56Z</time>
      </trkpt>
      <trkpt lat="42.2386350" lon="1.8572910">
        <ele>1072.8</ele>
        <time>2015-08-14T12:07:57Z</time>
      </trkpt>
      <trkpt lat="42.2386270" lon="1.8572230">
        <ele>1074.6</ele>
        <time>2015-08-14T12:07:58Z</time>
      </trkpt>
      <trkpt lat="42.2386120" lon="1.8571820">
        <ele>1076.1</ele>
        <time>2015-08-14T12:07:59Z</time>
      </trkpt>
      <trkpt lat="42.2385980" lon="1.8571510">
        <ele>1077.4</ele>
        <time>2015-08-14T12:08:00Z</time>
      </trkpt>
      <trkpt lat="42.2385700" lon="1.8572250">
        <ele>1076.8</ele>
        <time>2015-08-14T12:08:03Z</time>
      </trkpt>
      <trkpt lat="42.2386120" lon="1.8572990">
        <ele>1073.6</ele>
        <time>2015-08-14T12:08:04Z</time>
      </trkpt>
      <trkpt lat="42.2386400" lon="1.8574010">
        <ele>1070.2</ele>
        <time>2015-08-14T12:08:05Z</time>
      </trkpt>
      <trkpt lat="42.2386810" lon="1.8574260">
        <ele>1068.0</ele>
        <time>2015-08-14T12:08:06Z</time>
      </trkpt>
      <trkpt lat="42.2387250" lon="1.8574580">
        <ele>1065.5</ele>
        <time>2015-08-14T12:08:07Z</time>
      </trkpt>
      <trkpt lat="42.2387080" lon="1.8575170">
        <ele>1064.8</ele>
        <time>2015-08-14T12:08:08Z</time>
      </trkpt>
      <trkpt lat="42.2386740" lon="1.8575500">
        <ele>1065.5</ele>
        <time>2015-08-14T12:08:09Z</time>
      </trkpt>
      <trkpt lat="42.2386930" lon="1.8576170">
        <ele>1063.2</ele>
        <time>2015-08-14T12:08:10Z</time>
      </trkpt>
      <trkpt lat="42.2387390" lon="1.8576740">
        <ele>1060.0</ele>
        <time>2015-08-14T12:08:11Z</time>
      </trkpt>
      <trkpt lat="42.2387670" lon="1.8577170">
        <ele>1058.7</ele>
        <time>2015-08-14T12:08:13Z</time>
      </trkpt>
      <trkpt lat="42.2387650" lon="1.8577630">
        <ele>1057.6</ele>
        <time>2015-08-14T12:08:14Z</time>
      </trkpt>
      <trkpt lat="42.2387850" lon="1.8578220">
        <ele>1056.4</ele>
        <time>2015-08-14T12:08:15Z</time>
      </trkpt>
      <trkpt lat="42.2388050" lon="1.8578670">
        <ele>1055.4</ele>
        <time>2015-08-14T12:08:16Z</time>
      </trkpt>
      <trkpt lat="42.2388130" lon="1.8579240">
        <ele>1054.2</ele>
        <time>2015-08-14T12:08:17Z</time>
      </trkpt>
      <trkpt lat="42.2388270" lon="1.8579790">
        <ele>1053.2</ele>
        <time>2015-08-14T12:08:18Z</time>
      </trkpt>
      <trkpt lat="42.2388380" lon="1.8580180">
        <ele>1052.5</ele>
        <time>2015-08-14T12:08:19Z</time>
      </trkpt>
      <trkpt lat="42.2388490" lon="1.8580600">
        <ele>1051.7</ele>
        <time>2015-08-14T12:08:20Z</time>
      </trkpt>
      <trkpt lat="42.2388140" lon="1.8580200">
        <ele>1052.3</ele>
        <time>2015-08-14T12:08:21Z</time>
      </trkpt>
      <trkpt lat="42.2388430" lon="1.8580410">
        <ele>1052.1</ele>
        <time>2015-08-14T12:08:23Z</time>
      </trkpt>
      <trkpt lat="42.2388340" lon="1.8580910">
        <ele>1051.1</ele>
        <time>2015-08-14T12:08:26Z</time>
      </trkpt>
      <trkpt lat="42.2388370" lon="1.8581300">
        <ele>1050.3</ele>
        <time>2015-08-14T12:08:28Z</time>
      </trkpt>
      <trkpt lat="42.2388080" lon="1.8581830">
        <ele>1049.2</ele>
        <time>2015-08-14T12:08:30Z</time>
      </trkpt>
      <trkpt lat="42.2387910" lon="1.8582440">
        <ele>1047.9</ele>
        <time>2015-08-14T12:08:32Z</time>
      </trkpt>
      <trkpt lat="42.2387760" lon="1.8582910">
        <ele>1047.0</ele>
        <time>2015-08-14T12:08:33Z</time>
      </trkpt>
      <trkpt lat="42.2387680" lon="1.8583450">
        <ele>1045.9</ele>
        <time>2015-08-14T12:08:34Z</time>
      </trkpt>
      <trkpt lat="42.2387700" lon="1.8584150">
        <ele>1044.5</ele>
        <time>2015-08-14T12:08:35Z</time>
      </trkpt>
      <trkpt lat="42.2387670" lon="1.8584620">
        <ele>1043.6</ele>
        <time>2015-08-14T12:08:36Z</time>
      </trkpt>
      <trkpt lat="42.2388130" lon="1.8585770">
        <ele>1041.7</ele>
        <time>2015-08-14T12:08:37Z</time>
      </trkpt>
      <trkpt lat="42.2388240" lon="1.8586350">
        <ele>1040.6</ele>
        <time>2015-08-14T12:08:38Z</time>
      </trkpt>
      <trkpt lat="42.2388490" lon="1.8587230">
        <ele>1039.1</ele>
        <time>2015-08-14T12:08:39Z</time>
      </trkpt>
      <trkpt lat="42.2388420" lon="1.8587800">
        <ele>1038.0</ele>
        <time>2015-08-14T12:08:40Z</time>
      </trkpt>
      <trkpt lat="42.2388850" lon="1.8589050">
        <ele>1036.1</ele>
        <time>2015-08-14T12:08:41Z</time>
      </trkpt>
      <trkpt lat="42.2389140" lon="1.8590000">
        <ele>1034.7</ele>
        <time>2015-08-14T12:08:42Z</time>
      </trkpt>
      <trkpt lat="42.2389300" lon="1.8590780">
        <ele>1033.4</ele>
        <time>2015-08-14T12:08:43Z</time>
      </trkpt>
      <trkpt lat="42.2389020" lon="1.8591410">
        <ele>1032.1</ele>
        <time>2015-08-14T12:08:44Z</time>
      </trkpt>
      <trkpt lat="42.2388980" lon="1.8592390">
        <ele>1030.4</ele>
        <time>2015-08-14T12:08:45Z</time>
      </trkpt>
      <trkpt lat="42.2389000" lon="1.8593330">
        <ele>1028.8</ele>
        <time>2015-08-14T12:08:46Z</time>
      </trkpt>
      <trkpt lat="42.2389080" lon="1.8594050">
        <ele>1027.6</ele>
        <time>2015-08-14T12:08:47Z</time>
      </trkpt>
      <trkpt lat="42.2389170" lon="1.8594830">
        <ele>1026.3</ele>
        <time>2015-08-14T12:08:48Z</time>
      </trkpt>
      <trkpt lat="42.2388880" lon="1.8595480">
        <ele>1024.9</ele>
        <time>2015-08-14T12:08:49Z</time>
      </trkpt>
      <trkpt lat="42.2388820" lon="1.8596110">
        <ele>1023.7</ele>
        <time>2015-08-14T12:08:50Z</time>
      </trkpt>
      <trkpt lat="42.2388530" lon="1.8596590">
        <ele>1022.4</ele>
        <time>2015-08-14T12:08:51Z</time>
      </trkpt>
      <trkpt lat="42.2388510" lon="1.8597100">
        <ele>1021.3</ele>
        <time>2015-08-14T12:08:52Z</time>
      </trkpt>
      <trkpt lat="42.2387890" lon="1.8597790">
        <ele>1019.0</ele>
        <time>2015-08-14T12:08:53Z</time>
      </trkpt>
      <trkpt lat="42.2387360" lon="1.8598300">
        <ele>1018.0</ele>
        <time>2015-08-14T12:08:54Z</time>
      </trkpt>
      <trkpt lat="42.2387240" lon="1.8598810">
        <ele>1017.3</ele>
        <time>2015-08-14T12:08:55Z</time>
      </trkpt>
      <trkpt lat="42.2387240" lon="1.8599740">
        <ele>1015.2</ele>
        <time>2015-08-14T12:08:56Z</time>
      </trkpt>
      <trkpt lat="42.2387050" lon="1.8600330">
        <ele>1014.7</ele>
        <time>2015-08-14T12:08:57Z</time>
      </trkpt>
      <trkpt lat="42.2386830" lon="1.8601130">
        <ele>1013.8</ele>
        <time>2015-08-14T12:08:58Z</time>
      </trkpt>
      <trkpt lat="42.2386780" lon="1.8601930">
        <ele>1012.1</ele>
        <time>2015-08-14T12:08:59Z</time>
      </trkpt>
      <trkpt lat="42.2386630" lon="1.8602480">
        <ele>1011.5</ele>
        <time>2015-08-14T12:09:00Z</time>
      </trkpt>
      <trkpt lat="42.2386530" lon="1.8603480">
        <ele>1009.6</ele>
        <time>2015-08-14T12:09:01Z</time>
      </trkpt>
      <trkpt lat="42.2386340" lon="1.8604710">
        <ele>1007.8</ele>
        <time>2015-08-14T12:09:02Z</time>
      </trkpt>
      <trkpt lat="42.2386140" lon="1.8605450">
        <ele>1007.2</ele>
        <time>2015-08-14T12:09:03Z</time>
      </trkpt>
      <trkpt lat="42.2385500" lon="1.8606110">
        <ele>1008.4</ele>
        <time>2015-08-14T12:09:04Z</time>
      </trkpt>
      <trkpt lat="42.2385110" lon="1.8606850">
        <ele>1008.4</ele>
        <time>2015-08-14T12:09:05Z</time>
      </trkpt>
      <trkpt lat="42.2384720" lon="1.8607470">
        <ele>1008.5</ele>
        <time>2015-08-14T12:09:06Z</time>
      </trkpt>
      <trkpt lat="42.2384470" lon="1.8607650">
        <ele>1009.1</ele>
        <time>2015-08-14T12:09:07Z</time>
      </trkpt>
      <trkpt lat="42.2384310" lon="1.8608360">
        <ele>1008.1</ele>
        <time>2015-08-14T12:09:08Z</time>
      </trkpt>
      <trkpt lat="42.2384070" lon="1.8608740">
        <ele>1008.1</ele>
        <time>2015-08-14T12:09:09Z</time>
      </trkpt>
      <trkpt lat="42.2384280" lon="1.8610070">
        <ele>1004.4</ele>
        <time>2015-08-14T12:09:10Z</time>
      </trkpt>
      <trkpt lat="42.2384140" lon="1.8610780">
        <ele>1003.3</ele>
        <time>2015-08-14T12:09:11Z</time>
      </trkpt>
      <trkpt lat="42.2383970" lon="1.8611350">
        <ele>1002.6</ele>
        <time>2015-08-14T12:09:12Z</time>
      </trkpt>
      <trkpt lat="42.2383860" lon="1.8611890">
        <ele>1001.7</ele>
        <time>2015-08-14T12:09:13Z</time>
      </trkpt>
      <trkpt lat="42.2383450" lon="1.8612400">
        <ele>1001.9</ele>
        <time>2015-08-14T12:09:14Z</time>
      </trkpt>
      <trkpt lat="42.2383570" lon="1.8613520">
        <ele>998.6</ele>
        <time>2015-08-14T12:09:15Z</time>
      </trkpt>
      <trkpt lat="42.2383450" lon="1.8614330">
        <ele>996.7</ele>
        <time>2015-08-14T12:09:16Z</time>
      </trkpt>
      <trkpt lat="42.2383350" lon="1.8615110">
        <ele>994.9</ele>
        <time>2015-08-14T12:09:17Z</time>
      </trkpt>
      <trkpt lat="42.2383320" lon="1.8615870">
        <ele>992.9</ele>
        <time>2015-08-14T12:09:18Z</time>
      </trkpt>
      <trkpt lat="42.2382790" lon="1.8616510">
        <ele>992.4</ele>
        <time>2015-08-14T12:09:19Z</time>
      </trkpt>
      <trkpt lat="42.2382670" lon="1.8617330">
        <ele>990.3</ele>
        <time>2015-08-14T12:09:20Z</time>
      </trkpt>
      <trkpt lat="42.2382500" lon="1.8618140">
        <ele>988.4</ele>
        <time>2015-08-14T12:09:21Z</time>
      </trkpt>
      <trkpt lat="42.2382400" lon="1.8618740">
        <ele>986.8</ele>
        <time>2015-08-14T12:09:22Z</time>
      </trkpt>
      <trkpt lat="42.2382540" lon="1.8619330">
        <ele>984.9</ele>
        <time>2015-08-14T12:09:23Z</time>
      </trkpt>
      <trkpt lat="42.2382330" lon="1.8619980">
        <ele>983.3</ele>
        <time>2015-08-14T12:09:24Z</time>
      </trkpt>
      <trkpt lat="42.2382180" lon="1.8620860">
        <ele>981.0</ele>
        <time>2015-08-14T12:09:25Z</time>
      </trkpt>
      <trkpt lat="42.2382450" lon="1.8621680">
        <ele>979.3</ele>
        <time>2015-08-14T12:09:26Z</time>
      </trkpt>
      <trkpt lat="42.2382530" lon="1.8622150">
        <ele>978.4</ele>
        <time>2015-08-14T12:09:27Z</time>
      </trkpt>
      <trkpt lat="42.2382600" lon="1.8622810">
        <ele>977.2</ele>
        <time>2015-08-14T12:09:28Z</time>
      </trkpt>
      <trkpt lat="42.2382670" lon="1.8623410">
        <ele>976.1</ele>
        <time>2015-08-14T12:09:29Z</time>
      </trkpt>
      <trkpt lat="42.2382920" lon="1.8624340">
        <ele>974.1</ele>
        <time>2015-08-14T12:09:30Z</time>
      </trkpt>
      <trkpt lat="42.2383220" lon="1.8625190">
        <ele>972.1</ele>
        <time>2015-08-14T12:09:31Z</time>
      </trkpt>
      <trkpt lat="42.2383410" lon="1.8625780">
        <ele>970.7</ele>
        <time>2015-08-14T12:09:32Z</time>
      </trkpt>
      <trkpt lat="42.2383400" lon="1.8626620">
        <ele>969.3</ele>
        <time>2015-08-14T12:09:33Z</time>
      </trkpt>
      <trkpt lat="42.2383290" lon="1.8627100">
        <ele>968.7</ele>
        <time>2015-08-14T12:09:34Z</time>
      </trkpt>
      <trkpt lat="42.2383460" lon="1.8627530">
        <ele>967.6</ele>
        <time>2015-08-14T12:09:35Z</time>
      </trkpt>
      <trkpt lat="42.2383450" lon="1.8628200">
        <ele>966.4</ele>
        <time>2015-08-14T12:09:36Z</time>
      </trkpt>
      <trkpt lat="42.2383670" lon="1.8628690">
        <ele>965.0</ele>
        <time>2015-08-14T12:09:37Z</time>
      </trkpt>
      <trkpt lat="42.2383830" lon="1.8629270">
        <ele>963.6</ele>
        <time>2015-08-14T12:09:38Z</time>
      </trkpt>
      <trkpt lat="42.2384090" lon="1.8629870">
        <ele>961.6</ele>
        <time>2015-08-14T12:09:40Z</time>
      </trkpt>
      <trkpt lat="42.2384210" lon="1.8630410">
        <ele>960.2</ele>
        <time>2015-08-14T12:09:42Z</time>
      </trkpt>
      <trkpt lat="42.2384370" lon="1.8630800">
        <ele>959.0</ele>
        <time>2015-08-14T12:09:43Z</time>
      </trkpt>
      <trkpt lat="42.2384480" lon="1.8631360">
        <ele>957.5</ele>
        <time>2015-08-14T12:09:56Z</time>
      </trkpt>
      <trkpt lat="42.2384500" lon="1.8631760">
        <ele>956.6</ele>
        <time>2015-08-14T12:09:57Z</time>
      </trkpt>
      <trkpt lat="42.2384530" lon="1.8632180">
        <ele>955.6</ele>
        <time>2015-08-14T12:09:58Z</time>
      </trkpt>
      <trkpt lat="42.2384630" lon="1.8632670">
        <ele>954.3</ele>
        <time>2015-08-14T12:09:59Z</time>
      </trkpt>
      <trkpt lat="42.2384650" lon="1.8633220">
        <ele>953.1</ele>
        <time>2015-08-14T12:10:00Z</time>
      </trkpt>
      <trkpt lat="42.2384630" lon="1.8634310">
        <ele>950.8</ele>
        <time>2015-08-14T12:10:01Z</time>
      </trkpt>
      <trkpt lat="42.2384780" lon="1.8635000">
        <ele>948.9</ele>
        <time>2015-08-14T12:10:02Z</time>
      </trkpt>
      <trkpt lat="42.2384760" lon="1.8635650">
        <ele>947.6</ele>
        <time>2015-08-14T12:10:03Z</time>
      </trkpt>
      <trkpt lat="42.2384640" lon="1.8636440">
        <ele>946.1</ele>
        <time>2015-08-14T12:10:04Z</time>
      </trkpt>
      <trkpt lat="42.2384570" lon="1.8637130">
        <ele>944.8</ele>
        <time>2015-08-14T12:10:05Z</time>
      </trkpt>
      <trkpt lat="42.2384520" lon="1.8638170">
        <ele>942.7</ele>
        <time>2015-08-14T12:10:06Z</time>
      </trkpt>
      <trkpt lat="42.2384350" lon="1.8639000">
        <ele>941.2</ele>
        <time>2015-08-14T12:10:07Z</time>
      </trkpt>
      <trkpt lat="42.2384210" lon="1.8640090">
        <ele>939.1</ele>
        <time>2015-08-14T12:10:08Z</time>
      </trkpt>
      <trkpt lat="42.2384140" lon="1.8640870">
        <ele>937.5</ele>
        <time>2015-08-14T12:10:09Z</time>
      </trkpt>
      <trkpt lat="42.2384490" lon="1.8641330">
        <ele>936.0</ele>
        <time>2015-08-14T12:10:10Z</time>
      </trkpt>
      <trkpt lat="42.2384890" lon="1.8641970">
        <ele>934.2</ele>
        <time>2015-08-14T12:10:11Z</time>
      </trkpt>
      <trkpt lat="42.2384950" lon="1.8642780">
        <ele>932.4</ele>
        <time>2015-08-14T12:10:12Z</time>
      </trkpt>
      <trkpt lat="42.2384990" lon="1.8643440">
        <ele>931.1</ele>
        <time>2015-08-14T12:10:13Z</time>
      </trkpt>
      <trkpt lat="42.2385110" lon="1.8643970">
        <ele>929.9</ele>
        <time>2015-08-14T12:10:14Z</time>
      </trkpt>
      <trkpt lat="42.2385020" lon="1.8644320">
        <ele>929.3</ele>
        <time>2015-08-14T12:10:17Z</time>
      </trkpt>
      <trkpt lat="42.2384820" lon="1.8644640">
        <ele>928.7</ele>
        <time>2015-08-14T12:10:25Z</time>
      </trkpt>
      <trkpt lat="42.2384790" lon="1.8645040">
        <ele>927.9</ele>
        <time>2015-08-14T12:10:28Z</time>
      </trkpt>
      <trkpt lat="42.2384690" lon="1.8645390">
        <ele>927.3</ele>
        <time>2015-08-14T12:10:53Z</time>
      </trkpt>
      <trkpt lat="42.2384470" lon="1.8645610">
        <ele>926.9</ele>
        <time>2015-08-14T12:10:54Z</time>
      </trkpt>
      <trkpt lat="42.2384200" lon="1.8645770">
        <ele>926.7</ele>
        <time>2015-08-14T12:10:55Z</time>
      </trkpt>
      <trkpt lat="42.2384170" lon="1.8646150">
        <ele>925.9</ele>
        <time>2015-08-14T12:10:57Z</time>
      </trkpt>
      <trkpt lat="42.2383850" lon="1.8646740">
        <ele>924.9</ele>
        <time>2015-08-14T12:10:59Z</time>
      </trkpt>
      <trkpt lat="42.2383850" lon="1.8647310">
        <ele>923.7</ele>
        <time>2015-08-14T12:11:00Z</time>
      </trkpt>
      <trkpt lat="42.2384760" lon="1.8647770">
        <ele>922.3</ele>
        <time>2015-08-14T12:11:02Z</time>
      </trkpt>
      <trkpt lat="42.2385040" lon="1.8648120">
        <ele>921.4</ele>
        <time>2015-08-14T12:11:03Z</time>
      </trkpt>
      <trkpt lat="42.2385440" lon="1.8648450">
        <ele>920.5</ele>
        <time>2015-08-14T12:11:05Z</time>
      </trkpt>
      <trkpt lat="42.2385740" lon="1.8648690">
        <ele>919.8</ele>
        <time>2015-08-14T12:11:06Z</time>
      </trkpt>
      <trkpt lat="42.2386100" lon="1.8648720">
        <ele>919.6</ele>
        <time>2015-08-14T12:11:07Z</time>
      </trkpt>
      <trkpt lat="42.2386360" lon="1.8648910">
        <ele>919.0</ele>
        <time>2015-08-14T12:11:08Z</time>
      </trkpt>
      <trkpt lat="42.2386590" lon="1.8649330">
        <ele>918.0</ele>
        <time>2015-08-14T12:11:09Z</time>
      </trkpt>
      <trkpt lat="42.2386760" lon="1.8649830">
        <ele>916.8</ele>
        <time>2015-08-14T12:11:10Z</time>
      </trkpt>
      <trkpt lat="42.2387130" lon="1.8650350">
        <ele>915.5</ele>
        <time>2015-08-14T12:11:11Z</time>
      </trkpt>
      <trkpt lat="42.2387240" lon="1.8650920">
        <ele>914.2</ele>
        <time>2015-08-14T12:11:12Z</time>
      </trkpt>
      <trkpt lat="42.2387100" lon="1.8651430">
        <ele>913.2</ele>
        <time>2015-08-14T12:11:13Z</time>
      </trkpt>
      <trkpt lat="42.2387290" lon="1.8652230">
        <ele>911.3</ele>
        <time>2015-08-14T12:11:14Z</time>
      </trkpt>
      <trkpt lat="42.2387240" lon="1.8653080">
        <ele>909.5</ele>
        <time>2015-08-14T12:11:15Z</time>
      </trkpt>
      <trkpt lat="42.2387500" lon="1.8654090">
        <ele>907.2</ele>
        <time>2015-08-14T12:11:16Z</time>
      </trkpt>
      <trkpt lat="42.2387780" lon="1.8655510">
        <ele>904.6</ele>
        <time>2015-08-14T12:11:17Z</time>
      </trkpt>
      <trkpt lat="42.2388040" lon="1.8656540">
        <ele>902.8</ele>
        <time>2015-08-14T12:11:18Z</time>
      </trkpt>
      <trkpt lat="42.2388220" lon="1.8657750">
        <ele>900.4</ele>
        <time>2015-08-14T12:11:19Z</time>
      </trkpt>
      <trkpt lat="42.2388280" lon="1.8658460">
        <ele>898.9</ele>
        <time>2015-08-14T12:11:20Z</time>
      </trkpt>
      <trkpt lat="42.2388290" lon="1.8659050">
        <ele>897.5</ele>
        <time>2015-08-14T12:11:21Z</time>
      </trkpt>
      <trkpt lat="42.2388310" lon="1.8659690">
        <ele>896.1</ele>
        <time>2015-08-14T12:11:22Z</time>
      </trkpt>
      <trkpt lat="42.2387920" lon="1.8660240">
        <ele>894.0</ele>
        <time>2015-08-14T12:11:23Z</time>
      </trkpt>
      <trkpt lat="42.2387560" lon="1.8660650">
        <ele>892.3</ele>
        <time>2015-08-14T12:11:24Z</time>
      </trkpt>
      <trkpt lat="42.2387110" lon="1.8660840">
        <ele>892.3</ele>
        <time>2015-08-14T12:11:26Z</time>
      </trkpt>
      <trkpt lat="42.2387040" lon="1.8661380">
        <ele>891.2</ele>
        <time>2015-08-14T12:11:27Z</time>
      </trkpt>
      <trkpt lat="42.2387160" lon="1.8661800">
        <ele>890.1</ele>
        <time>2015-08-14T12:11:28Z</time>
      </trkpt>
      <trkpt lat="42.2387180" lon="1.8662380">
        <ele>888.7</ele>
        <time>2015-08-14T12:11:29Z</time>
      </trkpt>
      <trkpt lat="42.2387070" lon="1.8662950">
        <ele>888.1</ele>
        <time>2015-08-14T12:11:30Z</time>
      </trkpt>
      <trkpt lat="42.2387080" lon="1.8663690">
        <ele>887.3</ele>
        <time>2015-08-14T12:11:31Z</time>
      </trkpt>
      <trkpt lat="42.2387130" lon="1.8664630">
        <ele>886.1</ele>
        <time>2015-08-14T12:11:32Z</time>
      </trkpt>
      <trkpt lat="42.2387240" lon="1.8665670">
        <ele>884.9</ele>
        <time>2015-08-14T12:11:33Z</time>
      </trkpt>
      <trkpt lat="42.2387270" lon="1.8666710">
        <ele>883.7</ele>
        <time>2015-08-14T12:11:34Z</time>
      </trkpt>
      <trkpt lat="42.2387320" lon="1.8667760">
        <ele>882.5</ele>
        <time>2015-08-14T12:11:35Z</time>
      </trkpt>
      <trkpt lat="42.2387180" lon="1.8668600">
        <ele>881.6</ele>
        <time>2015-08-14T12:11:36Z</time>
      </trkpt>
      <trkpt lat="42.2387220" lon="1.8669340">
        <ele>880.8</ele>
        <time>2015-08-14T12:11:37Z</time>
      </trkpt>
      <trkpt lat="42.2387310" lon="1.8669860">
        <ele>880.2</ele>
        <time>2015-08-14T12:11:38Z</time>
      </trkpt>
      <trkpt lat="42.2387170" lon="1.8670190">
        <ele>879.9</ele>
        <time>2015-08-14T12:11:39Z</time>
      </trkpt>
      <trkpt lat="42.2386990" lon="1.8670690">
        <ele>879.4</ele>
        <time>2015-08-14T12:11:40Z</time>
      </trkpt>
      <trkpt lat="42.2386800" lon="1.8671160">
        <ele>878.9</ele>
        <time>2015-08-14T12:11:41Z</time>
      </trkpt>
      <trkpt lat="42.2386700" lon="1.8671720">
        <ele>878.2</ele>
        <time>2015-08-14T12:11:49Z</time>
      </trkpt>
      <trkpt lat="42.2386500" lon="1.8672030">
        <ele>877.8</ele>
        <time>2015-08-14T12:11:50Z</time>
      </trkpt>
      <trkpt lat="42.2386420" lon="1.8672570">
        <ele>877.1</ele>
        <time>2015-08-14T12:11:51Z</time>
      </trkpt>
      <trkpt lat="42.2386230" lon="1.8673220">
        <ele>876.3</ele>
        <time>2015-08-14T12:11:52Z</time>
      </trkpt>
      <trkpt lat="42.2386670" lon="1.8673720">
        <ele>875.4</ele>
        <time>2015-08-14T12:11:53Z</time>
      </trkpt>
      <trkpt lat="42.2386670" lon="1.8674280">
        <ele>874.7</ele>
        <time>2015-08-14T12:11:54Z</time>
      </trkpt>
      <trkpt lat="42.2386630" lon="1.8674810">
        <ele>874.0</ele>
        <time>2015-08-14T12:11:55Z</time>
      </trkpt>
      <trkpt lat="42.2386610" lon="1.8675340">
        <ele>873.2</ele>
        <time>2015-08-14T12:11:56Z</time>
      </trkpt>
      <trkpt lat="42.2386640" lon="1.8676130">
        <ele>872.2</ele>
        <time>2015-08-14T12:11:58Z</time>
      </trkpt>
      <trkpt lat="42.2386600" lon="1.8676730">
        <ele>871.3</ele>
        <time>2015-08-14T12:11:59Z</time>
      </trkpt>
      <trkpt lat="42.2386370" lon="1.8677460">
        <ele>870.4</ele>
        <time>2015-08-14T12:12:00Z</time>
      </trkpt>
      <trkpt lat="42.2386190" lon="1.8678170">
        <ele>869.4</ele>
        <time>2015-08-14T12:12:01Z</time>
      </trkpt>
      <trkpt lat="42.2386050" lon="1.8678680">
        <ele>868.7</ele>
        <time>2015-08-14T12:12:02Z</time>
      </trkpt>
      <trkpt lat="42.2385510" lon="1.8679130">
        <ele>868.1</ele>
        <time>2015-08-14T12:12:03Z</time>
      </trkpt>
      <trkpt lat="42.2385070" lon="1.8679510">
        <ele>867.4</ele>
        <time>2015-08-14T12:12:04Z</time>
      </trkpt>
      <trkpt lat="42.2384800" lon="1.8679670">
        <ele>867.1</ele>
        <time>2015-08-14T12:12:05Z</time>
      </trkpt>
      <trkpt lat="42.2384820" lon="1.8680230">
        <ele>866.0</ele>
        <time>2015-08-14T12:12:07Z</time>
      </trkpt>
      <trkpt lat="42.2384600" lon="1.8680470">
        <ele>865.5</ele>
        <time>2015-08-14T12:12:08Z</time>
      </trkpt>
      <trkpt lat="42.2384550" lon="1.8681030">
        <ele>864.5</ele>
        <time>2015-08-14T12:12:09Z</time>
      </trkpt>
      <trkpt lat="42.2384560" lon="1.8681670">
        <ele>863.2</ele>
        <time>2015-08-14T12:12:10Z</time>
      </trkpt>
      <trkpt lat="42.2384500" lon="1.8682090">
        <ele>862.4</ele>
        <time>2015-08-14T12:12:11Z</time>
      </trkpt>
      <trkpt lat="42.2384090" lon="1.8683180">
        <ele>860.2</ele>
        <time>2015-08-14T12:12:12Z</time>
      </trkpt>
      <trkpt lat="42.2384030" lon="1.8683760">
        <ele>859.0</ele>
        <time>2015-08-14T12:12:13Z</time>
      </trkpt>
      <trkpt lat="42.2383970" lon="1.8684260">
        <ele>858.0</ele>
        <time>2015-08-14T12:12:14Z</time>
      </trkpt>
      <trkpt lat="42.2383980" lon="1.8684670">
        <ele>857.2</ele>
        <time>2015-08-14T12:12:15Z</time>
      </trkpt>
      <trkpt lat="42.2383760" lon="1.8685400">
        <ele>855.6</ele>
        <time>2015-08-14T12:12:16Z</time>
      </trkpt>
      <trkpt lat="42.2383550" lon="1.8685850">
        <ele>854.5</ele>
        <time>2015-08-14T12:12:17Z</time>
      </trkpt>
      <trkpt lat="42.2383080" lon="1.8686330">
        <ele>853.2</ele>
        <time>2015-08-14T12:12:18Z</time>
      </trkpt>
      <trkpt lat="42.2382850" lon="1.8686690">
        <ele>852.2</ele>
        <time>2015-08-14T12:12:19Z</time>
      </trkpt>
      <trkpt lat="42.2382420" lon="1.8687180">
        <ele>850.8</ele>
        <time>2015-08-14T12:12:20Z</time>
      </trkpt>
      <trkpt lat="42.2382210" lon="1.8687770">
        <ele>849.4</ele>
        <time>2015-08-14T12:12:21Z</time>
      </trkpt>
      <trkpt lat="42.2381870" lon="1.8688170">
        <ele>848.3</ele>
        <time>2015-08-14T12:12:22Z</time>
      </trkpt>
      <trkpt lat="42.2381650" lon="1.8688850">
        <ele>846.8</ele>
        <time>2015-08-14T12:12:24Z</time>
      </trkpt>
      <trkpt lat="42.2381420" lon="1.8689230">
        <ele>845.9</ele>
        <time>2015-08-14T12:12:26Z</time>
      </trkpt>
      <trkpt lat="42.2380730" lon="1.8689340">
        <ele>845.1</ele>
        <time>2015-08-14T12:12:27Z</time>
      </trkpt>
      <trkpt lat="42.2380370" lon="1.8689590">
        <ele>844.3</ele>
        <time>2015-08-14T12:12:28Z</time>
      </trkpt>
      <trkpt lat="42.2380050" lon="1.8689630">
        <ele>843.9</ele>
        <time>2015-08-14T12:12:29Z</time>
      </trkpt>
      <trkpt lat="42.2379580" lon="1.8689780">
        <ele>843.3</ele>
        <time>2015-08-14T12:12:30Z</time>
      </trkpt>
      <trkpt lat="42.2379060" lon="1.8689900">
        <ele>843.1</ele>
        <time>2015-08-14T12:12:32Z</time>
      </trkpt>
      <trkpt lat="42.2378580" lon="1.8689710">
        <ele>845.5</ele>
        <time>2015-08-14T12:12:34Z</time>
      </trkpt>
      <trkpt lat="42.2378220" lon="1.8689800">
        <ele>846.9</ele>
        <time>2015-08-14T12:12:35Z</time>
      </trkpt>
      <trkpt lat="42.2377900" lon="1.8689770">
        <ele>848.3</ele>
        <time>2015-08-14T12:12:36Z</time>
      </trkpt>
      <trkpt lat="42.2377600" lon="1.8689650">
        <ele>849.8</ele>
        <time>2015-08-14T12:12:37Z</time>
      </trkpt>
      <trkpt lat="42.2377270" lon="1.8689390">
        <ele>851.6</ele>
        <time>2015-08-14T12:12:38Z</time>
      </trkpt>
      <trkpt lat="42.2377080" lon="1.8689090">
        <ele>853.0</ele>
        <time>2015-08-14T12:12:39Z</time>
      </trkpt>
      <trkpt lat="42.2376730" lon="1.8688660">
        <ele>855.3</ele>
        <time>2015-08-14T12:12:40Z</time>
      </trkpt>
      <trkpt lat="42.2376580" lon="1.8688280">
        <ele>856.7</ele>
        <time>2015-08-14T12:12:41Z</time>
      </trkpt>
      <trkpt lat="42.2376330" lon="1.8688040">
        <ele>858.2</ele>
        <time>2015-08-14T12:12:42Z</time>
      </trkpt>
      <trkpt lat="42.2376120" lon="1.8687800">
        <ele>859.6</ele>
        <time>2015-08-14T12:12:43Z</time>
      </trkpt>
      <trkpt lat="42.2376050" lon="1.8687290">
        <ele>861.0</ele>
        <time>2015-08-14T12:12:45Z</time>
      </trkpt>
      <trkpt lat="42.2375710" lon="1.8687560">
        <ele>861.8</ele>
        <time>2015-08-14T12:12:47Z</time>
      </trkpt>
      <trkpt lat="42.2375500" lon="1.8688040">
        <ele>861.8</ele>
        <time>2015-08-14T12:12:50Z</time>
      </trkpt>
      <trkpt lat="42.2375410" lon="1.8688460">
        <ele>861.3</ele>
        <time>2015-08-14T12:12:52Z</time>
      </trkpt>
      <trkpt lat="42.2375500" lon="1.8688970">
        <ele>860.0</ele>
        <time>2015-08-14T12:12:56Z</time>
      </trkpt>
      <trkpt lat="42.2375510" lon="1.8689400">
        <ele>859.1</ele>
        <time>2015-08-14T12:12:58Z</time>
      </trkpt>
      <trkpt lat="42.2375750" lon="1.8689920">
        <ele>857.0</ele>
        <time>2015-08-14T12:13:01Z</time>
      </trkpt>
      <trkpt lat="42.2375760" lon="1.8690430">
        <ele>856.0</ele>
        <time>2015-08-14T12:13:03Z</time>
      </trkpt>
      <trkpt lat="42.2375730" lon="1.8690980">
        <ele>855.1</ele>
        <time>2015-08-14T12:13:07Z</time>
      </trkpt>
      <trkpt lat="42.2375520" lon="1.8691350">
        <ele>855.2</ele>
        <time>2015-08-14T12:13:11Z</time>
      </trkpt>
      <trkpt lat="42.2375580" lon="1.8691750">
        <ele>854.2</ele>
        <time>2015-08-14T12:13:13Z</time>
      </trkpt>
      <trkpt lat="42.2375270" lon="1.8691720">
        <ele>855.5</ele>
        <time>2015-08-14T12:13:15Z</time>
      </trkpt>
      <trkpt lat="42.2375070" lon="1.8692280">
        <ele>855.2</ele>
        <time>2015-08-14T12:13:20Z</time>
      </trkpt>
      <trkpt lat="42.2374820" lon="1.8692540">
        <ele>855.8</ele>
        <time>2015-08-14T12:13:23Z</time>
      </trkpt>
      <trkpt lat="42.2374730" lon="1.8693000">
        <ele>855.2</ele>
        <time>2015-08-14T12:14:17Z</time>
      </trkpt>
      <trkpt lat="42.2374690" lon="1.8693390">
        <ele>854.6</ele>
        <time>2015-08-14T12:14:19Z</time>
      </trkpt>
      <trkpt lat="42.2374570" lon="1.8693800">
        <ele>854.3</ele>
        <time>2015-08-14T12:14:21Z</time>
      </trkpt>
      <trkpt lat="42.2374840" lon="1.8694660">
        <ele>851.5</ele>
        <time>2015-08-14T12:14:24Z</time>
      </trkpt>
      <trkpt lat="42.2374720" lon="1.8695320">
        <ele>850.6</ele>
        <time>2015-08-14T12:14:26Z</time>
      </trkpt>
      <trkpt lat="42.2374820" lon="1.8696080">
        <ele>848.9</ele>
        <time>2015-08-14T12:14:28Z</time>
      </trkpt>
      <trkpt lat="42.2374950" lon="1.8696780">
        <ele>847.4</ele>
        <time>2015-08-14T12:14:29Z</time>
      </trkpt>
      <trkpt lat="42.2374990" lon="1.8697150">
        <ele>846.8</ele>
        <time>2015-08-14T12:14:30Z</time>
      </trkpt>
      <trkpt lat="42.2374940" lon="1.8697610">
        <ele>846.4</ele>
        <time>2015-08-14T12:14:31Z</time>
      </trkpt>
      <trkpt lat="42.2375110" lon="1.8698000">
        <ele>845.2</ele>
        <time>2015-08-14T12:14:32Z</time>
      </trkpt>
      <trkpt lat="42.2374970" lon="1.8698910">
        <ele>844.6</ele>
        <time>2015-08-14T12:14:34Z</time>
      </trkpt>
      <trkpt lat="42.2375090" lon="1.8699530">
        <ele>843.3</ele>
        <time>2015-08-14T12:14:36Z</time>
      </trkpt>
      <trkpt lat="42.2374880" lon="1.8699830">
        <ele>843.7</ele>
        <time>2015-08-14T12:14:37Z</time>
      </trkpt>
      <trkpt lat="42.2374700" lon="1.8700720">
        <ele>843.3</ele>
        <time>2015-08-14T12:14:39Z</time>
      </trkpt>
      <trkpt lat="42.2374600" lon="1.8701100">
        <ele>843.2</ele>
        <time>2015-08-14T12:14:40Z</time>
      </trkpt>
      <trkpt lat="42.2374800" lon="1.8701610">
        <ele>841.7</ele>
        <time>2015-08-14T12:14:41Z</time>
      </trkpt>
      <trkpt lat="42.2374730" lon="1.8701990">
        <ele>841.5</ele>
        <time>2015-08-14T12:14:43Z</time>
      </trkpt>
      <trkpt lat="42.2374470" lon="1.8702300">
        <ele>842.2</ele>
        <time>2015-08-14T12:14:44Z</time>
      </trkpt>
      <trkpt lat="42.2374160" lon="1.8702930">
        <ele>842.6</ele>
        <time>2015-08-14T12:14:46Z</time>
      </trkpt>
      <trkpt lat="42.2373870" lon="1.8703800">
        <ele>842.7</ele>
        <time>2015-08-14T12:14:48Z</time>
      </trkpt>
      <trkpt lat="42.2373500" lon="1.8704220">
        <ele>843.8</ele>
        <time>2015-08-14T12:14:49Z</time>
      </trkpt>
      <trkpt lat="42.2373430" lon="1.8704790">
        <ele>843.8</ele>
        <time>2015-08-14T12:14:50Z</time>
      </trkpt>
      <trkpt lat="42.2373440" lon="1.8705540">
        <ele>843.4</ele>
        <time>2015-08-14T12:14:51Z</time>
      </trkpt>
      <trkpt lat="42.2373420" lon="1.8706130">
        <ele>843.2</ele>
        <time>2015-08-14T12:14:52Z</time>
      </trkpt>
      <trkpt lat="42.2373260" lon="1.8706590">
        <ele>843.6</ele>
        <time>2015-08-14T12:14:53Z</time>
      </trkpt>
      <trkpt lat="42.2373210" lon="1.8707250">
        <ele>843.5</ele>
        <time>2015-08-14T12:14:54Z</time>
      </trkpt>
      <trkpt lat="42.2373250" lon="1.8707850">
        <ele>843.1</ele>
        <time>2015-08-14T12:14:56Z</time>
      </trkpt>
      <trkpt lat="42.2373880" lon="1.8707630">
        <ele>840.3</ele>
        <time>2015-08-14T12:14:57Z</time>
      </trkpt>
      <trkpt lat="42.2374420" lon="1.8708410">
        <ele>837.4</ele>
        <time>2015-08-14T12:14:58Z</time>
      </trkpt>
      <trkpt lat="42.2374760" lon="1.8708910">
        <ele>835.5</ele>
        <time>2015-08-14T12:14:59Z</time>
      </trkpt>
      <trkpt lat="42.2374780" lon="1.8709600">
        <ele>835.0</ele>
        <time>2015-08-14T12:15:00Z</time>
      </trkpt>
      <trkpt lat="42.2374620" lon="1.8710140">
        <ele>835.4</ele>
        <time>2015-08-14T12:15:01Z</time>
      </trkpt>
      <trkpt lat="42.2374660" lon="1.8710660">
        <ele>834.9</ele>
        <time>2015-08-14T12:15:02Z</time>
      </trkpt>
      <trkpt lat="42.2374820" lon="1.8711360">
        <ele>833.6</ele>
        <time>2015-08-14T12:15:03Z</time>
      </trkpt>
      <trkpt lat="42.2374890" lon="1.8711930">
        <ele>832.9</ele>
        <time>2015-08-14T12:15:04Z</time>
      </trkpt>
      <trkpt lat="42.2374750" lon="1.8712700">
        <ele>833.0</ele>
        <time>2015-08-14T12:15:05Z</time>
      </trkpt>
      <trkpt lat="42.2374580" lon="1.8713530">
        <ele>832.8</ele>
        <time>2015-08-14T12:15:06Z</time>
      </trkpt>
      <trkpt lat="42.2374980" lon="1.8714490">
        <ele>829.7</ele>
        <time>2015-08-14T12:15:07Z</time>
      </trkpt>
      <trkpt lat="42.2375390" lon="1.8715520">
        <ele>826.6</ele>
        <time>2015-08-14T12:15:08Z</time>
      </trkpt>
      <trkpt lat="42.2375680" lon="1.8716590">
        <ele>824.1</ele>
        <time>2015-08-14T12:15:09Z</time>
      </trkpt>
      <trkpt lat="42.2375800" lon="1.8717570">
        <ele>822.5</ele>
        <time>2015-08-14T12:15:10Z</time>
      </trkpt>
      <trkpt lat="42.2375970" lon="1.8718410">
        <ele>820.8</ele>
        <time>2015-08-14T12:15:11Z</time>
      </trkpt>
      <trkpt lat="42.2375760" lon="1.8719190">
        <ele>820.9</ele>
        <time>2015-08-14T12:15:12Z</time>
      </trkpt>
      <trkpt lat="42.2375600" lon="1.8719810">
        <ele>820.8</ele>
        <time>2015-08-14T12:15:13Z</time>
      </trkpt>
      <trkpt lat="42.2375190" lon="1.8720410">
        <ele>821.8</ele>
        <time>2015-08-14T12:15:14Z</time>
      </trkpt>
      <trkpt lat="42.2374540" lon="1.8720950">
        <ele>823.5</ele>
        <time>2015-08-14T12:15:15Z</time>
      </trkpt>
      <trkpt lat="42.2374010" lon="1.8721570">
        <ele>824.2</ele>
        <time>2015-08-14T12:15:16Z</time>
      </trkpt>
      <trkpt lat="42.2373330" lon="1.8722220">
        <ele>825.3</ele>
        <time>2015-08-14T12:15:17Z</time>
      </trkpt>
      <trkpt lat="42.2372740" lon="1.8722880">
        <ele>825.8</ele>
        <time>2015-08-14T12:15:18Z</time>
      </trkpt>
      <trkpt lat="42.2372280" lon="1.8723380">
        <ele>826.3</ele>
        <time>2015-08-14T12:15:19Z</time>
      </trkpt>
      <trkpt lat="42.2371940" lon="1.8723800">
        <ele>826.4</ele>
        <time>2015-08-14T12:15:20Z</time>
      </trkpt>
      <trkpt lat="42.2371490" lon="1.8724060">
        <ele>827.3</ele>
        <time>2015-08-14T12:15:21Z</time>
      </trkpt>
      <trkpt lat="42.2370950" lon="1.8724260">
        <ele>828.6</ele>
        <time>2015-08-14T12:15:22Z</time>
      </trkpt>
      <trkpt lat="42.2370400" lon="1.8724200">
        <ele>830.8</ele>
        <time>2015-08-14T12:15:23Z</time>
      </trkpt>
      <trkpt lat="42.2370050" lon="1.8724840">
        <ele>830.4</ele>
        <time>2015-08-14T12:15:24Z</time>
      </trkpt>
      <trkpt lat="42.2369420" lon="1.8725410">
        <ele>831.3</ele>
        <time>2015-08-14T12:15:25Z</time>
      </trkpt>
      <trkpt lat="42.2368950" lon="1.8726160">
        <ele>831.2</ele>
        <time>2015-08-14T12:15:26Z</time>
      </trkpt>
      <trkpt lat="42.2368730" lon="1.8727120">
        <ele>829.5</ele>
        <time>2015-08-14T12:15:27Z</time>
      </trkpt>
      <trkpt lat="42.2368370" lon="1.8728070">
        <ele>828.4</ele>
        <time>2015-08-14T12:15:28Z</time>
      </trkpt>
      <trkpt lat="42.2367890" lon="1.8728720">
        <ele>828.5</ele>
        <time>2015-08-14T12:15:29Z</time>
      </trkpt>
      <trkpt lat="42.2367630" lon="1.8729600">
        <ele>827.3</ele>
        <time>2015-08-14T12:15:30Z</time>
      </trkpt>
      <trkpt lat="42.2367330" lon="1.8730380">
        <ele>826.5</ele>
        <time>2015-08-14T12:15:31Z</time>
      </trkpt>
      <trkpt lat="42.2367120" lon="1.8731260">
        <ele>825.2</ele>
        <time>2015-08-14T12:15:32Z</time>
      </trkpt>
      <trkpt lat="42.2366790" lon="1.8732030">
        <ele>824.5</ele>
        <time>2015-08-14T12:15:33Z</time>
      </trkpt>
      <trkpt lat="42.2366470" lon="1.8732640">
        <ele>824.2</ele>
        <time>2015-08-14T12:15:34Z</time>
      </trkpt>
      <trkpt lat="42.2366300" lon="1.8733210">
        <ele>823.4</ele>
        <time>2015-08-14T12:15:35Z</time>
      </trkpt>
      <trkpt lat="42.2365960" lon="1.8733740">
        <ele>823.2</ele>
        <time>2015-08-14T12:15:36Z</time>
      </trkpt>
      <trkpt lat="42.2365790" lon="1.8734470">
        <ele>822.0</ele>
        <time>2015-08-14T12:15:37Z</time>
      </trkpt>
      <trkpt lat="42.2365990" lon="1.8735220">
        <ele>819.4</ele>
        <time>2015-08-14T12:15:38Z</time>
      </trkpt>
      <trkpt lat="42.2366230" lon="1.8735760">
        <ele>817.2</ele>
        <time>2015-08-14T12:15:39Z</time>
      </trkpt>
      <trkpt lat="42.2366190" lon="1.8736330">
        <ele>816.0</ele>
        <time>2015-08-14T12:15:40Z</time>
      </trkpt>
      <trkpt lat="42.2366110" lon="1.8736800">
        <ele>815.1</ele>
        <time>2015-08-14T12:15:41Z</time>
      </trkpt>
      <trkpt lat="42.2365830" lon="1.8737180">
        <ele>815.0</ele>
        <time>2015-08-14T12:15:42Z</time>
      </trkpt>
      <trkpt lat="42.2365450" lon="1.8737490">
        <ele>815.5</ele>
        <time>2015-08-14T12:15:43Z</time>
      </trkpt>
      <trkpt lat="42.2365190" lon="1.8737710">
        <ele>815.5</ele>
        <time>2015-08-14T12:15:44Z</time>
      </trkpt>
      <trkpt lat="42.2365090" lon="1.8738140">
        <ele>814.3</ele>
        <time>2015-08-14T12:15:45Z</time>
      </trkpt>
      <trkpt lat="42.2364840" lon="1.8738620">
        <ele>813.4</ele>
        <time>2015-08-14T12:15:47Z</time>
      </trkpt>
      <trkpt lat="42.2365130" lon="1.8738190">
        <ele>814.0</ele>
        <time>2015-08-14T12:15:48Z</time>
      </trkpt>
      <trkpt lat="42.2365390" lon="1.8737890">
        <ele>814.3</ele>
        <time>2015-08-14T12:15:50Z</time>
      </trkpt>
      <trkpt lat="42.2364840" lon="1.8738000">
        <ele>815.6</ele>
        <time>2015-08-14T12:15:52Z</time>
      </trkpt>
      <trkpt lat="42.2364420" lon="1.8738200">
        <ele>816.3</ele>
        <time>2015-08-14T12:15:55Z</time>
      </trkpt>
      <trkpt lat="42.2364180" lon="1.8738590">
        <ele>815.6</ele>
        <time>2015-08-14T12:15:56Z</time>
      </trkpt>
      <trkpt lat="42.2363920" lon="1.8738930">
        <ele>815.2</ele>
        <time>2015-08-14T12:15:57Z</time>
      </trkpt>
      <trkpt lat="42.2363520" lon="1.8739410">
        <ele>814.7</ele>
        <time>2015-08-14T12:15:58Z</time>
      </trkpt>
      <trkpt lat="42.2363030" lon="1.8739860">
        <ele>814.6</ele>
        <time>2015-08-14T12:15:59Z</time>
      </trkpt>
      <trkpt lat="42.2362630" lon="1.8740800">
        <ele>812.3</ele>
        <time>2015-08-14T12:16:00Z</time>
      </trkpt>
      <trkpt lat="42.2362090" lon="1.8741740">
        <ele>809.6</ele>
        <time>2015-08-14T12:16:01Z</time>
      </trkpt>
      <trkpt lat="42.2361430" lon="1.8742710">
        <ele>806.7</ele>
        <time>2015-08-14T12:16:02Z</time>
      </trkpt>
      <trkpt lat="42.2360940" lon="1.8743790">
        <ele>803.4</ele>
        <time>2015-08-14T12:16:03Z</time>
      </trkpt>
      <trkpt lat="42.2360430" lon="1.8744660">
        <ele>800.9</ele>
        <time>2015-08-14T12:16:04Z</time>
      </trkpt>
      <trkpt lat="42.2359810" lon="1.8745190">
        <ele>799.8</ele>
        <time>2015-08-14T12:16:05Z</time>
      </trkpt>
      <trkpt lat="42.2359280" lon="1.8745850">
        <ele>798.2</ele>
        <time>2015-08-14T12:16:06Z</time>
      </trkpt>
      <trkpt lat="42.2358710" lon="1.8746440">
        <ele>797.2</ele>
        <time>2015-08-14T12:16:07Z</time>
      </trkpt>
      <trkpt lat="42.2358050" lon="1.8747130">
        <ele>796.0</ele>
        <time>2015-08-14T12:16:08Z</time>
      </trkpt>
      <trkpt lat="42.2357330" lon="1.8747880">
        <ele>794.9</ele>
        <time>2015-08-14T12:16:09Z</time>
      </trkpt>
      <trkpt lat="42.2356700" lon="1.8748610">
        <ele>793.7</ele>
        <time>2015-08-14T12:16:10Z</time>
      </trkpt>
      <trkpt lat="42.2356200" lon="1.8749060">
        <ele>793.2</ele>
        <time>2015-08-14T12:16:11Z</time>
      </trkpt>
      <trkpt lat="42.2355740" lon="1.8748890">
        <ele>794.4</ele>
        <time>2015-08-14T12:16:12Z</time>
      </trkpt>
      <trkpt lat="42.2355490" lon="1.8748700">
        <ele>795.4</ele>
        <time>2015-08-14T12:16:13Z</time>
      </trkpt>
      <trkpt lat="42.2355290" lon="1.8748410">
        <ele>796.5</ele>
        <time>2015-08-14T12:16:14Z</time>
      </trkpt>
      <trkpt lat="42.2355060" lon="1.8748110">
        <ele>797.6</ele>
        <time>2015-08-14T12:16:15Z</time>
      </trkpt>
      <trkpt lat="42.2354750" lon="1.8748110">
        <ele>798.1</ele>
        <time>2015-08-14T12:16:16Z</time>
      </trkpt>
      <trkpt lat="42.2354430" lon="1.8748110">
        <ele>798.6</ele>
        <time>2015-08-14T12:16:17Z</time>
      </trkpt>
      <trkpt lat="42.2354150" lon="1.8748000">
        <ele>799.3</ele>
        <time>2015-08-14T12:16:18Z</time>
      </trkpt>
      <trkpt lat="42.2353840" lon="1.8748100">
        <ele>799.0</ele>
        <time>2015-08-14T12:16:19Z</time>
      </trkpt>
      <trkpt lat="42.2353480" lon="1.8747970">
        <ele>799.3</ele>
        <time>2015-08-14T12:16:20Z</time>
      </trkpt>
      <trkpt lat="42.2353130" lon="1.8747930">
        <ele>799.3</ele>
        <time>2015-08-14T12:16:21Z</time>
      </trkpt>
      <trkpt lat="42.2352850" lon="1.8747660">
        <ele>800.0</ele>
        <time>2015-08-14T12:16:22Z</time>
      </trkpt>
      <trkpt lat="42.2352480" lon="1.8747620">
        <ele>800.1</ele>
        <time>2015-08-14T12:16:24Z</time>
      </trkpt>
      <trkpt lat="42.2352080" lon="1.8747480">
        <ele>800.4</ele>
        <time>2015-08-14T12:16:27Z</time>
      </trkpt>
      <trkpt lat="42.2351740" lon="1.8747560">
        <ele>800.2</ele>
        <time>2015-08-14T12:16:30Z</time>
      </trkpt>
      <trkpt lat="42.2351460" lon="1.8747560">
        <ele>800.1</ele>
        <time>2015-08-14T12:16:44Z</time>
      </trkpt>
      <trkpt lat="42.2351120" lon="1.8747540">
        <ele>800.1</ele>
        <time>2015-08-14T12:16:46Z</time>
      </trkpt>
      <trkpt lat="42.2350830" lon="1.8747520">
        <ele>800.1</ele>
        <time>2015-08-14T12:16:48Z</time>
      </trkpt>
      <trkpt lat="42.2350530" lon="1.8747540">
        <ele>800.1</ele>
        <time>2015-08-14T12:16:50Z</time>
      </trkpt>
      <trkpt lat="42.2350210" lon="1.8747560">
        <ele>800.0</ele>
        <time>2015-08-14T12:16:52Z</time>
      </trkpt>
      <trkpt lat="42.2349750" lon="1.8747760">
        <ele>799.4</ele>
        <time>2015-08-14T12:16:54Z</time>
      </trkpt>
      <trkpt lat="42.2349480" lon="1.8748190">
        <ele>798.2</ele>
        <time>2015-08-14T12:16:55Z</time>
      </trkpt>
      <trkpt lat="42.2349150" lon="1.8748260">
        <ele>798.0</ele>
        <time>2015-08-14T12:16:56Z</time>
      </trkpt>
      <trkpt lat="42.2348630" lon="1.8748310">
        <ele>797.8</ele>
        <time>2015-08-14T12:16:58Z</time>
      </trkpt>
      <trkpt lat="42.2348350" lon="1.8748510">
        <ele>797.2</ele>
        <time>2015-08-14T12:16:59Z</time>
      </trkpt>
      <trkpt lat="42.2348070" lon="1.8748580">
        <ele>797.0</ele>
        <time>2015-08-14T12:17:00Z</time>
      </trkpt>
      <trkpt lat="42.2347600" lon="1.8748890">
        <ele>796.1</ele>
        <time>2015-08-14T12:17:02Z</time>
      </trkpt>
      <trkpt lat="42.2347360" lon="1.8749100">
        <ele>795.6</ele>
        <time>2015-08-14T12:17:03Z</time>
      </trkpt>
      <trkpt lat="42.2347090" lon="1.8749440">
        <ele>794.6</ele>
        <time>2015-08-14T12:17:04Z</time>
      </trkpt>
      <trkpt lat="42.2346880" lon="1.8749710">
        <ele>793.9</ele>
        <time>2015-08-14T12:17:07Z</time>
      </trkpt>
      <trkpt lat="42.2346540" lon="1.8750140">
        <ele>792.7</ele>
        <time>2015-08-14T12:17:09Z</time>
      </trkpt>
      <trkpt lat="42.2346300" lon="1.8750740">
        <ele>791.1</ele>
        <time>2015-08-14T12:17:11Z</time>
      </trkpt>
      <trkpt lat="42.2345870" lon="1.8751420">
        <ele>789.3</ele>
        <time>2015-08-14T12:17:13Z</time>
      </trkpt>
      <trkpt lat="42.2345490" lon="1.8751620">
        <ele>788.9</ele>
        <time>2015-08-14T12:17:14Z</time>
      </trkpt>
      <trkpt lat="42.2345100" lon="1.8751810">
        <ele>788.6</ele>
        <time>2015-08-14T12:17:15Z</time>
      </trkpt>
      <trkpt lat="42.2344780" lon="1.8752000">
        <ele>788.3</ele>
        <time>2015-08-14T12:17:16Z</time>
      </trkpt>
      <trkpt lat="42.2344370" lon="1.8752420">
        <ele>787.5</ele>
        <time>2015-08-14T12:17:17Z</time>
      </trkpt>
      <trkpt lat="42.2344170" lon="1.8752740">
        <ele>786.9</ele>
        <time>2015-08-14T12:17:18Z</time>
      </trkpt>
      <trkpt lat="42.2343940" lon="1.8753510">
        <ele>785.2</ele>
        <time>2015-08-14T12:17:20Z</time>
      </trkpt>
      <trkpt lat="42.2343720" lon="1.8754030">
        <ele>784.1</ele>
        <time>2015-08-14T12:17:21Z</time>
      </trkpt>
      <trkpt lat="42.2343380" lon="1.8754190">
        <ele>784.0</ele>
        <time>2015-08-14T12:17:22Z</time>
      </trkpt>
      <trkpt lat="42.2343030" lon="1.8754460">
        <ele>783.8</ele>
        <time>2015-08-14T12:17:23Z</time>
      </trkpt>
      <trkpt lat="42.2342660" lon="1.8754750">
        <ele>783.5</ele>
        <time>2015-08-14T12:17:24Z</time>
      </trkpt>
      <trkpt lat="42.2342270" lon="1.8754870">
        <ele>783.6</ele>
        <time>2015-08-14T12:17:25Z</time>
      </trkpt>
      <trkpt lat="42.2341840" lon="1.8754960">
        <ele>783.8</ele>
        <time>2015-08-14T12:17:26Z</time>
      </trkpt>
      <trkpt lat="42.2340960" lon="1.8755370">
        <ele>783.9</ele>
        <time>2015-08-14T12:17:27Z</time>
      </trkpt>
      <trkpt lat="42.2340320" lon="1.8755600">
        <ele>784.0</ele>
        <time>2015-08-14T12:17:28Z</time>
      </trkpt>
      <trkpt lat="42.2339780" lon="1.8755700">
        <ele>784.4</ele>
        <time>2015-08-14T12:17:29Z</time>
      </trkpt>
      <trkpt lat="42.2339190" lon="1.8755910">
        <ele>784.6</ele>
        <time>2015-08-14T12:17:30Z</time>
      </trkpt>
      <trkpt lat="42.2338680" lon="1.8755880">
        <ele>785.2</ele>
        <time>2015-08-14T12:17:31Z</time>
      </trkpt>
      <trkpt lat="42.2338140" lon="1.8755860">
        <ele>785.7</ele>
        <time>2015-08-14T12:17:32Z</time>
      </trkpt>
      <trkpt lat="42.2337570" lon="1.8756050">
        <ele>786.0</ele>
        <time>2015-08-14T12:17:33Z</time>
      </trkpt>
      <trkpt lat="42.2337180" lon="1.8756390">
        <ele>786.1</ele>
        <time>2015-08-14T12:17:34Z</time>
      </trkpt>
      <trkpt lat="42.2336890" lon="1.8756780">
        <ele>786.0</ele>
        <time>2015-08-14T12:17:35Z</time>
      </trkpt>
      <trkpt lat="42.2337040" lon="1.8757620">
        <ele>784.5</ele>
        <time>2015-08-14T12:17:36Z</time>
      </trkpt>
      <trkpt lat="42.2337160" lon="1.8758570">
        <ele>782.8</ele>
        <time>2015-08-14T12:17:37Z</time>
      </trkpt>
      <trkpt lat="42.2337330" lon="1.8759160">
        <ele>781.5</ele>
        <time>2015-08-14T12:17:38Z</time>
      </trkpt>
      <trkpt lat="42.2337520" lon="1.8759940">
        <ele>780.0</ele>
        <time>2015-08-14T12:17:39Z</time>
      </trkpt>
      <trkpt lat="42.2337770" lon="1.8760740">
        <ele>778.4</ele>
        <time>2015-08-14T12:17:40Z</time>
      </trkpt>
      <trkpt lat="42.2337930" lon="1.8761670">
        <ele>776.7</ele>
        <time>2015-08-14T12:17:42Z</time>
      </trkpt>
      <trkpt lat="42.2338120" lon="1.8762400">
        <ele>775.2</ele>
        <time>2015-08-14T12:17:43Z</time>
      </trkpt>
      <trkpt lat="42.2338140" lon="1.8762820">
        <ele>774.6</ele>
        <time>2015-08-14T12:17:44Z</time>
      </trkpt>
      <trkpt lat="42.2338110" lon="1.8763650">
        <ele>773.6</ele>
        <time>2015-08-14T12:17:45Z</time>
      </trkpt>
      <trkpt lat="42.2337890" lon="1.8764520">
        <ele>772.9</ele>
        <time>2015-08-14T12:17:46Z</time>
      </trkpt>
      <trkpt lat="42.2337610" lon="1.8765300">
        <ele>772.4</ele>
        <time>2015-08-14T12:17:47Z</time>
      </trkpt>
      <trkpt lat="42.2337120" lon="1.8766110">
        <ele>772.5</ele>
        <time>2015-08-14T12:17:48Z</time>
      </trkpt>
      <trkpt lat="42.2336830" lon="1.8766820">
        <ele>772.2</ele>
        <time>2015-08-14T12:17:49Z</time>
      </trkpt>
      <trkpt lat="42.2337120" lon="1.8767510">
        <ele>770.8</ele>
        <time>2015-08-14T12:17:50Z</time>
      </trkpt>
      <trkpt lat="42.2336810" lon="1.8768200">
        <ele>770.6</ele>
        <time>2015-08-14T12:17:51Z</time>
      </trkpt>
      <trkpt lat="42.2336510" lon="1.8768810">
        <ele>770.5</ele>
        <time>2015-08-14T12:17:52Z</time>
      </trkpt>
      <trkpt lat="42.2335820" lon="1.8769400">
        <ele>771.3</ele>
        <time>2015-08-14T12:17:53Z</time>
      </trkpt>
      <trkpt lat="42.2335410" lon="1.8770190">
        <ele>771.3</ele>
        <time>2015-08-14T12:17:54Z</time>
      </trkpt>
      <trkpt lat="42.2335110" lon="1.8770790">
        <ele>771.2</ele>
        <time>2015-08-14T12:17:55Z</time>
      </trkpt>
      <trkpt lat="42.2334530" lon="1.8770990">
        <ele>772.0</ele>
        <time>2015-08-14T12:17:56Z</time>
      </trkpt>
      <trkpt lat="42.2334110" lon="1.8771380">
        <ele>772.0</ele>
        <time>2015-08-14T12:17:57Z</time>
      </trkpt>
      <trkpt lat="42.2333820" lon="1.8771670">
        <ele>772.0</ele>
        <time>2015-08-14T12:17:58Z</time>
      </trkpt>
      <trkpt lat="42.2334360" lon="1.8772410">
        <ele>769.1</ele>
        <time>2015-08-14T12:17:59Z</time>
      </trkpt>
      <trkpt lat="42.2335210" lon="1.8772290">
        <ele>767.5</ele>
        <time>2015-08-14T12:18:01Z</time>
      </trkpt>
      <trkpt lat="42.2335690" lon="1.8772190">
        <ele>766.7</ele>
        <time>2015-08-14T12:18:02Z</time>
      </trkpt>
      <trkpt lat="42.2336170" lon="1.8771580">
        <ele>767.1</ele>
        <time>2015-08-14T12:18:03Z</time>
      </trkpt>
      <trkpt lat="42.2336650" lon="1.8771230">
        <ele>766.9</ele>
        <time>2015-08-14T12:18:04Z</time>
      </trkpt>
      <trkpt lat="42.2337140" lon="1.8770680">
        <ele>767.0</ele>
        <time>2015-08-14T12:18:05Z</time>
      </trkpt>
      <trkpt lat="42.2337640" lon="1.8770330">
        <ele>766.2</ele>
        <time>2015-08-14T12:18:06Z</time>
      </trkpt>
      <trkpt lat="42.2338430" lon="1.8770250">
        <ele>764.3</ele>
        <time>2015-08-14T12:18:07Z</time>
      </trkpt>
      <trkpt lat="42.2338590" lon="1.8769500">
        <ele>764.9</ele>
        <time>2015-08-14T12:18:08Z</time>
      </trkpt>
      <trkpt lat="42.2338860" lon="1.8769080">
        <ele>764.8</ele>
        <time>2015-08-14T12:18:09Z</time>
      </trkpt>
      <trkpt lat="42.2338640" lon="1.8768840">
        <ele>765.7</ele>
        <time>2015-08-14T12:18:10Z</time>
      </trkpt>
      <trkpt lat="42.2339030" lon="1.8768570">
        <ele>765.1</ele>
        <time>2015-08-14T12:18:11Z</time>
      </trkpt>
      <trkpt lat="42.2339100" lon="1.8767830">
        <ele>766.0</ele>
        <time>2015-08-14T12:18:12Z</time>
      </trkpt>
      <trkpt lat="42.2339340" lon="1.8767130">
        <ele>766.5</ele>
        <time>2015-08-14T12:18:14Z</time>
      </trkpt>
      <trkpt lat="42.2339720" lon="1.8766900">
        <ele>766.0</ele>
        <time>2015-08-14T12:18:15Z</time>
      </trkpt>
      <trkpt lat="42.2340290" lon="1.8766960">
        <ele>764.7</ele>
        <time>2015-08-14T12:18:16Z</time>
      </trkpt>
      <trkpt lat="42.2340960" lon="1.8766700">
        <ele>763.7</ele>
        <time>2015-08-14T12:18:17Z</time>
      </trkpt>
      <trkpt lat="42.2341360" lon="1.8766660">
        <ele>762.9</ele>
        <time>2015-08-14T12:18:18Z</time>
      </trkpt>
      <trkpt lat="42.2341760" lon="1.8766580">
        <ele>762.2</ele>
        <time>2015-08-14T12:18:19Z</time>
      </trkpt>
      <trkpt lat="42.2342470" lon="1.8766430">
        <ele>761.0</ele>
        <time>2015-08-14T12:18:20Z</time>
      </trkpt>
      <trkpt lat="42.2342950" lon="1.8766700">
        <ele>759.5</ele>
        <time>2015-08-14T12:18:21Z</time>
      </trkpt>
      <trkpt lat="42.2342950" lon="1.8767750">
        <ele>757.5</ele>
        <time>2015-08-14T12:18:22Z</time>
      </trkpt>
      <trkpt lat="42.2343610" lon="1.8768020">
        <ele>755.5</ele>
        <time>2015-08-14T12:18:23Z</time>
      </trkpt>
      <trkpt lat="42.2343860" lon="1.8768340">
        <ele>754.3</ele>
        <time>2015-08-14T12:18:26Z</time>
      </trkpt>
      <trkpt lat="42.2344180" lon="1.8768110">
        <ele>754.0</ele>
        <time>2015-08-14T12:18:27Z</time>
      </trkpt>
      <trkpt lat="42.2344530" lon="1.8767880">
        <ele>753.7</ele>
        <time>2015-08-14T12:18:28Z</time>
      </trkpt>
      <trkpt lat="42.2344510" lon="1.8767020">
        <ele>755.5</ele>
        <time>2015-08-14T12:18:29Z</time>
      </trkpt>
      <trkpt lat="42.2344910" lon="1.8767170">
        <ele>754.4</ele>
        <time>2015-08-14T12:18:30Z</time>
      </trkpt>
      <trkpt lat="42.2344990" lon="1.8766650">
        <ele>755.3</ele>
        <time>2015-08-14T12:18:32Z</time>
      </trkpt>
      <trkpt lat="42.2345290" lon="1.8766210">
        <ele>755.7</ele>
        <time>2015-08-14T12:18:34Z</time>
      </trkpt>
      <trkpt lat="42.2345510" lon="1.8765950">
        <ele>755.8</ele>
        <time>2015-08-14T12:18:36Z</time>
      </trkpt>
      <trkpt lat="42.2345910" lon="1.8766330">
        <ele>754.2</ele>
        <time>2015-08-14T12:18:37Z</time>
      </trkpt>
      <trkpt lat="42.2346180" lon="1.8765970">
        <ele>754.9</ele>
        <time>2015-08-14T12:18:38Z</time>
      </trkpt>
      <trkpt lat="42.2346450" lon="1.8765780">
        <ele>755.2</ele>
        <time>2015-08-14T12:18:39Z</time>
      </trkpt>
      <trkpt lat="42.2346730" lon="1.8765630">
        <ele>755.4</ele>
        <time>2015-08-14T12:18:40Z</time>
      </trkpt>
      <trkpt lat="42.2346940" lon="1.8765380">
        <ele>755.8</ele>
        <time>2015-08-14T12:18:42Z</time>
      </trkpt>
      <trkpt lat="42.2347350" lon="1.8765050">
        <ele>756.3</ele>
        <time>2015-08-14T12:18:44Z</time>
      </trkpt>
      <trkpt lat="42.2347580" lon="1.8764800">
        <ele>756.8</ele>
        <time>2015-08-14T12:18:45Z</time>
      </trkpt>
      <trkpt lat="42.2348100" lon="1.8764330">
        <ele>757.6</ele>
        <time>2015-08-14T12:18:47Z</time>
      </trkpt>
      <trkpt lat="42.2348450" lon="1.8764090">
        <ele>758.0</ele>
        <time>2015-08-14T12:18:48Z</time>
      </trkpt>
      <trkpt lat="42.2348700" lon="1.8763750">
        <ele>758.7</ele>
        <time>2015-08-14T12:18:50Z</time>
      </trkpt>
      <trkpt lat="42.2349070" lon="1.8763430">
        <ele>759.2</ele>
        <time>2015-08-14T12:18:52Z</time>
      </trkpt>
      <trkpt lat="42.2349290" lon="1.8763210">
        <ele>759.7</ele>
        <time>2015-08-14T12:18:53Z</time>
      </trkpt>
      <trkpt lat="42.2349550" lon="1.8762960">
        <ele>760.1</ele>
        <time>2015-08-14T12:18:54Z</time>
      </trkpt>
      <trkpt lat="42.2349860" lon="1.8762740">
        <ele>760.5</ele>
        <time>2015-08-14T12:18:55Z</time>
      </trkpt>
      <trkpt lat="42.2350250" lon="1.8762560">
        <ele>760.7</ele>
        <time>2015-08-14T12:18:56Z</time>
      </trkpt>
      <trkpt lat="42.2350560" lon="1.8762220">
        <ele>761.5</ele>
        <time>2015-08-14T12:18:57Z</time>
      </trkpt>
      <trkpt lat="42.2350850" lon="1.8762010">
        <ele>761.9</ele>
        <time>2015-08-14T12:18:58Z</time>
      </trkpt>
      <trkpt lat="42.2351060" lon="1.8761760">
        <ele>762.5</ele>
        <time>2015-08-14T12:18:59Z</time>
      </trkpt>
      <trkpt lat="42.2351460" lon="1.8761270">
        <ele>763.6</ele>
        <time>2015-08-14T12:19:01Z</time>
      </trkpt>
      <trkpt lat="42.2351720" lon="1.8760800">
        <ele>764.8</ele>
        <time>2015-08-14T12:19:03Z</time>
      </trkpt>
      <trkpt lat="42.2352120" lon="1.8760800">
        <ele>764.6</ele>
        <time>2015-08-14T12:19:04Z</time>
      </trkpt>
      <trkpt lat="42.2352440" lon="1.8760790">
        <ele>764.5</ele>
        <time>2015-08-14T12:19:05Z</time>
      </trkpt>
      <trkpt lat="42.2352750" lon="1.8760850">
        <ele>764.3</ele>
        <time>2015-08-14T12:19:06Z</time>
      </trkpt>
      <trkpt lat="42.2353120" lon="1.8760720">
        <ele>764.5</ele>
        <time>2015-08-14T12:19:07Z</time>
      </trkpt>
      <trkpt lat="42.2353470" lon="1.8760590">
        <ele>764.7</ele>
        <time>2015-08-14T12:19:08Z</time>
      </trkpt>
      <trkpt lat="42.2353790" lon="1.8760380">
        <ele>765.2</ele>
        <time>2015-08-14T12:19:09Z</time>
      </trkpt>
      <trkpt lat="42.2354120" lon="1.8760200">
        <ele>765.6</ele>
        <time>2015-08-14T12:19:10Z</time>
      </trkpt>
      <trkpt lat="42.2354400" lon="1.8759940">
        <ele>765.9</ele>
        <time>2015-08-14T12:19:11Z</time>
      </trkpt>
      <trkpt lat="42.2354720" lon="1.8759750">
        <ele>765.8</ele>
        <time>2015-08-14T12:19:12Z</time>
      </trkpt>
      <trkpt lat="42.2355070" lon="1.8759370">
        <ele>766.2</ele>
        <time>2015-08-14T12:19:13Z</time>
      </trkpt>
      <trkpt lat="42.2355500" lon="1.8759170">
        <ele>766.0</ele>
        <time>2015-08-14T12:19:15Z</time>
      </trkpt>
      <trkpt lat="42.2355660" lon="1.8758860">
        <ele>766.5</ele>
        <time>2015-08-14T12:19:16Z</time>
      </trkpt>
      <trkpt lat="42.2356070" lon="1.8758570">
        <ele>766.6</ele>
        <time>2015-08-14T12:19:17Z</time>
      </trkpt>
      <trkpt lat="42.2356410" lon="1.8758260">
        <ele>766.8</ele>
        <time>2015-08-14T12:19:18Z</time>
      </trkpt>
      <trkpt lat="42.2356780" lon="1.8757780">
        <ele>767.4</ele>
        <time>2015-08-14T12:19:19Z</time>
      </trkpt>
      <trkpt lat="42.2357110" lon="1.8757630">
        <ele>767.2</ele>
        <time>2015-08-14T12:19:20Z</time>
      </trkpt>
      <trkpt lat="42.2357420" lon="1.8757310">
        <ele>767.5</ele>
        <time>2015-08-14T12:19:21Z</time>
      </trkpt>
      <trkpt lat="42.2357660" lon="1.8756910">
        <ele>768.1</ele>
        <time>2015-08-14T12:19:22Z</time>
      </trkpt>
      <trkpt lat="42.2358000" lon="1.8756650">
        <ele>768.2</ele>
        <time>2015-08-14T12:19:23Z</time>
      </trkpt>
      <trkpt lat="42.2358450" lon="1.8756170">
        <ele>768.6</ele>
        <time>2015-08-14T12:19:25Z</time>
      </trkpt>
      <trkpt lat="42.2358720" lon="1.8755940">
        <ele>768.7</ele>
        <time>2015-08-14T12:19:26Z</time>
      </trkpt>
      <trkpt lat="42.2358990" lon="1.8755770">
        <ele>768.7</ele>
        <time>2015-08-14T12:19:27Z</time>
      </trkpt>
      <trkpt lat="42.2359350" lon="1.8755240">
        <ele>769.4</ele>
        <time>2015-08-14T12:19:29Z</time>
      </trkpt>
      <trkpt lat="42.2359600" lon="1.8755010">
        <ele>769.6</ele>
        <time>2015-08-14T12:19:30Z</time>
      </trkpt>
      <trkpt lat="42.2359870" lon="1.8754650">
        <ele>770.0</ele>
        <time>2015-08-14T12:19:31Z</time>
      </trkpt>
      <trkpt lat="42.2360330" lon="1.8754520">
        <ele>769.4</ele>
        <time>2015-08-14T12:19:32Z</time>
      </trkpt>
      <trkpt lat="42.2360740" lon="1.8754400">
        <ele>768.9</ele>
        <time>2015-08-14T12:19:33Z</time>
      </trkpt>
      <trkpt lat="42.2361060" lon="1.8754240">
        <ele>768.7</ele>
        <time>2015-08-14T12:19:34Z</time>
      </trkpt>
      <trkpt lat="42.2361600" lon="1.8754270">
        <ele>767.5</ele>
        <time>2015-08-14T12:19:35Z</time>
      </trkpt>
      <trkpt lat="42.2362050" lon="1.8754460">
        <ele>766.1</ele>
        <time>2015-08-14T12:19:36Z</time>
      </trkpt>
      <trkpt lat="42.2362460" lon="1.8754470">
        <ele>765.2</ele>
        <time>2015-08-14T12:19:37Z</time>
      </trkpt>
      <trkpt lat="42.2362850" lon="1.8754550">
        <ele>763.7</ele>
        <time>2015-08-14T12:19:38Z</time>
      </trkpt>
      <trkpt lat="42.2363350" lon="1.8754570">
        <ele>761.9</ele>
        <time>2015-08-14T12:19:39Z</time>
      </trkpt>
      <trkpt lat="42.2363850" lon="1.8754540">
        <ele>760.3</ele>
        <time>2015-08-14T12:19:40Z</time>
      </trkpt>
      <trkpt lat="42.2364560" lon="1.8754660">
        <ele>757.5</ele>
        <time>2015-08-14T12:19:41Z</time>
      </trkpt>
      <trkpt lat="42.2364940" lon="1.8754410">
        <ele>756.7</ele>
        <time>2015-08-14T12:19:42Z</time>
      </trkpt>
      <trkpt lat="42.2365240" lon="1.8754480">
        <ele>755.5</ele>
        <time>2015-08-14T12:19:43Z</time>
      </trkpt>
      <trkpt lat="42.2365780" lon="1.8754840">
        <ele>753.0</ele>
        <time>2015-08-14T12:19:44Z</time>
      </trkpt>
      <trkpt lat="42.2366220" lon="1.8755400">
        <ele>750.5</ele>
        <time>2015-08-14T12:19:47Z</time>
      </trkpt>
      <trkpt lat="42.2366530" lon="1.8755970">
        <ele>748.6</ele>
        <time>2015-08-14T12:19:48Z</time>
      </trkpt>
      <trkpt lat="42.2366750" lon="1.8756310">
        <ele>747.4</ele>
        <time>2015-08-14T12:19:49Z</time>
      </trkpt>
      <trkpt lat="42.2367080" lon="1.8756660">
        <ele>745.9</ele>
        <time>2015-08-14T12:19:51Z</time>
      </trkpt>
      <trkpt lat="42.2367410" lon="1.8756650">
        <ele>745.0</ele>
        <time>2015-08-14T12:19:52Z</time>
      </trkpt>
      <trkpt lat="42.2367730" lon="1.8756900">
        <ele>743.7</ele>
        <time>2015-08-14T12:19:53Z</time>
      </trkpt>
      <trkpt lat="42.2368100" lon="1.8757340">
        <ele>742.2</ele>
        <time>2015-08-14T12:19:55Z</time>
      </trkpt>
      <trkpt lat="42.2368340" lon="1.8757560">
        <ele>741.3</ele>
        <time>2015-08-14T12:19:56Z</time>
      </trkpt>
      <trkpt lat="42.2368790" lon="1.8758010">
        <ele>739.7</ele>
        <time>2015-08-14T12:19:58Z</time>
      </trkpt>
      <trkpt lat="42.2369130" lon="1.8758260">
        <ele>738.7</ele>
        <time>2015-08-14T12:19:59Z</time>
      </trkpt>
      <trkpt lat="42.2369370" lon="1.8758530">
        <ele>737.9</ele>
        <time>2015-08-14T12:20:00Z</time>
      </trkpt>
      <trkpt lat="42.2369620" lon="1.8758790">
        <ele>737.1</ele>
        <time>2015-08-14T12:20:01Z</time>
      </trkpt>
      <trkpt lat="42.2369880" lon="1.8759050">
        <ele>736.3</ele>
        <time>2015-08-14T12:20:02Z</time>
      </trkpt>
      <trkpt lat="42.2370420" lon="1.8759530">
        <ele>734.9</ele>
        <time>2015-08-14T12:20:05Z</time>
      </trkpt>
      <trkpt lat="42.2370840" lon="1.8759440">
        <ele>734.1</ele>
        <time>2015-08-14T12:20:06Z</time>
      </trkpt>
      <trkpt lat="42.2371130" lon="1.8759780">
        <ele>734.3</ele>
        <time>2015-08-14T12:20:09Z</time>
      </trkpt>
      <trkpt lat="42.2371420" lon="1.8759740">
        <ele>734.6</ele>
        <time>2015-08-14T12:20:10Z</time>
      </trkpt>
      <trkpt lat="42.2371760" lon="1.8759580">
        <ele>734.9</ele>
        <time>2015-08-14T12:20:13Z</time>
      </trkpt>
      <trkpt lat="42.2372150" lon="1.8759170">
        <ele>735.4</ele>
        <time>2015-08-14T12:20:15Z</time>
      </trkpt>
      <trkpt lat="42.2372500" lon="1.8759050">
        <ele>735.7</ele>
        <time>2015-08-14T12:20:17Z</time>
      </trkpt>
      <trkpt lat="42.2372960" lon="1.8758820">
        <ele>736.1</ele>
        <time>2015-08-14T12:20:19Z</time>
      </trkpt>
      <trkpt lat="42.2373480" lon="1.8758580">
        <ele>736.6</ele>
        <time>2015-08-14T12:20:21Z</time>
      </trkpt>
      <trkpt lat="42.2373950" lon="1.8758250">
        <ele>736.9</ele>
        <time>2015-08-14T12:20:23Z</time>
      </trkpt>
      <trkpt lat="42.2374200" lon="1.8758050">
        <ele>737.1</ele>
        <time>2015-08-14T12:20:24Z</time>
      </trkpt>
      <trkpt lat="42.2374430" lon="1.8757850">
        <ele>737.3</ele>
        <time>2015-08-14T12:20:25Z</time>
      </trkpt>
      <trkpt lat="42.2374830" lon="1.8757690">
        <ele>737.5</ele>
        <time>2015-08-14T12:20:27Z</time>
      </trkpt>
      <trkpt lat="42.2375110" lon="1.8757480">
        <ele>737.7</ele>
        <time>2015-08-14T12:20:29Z</time>
      </trkpt>
      <trkpt lat="42.2375480" lon="1.8757030">
        <ele>737.8</ele>
        <time>2015-08-14T12:20:31Z</time>
      </trkpt>
      <trkpt lat="42.2375680" lon="1.8756760">
        <ele>737.9</ele>
        <time>2015-08-14T12:20:32Z</time>
      </trkpt>
      <trkpt lat="42.2376130" lon="1.8756460">
        <ele>738.0</ele>
        <time>2015-08-14T12:20:34Z</time>
      </trkpt>
      <trkpt lat="42.2376470" lon="1.8756050">
        <ele>738.1</ele>
        <time>2015-08-14T12:20:36Z</time>
      </trkpt>
      <trkpt lat="42.2376870" lon="1.8755820">
        <ele>738.1</ele>
        <time>2015-08-14T12:20:38Z</time>
      </trkpt>
      <trkpt lat="42.2377230" lon="1.8755470">
        <ele>738.1</ele>
        <time>2015-08-14T12:20:40Z</time>
      </trkpt>
      <trkpt lat="42.2377650" lon="1.8755140">
        <ele>738.1</ele>
        <time>2015-08-14T12:20:42Z</time>
      </trkpt>
      <trkpt lat="42.2378060" lon="1.8754820">
        <ele>738.1</ele>
        <time>2015-08-14T12:20:44Z</time>
      </trkpt>
      <trkpt lat="42.2378440" lon="1.8754420">
        <ele>738.0</ele>
        <time>2015-08-14T12:20:46Z</time>
      </trkpt>
      <trkpt lat="42.2378870" lon="1.8754150">
        <ele>738.0</ele>
        <time>2015-08-14T12:20:48Z</time>
      </trkpt>
      <trkpt lat="42.2379240" lon="1.8753880">
        <ele>738.4</ele>
        <time>2015-08-14T12:20:50Z</time>
      </trkpt>
      <trkpt lat="42.2379610" lon="1.8753480">
        <ele>739.1</ele>
        <time>2015-08-14T12:20:52Z</time>
      </trkpt>
      <trkpt lat="42.2379950" lon="1.8753170">
        <ele>739.6</ele>
        <time>2015-08-14T12:20:54Z</time>
      </trkpt>
      <trkpt lat="42.2380380" lon="1.8752810">
        <ele>740.2</ele>
        <time>2015-08-14T12:20:56Z</time>
      </trkpt>
      <trkpt lat="42.2380800" lon="1.8752620">
        <ele>740.6</ele>
        <time>2015-08-14T12:20:58Z</time>
      </trkpt>
      <trkpt lat="42.2381050" lon="1.8752460">
        <ele>740.8</ele>
        <time>2015-08-14T12:20:59Z</time>
      </trkpt>
      <trkpt lat="42.2381460" lon="1.8752050">
        <ele>741.3</ele>
        <time>2015-08-14T12:21:01Z</time>
      </trkpt>
      <trkpt lat="42.2381730" lon="1.8751850">
        <ele>741.5</ele>
        <time>2015-08-14T12:21:02Z</time>
      </trkpt>
      <trkpt lat="42.2382210" lon="1.8751460">
        <ele>741.9</ele>
        <time>2015-08-14T12:21:04Z</time>
      </trkpt>
      <trkpt lat="42.2382450" lon="1.8751290">
        <ele>742.0</ele>
        <time>2015-08-14T12:21:05Z</time>
      </trkpt>
      <trkpt lat="42.2382930" lon="1.8750830">
        <ele>742.4</ele>
        <time>2015-08-14T12:21:07Z</time>
      </trkpt>
      <trkpt lat="42.2383250" lon="1.8750690">
        <ele>742.5</ele>
        <time>2015-08-14T12:21:08Z</time>
      </trkpt>
      <trkpt lat="42.2383610" lon="1.8750570">
        <ele>742.5</ele>
        <time>2015-08-14T12:21:09Z</time>
      </trkpt>
      <trkpt lat="42.2383960" lon="1.8750390">
        <ele>742.6</ele>
        <time>2015-08-14T12:21:10Z</time>
      </trkpt>
      <trkpt lat="42.2384390" lon="1.8750180">
        <ele>742.6</ele>
        <time>2015-08-14T12:21:11Z</time>
      </trkpt>
      <trkpt lat="42.2384680" lon="1.8749960">
        <ele>742.7</ele>
        <time>2015-08-14T12:21:12Z</time>
      </trkpt>
      <trkpt lat="42.2385020" lon="1.8749760">
        <ele>742.7</ele>
        <time>2015-08-14T12:21:13Z</time>
      </trkpt>
      <trkpt lat="42.2385370" lon="1.8749540">
        <ele>742.6</ele>
        <time>2015-08-14T12:21:14Z</time>
      </trkpt>
      <trkpt lat="42.2385710" lon="1.8749370">
        <ele>742.6</ele>
        <time>2015-08-14T12:21:15Z</time>
      </trkpt>
      <trkpt lat="42.2386020" lon="1.8749230">
        <ele>742.5</ele>
        <time>2015-08-14T12:21:16Z</time>
      </trkpt>
      <trkpt lat="42.2386270" lon="1.8748970">
        <ele>742.4</ele>
        <time>2015-08-14T12:21:17Z</time>
      </trkpt>
      <trkpt lat="42.2386550" lon="1.8748890">
        <ele>742.4</ele>
        <time>2015-08-14T12:21:18Z</time>
      </trkpt>
      <trkpt lat="42.2386840" lon="1.8748670">
        <ele>742.2</ele>
        <time>2015-08-14T12:21:19Z</time>
      </trkpt>
      <trkpt lat="42.2387230" lon="1.8748330">
        <ele>742.0</ele>
        <time>2015-08-14T12:21:21Z</time>
      </trkpt>
      <trkpt lat="42.2387470" lon="1.8748110">
        <ele>741.8</ele>
        <time>2015-08-14T12:21:22Z</time>
      </trkpt>
      <trkpt lat="42.2387730" lon="1.8747990">
        <ele>742.0</ele>
        <time>2015-08-14T12:21:23Z</time>
      </trkpt>
      <trkpt lat="42.2388240" lon="1.8747700">
        <ele>742.3</ele>
        <time>2015-08-14T12:21:25Z</time>
      </trkpt>
      <trkpt lat="42.2388760" lon="1.8747310">
        <ele>742.6</ele>
        <time>2015-08-14T12:21:27Z</time>
      </trkpt>
      <trkpt lat="42.2389060" lon="1.8747180">
        <ele>742.8</ele>
        <time>2015-08-14T12:21:28Z</time>
      </trkpt>
      <trkpt lat="42.2389460" lon="1.8747070">
        <ele>743.0</ele>
        <time>2015-08-14T12:21:29Z</time>
      </trkpt>
      <trkpt lat="42.2389830" lon="1.8746960">
        <ele>743.3</ele>
        <time>2015-08-14T12:21:30Z</time>
      </trkpt>
      <trkpt lat="42.2390080" lon="1.8746680">
        <ele>743.3</ele>
        <time>2015-08-14T12:21:31Z</time>
      </trkpt>
      <trkpt lat="42.2390330" lon="1.8746520">
        <ele>743.4</ele>
        <time>2015-08-14T12:21:32Z</time>
      </trkpt>
      <trkpt lat="42.2390590" lon="1.8746370">
        <ele>743.5</ele>
        <time>2015-08-14T12:21:33Z</time>
      </trkpt>
      <trkpt lat="42.2391010" lon="1.8746320">
        <ele>743.8</ele>
        <time>2015-08-14T12:21:34Z</time>
      </trkpt>
      <trkpt lat="42.2391390" lon="1.8745790">
        <ele>743.8</ele>
        <time>2015-08-14T12:21:36Z</time>
      </trkpt>
      <trkpt lat="42.2391640" lon="1.8745570">
        <ele>744.1</ele>
        <time>2015-08-14T12:21:37Z</time>
      </trkpt>
      <trkpt lat="42.2391930" lon="1.8745400">
        <ele>744.4</ele>
        <time>2015-08-14T12:21:38Z</time>
      </trkpt>
      <trkpt lat="42.2392140" lon="1.8745130">
        <ele>744.7</ele>
        <time>2015-08-14T12:21:39Z</time>
      </trkpt>
      <trkpt lat="42.2392650" lon="1.8744730">
        <ele>745.1</ele>
        <time>2015-08-14T12:21:41Z</time>
      </trkpt>
      <trkpt lat="42.2392930" lon="1.8744510">
        <ele>745.3</ele>
        <time>2015-08-14T12:21:42Z</time>
      </trkpt>
      <trkpt lat="42.2393250" lon="1.8744370">
        <ele>745.5</ele>
        <time>2015-08-14T12:21:43Z</time>
      </trkpt>
      <trkpt lat="42.2393510" lon="1.8744210">
        <ele>745.6</ele>
        <time>2015-08-14T12:21:44Z</time>
      </trkpt>
      <trkpt lat="42.2393760" lon="1.8743980">
        <ele>745.7</ele>
        <time>2015-08-14T12:21:45Z</time>
      </trkpt>
      <trkpt lat="42.2393980" lon="1.8743660">
        <ele>745.8</ele>
        <time>2015-08-14T12:21:46Z</time>
      </trkpt>
      <trkpt lat="42.2394420" lon="1.8743250">
        <ele>745.9</ele>
        <time>2015-08-14T12:21:48Z</time>
      </trkpt>
      <trkpt lat="42.2394620" lon="1.8742950">
        <ele>745.9</ele>
        <time>2015-08-14T12:21:49Z</time>
      </trkpt>
      <trkpt lat="42.2395000" lon="1.8742420">
        <ele>745.8</ele>
        <time>2015-08-14T12:21:51Z</time>
      </trkpt>
      <trkpt lat="42.2395230" lon="1.8742060">
        <ele>745.7</ele>
        <time>2015-08-14T12:21:52Z</time>
      </trkpt>
      <trkpt lat="42.2395440" lon="1.8741790">
        <ele>745.6</ele>
        <time>2015-08-14T12:21:53Z</time>
      </trkpt>
      <trkpt lat="42.2395660" lon="1.8741570">
        <ele>745.5</ele>
        <time>2015-08-14T12:21:54Z</time>
      </trkpt>
      <trkpt lat="42.2395860" lon="1.8741290">
        <ele>745.4</ele>
        <time>2015-08-14T12:21:55Z</time>
      </trkpt>
      <trkpt lat="42.2396140" lon="1.8741040">
        <ele>745.5</ele>
        <time>2015-08-14T12:21:56Z</time>
      </trkpt>
      <trkpt lat="42.2396400" lon="1.8740790">
        <ele>745.5</ele>
        <time>2015-08-14T12:21:57Z</time>
      </trkpt>
      <trkpt lat="42.2396670" lon="1.8740600">
        <ele>745.6</ele>
        <time>2015-08-14T12:21:58Z</time>
      </trkpt>
      <trkpt lat="42.2396980" lon="1.8740360">
        <ele>745.7</ele>
        <time>2015-08-14T12:21:59Z</time>
      </trkpt>
      <trkpt lat="42.2397300" lon="1.8740140">
        <ele>745.8</ele>
        <time>2015-08-14T12:22:00Z</time>
      </trkpt>
      <trkpt lat="42.2397610" lon="1.8739950">
        <ele>745.9</ele>
        <time>2015-08-14T12:22:01Z</time>
      </trkpt>
      <trkpt lat="42.2397920" lon="1.8739730">
        <ele>745.9</ele>
        <time>2015-08-14T12:22:02Z</time>
      </trkpt>
      <trkpt lat="42.2398280" lon="1.8739490">
        <ele>746.0</ele>
        <time>2015-08-14T12:22:03Z</time>
      </trkpt>
      <trkpt lat="42.2398650" lon="1.8739350">
        <ele>746.2</ele>
        <time>2015-08-14T12:22:04Z</time>
      </trkpt>
      <trkpt lat="42.2398990" lon="1.8739210">
        <ele>746.3</ele>
        <time>2015-08-14T12:22:05Z</time>
      </trkpt>
      <trkpt lat="42.2399290" lon="1.8739070">
        <ele>746.4</ele>
        <time>2015-08-14T12:22:06Z</time>
      </trkpt>
      <trkpt lat="42.2399670" lon="1.8738770">
        <ele>746.4</ele>
        <time>2015-08-14T12:22:07Z</time>
      </trkpt>
      <trkpt lat="42.2400010" lon="1.8738750">
        <ele>746.6</ele>
        <time>2015-08-14T12:22:08Z</time>
      </trkpt>
      <trkpt lat="42.2400370" lon="1.8738660">
        <ele>746.7</ele>
        <time>2015-08-14T12:22:09Z</time>
      </trkpt>
      <trkpt lat="42.2400770" lon="1.8738560">
        <ele>746.9</ele>
        <time>2015-08-14T12:22:10Z</time>
      </trkpt>
      <trkpt lat="42.2401120" lon="1.8738490">
        <ele>747.0</ele>
        <time>2015-08-14T12:22:11Z</time>
      </trkpt>
      <trkpt lat="42.2401480" lon="1.8738440">
        <ele>747.2</ele>
        <time>2015-08-14T12:22:12Z</time>
      </trkpt>
      <trkpt lat="42.2401850" lon="1.8738360">
        <ele>747.3</ele>
        <time>2015-08-14T12:22:13Z</time>
      </trkpt>
      <trkpt lat="42.2402210" lon="1.8738270">
        <ele>747.5</ele>
        <time>2015-08-14T12:22:14Z</time>
      </trkpt>
      <trkpt lat="42.2402600" lon="1.8738190">
        <ele>747.6</ele>
        <time>2015-08-14T12:22:15Z</time>
      </trkpt>
      <trkpt lat="42.2402990" lon="1.8738140">
        <ele>747.8</ele>
        <time>2015-08-14T12:22:16Z</time>
      </trkpt>
      <trkpt lat="42.2403320" lon="1.8738190">
        <ele>748.0</ele>
        <time>2015-08-14T12:22:17Z</time>
      </trkpt>
      <trkpt lat="42.2403600" lon="1.8738110">
        <ele>748.1</ele>
        <time>2015-08-14T12:22:18Z</time>
      </trkpt>
      <trkpt lat="42.2403900" lon="1.8738080">
        <ele>748.2</ele>
        <time>2015-08-14T12:22:19Z</time>
      </trkpt>
      <trkpt lat="42.2404270" lon="1.8738070">
        <ele>748.4</ele>
        <time>2015-08-14T12:22:20Z</time>
      </trkpt>
      <trkpt lat="42.2404650" lon="1.8738080">
        <ele>748.8</ele>
        <time>2015-08-14T12:22:21Z</time>
      </trkpt>
      <trkpt lat="42.2404990" lon="1.8737960">
        <ele>749.0</ele>
        <time>2015-08-14T12:22:22Z</time>
      </trkpt>
      <trkpt lat="42.2405330" lon="1.8738010">
        <ele>749.3</ele>
        <time>2015-08-14T12:22:23Z</time>
      </trkpt>
      <trkpt lat="42.2405690" lon="1.8738010">
        <ele>749.6</ele>
        <time>2015-08-14T12:22:24Z</time>
      </trkpt>
      <trkpt lat="42.2406030" lon="1.8737950">
        <ele>749.8</ele>
        <time>2015-08-14T12:22:25Z</time>
      </trkpt>
      <trkpt lat="42.2406390" lon="1.8737870">
        <ele>750.1</ele>
        <time>2015-08-14T12:22:26Z</time>
      </trkpt>
      <trkpt lat="42.2406740" lon="1.8737820">
        <ele>750.4</ele>
        <time>2015-08-14T12:22:27Z</time>
      </trkpt>
      <trkpt lat="42.2407120" lon="1.8737840">
        <ele>750.7</ele>
        <time>2015-08-14T12:22:28Z</time>
      </trkpt>
      <trkpt lat="42.2407500" lon="1.8737840">
        <ele>751.0</ele>
        <time>2015-08-14T12:22:29Z</time>
      </trkpt>
      <trkpt lat="42.2407900" lon="1.8737840">
        <ele>751.4</ele>
        <time>2015-08-14T12:22:30Z</time>
      </trkpt>
      <trkpt lat="42.2408290" lon="1.8737800">
        <ele>751.7</ele>
        <time>2015-08-14T12:22:31Z</time>
      </trkpt>
      <trkpt lat="42.2408630" lon="1.8737800">
        <ele>751.9</ele>
        <time>2015-08-14T12:22:32Z</time>
      </trkpt>
      <trkpt lat="42.2409030" lon="1.8737760">
        <ele>752.3</ele>
        <time>2015-08-14T12:22:33Z</time>
      </trkpt>
      <trkpt lat="42.2409420" lon="1.8737740">
        <ele>752.6</ele>
        <time>2015-08-14T12:22:34Z</time>
      </trkpt>
      <trkpt lat="42.2409730" lon="1.8737720">
        <ele>752.8</ele>
        <time>2015-08-14T12:22:35Z</time>
      </trkpt>
      <trkpt lat="42.2410070" lon="1.8737710">
        <ele>753.1</ele>
        <time>2015-08-14T12:22:36Z</time>
      </trkpt>
      <trkpt lat="42.2410440" lon="1.8737700">
        <ele>753.4</ele>
        <time>2015-08-14T12:22:37Z</time>
      </trkpt>
      <trkpt lat="42.2410800" lon="1.8737660">
        <ele>753.7</ele>
        <time>2015-08-14T12:22:38Z</time>
      </trkpt>
      <trkpt lat="42.2411170" lon="1.8737640">
        <ele>754.0</ele>
        <time>2015-08-14T12:22:39Z</time>
      </trkpt>
      <trkpt lat="42.2411540" lon="1.8737580">
        <ele>754.3</ele>
        <time>2015-08-14T12:22:40Z</time>
      </trkpt>
      <trkpt lat="42.2411850" lon="1.8737520">
        <ele>754.5</ele>
        <time>2015-08-14T12:22:41Z</time>
      </trkpt>
      <trkpt lat="42.2412160" lon="1.8737460">
        <ele>754.7</ele>
        <time>2015-08-14T12:22:42Z</time>
      </trkpt>
      <trkpt lat="42.2412600" lon="1.8737360">
        <ele>754.9</ele>
        <time>2015-08-14T12:22:43Z</time>
      </trkpt>
      <trkpt lat="42.2413010" lon="1.8737270">
        <ele>754.9</ele>
        <time>2015-08-14T12:22:44Z</time>
      </trkpt>
      <trkpt lat="42.2413450" lon="1.8737100">
        <ele>754.8</ele>
        <time>2015-08-14T12:22:45Z</time>
      </trkpt>
      <trkpt lat="42.2413840" lon="1.8737000">
        <ele>754.7</ele>
        <time>2015-08-14T12:22:46Z</time>
      </trkpt>
      <trkpt lat="42.2414270" lon="1.8736800">
        <ele>754.6</ele>
        <time>2015-08-14T12:22:47Z</time>
      </trkpt>
      <trkpt lat="42.2414700" lon="1.8736610">
        <ele>754.5</ele>
        <time>2015-08-14T12:22:48Z</time>
      </trkpt>
      <trkpt lat="42.2415110" lon="1.8736420">
        <ele>754.4</ele>
        <time>2015-08-14T12:22:49Z</time>
      </trkpt>
      <trkpt lat="42.2415490" lon="1.8736170">
        <ele>754.2</ele>
        <time>2015-08-14T12:22:50Z</time>
      </trkpt>
      <trkpt lat="42.2415840" lon="1.8735990">
        <ele>754.1</ele>
        <time>2015-08-14T12:22:51Z</time>
      </trkpt>
      <trkpt lat="42.2416270" lon="1.8735560">
        <ele>753.7</ele>
        <time>2015-08-14T12:22:52Z</time>
      </trkpt>
      <trkpt lat="42.2416640" lon="1.8735340">
        <ele>753.6</ele>
        <time>2015-08-14T12:22:53Z</time>
      </trkpt>
      <trkpt lat="42.2417040" lon="1.8735110">
        <ele>753.4</ele>
        <time>2015-08-14T12:22:54Z</time>
      </trkpt>
      <trkpt lat="42.2417400" lon="1.8734780">
        <ele>753.1</ele>
        <time>2015-08-14T12:22:55Z</time>
      </trkpt>
      <trkpt lat="42.2417740" lon="1.8734550">
        <ele>752.9</ele>
        <time>2015-08-14T12:22:56Z</time>
      </trkpt>
      <trkpt lat="42.2418040" lon="1.8734260">
        <ele>752.7</ele>
        <time>2015-08-14T12:22:57Z</time>
      </trkpt>
      <trkpt lat="42.2418350" lon="1.8734020">
        <ele>752.5</ele>
        <time>2015-08-14T12:22:58Z</time>
      </trkpt>
      <trkpt lat="42.2418680" lon="1.8733680">
        <ele>752.2</ele>
        <time>2015-08-14T12:22:59Z</time>
      </trkpt>
      <trkpt lat="42.2419040" lon="1.8733290">
        <ele>751.9</ele>
        <time>2015-08-14T12:23:00Z</time>
      </trkpt>
      <trkpt lat="42.2419350" lon="1.8732910">
        <ele>751.5</ele>
        <time>2015-08-14T12:23:01Z</time>
      </trkpt>
      <trkpt lat="42.2419610" lon="1.8732500">
        <ele>751.1</ele>
        <time>2015-08-14T12:23:02Z</time>
      </trkpt>
      <trkpt lat="42.2419850" lon="1.8732150">
        <ele>750.8</ele>
        <time>2015-08-14T12:23:03Z</time>
      </trkpt>
      <trkpt lat="42.2420430" lon="1.8731840">
        <ele>750.6</ele>
        <time>2015-08-14T12:23:04Z</time>
      </trkpt>
      <trkpt lat="42.2420870" lon="1.8731470">
        <ele>750.3</ele>
        <time>2015-08-14T12:23:05Z</time>
      </trkpt>
      <trkpt lat="42.2421240" lon="1.8731020">
        <ele>750.6</ele>
        <time>2015-08-14T12:23:06Z</time>
      </trkpt>
      <trkpt lat="42.2421600" lon="1.8730530">
        <ele>750.7</ele>
        <time>2015-08-14T12:23:07Z</time>
      </trkpt>
      <trkpt lat="42.2421930" lon="1.8730120">
        <ele>750.8</ele>
        <time>2015-08-14T12:23:08Z</time>
      </trkpt>
      <trkpt lat="42.2422340" lon="1.8729750">
        <ele>751.1</ele>
        <time>2015-08-14T12:23:09Z</time>
      </trkpt>
      <trkpt lat="42.2422700" lon="1.8729320">
        <ele>751.1</ele>
        <time>2015-08-14T12:23:10Z</time>
      </trkpt>
      <trkpt lat="42.2423000" lon="1.8728960">
        <ele>751.4</ele>
        <time>2015-08-14T12:23:11Z</time>
      </trkpt>
      <trkpt lat="42.2423140" lon="1.8728520">
        <ele>751.6</ele>
        <time>2015-08-14T12:23:12Z</time>
      </trkpt>
      <trkpt lat="42.2423220" lon="1.8727970">
        <ele>751.7</ele>
        <time>2015-08-14T12:23:13Z</time>
      </trkpt>
      <trkpt lat="42.2423520" lon="1.8727540">
        <ele>752.1</ele>
        <time>2015-08-14T12:23:14Z</time>
      </trkpt>
      <trkpt lat="42.2423820" lon="1.8727180">
        <ele>752.4</ele>
        <time>2015-08-14T12:23:15Z</time>
      </trkpt>
      <trkpt lat="42.2424150" lon="1.8726730">
        <ele>752.8</ele>
        <time>2015-08-14T12:23:16Z</time>
      </trkpt>
      <trkpt lat="42.2424480" lon="1.8726320">
        <ele>753.1</ele>
        <time>2015-08-14T12:23:17Z</time>
      </trkpt>
      <trkpt lat="42.2424860" lon="1.8725940">
        <ele>753.4</ele>
        <time>2015-08-14T12:23:18Z</time>
      </trkpt>
      <trkpt lat="42.2425210" lon="1.8725510">
        <ele>753.6</ele>
        <time>2015-08-14T12:23:19Z</time>
      </trkpt>
      <trkpt lat="42.2425580" lon="1.8725090">
        <ele>753.8</ele>
        <time>2015-08-14T12:23:20Z</time>
      </trkpt>
      <trkpt lat="42.2425870" lon="1.8724680">
        <ele>753.9</ele>
        <time>2015-08-14T12:23:21Z</time>
      </trkpt>
      <trkpt lat="42.2426200" lon="1.8724350">
        <ele>754.0</ele>
        <time>2015-08-14T12:23:22Z</time>
      </trkpt>
      <trkpt lat="42.2426540" lon="1.8723940">
        <ele>754.1</ele>
        <time>2015-08-14T12:23:23Z</time>
      </trkpt>
      <trkpt lat="42.2426850" lon="1.8723490">
        <ele>754.0</ele>
        <time>2015-08-14T12:23:24Z</time>
      </trkpt>
      <trkpt lat="42.2427220" lon="1.8723040">
        <ele>754.0</ele>
        <time>2015-08-14T12:23:25Z</time>
      </trkpt>
      <trkpt lat="42.2427650" lon="1.8722690">
        <ele>754.0</ele>
        <time>2015-08-14T12:23:26Z</time>
      </trkpt>
      <trkpt lat="42.2428060" lon="1.8722320">
        <ele>753.9</ele>
        <time>2015-08-14T12:23:27Z</time>
      </trkpt>
      <trkpt lat="42.2428430" lon="1.8721950">
        <ele>753.8</ele>
        <time>2015-08-14T12:23:28Z</time>
      </trkpt>
      <trkpt lat="42.2428820" lon="1.8721640">
        <ele>753.6</ele>
        <time>2015-08-14T12:23:29Z</time>
      </trkpt>
      <trkpt lat="42.2429250" lon="1.8721260">
        <ele>753.5</ele>
        <time>2015-08-14T12:23:30Z</time>
      </trkpt>
      <trkpt lat="42.2429610" lon="1.8720870">
        <ele>753.6</ele>
        <time>2015-08-14T12:23:31Z</time>
      </trkpt>
      <trkpt lat="42.2430030" lon="1.8720520">
        <ele>754.1</ele>
        <time>2015-08-14T12:23:32Z</time>
      </trkpt>
      <trkpt lat="42.2430390" lon="1.8720170">
        <ele>754.6</ele>
        <time>2015-08-14T12:23:33Z</time>
      </trkpt>
      <trkpt lat="42.2430760" lon="1.8719950">
        <ele>755.0</ele>
        <time>2015-08-14T12:23:34Z</time>
      </trkpt>
      <trkpt lat="42.2431140" lon="1.8719580">
        <ele>755.4</ele>
        <time>2015-08-14T12:23:35Z</time>
      </trkpt>
      <trkpt lat="42.2431470" lon="1.8719240">
        <ele>755.8</ele>
        <time>2015-08-14T12:23:36Z</time>
      </trkpt>
      <trkpt lat="42.2431820" lon="1.8718880">
        <ele>756.1</ele>
        <time>2015-08-14T12:23:37Z</time>
      </trkpt>
      <trkpt lat="42.2432180" lon="1.8718550">
        <ele>756.4</ele>
        <time>2015-08-14T12:23:38Z</time>
      </trkpt>
      <trkpt lat="42.2432510" lon="1.8718200">
        <ele>756.6</ele>
        <time>2015-08-14T12:23:39Z</time>
      </trkpt>
      <trkpt lat="42.2432850" lon="1.8717850">
        <ele>756.8</ele>
        <time>2015-08-14T12:23:40Z</time>
      </trkpt>
      <trkpt lat="42.2433230" lon="1.8717530">
        <ele>757.0</ele>
        <time>2015-08-14T12:23:41Z</time>
      </trkpt>
      <trkpt lat="42.2433600" lon="1.8717260">
        <ele>757.2</ele>
        <time>2015-08-14T12:23:42Z</time>
      </trkpt>
      <trkpt lat="42.2433940" lon="1.8716950">
        <ele>757.4</ele>
        <time>2015-08-14T12:23:43Z</time>
      </trkpt>
      <trkpt lat="42.2434280" lon="1.8716600">
        <ele>757.5</ele>
        <time>2015-08-14T12:23:44Z</time>
      </trkpt>
      <trkpt lat="42.2434640" lon="1.8716250">
        <ele>757.5</ele>
        <time>2015-08-14T12:23:45Z</time>
      </trkpt>
      <trkpt lat="42.2434990" lon="1.8715930">
        <ele>757.6</ele>
        <time>2015-08-14T12:23:46Z</time>
      </trkpt>
      <trkpt lat="42.2435320" lon="1.8715520">
        <ele>757.5</ele>
        <time>2015-08-14T12:23:47Z</time>
      </trkpt>
      <trkpt lat="42.2435720" lon="1.8715230">
        <ele>757.6</ele>
        <time>2015-08-14T12:23:48Z</time>
      </trkpt>
      <trkpt lat="42.2436080" lon="1.8714830">
        <ele>757.5</ele>
        <time>2015-08-14T12:23:49Z</time>
      </trkpt>
      <trkpt lat="42.2436330" lon="1.8714410">
        <ele>757.3</ele>
        <time>2015-08-14T12:23:50Z</time>
      </trkpt>
      <trkpt lat="42.2436740" lon="1.8714090">
        <ele>757.2</ele>
        <time>2015-08-14T12:23:51Z</time>
      </trkpt>
      <trkpt lat="42.2437160" lon="1.8713770">
        <ele>757.1</ele>
        <time>2015-08-14T12:23:52Z</time>
      </trkpt>
      <trkpt lat="42.2437530" lon="1.8713400">
        <ele>756.9</ele>
        <time>2015-08-14T12:23:53Z</time>
      </trkpt>
      <trkpt lat="42.2437880" lon="1.8713130">
        <ele>757.0</ele>
        <time>2015-08-14T12:23:54Z</time>
      </trkpt>
      <trkpt lat="42.2438260" lon="1.8712840">
        <ele>757.1</ele>
        <time>2015-08-14T12:23:55Z</time>
      </trkpt>
      <trkpt lat="42.2438610" lon="1.8712490">
        <ele>757.1</ele>
        <time>2015-08-14T12:23:56Z</time>
      </trkpt>
      <trkpt lat="42.2439010" lon="1.8712260">
        <ele>757.4</ele>
        <time>2015-08-14T12:23:57Z</time>
      </trkpt>
      <trkpt lat="42.2439390" lon="1.8711940">
        <ele>757.7</ele>
        <time>2015-08-14T12:23:58Z</time>
      </trkpt>
      <trkpt lat="42.2439760" lon="1.8711560">
        <ele>758.0</ele>
        <time>2015-08-14T12:23:59Z</time>
      </trkpt>
      <trkpt lat="42.2440090" lon="1.8711190">
        <ele>758.2</ele>
        <time>2015-08-14T12:24:00Z</time>
      </trkpt>
      <trkpt lat="42.2440450" lon="1.8710840">
        <ele>758.4</ele>
        <time>2015-08-14T12:24:01Z</time>
      </trkpt>
      <trkpt lat="42.2440790" lon="1.8710490">
        <ele>758.6</ele>
        <time>2015-08-14T12:24:02Z</time>
      </trkpt>
      <trkpt lat="42.2441170" lon="1.8710190">
        <ele>758.8</ele>
        <time>2015-08-14T12:24:03Z</time>
      </trkpt>
      <trkpt lat="42.2441560" lon="1.8709820">
        <ele>759.0</ele>
        <time>2015-08-14T12:24:04Z</time>
      </trkpt>
      <trkpt lat="42.2441880" lon="1.8709450">
        <ele>759.1</ele>
        <time>2015-08-14T12:24:05Z</time>
      </trkpt>
      <trkpt lat="42.2442350" lon="1.8709350">
        <ele>759.3</ele>
        <time>2015-08-14T12:24:06Z</time>
      </trkpt>
      <trkpt lat="42.2442710" lon="1.8709070">
        <ele>759.5</ele>
        <time>2015-08-14T12:24:07Z</time>
      </trkpt>
      <trkpt lat="42.2443020" lon="1.8708690">
        <ele>759.5</ele>
        <time>2015-08-14T12:24:08Z</time>
      </trkpt>
      <trkpt lat="42.2443390" lon="1.8708250">
        <ele>759.5</ele>
        <time>2015-08-14T12:24:09Z</time>
      </trkpt>
      <trkpt lat="42.2443790" lon="1.8707840">
        <ele>759.5</ele>
        <time>2015-08-14T12:24:10Z</time>
      </trkpt>
      <trkpt lat="42.2444060" lon="1.8707410">
        <ele>759.4</ele>
        <time>2015-08-14T12:24:11Z</time>
      </trkpt>
      <trkpt lat="42.2444420" lon="1.8707210">
        <ele>759.5</ele>
        <time>2015-08-14T12:24:12Z</time>
      </trkpt>
      <trkpt lat="42.2444740" lon="1.8706780">
        <ele>759.4</ele>
        <time>2015-08-14T12:24:13Z</time>
      </trkpt>
      <trkpt lat="42.2445080" lon="1.8706500">
        <ele>759.3</ele>
        <time>2015-08-14T12:24:14Z</time>
      </trkpt>
      <trkpt lat="42.2445410" lon="1.8706120">
        <ele>759.2</ele>
        <time>2015-08-14T12:24:15Z</time>
      </trkpt>
      <trkpt lat="42.2445720" lon="1.8705930">
        <ele>759.2</ele>
        <time>2015-08-14T12:24:16Z</time>
      </trkpt>
      <trkpt lat="42.2446180" lon="1.8705460">
        <ele>759.3</ele>
        <time>2015-08-14T12:24:17Z</time>
      </trkpt>
      <trkpt lat="42.2446470" lon="1.8705110">
        <ele>759.3</ele>
        <time>2015-08-14T12:24:18Z</time>
      </trkpt>
      <trkpt lat="42.2446860" lon="1.8704710">
        <ele>759.5</ele>
        <time>2015-08-14T12:24:19Z</time>
      </trkpt>
      <trkpt lat="42.2447270" lon="1.8704410">
        <ele>759.7</ele>
        <time>2015-08-14T12:24:20Z</time>
      </trkpt>
      <trkpt lat="42.2447640" lon="1.8704040">
        <ele>759.9</ele>
        <time>2015-08-14T12:24:21Z</time>
      </trkpt>
      <trkpt lat="42.2448180" lon="1.8703900">
        <ele>760.5</ele>
        <time>2015-08-14T12:24:22Z</time>
      </trkpt>
      <trkpt lat="42.2448460" lon="1.8703580">
        <ele>760.8</ele>
        <time>2015-08-14T12:24:23Z</time>
      </trkpt>
      <trkpt lat="42.2448780" lon="1.8703200">
        <ele>761.1</ele>
        <time>2015-08-14T12:24:24Z</time>
      </trkpt>
      <trkpt lat="42.2449250" lon="1.8702930">
        <ele>761.5</ele>
        <time>2015-08-14T12:24:25Z</time>
      </trkpt>
      <trkpt lat="42.2449480" lon="1.8702490">
        <ele>761.7</ele>
        <time>2015-08-14T12:24:26Z</time>
      </trkpt>
      <trkpt lat="42.2449690" lon="1.8701950">
        <ele>761.8</ele>
        <time>2015-08-14T12:24:27Z</time>
      </trkpt>
      <trkpt lat="42.2450100" lon="1.8701630">
        <ele>762.1</ele>
        <time>2015-08-14T12:24:28Z</time>
      </trkpt>
      <trkpt lat="42.2450350" lon="1.8701090">
        <ele>762.3</ele>
        <time>2015-08-14T12:24:29Z</time>
      </trkpt>
      <trkpt lat="42.2450710" lon="1.8700910">
        <ele>762.6</ele>
        <time>2015-08-14T12:24:30Z</time>
      </trkpt>
      <trkpt lat="42.2451010" lon="1.8700390">
        <ele>762.7</ele>
        <time>2015-08-14T12:24:31Z</time>
      </trkpt>
      <trkpt lat="42.2451320" lon="1.8700080">
        <ele>763.0</ele>
        <time>2015-08-14T12:24:32Z</time>
      </trkpt>
      <trkpt lat="42.2451660" lon="1.8699670">
        <ele>763.2</ele>
        <time>2015-08-14T12:24:33Z</time>
      </trkpt>
      <trkpt lat="42.2451880" lon="1.8699350">
        <ele>763.3</ele>
        <time>2015-08-14T12:24:34Z</time>
      </trkpt>
      <trkpt lat="42.2452280" lon="1.8699100">
        <ele>763.6</ele>
        <time>2015-08-14T12:24:35Z</time>
      </trkpt>
      <trkpt lat="42.2452580" lon="1.8698770">
        <ele>763.7</ele>
        <time>2015-08-14T12:24:36Z</time>
      </trkpt>
      <trkpt lat="42.2452940" lon="1.8698440">
        <ele>763.9</ele>
        <time>2015-08-14T12:24:37Z</time>
      </trkpt>
      <trkpt lat="42.2453230" lon="1.8698100">
        <ele>764.0</ele>
        <time>2015-08-14T12:24:38Z</time>
      </trkpt>
      <trkpt lat="42.2453540" lon="1.8697790">
        <ele>764.2</ele>
        <time>2015-08-14T12:24:39Z</time>
      </trkpt>
      <trkpt lat="42.2453810" lon="1.8697530">
        <ele>764.3</ele>
        <time>2015-08-14T12:24:40Z</time>
      </trkpt>
      <trkpt lat="42.2454090" lon="1.8697270">
        <ele>764.5</ele>
        <time>2015-08-14T12:24:41Z</time>
      </trkpt>
      <trkpt lat="42.2454410" lon="1.8696980">
        <ele>764.5</ele>
        <time>2015-08-14T12:24:42Z</time>
      </trkpt>
      <trkpt lat="42.2454710" lon="1.8696770">
        <ele>764.6</ele>
        <time>2015-08-14T12:24:43Z</time>
      </trkpt>
      <trkpt lat="42.2455000" lon="1.8696590">
        <ele>764.7</ele>
        <time>2015-08-14T12:24:44Z</time>
      </trkpt>
      <trkpt lat="42.2455310" lon="1.8696330">
        <ele>764.7</ele>
        <time>2015-08-14T12:24:45Z</time>
      </trkpt>
      <trkpt lat="42.2455520" lon="1.8696090">
        <ele>764.7</ele>
        <time>2015-08-14T12:24:46Z</time>
      </trkpt>
      <trkpt lat="42.2455810" lon="1.8695830">
        <ele>764.8</ele>
        <time>2015-08-14T12:24:47Z</time>
      </trkpt>
      <trkpt lat="42.2456120" lon="1.8695590">
        <ele>764.8</ele>
        <time>2015-08-14T12:24:48Z</time>
      </trkpt>
      <trkpt lat="42.2456410" lon="1.8695320">
        <ele>764.9</ele>
        <time>2015-08-14T12:24:49Z</time>
      </trkpt>
      <trkpt lat="42.2456760" lon="1.8695150">
        <ele>764.9</ele>
        <time>2015-08-14T12:24:50Z</time>
      </trkpt>
      <trkpt lat="42.2457120" lon="1.8694880">
        <ele>765.0</ele>
        <time>2015-08-14T12:24:51Z</time>
      </trkpt>
      <trkpt lat="42.2457410" lon="1.8694550">
        <ele>765.0</ele>
        <time>2015-08-14T12:24:52Z</time>
      </trkpt>
      <trkpt lat="42.2457790" lon="1.8694250">
        <ele>765.0</ele>
        <time>2015-08-14T12:24:53Z</time>
      </trkpt>
      <trkpt lat="42.2458150" lon="1.8694000">
        <ele>765.0</ele>
        <time>2015-08-14T12:24:54Z</time>
      </trkpt>
      <trkpt lat="42.2458500" lon="1.8693770">
        <ele>765.1</ele>
        <time>2015-08-14T12:24:55Z</time>
      </trkpt>
      <trkpt lat="42.2458890" lon="1.8693590">
        <ele>765.2</ele>
        <time>2015-08-14T12:24:56Z</time>
      </trkpt>
      <trkpt lat="42.2459210" lon="1.8693370">
        <ele>765.2</ele>
        <time>2015-08-14T12:24:57Z</time>
      </trkpt>
      <trkpt lat="42.2459540" lon="1.8693200">
        <ele>765.2</ele>
        <time>2015-08-14T12:24:58Z</time>
      </trkpt>
      <trkpt lat="42.2459850" lon="1.8693030">
        <ele>765.3</ele>
        <time>2015-08-14T12:24:59Z</time>
      </trkpt>
      <trkpt lat="42.2460170" lon="1.8692970">
        <ele>765.4</ele>
        <time>2015-08-14T12:25:00Z</time>
      </trkpt>
      <trkpt lat="42.2460510" lon="1.8692970">
        <ele>765.5</ele>
        <time>2015-08-14T12:25:01Z</time>
      </trkpt>
      <trkpt lat="42.2460860" lon="1.8692920">
        <ele>765.6</ele>
        <time>2015-08-14T12:25:02Z</time>
      </trkpt>
      <trkpt lat="42.2461260" lon="1.8692720">
        <ele>765.6</ele>
        <time>2015-08-14T12:25:03Z</time>
      </trkpt>
      <trkpt lat="42.2461650" lon="1.8692560">
        <ele>765.7</ele>
        <time>2015-08-14T12:25:04Z</time>
      </trkpt>
      <trkpt lat="42.2461990" lon="1.8692430">
        <ele>765.8</ele>
        <time>2015-08-14T12:25:05Z</time>
      </trkpt>
      <trkpt lat="42.2462300" lon="1.8692300">
        <ele>765.8</ele>
        <time>2015-08-14T12:25:06Z</time>
      </trkpt>
      <trkpt lat="42.2462700" lon="1.8692160">
        <ele>765.9</ele>
        <time>2015-08-14T12:25:07Z</time>
      </trkpt>
      <trkpt lat="42.2463070" lon="1.8691990">
        <ele>766.0</ele>
        <time>2015-08-14T12:25:08Z</time>
      </trkpt>
      <trkpt lat="42.2463440" lon="1.8691760">
        <ele>766.1</ele>
        <time>2015-08-14T12:25:09Z</time>
      </trkpt>
      <trkpt lat="42.2463730" lon="1.8691530">
        <ele>766.1</ele>
        <time>2015-08-14T12:25:10Z</time>
      </trkpt>
      <trkpt lat="42.2464040" lon="1.8691340">
        <ele>766.1</ele>
        <time>2015-08-14T12:25:11Z</time>
      </trkpt>
      <trkpt lat="42.2464370" lon="1.8691150">
        <ele>766.2</ele>
        <time>2015-08-14T12:25:12Z</time>
      </trkpt>
      <trkpt lat="42.2464480" lon="1.8690750">
        <ele>766.0</ele>
        <time>2015-08-14T12:25:13Z</time>
      </trkpt>
      <trkpt lat="42.2464700" lon="1.8690450">
        <ele>766.0</ele>
        <time>2015-08-14T12:25:14Z</time>
      </trkpt>
      <trkpt lat="42.2465260" lon="1.8688770">
        <ele>765.4</ele>
        <time>2015-08-14T12:25:20Z</time>
      </trkpt>
      <trkpt lat="42.2465870" lon="1.8687510">
        <ele>765.0</ele>
        <time>2015-08-14T12:25:24Z</time>
      </trkpt>
      <trkpt lat="42.2466020" lon="1.8687190">
        <ele>764.9</ele>
        <time>2015-08-14T12:25:25Z</time>
      </trkpt>
      <trkpt lat="42.2467530" lon="1.8687180">
        <ele>765.8</ele>
        <time>2015-08-14T12:25:27Z</time>
      </trkpt>
      <trkpt lat="42.2468690" lon="1.8687080">
        <ele>766.4</ele>
        <time>2015-08-14T12:25:31Z</time>
      </trkpt>
      <trkpt lat="42.2469220" lon="1.8686260">
        <ele>766.0</ele>
        <time>2015-08-14T12:25:33Z</time>
      </trkpt>
      <trkpt lat="42.2469370" lon="1.8685860">
        <ele>765.7</ele>
        <time>2015-08-14T12:25:34Z</time>
      </trkpt>
      <trkpt lat="42.2469630" lon="1.8685470">
        <ele>765.5</ele>
        <time>2015-08-14T12:25:35Z</time>
      </trkpt>
      <trkpt lat="42.2469810" lon="1.8685010">
        <ele>765.1</ele>
        <time>2015-08-14T12:25:36Z</time>
      </trkpt>
      <trkpt lat="42.2469990" lon="1.8684600">
        <ele>764.9</ele>
        <time>2015-08-14T12:25:37Z</time>
      </trkpt>
      <trkpt lat="42.2470230" lon="1.8684120">
        <ele>764.5</ele>
        <time>2015-08-14T12:25:38Z</time>
      </trkpt>
      <trkpt lat="42.2470500" lon="1.8683730">
        <ele>764.3</ele>
        <time>2015-08-14T12:25:39Z</time>
      </trkpt>
      <trkpt lat="42.2470830" lon="1.8683330">
        <ele>764.0</ele>
        <time>2015-08-14T12:25:40Z</time>
      </trkpt>
      <trkpt lat="42.2471160" lon="1.8682970">
        <ele>763.8</ele>
        <time>2015-08-14T12:25:41Z</time>
      </trkpt>
      <trkpt lat="42.2471840" lon="1.8682170">
        <ele>763.5</ele>
        <time>2015-08-14T12:25:43Z</time>
      </trkpt>
      <trkpt lat="42.2472230" lon="1.8681790">
        <ele>763.3</ele>
        <time>2015-08-14T12:25:44Z</time>
      </trkpt>
      <trkpt lat="42.2472610" lon="1.8681470">
        <ele>763.2</ele>
        <time>2015-08-14T12:25:45Z</time>
      </trkpt>
      <trkpt lat="42.2473020" lon="1.8681050">
        <ele>763.0</ele>
        <time>2015-08-14T12:25:46Z</time>
      </trkpt>
      <trkpt lat="42.2473360" lon="1.8680680">
        <ele>762.8</ele>
        <time>2015-08-14T12:25:47Z</time>
      </trkpt>
      <trkpt lat="42.2473780" lon="1.8680300">
        <ele>762.6</ele>
        <time>2015-08-14T12:25:48Z</time>
      </trkpt>
      <trkpt lat="42.2474200" lon="1.8679940">
        <ele>762.4</ele>
        <time>2015-08-14T12:25:49Z</time>
      </trkpt>
      <trkpt lat="42.2474600" lon="1.8679610">
        <ele>762.3</ele>
        <time>2015-08-14T12:25:50Z</time>
      </trkpt>
      <trkpt lat="42.2475000" lon="1.8679300">
        <ele>762.1</ele>
        <time>2015-08-14T12:25:51Z</time>
      </trkpt>
      <trkpt lat="42.2475380" lon="1.8678940">
        <ele>762.2</ele>
        <time>2015-08-14T12:25:52Z</time>
      </trkpt>
      <trkpt lat="42.2475690" lon="1.8678540">
        <ele>762.4</ele>
        <time>2015-08-14T12:25:53Z</time>
      </trkpt>
      <trkpt lat="42.2476050" lon="1.8678150">
        <ele>762.5</ele>
        <time>2015-08-14T12:25:54Z</time>
      </trkpt>
      <trkpt lat="42.2476450" lon="1.8677730">
        <ele>762.8</ele>
        <time>2015-08-14T12:25:55Z</time>
      </trkpt>
      <trkpt lat="42.2476850" lon="1.8677390">
        <ele>762.9</ele>
        <time>2015-08-14T12:25:56Z</time>
      </trkpt>
      <trkpt lat="42.2477240" lon="1.8677020">
        <ele>763.1</ele>
        <time>2015-08-14T12:25:57Z</time>
      </trkpt>
      <trkpt lat="42.2477640" lon="1.8676580">
        <ele>763.3</ele>
        <time>2015-08-14T12:25:58Z</time>
      </trkpt>
      <trkpt lat="42.2478080" lon="1.8676230">
        <ele>763.5</ele>
        <time>2015-08-14T12:25:59Z</time>
      </trkpt>
      <trkpt lat="42.2478480" lon="1.8675850">
        <ele>763.7</ele>
        <time>2015-08-14T12:26:00Z</time>
      </trkpt>
      <trkpt lat="42.2478900" lon="1.8675490">
        <ele>763.9</ele>
        <time>2015-08-14T12:26:01Z</time>
      </trkpt>
      <trkpt lat="42.2479300" lon="1.8675070">
        <ele>764.1</ele>
        <time>2015-08-14T12:26:02Z</time>
      </trkpt>
      <trkpt lat="42.2479650" lon="1.8674670">
        <ele>764.5</ele>
        <time>2015-08-14T12:26:03Z</time>
      </trkpt>
      <trkpt lat="42.2480010" lon="1.8674200">
        <ele>764.8</ele>
        <time>2015-08-14T12:26:04Z</time>
      </trkpt>
      <trkpt lat="42.2480390" lon="1.8673740">
        <ele>765.1</ele>
        <time>2015-08-14T12:26:05Z</time>
      </trkpt>
      <trkpt lat="42.2480750" lon="1.8673310">
        <ele>765.4</ele>
        <time>2015-08-14T12:26:06Z</time>
      </trkpt>
      <trkpt lat="42.2481130" lon="1.8672880">
        <ele>765.7</ele>
        <time>2015-08-14T12:26:07Z</time>
      </trkpt>
      <trkpt lat="42.2481520" lon="1.8672560">
        <ele>766.0</ele>
        <time>2015-08-14T12:26:08Z</time>
      </trkpt>
      <trkpt lat="42.2481930" lon="1.8672230">
        <ele>766.3</ele>
        <time>2015-08-14T12:26:09Z</time>
      </trkpt>
      <trkpt lat="42.2482210" lon="1.8671890">
        <ele>766.4</ele>
        <time>2015-08-14T12:26:10Z</time>
      </trkpt>
      <trkpt lat="42.2482690" lon="1.8671470">
        <ele>766.7</ele>
        <time>2015-08-14T12:26:11Z</time>
      </trkpt>
      <trkpt lat="42.2483100" lon="1.8671120">
        <ele>766.9</ele>
        <time>2015-08-14T12:26:12Z</time>
      </trkpt>
      <trkpt lat="42.2483600" lon="1.8670870">
        <ele>767.2</ele>
        <time>2015-08-14T12:26:13Z</time>
      </trkpt>
      <trkpt lat="42.2483970" lon="1.8670550">
        <ele>767.5</ele>
        <time>2015-08-14T12:26:14Z</time>
      </trkpt>
      <trkpt lat="42.2484270" lon="1.8670230">
        <ele>767.7</ele>
        <time>2015-08-14T12:26:15Z</time>
      </trkpt>
      <trkpt lat="42.2484660" lon="1.8669910">
        <ele>768.0</ele>
        <time>2015-08-14T12:26:16Z</time>
      </trkpt>
      <trkpt lat="42.2485050" lon="1.8669660">
        <ele>768.2</ele>
        <time>2015-08-14T12:26:17Z</time>
      </trkpt>
      <trkpt lat="42.2485420" lon="1.8669440">
        <ele>768.3</ele>
        <time>2015-08-14T12:26:18Z</time>
      </trkpt>
      <trkpt lat="42.2485730" lon="1.8669190">
        <ele>768.4</ele>
        <time>2015-08-14T12:26:19Z</time>
      </trkpt>
      <trkpt lat="42.2486030" lon="1.8668850">
        <ele>768.4</ele>
        <time>2015-08-14T12:26:20Z</time>
      </trkpt>
      <trkpt lat="42.2486320" lon="1.8668530">
        <ele>768.4</ele>
        <time>2015-08-14T12:26:21Z</time>
      </trkpt>
      <trkpt lat="42.2486620" lon="1.8668250">
        <ele>768.3</ele>
        <time>2015-08-14T12:26:22Z</time>
      </trkpt>
      <trkpt lat="42.2486890" lon="1.8667970">
        <ele>768.2</ele>
        <time>2015-08-14T12:26:23Z</time>
      </trkpt>
      <trkpt lat="42.2487190" lon="1.8667740">
        <ele>768.1</ele>
        <time>2015-08-14T12:26:24Z</time>
      </trkpt>
      <trkpt lat="42.2487520" lon="1.8667460">
        <ele>768.0</ele>
        <time>2015-08-14T12:26:25Z</time>
      </trkpt>
      <trkpt lat="42.2487780" lon="1.8667200">
        <ele>768.1</ele>
        <time>2015-08-14T12:26:26Z</time>
      </trkpt>
      <trkpt lat="42.2488080" lon="1.8666880">
        <ele>768.2</ele>
        <time>2015-08-14T12:26:27Z</time>
      </trkpt>
      <trkpt lat="42.2488370" lon="1.8666490">
        <ele>768.2</ele>
        <time>2015-08-14T12:26:28Z</time>
      </trkpt>
      <trkpt lat="42.2488680" lon="1.8666210">
        <ele>768.4</ele>
        <time>2015-08-14T12:26:29Z</time>
      </trkpt>
      <trkpt lat="42.2488980" lon="1.8665890">
        <ele>768.5</ele>
        <time>2015-08-14T12:26:30Z</time>
      </trkpt>
      <trkpt lat="42.2489280" lon="1.8665610">
        <ele>768.6</ele>
        <time>2015-08-14T12:26:31Z</time>
      </trkpt>
      <trkpt lat="42.2489590" lon="1.8665300">
        <ele>768.7</ele>
        <time>2015-08-14T12:26:32Z</time>
      </trkpt>
      <trkpt lat="42.2489910" lon="1.8664980">
        <ele>768.8</ele>
        <time>2015-08-14T12:26:33Z</time>
      </trkpt>
      <trkpt lat="42.2490200" lon="1.8664580">
        <ele>768.8</ele>
        <time>2015-08-14T12:26:34Z</time>
      </trkpt>
      <trkpt lat="42.2490490" lon="1.8664280">
        <ele>768.9</ele>
        <time>2015-08-14T12:26:35Z</time>
      </trkpt>
      <trkpt lat="42.2490830" lon="1.8664000">
        <ele>769.1</ele>
        <time>2015-08-14T12:26:36Z</time>
      </trkpt>
      <trkpt lat="42.2491180" lon="1.8663780">
        <ele>769.3</ele>
        <time>2015-08-14T12:26:37Z</time>
      </trkpt>
      <trkpt lat="42.2491480" lon="1.8663570">
        <ele>769.5</ele>
        <time>2015-08-14T12:26:38Z</time>
      </trkpt>
      <trkpt lat="42.2491760" lon="1.8663400">
        <ele>769.6</ele>
        <time>2015-08-14T12:26:39Z</time>
      </trkpt>
      <trkpt lat="42.2492080" lon="1.8663200">
        <ele>769.8</ele>
        <time>2015-08-14T12:26:40Z</time>
      </trkpt>
      <trkpt lat="42.2492420" lon="1.8662950">
        <ele>770.0</ele>
        <time>2015-08-14T12:26:41Z</time>
      </trkpt>
      <trkpt lat="42.2492670" lon="1.8662770">
        <ele>770.1</ele>
        <time>2015-08-14T12:26:42Z</time>
      </trkpt>
      <trkpt lat="42.2492880" lon="1.8662500">
        <ele>770.2</ele>
        <time>2015-08-14T12:26:43Z</time>
      </trkpt>
      <trkpt lat="42.2493180" lon="1.8662210">
        <ele>770.5</ele>
        <time>2015-08-14T12:26:44Z</time>
      </trkpt>
      <trkpt lat="42.2493500" lon="1.8661930">
        <ele>770.8</ele>
        <time>2015-08-14T12:26:45Z</time>
      </trkpt>
      <trkpt lat="42.2493720" lon="1.8661560">
        <ele>771.0</ele>
        <time>2015-08-14T12:26:46Z</time>
      </trkpt>
      <trkpt lat="42.2493990" lon="1.8661390">
        <ele>771.2</ele>
        <time>2015-08-14T12:26:47Z</time>
      </trkpt>
      <trkpt lat="42.2494350" lon="1.8661220">
        <ele>771.5</ele>
        <time>2015-08-14T12:26:48Z</time>
      </trkpt>
      <trkpt lat="42.2494630" lon="1.8661110">
        <ele>771.7</ele>
        <time>2015-08-14T12:26:49Z</time>
      </trkpt>
      <trkpt lat="42.2494910" lon="1.8660970">
        <ele>771.9</ele>
        <time>2015-08-14T12:26:50Z</time>
      </trkpt>
      <trkpt lat="42.2495130" lon="1.8660730">
        <ele>772.1</ele>
        <time>2015-08-14T12:26:51Z</time>
      </trkpt>
      <trkpt lat="42.2495480" lon="1.8660380">
        <ele>772.2</ele>
        <time>2015-08-14T12:26:52Z</time>
      </trkpt>
      <trkpt lat="42.2495860" lon="1.8659870">
        <ele>772.4</ele>
        <time>2015-08-14T12:26:53Z</time>
      </trkpt>
      <trkpt lat="42.2496120" lon="1.8659450">
        <ele>772.5</ele>
        <time>2015-08-14T12:26:55Z</time>
      </trkpt>
      <trkpt lat="42.2496440" lon="1.8659120">
        <ele>772.7</ele>
        <time>2015-08-14T12:26:56Z</time>
      </trkpt>
      <trkpt lat="42.2496590" lon="1.8658590">
        <ele>772.7</ele>
        <time>2015-08-14T12:26:57Z</time>
      </trkpt>
      <trkpt lat="42.2496940" lon="1.8658250">
        <ele>773.0</ele>
        <time>2015-08-14T12:26:58Z</time>
      </trkpt>
      <trkpt lat="42.2497160" lon="1.8657960">
        <ele>773.1</ele>
        <time>2015-08-14T12:26:59Z</time>
      </trkpt>
      <trkpt lat="42.2497230" lon="1.8657530">
        <ele>773.0</ele>
        <time>2015-08-14T12:27:00Z</time>
      </trkpt>
      <trkpt lat="42.2497400" lon="1.8657190">
        <ele>773.1</ele>
        <time>2015-08-14T12:27:01Z</time>
      </trkpt>
      <trkpt lat="42.2497770" lon="1.8656970">
        <ele>773.4</ele>
        <time>2015-08-14T12:27:02Z</time>
      </trkpt>
      <trkpt lat="42.2498030" lon="1.8656680">
        <ele>773.5</ele>
        <time>2015-08-14T12:27:03Z</time>
      </trkpt>
      <trkpt lat="42.2498260" lon="1.8656270">
        <ele>773.6</ele>
        <time>2015-08-14T12:27:04Z</time>
      </trkpt>
      <trkpt lat="42.2498480" lon="1.8655980">
        <ele>773.7</ele>
        <time>2015-08-14T12:27:05Z</time>
      </trkpt>
      <trkpt lat="42.2498690" lon="1.8655610">
        <ele>773.8</ele>
        <time>2015-08-14T12:27:06Z</time>
      </trkpt>
      <trkpt lat="42.2498770" lon="1.8655140">
        <ele>773.7</ele>
        <time>2015-08-14T12:27:07Z</time>
      </trkpt>
      <trkpt lat="42.2498870" lon="1.8654710">
        <ele>773.7</ele>
        <time>2015-08-14T12:27:08Z</time>
      </trkpt>
      <trkpt lat="42.2498930" lon="1.8654330">
        <ele>773.6</ele>
        <time>2015-08-14T12:27:09Z</time>
      </trkpt>
      <trkpt lat="42.2498980" lon="1.8653970">
        <ele>773.6</ele>
        <time>2015-08-14T12:27:10Z</time>
      </trkpt>
      <trkpt lat="42.2499150" lon="1.8653670">
        <ele>773.7</ele>
        <time>2015-08-14T12:27:11Z</time>
      </trkpt>
      <trkpt lat="42.2498830" lon="1.8653540">
        <ele>773.4</ele>
        <time>2015-08-14T12:27:17Z</time>
      </trkpt>
    </trkseg>
  </trk>
</gpx>
